<?xml version="1.0" encoding="UTF-8"?>
<TrainingCenterDatabase xmlns="http://www.garmin.com/xmlschemas/TrainingCenterDatabase/v2" xmlns:xsi="http://www.w3.org/2001/XMLSchema-instance" xsi:schemaLocation="http://www.garmin.com/xmlschemas/TrainingCenterDatabase/v2 http://www.garmin.com/xmlschemas/TrainingCenterDatabasev2.xsd">
  <Activities>
    <Activity Sport="Other">
      <Id>2018-04-30T07:40:02.000Z</Id>
      <Lap StartTime="2018-04-30T07:40:02.000Z">
        <TotalTimeSeconds>42159</TotalTimeSeconds>
        <DistanceMeters>21400</DistanceMeters>
        <Track>
          <Trackpoint>
            <Time>2018-04-30T07:40:02.000Z</Time>
            <Position>
              <LatitudeDegrees>42.6975842379033565521240234375</LatitudeDegrees>
              <LongitudeDegrees>1.2365397624671459197998046875</LongitudeDegrees>
            </Position>
            <AltitudeMeters>1774.800048828125</AltitudeMeters>
            <DistanceMeters>0</DistanceMeters>
          </Trackpoint>
          <Trackpoint>
            <Time>2018-04-30T07:40:03.000Z</Time>
            <Position>
              <LatitudeDegrees>42.6975906081497669219970703125</LatitudeDegrees>
              <LongitudeDegrees>1.2365380860865116119384765625</LongitudeDegrees>
            </Position>
            <AltitudeMeters>1671.800048828125</AltitudeMeters>
            <DistanceMeters>0.71743596042113</DistanceMeters>
          </Trackpoint>
          <Trackpoint>
            <Time>2018-04-30T07:40:04.000Z</Time>
            <Position>
              <LatitudeDegrees>42.69759505055844783782958984375</LatitudeDegrees>
              <LongitudeDegrees>1.2365390919148921966552734375</LongitudeDegrees>
            </Position>
            <AltitudeMeters>1671.800048828125</AltitudeMeters>
            <DistanceMeters>1.2112092525166</DistanceMeters>
          </Trackpoint>
          <Trackpoint>
            <Time>2018-04-30T07:40:06.000Z</Time>
            <Position>
              <LatitudeDegrees>42.69761122763156890869140625</LatitudeDegrees>
              <LongitudeDegrees>1.236541271209716796875</LongitudeDegrees>
            </Position>
            <AltitudeMeters>1775.5999755859375</AltitudeMeters>
            <DistanceMeters>3.0192157991617</DistanceMeters>
          </Trackpoint>
          <Trackpoint>
            <Time>2018-04-30T07:40:07.000Z</Time>
            <Position>
              <LatitudeDegrees>42.697622291743755340576171875</LatitudeDegrees>
              <LongitudeDegrees>1.23654269613325595855712890625</LongitudeDegrees>
            </Position>
            <AltitudeMeters>1775.5999755859375</AltitudeMeters>
            <DistanceMeters>4.2582125689202</DistanceMeters>
          </Trackpoint>
          <Trackpoint>
            <Time>2018-04-30T07:40:28.000Z</Time>
            <Position>
              <LatitudeDegrees>42.69781214185059070587158203125</LatitudeDegrees>
              <LongitudeDegrees>1.236567758023738861083984375</LongitudeDegrees>
            </Position>
            <AltitudeMeters>1777.800048828125</AltitudeMeters>
            <DistanceMeters>25.488337522568</DistanceMeters>
          </Trackpoint>
          <Trackpoint>
            <Time>2018-04-30T07:40:44.000Z</Time>
            <Position>
              <LatitudeDegrees>42.69800056703388690948486328125</LatitudeDegrees>
              <LongitudeDegrees>1.23658225871622562408447265625</LongitudeDegrees>
            </Position>
            <AltitudeMeters>1780.4000244140625</AltitudeMeters>
            <DistanceMeters>46.49418564536</DistanceMeters>
          </Trackpoint>
          <Trackpoint>
            <Time>2018-04-30T07:41:02.000Z</Time>
            <Position>
              <LatitudeDegrees>42.6982051692903041839599609375</LatitudeDegrees>
              <LongitudeDegrees>1.2365776486694812774658203125</LongitudeDegrees>
            </Position>
            <AltitudeMeters>1783</AltitudeMeters>
            <DistanceMeters>69.270088951265</DistanceMeters>
          </Trackpoint>
          <Trackpoint>
            <Time>2018-04-30T07:41:19.000Z</Time>
            <Position>
              <LatitudeDegrees>42.69836534745991230010986328125</LatitudeDegrees>
              <LongitudeDegrees>1.23643993400037288665771484375</LongitudeDegrees>
            </Position>
            <AltitudeMeters>1785</AltitudeMeters>
            <DistanceMeters>90.359169657119</DistanceMeters>
          </Trackpoint>
          <Trackpoint>
            <Time>2018-04-30T07:41:36.000Z</Time>
            <Position>
              <LatitudeDegrees>42.6985612325370311737060546875</LatitudeDegrees>
              <LongitudeDegrees>1.2364353239536285400390625</LongitudeDegrees>
            </Position>
            <AltitudeMeters>1787.199951171875</AltitudeMeters>
            <DistanceMeters>112.16526434155</DistanceMeters>
          </Trackpoint>
          <Trackpoint>
            <Time>2018-04-30T07:41:53.000Z</Time>
            <Position>
              <LatitudeDegrees>42.6987489871680736541748046875</LatitudeDegrees>
              <LongitudeDegrees>1.23630263842642307281494140625</LongitudeDegrees>
            </Position>
            <AltitudeMeters>1789.5999755859375</AltitudeMeters>
            <DistanceMeters>135.71310658066</DistanceMeters>
          </Trackpoint>
          <Trackpoint>
            <Time>2018-04-30T07:42:08.000Z</Time>
            <Position>
              <LatitudeDegrees>42.698899023234844207763671875</LatitudeDegrees>
              <LongitudeDegrees>1.23626005835831165313720703125</LongitudeDegrees>
            </Position>
            <AltitudeMeters>1791.5999755859375</AltitudeMeters>
            <DistanceMeters>152.77165908099</DistanceMeters>
          </Trackpoint>
          <Trackpoint>
            <Time>2018-04-30T07:42:13.000Z</Time>
            <Position>
              <LatitudeDegrees>42.6989417709410190582275390625</LatitudeDegrees>
              <LongitudeDegrees>1.2362339906394481658935546875</LongitudeDegrees>
            </Position>
            <AltitudeMeters>1792</AltitudeMeters>
            <DistanceMeters>157.9851540792</DistanceMeters>
          </Trackpoint>
          <Trackpoint>
            <Time>2018-04-30T07:42:14.000Z</Time>
            <Position>
              <LatitudeDegrees>42.69894973374903202056884765625</LatitudeDegrees>
              <LongitudeDegrees>1.23623172752559185028076171875</LongitudeDegrees>
            </Position>
            <AltitudeMeters>1792</AltitudeMeters>
            <DistanceMeters>158.89661830386</DistanceMeters>
          </Trackpoint>
          <Trackpoint>
            <Time>2018-04-30T07:42:15.000Z</Time>
            <Position>
              <LatitudeDegrees>42.6989568583667278289794921875</LatitudeDegrees>
              <LongitudeDegrees>1.23623508028686046600341796875</LongitudeDegrees>
            </Position>
            <AltitudeMeters>1792.199951171875</AltitudeMeters>
            <DistanceMeters>159.73587152109</DistanceMeters>
          </Trackpoint>
          <Trackpoint>
            <Time>2018-04-30T07:42:16.000Z</Time>
            <Position>
              <LatitudeDegrees>42.69896582700312137603759765625</LatitudeDegrees>
              <LongitudeDegrees>1.2362393550574779510498046875</LongitudeDegrees>
            </Position>
            <AltitudeMeters>1792.199951171875</AltitudeMeters>
            <DistanceMeters>160.79404422866</DistanceMeters>
          </Trackpoint>
          <Trackpoint>
            <Time>2018-04-30T07:42:17.000Z</Time>
            <Position>
              <LatitudeDegrees>42.69897555001080036163330078125</LatitudeDegrees>
              <LongitudeDegrees>1.23623860068619251251220703125</LongitudeDegrees>
            </Position>
            <AltitudeMeters>1792.4000244140625</AltitudeMeters>
            <DistanceMeters>161.87751547319</DistanceMeters>
          </Trackpoint>
          <Trackpoint>
            <Time>2018-04-30T07:42:18.000Z</Time>
            <Position>
              <LatitudeDegrees>42.69898720085620880126953125</LatitudeDegrees>
              <LongitudeDegrees>1.23623759485781192779541015625</LongitudeDegrees>
            </Position>
            <AltitudeMeters>1792.5999755859375</AltitudeMeters>
            <DistanceMeters>163.17350706983</DistanceMeters>
          </Trackpoint>
          <Trackpoint>
            <Time>2018-04-30T07:42:19.000Z</Time>
            <Position>
              <LatitudeDegrees>42.6989991031587123870849609375</LatitudeDegrees>
              <LongitudeDegrees>1.2362346611917018890380859375</LongitudeDegrees>
            </Position>
            <AltitudeMeters>1792.5999755859375</AltitudeMeters>
            <DistanceMeters>164.51738775233</DistanceMeters>
          </Trackpoint>
          <Trackpoint>
            <Time>2018-04-30T07:42:20.000Z</Time>
            <Position>
              <LatitudeDegrees>42.6990111730992794036865234375</LatitudeDegrees>
              <LongitudeDegrees>1.236235834658145904541015625</LongitudeDegrees>
            </Position>
            <AltitudeMeters>1792.800048828125</AltitudeMeters>
            <DistanceMeters>165.86126843483</DistanceMeters>
          </Trackpoint>
          <Trackpoint>
            <Time>2018-04-30T07:42:38.000Z</Time>
            <Position>
              <LatitudeDegrees>42.6991952396929264068603515625</LatitudeDegrees>
              <LongitudeDegrees>1.23624094761908054351806640625</LongitudeDegrees>
            </Position>
            <AltitudeMeters>1795.800048828125</AltitudeMeters>
            <DistanceMeters>186.35225412345</DistanceMeters>
          </Trackpoint>
          <Trackpoint>
            <Time>2018-04-30T07:42:39.000Z</Time>
            <Position>
              <LatitudeDegrees>42.6992063038051128387451171875</LatitudeDegrees>
              <LongitudeDegrees>1.2362443841993808746337890625</LongitudeDegrees>
            </Position>
            <AltitudeMeters>1795.800048828125</AltitudeMeters>
            <DistanceMeters>187.61292594995</DistanceMeters>
          </Trackpoint>
          <Trackpoint>
            <Time>2018-04-30T07:42:40.000Z</Time>
            <Position>
              <LatitudeDegrees>42.69921795465052127838134765625</LatitudeDegrees>
              <LongitudeDegrees>1.236243546009063720703125</LongitudeDegrees>
            </Position>
            <AltitudeMeters>1796</AltitudeMeters>
            <DistanceMeters>188.9089175466</DistanceMeters>
          </Trackpoint>
          <Trackpoint>
            <Time>2018-04-30T07:42:41.000Z</Time>
            <Position>
              <LatitudeDegrees>42.69923019222915172576904296875</LatitudeDegrees>
              <LongitudeDegrees>1.23623826541006565093994140625</LongitudeDegrees>
            </Position>
            <AltitudeMeters>1796.199951171875</AltitudeMeters>
            <DistanceMeters>190.33748230758</DistanceMeters>
          </Trackpoint>
          <Trackpoint>
            <Time>2018-04-30T07:42:42.000Z</Time>
            <Position>
              <LatitudeDegrees>42.6992426812648773193359375</LatitudeDegrees>
              <LongitudeDegrees>1.2362370081245899200439453125</LongitudeDegrees>
            </Position>
            <AltitudeMeters>1796.199951171875</AltitudeMeters>
            <DistanceMeters>191.73408408042</DistanceMeters>
          </Trackpoint>
          <Trackpoint>
            <Time>2018-04-30T07:42:43.000Z</Time>
            <Position>
              <LatitudeDegrees>42.699252404272556304931640625</LatitudeDegrees>
              <LongitudeDegrees>1.23623642139136791229248046875</LongitudeDegrees>
            </Position>
            <AltitudeMeters>1796.4000244140625</AltitudeMeters>
            <DistanceMeters>192.81338008304</DistanceMeters>
          </Trackpoint>
          <Trackpoint>
            <Time>2018-04-30T07:42:44.000Z</Time>
            <Position>
              <LatitudeDegrees>42.699264474213123321533203125</LatitudeDegrees>
              <LongitudeDegrees>1.23623709194362163543701171875</LongitudeDegrees>
            </Position>
            <AltitudeMeters>1796.5999755859375</AltitudeMeters>
            <DistanceMeters>194.16061627809</DistanceMeters>
          </Trackpoint>
          <Trackpoint>
            <Time>2018-04-30T07:42:45.000Z</Time>
            <Position>
              <LatitudeDegrees>42.69927528686821460723876953125</LatitudeDegrees>
              <LongitudeDegrees>1.23623692430555820465087890625</LongitudeDegrees>
            </Position>
            <AltitudeMeters>1796.5999755859375</AltitudeMeters>
            <DistanceMeters>195.36261970197</DistanceMeters>
          </Trackpoint>
          <Trackpoint>
            <Time>2018-04-30T07:42:46.000Z</Time>
            <Position>
              <LatitudeDegrees>42.6992864347994327545166015625</LatitudeDegrees>
              <LongitudeDegrees>1.23623885214328765869140625</LongitudeDegrees>
            </Position>
            <AltitudeMeters>1796.800048828125</AltitudeMeters>
            <DistanceMeters>196.61250098626</DistanceMeters>
          </Trackpoint>
          <Trackpoint>
            <Time>2018-04-30T07:43:04.000Z</Time>
            <Position>
              <LatitudeDegrees>42.69948483444750308990478515625</LatitudeDegrees>
              <LongitudeDegrees>1.23625251464545726776123046875</LongitudeDegrees>
            </Position>
            <AltitudeMeters>1798.800048828125</AltitudeMeters>
            <DistanceMeters>218.72291207523</DistanceMeters>
          </Trackpoint>
          <Trackpoint>
            <Time>2018-04-30T07:43:05.000Z</Time>
            <Position>
              <LatitudeDegrees>42.69949304871261119842529296875</LatitudeDegrees>
              <LongitudeDegrees>1.2362470664083957672119140625</LongitudeDegrees>
            </Position>
            <AltitudeMeters>1799</AltitudeMeters>
            <DistanceMeters>219.73751974059</DistanceMeters>
          </Trackpoint>
          <Trackpoint>
            <Time>2018-04-30T07:43:06.000Z</Time>
            <Position>
              <LatitudeDegrees>42.69950360991060733795166015625</LatitudeDegrees>
              <LongitudeDegrees>1.2362440489232540130615234375</LongitudeDegrees>
            </Position>
            <AltitudeMeters>1799</AltitudeMeters>
            <DistanceMeters>220.9357610162</DistanceMeters>
          </Trackpoint>
          <Trackpoint>
            <Time>2018-04-30T07:43:09.000Z</Time>
            <Position>
              <LatitudeDegrees>42.6995301805436611175537109375</LatitudeDegrees>
              <LongitudeDegrees>1.23624664731323719024658203125</LongitudeDegrees>
            </Position>
            <AltitudeMeters>1799.5999755859375</AltitudeMeters>
            <DistanceMeters>223.90144718578</DistanceMeters>
          </Trackpoint>
          <Trackpoint>
            <Time>2018-04-30T07:43:19.000Z</Time>
            <Position>
              <LatitudeDegrees>42.6996503770351409912109375</LatitudeDegrees>
              <LongitudeDegrees>1.2362370081245899200439453125</LongitudeDegrees>
            </Position>
            <AltitudeMeters>1800.800048828125</AltitudeMeters>
            <DistanceMeters>237.30290943413</DistanceMeters>
          </Trackpoint>
          <Trackpoint>
            <Time>2018-04-30T07:43:35.000Z</Time>
            <Position>
              <LatitudeDegrees>42.69984223879873752593994140625</LatitudeDegrees>
              <LongitudeDegrees>1.23615704476833343505859375</LongitudeDegrees>
            </Position>
            <AltitudeMeters>1802.5999755859375</AltitudeMeters>
            <DistanceMeters>259.6368155549</DistanceMeters>
          </Trackpoint>
          <Trackpoint>
            <Time>2018-04-30T07:43:51.000Z</Time>
            <Position>
              <LatitudeDegrees>42.700015492737293243408203125</LatitudeDegrees>
              <LongitudeDegrees>1.23614254407584667205810546875</LongitudeDegrees>
            </Position>
            <AltitudeMeters>1804.800048828125</AltitudeMeters>
            <DistanceMeters>278.95694081039</DistanceMeters>
          </Trackpoint>
          <Trackpoint>
            <Time>2018-04-30T07:44:02.000Z</Time>
            <Position>
              <LatitudeDegrees>42.70012102089822292327880859375</LatitudeDegrees>
              <LongitudeDegrees>1.23622099868953227996826171875</LongitudeDegrees>
            </Position>
            <AltitudeMeters>1805</AltitudeMeters>
            <DistanceMeters>292.34120980407</DistanceMeters>
          </Trackpoint>
          <Trackpoint>
            <Time>2018-04-30T07:44:03.000Z</Time>
            <Position>
              <LatitudeDegrees>42.700130827724933624267578125</LatitudeDegrees>
              <LongitudeDegrees>1.23621747829020023345947265625</LongitudeDegrees>
            </Position>
            <AltitudeMeters>1805</AltitudeMeters>
            <DistanceMeters>293.4695895179</DistanceMeters>
          </Trackpoint>
          <Trackpoint>
            <Time>2018-04-30T07:44:06.000Z</Time>
            <Position>
              <LatitudeDegrees>42.70015220157802104949951171875</LatitudeDegrees>
              <LongitudeDegrees>1.23619887046515941619873046875</LongitudeDegrees>
            </Position>
            <AltitudeMeters>1805.4000244140625</AltitudeMeters>
            <DistanceMeters>296.29493685522</DistanceMeters>
          </Trackpoint>
          <Trackpoint>
            <Time>2018-04-30T07:44:07.000Z</Time>
            <Position>
              <LatitudeDegrees>42.70016066730022430419921875</LatitudeDegrees>
              <LongitudeDegrees>1.23619535006582736968994140625</LongitudeDegrees>
            </Position>
            <AltitudeMeters>1805.4000244140625</AltitudeMeters>
            <DistanceMeters>297.28248343941</DistanceMeters>
          </Trackpoint>
          <Trackpoint>
            <Time>2018-04-30T07:44:08.000Z</Time>
            <Position>
              <LatitudeDegrees>42.7001702226698398590087890625</LatitudeDegrees>
              <LongitudeDegrees>1.236184872686862945556640625</LongitudeDegrees>
            </Position>
            <AltitudeMeters>1805.5999755859375</AltitudeMeters>
            <DistanceMeters>298.6496797764</DistanceMeters>
          </Trackpoint>
          <Trackpoint>
            <Time>2018-04-30T07:44:09.000Z</Time>
            <Position>
              <LatitudeDegrees>42.70018137060105800628662109375</LatitudeDegrees>
              <LongitudeDegrees>1.23617640696465969085693359375</LongitudeDegrees>
            </Position>
            <AltitudeMeters>1805.5999755859375</AltitudeMeters>
            <DistanceMeters>300.07190940746</DistanceMeters>
          </Trackpoint>
          <Trackpoint>
            <Time>2018-04-30T07:44:10.000Z</Time>
            <Position>
              <LatitudeDegrees>42.70018975250422954559326171875</LatitudeDegrees>
              <LongitudeDegrees>1.23616785742342472076416015625</LongitudeDegrees>
            </Position>
            <AltitudeMeters>1805.800048828125</AltitudeMeters>
            <DistanceMeters>301.23574421816</DistanceMeters>
          </Trackpoint>
          <Trackpoint>
            <Time>2018-04-30T07:44:11.000Z</Time>
            <Position>
              <LatitudeDegrees>42.700200565159320831298828125</LatitudeDegrees>
              <LongitudeDegrees>1.2361639179289340972900390625</LongitudeDegrees>
            </Position>
            <AltitudeMeters>1806</AltitudeMeters>
            <DistanceMeters>302.48200789345</DistanceMeters>
          </Trackpoint>
          <Trackpoint>
            <Time>2018-04-30T07:44:12.000Z</Time>
            <Position>
              <LatitudeDegrees>42.70020903088152408599853515625</LatitudeDegrees>
              <LongitudeDegrees>1.23615528456866741180419921875</LongitudeDegrees>
            </Position>
            <AltitudeMeters>1806</AltitudeMeters>
            <DistanceMeters>303.66125840643</DistanceMeters>
          </Trackpoint>
          <Trackpoint>
            <Time>2018-04-30T07:44:13.000Z</Time>
            <Position>
              <LatitudeDegrees>42.7002168260514736175537109375</LatitudeDegrees>
              <LongitudeDegrees>1.236143298447132110595703125</LongitudeDegrees>
            </Position>
            <AltitudeMeters>1806.199951171875</AltitudeMeters>
            <DistanceMeters>304.97111127006</DistanceMeters>
          </Trackpoint>
          <Trackpoint>
            <Time>2018-04-30T07:44:14.000Z</Time>
            <Position>
              <LatitudeDegrees>42.70022596232593059539794921875</LatitudeDegrees>
              <LongitudeDegrees>1.2361364252865314483642578125</LongitudeDegrees>
            </Position>
            <AltitudeMeters>1806.199951171875</AltitudeMeters>
            <DistanceMeters>306.13494608076</DistanceMeters>
          </Trackpoint>
          <Trackpoint>
            <Time>2018-04-30T07:44:15.000Z</Time>
            <Position>
              <LatitudeDegrees>42.70023576915264129638671875</LatitudeDegrees>
              <LongitudeDegrees>1.23612863011658191680908203125</LongitudeDegrees>
            </Position>
            <AltitudeMeters>1806.199951171875</AltitudeMeters>
            <DistanceMeters>307.402760581</DistanceMeters>
          </Trackpoint>
          <Trackpoint>
            <Time>2018-04-30T07:44:27.000Z</Time>
            <Position>
              <LatitudeDegrees>42.70037566311657428741455078125</LatitudeDegrees>
              <LongitudeDegrees>1.23610675334930419921875</LongitudeDegrees>
            </Position>
            <AltitudeMeters>1807.4000244140625</AltitudeMeters>
            <DistanceMeters>323.07612013093</DistanceMeters>
          </Trackpoint>
          <Trackpoint>
            <Time>2018-04-30T07:44:28.000Z</Time>
            <Position>
              <LatitudeDegrees>42.700388990342617034912109375</LatitudeDegrees>
              <LongitudeDegrees>1.2361173145473003387451171875</LongitudeDegrees>
            </Position>
            <AltitudeMeters>1807.4000244140625</AltitudeMeters>
            <DistanceMeters>324.79450163606</DistanceMeters>
          </Trackpoint>
          <Trackpoint>
            <Time>2018-04-30T07:44:29.000Z</Time>
            <Position>
              <LatitudeDegrees>42.7003998868167400360107421875</LatitudeDegrees>
              <LongitudeDegrees>1.23612175695598125457763671875</LongitudeDegrees>
            </Position>
            <AltitudeMeters>1807.5999755859375</AltitudeMeters>
            <DistanceMeters>326.0623161363</DistanceMeters>
          </Trackpoint>
          <Trackpoint>
            <Time>2018-04-30T07:44:30.000Z</Time>
            <Position>
              <LatitudeDegrees>42.70041103474795818328857421875</LatitudeDegrees>
              <LongitudeDegrees>1.236130557954311370849609375</LongitudeDegrees>
            </Position>
            <AltitudeMeters>1807.4000244140625</AltitudeMeters>
            <DistanceMeters>327.49403795034</DistanceMeters>
          </Trackpoint>
          <Trackpoint>
            <Time>2018-04-30T07:44:31.000Z</Time>
            <Position>
              <LatitudeDegrees>42.7004223503172397613525390625</LatitudeDegrees>
              <LongitudeDegrees>1.23613483272492885589599609375</LongitudeDegrees>
            </Position>
            <AltitudeMeters>1807.5999755859375</AltitudeMeters>
            <DistanceMeters>328.80389081396</DistanceMeters>
          </Trackpoint>
          <Trackpoint>
            <Time>2018-04-30T07:44:32.000Z</Time>
            <Position>
              <LatitudeDegrees>42.700433246791362762451171875</LatitudeDegrees>
              <LongitudeDegrees>1.2361411191523075103759765625</LongitudeDegrees>
            </Position>
            <AltitudeMeters>1807.800048828125</AltitudeMeters>
            <DistanceMeters>330.12061959289</DistanceMeters>
          </Trackpoint>
          <Trackpoint>
            <Time>2018-04-30T07:44:33.000Z</Time>
            <Position>
              <LatitudeDegrees>42.70044053904712200164794921875</LatitudeDegrees>
              <LongitudeDegrees>1.23614824377000331878662109375</LongitudeDegrees>
            </Position>
            <AltitudeMeters>1808</AltitudeMeters>
            <DistanceMeters>331.12178815276</DistanceMeters>
          </Trackpoint>
          <Trackpoint>
            <Time>2018-04-30T07:44:34.000Z</Time>
            <Position>
              <LatitudeDegrees>42.700453698635101318359375</LatitudeDegrees>
              <LongitudeDegrees>1.23615075834095478057861328125</LongitudeDegrees>
            </Position>
            <AltitudeMeters>1808.199951171875</AltitudeMeters>
            <DistanceMeters>332.60005690351</DistanceMeters>
          </Trackpoint>
          <Trackpoint>
            <Time>2018-04-30T07:44:42.000Z</Time>
            <Position>
              <LatitudeDegrees>42.70054380409419536590576171875</LatitudeDegrees>
              <LongitudeDegrees>1.23618914745748043060302734375</LongitudeDegrees>
            </Position>
            <AltitudeMeters>1809.800048828125</AltitudeMeters>
            <DistanceMeters>343.10899761652</DistanceMeters>
          </Trackpoint>
          <Trackpoint>
            <Time>2018-04-30T07:44:43.000Z</Time>
            <Position>
              <LatitudeDegrees>42.700557969510555267333984375</LatitudeDegrees>
              <LongitudeDegrees>1.23619283549487590789794921875</LongitudeDegrees>
            </Position>
            <AltitudeMeters>1809.800048828125</AltitudeMeters>
            <DistanceMeters>344.71323319352</DistanceMeters>
          </Trackpoint>
          <Trackpoint>
            <Time>2018-04-30T07:44:58.000Z</Time>
            <Position>
              <LatitudeDegrees>42.70074002444744110107421875</LatitudeDegrees>
              <LongitudeDegrees>1.23620976693928241729736328125</LongitudeDegrees>
            </Position>
            <AltitudeMeters>1811.4000244140625</AltitudeMeters>
            <DistanceMeters>365.02362344366</DistanceMeters>
          </Trackpoint>
          <Trackpoint>
            <Time>2018-04-30T07:45:10.000Z</Time>
            <Position>
              <LatitudeDegrees>42.70085594616830348968505859375</LatitudeDegrees>
              <LongitudeDegrees>1.23629509471356868743896484375</LongitudeDegrees>
            </Position>
            <AltitudeMeters>1812.199951171875</AltitudeMeters>
            <DistanceMeters>379.69255972354</DistanceMeters>
          </Trackpoint>
          <Trackpoint>
            <Time>2018-04-30T07:45:11.000Z</Time>
            <Position>
              <LatitudeDegrees>42.70086566917598247528076171875</LatitudeDegrees>
              <LongitudeDegrees>1.2363000400364398956298828125</LongitudeDegrees>
            </Position>
            <AltitudeMeters>1812.199951171875</AltitudeMeters>
            <DistanceMeters>380.84860959864</DistanceMeters>
          </Trackpoint>
          <Trackpoint>
            <Time>2018-04-30T07:45:12.000Z</Time>
            <Position>
              <LatitudeDegrees>42.70087321288883686065673828125</LatitudeDegrees>
              <LongitudeDegrees>1.236306913197040557861328125</LongitudeDegrees>
            </Position>
            <AltitudeMeters>1812.4000244140625</AltitudeMeters>
            <DistanceMeters>381.85875742849</DistanceMeters>
          </Trackpoint>
          <Trackpoint>
            <Time>2018-04-30T07:45:13.000Z</Time>
            <Position>
              <LatitudeDegrees>42.70088293589651584625244140625</LatitudeDegrees>
              <LongitudeDegrees>1.2363159656524658203125</LongitudeDegrees>
            </Position>
            <AltitudeMeters>1812.4000244140625</AltitudeMeters>
            <DistanceMeters>383.16861029212</DistanceMeters>
          </Trackpoint>
          <Trackpoint>
            <Time>2018-04-30T07:45:14.000Z</Time>
            <Position>
              <LatitudeDegrees>42.70089400000870227813720703125</LatitudeDegrees>
              <LongitudeDegrees>1.2363258562982082366943359375</LongitudeDegrees>
            </Position>
            <AltitudeMeters>1812.5999755859375</AltitudeMeters>
            <DistanceMeters>384.64075782092</DistanceMeters>
          </Trackpoint>
          <Trackpoint>
            <Time>2018-04-30T07:45:15.000Z</Time>
            <Position>
              <LatitudeDegrees>42.70090623758733272552490234375</LatitudeDegrees>
              <LongitudeDegrees>1.23633113689720630645751953125</LongitudeDegrees>
            </Position>
            <AltitudeMeters>1812.5999755859375</AltitudeMeters>
            <DistanceMeters>386.07247963495</DistanceMeters>
          </Trackpoint>
          <Trackpoint>
            <Time>2018-04-30T07:45:16.000Z</Time>
            <Position>
              <LatitudeDegrees>42.70091663114726543426513671875</LatitudeDegrees>
              <LongitudeDegrees>1.236334405839443206787109375</LongitudeDegrees>
            </Position>
            <AltitudeMeters>1812.5999755859375</AltitudeMeters>
            <DistanceMeters>387.25936291702</DistanceMeters>
          </Trackpoint>
          <Trackpoint>
            <Time>2018-04-30T07:45:17.000Z</Time>
            <Position>
              <LatitudeDegrees>42.70092719234526157379150390625</LatitudeDegrees>
              <LongitudeDegrees>1.23633834533393383026123046875</LongitudeDegrees>
            </Position>
            <AltitudeMeters>1812.800048828125</AltitudeMeters>
            <DistanceMeters>388.47629863299</DistanceMeters>
          </Trackpoint>
          <Trackpoint>
            <Time>2018-04-30T07:45:18.000Z</Time>
            <Position>
              <LatitudeDegrees>42.70093875937163829803466796875</LatitudeDegrees>
              <LongitudeDegrees>1.23633884824812412261962890625</LongitudeDegrees>
            </Position>
            <AltitudeMeters>1813</AltitudeMeters>
            <DistanceMeters>389.76530370113</DistanceMeters>
          </Trackpoint>
          <Trackpoint>
            <Time>2018-04-30T07:45:19.000Z</Time>
            <Position>
              <LatitudeDegrees>42.7009530924260616302490234375</LatitudeDegrees>
              <LongitudeDegrees>1.23634345829486846923828125</LongitudeDegrees>
            </Position>
            <AltitudeMeters>1813</AltitudeMeters>
            <DistanceMeters>391.40571913032</DistanceMeters>
          </Trackpoint>
          <Trackpoint>
            <Time>2018-04-30T07:45:32.000Z</Time>
            <Position>
              <LatitudeDegrees>42.70109700970351696014404296875</LatitudeDegrees>
              <LongitudeDegrees>1.2363567017018795013427734375</LongitudeDegrees>
            </Position>
            <AltitudeMeters>1814.4000244140625</AltitudeMeters>
            <DistanceMeters>407.4604536973</DistanceMeters>
          </Trackpoint>
          <Trackpoint>
            <Time>2018-04-30T07:45:46.000Z</Time>
            <Position>
              <LatitudeDegrees>42.7012588642537593841552734375</LatitudeDegrees>
              <LongitudeDegrees>1.23642736114561557769775390625</LongitudeDegrees>
            </Position>
            <AltitudeMeters>1816</AltitudeMeters>
            <DistanceMeters>426.37936328557</DistanceMeters>
          </Trackpoint>
          <Trackpoint>
            <Time>2018-04-30T07:45:49.000Z</Time>
            <Position>
              <LatitudeDegrees>42.70128258503973484039306640625</LatitudeDegrees>
              <LongitudeDegrees>1.23644270002841949462890625</LongitudeDegrees>
            </Position>
            <AltitudeMeters>1816.4000244140625</AltitudeMeters>
            <DistanceMeters>429.30211067732</DistanceMeters>
          </Trackpoint>
          <Trackpoint>
            <Time>2018-04-30T07:45:50.000Z</Time>
            <Position>
              <LatitudeDegrees>42.701292894780635833740234375</LatitudeDegrees>
              <LongitudeDegrees>1.23644093982875347137451171875</LongitudeDegrees>
            </Position>
            <AltitudeMeters>1816.5999755859375</AltitudeMeters>
            <DistanceMeters>430.45816055242</DistanceMeters>
          </Trackpoint>
          <Trackpoint>
            <Time>2018-04-30T07:46:07.000Z</Time>
            <Position>
              <LatitudeDegrees>42.70148877985775470733642578125</LatitudeDegrees>
              <LongitudeDegrees>1.236479915678501129150390625</LongitudeDegrees>
            </Position>
            <AltitudeMeters>1818.4000244140625</AltitudeMeters>
            <DistanceMeters>452.49247674526</DistanceMeters>
          </Trackpoint>
          <Trackpoint>
            <Time>2018-04-30T07:46:20.000Z</Time>
            <Position>
              <LatitudeDegrees>42.70162515342235565185546875</LatitudeDegrees>
              <LongitudeDegrees>1.23651646077632904052734375</LongitudeDegrees>
            </Position>
            <AltitudeMeters>1820.199951171875</AltitudeMeters>
            <DistanceMeters>467.96258068784</DistanceMeters>
          </Trackpoint>
          <Trackpoint>
            <Time>2018-04-30T07:46:34.000Z</Time>
            <Position>
              <LatitudeDegrees>42.70176353864371776580810546875</LatitudeDegrees>
              <LongitudeDegrees>1.23656968586146831512451171875</LongitudeDegrees>
            </Position>
            <AltitudeMeters>1822.5999755859375</AltitudeMeters>
            <DistanceMeters>483.968588897</DistanceMeters>
          </Trackpoint>
          <Trackpoint>
            <Time>2018-04-30T07:46:35.000Z</Time>
            <Position>
              <LatitudeDegrees>42.70177493803203105926513671875</LatitudeDegrees>
              <LongitudeDegrees>1.236577816307544708251953125</LongitudeDegrees>
            </Position>
            <AltitudeMeters>1822.800048828125</AltitudeMeters>
            <DistanceMeters>485.40346081784</DistanceMeters>
          </Trackpoint>
          <Trackpoint>
            <Time>2018-04-30T07:46:36.000Z</Time>
            <Position>
              <LatitudeDegrees>42.70178583450615406036376953125</LatitudeDegrees>
              <LongitudeDegrees>1.2365803308784961700439453125</LongitudeDegrees>
            </Position>
            <AltitudeMeters>1823</AltitudeMeters>
            <DistanceMeters>486.63514780835</DistanceMeters>
          </Trackpoint>
          <Trackpoint>
            <Time>2018-04-30T07:46:37.000Z</Time>
            <Position>
              <LatitudeDegrees>42.70179505459964275360107421875</LatitudeDegrees>
              <LongitudeDegrees>1.2365823425352573394775390625</LongitudeDegrees>
            </Position>
            <AltitudeMeters>1823</AltitudeMeters>
            <DistanceMeters>487.67611330887</DistanceMeters>
          </Trackpoint>
          <Trackpoint>
            <Time>2018-04-30T07:46:38.000Z</Time>
            <Position>
              <LatitudeDegrees>42.70180620253086090087890625</LatitudeDegrees>
              <LongitudeDegrees>1.2365877069532871246337890625</LongitudeDegrees>
            </Position>
            <AltitudeMeters>1823.199951171875</AltitudeMeters>
            <DistanceMeters>488.99284208779</DistanceMeters>
          </Trackpoint>
          <Trackpoint>
            <Time>2018-04-30T07:46:39.000Z</Time>
            <Position>
              <LatitudeDegrees>42.70181735046207904815673828125</LatitudeDegrees>
              <LongitudeDegrees>1.236590556800365447998046875</LongitudeDegrees>
            </Position>
            <AltitudeMeters>1823.5999755859375</AltitudeMeters>
            <DistanceMeters>490.25351391429</DistanceMeters>
          </Trackpoint>
          <Trackpoint>
            <Time>2018-04-30T07:46:41.000Z</Time>
            <Position>
              <LatitudeDegrees>42.7018395625054836273193359375</LatitudeDegrees>
              <LongitudeDegrees>1.23659717850387096405029296875</LongitudeDegrees>
            </Position>
            <AltitudeMeters>1823.800048828125</AltitudeMeters>
            <DistanceMeters>492.78379536084</DistanceMeters>
          </Trackpoint>
          <Trackpoint>
            <Time>2018-04-30T07:46:42.000Z</Time>
            <Position>
              <LatitudeDegrees>42.70184920169413089752197265625</LatitudeDegrees>
              <LongitudeDegrees>1.236605979502201080322265625</LongitudeDegrees>
            </Position>
            <AltitudeMeters>1824</AltitudeMeters>
            <DistanceMeters>494.07280042898</DistanceMeters>
          </Trackpoint>
          <Trackpoint>
            <Time>2018-04-30T07:46:43.000Z</Time>
            <Position>
              <LatitudeDegrees>42.7018580026924610137939453125</LatitudeDegrees>
              <LongitudeDegrees>1.2366151995956897735595703125</LongitudeDegrees>
            </Position>
            <AltitudeMeters>1824.199951171875</AltitudeMeters>
            <DistanceMeters>495.30448741949</DistanceMeters>
          </Trackpoint>
          <Trackpoint>
            <Time>2018-04-30T07:46:44.000Z</Time>
            <Position>
              <LatitudeDegrees>42.70187015645205974578857421875</LatitudeDegrees>
              <LongitudeDegrees>1.23662785626947879791259765625</LongitudeDegrees>
            </Position>
            <AltitudeMeters>1824.4000244140625</AltitudeMeters>
            <DistanceMeters>497.00968084399</DistanceMeters>
          </Trackpoint>
          <Trackpoint>
            <Time>2018-04-30T07:46:45.000Z</Time>
            <Position>
              <LatitudeDegrees>42.701880633831024169921875</LatitudeDegrees>
              <LongitudeDegrees>1.23663422651588916778564453125</LongitudeDegrees>
            </Position>
            <AltitudeMeters>1824.5999755859375</AltitudeMeters>
            <DistanceMeters>498.28459800204</DistanceMeters>
          </Trackpoint>
          <Trackpoint>
            <Time>2018-04-30T07:46:48.000Z</Time>
            <Position>
              <LatitudeDegrees>42.70190301351249217987060546875</LatitudeDegrees>
              <LongitudeDegrees>1.2366520799696445465087890625</LongitudeDegrees>
            </Position>
            <AltitudeMeters>1825.199951171875</AltitudeMeters>
            <DistanceMeters>501.1700321949</DistanceMeters>
          </Trackpoint>
          <Trackpoint>
            <Time>2018-04-30T07:46:49.000Z</Time>
            <Position>
              <LatitudeDegrees>42.70191106013953685760498046875</LatitudeDegrees>
              <LongitudeDegrees>1.23665920458734035491943359375</LongitudeDegrees>
            </Position>
            <AltitudeMeters>1825.4000244140625</AltitudeMeters>
            <DistanceMeters>502.23670441819</DistanceMeters>
          </Trackpoint>
          <Trackpoint>
            <Time>2018-04-30T07:46:50.000Z</Time>
            <Position>
              <LatitudeDegrees>42.7019195258617401123046875</LatitudeDegrees>
              <LongitudeDegrees>1.23666674830019474029541015625</LongitudeDegrees>
            </Position>
            <AltitudeMeters>1825.5999755859375</AltitudeMeters>
            <DistanceMeters>503.36107566567</DistanceMeters>
          </Trackpoint>
          <Trackpoint>
            <Time>2018-04-30T07:46:51.000Z</Time>
            <Position>
              <LatitudeDegrees>42.7019314281642436981201171875</LatitudeDegrees>
              <LongitudeDegrees>1.23667010106146335601806640625</LongitudeDegrees>
            </Position>
            <AltitudeMeters>1825.5999755859375</AltitudeMeters>
            <DistanceMeters>504.71832862462</DistanceMeters>
          </Trackpoint>
          <Trackpoint>
            <Time>2018-04-30T07:46:52.000Z</Time>
            <Position>
              <LatitudeDegrees>42.70194307900965213775634765625</LatitudeDegrees>
              <LongitudeDegrees>1.2366728670895099639892578125</LongitudeDegrees>
            </Position>
            <AltitudeMeters>1825.5999755859375</AltitudeMeters>
            <DistanceMeters>506.03505740354</DistanceMeters>
          </Trackpoint>
          <Trackpoint>
            <Time>2018-04-30T07:47:10.000Z</Time>
            <Position>
              <LatitudeDegrees>42.70212446339428424835205078125</LatitudeDegrees>
              <LongitudeDegrees>1.23676515184342861175537109375</LongitudeDegrees>
            </Position>
            <AltitudeMeters>1828</AltitudeMeters>
            <DistanceMeters>527.58853235909</DistanceMeters>
          </Trackpoint>
          <Trackpoint>
            <Time>2018-04-30T07:47:29.000Z</Time>
            <Position>
              <LatitudeDegrees>42.70229947753250598907470703125</LatitudeDegrees>
              <LongitudeDegrees>1.236797086894512176513671875</LongitudeDegrees>
            </Position>
            <AltitudeMeters>1830.4000244140625</AltitudeMeters>
            <DistanceMeters>547.24229917278</DistanceMeters>
          </Trackpoint>
          <Trackpoint>
            <Time>2018-04-30T07:47:49.000Z</Time>
            <Position>
              <LatitudeDegrees>42.702505588531494140625</LatitudeDegrees>
              <LongitudeDegrees>1.2367278523743152618408203125</LongitudeDegrees>
            </Position>
            <AltitudeMeters>1832.4000244140625</AltitudeMeters>
            <DistanceMeters>570.87168102427</DistanceMeters>
          </Trackpoint>
          <Trackpoint>
            <Time>2018-04-30T07:48:07.000Z</Time>
            <Position>
              <LatitudeDegrees>42.7027226798236370086669921875</LatitudeDegrees>
              <LongitudeDegrees>1.236754842102527618408203125</LongitudeDegrees>
            </Position>
            <AltitudeMeters>1834.4000244140625</AltitudeMeters>
            <DistanceMeters>595.1349619996</DistanceMeters>
          </Trackpoint>
          <Trackpoint>
            <Time>2018-04-30T07:48:29.000Z</Time>
            <Position>
              <LatitudeDegrees>42.70293080247938632965087890625</LatitudeDegrees>
              <LongitudeDegrees>1.23677797615528106689453125</LongitudeDegrees>
            </Position>
            <AltitudeMeters>1837</AltitudeMeters>
            <DistanceMeters>618.37671694362</DistanceMeters>
          </Trackpoint>
          <Trackpoint>
            <Time>2018-04-30T07:48:47.000Z</Time>
            <Position>
              <LatitudeDegrees>42.7031206525862216949462890625</LatitudeDegrees>
              <LongitudeDegrees>1.23683187179267406463623046875</LongitudeDegrees>
            </Position>
            <AltitudeMeters>1840</AltitudeMeters>
            <DistanceMeters>639.96263699602</DistanceMeters>
          </Trackpoint>
          <Trackpoint>
            <Time>2018-04-30T07:49:08.000Z</Time>
            <Position>
              <LatitudeDegrees>42.70327948965132236480712890625</LatitudeDegrees>
              <LongitudeDegrees>1.23701778240501880645751953125</LongitudeDegrees>
            </Position>
            <AltitudeMeters>1842.199951171875</AltitudeMeters>
            <DistanceMeters>663.28177448819</DistanceMeters>
          </Trackpoint>
          <Trackpoint>
            <Time>2018-04-30T07:50:11.000Z</Time>
            <Position>
              <LatitudeDegrees>42.70329608581960201263427734375</LatitudeDegrees>
              <LongitudeDegrees>1.23709841631352901458740234375</LongitudeDegrees>
            </Position>
            <AltitudeMeters>1842.199951171875</AltitudeMeters>
            <DistanceMeters>670.1316122383</DistanceMeters>
          </Trackpoint>
          <Trackpoint>
            <Time>2018-04-30T07:50:51.000Z</Time>
            <Position>
              <LatitudeDegrees>42.70332357846200466156005859375</LatitudeDegrees>
              <LongitudeDegrees>1.237105540931224822998046875</LongitudeDegrees>
            </Position>
            <AltitudeMeters>1842.199951171875</AltitudeMeters>
            <DistanceMeters>673.24727142654</DistanceMeters>
          </Trackpoint>
          <Trackpoint>
            <Time>2018-04-30T07:51:37.000Z</Time>
            <Position>
              <LatitudeDegrees>42.70331838168203830718994140625</LatitudeDegrees>
              <LongitudeDegrees>1.2371020205318927764892578125</LongitudeDegrees>
            </Position>
            <AltitudeMeters>1842.4000244140625</AltitudeMeters>
            <DistanceMeters>673.89177396061</DistanceMeters>
          </Trackpoint>
          <Trackpoint>
            <Time>2018-04-30T07:53:26.000Z</Time>
            <Position>
              <LatitudeDegrees>42.7033402584493160247802734375</LatitudeDegrees>
              <LongitudeDegrees>1.23715482652187347412109375</LongitudeDegrees>
            </Position>
            <AltitudeMeters>1842.4000244140625</AltitudeMeters>
            <DistanceMeters>678.8495827589</DistanceMeters>
          </Trackpoint>
          <Trackpoint>
            <Time>2018-04-30T07:55:05.000Z</Time>
            <Position>
              <LatitudeDegrees>42.70339951850473880767822265625</LatitudeDegrees>
              <LongitudeDegrees>1.23722414486110210418701171875</LongitudeDegrees>
            </Position>
            <AltitudeMeters>1845</AltitudeMeters>
            <DistanceMeters>687.54699331441</DistanceMeters>
          </Trackpoint>
          <Trackpoint>
            <Time>2018-04-30T07:55:18.000Z</Time>
            <Position>
              <LatitudeDegrees>42.70339465700089931488037109375</LatitudeDegrees>
              <LongitudeDegrees>1.2373370490968227386474609375</LongitudeDegrees>
            </Position>
            <AltitudeMeters>1848</AltitudeMeters>
            <DistanceMeters>696.79734489599</DistanceMeters>
          </Trackpoint>
          <Trackpoint>
            <Time>2018-04-30T07:55:32.000Z</Time>
            <Position>
              <LatitudeDegrees>42.70335073582828044891357421875</LatitudeDegrees>
              <LongitudeDegrees>1.23741894029080867767333984375</LongitudeDegrees>
            </Position>
            <AltitudeMeters>1851</AltitudeMeters>
            <DistanceMeters>705.08920850101</DistanceMeters>
          </Trackpoint>
          <Trackpoint>
            <Time>2018-04-30T07:55:47.000Z</Time>
            <Position>
              <LatitudeDegrees>42.7032993547618389129638671875</LatitudeDegrees>
              <LongitudeDegrees>1.2375036813318729400634765625</LongitudeDegrees>
            </Position>
            <AltitudeMeters>1854.199951171875</AltitudeMeters>
            <DistanceMeters>714.07513881244</DistanceMeters>
          </Trackpoint>
          <Trackpoint>
            <Time>2018-04-30T07:56:01.000Z</Time>
            <Position>
              <LatitudeDegrees>42.70323975943028926849365234375</LatitudeDegrees>
              <LongitudeDegrees>1.23757861554622650146484375</LongitudeDegrees>
            </Position>
            <AltitudeMeters>1857.4000244140625</AltitudeMeters>
            <DistanceMeters>723.10667691612</DistanceMeters>
          </Trackpoint>
          <Trackpoint>
            <Time>2018-04-30T07:56:14.000Z</Time>
            <Position>
              <LatitudeDegrees>42.703242860734462738037109375</LatitudeDegrees>
              <LongitudeDegrees>1.23765246011316776275634765625</LongitudeDegrees>
            </Position>
            <AltitudeMeters>1860.5999755859375</AltitudeMeters>
            <DistanceMeters>729.15637937388</DistanceMeters>
          </Trackpoint>
          <Trackpoint>
            <Time>2018-04-30T07:56:28.000Z</Time>
            <Position>
              <LatitudeDegrees>42.70333346910774707794189453125</LatitudeDegrees>
              <LongitudeDegrees>1.23771666549146175384521484375</LongitudeDegrees>
            </Position>
            <AltitudeMeters>1863.5999755859375</AltitudeMeters>
            <DistanceMeters>740.52707128442</DistanceMeters>
          </Trackpoint>
          <Trackpoint>
            <Time>2018-04-30T07:56:29.000Z</Time>
            <Position>
              <LatitudeDegrees>42.70334168337285518646240234375</LatitudeDegrees>
              <LongitudeDegrees>1.23772135935723781585693359375</LongitudeDegrees>
            </Position>
            <AltitudeMeters>1863.800048828125</AltitudeMeters>
            <DistanceMeters>741.51917930898</DistanceMeters>
          </Trackpoint>
          <Trackpoint>
            <Time>2018-04-30T07:56:43.000Z</Time>
            <Position>
              <LatitudeDegrees>42.7034167014062404632568359375</LatitudeDegrees>
              <LongitudeDegrees>1.23776477761566638946533203125</LongitudeDegrees>
            </Position>
            <AltitudeMeters>1867</AltitudeMeters>
            <DistanceMeters>750.59311103762</DistanceMeters>
          </Trackpoint>
          <Trackpoint>
            <Time>2018-04-30T07:57:00.000Z</Time>
            <Position>
              <LatitudeDegrees>42.7034586109220981597900390625</LatitudeDegrees>
              <LongitudeDegrees>1.23780484311282634735107421875</LongitudeDegrees>
            </Position>
            <AltitudeMeters>1870.199951171875</AltitudeMeters>
            <DistanceMeters>756.29392195553</DistanceMeters>
          </Trackpoint>
          <Trackpoint>
            <Time>2018-04-30T07:57:16.000Z</Time>
            <Position>
              <LatitudeDegrees>42.7034012787044048309326171875</LatitudeDegrees>
              <LongitudeDegrees>1.23790089972317218780517578125</LongitudeDegrees>
            </Position>
            <AltitudeMeters>1873.4000244140625</AltitudeMeters>
            <DistanceMeters>766.41593990321</DistanceMeters>
          </Trackpoint>
          <Trackpoint>
            <Time>2018-04-30T07:57:34.000Z</Time>
            <Position>
              <LatitudeDegrees>42.703353501856327056884765625</LatitudeDegrees>
              <LongitudeDegrees>1.23797315172851085662841796875</LongitudeDegrees>
            </Position>
            <AltitudeMeters>1876.4000244140625</AltitudeMeters>
            <DistanceMeters>774.36644523983</DistanceMeters>
          </Trackpoint>
          <Trackpoint>
            <Time>2018-04-30T07:57:50.000Z</Time>
            <Position>
              <LatitudeDegrees>42.7033358998596668243408203125</LatitudeDegrees>
              <LongitudeDegrees>1.23801556415855884552001953125</LongitudeDegrees>
            </Position>
            <AltitudeMeters>1879.4000244140625</AltitudeMeters>
            <DistanceMeters>778.35077383929</DistanceMeters>
          </Trackpoint>
          <Trackpoint>
            <Time>2018-04-30T07:58:08.000Z</Time>
            <Position>
              <LatitudeDegrees>42.7032923139631748199462890625</LatitudeDegrees>
              <LongitudeDegrees>1.23808823525905609130859375</LongitudeDegrees>
            </Position>
            <AltitudeMeters>1882.4000244140625</AltitudeMeters>
            <DistanceMeters>786.02267309969</DistanceMeters>
          </Trackpoint>
          <Trackpoint>
            <Time>2018-04-30T07:58:25.000Z</Time>
            <Position>
              <LatitudeDegrees>42.70323238335549831390380859375</LatitudeDegrees>
              <LongitudeDegrees>1.2381118722259998321533203125</LongitudeDegrees>
            </Position>
            <AltitudeMeters>1885.199951171875</AltitudeMeters>
            <DistanceMeters>792.96742927159</DistanceMeters>
          </Trackpoint>
          <Trackpoint>
            <Time>2018-04-30T07:58:45.000Z</Time>
            <Position>
              <LatitudeDegrees>42.703309915959835052490234375</LatitudeDegrees>
              <LongitudeDegrees>1.23816627077758312225341796875</LongitudeDegrees>
            </Position>
            <AltitudeMeters>1888.199951171875</AltitudeMeters>
            <DistanceMeters>802.67690907614</DistanceMeters>
          </Trackpoint>
          <Trackpoint>
            <Time>2018-04-30T07:58:50.000Z</Time>
            <Position>
              <LatitudeDegrees>42.7032601274549961090087890625</LatitudeDegrees>
              <LongitudeDegrees>1.23816358856856822967529296875</LongitudeDegrees>
            </Position>
            <AltitudeMeters>1889</AltitudeMeters>
            <DistanceMeters>808.22275800738</DistanceMeters>
          </Trackpoint>
          <Trackpoint>
            <Time>2018-04-30T07:59:04.000Z</Time>
            <Position>
              <LatitudeDegrees>42.7032011188566684722900390625</LatitudeDegrees>
              <LongitudeDegrees>1.238224692642688751220703125</LongitudeDegrees>
            </Position>
            <AltitudeMeters>1892.4000244140625</AltitudeMeters>
            <DistanceMeters>816.47532345943</DistanceMeters>
          </Trackpoint>
          <Trackpoint>
            <Time>2018-04-30T07:59:21.000Z</Time>
            <Position>
              <LatitudeDegrees>42.7032507397234439849853515625</LatitudeDegrees>
              <LongitudeDegrees>1.2382768280804157257080078125</LongitudeDegrees>
            </Position>
            <AltitudeMeters>1895.4000244140625</AltitudeMeters>
            <DistanceMeters>823.45315780726</DistanceMeters>
          </Trackpoint>
          <Trackpoint>
            <Time>2018-04-30T07:59:23.000Z</Time>
            <Position>
              <LatitudeDegrees>42.7032624743878841400146484375</LatitudeDegrees>
              <LongitudeDegrees>1.238289065659046173095703125</LongitudeDegrees>
            </Position>
            <AltitudeMeters>1895.5999755859375</AltitudeMeters>
            <DistanceMeters>825.09906878091</DistanceMeters>
          </Trackpoint>
          <Trackpoint>
            <Time>2018-04-30T07:59:41.000Z</Time>
            <Position>
              <LatitudeDegrees>42.703260965645313262939453125</LatitudeDegrees>
              <LongitudeDegrees>1.23837028630077838897705078125</LongitudeDegrees>
            </Position>
            <AltitudeMeters>1898.800048828125</AltitudeMeters>
            <DistanceMeters>831.74414769774</DistanceMeters>
          </Trackpoint>
          <Trackpoint>
            <Time>2018-04-30T07:59:54.000Z</Time>
            <Position>
              <LatitudeDegrees>42.70320891402661800384521484375</LatitudeDegrees>
              <LongitudeDegrees>1.23841940425336360931396484375</LongitudeDegrees>
            </Position>
            <AltitudeMeters>1901.800048828125</AltitudeMeters>
            <DistanceMeters>838.79407966533</DistanceMeters>
          </Trackpoint>
          <Trackpoint>
            <Time>2018-04-30T08:00:03.000Z</Time>
            <Position>
              <LatitudeDegrees>42.7032034657895565032958984375</LatitudeDegrees>
              <LongitudeDegrees>1.2384246848523616790771484375</LongitudeDegrees>
            </Position>
            <AltitudeMeters>1902.800048828125</AltitudeMeters>
            <DistanceMeters>839.54232076252</DistanceMeters>
          </Trackpoint>
          <Trackpoint>
            <Time>2018-04-30T08:00:18.000Z</Time>
            <Position>
              <LatitudeDegrees>42.70326641388237476348876953125</LatitudeDegrees>
              <LongitudeDegrees>1.23846106231212615966796875</LongitudeDegrees>
            </Position>
            <AltitudeMeters>1906</AltitudeMeters>
            <DistanceMeters>847.15395465179</DistanceMeters>
          </Trackpoint>
          <Trackpoint>
            <Time>2018-04-30T08:00:39.000Z</Time>
            <Position>
              <LatitudeDegrees>42.7033231593668460845947265625</LatitudeDegrees>
              <LongitudeDegrees>1.2385269440710544586181640625</LongitudeDegrees>
            </Position>
            <AltitudeMeters>1909</AltitudeMeters>
            <DistanceMeters>855.45561372816</DistanceMeters>
          </Trackpoint>
          <Trackpoint>
            <Time>2018-04-30T08:00:55.000Z</Time>
            <Position>
              <LatitudeDegrees>42.703250236809253692626953125</LatitudeDegrees>
              <LongitudeDegrees>1.238594837486743927001953125</LongitudeDegrees>
            </Position>
            <AltitudeMeters>1912</AltitudeMeters>
            <DistanceMeters>865.28984571215</DistanceMeters>
          </Trackpoint>
          <Trackpoint>
            <Time>2018-04-30T08:01:11.000Z</Time>
            <Position>
              <LatitudeDegrees>42.70326239056885242462158203125</LatitudeDegrees>
              <LongitudeDegrees>1.23863398097455501556396484375</LongitudeDegrees>
            </Position>
            <AltitudeMeters>1915</AltitudeMeters>
            <DistanceMeters>868.76579770865</DistanceMeters>
          </Trackpoint>
          <Trackpoint>
            <Time>2018-04-30T08:01:31.000Z</Time>
            <Position>
              <LatitudeDegrees>42.70321360789239406585693359375</LatitudeDegrees>
              <LongitudeDegrees>1.23867773450911045074462890625</LongitudeDegrees>
            </Position>
            <AltitudeMeters>1918.199951171875</AltitudeMeters>
            <DistanceMeters>875.26870844055</DistanceMeters>
          </Trackpoint>
          <Trackpoint>
            <Time>2018-04-30T08:01:33.000Z</Time>
            <Position>
              <LatitudeDegrees>42.70322232507169246673583984375</LatitudeDegrees>
              <LongitudeDegrees>1.238682009279727935791015625</LongitudeDegrees>
            </Position>
            <AltitudeMeters>1918.199951171875</AltitudeMeters>
            <DistanceMeters>876.30096277955</DistanceMeters>
          </Trackpoint>
          <Trackpoint>
            <Time>2018-04-30T08:02:41.000Z</Time>
            <Position>
              <LatitudeDegrees>42.7032644860446453094482421875</LatitudeDegrees>
              <LongitudeDegrees>1.23873758129775524139404296875</LongitudeDegrees>
            </Position>
            <AltitudeMeters>1921.199951171875</AltitudeMeters>
            <DistanceMeters>882.83366063527</DistanceMeters>
          </Trackpoint>
          <Trackpoint>
            <Time>2018-04-30T08:03:08.000Z</Time>
            <Position>
              <LatitudeDegrees>42.70325350575149059295654296875</LatitudeDegrees>
              <LongitudeDegrees>1.23875786550343036651611328125</LongitudeDegrees>
            </Position>
            <AltitudeMeters>1921.5999755859375</AltitudeMeters>
            <DistanceMeters>884.89379071094</DistanceMeters>
          </Trackpoint>
          <Trackpoint>
            <Time>2018-04-30T08:03:26.000Z</Time>
            <Position>
              <LatitudeDegrees>42.70326934754848480224609375</LatitudeDegrees>
              <LongitudeDegrees>1.23877085745334625244140625</LongitudeDegrees>
            </Position>
            <AltitudeMeters>1921.800048828125</AltitudeMeters>
            <DistanceMeters>886.9539207866</DistanceMeters>
          </Trackpoint>
          <Trackpoint>
            <Time>2018-04-30T08:03:32.000Z</Time>
            <Position>
              <LatitudeDegrees>42.7032571099698543548583984375</LatitudeDegrees>
              <LongitudeDegrees>1.2387723661959171295166015625</LongitudeDegrees>
            </Position>
            <AltitudeMeters>1922.4000244140625</AltitudeMeters>
            <DistanceMeters>888.3244155514</DistanceMeters>
          </Trackpoint>
          <Trackpoint>
            <Time>2018-04-30T08:03:47.000Z</Time>
            <Position>
              <LatitudeDegrees>42.70326758734881877899169921875</LatitudeDegrees>
              <LongitudeDegrees>1.2387849390506744384765625</LongitudeDegrees>
            </Position>
            <AltitudeMeters>1923</AltitudeMeters>
            <DistanceMeters>889.88006991114</DistanceMeters>
          </Trackpoint>
          <Trackpoint>
            <Time>2018-04-30T08:04:33.000Z</Time>
            <Position>
              <LatitudeDegrees>42.70331117324531078338623046875</LatitudeDegrees>
              <LongitudeDegrees>1.23878653161227703094482421875</LongitudeDegrees>
            </Position>
            <AltitudeMeters>1924</AltitudeMeters>
            <DistanceMeters>894.73294940334</DistanceMeters>
          </Trackpoint>
          <Trackpoint>
            <Time>2018-04-30T08:04:40.000Z</Time>
            <Position>
              <LatitudeDegrees>42.70334335975348949432373046875</LatitudeDegrees>
              <LongitudeDegrees>1.23883933760225772857666015625</LongitudeDegrees>
            </Position>
            <AltitudeMeters>1925.5999755859375</AltitudeMeters>
            <DistanceMeters>900.34515989802</DistanceMeters>
          </Trackpoint>
          <Trackpoint>
            <Time>2018-04-30T08:05:22.000Z</Time>
            <Position>
              <LatitudeDegrees>42.70332760177552700042724609375</LatitudeDegrees>
              <LongitudeDegrees>1.23881905339658260345458984375</LongitudeDegrees>
            </Position>
            <AltitudeMeters>1926.5999755859375</AltitudeMeters>
            <DistanceMeters>902.76040923976</DistanceMeters>
          </Trackpoint>
          <Trackpoint>
            <Time>2018-04-30T08:06:34.000Z</Time>
            <Position>
              <LatitudeDegrees>42.7033057250082492828369140625</LatitudeDegrees>
              <LongitudeDegrees>1.23881201259791851043701171875</LongitudeDegrees>
            </Position>
            <AltitudeMeters>1926</AltitudeMeters>
            <DistanceMeters>905.26378157565</DistanceMeters>
          </Trackpoint>
          <Trackpoint>
            <Time>2018-04-30T08:06:37.000Z</Time>
            <Position>
              <LatitudeDegrees>42.7032926492393016815185546875</LatitudeDegrees>
              <LongitudeDegrees>1.238819472491741180419921875</LongitudeDegrees>
            </Position>
            <AltitudeMeters>1925.800048828125</AltitudeMeters>
            <DistanceMeters>906.84248392205</DistanceMeters>
          </Trackpoint>
          <Trackpoint>
            <Time>2018-04-30T08:07:08.000Z</Time>
            <Position>
              <LatitudeDegrees>42.70334604196250438690185546875</LatitudeDegrees>
              <LongitudeDegrees>1.23883388936519622802734375</LongitudeDegrees>
            </Position>
            <AltitudeMeters>1926.4000244140625</AltitudeMeters>
            <DistanceMeters>912.90039038124</DistanceMeters>
          </Trackpoint>
          <Trackpoint>
            <Time>2018-04-30T08:07:59.000Z</Time>
            <Position>
              <LatitudeDegrees>42.7033087424933910369873046875</LatitudeDegrees>
              <LongitudeDegrees>1.23889080248773097991943359375</LongitudeDegrees>
            </Position>
            <AltitudeMeters>1929.4000244140625</AltitudeMeters>
            <DistanceMeters>919.13750263937</DistanceMeters>
          </Trackpoint>
          <Trackpoint>
            <Time>2018-04-30T08:08:18.000Z</Time>
            <Position>
              <LatitudeDegrees>42.70328971557319164276123046875</LatitudeDegrees>
              <LongitudeDegrees>1.238928101956844329833984375</LongitudeDegrees>
            </Position>
            <AltitudeMeters>1932.5999755859375</AltitudeMeters>
            <DistanceMeters>922.85206274877</DistanceMeters>
          </Trackpoint>
          <Trackpoint>
            <Time>2018-04-30T08:08:47.000Z</Time>
            <Position>
              <LatitudeDegrees>42.7032946608960628509521484375</LatitudeDegrees>
              <LongitudeDegrees>1.23896623961627483367919921875</LongitudeDegrees>
            </Position>
            <AltitudeMeters>1935.5999755859375</AltitudeMeters>
            <DistanceMeters>926.01946151262</DistanceMeters>
          </Trackpoint>
          <Trackpoint>
            <Time>2018-04-30T08:09:06.000Z</Time>
            <Position>
              <LatitudeDegrees>42.70328384824097156524658203125</LatitudeDegrees>
              <LongitudeDegrees>1.23903413303196430206298828125</LongitudeDegrees>
            </Position>
            <AltitudeMeters>1938.800048828125</AltitudeMeters>
            <DistanceMeters>931.70202725035</DistanceMeters>
          </Trackpoint>
          <Trackpoint>
            <Time>2018-04-30T08:09:50.000Z</Time>
            <Position>
              <LatitudeDegrees>42.70327161066234111785888671875</LatitudeDegrees>
              <LongitudeDegrees>1.23908241279423236846923828125</LongitudeDegrees>
            </Position>
            <AltitudeMeters>1942</AltitudeMeters>
            <DistanceMeters>935.88104242651</DistanceMeters>
          </Trackpoint>
          <Trackpoint>
            <Time>2018-04-30T08:10:15.000Z</Time>
            <Position>
              <LatitudeDegrees>42.703344784677028656005859375</LatitudeDegrees>
              <LongitudeDegrees>1.23913706280291080474853515625</LongitudeDegrees>
            </Position>
            <AltitudeMeters>1945.199951171875</AltitudeMeters>
            <DistanceMeters>945.17230341758</DistanceMeters>
          </Trackpoint>
          <Trackpoint>
            <Time>2018-04-30T08:10:28.000Z</Time>
            <Position>
              <LatitudeDegrees>42.70335517823696136474609375</LatitudeDegrees>
              <LongitudeDegrees>1.239215433597564697265625</LongitudeDegrees>
            </Position>
            <AltitudeMeters>1948.5999755859375</AltitudeMeters>
            <DistanceMeters>951.6870067329</DistanceMeters>
          </Trackpoint>
          <Trackpoint>
            <Time>2018-04-30T08:11:17.000Z</Time>
            <Position>
              <LatitudeDegrees>42.70339968614280223846435546875</LatitudeDegrees>
              <LongitudeDegrees>1.2392578460276126861572265625</LongitudeDegrees>
            </Position>
            <AltitudeMeters>1951.5999755859375</AltitudeMeters>
            <DistanceMeters>957.73521635844</DistanceMeters>
          </Trackpoint>
          <Trackpoint>
            <Time>2018-04-30T08:11:40.000Z</Time>
            <Position>
              <LatitudeDegrees>42.7034264244139194488525390625</LatitudeDegrees>
              <LongitudeDegrees>1.23934208415448665618896484375</LongitudeDegrees>
            </Position>
            <AltitudeMeters>1954.800048828125</AltitudeMeters>
            <DistanceMeters>965.24052227208</DistanceMeters>
          </Trackpoint>
          <Trackpoint>
            <Time>2018-04-30T08:11:55.000Z</Time>
            <Position>
              <LatitudeDegrees>42.70339868031442165374755859375</LatitudeDegrees>
              <LongitudeDegrees>1.23937158845365047454833984375</LongitudeDegrees>
            </Position>
            <AltitudeMeters>1957.800048828125</AltitudeMeters>
            <DistanceMeters>969.160878137</DistanceMeters>
          </Trackpoint>
          <Trackpoint>
            <Time>2018-04-30T08:12:10.000Z</Time>
            <Position>
              <LatitudeDegrees>42.7034106664359569549560546875</LatitudeDegrees>
              <LongitudeDegrees>1.23937661759555339813232421875</LongitudeDegrees>
            </Position>
            <AltitudeMeters>1958.800048828125</AltitudeMeters>
            <DistanceMeters>970.55747990984</DistanceMeters>
          </Trackpoint>
          <Trackpoint>
            <Time>2018-04-30T08:12:11.000Z</Time>
            <Position>
              <LatitudeDegrees>42.703397758305072784423828125</LatitudeDegrees>
              <LongitudeDegrees>1.2393723428249359130859375</LongitudeDegrees>
            </Position>
            <AltitudeMeters>1958.800048828125</AltitudeMeters>
            <DistanceMeters>972.03574866059</DistanceMeters>
          </Trackpoint>
          <Trackpoint>
            <Time>2018-04-30T08:12:51.000Z</Time>
            <Position>
              <LatitudeDegrees>42.70340153016149997711181640625</LatitudeDegrees>
              <LongitudeDegrees>1.2394472770392894744873046875</LongitudeDegrees>
            </Position>
            <AltitudeMeters>1962</AltitudeMeters>
            <DistanceMeters>978.17876823237</DistanceMeters>
          </Trackpoint>
          <Trackpoint>
            <Time>2018-04-30T08:13:04.000Z</Time>
            <Position>
              <LatitudeDegrees>42.7033985964953899383544921875</LatitudeDegrees>
              <LongitudeDegrees>1.2394821457564830780029296875</LongitudeDegrees>
            </Position>
            <AltitudeMeters>1964.5999755859375</AltitudeMeters>
            <DistanceMeters>981.04851207405</DistanceMeters>
          </Trackpoint>
          <Trackpoint>
            <Time>2018-04-30T08:13:24.000Z</Time>
            <Position>
              <LatitudeDegrees>42.7033697627484798431396484375</LatitudeDegrees>
              <LongitudeDegrees>1.2394911982119083404541015625</LongitudeDegrees>
            </Position>
            <AltitudeMeters>1966.800048828125</AltitudeMeters>
            <DistanceMeters>984.34170532821</DistanceMeters>
          </Trackpoint>
          <Trackpoint>
            <Time>2018-04-30T08:13:33.000Z</Time>
            <Position>
              <LatitudeDegrees>42.70337588153779506683349609375</LatitudeDegrees>
              <LongitudeDegrees>1.2395039387047290802001953125</LongitudeDegrees>
            </Position>
            <AltitudeMeters>1967.5999755859375</AltitudeMeters>
            <DistanceMeters>985.58434086283</DistanceMeters>
          </Trackpoint>
          <Trackpoint>
            <Time>2018-04-30T08:13:42.000Z</Time>
            <Position>
              <LatitudeDegrees>42.70336724817752838134765625</LatitudeDegrees>
              <LongitudeDegrees>1.2395039387047290802001953125</LongitudeDegrees>
            </Position>
            <AltitudeMeters>1970.800048828125</AltitudeMeters>
            <DistanceMeters>986.54406363389</DistanceMeters>
          </Trackpoint>
          <Trackpoint>
            <Time>2018-04-30T08:13:55.000Z</Time>
            <Position>
              <LatitudeDegrees>42.70338334143161773681640625</LatitudeDegrees>
              <LongitudeDegrees>1.23956403695046901702880859375</LongitudeDegrees>
            </Position>
            <AltitudeMeters>1974</AltitudeMeters>
            <DistanceMeters>991.77657658448</DistanceMeters>
          </Trackpoint>
          <Trackpoint>
            <Time>2018-04-30T08:14:35.000Z</Time>
            <Position>
              <LatitudeDegrees>42.7033352293074131011962890625</LatitudeDegrees>
              <LongitudeDegrees>1.2395310960710048675537109375</LongitudeDegrees>
            </Position>
            <AltitudeMeters>1974.5999755859375</AltitudeMeters>
            <DistanceMeters>997.7715498327</DistanceMeters>
          </Trackpoint>
          <Trackpoint>
            <Time>2018-04-30T08:15:09.000Z</Time>
            <Position>
              <LatitudeDegrees>42.7033395878970623016357421875</LatitudeDegrees>
              <LongitudeDegrees>1.239598654210567474365234375</LongitudeDegrees>
            </Position>
            <AltitudeMeters>1974.4000244140625</AltitudeMeters>
            <DistanceMeters>1003.3190267836</DistanceMeters>
          </Trackpoint>
          <Trackpoint>
            <Time>2018-04-30T08:15:28.000Z</Time>
            <Position>
              <LatitudeDegrees>42.7033355645835399627685546875</LatitudeDegrees>
              <LongitudeDegrees>1.23953335918486118316650390625</LongitudeDegrees>
            </Position>
            <AltitudeMeters>1974.5999755859375</AltitudeMeters>
            <DistanceMeters>1008.6794095353</DistanceMeters>
          </Trackpoint>
          <Trackpoint>
            <Time>2018-04-30T08:16:12.000Z</Time>
            <Position>
              <LatitudeDegrees>42.70326892845332622528076171875</LatitudeDegrees>
              <LongitudeDegrees>1.23958750627934932708740234375</LongitudeDegrees>
            </Position>
            <AltitudeMeters>1975.5999755859375</AltitudeMeters>
            <DistanceMeters>1017.3174371838</DistanceMeters>
          </Trackpoint>
          <Trackpoint>
            <Time>2018-04-30T08:16:27.000Z</Time>
            <Position>
              <LatitudeDegrees>42.70323925651609897613525390625</LatitudeDegrees>
              <LongitudeDegrees>1.23967249877750873565673828125</LongitudeDegrees>
            </Position>
            <AltitudeMeters>1978.800048828125</AltitudeMeters>
            <DistanceMeters>1025.0140144408</DistanceMeters>
          </Trackpoint>
          <Trackpoint>
            <Time>2018-04-30T08:16:40.000Z</Time>
            <Position>
              <LatitudeDegrees>42.703264653682708740234375</LatitudeDegrees>
              <LongitudeDegrees>1.23971541412174701690673828125</LongitudeDegrees>
            </Position>
            <AltitudeMeters>1982</AltitudeMeters>
            <DistanceMeters>1029.5215272804</DistanceMeters>
          </Trackpoint>
          <Trackpoint>
            <Time>2018-04-30T08:17:15.000Z</Time>
            <Position>
              <LatitudeDegrees>42.703275717794895172119140625</LatitudeDegrees>
              <LongitudeDegrees>1.23971943743526935577392578125</LongitudeDegrees>
            </Position>
            <AltitudeMeters>1982.4000244140625</AltitudeMeters>
            <DistanceMeters>1030.7964444384</DistanceMeters>
          </Trackpoint>
          <Trackpoint>
            <Time>2018-04-30T08:18:16.000Z</Time>
            <Position>
              <LatitudeDegrees>42.70322643220424652099609375</LatitudeDegrees>
              <LongitudeDegrees>1.239730417728424072265625</LongitudeDegrees>
            </Position>
            <AltitudeMeters>1983</AltitudeMeters>
            <DistanceMeters>1036.3553041768</DistanceMeters>
          </Trackpoint>
          <Trackpoint>
            <Time>2018-04-30T08:19:59.000Z</Time>
            <Position>
              <LatitudeDegrees>42.70319516770541667938232421875</LatitudeDegrees>
              <LongitudeDegrees>1.2397909350693225860595703125</LongitudeDegrees>
            </Position>
            <AltitudeMeters>1985</AltitudeMeters>
            <DistanceMeters>1042.4057529126</DistanceMeters>
          </Trackpoint>
          <Trackpoint>
            <Time>2018-04-30T08:20:18.000Z</Time>
            <Position>
              <LatitudeDegrees>42.70312786102294921875</LatitudeDegrees>
              <LongitudeDegrees>1.2399183399975299835205078125</LongitudeDegrees>
            </Position>
            <AltitudeMeters>1987</AltitudeMeters>
            <DistanceMeters>1055.2396375286</DistanceMeters>
          </Trackpoint>
          <Trackpoint>
            <Time>2018-04-30T08:20:19.000Z</Time>
            <Position>
              <LatitudeDegrees>42.703124172985553741455078125</LatitudeDegrees>
              <LongitudeDegrees>1.239928901195526123046875</LongitudeDegrees>
            </Position>
            <AltitudeMeters>1987</AltitudeMeters>
            <DistanceMeters>1056.1946441887</DistanceMeters>
          </Trackpoint>
          <Trackpoint>
            <Time>2018-04-30T08:20:34.000Z</Time>
            <Position>
              <LatitudeDegrees>42.7030861191451549530029296875</LatitudeDegrees>
              <LongitudeDegrees>1.2400568090379238128662109375</LongitudeDegrees>
            </Position>
            <AltitudeMeters>1990.199951171875</AltitudeMeters>
            <DistanceMeters>1067.4816419503</DistanceMeters>
          </Trackpoint>
          <Trackpoint>
            <Time>2018-04-30T08:20:50.000Z</Time>
            <Position>
              <LatitudeDegrees>42.7030408568680286407470703125</LatitudeDegrees>
              <LongitudeDegrees>1.24019871465861797332763671875</LongitudeDegrees>
            </Position>
            <AltitudeMeters>1993.199951171875</AltitudeMeters>
            <DistanceMeters>1080.1348334589</DistanceMeters>
          </Trackpoint>
          <Trackpoint>
            <Time>2018-04-30T08:21:09.000Z</Time>
            <Position>
              <LatitudeDegrees>42.7030616439878940582275390625</LatitudeDegrees>
              <LongitudeDegrees>1.240376494824886322021484375</LongitudeDegrees>
            </Position>
            <AltitudeMeters>1996.199951171875</AltitudeMeters>
            <DistanceMeters>1094.8590687647</DistanceMeters>
          </Trackpoint>
          <Trackpoint>
            <Time>2018-04-30T08:21:26.000Z</Time>
            <Position>
              <LatitudeDegrees>42.70307396538555622100830078125</LatitudeDegrees>
              <LongitudeDegrees>1.24051655642688274383544921875</LongitudeDegrees>
            </Position>
            <AltitudeMeters>1999.199951171875</AltitudeMeters>
            <DistanceMeters>1106.3968929503</DistanceMeters>
          </Trackpoint>
          <Trackpoint>
            <Time>2018-04-30T08:21:42.000Z</Time>
            <Position>
              <LatitudeDegrees>42.70306793041527271270751953125</LatitudeDegrees>
              <LongitudeDegrees>1.24064840376377105712890625</LongitudeDegrees>
            </Position>
            <AltitudeMeters>2002.4000244140625</AltitudeMeters>
            <DistanceMeters>1117.2019777877</DistanceMeters>
          </Trackpoint>
          <Trackpoint>
            <Time>2018-04-30T08:21:57.000Z</Time>
            <Position>
              <LatitudeDegrees>42.7030639909207820892333984375</LatitudeDegrees>
              <LongitudeDegrees>1.240777485072612762451171875</LongitudeDegrees>
            </Position>
            <AltitudeMeters>2005.5999755859375</AltitudeMeters>
            <DistanceMeters>1127.7691876989</DistanceMeters>
          </Trackpoint>
          <Trackpoint>
            <Time>2018-04-30T08:22:12.000Z</Time>
            <Position>
              <LatitudeDegrees>42.70304211415350437164306640625</LatitudeDegrees>
              <LongitudeDegrees>1.24090396799147129058837890625</LongitudeDegrees>
            </Position>
            <AltitudeMeters>2008.800048828125</AltitudeMeters>
            <DistanceMeters>1138.3973214126</DistanceMeters>
          </Trackpoint>
          <Trackpoint>
            <Time>2018-04-30T08:22:25.000Z</Time>
            <Position>
              <LatitudeDegrees>42.70297832787036895751953125</LatitudeDegrees>
              <LongitudeDegrees>1.24097906984388828277587890625</LongitudeDegrees>
            </Position>
            <AltitudeMeters>2012</AltitudeMeters>
            <DistanceMeters>1147.7852682645</DistanceMeters>
          </Trackpoint>
          <Trackpoint>
            <Time>2018-04-30T08:22:39.000Z</Time>
            <Position>
              <LatitudeDegrees>42.7029090933501720428466796875</LatitudeDegrees>
              <LongitudeDegrees>1.24105635099112987518310546875</LongitudeDegrees>
            </Position>
            <AltitudeMeters>2015.199951171875</AltitudeMeters>
            <DistanceMeters>1157.7522071606</DistanceMeters>
          </Trackpoint>
          <Trackpoint>
            <Time>2018-04-30T08:22:50.000Z</Time>
            <Position>
              <LatitudeDegrees>42.7028534375131130218505859375</LatitudeDegrees>
              <LongitudeDegrees>1.241117455065250396728515625</LongitudeDegrees>
            </Position>
            <AltitudeMeters>2017.4000244140625</AltitudeMeters>
            <DistanceMeters>1165.7112263373</DistanceMeters>
          </Trackpoint>
          <Trackpoint>
            <Time>2018-04-30T08:23:03.000Z</Time>
            <Position>
              <LatitudeDegrees>42.7028638310730457305908203125</LatitudeDegrees>
              <LongitudeDegrees>1.2411833368241786956787109375</LongitudeDegrees>
            </Position>
            <AltitudeMeters>2020.5999755859375</AltitudeMeters>
            <DistanceMeters>1171.2227757707</DistanceMeters>
          </Trackpoint>
          <Trackpoint>
            <Time>2018-04-30T08:23:18.000Z</Time>
            <Position>
              <LatitudeDegrees>42.7028896473348140716552734375</LatitudeDegrees>
              <LongitudeDegrees>1.24128970317542552947998046875</LongitudeDegrees>
            </Position>
            <AltitudeMeters>2023.5999755859375</AltitudeMeters>
            <DistanceMeters>1180.38484926</DistanceMeters>
          </Trackpoint>
          <Trackpoint>
            <Time>2018-04-30T08:23:37.000Z</Time>
            <Position>
              <LatitudeDegrees>42.70284882746636867523193359375</LatitudeDegrees>
              <LongitudeDegrees>1.24136388301849365234375</LongitudeDegrees>
            </Position>
            <AltitudeMeters>2026.800048828125</AltitudeMeters>
            <DistanceMeters>1187.9649796291</DistanceMeters>
          </Trackpoint>
          <Trackpoint>
            <Time>2018-04-30T08:23:54.000Z</Time>
            <Position>
              <LatitudeDegrees>42.70276986993849277496337890625</LatitudeDegrees>
              <LongitudeDegrees>1.24139011837542057037353515625</LongitudeDegrees>
            </Position>
            <AltitudeMeters>2029.800048828125</AltitudeMeters>
            <DistanceMeters>1197.0110037688</DistanceMeters>
          </Trackpoint>
          <Trackpoint>
            <Time>2018-04-30T08:24:12.000Z</Time>
            <Position>
              <LatitudeDegrees>42.7026539482176303863525390625</LatitudeDegrees>
              <LongitudeDegrees>1.24144158326089382171630859375</LongitudeDegrees>
            </Position>
            <AltitudeMeters>2032.800048828125</AltitudeMeters>
            <DistanceMeters>1210.5828680219</DistanceMeters>
          </Trackpoint>
          <Trackpoint>
            <Time>2018-04-30T08:24:28.000Z</Time>
            <Position>
              <LatitudeDegrees>42.7025699615478515625</LatitudeDegrees>
              <LongitudeDegrees>1.2414800561964511871337890625</LongitudeDegrees>
            </Position>
            <AltitudeMeters>2036</AltitudeMeters>
            <DistanceMeters>1220.446439566</DistanceMeters>
          </Trackpoint>
          <Trackpoint>
            <Time>2018-04-30T08:24:42.000Z</Time>
            <Position>
              <LatitudeDegrees>42.7024863101541996002197265625</LatitudeDegrees>
              <LongitudeDegrees>1.24152942560613155364990234375</LongitudeDegrees>
            </Position>
            <AltitudeMeters>2039</AltitudeMeters>
            <DistanceMeters>1230.5951858886</DistanceMeters>
          </Trackpoint>
          <Trackpoint>
            <Time>2018-04-30T08:24:59.000Z</Time>
            <Position>
              <LatitudeDegrees>42.70241238176822662353515625</LatitudeDegrees>
              <LongitudeDegrees>1.241607964038848876953125</LongitudeDegrees>
            </Position>
            <AltitudeMeters>2042.199951171875</AltitudeMeters>
            <DistanceMeters>1241.0342932511</DistanceMeters>
          </Trackpoint>
          <Trackpoint>
            <Time>2018-04-30T08:25:14.000Z</Time>
            <Position>
              <LatitudeDegrees>42.702436186373233795166015625</LatitudeDegrees>
              <LongitudeDegrees>1.24166068620979785919189453125</LongitudeDegrees>
            </Position>
            <AltitudeMeters>2045.4000244140625</AltitudeMeters>
            <DistanceMeters>1246.0948561442</DistanceMeters>
          </Trackpoint>
          <Trackpoint>
            <Time>2018-04-30T08:25:29.000Z</Time>
            <Position>
              <LatitudeDegrees>42.70249209366738796234130859375</LatitudeDegrees>
              <LongitudeDegrees>1.2417479418218135833740234375</LongitudeDegrees>
            </Position>
            <AltitudeMeters>2048.60009765625</AltitudeMeters>
            <DistanceMeters>1255.5637330054</DistanceMeters>
          </Trackpoint>
          <Trackpoint>
            <Time>2018-04-30T08:25:38.000Z</Time>
            <Position>
              <LatitudeDegrees>42.7024876512587070465087890625</LatitudeDegrees>
              <LongitudeDegrees>1.24177786521613597869873046875</LongitudeDegrees>
            </Position>
            <AltitudeMeters>2050</AltitudeMeters>
            <DistanceMeters>1258.0598805864</DistanceMeters>
          </Trackpoint>
          <Trackpoint>
            <Time>2018-04-30T08:25:57.000Z</Time>
            <Position>
              <LatitudeDegrees>42.70238555967807769775390625</LatitudeDegrees>
              <LongitudeDegrees>1.2418599240481853485107421875</LongitudeDegrees>
            </Position>
            <AltitudeMeters>2053</AltitudeMeters>
            <DistanceMeters>1271.2573089136</DistanceMeters>
          </Trackpoint>
          <Trackpoint>
            <Time>2018-04-30T08:26:12.000Z</Time>
            <Position>
              <LatitudeDegrees>42.7023257128894329071044921875</LatitudeDegrees>
              <LongitudeDegrees>1.24193091876804828643798828125</LongitudeDegrees>
            </Position>
            <AltitudeMeters>2056.199951171875</AltitudeMeters>
            <DistanceMeters>1280.0942824389</DistanceMeters>
          </Trackpoint>
          <Trackpoint>
            <Time>2018-04-30T08:26:29.000Z</Time>
            <Position>
              <LatitudeDegrees>42.70225790329277515411376953125</LatitudeDegrees>
              <LongitudeDegrees>1.24202596955001354217529296875</LongitudeDegrees>
            </Position>
            <AltitudeMeters>2059.39990234375</AltitudeMeters>
            <DistanceMeters>1290.9298282915</DistanceMeters>
          </Trackpoint>
          <Trackpoint>
            <Time>2018-04-30T08:26:42.000Z</Time>
            <Position>
              <LatitudeDegrees>42.70220057107508182525634765625</LatitudeDegrees>
              <LongitudeDegrees>1.242092438042163848876953125</LongitudeDegrees>
            </Position>
            <AltitudeMeters>2062.39990234375</AltitudeMeters>
            <DistanceMeters>1299.3126711797</DistanceMeters>
          </Trackpoint>
          <Trackpoint>
            <Time>2018-04-30T08:26:59.000Z</Time>
            <Position>
              <LatitudeDegrees>42.702107615768909454345703125</LatitudeDegrees>
              <LongitudeDegrees>1.24217801727354526519775390625</LongitudeDegrees>
            </Position>
            <AltitudeMeters>2065.199951171875</AltitudeMeters>
            <DistanceMeters>1311.8042571859</DistanceMeters>
          </Trackpoint>
          <Trackpoint>
            <Time>2018-04-30T08:27:21.000Z</Time>
            <Position>
              <LatitudeDegrees>42.70193352364003658294677734375</LatitudeDegrees>
              <LongitudeDegrees>1.24223300255835056304931640625</LongitudeDegrees>
            </Position>
            <AltitudeMeters>2066.800048828125</AltitudeMeters>
            <DistanceMeters>1331.6959612261</DistanceMeters>
          </Trackpoint>
          <Trackpoint>
            <Time>2018-04-30T08:27:43.000Z</Time>
            <Position>
              <LatitudeDegrees>42.70189731381833553314208984375</LatitudeDegrees>
              <LongitudeDegrees>1.2424034066498279571533203125</LongitudeDegrees>
            </Position>
            <AltitudeMeters>2069.199951171875</AltitudeMeters>
            <DistanceMeters>1346.2048944075</DistanceMeters>
          </Trackpoint>
          <Trackpoint>
            <Time>2018-04-30T08:27:53.000Z</Time>
            <Position>
              <LatitudeDegrees>42.70189530216157436370849609375</LatitudeDegrees>
              <LongitudeDegrees>1.24248345382511615753173828125</LongitudeDegrees>
            </Position>
            <AltitudeMeters>2070.800048828125</AltitudeMeters>
            <DistanceMeters>1352.755537373</DistanceMeters>
          </Trackpoint>
          <Trackpoint>
            <Time>2018-04-30T08:28:10.000Z</Time>
            <Position>
              <LatitudeDegrees>42.70183562301099300384521484375</LatitudeDegrees>
              <LongitudeDegrees>1.2426210008561611175537109375</LongitudeDegrees>
            </Position>
            <AltitudeMeters>2073.800048828125</AltitudeMeters>
            <DistanceMeters>1365.8209330844</DistanceMeters>
          </Trackpoint>
          <Trackpoint>
            <Time>2018-04-30T08:28:35.000Z</Time>
            <Position>
              <LatitudeDegrees>42.70177862606942653656005859375</LatitudeDegrees>
              <LongitudeDegrees>1.24283985234797000885009765625</LongitudeDegrees>
            </Position>
            <AltitudeMeters>2077</AltitudeMeters>
            <DistanceMeters>1384.8124920864</DistanceMeters>
          </Trackpoint>
          <Trackpoint>
            <Time>2018-04-30T08:28:50.000Z</Time>
            <Position>
              <LatitudeDegrees>42.7017419971525669097900390625</LatitudeDegrees>
              <LongitudeDegrees>1.242978237569332122802734375</LongitudeDegrees>
            </Position>
            <AltitudeMeters>2080.199951171875</AltitudeMeters>
            <DistanceMeters>1396.84378983</DistanceMeters>
          </Trackpoint>
          <Trackpoint>
            <Time>2018-04-30T08:29:08.000Z</Time>
            <Position>
              <LatitudeDegrees>42.7016808092594146728515625</LatitudeDegrees>
              <LongitudeDegrees>1.243127100169658660888671875</LongitudeDegrees>
            </Position>
            <AltitudeMeters>2082.60009765625</AltitudeMeters>
            <DistanceMeters>1410.7955756593</DistanceMeters>
          </Trackpoint>
          <Trackpoint>
            <Time>2018-04-30T08:29:32.000Z</Time>
            <Position>
              <LatitudeDegrees>42.70157712511718273162841796875</LatitudeDegrees>
              <LongitudeDegrees>1.24335366301238536834716796875</LongitudeDegrees>
            </Position>
            <AltitudeMeters>2085.39990234375</AltitudeMeters>
            <DistanceMeters>1432.6269163124</DistanceMeters>
          </Trackpoint>
          <Trackpoint>
            <Time>2018-04-30T08:29:55.000Z</Time>
            <Position>
              <LatitudeDegrees>42.7014771290123462677001953125</LatitudeDegrees>
              <LongitudeDegrees>1.24359212815761566162109375</LongitudeDegrees>
            </Position>
            <AltitudeMeters>2088.199951171875</AltitudeMeters>
            <DistanceMeters>1455.0842039802</DistanceMeters>
          </Trackpoint>
          <Trackpoint>
            <Time>2018-04-30T08:30:19.000Z</Time>
            <Position>
              <LatitudeDegrees>42.70133103244006633758544921875</LatitudeDegrees>
              <LongitudeDegrees>1.2437391467392444610595703125</LongitudeDegrees>
            </Position>
            <AltitudeMeters>2090.39990234375</AltitudeMeters>
            <DistanceMeters>1475.3083804166</DistanceMeters>
          </Trackpoint>
          <Trackpoint>
            <Time>2018-04-30T08:30:36.000Z</Time>
            <Position>
              <LatitudeDegrees>42.7012689225375652313232421875</LatitudeDegrees>
              <LongitudeDegrees>1.24380310066044330596923828125</LongitudeDegrees>
            </Position>
            <AltitudeMeters>2091.199951171875</AltitudeMeters>
            <DistanceMeters>1483.9771921095</DistanceMeters>
          </Trackpoint>
          <Trackpoint>
            <Time>2018-04-30T08:30:56.000Z</Time>
            <Position>
              <LatitudeDegrees>42.70114763639867305755615234375</LatitudeDegrees>
              <LongitudeDegrees>1.2439052760601043701171875</LongitudeDegrees>
            </Position>
            <AltitudeMeters>2091.199951171875</AltitudeMeters>
            <DistanceMeters>1499.8540489752</DistanceMeters>
          </Trackpoint>
          <Trackpoint>
            <Time>2018-04-30T08:31:17.000Z</Time>
            <Position>
              <LatitudeDegrees>42.7009359933435916900634765625</LatitudeDegrees>
              <LongitudeDegrees>1.24392262659966945648193359375</LongitudeDegrees>
            </Position>
            <AltitudeMeters>2090.39990234375</AltitudeMeters>
            <DistanceMeters>1523.453221304</DistanceMeters>
          </Trackpoint>
          <Trackpoint>
            <Time>2018-04-30T08:31:20.000Z</Time>
            <Position>
              <LatitudeDegrees>42.7009031362831592559814453125</LatitudeDegrees>
              <LongitudeDegrees>1.24391893856227397918701171875</LongitudeDegrees>
            </Position>
            <AltitudeMeters>2089.60009765625</AltitudeMeters>
            <DistanceMeters>1527.1237626883</DistanceMeters>
          </Trackpoint>
          <Trackpoint>
            <Time>2018-04-30T08:31:21.000Z</Time>
            <Position>
              <LatitudeDegrees>42.70089156925678253173828125</LatitudeDegrees>
              <LongitudeDegrees>1.24392145313322544097900390625</LongitudeDegrees>
            </Position>
            <AltitudeMeters>2089.199951171875</AltitudeMeters>
            <DistanceMeters>1528.4267033514</DistanceMeters>
          </Trackpoint>
          <Trackpoint>
            <Time>2018-04-30T08:31:22.000Z</Time>
            <Position>
              <LatitudeDegrees>42.7008796669542789459228515625</LatitudeDegrees>
              <LongitudeDegrees>1.24392396770417690277099609375</LongitudeDegrees>
            </Position>
            <AltitudeMeters>2088.800048828125</AltitudeMeters>
            <DistanceMeters>1529.7638477475</DistanceMeters>
          </Trackpoint>
          <Trackpoint>
            <Time>2018-04-30T08:31:32.000Z</Time>
            <Position>
              <LatitudeDegrees>42.7008253522217273712158203125</LatitudeDegrees>
              <LongitudeDegrees>1.2439711578190326690673828125</LongitudeDegrees>
            </Position>
            <AltitudeMeters>2089.39990234375</AltitudeMeters>
            <DistanceMeters>1536.9363191138</DistanceMeters>
          </Trackpoint>
          <Trackpoint>
            <Time>2018-04-30T08:31:36.000Z</Time>
            <Position>
              <LatitudeDegrees>42.70079995505511760711669921875</LatitudeDegrees>
              <LongitudeDegrees>1.24399336986243724822998046875</LongitudeDegrees>
            </Position>
            <AltitudeMeters>2090.39990234375</AltitudeMeters>
            <DistanceMeters>1540.2973644321</DistanceMeters>
          </Trackpoint>
          <Trackpoint>
            <Time>2018-04-30T08:31:59.000Z</Time>
            <Position>
              <LatitudeDegrees>42.700638435781002044677734375</LatitudeDegrees>
              <LongitudeDegrees>1.24406277202069759368896484375</LongitudeDegrees>
            </Position>
            <AltitudeMeters>2093.60009765625</AltitudeMeters>
            <DistanceMeters>1559.1498119856</DistanceMeters>
          </Trackpoint>
          <Trackpoint>
            <Time>2018-04-30T08:32:14.000Z</Time>
            <Position>
              <LatitudeDegrees>42.70055805332958698272705078125</LatitudeDegrees>
              <LongitudeDegrees>1.24412454664707183837890625</LongitudeDegrees>
            </Position>
            <AltitudeMeters>2096.60009765625</AltitudeMeters>
            <DistanceMeters>1569.4241291712</DistanceMeters>
          </Trackpoint>
          <Trackpoint>
            <Time>2018-04-30T08:32:27.000Z</Time>
            <Position>
              <LatitudeDegrees>42.700479514896869659423828125</LatitudeDegrees>
              <LongitudeDegrees>1.244183890521526336669921875</LongitudeDegrees>
            </Position>
            <AltitudeMeters>2099</AltitudeMeters>
            <DistanceMeters>1579.4227278885</DistanceMeters>
          </Trackpoint>
          <Trackpoint>
            <Time>2018-04-30T08:32:37.000Z</Time>
            <Position>
              <LatitudeDegrees>42.7003951929509639739990234375</LatitudeDegrees>
              <LongitudeDegrees>1.24419855885207653045654296875</LongitudeDegrees>
            </Position>
            <AltitudeMeters>2101</AltitudeMeters>
            <DistanceMeters>1588.8844496064</DistanceMeters>
          </Trackpoint>
          <Trackpoint>
            <Time>2018-04-30T08:32:49.000Z</Time>
            <Position>
              <LatitudeDegrees>42.70036174915730953216552734375</LatitudeDegrees>
              <LongitudeDegrees>1.2442092038691043853759765625</LongitudeDegrees>
            </Position>
            <AltitudeMeters>2101</AltitudeMeters>
            <DistanceMeters>1592.7068393937</DistanceMeters>
          </Trackpoint>
          <Trackpoint>
            <Time>2018-04-30T08:33:01.000Z</Time>
            <Position>
              <LatitudeDegrees>42.70035873167216777801513671875</LatitudeDegrees>
              <LongitudeDegrees>1.24421440064907073974609375</LongitudeDegrees>
            </Position>
            <AltitudeMeters>2101.199951171875</AltitudeMeters>
            <DistanceMeters>1593.2527263075</DistanceMeters>
          </Trackpoint>
          <Trackpoint>
            <Time>2018-04-30T08:33:29.000Z</Time>
            <Position>
              <LatitudeDegrees>42.700351439416408538818359375</LatitudeDegrees>
              <LongitudeDegrees>1.24420157633721828460693359375</LongitudeDegrees>
            </Position>
            <AltitudeMeters>2101.39990234375</AltitudeMeters>
            <DistanceMeters>1594.5762952819</DistanceMeters>
          </Trackpoint>
          <Trackpoint>
            <Time>2018-04-30T08:34:09.000Z</Time>
            <Position>
              <LatitudeDegrees>42.7003512717783451080322265625</LatitudeDegrees>
              <LongitudeDegrees>1.2441897578537464141845703125</LongitudeDegrees>
            </Position>
            <AltitudeMeters>2100.39990234375</AltitudeMeters>
            <DistanceMeters>1595.5453814237</DistanceMeters>
          </Trackpoint>
          <Trackpoint>
            <Time>2018-04-30T08:35:17.000Z</Time>
            <Position>
              <LatitudeDegrees>42.70023752935230731964111328125</LatitudeDegrees>
              <LongitudeDegrees>1.2442259676754474639892578125</LongitudeDegrees>
            </Position>
            <AltitudeMeters>2102.39990234375</AltitudeMeters>
            <DistanceMeters>1608.5473836198</DistanceMeters>
          </Trackpoint>
          <Trackpoint>
            <Time>2018-04-30T08:35:22.000Z</Time>
            <Position>
              <LatitudeDegrees>42.70024306140840053558349609375</LatitudeDegrees>
              <LongitudeDegrees>1.24425287358462810516357421875</LongitudeDegrees>
            </Position>
            <AltitudeMeters>2102.800048828125</AltitudeMeters>
            <DistanceMeters>1610.8319807801</DistanceMeters>
          </Trackpoint>
          <Trackpoint>
            <Time>2018-04-30T08:36:36.000Z</Time>
            <Position>
              <LatitudeDegrees>42.7002379484474658966064453125</LatitudeDegrees>
              <LongitudeDegrees>1.24431020580232143402099609375</LongitudeDegrees>
            </Position>
            <AltitudeMeters>2103.199951171875</AltitudeMeters>
            <DistanceMeters>1615.555678367</DistanceMeters>
          </Trackpoint>
          <Trackpoint>
            <Time>2018-04-30T08:36:54.000Z</Time>
            <Position>
              <LatitudeDegrees>42.700173072516918182373046875</LatitudeDegrees>
              <LongitudeDegrees>1.2444703839719295501708984375</LongitudeDegrees>
            </Position>
            <AltitudeMeters>2106.39990234375</AltitudeMeters>
            <DistanceMeters>1630.51567217</DistanceMeters>
          </Trackpoint>
          <Trackpoint>
            <Time>2018-04-30T08:37:06.000Z</Time>
            <Position>
              <LatitudeDegrees>42.70012135617434978485107421875</LatitudeDegrees>
              <LongitudeDegrees>1.24455814249813556671142578125</LongitudeDegrees>
            </Position>
            <AltitudeMeters>2109.39990234375</AltitudeMeters>
            <DistanceMeters>1639.7175756044</DistanceMeters>
          </Trackpoint>
          <Trackpoint>
            <Time>2018-04-30T08:37:22.000Z</Time>
            <Position>
              <LatitudeDegrees>42.70010962150990962982177734375</LatitudeDegrees>
              <LongitudeDegrees>1.24465604312717914581298828125</LongitudeDegrees>
            </Position>
            <AltitudeMeters>2112.39990234375</AltitudeMeters>
            <DistanceMeters>1647.8322116054</DistanceMeters>
          </Trackpoint>
          <Trackpoint>
            <Time>2018-04-30T08:37:30.000Z</Time>
            <Position>
              <LatitudeDegrees>42.700157649815082550048828125</LatitudeDegrees>
              <LongitudeDegrees>1.2447023950517177581787109375</LongitudeDegrees>
            </Position>
            <AltitudeMeters>2113.800048828125</AltitudeMeters>
            <DistanceMeters>1654.3862999207</DistanceMeters>
          </Trackpoint>
          <Trackpoint>
            <Time>2018-04-30T08:37:31.000Z</Time>
            <Position>
              <LatitudeDegrees>42.700165025889873504638671875</LatitudeDegrees>
              <LongitudeDegrees>1.24471086077392101287841796875</LongitudeDegrees>
            </Position>
            <AltitudeMeters>2114</AltitudeMeters>
            <DistanceMeters>1655.4571966049</DistanceMeters>
          </Trackpoint>
          <Trackpoint>
            <Time>2018-04-30T08:37:44.000Z</Time>
            <Position>
              <LatitudeDegrees>42.70026125013828277587890625</LatitudeDegrees>
              <LongitudeDegrees>1.24478646554052829742431640625</LongitudeDegrees>
            </Position>
            <AltitudeMeters>2116</AltitudeMeters>
            <DistanceMeters>1667.8245501944</DistanceMeters>
          </Trackpoint>
          <Trackpoint>
            <Time>2018-04-30T08:37:47.000Z</Time>
            <Position>
              <LatitudeDegrees>42.70028480328619480133056640625</LatitudeDegrees>
              <LongitudeDegrees>1.24479266814887523651123046875</LongitudeDegrees>
            </Position>
            <AltitudeMeters>2116.39990234375</AltitudeMeters>
            <DistanceMeters>1670.4954602249</DistanceMeters>
          </Trackpoint>
          <Trackpoint>
            <Time>2018-04-30T08:38:20.000Z</Time>
            <Position>
              <LatitudeDegrees>42.7003968693315982818603515625</LatitudeDegrees>
              <LongitudeDegrees>1.244826614856719970703125</LongitudeDegrees>
            </Position>
            <AltitudeMeters>2119.60009765625</AltitudeMeters>
            <DistanceMeters>1683.2736385872</DistanceMeters>
          </Trackpoint>
          <Trackpoint>
            <Time>2018-04-30T08:38:39.000Z</Time>
            <Position>
              <LatitudeDegrees>42.7005299739539623260498046875</LatitudeDegrees>
              <LongitudeDegrees>1.24486885964870452880859375</LongitudeDegrees>
            </Position>
            <AltitudeMeters>2122.60009765625</AltitudeMeters>
            <DistanceMeters>1698.4856318476</DistanceMeters>
          </Trackpoint>
          <Trackpoint>
            <Time>2018-04-30T08:38:56.000Z</Time>
            <Position>
              <LatitudeDegrees>42.700649164617061614990234375</LatitudeDegrees>
              <LongitudeDegrees>1.2448931671679019927978515625</LongitudeDegrees>
            </Position>
            <AltitudeMeters>2125.39990234375</AltitudeMeters>
            <DistanceMeters>1711.9002270101</DistanceMeters>
          </Trackpoint>
          <Trackpoint>
            <Time>2018-04-30T08:39:18.000Z</Time>
            <Position>
              <LatitudeDegrees>42.700721919536590576171875</LatitudeDegrees>
              <LongitudeDegrees>1.24495443888008594512939453125</LongitudeDegrees>
            </Position>
            <AltitudeMeters>2128.39990234375</AltitudeMeters>
            <DistanceMeters>1721.4237813783</DistanceMeters>
          </Trackpoint>
          <Trackpoint>
            <Time>2018-04-30T08:39:23.000Z</Time>
            <Position>
              <LatitudeDegrees>42.700737006962299346923828125</LatitudeDegrees>
              <LongitudeDegrees>1.244971789419651031494140625</LongitudeDegrees>
            </Position>
            <AltitudeMeters>2128.60009765625</AltitudeMeters>
            <DistanceMeters>1723.6238088722</DistanceMeters>
          </Trackpoint>
          <Trackpoint>
            <Time>2018-04-30T08:39:38.000Z</Time>
            <Position>
              <LatitudeDegrees>42.700830213725566864013671875</LatitudeDegrees>
              <LongitudeDegrees>1.2450318038463592529296875</LongitudeDegrees>
            </Position>
            <AltitudeMeters>2131.800048828125</AltitudeMeters>
            <DistanceMeters>1735.1012108066</DistanceMeters>
          </Trackpoint>
          <Trackpoint>
            <Time>2018-04-30T08:39:48.000Z</Time>
            <Position>
              <LatitudeDegrees>42.7009111829102039337158203125</LatitudeDegrees>
              <LongitudeDegrees>1.2450608052313327789306640625</LongitudeDegrees>
            </Position>
            <AltitudeMeters>2133.800048828125</AltitudeMeters>
            <DistanceMeters>1744.4206139655</DistanceMeters>
          </Trackpoint>
          <Trackpoint>
            <Time>2018-04-30T08:40:01.000Z</Time>
            <Position>
              <LatitudeDegrees>42.70098301582038402557373046875</LatitudeDegrees>
              <LongitudeDegrees>1.2451077438890933990478515625</LongitudeDegrees>
            </Position>
            <AltitudeMeters>2136.800048828125</AltitudeMeters>
            <DistanceMeters>1753.29022647</DistanceMeters>
          </Trackpoint>
          <Trackpoint>
            <Time>2018-04-30T08:40:04.000Z</Time>
            <Position>
              <LatitudeDegrees>42.7009909786283969879150390625</LatitudeDegrees>
              <LongitudeDegrees>1.24513783492147922515869140625</LongitudeDegrees>
            </Position>
            <AltitudeMeters>2137.39990234375</AltitudeMeters>
            <DistanceMeters>1755.9082081393</DistanceMeters>
          </Trackpoint>
          <Trackpoint>
            <Time>2018-04-30T08:40:19.000Z</Time>
            <Position>
              <LatitudeDegrees>42.7009494043886661529541015625</LatitudeDegrees>
              <LongitudeDegrees>1.245239675045013427734375</LongitudeDegrees>
            </Position>
            <AltitudeMeters>2140.60009765625</AltitudeMeters>
            <DistanceMeters>1765.4374499098</DistanceMeters>
          </Trackpoint>
          <Trackpoint>
            <Time>2018-04-30T08:40:34.000Z</Time>
            <Position>
              <LatitudeDegrees>42.70086877048015594482421875</LatitudeDegrees>
              <LongitudeDegrees>1.2453464604914188385009765625</LongitudeDegrees>
            </Position>
            <AltitudeMeters>2143.60009765625</AltitudeMeters>
            <DistanceMeters>1777.9608028026</DistanceMeters>
          </Trackpoint>
          <Trackpoint>
            <Time>2018-04-30T08:40:51.000Z</Time>
            <Position>
              <LatitudeDegrees>42.7007888071238994598388671875</LatitudeDegrees>
              <LongitudeDegrees>1.245460622012615203857421875</LongitudeDegrees>
            </Position>
            <AltitudeMeters>2147</AltitudeMeters>
            <DistanceMeters>1790.860657403</DistanceMeters>
          </Trackpoint>
          <Trackpoint>
            <Time>2018-04-30T08:41:05.000Z</Time>
            <Position>
              <LatitudeDegrees>42.70072669722139835357666015625</LatitudeDegrees>
              <LongitudeDegrees>1.2455419264733791351318359375</LongitudeDegrees>
            </Position>
            <AltitudeMeters>2149.800048828125</AltitudeMeters>
            <DistanceMeters>1800.4531794365</DistanceMeters>
          </Trackpoint>
          <Trackpoint>
            <Time>2018-04-30T08:41:08.000Z</Time>
            <Position>
              <LatitudeDegrees>42.70071127451956272125244140625</LatitudeDegrees>
              <LongitudeDegrees>1.2455630488693714141845703125</LongitudeDegrees>
            </Position>
            <AltitudeMeters>2150.199951171875</AltitudeMeters>
            <DistanceMeters>1802.8870508684</DistanceMeters>
          </Trackpoint>
          <Trackpoint>
            <Time>2018-04-30T08:41:22.000Z</Time>
            <Position>
              <LatitudeDegrees>42.70064388401806354522705078125</LatitudeDegrees>
              <LongitudeDegrees>1.2456602789461612701416015625</LongitudeDegrees>
            </Position>
            <AltitudeMeters>2152.60009765625</AltitudeMeters>
            <DistanceMeters>1813.8188408252</DistanceMeters>
          </Trackpoint>
          <Trackpoint>
            <Time>2018-04-30T08:41:41.000Z</Time>
            <Position>
              <LatitudeDegrees>42.70056970417499542236328125</LatitudeDegrees>
              <LongitudeDegrees>1.24580386094748973846435546875</LongitudeDegrees>
            </Position>
            <AltitudeMeters>2155.60009765625</AltitudeMeters>
            <DistanceMeters>1828.1751100048</DistanceMeters>
          </Trackpoint>
          <Trackpoint>
            <Time>2018-04-30T08:42:02.000Z</Time>
            <Position>
              <LatitudeDegrees>42.7005125395953655242919921875</LatitudeDegrees>
              <LongitudeDegrees>1.24595892615616321563720703125</LongitudeDegrees>
            </Position>
            <AltitudeMeters>2159</AltitudeMeters>
            <DistanceMeters>1842.3653064314</DistanceMeters>
          </Trackpoint>
          <Trackpoint>
            <Time>2018-04-30T08:42:17.000Z</Time>
            <Position>
              <LatitudeDegrees>42.70050608552992343902587890625</LatitudeDegrees>
              <LongitudeDegrees>1.24606319703161716461181640625</LongitudeDegrees>
            </Position>
            <AltitudeMeters>2162.199951171875</AltitudeMeters>
            <DistanceMeters>1850.9245710137</DistanceMeters>
          </Trackpoint>
          <Trackpoint>
            <Time>2018-04-30T08:42:36.000Z</Time>
            <Position>
              <LatitudeDegrees>42.7005060017108917236328125</LatitudeDegrees>
              <LongitudeDegrees>1.24622337520122528076171875</LongitudeDegrees>
            </Position>
            <AltitudeMeters>2165.39990234375</AltitudeMeters>
            <DistanceMeters>1864.0268907806</DistanceMeters>
          </Trackpoint>
          <Trackpoint>
            <Time>2018-04-30T08:42:55.000Z</Time>
            <Position>
              <LatitudeDegrees>42.70046568475663661956787109375</LatitudeDegrees>
              <LongitudeDegrees>1.24633845873177051544189453125</LongitudeDegrees>
            </Position>
            <AltitudeMeters>2168.39990234375</AltitudeMeters>
            <DistanceMeters>1874.4547467702</DistanceMeters>
          </Trackpoint>
          <Trackpoint>
            <Time>2018-04-30T08:43:10.000Z</Time>
            <Position>
              <LatitudeDegrees>42.7004226855933666229248046875</LatitudeDegrees>
              <LongitudeDegrees>1.24640786089003086090087890625</LongitudeDegrees>
            </Position>
            <AltitudeMeters>2171.39990234375</AltitudeMeters>
            <DistanceMeters>1881.8796115292</DistanceMeters>
          </Trackpoint>
          <Trackpoint>
            <Time>2018-04-30T08:43:25.000Z</Time>
            <Position>
              <LatitudeDegrees>42.70048060454428195953369140625</LatitudeDegrees>
              <LongitudeDegrees>1.2464542128145694732666015625</LongitudeDegrees>
            </Position>
            <AltitudeMeters>2174.800048828125</AltitudeMeters>
            <DistanceMeters>1889.3584011033</DistanceMeters>
          </Trackpoint>
          <Trackpoint>
            <Time>2018-04-30T08:43:41.000Z</Time>
            <Position>
              <LatitudeDegrees>42.70056433975696563720703125</LatitudeDegrees>
              <LongitudeDegrees>1.24646469019353389739990234375</LongitudeDegrees>
            </Position>
            <AltitudeMeters>2176.39990234375</AltitudeMeters>
            <DistanceMeters>1898.7174470753</DistanceMeters>
          </Trackpoint>
          <Trackpoint>
            <Time>2018-04-30T08:43:54.000Z</Time>
            <Position>
              <LatitudeDegrees>42.7006386034190654754638671875</LatitudeDegrees>
              <LongitudeDegrees>1.246479861438274383544921875</LongitudeDegrees>
            </Position>
            <AltitudeMeters>2179.199951171875</AltitudeMeters>
            <DistanceMeters>1907.0760176138</DistanceMeters>
          </Trackpoint>
          <Trackpoint>
            <Time>2018-04-30T08:44:12.000Z</Time>
            <Position>
              <LatitudeDegrees>42.7006493322551250457763671875</LatitudeDegrees>
              <LongitudeDegrees>1.246544234454631805419921875</LongitudeDegrees>
            </Position>
            <AltitudeMeters>2181.60009765625</AltitudeMeters>
            <DistanceMeters>1912.4750070342</DistanceMeters>
          </Trackpoint>
          <Trackpoint>
            <Time>2018-04-30T08:44:29.000Z</Time>
            <Position>
              <LatitudeDegrees>42.70061119459569454193115234375</LatitudeDegrees>
              <LongitudeDegrees>1.24666904099285602569580078125</LongitudeDegrees>
            </Position>
            <AltitudeMeters>2184.60009765625</AltitudeMeters>
            <DistanceMeters>1923.5308251742</DistanceMeters>
          </Trackpoint>
          <Trackpoint>
            <Time>2018-04-30T08:44:44.000Z</Time>
            <Position>
              <LatitudeDegrees>42.70053944550454616546630859375</LatitudeDegrees>
              <LongitudeDegrees>1.2467609904706478118896484375</LongitudeDegrees>
            </Position>
            <AltitudeMeters>2187.800048828125</AltitudeMeters>
            <DistanceMeters>1934.5005470801</DistanceMeters>
          </Trackpoint>
          <Trackpoint>
            <Time>2018-04-30T08:44:50.000Z</Time>
            <Position>
              <LatitudeDegrees>42.70050575025379657745361328125</LatitudeDegrees>
              <LongitudeDegrees>1.2468065880239009857177734375</LongitudeDegrees>
            </Position>
            <AltitudeMeters>2189.199951171875</AltitudeMeters>
            <DistanceMeters>1939.788849903</DistanceMeters>
          </Trackpoint>
          <Trackpoint>
            <Time>2018-04-30T08:44:51.000Z</Time>
            <Position>
              <LatitudeDegrees>42.700498290359973907470703125</LatitudeDegrees>
              <LongitudeDegrees>1.24681212007999420166015625</LongitudeDegrees>
            </Position>
            <AltitudeMeters>2189.39990234375</AltitudeMeters>
            <DistanceMeters>1940.7391170467</DistanceMeters>
          </Trackpoint>
          <Trackpoint>
            <Time>2018-04-30T08:45:09.000Z</Time>
            <Position>
              <LatitudeDegrees>42.70041388459503650665283203125</LatitudeDegrees>
              <LongitudeDegrees>1.24686081893742084503173828125</LongitudeDegrees>
            </Position>
            <AltitudeMeters>2192</AltitudeMeters>
            <DistanceMeters>1950.9433226246</DistanceMeters>
          </Trackpoint>
          <Trackpoint>
            <Time>2018-04-30T08:45:26.000Z</Time>
            <Position>
              <LatitudeDegrees>42.7003254555165767669677734375</LatitudeDegrees>
              <LongitudeDegrees>1.2469095177948474884033203125</LongitudeDegrees>
            </Position>
            <AltitudeMeters>2194.800048828125</AltitudeMeters>
            <DistanceMeters>1961.5616809948</DistanceMeters>
          </Trackpoint>
          <Trackpoint>
            <Time>2018-04-30T08:45:44.000Z</Time>
            <Position>
              <LatitudeDegrees>42.7002600766718387603759765625</LatitudeDegrees>
              <LongitudeDegrees>1.24695788137614727020263671875</LongitudeDegrees>
            </Position>
            <AltitudeMeters>2197.800048828125</AltitudeMeters>
            <DistanceMeters>1969.8448277894</DistanceMeters>
          </Trackpoint>
          <Trackpoint>
            <Time>2018-04-30T08:46:00.000Z</Time>
            <Position>
              <LatitudeDegrees>42.7003251202404499053955078125</LatitudeDegrees>
              <LongitudeDegrees>1.24704287387430667877197265625</LongitudeDegrees>
            </Position>
            <AltitudeMeters>2200.800048828125</AltitudeMeters>
            <DistanceMeters>1979.8817363179</DistanceMeters>
          </Trackpoint>
          <Trackpoint>
            <Time>2018-04-30T08:46:06.000Z</Time>
            <Position>
              <LatitudeDegrees>42.70035940222442150115966796875</LatitudeDegrees>
              <LongitudeDegrees>1.2470885552465915679931640625</LongitudeDegrees>
            </Position>
            <AltitudeMeters>2201.60009765625</AltitudeMeters>
            <DistanceMeters>1985.2218656619</DistanceMeters>
          </Trackpoint>
          <Trackpoint>
            <Time>2018-04-30T08:46:21.000Z</Time>
            <Position>
              <LatitudeDegrees>42.70042260177433490753173828125</LatitudeDegrees>
              <LongitudeDegrees>1.2471160478889942169189453125</LongitudeDegrees>
            </Position>
            <AltitudeMeters>2204.199951171875</AltitudeMeters>
            <DistanceMeters>1992.6070983408</DistanceMeters>
          </Trackpoint>
          <Trackpoint>
            <Time>2018-04-30T08:46:35.000Z</Time>
            <Position>
              <LatitudeDegrees>42.700496278703212738037109375</LatitudeDegrees>
              <LongitudeDegrees>1.24713926576077938079833984375</LongitudeDegrees>
            </Position>
            <AltitudeMeters>2205.800048828125</AltitudeMeters>
            <DistanceMeters>2001.0254140828</DistanceMeters>
          </Trackpoint>
          <Trackpoint>
            <Time>2018-04-30T08:46:51.000Z</Time>
            <Position>
              <LatitudeDegrees>42.70047993399202823638916015625</LatitudeDegrees>
              <LongitudeDegrees>1.247153766453266143798828125</LongitudeDegrees>
            </Position>
            <AltitudeMeters>2206.800048828125</AltitudeMeters>
            <DistanceMeters>2003.1965197697</DistanceMeters>
          </Trackpoint>
          <Trackpoint>
            <Time>2018-04-30T08:46:56.000Z</Time>
            <Position>
              <LatitudeDegrees>42.700453363358974456787109375</LatitudeDegrees>
              <LongitudeDegrees>1.247185282409191131591796875</LongitudeDegrees>
            </Position>
            <AltitudeMeters>2207.39990234375</AltitudeMeters>
            <DistanceMeters>2007.1203291862</DistanceMeters>
          </Trackpoint>
          <Trackpoint>
            <Time>2018-04-30T08:47:16.000Z</Time>
            <Position>
              <LatitudeDegrees>42.70036091096699237823486328125</LatitudeDegrees>
              <LongitudeDegrees>1.24728159047663211822509765625</LongitudeDegrees>
            </Position>
            <AltitudeMeters>2210.60009765625</AltitudeMeters>
            <DistanceMeters>2020.0795483642</DistanceMeters>
          </Trackpoint>
          <Trackpoint>
            <Time>2018-04-30T08:47:26.000Z</Time>
            <Position>
              <LatitudeDegrees>42.70030844025313854217529296875</LatitudeDegrees>
              <LongitudeDegrees>1.2473336420953273773193359375</LongitudeDegrees>
            </Position>
            <AltitudeMeters>2212.39990234375</AltitudeMeters>
            <DistanceMeters>2027.3078277103</DistanceMeters>
          </Trackpoint>
          <Trackpoint>
            <Time>2018-04-30T08:47:27.000Z</Time>
            <Position>
              <LatitudeDegrees>42.70030039362609386444091796875</LatitudeDegrees>
              <LongitudeDegrees>1.24733892269432544708251953125</LongitudeDegrees>
            </Position>
            <AltitudeMeters>2212.800048828125</AltitudeMeters>
            <DistanceMeters>2028.3044762987</DistanceMeters>
          </Trackpoint>
          <Trackpoint>
            <Time>2018-04-30T08:47:46.000Z</Time>
            <Position>
              <LatitudeDegrees>42.70025094039738178253173828125</LatitudeDegrees>
              <LongitudeDegrees>1.2473916448652744293212890625</LongitudeDegrees>
            </Position>
            <AltitudeMeters>2215.800048828125</AltitudeMeters>
            <DistanceMeters>2035.2971770605</DistanceMeters>
          </Trackpoint>
          <Trackpoint>
            <Time>2018-04-30T08:48:04.000Z</Time>
            <Position>
              <LatitudeDegrees>42.700370214879512786865234375</LatitudeDegrees>
              <LongitudeDegrees>1.24742190353572368621826171875</LongitudeDegrees>
            </Position>
            <AltitudeMeters>2218.800048828125</AltitudeMeters>
            <DistanceMeters>2048.8013391517</DistanceMeters>
          </Trackpoint>
          <Trackpoint>
            <Time>2018-04-30T08:48:16.000Z</Time>
            <Position>
              <LatitudeDegrees>42.7004505135118961334228515625</LatitudeDegrees>
              <LongitudeDegrees>1.24740882776677608489990234375</LongitudeDegrees>
            </Position>
            <AltitudeMeters>2220.800048828125</AltitudeMeters>
            <DistanceMeters>2057.8023305335</DistanceMeters>
          </Trackpoint>
          <Trackpoint>
            <Time>2018-04-30T08:48:29.000Z</Time>
            <Position>
              <LatitudeDegrees>42.7005272917449474334716796875</LatitudeDegrees>
              <LongitudeDegrees>1.247389130294322967529296875</LongitudeDegrees>
            </Position>
            <AltitudeMeters>2224</AltitudeMeters>
            <DistanceMeters>2066.4981835763</DistanceMeters>
          </Trackpoint>
          <Trackpoint>
            <Time>2018-04-30T08:48:39.000Z</Time>
            <Position>
              <LatitudeDegrees>42.70059116184711456298828125</LatitudeDegrees>
              <LongitudeDegrees>1.24736155383288860321044921875</LongitudeDegrees>
            </Position>
            <AltitudeMeters>2225.800048828125</AltitudeMeters>
            <DistanceMeters>2073.9564186822</DistanceMeters>
          </Trackpoint>
          <Trackpoint>
            <Time>2018-04-30T08:49:07.000Z</Time>
            <Position>
              <LatitudeDegrees>42.7006419561803340911865234375</LatitudeDegrees>
              <LongitudeDegrees>1.2473852746188640594482421875</LongitudeDegrees>
            </Position>
            <AltitudeMeters>2227</AltitudeMeters>
            <DistanceMeters>2079.9332893025</DistanceMeters>
          </Trackpoint>
          <Trackpoint>
            <Time>2018-04-30T08:49:21.000Z</Time>
            <Position>
              <LatitudeDegrees>42.700582109391689300537109375</LatitudeDegrees>
              <LongitudeDegrees>1.24749985523521900177001953125</LongitudeDegrees>
            </Position>
            <AltitudeMeters>2229</AltitudeMeters>
            <DistanceMeters>2091.4315217413</DistanceMeters>
          </Trackpoint>
          <Trackpoint>
            <Time>2018-04-30T08:49:38.000Z</Time>
            <Position>
              <LatitudeDegrees>42.70048253238201141357421875</LatitudeDegrees>
              <LongitudeDegrees>1.24761032871901988983154296875</LongitudeDegrees>
            </Position>
            <AltitudeMeters>2232.199951171875</AltitudeMeters>
            <DistanceMeters>2105.7317004517</DistanceMeters>
          </Trackpoint>
          <Trackpoint>
            <Time>2018-04-30T08:49:53.000Z</Time>
            <Position>
              <LatitudeDegrees>42.70046400837600231170654296875</LatitudeDegrees>
              <LongitudeDegrees>1.2476786412298679351806640625</LongitudeDegrees>
            </Position>
            <AltitudeMeters>2234.800048828125</AltitudeMeters>
            <DistanceMeters>2111.6873817958</DistanceMeters>
          </Trackpoint>
          <Trackpoint>
            <Time>2018-04-30T08:50:13.000Z</Time>
            <Position>
              <LatitudeDegrees>42.70057816989719867706298828125</LatitudeDegrees>
              <LongitudeDegrees>1.24766598455607891082763671875</LongitudeDegrees>
            </Position>
            <AltitudeMeters>2238</AltitudeMeters>
            <DistanceMeters>2124.4358450694</DistanceMeters>
          </Trackpoint>
          <Trackpoint>
            <Time>2018-04-30T08:50:30.000Z</Time>
            <Position>
              <LatitudeDegrees>42.70068596117198467254638671875</LatitudeDegrees>
              <LongitudeDegrees>1.24766782857477664947509765625</LongitudeDegrees>
            </Position>
            <AltitudeMeters>2241.199951171875</AltitudeMeters>
            <DistanceMeters>2136.4340732165</DistanceMeters>
          </Trackpoint>
          <Trackpoint>
            <Time>2018-04-30T08:50:39.000Z</Time>
            <Position>
              <LatitudeDegrees>42.7007515914738178253173828125</LatitudeDegrees>
              <LongitudeDegrees>1.24766866676509380340576171875</LongitudeDegrees>
            </Position>
            <AltitudeMeters>2242.199951171875</AltitudeMeters>
            <DistanceMeters>2143.73939674</DistanceMeters>
          </Trackpoint>
          <Trackpoint>
            <Time>2018-04-30T08:50:53.000Z</Time>
            <Position>
              <LatitudeDegrees>42.70085762254893779754638671875</LatitudeDegrees>
              <LongitudeDegrees>1.2476469576358795166015625</LongitudeDegrees>
            </Position>
            <AltitudeMeters>2245.199951171875</AltitudeMeters>
            <DistanceMeters>2155.6734809392</DistanceMeters>
          </Trackpoint>
          <Trackpoint>
            <Time>2018-04-30T08:51:27.000Z</Time>
            <Position>
              <LatitudeDegrees>42.70091797225177288055419921875</LatitudeDegrees>
              <LongitudeDegrees>1.24770470894873142242431640625</LongitudeDegrees>
            </Position>
            <AltitudeMeters>2248.39990234375</AltitudeMeters>
            <DistanceMeters>2163.8854606569</DistanceMeters>
          </Trackpoint>
          <Trackpoint>
            <Time>2018-04-30T08:51:34.000Z</Time>
            <Position>
              <LatitudeDegrees>42.70087270997464656829833984375</LatitudeDegrees>
              <LongitudeDegrees>1.24773890711367130279541015625</LongitudeDegrees>
            </Position>
            <AltitudeMeters>2250.39990234375</AltitudeMeters>
            <DistanceMeters>2169.6469327785</DistanceMeters>
          </Trackpoint>
          <Trackpoint>
            <Time>2018-04-30T08:51:55.000Z</Time>
            <Position>
              <LatitudeDegrees>42.70075469277799129486083984375</LatitudeDegrees>
              <LongitudeDegrees>1.24785742722451686859130859375</LongitudeDegrees>
            </Position>
            <AltitudeMeters>2253.60009765625</AltitudeMeters>
            <DistanceMeters>2185.9727324931</DistanceMeters>
          </Trackpoint>
          <Trackpoint>
            <Time>2018-04-30T08:52:15.000Z</Time>
            <Position>
              <LatitudeDegrees>42.70073977299034595489501953125</LatitudeDegrees>
              <LongitudeDegrees>1.24793403781950473785400390625</LongitudeDegrees>
            </Position>
            <AltitudeMeters>2256.60009765625</AltitudeMeters>
            <DistanceMeters>2192.4554769559</DistanceMeters>
          </Trackpoint>
          <Trackpoint>
            <Time>2018-04-30T08:52:21.000Z</Time>
            <Position>
              <LatitudeDegrees>42.700779922306537628173828125</LatitudeDegrees>
              <LongitudeDegrees>1.247932277619838714599609375</LongitudeDegrees>
            </Position>
            <AltitudeMeters>2258.39990234375</AltitudeMeters>
            <DistanceMeters>2196.9267842867</DistanceMeters>
          </Trackpoint>
          <Trackpoint>
            <Time>2018-04-30T08:52:42.000Z</Time>
            <Position>
              <LatitudeDegrees>42.70096625201404094696044921875</LatitudeDegrees>
              <LongitudeDegrees>1.24799002893269062042236328125</LongitudeDegrees>
            </Position>
            <AltitudeMeters>2259.800048828125</AltitudeMeters>
            <DistanceMeters>2218.1970661371</DistanceMeters>
          </Trackpoint>
          <Trackpoint>
            <Time>2018-04-30T08:53:47.000Z</Time>
            <Position>
              <LatitudeDegrees>42.7010865323245525360107421875</LatitudeDegrees>
              <LongitudeDegrees>1.2481010891497135162353515625</LongitudeDegrees>
            </Position>
            <AltitudeMeters>2258</AltitudeMeters>
            <DistanceMeters>2234.3756258939</DistanceMeters>
          </Trackpoint>
          <Trackpoint>
            <Time>2018-04-30T08:54:26.000Z</Time>
            <Position>
              <LatitudeDegrees>42.70112500526010990142822265625</LatitudeDegrees>
              <LongitudeDegrees>1.24822036363184452056884765625</LongitudeDegrees>
            </Position>
            <AltitudeMeters>2258.800048828125</AltitudeMeters>
            <DistanceMeters>2245.0296420804</DistanceMeters>
          </Trackpoint>
          <Trackpoint>
            <Time>2018-04-30T08:55:11.000Z</Time>
            <Position>
              <LatitudeDegrees>42.70117596723139286041259765625</LatitudeDegrees>
              <LongitudeDegrees>1.2483684718608856201171875</LongitudeDegrees>
            </Position>
            <AltitudeMeters>2262</AltitudeMeters>
            <DistanceMeters>2258.4061500229</DistanceMeters>
          </Trackpoint>
          <Trackpoint>
            <Time>2018-04-30T08:56:21.000Z</Time>
            <Position>
              <LatitudeDegrees>42.7011254243552684783935546875</LatitudeDegrees>
              <LongitudeDegrees>1.2484531290829181671142578125</LongitudeDegrees>
            </Position>
            <AltitudeMeters>2265</AltitudeMeters>
            <DistanceMeters>2267.3275340959</DistanceMeters>
          </Trackpoint>
          <Trackpoint>
            <Time>2018-04-30T08:56:43.000Z</Time>
            <Position>
              <LatitudeDegrees>42.70105141215026378631591796875</LatitudeDegrees>
              <LongitudeDegrees>1.2484182603657245635986328125</LongitudeDegrees>
            </Position>
            <AltitudeMeters>2268.199951171875</AltitudeMeters>
            <DistanceMeters>2276.0451669943</DistanceMeters>
          </Trackpoint>
          <Trackpoint>
            <Time>2018-04-30T08:57:05.000Z</Time>
            <Position>
              <LatitudeDegrees>42.7010288648307323455810546875</LatitudeDegrees>
              <LongitudeDegrees>1.24849344603717327117919921875</LongitudeDegrees>
            </Position>
            <AltitudeMeters>2271.199951171875</AltitudeMeters>
            <DistanceMeters>2282.6875275314</DistanceMeters>
          </Trackpoint>
          <Trackpoint>
            <Time>2018-04-30T08:57:38.000Z</Time>
            <Position>
              <LatitudeDegrees>42.701022326946258544921875</LatitudeDegrees>
              <LongitudeDegrees>1.2485486827790737152099609375</LongitudeDegrees>
            </Position>
            <AltitudeMeters>2274.199951171875</AltitudeMeters>
            <DistanceMeters>2287.2646202058</DistanceMeters>
          </Trackpoint>
          <Trackpoint>
            <Time>2018-04-30T08:57:49.000Z</Time>
            <Position>
              <LatitudeDegrees>42.70104303024709224700927734375</LatitudeDegrees>
              <LongitudeDegrees>1.2485884130001068115234375</LongitudeDegrees>
            </Position>
            <AltitudeMeters>2274.800048828125</AltitudeMeters>
            <DistanceMeters>2291.2489488053</DistanceMeters>
          </Trackpoint>
          <Trackpoint>
            <Time>2018-04-30T08:58:39.000Z</Time>
            <Position>
              <LatitudeDegrees>42.7010717801749706268310546875</LatitudeDegrees>
              <LongitudeDegrees>1.24872981570661067962646484375</LongitudeDegrees>
            </Position>
            <AltitudeMeters>2278</AltitudeMeters>
            <DistanceMeters>2303.2494345925</DistanceMeters>
          </Trackpoint>
          <Trackpoint>
            <Time>2018-04-30T08:59:25.000Z</Time>
            <Position>
              <LatitudeDegrees>42.701051495969295501708984375</LatitudeDegrees>
              <LongitudeDegrees>1.24887616373598575592041015625</LongitudeDegrees>
            </Position>
            <AltitudeMeters>2279.39990234375</AltitudeMeters>
            <DistanceMeters>2315.4313997985</DistanceMeters>
          </Trackpoint>
          <Trackpoint>
            <Time>2018-04-30T09:00:13.000Z</Time>
            <Position>
              <LatitudeDegrees>42.70107806660234928131103515625</LatitudeDegrees>
              <LongitudeDegrees>1.2488943524658679962158203125</LongitudeDegrees>
            </Position>
            <AltitudeMeters>2279.800048828125</AltitudeMeters>
            <DistanceMeters>2318.7423683581</DistanceMeters>
          </Trackpoint>
          <Trackpoint>
            <Time>2018-04-30T09:00:41.000Z</Time>
            <Position>
              <LatitudeDegrees>42.70110388286411762237548828125</LatitudeDegrees>
              <LongitudeDegrees>1.24902318231761455535888671875</LongitudeDegrees>
            </Position>
            <AltitudeMeters>2277.60009765625</AltitudeMeters>
            <DistanceMeters>2329.6650681149</DistanceMeters>
          </Trackpoint>
          <Trackpoint>
            <Time>2018-04-30T09:01:09.000Z</Time>
            <Position>
              <LatitudeDegrees>42.70112785510718822479248046875</LatitudeDegrees>
              <LongitudeDegrees>1.24927380122244358062744140625</LongitudeDegrees>
            </Position>
            <AltitudeMeters>2277</AltitudeMeters>
            <DistanceMeters>2350.3376924715</DistanceMeters>
          </Trackpoint>
          <Trackpoint>
            <Time>2018-04-30T09:01:11.000Z</Time>
            <Position>
              <LatitudeDegrees>42.70113204605877399444580078125</LatitudeDegrees>
              <LongitudeDegrees>1.2492936663329601287841796875</LongitudeDegrees>
            </Position>
            <AltitudeMeters>2277.199951171875</AltitudeMeters>
            <DistanceMeters>2352.0269242958</DistanceMeters>
          </Trackpoint>
          <Trackpoint>
            <Time>2018-04-30T09:01:16.000Z</Time>
            <Position>
              <LatitudeDegrees>42.7011448703706264495849609375</LatitudeDegrees>
              <LongitudeDegrees>1.2493476457893848419189453125</LongitudeDegrees>
            </Position>
            <AltitudeMeters>2276.60009765625</AltitudeMeters>
            <DistanceMeters>2356.667692801</DistanceMeters>
          </Trackpoint>
          <Trackpoint>
            <Time>2018-04-30T09:01:20.000Z</Time>
            <Position>
              <LatitudeDegrees>42.70116993226110935211181640625</LatitudeDegrees>
              <LongitudeDegrees>1.2494193948805332183837890625</LongitudeDegrees>
            </Position>
            <AltitudeMeters>2275</AltitudeMeters>
            <DistanceMeters>2363.1657415429</DistanceMeters>
          </Trackpoint>
          <Trackpoint>
            <Time>2018-04-30T09:01:31.000Z</Time>
            <Position>
              <LatitudeDegrees>42.701263725757598876953125</LatitudeDegrees>
              <LongitudeDegrees>1.2495769746601581573486328125</LongitudeDegrees>
            </Position>
            <AltitudeMeters>2272</AltitudeMeters>
            <DistanceMeters>2379.7524633111</DistanceMeters>
          </Trackpoint>
          <Trackpoint>
            <Time>2018-04-30T09:01:38.000Z</Time>
            <Position>
              <LatitudeDegrees>42.701304964721202850341796875</LatitudeDegrees>
              <LongitudeDegrees>1.24967269599437713623046875</LongitudeDegrees>
            </Position>
            <AltitudeMeters>2271.60009765625</AltitudeMeters>
            <DistanceMeters>2388.8283851553</DistanceMeters>
          </Trackpoint>
          <Trackpoint>
            <Time>2018-04-30T09:01:39.000Z</Time>
            <Position>
              <LatitudeDegrees>42.70131443627178668975830078125</LatitudeDegrees>
              <LongitudeDegrees>1.2496845982968807220458984375</LongitudeDegrees>
            </Position>
            <AltitudeMeters>2271.39990234375</AltitudeMeters>
            <DistanceMeters>2390.2632570762</DistanceMeters>
          </Trackpoint>
          <Trackpoint>
            <Time>2018-04-30T09:01:40.000Z</Time>
            <Position>
              <LatitudeDegrees>42.70131938159465789794921875</LatitudeDegrees>
              <LongitudeDegrees>1.249697841703891754150390625</LongitudeDegrees>
            </Position>
            <AltitudeMeters>2271.60009765625</AltitudeMeters>
            <DistanceMeters>2391.4801927921</DistanceMeters>
          </Trackpoint>
          <Trackpoint>
            <Time>2018-04-30T09:01:41.000Z</Time>
            <Position>
              <LatitudeDegrees>42.70132835023105144500732421875</LatitudeDegrees>
              <LongitudeDegrees>1.24971519224345684051513671875</LongitudeDegrees>
            </Position>
            <AltitudeMeters>2271.60009765625</AltitudeMeters>
            <DistanceMeters>2393.2168693689</DistanceMeters>
          </Trackpoint>
          <Trackpoint>
            <Time>2018-04-30T09:01:42.000Z</Time>
            <Position>
              <LatitudeDegrees>42.7013346366584300994873046875</LatitudeDegrees>
              <LongitudeDegrees>1.2497310340404510498046875</LongitudeDegrees>
            </Position>
            <AltitudeMeters>2271.39990234375</AltitudeMeters>
            <DistanceMeters>2394.6890168977</DistanceMeters>
          </Trackpoint>
          <Trackpoint>
            <Time>2018-04-30T09:01:43.000Z</Time>
            <Position>
              <LatitudeDegrees>42.70134142599999904632568359375</LatitudeDegrees>
              <LongitudeDegrees>1.24974377453327178955078125</LongitudeDegrees>
            </Position>
            <AltitudeMeters>2271</AltitudeMeters>
            <DistanceMeters>2395.9780219658</DistanceMeters>
          </Trackpoint>
          <Trackpoint>
            <Time>2018-04-30T09:01:44.000Z</Time>
            <Position>
              <LatitudeDegrees>42.7013503946363925933837890625</LatitudeDegrees>
              <LongitudeDegrees>1.24975944869220256805419921875</LongitudeDegrees>
            </Position>
            <AltitudeMeters>2271</AltitudeMeters>
            <DistanceMeters>2397.6018391728</DistanceMeters>
          </Trackpoint>
          <Trackpoint>
            <Time>2018-04-30T09:01:45.000Z</Time>
            <Position>
              <LatitudeDegrees>42.701359279453754425048828125</LatitudeDegrees>
              <LongitudeDegrees>1.24977068044245243072509765625</LongitudeDegrees>
            </Position>
            <AltitudeMeters>2270.800048828125</AltitudeMeters>
            <DistanceMeters>2398.9490753679</DistanceMeters>
          </Trackpoint>
          <Trackpoint>
            <Time>2018-04-30T09:01:46.000Z</Time>
            <Position>
              <LatitudeDegrees>42.7013674937188625335693359375</LatitudeDegrees>
              <LongitudeDegrees>1.24978342093527317047119140625</LongitudeDegrees>
            </Position>
            <AltitudeMeters>2270.60009765625</AltitudeMeters>
            <DistanceMeters>2400.3359446056</DistanceMeters>
          </Trackpoint>
          <Trackpoint>
            <Time>2018-04-30T09:01:47.000Z</Time>
            <Position>
              <LatitudeDegrees>42.70137327723205089569091796875</LatitudeDegrees>
              <LongitudeDegrees>1.24979498796164989471435546875</LongitudeDegrees>
            </Position>
            <AltitudeMeters>2270.39990234375</AltitudeMeters>
            <DistanceMeters>2401.476265178</DistanceMeters>
          </Trackpoint>
          <Trackpoint>
            <Time>2018-04-30T09:02:07.000Z</Time>
            <Position>
              <LatitudeDegrees>42.701472938060760498046875</LatitudeDegrees>
              <LongitudeDegrees>1.24998223967850208282470703125</LongitudeDegrees>
            </Position>
            <AltitudeMeters>2270.199951171875</AltitudeMeters>
            <DistanceMeters>2420.3875363559</DistanceMeters>
          </Trackpoint>
          <Trackpoint>
            <Time>2018-04-30T09:02:11.000Z</Time>
            <Position>
              <LatitudeDegrees>42.7014918811619281768798828125</LatitudeDegrees>
              <LongitudeDegrees>1.25002004206180572509765625</LongitudeDegrees>
            </Position>
            <AltitudeMeters>2270.199951171875</AltitudeMeters>
            <DistanceMeters>2424.1311547447</DistanceMeters>
          </Trackpoint>
          <Trackpoint>
            <Time>2018-04-30T09:02:12.000Z</Time>
            <Position>
              <LatitudeDegrees>42.70150043070316314697265625</LatitudeDegrees>
              <LongitudeDegrees>1.25003035180270671844482421875</LongitudeDegrees>
            </Position>
            <AltitudeMeters>2270</AltitudeMeters>
            <DistanceMeters>2425.4060719028</DistanceMeters>
          </Trackpoint>
          <Trackpoint>
            <Time>2018-04-30T09:02:13.000Z</Time>
            <Position>
              <LatitudeDegrees>42.70150805823504924774169921875</LatitudeDegrees>
              <LongitudeDegrees>1.25003990717232227325439453125</LongitudeDegrees>
            </Position>
            <AltitudeMeters>2270</AltitudeMeters>
            <DistanceMeters>2426.5621217779</DistanceMeters>
          </Trackpoint>
          <Trackpoint>
            <Time>2018-04-30T09:02:31.000Z</Time>
            <Position>
              <LatitudeDegrees>42.70163026638329029083251953125</LatitudeDegrees>
              <LongitudeDegrees>1.25022254884243011474609375</LongitudeDegrees>
            </Position>
            <AltitudeMeters>2270</AltitudeMeters>
            <DistanceMeters>2446.7659722914</DistanceMeters>
          </Trackpoint>
          <Trackpoint>
            <Time>2018-04-30T09:02:49.000Z</Time>
            <Position>
              <LatitudeDegrees>42.70173914730548858642578125</LatitudeDegrees>
              <LongitudeDegrees>1.250407285988330841064453125</LongitudeDegrees>
            </Position>
            <AltitudeMeters>2270.800048828125</AltitudeMeters>
            <DistanceMeters>2466.1360439548</DistanceMeters>
          </Trackpoint>
          <Trackpoint>
            <Time>2018-04-30T09:03:14.000Z</Time>
            <Position>
              <LatitudeDegrees>42.70187149755656719207763671875</LatitudeDegrees>
              <LongitudeDegrees>1.250550448894500732421875</LongitudeDegrees>
            </Position>
            <AltitudeMeters>2272.60009765625</AltitudeMeters>
            <DistanceMeters>2484.9542127772</DistanceMeters>
          </Trackpoint>
          <Trackpoint>
            <Time>2018-04-30T09:03:30.000Z</Time>
            <Position>
              <LatitudeDegrees>42.70193536765873432159423828125</LatitudeDegrees>
              <LongitudeDegrees>1.250672824680805206298828125</LongitudeDegrees>
            </Position>
            <AltitudeMeters>2275.60009765625</AltitudeMeters>
            <DistanceMeters>2497.2314289112</DistanceMeters>
          </Trackpoint>
          <Trackpoint>
            <Time>2018-04-30T09:03:39.000Z</Time>
            <Position>
              <LatitudeDegrees>42.70199404098093509674072265625</LatitudeDegrees>
              <LongitudeDegrees>1.2507065199315547943115234375</LongitudeDegrees>
            </Position>
            <AltitudeMeters>2278.800048828125</AltitudeMeters>
            <DistanceMeters>2504.3190459478</DistanceMeters>
          </Trackpoint>
          <Trackpoint>
            <Time>2018-04-30T09:05:14.000Z</Time>
            <Position>
              <LatitudeDegrees>42.7020333521068096160888671875</LatitudeDegrees>
              <LongitudeDegrees>1.2507717311382293701171875</LongitudeDegrees>
            </Position>
            <AltitudeMeters>2280</AltitudeMeters>
            <DistanceMeters>2511.2181424783</DistanceMeters>
          </Trackpoint>
          <Trackpoint>
            <Time>2018-04-30T09:05:37.000Z</Time>
            <Position>
              <LatitudeDegrees>42.70202077925205230712890625</LatitudeDegrees>
              <LongitudeDegrees>1.2507663667201995849609375</LongitudeDegrees>
            </Position>
            <AltitudeMeters>2279.39990234375</AltitudeMeters>
            <DistanceMeters>2512.681060151</DistanceMeters>
          </Trackpoint>
          <Trackpoint>
            <Time>2018-04-30T09:06:25.000Z</Time>
            <Position>
              <LatitudeDegrees>42.701989598572254180908203125</LatitudeDegrees>
              <LongitudeDegrees>1.250733174383640289306640625</LongitudeDegrees>
            </Position>
            <AltitudeMeters>2280.60009765625</AltitudeMeters>
            <DistanceMeters>2517.0872676307</DistanceMeters>
          </Trackpoint>
          <Trackpoint>
            <Time>2018-04-30T09:07:10.000Z</Time>
            <Position>
              <LatitudeDegrees>42.7019921131432056427001953125</LatitudeDegrees>
              <LongitudeDegrees>1.2507226131856441497802734375</LongitudeDegrees>
            </Position>
            <AltitudeMeters>2279.39990234375</AltitudeMeters>
            <DistanceMeters>2517.9937647109</DistanceMeters>
          </Trackpoint>
          <Trackpoint>
            <Time>2018-04-30T09:07:32.000Z</Time>
            <Position>
              <LatitudeDegrees>42.702030502259731292724609375</LatitudeDegrees>
              <LongitudeDegrees>1.25073426403105258941650390625</LongitudeDegrees>
            </Position>
            <AltitudeMeters>2281.60009765625</AltitudeMeters>
            <DistanceMeters>2522.3711865794</DistanceMeters>
          </Trackpoint>
          <Trackpoint>
            <Time>2018-04-30T09:07:59.000Z</Time>
            <Position>
              <LatitudeDegrees>42.7020410634577274322509765625</LatitudeDegrees>
              <LongitudeDegrees>1.25073828734457492828369140625</LongitudeDegrees>
            </Position>
            <AltitudeMeters>2279.199951171875</AltitudeMeters>
            <DistanceMeters>2523.5881222953</DistanceMeters>
          </Trackpoint>
          <Trackpoint>
            <Time>2018-04-30T09:08:14.000Z</Time>
            <Position>
              <LatitudeDegrees>42.7020491100847721099853515625</LatitudeDegrees>
              <LongitudeDegrees>1.250731833279132843017578125</LongitudeDegrees>
            </Position>
            <AltitudeMeters>2280.60009765625</AltitudeMeters>
            <DistanceMeters>2524.6247413656</DistanceMeters>
          </Trackpoint>
          <Trackpoint>
            <Time>2018-04-30T09:08:35.000Z</Time>
            <Position>
              <LatitudeDegrees>42.70204584114253520965576171875</LatitudeDegrees>
              <LongitudeDegrees>1.2507273070514202117919921875</LongitudeDegrees>
            </Position>
            <AltitudeMeters>2279</AltitudeMeters>
            <DistanceMeters>2525.1364758836</DistanceMeters>
          </Trackpoint>
          <Trackpoint>
            <Time>2018-04-30T09:09:02.000Z</Time>
            <Position>
              <LatitudeDegrees>42.70202455110847949981689453125</LatitudeDegrees>
              <LongitudeDegrees>1.25074935145676136016845703125</LongitudeDegrees>
            </Position>
            <AltitudeMeters>2279</AltitudeMeters>
            <DistanceMeters>2528.1143165556</DistanceMeters>
          </Trackpoint>
          <Trackpoint>
            <Time>2018-04-30T09:09:04.000Z</Time>
            <Position>
              <LatitudeDegrees>42.7020316757261753082275390625</LatitudeDegrees>
              <LongitudeDegrees>1.2507480941712856292724609375</LongitudeDegrees>
            </Position>
            <AltitudeMeters>2279.800048828125</AltitudeMeters>
            <DistanceMeters>2528.9150258833</DistanceMeters>
          </Trackpoint>
          <Trackpoint>
            <Time>2018-04-30T09:10:33.000Z</Time>
            <Position>
              <LatitudeDegrees>42.702014409005641937255859375</LatitudeDegrees>
              <LongitudeDegrees>1.25073644332587718963623046875</LongitudeDegrees>
            </Position>
            <AltitudeMeters>2278.60009765625</AltitudeMeters>
            <DistanceMeters>2531.0589262798</DistanceMeters>
          </Trackpoint>
          <Trackpoint>
            <Time>2018-04-30T09:11:22.000Z</Time>
            <Position>
              <LatitudeDegrees>42.70204416476190090179443359375</LatitudeDegrees>
              <LongitudeDegrees>1.25077768228948116302490234375</LongitudeDegrees>
            </Position>
            <AltitudeMeters>2279</AltitudeMeters>
            <DistanceMeters>2535.7854904783</DistanceMeters>
          </Trackpoint>
          <Trackpoint>
            <Time>2018-04-30T09:11:23.000Z</Time>
            <Position>
              <LatitudeDegrees>42.702067382633686065673828125</LatitudeDegrees>
              <LongitudeDegrees>1.250810287892818450927734375</LongitudeDegrees>
            </Position>
            <AltitudeMeters>2277.800048828125</AltitudeMeters>
            <DistanceMeters>2539.4988348913</DistanceMeters>
          </Trackpoint>
          <Trackpoint>
            <Time>2018-04-30T09:11:24.000Z</Time>
            <Position>
              <LatitudeDegrees>42.702097557485103607177734375</LatitudeDegrees>
              <LongitudeDegrees>1.25084691680967807769775390625</LongitudeDegrees>
            </Position>
            <AltitudeMeters>2276.800048828125</AltitudeMeters>
            <DistanceMeters>2544.0003337017</DistanceMeters>
          </Trackpoint>
          <Trackpoint>
            <Time>2018-04-30T09:11:25.000Z</Time>
            <Position>
              <LatitudeDegrees>42.702119350433349609375</LatitudeDegrees>
              <LongitudeDegrees>1.25088647939264774322509765625</LongitudeDegrees>
            </Position>
            <AltitudeMeters>2275.60009765625</AltitudeMeters>
            <DistanceMeters>2548.0453922324</DistanceMeters>
          </Trackpoint>
          <Trackpoint>
            <Time>2018-04-30T09:11:26.000Z</Time>
            <Position>
              <LatitudeDegrees>42.70211063325405120849609375</LatitudeDegrees>
              <LongitudeDegrees>1.25096728093922138214111328125</LongitudeDegrees>
            </Position>
            <AltitudeMeters>2274</AltitudeMeters>
            <DistanceMeters>2554.7257094244</DistanceMeters>
          </Trackpoint>
          <Trackpoint>
            <Time>2018-04-30T09:11:27.000Z</Time>
            <Position>
              <LatitudeDegrees>42.70213284529745578765869140625</LatitudeDegrees>
              <LongitudeDegrees>1.2510461546480655670166015625</LongitudeDegrees>
            </Position>
            <AltitudeMeters>2272.60009765625</AltitudeMeters>
            <DistanceMeters>2561.6346155667</DistanceMeters>
          </Trackpoint>
          <Trackpoint>
            <Time>2018-04-30T09:11:28.000Z</Time>
            <Position>
              <LatitudeDegrees>42.70213049836456775665283203125</LatitudeDegrees>
              <LongitudeDegrees>1.25113223679363727569580078125</LongitudeDegrees>
            </Position>
            <AltitudeMeters>2269.199951171875</AltitudeMeters>
            <DistanceMeters>2568.6794221741</DistanceMeters>
          </Trackpoint>
          <Trackpoint>
            <Time>2018-04-30T09:11:29.000Z</Time>
            <Position>
              <LatitudeDegrees>42.70212144590914249420166015625</LatitudeDegrees>
              <LongitudeDegrees>1.2512278743088245391845703125</LongitudeDegrees>
            </Position>
            <AltitudeMeters>2266</AltitudeMeters>
            <DistanceMeters>2576.566066996</DistanceMeters>
          </Trackpoint>
          <Trackpoint>
            <Time>2018-04-30T09:11:30.000Z</Time>
            <Position>
              <LatitudeDegrees>42.70212613977491855621337890625</LatitudeDegrees>
              <LongitudeDegrees>1.25132518820464611053466796875</LongitudeDegrees>
            </Position>
            <AltitudeMeters>2262.199951171875</AltitudeMeters>
            <DistanceMeters>2584.5420865889</DistanceMeters>
          </Trackpoint>
          <Trackpoint>
            <Time>2018-04-30T09:11:31.000Z</Time>
            <Position>
              <LatitudeDegrees>42.7021064423024654388427734375</LatitudeDegrees>
              <LongitudeDegrees>1.25141956843435764312744140625</LongitudeDegrees>
            </Position>
            <AltitudeMeters>2258.60009765625</AltitudeMeters>
            <DistanceMeters>2592.5672037344</DistanceMeters>
          </Trackpoint>
          <Trackpoint>
            <Time>2018-04-30T09:11:32.000Z</Time>
            <Position>
              <LatitudeDegrees>42.70209261216223239898681640625</LatitudeDegrees>
              <LongitudeDegrees>1.25151411630213260650634765625</LongitudeDegrees>
            </Position>
            <AltitudeMeters>2254.60009765625</AltitudeMeters>
            <DistanceMeters>2600.4527034898</DistanceMeters>
          </Trackpoint>
          <Trackpoint>
            <Time>2018-04-30T09:11:33.000Z</Time>
            <Position>
              <LatitudeDegrees>42.70209512673318386077880859375</LatitudeDegrees>
              <LongitudeDegrees>1.2516164593398571014404296875</LongitudeDegrees>
            </Position>
            <AltitudeMeters>2250.60009765625</AltitudeMeters>
            <DistanceMeters>2608.8280025183</DistanceMeters>
          </Trackpoint>
          <Trackpoint>
            <Time>2018-04-30T09:11:34.000Z</Time>
            <Position>
              <LatitudeDegrees>42.702091522514820098876953125</LatitudeDegrees>
              <LongitudeDegrees>1.25173003412783145904541015625</LongitudeDegrees>
            </Position>
            <AltitudeMeters>2247</AltitudeMeters>
            <DistanceMeters>2618.1260642451</DistanceMeters>
          </Trackpoint>
          <Trackpoint>
            <Time>2018-04-30T09:11:35.000Z</Time>
            <Position>
              <LatitudeDegrees>42.70209328271448612213134765625</LatitudeDegrees>
              <LongitudeDegrees>1.25185458920896053314208984375</LongitudeDegrees>
            </Position>
            <AltitudeMeters>2241.800048828125</AltitudeMeters>
            <DistanceMeters>2628.3156579049</DistanceMeters>
          </Trackpoint>
          <Trackpoint>
            <Time>2018-04-30T09:11:36.000Z</Time>
            <Position>
              <LatitudeDegrees>42.70211356692016124725341796875</LatitudeDegrees>
              <LongitudeDegrees>1.25198920257389545440673828125</LongitudeDegrees>
            </Position>
            <AltitudeMeters>2237.199951171875</AltitudeMeters>
            <DistanceMeters>2639.5553540508</DistanceMeters>
          </Trackpoint>
          <Trackpoint>
            <Time>2018-04-30T09:11:37.000Z</Time>
            <Position>
              <LatitudeDegrees>42.70211071707308292388916015625</LatitudeDegrees>
              <LongitudeDegrees>1.25212448649108409881591796875</LongitudeDegrees>
            </Position>
            <AltitudeMeters>2233.800048828125</AltitudeMeters>
            <DistanceMeters>2650.6258643144</DistanceMeters>
          </Trackpoint>
          <Trackpoint>
            <Time>2018-04-30T09:11:38.000Z</Time>
            <Position>
              <LatitudeDegrees>42.7020980603992938995361328125</LatitudeDegrees>
              <LongitudeDegrees>1.2522551603615283966064453125</LongitudeDegrees>
            </Position>
            <AltitudeMeters>2231.199951171875</AltitudeMeters>
            <DistanceMeters>2661.4071046877</DistanceMeters>
          </Trackpoint>
          <Trackpoint>
            <Time>2018-04-30T09:11:39.000Z</Time>
            <Position>
              <LatitudeDegrees>42.70208942703902721405029296875</LatitudeDegrees>
              <LongitudeDegrees>1.252374015748500823974609375</LongitudeDegrees>
            </Position>
            <AltitudeMeters>2228.800048828125</AltitudeMeters>
            <DistanceMeters>2671.1759248754</DistanceMeters>
          </Trackpoint>
          <Trackpoint>
            <Time>2018-04-30T09:11:40.000Z</Time>
            <Position>
              <LatitudeDegrees>42.7021114714443683624267578125</LatitudeDegrees>
              <LongitudeDegrees>1.25246076844632625579833984375</LongitudeDegrees>
            </Position>
            <AltitudeMeters>2228.199951171875</AltitudeMeters>
            <DistanceMeters>2678.6836367214</DistanceMeters>
          </Trackpoint>
          <Trackpoint>
            <Time>2018-04-30T09:11:41.000Z</Time>
            <Position>
              <LatitudeDegrees>42.7021248824894428253173828125</LatitudeDegrees>
              <LongitudeDegrees>1.25255070626735687255859375</LongitudeDegrees>
            </Position>
            <AltitudeMeters>2229.199951171875</AltitudeMeters>
            <DistanceMeters>2686.1901456977</DistanceMeters>
          </Trackpoint>
          <Trackpoint>
            <Time>2018-04-30T09:11:45.000Z</Time>
            <Position>
              <LatitudeDegrees>42.70217768847942352294921875</LatitudeDegrees>
              <LongitudeDegrees>1.2528301589190959930419921875</LongitudeDegrees>
            </Position>
            <AltitudeMeters>2227.199951171875</AltitudeMeters>
            <DistanceMeters>2709.7916137775</DistanceMeters>
          </Trackpoint>
          <Trackpoint>
            <Time>2018-04-30T09:11:48.000Z</Time>
            <Position>
              <LatitudeDegrees>42.70221867598593235015869140625</LatitudeDegrees>
              <LongitudeDegrees>1.252952031791210174560546875</LongitudeDegrees>
            </Position>
            <AltitudeMeters>2225.800048828125</AltitudeMeters>
            <DistanceMeters>2720.7539245428</DistanceMeters>
          </Trackpoint>
          <Trackpoint>
            <Time>2018-04-30T09:11:53.000Z</Time>
            <Position>
              <LatitudeDegrees>42.70229034125804901123046875</LatitudeDegrees>
              <LongitudeDegrees>1.25322938896715641021728515625</LongitudeDegrees>
            </Position>
            <AltitudeMeters>2223.60009765625</AltitudeMeters>
            <DistanceMeters>2744.8018798743</DistanceMeters>
          </Trackpoint>
          <Trackpoint>
            <Time>2018-04-30T09:12:55.000Z</Time>
            <Position>
              <LatitudeDegrees>42.70226930268108844757080078125</LatitudeDegrees>
              <LongitudeDegrees>1.2532204203307628631591796875</LongitudeDegrees>
            </Position>
            <AltitudeMeters>2224</AltitudeMeters>
            <DistanceMeters>2747.2542319925</DistanceMeters>
          </Trackpoint>
          <Trackpoint>
            <Time>2018-04-30T09:13:47.000Z</Time>
            <Position>
              <LatitudeDegrees>42.7022881619632244110107421875</LatitudeDegrees>
              <LongitudeDegrees>1.25322519801557064056396484375</LongitudeDegrees>
            </Position>
            <AltitudeMeters>2224.199951171875</AltitudeMeters>
            <DistanceMeters>2749.3918050745</DistanceMeters>
          </Trackpoint>
          <Trackpoint>
            <Time>2018-04-30T09:14:23.000Z</Time>
            <Position>
              <LatitudeDegrees>42.70225547254085540771484375</LatitudeDegrees>
              <LongitudeDegrees>1.253217570483684539794921875</LongitudeDegrees>
            </Position>
            <AltitudeMeters>2224.60009765625</AltitudeMeters>
            <DistanceMeters>2753.0831984908</DistanceMeters>
          </Trackpoint>
          <Trackpoint>
            <Time>2018-04-30T09:14:49.000Z</Time>
            <Position>
              <LatitudeDegrees>42.7022422291338443756103515625</LatitudeDegrees>
              <LongitudeDegrees>1.25322838313877582550048828125</LongitudeDegrees>
            </Position>
            <AltitudeMeters>2224.199951171875</AltitudeMeters>
            <DistanceMeters>2754.7989504894</DistanceMeters>
          </Trackpoint>
          <Trackpoint>
            <Time>2018-04-30T09:15:13.000Z</Time>
            <Position>
              <LatitudeDegrees>42.7022740803658962249755859375</LatitudeDegrees>
              <LongitudeDegrees>1.2532267905771732330322265625</LongitudeDegrees>
            </Position>
            <AltitudeMeters>2224</AltitudeMeters>
            <DistanceMeters>2758.3468972988</DistanceMeters>
          </Trackpoint>
          <Trackpoint>
            <Time>2018-04-30T09:15:42.000Z</Time>
            <Position>
              <LatitudeDegrees>42.70239620469510555267333984375</LatitudeDegrees>
              <LongitudeDegrees>1.25332024879753589630126953125</LongitudeDegrees>
            </Position>
            <AltitudeMeters>2226.199951171875</AltitudeMeters>
            <DistanceMeters>2773.9422837622</DistanceMeters>
          </Trackpoint>
          <Trackpoint>
            <Time>2018-04-30T09:16:00.000Z</Time>
            <Position>
              <LatitudeDegrees>42.70255227573215961456298828125</LatitudeDegrees>
              <LongitudeDegrees>1.25336802564561367034912109375</LongitudeDegrees>
            </Position>
            <AltitudeMeters>2229.39990234375</AltitudeMeters>
            <DistanceMeters>2791.7473081575</DistanceMeters>
          </Trackpoint>
          <Trackpoint>
            <Time>2018-04-30T09:16:20.000Z</Time>
            <Position>
              <LatitudeDegrees>42.702703066170215606689453125</LatitudeDegrees>
              <LongitudeDegrees>1.25348738394677639007568359375</LongitudeDegrees>
            </Position>
            <AltitudeMeters>2231.800048828125</AltitudeMeters>
            <DistanceMeters>2811.1637100245</DistanceMeters>
          </Trackpoint>
          <Trackpoint>
            <Time>2018-04-30T09:16:21.000Z</Time>
            <Position>
              <LatitudeDegrees>42.70271035842597484588623046875</LatitudeDegrees>
              <LongitudeDegrees>1.25349082052707672119140625</LongitudeDegrees>
            </Position>
            <AltitudeMeters>2231.800048828125</AltitudeMeters>
            <DistanceMeters>2812.029444594</DistanceMeters>
          </Trackpoint>
          <Trackpoint>
            <Time>2018-04-30T09:16:22.000Z</Time>
            <Position>
              <LatitudeDegrees>42.7027179859578609466552734375</LatitudeDegrees>
              <LongitudeDegrees>1.253495179116725921630859375</LongitudeDegrees>
            </Position>
            <AltitudeMeters>2232</AltitudeMeters>
            <DistanceMeters>2812.9556504362</DistanceMeters>
          </Trackpoint>
          <Trackpoint>
            <Time>2018-04-30T09:16:23.000Z</Time>
            <Position>
              <LatitudeDegrees>42.70272561348974704742431640625</LatitudeDegrees>
              <LongitudeDegrees>1.253497190773487091064453125</LongitudeDegrees>
            </Position>
            <AltitudeMeters>2232.199951171875</AltitudeMeters>
            <DistanceMeters>2813.8213850057</DistanceMeters>
          </Trackpoint>
          <Trackpoint>
            <Time>2018-04-30T09:16:24.000Z</Time>
            <Position>
              <LatitudeDegrees>42.70273114554584026336669921875</LatitudeDegrees>
              <LongitudeDegrees>1.2535022199153900146484375</LongitudeDegrees>
            </Position>
            <AltitudeMeters>2232.39990234375</AltitudeMeters>
            <DistanceMeters>2814.5635673708</DistanceMeters>
          </Trackpoint>
          <Trackpoint>
            <Time>2018-04-30T09:16:25.000Z</Time>
            <Position>
              <LatitudeDegrees>42.7027397789061069488525390625</LatitudeDegrees>
              <LongitudeDegrees>1.253506243228912353515625</LongitudeDegrees>
            </Position>
            <AltitudeMeters>2232.60009765625</AltitudeMeters>
            <DistanceMeters>2815.5781750362</DistanceMeters>
          </Trackpoint>
          <Trackpoint>
            <Time>2018-04-30T09:16:33.000Z</Time>
            <Position>
              <LatitudeDegrees>42.70278361625969409942626953125</LatitudeDegrees>
              <LongitudeDegrees>1.25353180803358554840087890625</LongitudeDegrees>
            </Position>
            <AltitudeMeters>2234.60009765625</AltitudeMeters>
            <DistanceMeters>2820.8869289937</DistanceMeters>
          </Trackpoint>
          <Trackpoint>
            <Time>2018-04-30T09:16:34.000Z</Time>
            <Position>
              <LatitudeDegrees>42.702792249619960784912109375</LatitudeDegrees>
              <LongitudeDegrees>1.25353465788066387176513671875</LongitudeDegrees>
            </Position>
            <AltitudeMeters>2235</AltitudeMeters>
            <DistanceMeters>2821.8744755779</DistanceMeters>
          </Trackpoint>
          <Trackpoint>
            <Time>2018-04-30T09:16:47.000Z</Time>
            <Position>
              <LatitudeDegrees>42.7028933353722095489501953125</LatitudeDegrees>
              <LongitudeDegrees>1.2535665929317474365234375</LongitudeDegrees>
            </Position>
            <AltitudeMeters>2238.199951171875</AltitudeMeters>
            <DistanceMeters>2833.4248153731</DistanceMeters>
          </Trackpoint>
          <Trackpoint>
            <Time>2018-04-30T09:17:00.000Z</Time>
            <Position>
              <LatitudeDegrees>42.70296935923397541046142578125</LatitudeDegrees>
              <LongitudeDegrees>1.2535882182419300079345703125</LongitudeDegrees>
            </Position>
            <AltitudeMeters>2241.199951171875</AltitudeMeters>
            <DistanceMeters>2842.0696353625</DistanceMeters>
          </Trackpoint>
          <Trackpoint>
            <Time>2018-04-30T09:17:20.000Z</Time>
            <Position>
              <LatitudeDegrees>42.7031038887798786163330078125</LatitudeDegrees>
              <LongitudeDegrees>1.25364596955478191375732421875</LongitudeDegrees>
            </Position>
            <AltitudeMeters>2244</AltitudeMeters>
            <DistanceMeters>2857.770337794</DistanceMeters>
          </Trackpoint>
          <Trackpoint>
            <Time>2018-04-30T09:17:25.000Z</Time>
            <Position>
              <LatitudeDegrees>42.7031297050416469573974609375</LatitudeDegrees>
              <LongitudeDegrees>1.25367178581655025482177734375</LongitudeDegrees>
            </Position>
            <AltitudeMeters>2244.800048828125</AltitudeMeters>
            <DistanceMeters>2861.337322194</DistanceMeters>
          </Trackpoint>
          <Trackpoint>
            <Time>2018-04-30T09:18:41.000Z</Time>
            <Position>
              <LatitudeDegrees>42.70319868810474872589111328125</LatitudeDegrees>
              <LongitudeDegrees>1.2537263520061969757080078125</LongitudeDegrees>
            </Position>
            <AltitudeMeters>2246.800048828125</AltitudeMeters>
            <DistanceMeters>2870.218126643</DistanceMeters>
          </Trackpoint>
          <Trackpoint>
            <Time>2018-04-30T09:18:52.000Z</Time>
            <Position>
              <LatitudeDegrees>42.70320740528404712677001953125</LatitudeDegrees>
              <LongitudeDegrees>1.25375711359083652496337890625</LongitudeDegrees>
            </Position>
            <AltitudeMeters>2246</AltitudeMeters>
            <DistanceMeters>2872.9125990331</DistanceMeters>
          </Trackpoint>
          <Trackpoint>
            <Time>2018-04-30T09:18:58.000Z</Time>
            <Position>
              <LatitudeDegrees>42.70324110053479671478271484375</LatitudeDegrees>
              <LongitudeDegrees>1.2537947483360767364501953125</LongitudeDegrees>
            </Position>
            <AltitudeMeters>2245.800048828125</AltitudeMeters>
            <DistanceMeters>2877.7636174017</DistanceMeters>
          </Trackpoint>
          <Trackpoint>
            <Time>2018-04-30T09:18:59.000Z</Time>
            <Position>
              <LatitudeDegrees>42.703244872391223907470703125</LatitudeDegrees>
              <LongitudeDegrees>1.2538034655153751373291015625</LongitudeDegrees>
            </Position>
            <AltitudeMeters>2245.800048828125</AltitudeMeters>
            <DistanceMeters>2878.5920410915</DistanceMeters>
          </Trackpoint>
          <Trackpoint>
            <Time>2018-04-30T09:19:17.000Z</Time>
            <Position>
              <LatitudeDegrees>42.7033942379057407379150390625</LatitudeDegrees>
              <LongitudeDegrees>1.25395928509533405303955078125</LongitudeDegrees>
            </Position>
            <AltitudeMeters>2245.800048828125</AltitudeMeters>
            <DistanceMeters>2899.5399900315</DistanceMeters>
          </Trackpoint>
          <Trackpoint>
            <Time>2018-04-30T09:19:34.000Z</Time>
            <Position>
              <LatitudeDegrees>42.7035208046436309814453125</LatitudeDegrees>
              <LongitudeDegrees>1.2541434355080127716064453125</LongitudeDegrees>
            </Position>
            <AltitudeMeters>2245.60009765625</AltitudeMeters>
            <DistanceMeters>2920.1631954204</DistanceMeters>
          </Trackpoint>
          <Trackpoint>
            <Time>2018-04-30T09:19:51.000Z</Time>
            <Position>
              <LatitudeDegrees>42.70349808968603610992431640625</LatitudeDegrees>
              <LongitudeDegrees>1.254350133240222930908203125</LongitudeDegrees>
            </Position>
            <AltitudeMeters>2247.39990234375</AltitudeMeters>
            <DistanceMeters>2937.2574422223</DistanceMeters>
          </Trackpoint>
          <Trackpoint>
            <Time>2018-04-30T09:19:52.000Z</Time>
            <Position>
              <LatitudeDegrees>42.70349171943962574005126953125</LatitudeDegrees>
              <LongitudeDegrees>1.25435943715274333953857421875</LongitudeDegrees>
            </Position>
            <AltitudeMeters>2247.60009765625</AltitudeMeters>
            <DistanceMeters>2938.2984077229</DistanceMeters>
          </Trackpoint>
          <Trackpoint>
            <Time>2018-04-30T09:19:55.000Z</Time>
            <Position>
              <LatitudeDegrees>42.70348249934613704681396484375</LatitudeDegrees>
              <LongitudeDegrees>1.25438927672803401947021484375</LongitudeDegrees>
            </Position>
            <AltitudeMeters>2248.39990234375</AltitudeMeters>
            <DistanceMeters>2940.9455456718</DistanceMeters>
          </Trackpoint>
          <Trackpoint>
            <Time>2018-04-30T09:19:56.000Z</Time>
            <Position>
              <LatitudeDegrees>42.70347998477518558502197265625</LatitudeDegrees>
              <LongitudeDegrees>1.25440101139247417449951171875</LongitudeDegrees>
            </Position>
            <AltitudeMeters>2248.60009765625</AltitudeMeters>
            <DistanceMeters>2941.9421942602</DistanceMeters>
          </Trackpoint>
          <Trackpoint>
            <Time>2018-04-30T09:20:03.000Z</Time>
            <Position>
              <LatitudeDegrees>42.70346917212009429931640625</LatitudeDegrees>
              <LongitudeDegrees>1.25448382459580898284912109375</LongitudeDegrees>
            </Position>
            <AltitudeMeters>2249.800048828125</AltitudeMeters>
            <DistanceMeters>2948.8216296035</DistanceMeters>
          </Trackpoint>
          <Trackpoint>
            <Time>2018-04-30T09:20:04.000Z</Time>
            <Position>
              <LatitudeDegrees>42.7034669928252696990966796875</LatitudeDegrees>
              <LongitudeDegrees>1.254494301974773406982421875</LongitudeDegrees>
            </Position>
            <AltitudeMeters>2250</AltitudeMeters>
            <DistanceMeters>2949.7130592009</DistanceMeters>
          </Trackpoint>
          <Trackpoint>
            <Time>2018-04-30T09:20:09.000Z</Time>
            <Position>
              <LatitudeDegrees>42.7034612931311130523681640625</LatitudeDegrees>
              <LongitudeDegrees>1.25454233027994632720947265625</LongitudeDegrees>
            </Position>
            <AltitudeMeters>2251</AltitudeMeters>
            <DistanceMeters>2953.692852422</DistanceMeters>
          </Trackpoint>
          <Trackpoint>
            <Time>2018-04-30T09:20:10.000Z</Time>
            <Position>
              <LatitudeDegrees>42.70346120931208133697509765625</LatitudeDegrees>
              <LongitudeDegrees>1.25455473549664020538330078125</LongitudeDegrees>
            </Position>
            <AltitudeMeters>2251.39990234375</AltitudeMeters>
            <DistanceMeters>2954.7074600873</DistanceMeters>
          </Trackpoint>
          <Trackpoint>
            <Time>2018-04-30T09:20:12.000Z</Time>
            <Position>
              <LatitudeDegrees>42.703456766903400421142578125</LatitudeDegrees>
              <LongitudeDegrees>1.25457636080682277679443359375</LongitudeDegrees>
            </Position>
            <AltitudeMeters>2252.199951171875</AltitudeMeters>
            <DistanceMeters>2956.5451892812</DistanceMeters>
          </Trackpoint>
          <Trackpoint>
            <Time>2018-04-30T09:20:13.000Z</Time>
            <Position>
              <LatitudeDegrees>42.70345718599855899810791015625</LatitudeDegrees>
              <LongitudeDegrees>1.25458742491900920867919921875</LongitudeDegrees>
            </Position>
            <AltitudeMeters>2252.39990234375</AltitudeMeters>
            <DistanceMeters>2957.4566535059</DistanceMeters>
          </Trackpoint>
          <Trackpoint>
            <Time>2018-04-30T09:20:14.000Z</Time>
            <Position>
              <LatitudeDegrees>42.70345366559922695159912109375</LatitudeDegrees>
              <LongitudeDegrees>1.2545977346599102020263671875</LongitudeDegrees>
            </Position>
            <AltitudeMeters>2252.39990234375</AltitudeMeters>
            <DistanceMeters>2958.3877213544</DistanceMeters>
          </Trackpoint>
          <Trackpoint>
            <Time>2018-04-30T09:20:35.000Z</Time>
            <Position>
              <LatitudeDegrees>42.70339398644864559173583984375</LatitudeDegrees>
              <LongitudeDegrees>1.2548180110752582550048828125</LongitudeDegrees>
            </Position>
            <AltitudeMeters>2255.39990234375</AltitudeMeters>
            <DistanceMeters>2977.5901727998</DistanceMeters>
          </Trackpoint>
          <Trackpoint>
            <Time>2018-04-30T09:20:56.000Z</Time>
            <Position>
              <LatitudeDegrees>42.70336590707302093505859375</LatitudeDegrees>
              <LongitudeDegrees>1.25507994554936885833740234375</LongitudeDegrees>
            </Position>
            <AltitudeMeters>2258</AltitudeMeters>
            <DistanceMeters>2999.2416713279</DistanceMeters>
          </Trackpoint>
          <Trackpoint>
            <Time>2018-04-30T09:21:01.000Z</Time>
            <Position>
              <LatitudeDegrees>42.70334688015282154083251953125</LatitudeDegrees>
              <LongitudeDegrees>1.25513903796672821044921875</LongitudeDegrees>
            </Position>
            <AltitudeMeters>2258.60009765625</AltitudeMeters>
            <DistanceMeters>3004.5188633609</DistanceMeters>
          </Trackpoint>
          <Trackpoint>
            <Time>2018-04-30T09:21:02.000Z</Time>
            <Position>
              <LatitudeDegrees>42.703344784677028656005859375</LatitudeDegrees>
              <LongitudeDegrees>1.25515437684953212738037109375</LongitudeDegrees>
            </Position>
            <AltitudeMeters>2258.800048828125</AltitudeMeters>
            <DistanceMeters>3005.793780519</DistanceMeters>
          </Trackpoint>
          <Trackpoint>
            <Time>2018-04-30T09:21:20.000Z</Time>
            <Position>
              <LatitudeDegrees>42.703222744166851043701171875</LatitudeDegrees>
              <LongitudeDegrees>1.25534699298441410064697265625</LongitudeDegrees>
            </Position>
            <AltitudeMeters>2259.199951171875</AltitudeMeters>
            <DistanceMeters>3026.5957338695</DistanceMeters>
          </Trackpoint>
          <Trackpoint>
            <Time>2018-04-30T09:21:24.000Z</Time>
            <Position>
              <LatitudeDegrees>42.70318611524999141693115234375</LatitudeDegrees>
              <LongitudeDegrees>1.2553826160728931427001953125</LongitudeDegrees>
            </Position>
            <AltitudeMeters>2258.800048828125</AltitudeMeters>
            <DistanceMeters>3031.6060844075</DistanceMeters>
          </Trackpoint>
          <Trackpoint>
            <Time>2018-04-30T09:21:25.000Z</Time>
            <Position>
              <LatitudeDegrees>42.70317940972745418548583984375</LatitudeDegrees>
              <LongitudeDegrees>1.25539057888090610504150390625</LongitudeDegrees>
            </Position>
            <AltitudeMeters>2259</AltitudeMeters>
            <DistanceMeters>3032.5936309917</DistanceMeters>
          </Trackpoint>
          <Trackpoint>
            <Time>2018-04-30T09:21:47.000Z</Time>
            <Position>
              <LatitudeDegrees>42.7030810900032520294189453125</LatitudeDegrees>
              <LongitudeDegrees>1.25560750253498554229736328125</LongitudeDegrees>
            </Position>
            <AltitudeMeters>2262.199951171875</AltitudeMeters>
            <DistanceMeters>3053.4398152658</DistanceMeters>
          </Trackpoint>
          <Trackpoint>
            <Time>2018-04-30T09:22:09.000Z</Time>
            <Position>
              <LatitudeDegrees>42.7029868774116039276123046875</LatitudeDegrees>
              <LongitudeDegrees>1.25582844950258731842041015625</LongitudeDegrees>
            </Position>
            <AltitudeMeters>2264.60009765625</AltitudeMeters>
            <DistanceMeters>3074.3338107114</DistanceMeters>
          </Trackpoint>
          <Trackpoint>
            <Time>2018-04-30T09:22:31.000Z</Time>
            <Position>
              <LatitudeDegrees>42.7029025554656982421875</LatitudeDegrees>
              <LongitudeDegrees>1.25605006702244281768798828125</LongitudeDegrees>
            </Position>
            <AltitudeMeters>2267.800048828125</AltitudeMeters>
            <DistanceMeters>3094.7464248839</DistanceMeters>
          </Trackpoint>
          <Trackpoint>
            <Time>2018-04-30T09:22:51.000Z</Time>
            <Position>
              <LatitudeDegrees>42.702831141650676727294921875</LatitudeDegrees>
              <LongitudeDegrees>1.25626246444880962371826171875</LongitudeDegrees>
            </Position>
            <AltitudeMeters>2270.800048828125</AltitudeMeters>
            <DistanceMeters>3113.851048926</DistanceMeters>
          </Trackpoint>
          <Trackpoint>
            <Time>2018-04-30T09:23:01.000Z</Time>
            <Position>
              <LatitudeDegrees>42.70279593765735626220703125</LatitudeDegrees>
              <LongitudeDegrees>1.25636019743978977203369140625</LongitudeDegrees>
            </Position>
            <AltitudeMeters>2272.39990234375</AltitudeMeters>
            <DistanceMeters>3122.7531807421</DistanceMeters>
          </Trackpoint>
          <Trackpoint>
            <Time>2018-04-30T09:23:03.000Z</Time>
            <Position>
              <LatitudeDegrees>42.70279048942029476165771484375</LatitudeDegrees>
              <LongitudeDegrees>1.25638090074062347412109375</LongitudeDegrees>
            </Position>
            <AltitudeMeters>2272.60009765625</AltitudeMeters>
            <DistanceMeters>3124.5536799627</DistanceMeters>
          </Trackpoint>
          <Trackpoint>
            <Time>2018-04-30T09:23:21.000Z</Time>
            <Position>
              <LatitudeDegrees>42.7027241885662078857421875</LatitudeDegrees>
              <LongitudeDegrees>1.2565493769943714141845703125</LongitudeDegrees>
            </Position>
            <AltitudeMeters>2275.800048828125</AltitudeMeters>
            <DistanceMeters>3140.1855022677</DistanceMeters>
          </Trackpoint>
          <Trackpoint>
            <Time>2018-04-30T09:23:46.000Z</Time>
            <Position>
              <LatitudeDegrees>42.7026410400867462158203125</LatitudeDegrees>
              <LongitudeDegrees>1.256780214607715606689453125</LongitudeDegrees>
            </Position>
            <AltitudeMeters>2277.39990234375</AltitudeMeters>
            <DistanceMeters>3161.212833601</DistanceMeters>
          </Trackpoint>
          <Trackpoint>
            <Time>2018-04-30T09:24:05.000Z</Time>
            <Position>
              <LatitudeDegrees>42.70263927988708019256591796875</LatitudeDegrees>
              <LongitudeDegrees>1.25683980993926525115966796875</LongitudeDegrees>
            </Position>
            <AltitudeMeters>2278.60009765625</AltitudeMeters>
            <DistanceMeters>3166.0916942781</DistanceMeters>
          </Trackpoint>
          <Trackpoint>
            <Time>2018-04-30T09:24:11.000Z</Time>
            <Position>
              <LatitudeDegrees>42.702634334564208984375</LatitudeDegrees>
              <LongitudeDegrees>1.25691172666847705841064453125</LongitudeDegrees>
            </Position>
            <AltitudeMeters>2276.800048828125</AltitudeMeters>
            <DistanceMeters>3171.9994218832</DistanceMeters>
          </Trackpoint>
          <Trackpoint>
            <Time>2018-04-30T09:24:45.000Z</Time>
            <Position>
              <LatitudeDegrees>42.702622599899768829345703125</LatitudeDegrees>
              <LongitudeDegrees>1.25694910995662212371826171875</LongitudeDegrees>
            </Position>
            <AltitudeMeters>2276.39990234375</AltitudeMeters>
            <DistanceMeters>3175.3239990845</DistanceMeters>
          </Trackpoint>
          <Trackpoint>
            <Time>2018-04-30T09:24:57.000Z</Time>
            <Position>
              <LatitudeDegrees>42.70264430902898311614990234375</LatitudeDegrees>
              <LongitudeDegrees>1.25695564784109592437744140625</LongitudeDegrees>
            </Position>
            <AltitudeMeters>2276.199951171875</AltitudeMeters>
            <DistanceMeters>3177.8001698995</DistanceMeters>
          </Trackpoint>
          <Trackpoint>
            <Time>2018-04-30T09:25:07.000Z</Time>
            <Position>
              <LatitudeDegrees>42.7026432193815708160400390625</LatitudeDegrees>
              <LongitudeDegrees>1.256955564022064208984375</LongitudeDegrees>
            </Position>
            <AltitudeMeters>2275.800048828125</AltitudeMeters>
            <DistanceMeters>3177.9345579678</DistanceMeters>
          </Trackpoint>
          <Trackpoint>
            <Time>2018-04-30T09:25:19.000Z</Time>
            <Position>
              <LatitudeDegrees>42.70263106562197208404541015625</LatitudeDegrees>
              <LongitudeDegrees>1.2569540552794933319091796875</LongitudeDegrees>
            </Position>
            <AltitudeMeters>2276</AltitudeMeters>
            <DistanceMeters>3179.2951334604</DistanceMeters>
          </Trackpoint>
          <Trackpoint>
            <Time>2018-04-30T09:25:44.000Z</Time>
            <Position>
              <LatitudeDegrees>42.70263969898223876953125</LatitudeDegrees>
              <LongitudeDegrees>1.25696453265845775604248046875</LongitudeDegrees>
            </Position>
            <AltitudeMeters>2277.800048828125</AltitudeMeters>
            <DistanceMeters>3180.5841385285</DistanceMeters>
          </Trackpoint>
          <Trackpoint>
            <Time>2018-04-30T09:25:56.000Z</Time>
            <Position>
              <LatitudeDegrees>42.70264011807739734649658203125</LatitudeDegrees>
              <LongitudeDegrees>1.25696294009685516357421875</LongitudeDegrees>
            </Position>
            <AltitudeMeters>2277.800048828125</AltitudeMeters>
            <DistanceMeters>3180.7487296259</DistanceMeters>
          </Trackpoint>
          <Trackpoint>
            <Time>2018-04-30T09:27:47.000Z</Time>
            <Position>
              <LatitudeDegrees>42.70265788771212100982666015625</LatitudeDegrees>
              <LongitudeDegrees>1.256976686418056488037109375</LongitudeDegrees>
            </Position>
            <AltitudeMeters>2277.39990234375</AltitudeMeters>
            <DistanceMeters>3183.0254078813</DistanceMeters>
          </Trackpoint>
          <Trackpoint>
            <Time>2018-04-30T09:28:57.000Z</Time>
            <Position>
              <LatitudeDegrees>42.70265922881662845611572265625</LatitudeDegrees>
              <LongitudeDegrees>1.25694072805345058441162109375</LongitudeDegrees>
            </Position>
            <AltitudeMeters>2277.60009765625</AltitudeMeters>
            <DistanceMeters>3185.9697029389</DistanceMeters>
          </Trackpoint>
          <Trackpoint>
            <Time>2018-04-30T09:28:58.000Z</Time>
            <Position>
              <LatitudeDegrees>42.70265000872313976287841796875</LatitudeDegrees>
              <LongitudeDegrees>1.25694173388183116912841796875</LongitudeDegrees>
            </Position>
            <AltitudeMeters>2277.800048828125</AltitudeMeters>
            <DistanceMeters>3186.9931719749</DistanceMeters>
          </Trackpoint>
          <Trackpoint>
            <Time>2018-04-30T09:29:25.000Z</Time>
            <Position>
              <LatitudeDegrees>42.70263508893549442291259765625</LatitudeDegrees>
              <LongitudeDegrees>1.256990768015384674072265625</LongitudeDegrees>
            </Position>
            <AltitudeMeters>2277</AltitudeMeters>
            <DistanceMeters>3191.3333032473</DistanceMeters>
          </Trackpoint>
          <Trackpoint>
            <Time>2018-04-30T09:29:26.000Z</Time>
            <Position>
              <LatitudeDegrees>42.70262427628040313720703125</LatitudeDegrees>
              <LongitudeDegrees>1.2570147402584552764892578125</LongitudeDegrees>
            </Position>
            <AltitudeMeters>2276.60009765625</AltitudeMeters>
            <DistanceMeters>3193.6336564367</DistanceMeters>
          </Trackpoint>
          <Trackpoint>
            <Time>2018-04-30T09:29:27.000Z</Time>
            <Position>
              <LatitudeDegrees>42.70260793156921863555908203125</LatitudeDegrees>
              <LongitudeDegrees>1.257057823240756988525390625</LongitudeDegrees>
            </Position>
            <AltitudeMeters>2276.39990234375</AltitudeMeters>
            <DistanceMeters>3197.5998124051</DistanceMeters>
          </Trackpoint>
          <Trackpoint>
            <Time>2018-04-30T09:29:28.000Z</Time>
            <Position>
              <LatitudeDegrees>42.70258806645870208740234375</LatitudeDegrees>
              <LongitudeDegrees>1.2571220286190509796142578125</LongitudeDegrees>
            </Position>
            <AltitudeMeters>2275.800048828125</AltitudeMeters>
            <DistanceMeters>3203.2982468298</DistanceMeters>
          </Trackpoint>
          <Trackpoint>
            <Time>2018-04-30T09:29:29.000Z</Time>
            <Position>
              <LatitudeDegrees>42.70257993601262569427490234375</LatitudeDegrees>
              <LongitudeDegrees>1.25719184987246990203857421875</LongitudeDegrees>
            </Position>
            <AltitudeMeters>2274.39990234375</AltitudeMeters>
            <DistanceMeters>3209.0800582238</DistanceMeters>
          </Trackpoint>
          <Trackpoint>
            <Time>2018-04-30T09:29:30.000Z</Time>
            <Position>
              <LatitudeDegrees>42.70257021300494670867919921875</LatitudeDegrees>
              <LongitudeDegrees>1.25726091675460338592529296875</LongitudeDegrees>
            </Position>
            <AltitudeMeters>2273.199951171875</AltitudeMeters>
            <DistanceMeters>3214.8313337357</DistanceMeters>
          </Trackpoint>
          <Trackpoint>
            <Time>2018-04-30T09:29:31.000Z</Time>
            <Position>
              <LatitudeDegrees>42.7025449834764003753662109375</LatitudeDegrees>
              <LongitudeDegrees>1.257338114082813262939453125</LongitudeDegrees>
            </Position>
            <AltitudeMeters>2272.199951171875</AltitudeMeters>
            <DistanceMeters>3221.7415467741</DistanceMeters>
          </Trackpoint>
          <Trackpoint>
            <Time>2018-04-30T09:29:32.000Z</Time>
            <Position>
              <LatitudeDegrees>42.7025285549461841583251953125</LatitudeDegrees>
              <LongitudeDegrees>1.25743442215025424957275390625</LongitudeDegrees>
            </Position>
            <AltitudeMeters>2270.199951171875</AltitudeMeters>
            <DistanceMeters>3229.8283145837</DistanceMeters>
          </Trackpoint>
          <Trackpoint>
            <Time>2018-04-30T09:29:33.000Z</Time>
            <Position>
              <LatitudeDegrees>42.7024876512587070465087890625</LatitudeDegrees>
              <LongitudeDegrees>1.25754506327211856842041015625</LongitudeDegrees>
            </Position>
            <AltitudeMeters>2266.800048828125</AltitudeMeters>
            <DistanceMeters>3239.9592498249</DistanceMeters>
          </Trackpoint>
          <Trackpoint>
            <Time>2018-04-30T09:29:34.000Z</Time>
            <Position>
              <LatitudeDegrees>42.70244012586772441864013671875</LatitudeDegrees>
              <LongitudeDegrees>1.2576527707278728485107421875</LongitudeDegrees>
            </Position>
            <AltitudeMeters>2264.39990234375</AltitudeMeters>
            <DistanceMeters>3250.2353246561</DistanceMeters>
          </Trackpoint>
          <Trackpoint>
            <Time>2018-04-30T09:29:35.000Z</Time>
            <Position>
              <LatitudeDegrees>42.7024055086076259613037109375</LatitudeDegrees>
              <LongitudeDegrees>1.2577669322490692138671875</LongitudeDegrees>
            </Position>
            <AltitudeMeters>2261.800048828125</AltitudeMeters>
            <DistanceMeters>3260.3368029547</DistanceMeters>
          </Trackpoint>
          <Trackpoint>
            <Time>2018-04-30T09:29:36.000Z</Time>
            <Position>
              <LatitudeDegrees>42.70236301235854625701904296875</LatitudeDegrees>
              <LongitudeDegrees>1.25787782482802867889404296875</LongitudeDegrees>
            </Position>
            <AltitudeMeters>2259</AltitudeMeters>
            <DistanceMeters>3270.5661981388</DistanceMeters>
          </Trackpoint>
          <Trackpoint>
            <Time>2018-04-30T09:29:37.000Z</Time>
            <Position>
              <LatitudeDegrees>42.70231992937624454498291015625</LatitudeDegrees>
              <LongitudeDegrees>1.25798243097960948944091796875</LongitudeDegrees>
            </Position>
            <AltitudeMeters>2256.800048828125</AltitudeMeters>
            <DistanceMeters>3280.3746860158</DistanceMeters>
          </Trackpoint>
          <Trackpoint>
            <Time>2018-04-30T09:29:38.000Z</Time>
            <Position>
              <LatitudeDegrees>42.70230710506439208984375</LatitudeDegrees>
              <LongitudeDegrees>1.25808678567409515380859375</LongitudeDegrees>
            </Position>
            <AltitudeMeters>2256</AltitudeMeters>
            <DistanceMeters>3289.0289019841</DistanceMeters>
          </Trackpoint>
          <Trackpoint>
            <Time>2018-04-30T09:29:39.000Z</Time>
            <Position>
              <LatitudeDegrees>42.702304422855377197265625</LatitudeDegrees>
              <LongitudeDegrees>1.25820404849946498870849609375</LongitudeDegrees>
            </Position>
            <AltitudeMeters>2254.800048828125</AltitudeMeters>
            <DistanceMeters>3298.6251887439</DistanceMeters>
          </Trackpoint>
          <Trackpoint>
            <Time>2018-04-30T09:29:40.000Z</Time>
            <Position>
              <LatitudeDegrees>42.70231087692081928253173828125</LatitudeDegrees>
              <LongitudeDegrees>1.25832156278192996978759765625</LongitudeDegrees>
            </Position>
            <AltitudeMeters>2252.800048828125</AltitudeMeters>
            <DistanceMeters>3308.2637273497</DistanceMeters>
          </Trackpoint>
          <Trackpoint>
            <Time>2018-04-30T09:29:41.000Z</Time>
            <Position>
              <LatitudeDegrees>42.702336274087429046630859375</LatitudeDegrees>
              <LongitudeDegrees>1.25843304209411144256591796875</LongitudeDegrees>
            </Position>
            <AltitudeMeters>2250.60009765625</AltitudeMeters>
            <DistanceMeters>3317.8100109969</DistanceMeters>
          </Trackpoint>
          <Trackpoint>
            <Time>2018-04-30T09:29:42.000Z</Time>
            <Position>
              <LatitudeDegrees>42.70234490744769573211669921875</LatitudeDegrees>
              <LongitudeDegrees>1.2585452757775783538818359375</LongitudeDegrees>
            </Position>
            <AltitudeMeters>2247.199951171875</AltitudeMeters>
            <DistanceMeters>3327.0398398779</DistanceMeters>
          </Trackpoint>
          <Trackpoint>
            <Time>2018-04-30T09:29:43.000Z</Time>
            <Position>
              <LatitudeDegrees>42.70233132876455783843994140625</LatitudeDegrees>
              <LongitudeDegrees>1.25865130685269832611083984375</LongitudeDegrees>
            </Position>
            <AltitudeMeters>2246</AltitudeMeters>
            <DistanceMeters>3335.8430277119</DistanceMeters>
          </Trackpoint>
          <Trackpoint>
            <Time>2018-04-30T09:29:44.000Z</Time>
            <Position>
              <LatitudeDegrees>42.70231783390045166015625</LatitudeDegrees>
              <LongitudeDegrees>1.25873948447406291961669921875</LongitudeDegrees>
            </Position>
            <AltitudeMeters>2245.199951171875</AltitudeMeters>
            <DistanceMeters>3343.2111224169</DistanceMeters>
          </Trackpoint>
          <Trackpoint>
            <Time>2018-04-30T09:29:45.000Z</Time>
            <Position>
              <LatitudeDegrees>42.70232680253684520721435546875</LatitudeDegrees>
              <LongitudeDegrees>1.258805952966213226318359375</LongitudeDegrees>
            </Position>
            <AltitudeMeters>2245</AltitudeMeters>
            <DistanceMeters>3348.7390314869</DistanceMeters>
          </Trackpoint>
          <Trackpoint>
            <Time>2018-04-30T09:29:46.000Z</Time>
            <Position>
              <LatitudeDegrees>42.7023408003151416778564453125</LatitudeDegrees>
              <LongitudeDegrees>1.25887946225702762603759765625</LongitudeDegrees>
            </Position>
            <AltitudeMeters>2244</AltitudeMeters>
            <DistanceMeters>3354.9485746598</DistanceMeters>
          </Trackpoint>
          <Trackpoint>
            <Time>2018-04-30T09:29:48.000Z</Time>
            <Position>
              <LatitudeDegrees>42.7023870684206485748291015625</LatitudeDegrees>
              <LongitudeDegrees>1.25904290936887264251708984375</LongitudeDegrees>
            </Position>
            <AltitudeMeters>2240.800048828125</AltitudeMeters>
            <DistanceMeters>3369.2746200812</DistanceMeters>
          </Trackpoint>
          <Trackpoint>
            <Time>2018-04-30T09:29:50.000Z</Time>
            <Position>
              <LatitudeDegrees>42.7024387009441852569580078125</LatitudeDegrees>
              <LongitudeDegrees>1.25914382748305797576904296875</LongitudeDegrees>
            </Position>
            <AltitudeMeters>2238.199951171875</AltitudeMeters>
            <DistanceMeters>3379.3322001244</DistanceMeters>
          </Trackpoint>
          <Trackpoint>
            <Time>2018-04-30T09:30:15.000Z</Time>
            <Position>
              <LatitudeDegrees>42.70249092020094394683837890625</LatitudeDegrees>
              <LongitudeDegrees>1.2591276504099369049072265625</LongitudeDegrees>
            </Position>
            <AltitudeMeters>2235.199951171875</AltitudeMeters>
            <DistanceMeters>3385.2931858489</DistanceMeters>
          </Trackpoint>
          <Trackpoint>
            <Time>2018-04-30T09:30:51.000Z</Time>
            <Position>
              <LatitudeDegrees>42.70253299735486507415771484375</LatitudeDegrees>
              <LongitudeDegrees>1.25913326628506183624267578125</LongitudeDegrees>
            </Position>
            <AltitudeMeters>2235.39990234375</AltitudeMeters>
            <DistanceMeters>3389.9986876755</DistanceMeters>
          </Trackpoint>
          <Trackpoint>
            <Time>2018-04-30T09:30:58.000Z</Time>
            <Position>
              <LatitudeDegrees>42.70255453884601593017578125</LatitudeDegrees>
              <LongitudeDegrees>1.25914801843464374542236328125</LongitudeDegrees>
            </Position>
            <AltitudeMeters>2235.60009765625</AltitudeMeters>
            <DistanceMeters>3392.6814047545</DistanceMeters>
          </Trackpoint>
          <Trackpoint>
            <Time>2018-04-30T09:30:59.000Z</Time>
            <Position>
              <LatitudeDegrees>42.70256518386304378509521484375</LatitudeDegrees>
              <LongitudeDegrees>1.25915958546102046966552734375</LongitudeDegrees>
            </Position>
            <AltitudeMeters>2235.60009765625</AltitudeMeters>
            <DistanceMeters>3394.1958813693</DistanceMeters>
          </Trackpoint>
          <Trackpoint>
            <Time>2018-04-30T09:31:00.000Z</Time>
            <Position>
              <LatitudeDegrees>42.702586390078067779541015625</LatitudeDegrees>
              <LongitudeDegrees>1.25917282886803150177001953125</LongitudeDegrees>
            </Position>
            <AltitudeMeters>2235.60009765625</AltitudeMeters>
            <DistanceMeters>3396.7913460728</DistanceMeters>
          </Trackpoint>
          <Trackpoint>
            <Time>2018-04-30T09:31:01.000Z</Time>
            <Position>
              <LatitudeDegrees>42.70260239951312541961669921875</LatitudeDegrees>
              <LongitudeDegrees>1.259192191064357757568359375</LongitudeDegrees>
            </Position>
            <AltitudeMeters>2235.39990234375</AltitudeMeters>
            <DistanceMeters>3399.1764976738</DistanceMeters>
          </Trackpoint>
          <Trackpoint>
            <Time>2018-04-30T09:31:02.000Z</Time>
            <Position>
              <LatitudeDegrees>42.702623941004276275634765625</LatitudeDegrees>
              <LongitudeDegrees>1.2592141516506671905517578125</LongitudeDegrees>
            </Position>
            <AltitudeMeters>2235</AltitudeMeters>
            <DistanceMeters>3402.1724776446</DistanceMeters>
          </Trackpoint>
          <Trackpoint>
            <Time>2018-04-30T09:31:03.000Z</Time>
            <Position>
              <LatitudeDegrees>42.70265285857021808624267578125</LatitudeDegrees>
              <LongitudeDegrees>1.25923384912312030792236328125</LongitudeDegrees>
            </Position>
            <AltitudeMeters>2234.800048828125</AltitudeMeters>
            <DistanceMeters>3405.7709675529</DistanceMeters>
          </Trackpoint>
          <Trackpoint>
            <Time>2018-04-30T09:31:04.000Z</Time>
            <Position>
              <LatitudeDegrees>42.70268571563065052032470703125</LatitudeDegrees>
              <LongitudeDegrees>1.25925220549106597900390625</LongitudeDegrees>
            </Position>
            <AltitudeMeters>2234.39990234375</AltitudeMeters>
            <DistanceMeters>3409.7257232219</DistanceMeters>
          </Trackpoint>
          <Trackpoint>
            <Time>2018-04-30T09:31:05.000Z</Time>
            <Position>
              <LatitudeDegrees>42.70271949470043182373046875</LatitudeDegrees>
              <LongitudeDegrees>1.25927408225834369659423828125</LongitudeDegrees>
            </Position>
            <AltitudeMeters>2234.199951171875</AltitudeMeters>
            <DistanceMeters>3413.8895852239</DistanceMeters>
          </Trackpoint>
          <Trackpoint>
            <Time>2018-04-30T09:31:06.000Z</Time>
            <Position>
              <LatitudeDegrees>42.70275570452213287353515625</LatitudeDegrees>
              <LongitudeDegrees>1.25930107198655605316162109375</LongitudeDegrees>
            </Position>
            <AltitudeMeters>2233.39990234375</AltitudeMeters>
            <DistanceMeters>3418.4853820866</DistanceMeters>
          </Trackpoint>
          <Trackpoint>
            <Time>2018-04-30T09:31:07.000Z</Time>
            <Position>
              <LatitudeDegrees>42.70279015414416790008544921875</LatitudeDegrees>
              <LongitudeDegrees>1.2593355216085910797119140625</LongitudeDegrees>
            </Position>
            <AltitudeMeters>2232.39990234375</AltitudeMeters>
            <DistanceMeters>3423.2443138702</DistanceMeters>
          </Trackpoint>
          <Trackpoint>
            <Time>2018-04-30T09:31:08.000Z</Time>
            <Position>
              <LatitudeDegrees>42.70277607254683971405029296875</LatitudeDegrees>
              <LongitudeDegrees>1.259390003979206085205078125</LongitudeDegrees>
            </Position>
            <AltitudeMeters>2231.39990234375</AltitudeMeters>
            <DistanceMeters>3427.9680114572</DistanceMeters>
          </Trackpoint>
          <Trackpoint>
            <Time>2018-04-30T09:31:09.000Z</Time>
            <Position>
              <LatitudeDegrees>42.70277003757655620574951171875</LatitudeDegrees>
              <LongitudeDegrees>1.25945228151977062225341796875</LongitudeDegrees>
            </Position>
            <AltitudeMeters>2230</AltitudeMeters>
            <DistanceMeters>3433.1064882278</DistanceMeters>
          </Trackpoint>
          <Trackpoint>
            <Time>2018-04-30T09:31:10.000Z</Time>
            <Position>
              <LatitudeDegrees>42.702770791947841644287109375</LatitudeDegrees>
              <LongitudeDegrees>1.25952989794313907623291015625</LongitudeDegrees>
            </Position>
            <AltitudeMeters>2227.60009765625</AltitudeMeters>
            <DistanceMeters>3439.456235571</DistanceMeters>
          </Trackpoint>
          <Trackpoint>
            <Time>2018-04-30T09:31:11.000Z</Time>
            <Position>
              <LatitudeDegrees>42.70274857990443706512451171875</LatitudeDegrees>
              <LongitudeDegrees>1.25960416160523891448974609375</LongitudeDegrees>
            </Position>
            <AltitudeMeters>2224.800048828125</AltitudeMeters>
            <DistanceMeters>3446.0144559166</DistanceMeters>
          </Trackpoint>
          <Trackpoint>
            <Time>2018-04-30T09:31:12.000Z</Time>
            <Position>
              <LatitudeDegrees>42.70273181609809398651123046875</LatitudeDegrees>
              <LongitudeDegrees>1.25968194566667079925537109375</LongitudeDegrees>
            </Position>
            <AltitudeMeters>2222</AltitudeMeters>
            <DistanceMeters>3452.6445699526</DistanceMeters>
          </Trackpoint>
          <Trackpoint>
            <Time>2018-04-30T09:31:13.000Z</Time>
            <Position>
              <LatitudeDegrees>42.70276132039725780487060546875</LatitudeDegrees>
              <LongitudeDegrees>1.25976425595581531524658203125</LongitudeDegrees>
            </Position>
            <AltitudeMeters>2218.60009765625</AltitudeMeters>
            <DistanceMeters>3460.1348212799</DistanceMeters>
          </Trackpoint>
          <Trackpoint>
            <Time>2018-04-30T09:31:14.000Z</Time>
            <Position>
              <LatitudeDegrees>42.70279887132346630096435546875</LatitudeDegrees>
              <LongitudeDegrees>1.25982896424829959869384765625</LongitudeDegrees>
            </Position>
            <AltitudeMeters>2215.39990234375</AltitudeMeters>
            <DistanceMeters>3466.878371159</DistanceMeters>
          </Trackpoint>
          <Trackpoint>
            <Time>2018-04-30T09:31:15.000Z</Time>
            <Position>
              <LatitudeDegrees>42.70282820798456668853759765625</LatitudeDegrees>
              <LongitudeDegrees>1.25987003557384014129638671875</LongitudeDegrees>
            </Position>
            <AltitudeMeters>2213.199951171875</AltitudeMeters>
            <DistanceMeters>3471.5627159113</DistanceMeters>
          </Trackpoint>
          <Trackpoint>
            <Time>2018-04-30T09:31:17.000Z</Time>
            <Position>
              <LatitudeDegrees>42.70285486243665218353271484375</LatitudeDegrees>
              <LongitudeDegrees>1.259937845170497894287109375</LongitudeDegrees>
            </Position>
            <AltitudeMeters>2211.60009765625</AltitudeMeters>
            <DistanceMeters>3477.8531685959</DistanceMeters>
          </Trackpoint>
          <Trackpoint>
            <Time>2018-04-30T09:31:18.000Z</Time>
            <Position>
              <LatitudeDegrees>42.70285855047404766082763671875</LatitudeDegrees>
              <LongitudeDegrees>1.25999392010271549224853515625</LongitudeDegrees>
            </Position>
            <AltitudeMeters>2211.39990234375</AltitudeMeters>
            <DistanceMeters>3482.4587792576</DistanceMeters>
          </Trackpoint>
          <Trackpoint>
            <Time>2018-04-30T09:31:22.000Z</Time>
            <Position>
              <LatitudeDegrees>42.7028582990169525146484375</LatitudeDegrees>
              <LongitudeDegrees>1.260391138494014739990234375</LongitudeDegrees>
            </Position>
            <AltitudeMeters>2209.39990234375</AltitudeMeters>
            <DistanceMeters>3514.9487450339</DistanceMeters>
          </Trackpoint>
          <Trackpoint>
            <Time>2018-04-30T09:31:24.000Z</Time>
            <Position>
              <LatitudeDegrees>42.70284564234316349029541015625</LatitudeDegrees>
              <LongitudeDegrees>1.26056171022355556488037109375</LongitudeDegrees>
            </Position>
            <AltitudeMeters>2205.800048828125</AltitudeMeters>
            <DistanceMeters>3528.9715459183</DistanceMeters>
          </Trackpoint>
          <Trackpoint>
            <Time>2018-04-30T09:31:26.000Z</Time>
            <Position>
              <LatitudeDegrees>42.702840529382228851318359375</LatitudeDegrees>
              <LongitudeDegrees>1.26067637465894222259521484375</LongitudeDegrees>
            </Position>
            <AltitudeMeters>2205</AltitudeMeters>
            <DistanceMeters>3538.3671846574</DistanceMeters>
          </Trackpoint>
          <Trackpoint>
            <Time>2018-04-30T09:31:31.000Z</Time>
            <Position>
              <LatitudeDegrees>42.70279887132346630096435546875</LatitudeDegrees>
              <LongitudeDegrees>1.26094400882720947265625</LongitudeDegrees>
            </Position>
            <AltitudeMeters>2202.800048828125</AltitudeMeters>
            <DistanceMeters>3560.7437060301</DistanceMeters>
          </Trackpoint>
          <Trackpoint>
            <Time>2018-04-30T09:31:35.000Z</Time>
            <Position>
              <LatitudeDegrees>42.7027468197047710418701171875</LatitudeDegrees>
              <LongitudeDegrees>1.26126511953771114349365234375</LongitudeDegrees>
            </Position>
            <AltitudeMeters>2199.800048828125</AltitudeMeters>
            <DistanceMeters>3587.6397916919</DistanceMeters>
          </Trackpoint>
          <Trackpoint>
            <Time>2018-04-30T09:31:37.000Z</Time>
            <Position>
              <LatitudeDegrees>42.702688984572887420654296875</LatitudeDegrees>
              <LongitudeDegrees>1.2614618428051471710205078125</LongitudeDegrees>
            </Position>
            <AltitudeMeters>2196.60009765625</AltitudeMeters>
            <DistanceMeters>3604.9701218251</DistanceMeters>
          </Trackpoint>
          <Trackpoint>
            <Time>2018-04-30T09:31:38.000Z</Time>
            <Position>
              <LatitudeDegrees>42.70262050442397594451904296875</LatitudeDegrees>
              <LongitudeDegrees>1.261549182236194610595703125</LongitudeDegrees>
            </Position>
            <AltitudeMeters>2195.60009765625</AltitudeMeters>
            <DistanceMeters>3615.4165793024</DistanceMeters>
          </Trackpoint>
          <Trackpoint>
            <Time>2018-04-30T09:31:41.000Z</Time>
            <Position>
              <LatitudeDegrees>42.7024102024734020233154296875</LatitudeDegrees>
              <LongitudeDegrees>1.26176551915705204010009765625</LongitudeDegrees>
            </Position>
            <AltitudeMeters>2192.60009765625</AltitudeMeters>
            <DistanceMeters>3644.7595300548</DistanceMeters>
          </Trackpoint>
          <Trackpoint>
            <Time>2018-04-30T09:31:45.000Z</Time>
            <Position>
              <LatitudeDegrees>42.70219839178025722503662109375</LatitudeDegrees>
              <LongitudeDegrees>1.26196668483316898345947265625</LongitudeDegrees>
            </Position>
            <AltitudeMeters>2190.39990234375</AltitudeMeters>
            <DistanceMeters>3673.5086842483</DistanceMeters>
          </Trackpoint>
          <Trackpoint>
            <Time>2018-04-30T09:31:46.000Z</Time>
            <Position>
              <LatitudeDegrees>42.7021574042737483978271484375</LatitudeDegrees>
              <LongitudeDegrees>1.26200641505420207977294921875</LongitudeDegrees>
            </Position>
            <AltitudeMeters>2190.199951171875</AltitudeMeters>
            <DistanceMeters>3679.1096203813</DistanceMeters>
          </Trackpoint>
          <Trackpoint>
            <Time>2018-04-30T09:31:53.000Z</Time>
            <Position>
              <LatitudeDegrees>42.702025808393955230712890625</LatitudeDegrees>
              <LongitudeDegrees>1.26211621798574924468994140625</LongitudeDegrees>
            </Position>
            <AltitudeMeters>2189</AltitudeMeters>
            <DistanceMeters>3696.2910705247</DistanceMeters>
          </Trackpoint>
          <Trackpoint>
            <Time>2018-04-30T09:32:12.000Z</Time>
            <Position>
              <LatitudeDegrees>42.70200275816023349761962890625</LatitudeDegrees>
              <LongitudeDegrees>1.2620814330875873565673828125</LongitudeDegrees>
            </Position>
            <AltitudeMeters>2187.39990234375</AltitudeMeters>
            <DistanceMeters>3700.1228983259</DistanceMeters>
          </Trackpoint>
          <Trackpoint>
            <Time>2018-04-30T09:32:58.000Z</Time>
            <Position>
              <LatitudeDegrees>42.70201901905238628387451171875</LatitudeDegrees>
              <LongitudeDegrees>1.26206106506288051605224609375</LongitudeDegrees>
            </Position>
            <AltitudeMeters>2187.60009765625</AltitudeMeters>
            <DistanceMeters>3702.5826038402</DistanceMeters>
          </Trackpoint>
          <Trackpoint>
            <Time>2018-04-30T09:32:59.000Z</Time>
            <Position>
              <LatitudeDegrees>42.70201147533953189849853515625</LatitudeDegrees>
              <LongitudeDegrees>1.26206718385219573974609375</LongitudeDegrees>
            </Position>
            <AltitudeMeters>2187.60009765625</AltitudeMeters>
            <DistanceMeters>3703.5609637449</DistanceMeters>
          </Trackpoint>
          <Trackpoint>
            <Time>2018-04-30T09:33:14.000Z</Time>
            <Position>
              <LatitudeDegrees>42.7020266465842723846435546875</LatitudeDegrees>
              <LongitudeDegrees>1.26209375448524951934814453125</LongitudeDegrees>
            </Position>
            <AltitudeMeters>2187.199951171875</AltitudeMeters>
            <DistanceMeters>3706.3134597279</DistanceMeters>
          </Trackpoint>
          <Trackpoint>
            <Time>2018-04-30T09:33:18.000Z</Time>
            <Position>
              <LatitudeDegrees>42.70203460939228534698486328125</LatitudeDegrees>
              <LongitudeDegrees>1.2620844505727291107177734375</LongitudeDegrees>
            </Position>
            <AltitudeMeters>2187.39990234375</AltitudeMeters>
            <DistanceMeters>3707.4850277453</DistanceMeters>
          </Trackpoint>
          <Trackpoint>
            <Time>2018-04-30T09:34:01.000Z</Time>
            <Position>
              <LatitudeDegrees>42.702063024044036865234375</LatitudeDegrees>
              <LongitudeDegrees>1.2620938383042812347412109375</LongitudeDegrees>
            </Position>
            <AltitudeMeters>2187.60009765625</AltitudeMeters>
            <DistanceMeters>3710.7396060082</DistanceMeters>
          </Trackpoint>
          <Trackpoint>
            <Time>2018-04-30T09:35:28.000Z</Time>
            <Position>
              <LatitudeDegrees>42.7020226232707500457763671875</LatitudeDegrees>
              <LongitudeDegrees>1.2620401941239833831787109375</LongitudeDegrees>
            </Position>
            <AltitudeMeters>2187.60009765625</AltitudeMeters>
            <DistanceMeters>3717.0221583666</DistanceMeters>
          </Trackpoint>
          <Trackpoint>
            <Time>2018-04-30T09:36:59.000Z</Time>
            <Position>
              <LatitudeDegrees>42.70205774344503879547119140625</LatitudeDegrees>
              <LongitudeDegrees>1.26211655326187610626220703125</LongitudeDegrees>
            </Position>
            <AltitudeMeters>2186.39990234375</AltitudeMeters>
            <DistanceMeters>3724.3902530715</DistanceMeters>
          </Trackpoint>
          <Trackpoint>
            <Time>2018-04-30T09:37:10.000Z</Time>
            <Position>
              <LatitudeDegrees>42.702055312693119049072265625</LatitudeDegrees>
              <LongitudeDegrees>1.2621193192899227142333984375</LongitudeDegrees>
            </Position>
            <AltitudeMeters>2186.199951171875</AltitudeMeters>
            <DistanceMeters>3724.7328767627</DistanceMeters>
          </Trackpoint>
          <Trackpoint>
            <Time>2018-04-30T09:37:20.000Z</Time>
            <Position>
              <LatitudeDegrees>42.7020313404500484466552734375</LatitudeDegrees>
              <LongitudeDegrees>1.2620867975056171417236328125</LongitudeDegrees>
            </Position>
            <AltitudeMeters>2186.39990234375</AltitudeMeters>
            <DistanceMeters>3728.5005391905</DistanceMeters>
          </Trackpoint>
          <Trackpoint>
            <Time>2018-04-30T09:38:11.000Z</Time>
            <Position>
              <LatitudeDegrees>42.70204181782901287078857421875</LatitudeDegrees>
              <LongitudeDegrees>1.2620790861546993255615234375</LongitudeDegrees>
            </Position>
            <AltitudeMeters>2186.199951171875</AltitudeMeters>
            <DistanceMeters>3729.824108165</DistanceMeters>
          </Trackpoint>
          <Trackpoint>
            <Time>2018-04-30T09:38:35.000Z</Time>
            <Position>
              <LatitudeDegrees>42.70206294022500514984130859375</LatitudeDegrees>
              <LongitudeDegrees>1.26208864152431488037109375</LongitudeDegrees>
            </Position>
            <AltitudeMeters>2186.800048828125</AltitudeMeters>
            <DistanceMeters>3732.3021017045</DistanceMeters>
          </Trackpoint>
          <Trackpoint>
            <Time>2018-04-30T09:38:36.000Z</Time>
            <Position>
              <LatitudeDegrees>42.70207065157592296600341796875</LatitudeDegrees>
              <LongitudeDegrees>1.26209559850394725799560546875</LongitudeDegrees>
            </Position>
            <AltitudeMeters>2186.800048828125</AltitudeMeters>
            <DistanceMeters>3733.3343560435</DistanceMeters>
          </Trackpoint>
          <Trackpoint>
            <Time>2018-04-30T09:39:03.000Z</Time>
            <Position>
              <LatitudeDegrees>42.702017091214656829833984375</LatitudeDegrees>
              <LongitudeDegrees>1.26214186660945415496826171875</LongitudeDegrees>
            </Position>
            <AltitudeMeters>2187</AltitudeMeters>
            <DistanceMeters>3740.3951670484</DistanceMeters>
          </Trackpoint>
          <Trackpoint>
            <Time>2018-04-30T09:39:20.000Z</Time>
            <Position>
              <LatitudeDegrees>42.70199932157993316650390625</LatitudeDegrees>
              <LongitudeDegrees>1.26214991323649883270263671875</LongitudeDegrees>
            </Position>
            <AltitudeMeters>2187.60009765625</AltitudeMeters>
            <DistanceMeters>3742.481430897</DistanceMeters>
          </Trackpoint>
          <Trackpoint>
            <Time>2018-04-30T09:39:30.000Z</Time>
            <Position>
              <LatitudeDegrees>42.701954059302806854248046875</LatitudeDegrees>
              <LongitudeDegrees>1.2621753104031085968017578125</LongitudeDegrees>
            </Position>
            <AltitudeMeters>2188.199951171875</AltitudeMeters>
            <DistanceMeters>3747.9311943253</DistanceMeters>
          </Trackpoint>
          <Trackpoint>
            <Time>2018-04-30T09:39:39.000Z</Time>
            <Position>
              <LatitudeDegrees>42.7019659616053104400634765625</LatitudeDegrees>
              <LongitudeDegrees>1.26215309835970401763916015625</LongitudeDegrees>
            </Position>
            <AltitudeMeters>2187</AltitudeMeters>
            <DistanceMeters>3750.1799368203</DistanceMeters>
          </Trackpoint>
          <Trackpoint>
            <Time>2018-04-30T09:39:42.000Z</Time>
            <Position>
              <LatitudeDegrees>42.70193897187709808349609375</LatitudeDegrees>
              <LongitudeDegrees>1.262168772518634796142578125</LongitudeDegrees>
            </Position>
            <AltitudeMeters>2186.199951171875</AltitudeMeters>
            <DistanceMeters>3753.4469768195</DistanceMeters>
          </Trackpoint>
          <Trackpoint>
            <Time>2018-04-30T09:39:57.000Z</Time>
            <Position>
              <LatitudeDegrees>42.70184668712317943572998046875</LatitudeDegrees>
              <LongitudeDegrees>1.2623121030628681182861328125</LongitudeDegrees>
            </Position>
            <AltitudeMeters>2188.60009765625</AltitudeMeters>
            <DistanceMeters>3769.0336755286</DistanceMeters>
          </Trackpoint>
          <Trackpoint>
            <Time>2018-04-30T09:40:13.000Z</Time>
            <Position>
              <LatitudeDegrees>42.70173755474388599395751953125</LatitudeDegrees>
              <LongitudeDegrees>1.2624341435730457305908203125</LongitudeDegrees>
            </Position>
            <AltitudeMeters>2191.199951171875</AltitudeMeters>
            <DistanceMeters>3784.7559308559</DistanceMeters>
          </Trackpoint>
          <Trackpoint>
            <Time>2018-04-30T09:40:24.000Z</Time>
            <Position>
              <LatitudeDegrees>42.70167619921267032623291015625</LatitudeDegrees>
              <LongitudeDegrees>1.262525506317615509033203125</LongitudeDegrees>
            </Position>
            <AltitudeMeters>2194.199951171875</AltitudeMeters>
            <DistanceMeters>3794.8788408864</DistanceMeters>
          </Trackpoint>
          <Trackpoint>
            <Time>2018-04-30T09:40:37.000Z</Time>
            <Position>
              <LatitudeDegrees>42.70160277374088764190673828125</LatitudeDegrees>
              <LongitudeDegrees>1.26260572113096714019775390625</LongitudeDegrees>
            </Position>
            <AltitudeMeters>2197.39990234375</AltitudeMeters>
            <DistanceMeters>3805.3585255053</DistanceMeters>
          </Trackpoint>
          <Trackpoint>
            <Time>2018-04-30T09:41:03.000Z</Time>
            <Position>
              <LatitudeDegrees>42.70153236575424671173095703125</LatitudeDegrees>
              <LongitudeDegrees>1.2627043761312961578369140625</LongitudeDegrees>
            </Position>
            <AltitudeMeters>2199.800048828125</AltitudeMeters>
            <DistanceMeters>3816.6070556819</DistanceMeters>
          </Trackpoint>
          <Trackpoint>
            <Time>2018-04-30T09:41:20.000Z</Time>
            <Position>
              <LatitudeDegrees>42.70148341543972492218017578125</LatitudeDegrees>
              <LongitudeDegrees>1.2627638876438140869140625</LongitudeDegrees>
            </Position>
            <AltitudeMeters>2201.39990234375</AltitudeMeters>
            <DistanceMeters>3823.9136151962</DistanceMeters>
          </Trackpoint>
          <Trackpoint>
            <Time>2018-04-30T09:41:34.000Z</Time>
            <Position>
              <LatitudeDegrees>42.70145055837929248809814453125</LatitudeDegrees>
              <LongitudeDegrees>1.26284661702811717987060546875</LongitudeDegrees>
            </Position>
            <AltitudeMeters>2204.39990234375</AltitudeMeters>
            <DistanceMeters>3831.6054979866</DistanceMeters>
          </Trackpoint>
          <Trackpoint>
            <Time>2018-04-30T09:41:52.000Z</Time>
            <Position>
              <LatitudeDegrees>42.7015317790210247039794921875</LatitudeDegrees>
              <LongitudeDegrees>1.26291937194764614105224609375</LongitudeDegrees>
            </Position>
            <AltitudeMeters>2207.60009765625</AltitudeMeters>
            <DistanceMeters>3842.4285359904</DistanceMeters>
          </Trackpoint>
          <Trackpoint>
            <Time>2018-04-30T09:42:08.000Z</Time>
            <Position>
              <LatitudeDegrees>42.7014429308474063873291015625</LatitudeDegrees>
              <LongitudeDegrees>1.26300771720707416534423828125</LongitudeDegrees>
            </Position>
            <AltitudeMeters>2210.800048828125</AltitudeMeters>
            <DistanceMeters>3854.6762961891</DistanceMeters>
          </Trackpoint>
          <Trackpoint>
            <Time>2018-04-30T09:42:20.000Z</Time>
            <Position>
              <LatitudeDegrees>42.701346874237060546875</LatitudeDegrees>
              <LongitudeDegrees>1.26302867196500301361083984375</LongitudeDegrees>
            </Position>
            <AltitudeMeters>2213.60009765625</AltitudeMeters>
            <DistanceMeters>3865.5039220818</DistanceMeters>
          </Trackpoint>
          <Trackpoint>
            <Time>2018-04-30T09:42:39.000Z</Time>
            <Position>
              <LatitudeDegrees>42.701351903378963470458984375</LatitudeDegrees>
              <LongitudeDegrees>1.2631217949092388153076171875</LongitudeDegrees>
            </Position>
            <AltitudeMeters>2217</AltitudeMeters>
            <DistanceMeters>3873.141611119</DistanceMeters>
          </Trackpoint>
          <Trackpoint>
            <Time>2018-04-30T09:42:40.000Z</Time>
            <Position>
              <LatitudeDegrees>42.70135349594056606292724609375</LatitudeDegrees>
              <LongitudeDegrees>1.2631325237452983856201171875</LongitudeDegrees>
            </Position>
            <AltitudeMeters>2217</AltitudeMeters>
            <DistanceMeters>3874.0330407163</DistanceMeters>
          </Trackpoint>
          <Trackpoint>
            <Time>2018-04-30T09:42:41.000Z</Time>
            <Position>
              <LatitudeDegrees>42.7013517357409000396728515625</LatitudeDegrees>
              <LongitudeDegrees>1.26314601860940456390380859375</LongitudeDegrees>
            </Position>
            <AltitudeMeters>2217.39990234375</AltitudeMeters>
            <DistanceMeters>3875.1533891558</DistanceMeters>
          </Trackpoint>
          <Trackpoint>
            <Time>2018-04-30T09:42:52.000Z</Time>
            <Position>
              <LatitudeDegrees>42.70137579180300235748291015625</LatitudeDegrees>
              <LongitudeDegrees>1.263229586184024810791015625</LongitudeDegrees>
            </Position>
            <AltitudeMeters>2220</AltitudeMeters>
            <DistanceMeters>3882.4944719245</DistanceMeters>
          </Trackpoint>
          <Trackpoint>
            <Time>2018-04-30T09:43:28.000Z</Time>
            <Position>
              <LatitudeDegrees>42.70141552202403545379638671875</LatitudeDegrees>
              <LongitudeDegrees>1.26334249041974544525146484375</LongitudeDegrees>
            </Position>
            <AltitudeMeters>2221.39990234375</AltitudeMeters>
            <DistanceMeters>3892.7340137888</DistanceMeters>
          </Trackpoint>
          <Trackpoint>
            <Time>2018-04-30T09:43:34.000Z</Time>
            <Position>
              <LatitudeDegrees>42.70138920284807682037353515625</LatitudeDegrees>
              <LongitudeDegrees>1.26339026726782321929931640625</LongitudeDegrees>
            </Position>
            <AltitudeMeters>2222.60009765625</AltitudeMeters>
            <DistanceMeters>3897.6184238827</DistanceMeters>
          </Trackpoint>
          <Trackpoint>
            <Time>2018-04-30T09:43:55.000Z</Time>
            <Position>
              <LatitudeDegrees>42.701302953064441680908203125</LatitudeDegrees>
              <LongitudeDegrees>1.263462267816066741943359375</LongitudeDegrees>
            </Position>
            <AltitudeMeters>2225.800048828125</AltitudeMeters>
            <DistanceMeters>3908.8805930224</DistanceMeters>
          </Trackpoint>
          <Trackpoint>
            <Time>2018-04-30T09:44:02.000Z</Time>
            <Position>
              <LatitudeDegrees>42.7012779749929904937744140625</LatitudeDegrees>
              <LongitudeDegrees>1.263518594205379486083984375</LongitudeDegrees>
            </Position>
            <AltitudeMeters>2227.60009765625</AltitudeMeters>
            <DistanceMeters>3914.2611529448</DistanceMeters>
          </Trackpoint>
          <Trackpoint>
            <Time>2018-04-30T09:44:16.000Z</Time>
            <Position>
              <LatitudeDegrees>42.70125475712120532989501953125</LatitudeDegrees>
              <LongitudeDegrees>1.26365379430353641510009765625</LongitudeDegrees>
            </Position>
            <AltitudeMeters>2230.800048828125</AltitudeMeters>
            <DistanceMeters>3925.6183362191</DistanceMeters>
          </Trackpoint>
          <Trackpoint>
            <Time>2018-04-30T09:44:37.000Z</Time>
            <Position>
              <LatitudeDegrees>42.70122039131820201873779296875</LatitudeDegrees>
              <LongitudeDegrees>1.263855881989002227783203125</LongitudeDegrees>
            </Position>
            <AltitudeMeters>2233.800048828125</AltitudeMeters>
            <DistanceMeters>3942.5847965713</DistanceMeters>
          </Trackpoint>
          <Trackpoint>
            <Time>2018-04-30T09:45:02.000Z</Time>
            <Position>
              <LatitudeDegrees>42.70119197666645050048828125</LatitudeDegrees>
              <LongitudeDegrees>1.26399678178131580352783203125</LongitudeDegrees>
            </Position>
            <AltitudeMeters>2234.800048828125</AltitudeMeters>
            <DistanceMeters>3954.5355157562</DistanceMeters>
          </Trackpoint>
          <Trackpoint>
            <Time>2018-04-30T09:45:03.000Z</Time>
            <Position>
              <LatitudeDegrees>42.70118527114391326904296875</LatitudeDegrees>
              <LongitudeDegrees>1.26401069574058055877685546875</LongitudeDegrees>
            </Position>
            <AltitudeMeters>2234.60009765625</AltitudeMeters>
            <DistanceMeters>3955.8994056885</DistanceMeters>
          </Trackpoint>
          <Trackpoint>
            <Time>2018-04-30T09:45:04.000Z</Time>
            <Position>
              <LatitudeDegrees>42.70118351094424724578857421875</LatitudeDegrees>
              <LongitudeDegrees>1.26402745954692363739013671875</LongitudeDegrees>
            </Position>
            <AltitudeMeters>2234.39990234375</AltitudeMeters>
            <DistanceMeters>3957.2830155346</DistanceMeters>
          </Trackpoint>
          <Trackpoint>
            <Time>2018-04-30T09:45:23.000Z</Time>
            <Position>
              <LatitudeDegrees>42.701083011925220489501953125</LatitudeDegrees>
              <LongitudeDegrees>1.26423784531652927398681640625</LongitudeDegrees>
            </Position>
            <AltitudeMeters>2235.800048828125</AltitudeMeters>
            <DistanceMeters>3977.8076859628</DistanceMeters>
          </Trackpoint>
          <Trackpoint>
            <Time>2018-04-30T09:45:43.000Z</Time>
            <Position>
              <LatitudeDegrees>42.70106968469917774200439453125</LatitudeDegrees>
              <LongitudeDegrees>1.2644075788557529449462890625</LongitudeDegrees>
            </Position>
            <AltitudeMeters>2238.39990234375</AltitudeMeters>
            <DistanceMeters>3991.7704704425</DistanceMeters>
          </Trackpoint>
          <Trackpoint>
            <Time>2018-04-30T09:46:05.000Z</Time>
            <Position>
              <LatitudeDegrees>42.7010758034884929656982421875</LatitudeDegrees>
              <LongitudeDegrees>1.26445728354156017303466796875</LongitudeDegrees>
            </Position>
            <AltitudeMeters>2240</AltitudeMeters>
            <DistanceMeters>3995.891826262</DistanceMeters>
          </Trackpoint>
          <Trackpoint>
            <Time>2018-04-30T09:47:22.000Z</Time>
            <Position>
              <LatitudeDegrees>42.70112919621169567108154296875</LatitudeDegrees>
              <LongitudeDegrees>1.2645551003515720367431640625</LongitudeDegrees>
            </Position>
            <AltitudeMeters>2240.800048828125</AltitudeMeters>
            <DistanceMeters>4005.8583121464</DistanceMeters>
          </Trackpoint>
          <Trackpoint>
            <Time>2018-04-30T09:47:46.000Z</Time>
            <Position>
              <LatitudeDegrees>42.7011723630130290985107421875</LatitudeDegrees>
              <LongitudeDegrees>1.26478602178394794464111328125</LongitudeDegrees>
            </Position>
            <AltitudeMeters>2243</AltitudeMeters>
            <DistanceMeters>4025.3487522605</DistanceMeters>
          </Trackpoint>
          <Trackpoint>
            <Time>2018-04-30T09:48:00.000Z</Time>
            <Position>
              <LatitudeDegrees>42.70118669606745243072509765625</LatitudeDegrees>
              <LongitudeDegrees>1.264909990131855010986328125</LongitudeDegrees>
            </Position>
            <AltitudeMeters>2246.199951171875</AltitudeMeters>
            <DistanceMeters>4035.6133970156</DistanceMeters>
          </Trackpoint>
          <Trackpoint>
            <Time>2018-04-30T09:48:14.000Z</Time>
            <Position>
              <LatitudeDegrees>42.70120614208281040191650390625</LatitudeDegrees>
              <LongitudeDegrees>1.2650201283395290374755859375</LongitudeDegrees>
            </Position>
            <AltitudeMeters>2249.199951171875</AltitudeMeters>
            <DistanceMeters>4044.8783798368</DistanceMeters>
          </Trackpoint>
          <Trackpoint>
            <Time>2018-04-30T09:48:23.000Z</Time>
            <Position>
              <LatitudeDegrees>42.70125475712120532989501953125</LatitudeDegrees>
              <LongitudeDegrees>1.2650060467422008514404296875</LongitudeDegrees>
            </Position>
            <AltitudeMeters>2251</AltitudeMeters>
            <DistanceMeters>4050.4103712566</DistanceMeters>
          </Trackpoint>
          <Trackpoint>
            <Time>2018-04-30T09:48:38.000Z</Time>
            <Position>
              <LatitudeDegrees>42.701351232826709747314453125</LatitudeDegrees>
              <LongitudeDegrees>1.2649426795542240142822265625</LongitudeDegrees>
            </Position>
            <AltitudeMeters>2254.199951171875</AltitudeMeters>
            <DistanceMeters>4062.3338574722</DistanceMeters>
          </Trackpoint>
          <Trackpoint>
            <Time>2018-04-30T09:48:52.000Z</Time>
            <Position>
              <LatitudeDegrees>42.7014278434216976165771484375</LatitudeDegrees>
              <LongitudeDegrees>1.2648752890527248382568359375</LongitudeDegrees>
            </Position>
            <AltitudeMeters>2257.199951171875</AltitudeMeters>
            <DistanceMeters>4072.4874963647</DistanceMeters>
          </Trackpoint>
          <Trackpoint>
            <Time>2018-04-30T09:49:12.000Z</Time>
            <Position>
              <LatitudeDegrees>42.70153119228780269622802734375</LatitudeDegrees>
              <LongitudeDegrees>1.2647406756877899169921875</LongitudeDegrees>
            </Position>
            <AltitudeMeters>2260.39990234375</AltitudeMeters>
            <DistanceMeters>4088.4109230208</DistanceMeters>
          </Trackpoint>
          <Trackpoint>
            <Time>2018-04-30T09:49:35.000Z</Time>
            <Position>
              <LatitudeDegrees>42.70165993832051753997802734375</LatitudeDegrees>
              <LongitudeDegrees>1.26462358050048351287841796875</LongitudeDegrees>
            </Position>
            <AltitudeMeters>2263.60009765625</AltitudeMeters>
            <DistanceMeters>4105.6472078585</DistanceMeters>
          </Trackpoint>
          <Trackpoint>
            <Time>2018-04-30T09:49:40.000Z</Time>
            <Position>
              <LatitudeDegrees>42.70168860442936420440673828125</LatitudeDegrees>
              <LongitudeDegrees>1.26460765488445758819580078125</LongitudeDegrees>
            </Position>
            <AltitudeMeters>2265.800048828125</AltitudeMeters>
            <DistanceMeters>4109.094464826</DistanceMeters>
          </Trackpoint>
          <Trackpoint>
            <Time>2018-04-30T09:49:55.000Z</Time>
            <Position>
              <LatitudeDegrees>42.70176705904304981231689453125</LatitudeDegrees>
              <LongitudeDegrees>1.26455434598028659820556640625</LongitudeDegrees>
            </Position>
            <AltitudeMeters>2269</AltitudeMeters>
            <DistanceMeters>4118.8549620717</DistanceMeters>
          </Trackpoint>
          <Trackpoint>
            <Time>2018-04-30T09:50:10.000Z</Time>
            <Position>
              <LatitudeDegrees>42.7018580026924610137939453125</LatitudeDegrees>
              <LongitudeDegrees>1.2645564414560794830322265625</LongitudeDegrees>
            </Position>
            <AltitudeMeters>2272.199951171875</AltitudeMeters>
            <DistanceMeters>4128.9778721022</DistanceMeters>
          </Trackpoint>
          <Trackpoint>
            <Time>2018-04-30T09:50:27.000Z</Time>
            <Position>
              <LatitudeDegrees>42.70193369127810001373291015625</LatitudeDegrees>
              <LongitudeDegrees>1.2646369077265262603759765625</LongitudeDegrees>
            </Position>
            <AltitudeMeters>2275.199951171875</AltitudeMeters>
            <DistanceMeters>4139.6682718831</DistanceMeters>
          </Trackpoint>
          <Trackpoint>
            <Time>2018-04-30T09:50:40.000Z</Time>
            <Position>
              <LatitudeDegrees>42.7019958011806011199951171875</LatitudeDegrees>
              <LongitudeDegrees>1.26471309922635555267333984375</LongitudeDegrees>
            </Position>
            <AltitudeMeters>2278.199951171875</AltitudeMeters>
            <DistanceMeters>4148.9760403269</DistanceMeters>
          </Trackpoint>
          <Trackpoint>
            <Time>2018-04-30T09:50:56.000Z</Time>
            <Position>
              <LatitudeDegrees>42.70205640234053134918212890625</LatitudeDegrees>
              <LongitudeDegrees>1.26479825936257839202880859375</LongitudeDegrees>
            </Position>
            <AltitudeMeters>2281.199951171875</AltitudeMeters>
            <DistanceMeters>4158.6715596932</DistanceMeters>
          </Trackpoint>
          <Trackpoint>
            <Time>2018-04-30T09:51:08.000Z</Time>
            <Position>
              <LatitudeDegrees>42.70210736431181430816650390625</LatitudeDegrees>
              <LongitudeDegrees>1.26487503759562969207763671875</LongitudeDegrees>
            </Position>
            <AltitudeMeters>2283.800048828125</AltitudeMeters>
            <DistanceMeters>4167.1337406296</DistanceMeters>
          </Trackpoint>
          <Trackpoint>
            <Time>2018-04-30T09:51:33.000Z</Time>
            <Position>
              <LatitudeDegrees>42.70225840620696544647216796875</LatitudeDegrees>
              <LongitudeDegrees>1.2649570964276790618896484375</LongitudeDegrees>
            </Position>
            <AltitudeMeters>2286.800048828125</AltitudeMeters>
            <DistanceMeters>4185.2355191036</DistanceMeters>
          </Trackpoint>
          <Trackpoint>
            <Time>2018-04-30T09:51:52.000Z</Time>
            <Position>
              <LatitudeDegrees>42.70237038843333721160888671875</LatitudeDegrees>
              <LongitudeDegrees>1.2649391591548919677734375</LongitudeDegrees>
            </Position>
            <AltitudeMeters>2289.800048828125</AltitudeMeters>
            <DistanceMeters>4197.7855228221</DistanceMeters>
          </Trackpoint>
          <Trackpoint>
            <Time>2018-04-30T09:52:01.000Z</Time>
            <Position>
              <LatitudeDegrees>42.70243677310645580291748046875</LatitudeDegrees>
              <LongitudeDegrees>1.26493739895522594451904296875</LongitudeDegrees>
            </Position>
            <AltitudeMeters>2291.800048828125</AltitudeMeters>
            <DistanceMeters>4205.1756447652</DistanceMeters>
          </Trackpoint>
          <Trackpoint>
            <Time>2018-04-30T09:52:23.000Z</Time>
            <Position>
              <LatitudeDegrees>42.70260139368474483489990234375</LatitudeDegrees>
              <LongitudeDegrees>1.2649353034794330596923828125</LongitudeDegrees>
            </Position>
            <AltitudeMeters>2294.800048828125</AltitudeMeters>
            <DistanceMeters>4223.499052534</DistanceMeters>
          </Trackpoint>
          <Trackpoint>
            <Time>2018-04-30T09:52:38.000Z</Time>
            <Position>
              <LatitudeDegrees>42.70270616747438907623291015625</LatitudeDegrees>
              <LongitudeDegrees>1.264907307922840118408203125</LongitudeDegrees>
            </Position>
            <AltitudeMeters>2297.800048828125</AltitudeMeters>
            <DistanceMeters>4235.3830920654</DistanceMeters>
          </Trackpoint>
          <Trackpoint>
            <Time>2018-04-30T09:52:57.000Z</Time>
            <Position>
              <LatitudeDegrees>42.7028127014636993408203125</LatitudeDegrees>
              <LongitudeDegrees>1.26489163376390933990478515625</LongitudeDegrees>
            </Position>
            <AltitudeMeters>2301</AltitudeMeters>
            <DistanceMeters>4247.3096072373</DistanceMeters>
          </Trackpoint>
          <Trackpoint>
            <Time>2018-04-30T09:53:21.000Z</Time>
            <Position>
              <LatitudeDegrees>42.70293583162128925323486328125</LatitudeDegrees>
              <LongitudeDegrees>1.264891214668750762939453125</LongitudeDegrees>
            </Position>
            <AltitudeMeters>2304</AltitudeMeters>
            <DistanceMeters>4261.0138959777</DistanceMeters>
          </Trackpoint>
          <Trackpoint>
            <Time>2018-04-30T09:53:41.000Z</Time>
            <Position>
              <LatitudeDegrees>42.70306893624365329742431640625</LatitudeDegrees>
              <LongitudeDegrees>1.2649148516356945037841796875</LongitudeDegrees>
            </Position>
            <AltitudeMeters>2307.199951171875</AltitudeMeters>
            <DistanceMeters>4275.9542594143</DistanceMeters>
          </Trackpoint>
          <Trackpoint>
            <Time>2018-04-30T09:53:56.000Z</Time>
            <Position>
              <LatitudeDegrees>42.703177146613597869873046875</LatitudeDegrees>
              <LongitudeDegrees>1.26488350331783294677734375</LongitudeDegrees>
            </Position>
            <AltitudeMeters>2309.199951171875</AltitudeMeters>
            <DistanceMeters>4288.2681963821</DistanceMeters>
          </Trackpoint>
          <Trackpoint>
            <Time>2018-04-30T09:53:57.000Z</Time>
            <Position>
              <LatitudeDegrees>42.70318963564932346343994140625</LatitudeDegrees>
              <LongitudeDegrees>1.2648816592991352081298828125</LongitudeDegrees>
            </Position>
            <AltitudeMeters>2309.199951171875</AltitudeMeters>
            <DistanceMeters>4289.6712490058</DistanceMeters>
          </Trackpoint>
          <Trackpoint>
            <Time>2018-04-30T09:54:17.000Z</Time>
            <Position>
              <LatitudeDegrees>42.7033405937254428863525390625</LatitudeDegrees>
              <LongitudeDegrees>1.264818124473094940185546875</LongitudeDegrees>
            </Position>
            <AltitudeMeters>2312.39990234375</AltitudeMeters>
            <DistanceMeters>4307.2586376269</DistanceMeters>
          </Trackpoint>
          <Trackpoint>
            <Time>2018-04-30T09:54:35.000Z</Time>
            <Position>
              <LatitudeDegrees>42.7034468762576580047607421875</LatitudeDegrees>
              <LongitudeDegrees>1.26477613113820552825927734375</LongitudeDegrees>
            </Position>
            <AltitudeMeters>2315.39990234375</AltitudeMeters>
            <DistanceMeters>4319.5762406572</DistanceMeters>
          </Trackpoint>
          <Trackpoint>
            <Time>2018-04-30T09:54:50.000Z</Time>
            <Position>
              <LatitudeDegrees>42.7035288512706756591796875</LatitudeDegrees>
              <LongitudeDegrees>1.2646950781345367431640625</LongitudeDegrees>
            </Position>
            <AltitudeMeters>2317.39990234375</AltitudeMeters>
            <DistanceMeters>4330.8544345192</DistanceMeters>
          </Trackpoint>
          <Trackpoint>
            <Time>2018-04-30T09:55:04.000Z</Time>
            <Position>
              <LatitudeDegrees>42.70361862145364284515380859375</LatitudeDegrees>
              <LongitudeDegrees>1.26468141563236713409423828125</LongitudeDegrees>
            </Position>
            <AltitudeMeters>2320.39990234375</AltitudeMeters>
            <DistanceMeters>4340.9084225694</DistanceMeters>
          </Trackpoint>
          <Trackpoint>
            <Time>2018-04-30T09:55:16.000Z</Time>
            <Position>
              <LatitudeDegrees>42.70370596088469028472900390625</LatitudeDegrees>
              <LongitudeDegrees>1.2646875344216823577880859375</LongitudeDegrees>
            </Position>
            <AltitudeMeters>2323.39990234375</AltitudeMeters>
            <DistanceMeters>4350.6425168841</DistanceMeters>
          </Trackpoint>
          <Trackpoint>
            <Time>2018-04-30T09:55:23.000Z</Time>
            <Position>
              <LatitudeDegrees>42.7037563361227512359619140625</LatitudeDegrees>
              <LongitudeDegrees>1.26471527852118015289306640625</LongitudeDegrees>
            </Position>
            <AltitudeMeters>2326.199951171875</AltitudeMeters>
            <DistanceMeters>4356.6907265096</DistanceMeters>
          </Trackpoint>
          <Trackpoint>
            <Time>2018-04-30T09:55:58.000Z</Time>
            <Position>
              <LatitudeDegrees>42.70383085124194622039794921875</LatitudeDegrees>
              <LongitudeDegrees>1.2648994289338588714599609375</LongitudeDegrees>
            </Position>
            <AltitudeMeters>2329</AltitudeMeters>
            <DistanceMeters>4373.8850483275</DistanceMeters>
          </Trackpoint>
          <Trackpoint>
            <Time>2018-04-30T09:56:22.000Z</Time>
            <Position>
              <LatitudeDegrees>42.70396261475980281829833984375</LatitudeDegrees>
              <LongitudeDegrees>1.265021301805973052978515625</LongitudeDegrees>
            </Position>
            <AltitudeMeters>2332.199951171875</AltitudeMeters>
            <DistanceMeters>4391.6176545074</DistanceMeters>
          </Trackpoint>
          <Trackpoint>
            <Time>2018-04-30T09:56:38.000Z</Time>
            <Position>
              <LatitudeDegrees>42.7040731720626354217529296875</LatitudeDegrees>
              <LongitudeDegrees>1.2651000916957855224609375</LongitudeDegrees>
            </Position>
            <AltitudeMeters>2335.39990234375</AltitudeMeters>
            <DistanceMeters>4405.508467063</DistanceMeters>
          </Trackpoint>
          <Trackpoint>
            <Time>2018-04-30T09:57:18.000Z</Time>
            <Position>
              <LatitudeDegrees>42.70427224226295948028564453125</LatitudeDegrees>
              <LongitudeDegrees>1.26513537950813770294189453125</LongitudeDegrees>
            </Position>
            <AltitudeMeters>2337</AltitudeMeters>
            <DistanceMeters>4427.8524789327</DistanceMeters>
          </Trackpoint>
          <Trackpoint>
            <Time>2018-04-30T09:57:40.000Z</Time>
            <Position>
              <LatitudeDegrees>42.704455219209194183349609375</LatitudeDegrees>
              <LongitudeDegrees>1.26521836034953594207763671875</LongitudeDegrees>
            </Position>
            <AltitudeMeters>2339.39990234375</AltitudeMeters>
            <DistanceMeters>4449.3192639991</DistanceMeters>
          </Trackpoint>
          <Trackpoint>
            <Time>2018-04-30T09:58:01.000Z</Time>
            <Position>
              <LatitudeDegrees>42.7046258747577667236328125</LatitudeDegrees>
              <LongitudeDegrees>1.26523487269878387451171875</LongitudeDegrees>
            </Position>
            <AltitudeMeters>2342.39990234375</AltitudeMeters>
            <DistanceMeters>4468.3616312281</DistanceMeters>
          </Trackpoint>
          <Trackpoint>
            <Time>2018-04-30T09:58:21.000Z</Time>
            <Position>
              <LatitudeDegrees>42.70473777316510677337646484375</LatitudeDegrees>
              <LongitudeDegrees>1.2651438452303409576416015625</LongitudeDegrees>
            </Position>
            <AltitudeMeters>2345.60009765625</AltitudeMeters>
            <DistanceMeters>4482.871809117</DistanceMeters>
          </Trackpoint>
          <Trackpoint>
            <Time>2018-04-30T09:58:54.000Z</Time>
            <Position>
              <LatitudeDegrees>42.70476459525525569915771484375</LatitudeDegrees>
              <LongitudeDegrees>1.2650613673031330108642578125</LongitudeDegrees>
            </Position>
            <AltitudeMeters>2345.60009765625</AltitudeMeters>
            <DistanceMeters>4490.2484777859</DistanceMeters>
          </Trackpoint>
          <Trackpoint>
            <Time>2018-04-30T09:58:55.000Z</Time>
            <Position>
              <LatitudeDegrees>42.7047725580632686614990234375</LatitudeDegrees>
              <LongitudeDegrees>1.26504938118159770965576171875</LongitudeDegrees>
            </Position>
            <AltitudeMeters>2345.800048828125</AltitudeMeters>
            <DistanceMeters>4491.5686310928</DistanceMeters>
          </Trackpoint>
          <Trackpoint>
            <Time>2018-04-30T09:59:01.000Z</Time>
            <Position>
              <LatitudeDegrees>42.70482025109231472015380859375</LatitudeDegrees>
              <LongitudeDegrees>1.264966987073421478271484375</LongitudeDegrees>
            </Position>
            <AltitudeMeters>2345.800048828125</AltitudeMeters>
            <DistanceMeters>4500.1473910859</DistanceMeters>
          </Trackpoint>
          <Trackpoint>
            <Time>2018-04-30T09:59:02.000Z</Time>
            <Position>
              <LatitudeDegrees>42.70482947118580341339111328125</LatitudeDegrees>
              <LongitudeDegrees>1.264953911304473876953125</LongitudeDegrees>
            </Position>
            <AltitudeMeters>2345.800048828125</AltitudeMeters>
            <DistanceMeters>4501.6287109621</DistanceMeters>
          </Trackpoint>
          <Trackpoint>
            <Time>2018-04-30T09:59:20.000Z</Time>
            <Position>
              <LatitudeDegrees>42.70497732795774936676025390625</LatitudeDegrees>
              <LongitudeDegrees>1.26477780751883983612060546875</LongitudeDegrees>
            </Position>
            <AltitudeMeters>2347.199951171875</AltitudeMeters>
            <DistanceMeters>4523.498485285</DistanceMeters>
          </Trackpoint>
          <Trackpoint>
            <Time>2018-04-30T09:59:38.000Z</Time>
            <Position>
              <LatitudeDegrees>42.705141864717006683349609375</LatitudeDegrees>
              <LongitudeDegrees>1.26463414169847965240478515625</LongitudeDegrees>
            </Position>
            <AltitudeMeters>2346</AltitudeMeters>
            <DistanceMeters>4545.257320455</DistanceMeters>
          </Trackpoint>
          <Trackpoint>
            <Time>2018-04-30T10:00:02.000Z</Time>
            <Position>
              <LatitudeDegrees>42.70530958659946918487548828125</LatitudeDegrees>
              <LongitudeDegrees>1.26458267681300640106201171875</LongitudeDegrees>
            </Position>
            <AltitudeMeters>2349</AltitudeMeters>
            <DistanceMeters>4564.3938227506</DistanceMeters>
          </Trackpoint>
          <Trackpoint>
            <Time>2018-04-30T10:00:23.000Z</Time>
            <Position>
              <LatitudeDegrees>42.70544034428894519805908203125</LatitudeDegrees>
              <LongitudeDegrees>1.26463900320231914520263671875</LongitudeDegrees>
            </Position>
            <AltitudeMeters>2352.199951171875</AltitudeMeters>
            <DistanceMeters>4579.6588521523</DistanceMeters>
          </Trackpoint>
          <Trackpoint>
            <Time>2018-04-30T10:00:34.000Z</Time>
            <Position>
              <LatitudeDegrees>42.70550572313368320465087890625</LatitudeDegrees>
              <LongitudeDegrees>1.26465911976993083953857421875</LongitudeDegrees>
            </Position>
            <AltitudeMeters>2355.199951171875</AltitudeMeters>
            <DistanceMeters>4587.1195083701</DistanceMeters>
          </Trackpoint>
          <Trackpoint>
            <Time>2018-04-30T10:00:49.000Z</Time>
            <Position>
              <LatitudeDegrees>42.70558887161314487457275390625</LatitudeDegrees>
              <LongitudeDegrees>1.26470672897994518280029296875</LongitudeDegrees>
            </Position>
            <AltitudeMeters>2358.39990234375</AltitudeMeters>
            <DistanceMeters>4597.1595653094</DistanceMeters>
          </Trackpoint>
          <Trackpoint>
            <Time>2018-04-30T10:01:05.000Z</Time>
            <Position>
              <LatitudeDegrees>42.70569565705955028533935546875</LatitudeDegrees>
              <LongitudeDegrees>1.26472181640565395355224609375</LongitudeDegrees>
            </Position>
            <AltitudeMeters>2360.60009765625</AltitudeMeters>
            <DistanceMeters>4609.1087731799</DistanceMeters>
          </Trackpoint>
          <Trackpoint>
            <Time>2018-04-30T10:01:13.000Z</Time>
            <Position>
              <LatitudeDegrees>42.70573991350829601287841796875</LatitudeDegrees>
              <LongitudeDegrees>1.26474000513553619384765625</LongitudeDegrees>
            </Position>
            <AltitudeMeters>2361.199951171875</AltitudeMeters>
            <DistanceMeters>4614.254274529</DistanceMeters>
          </Trackpoint>
          <Trackpoint>
            <Time>2018-04-30T10:01:20.000Z</Time>
            <Position>
              <LatitudeDegrees>42.70578257739543914794921875</LatitudeDegrees>
              <LongitudeDegrees>1.26475618220865726470947265625</LongitudeDegrees>
            </Position>
            <AltitudeMeters>2364.199951171875</AltitudeMeters>
            <DistanceMeters>4619.1846868634</DistanceMeters>
          </Trackpoint>
          <Trackpoint>
            <Time>2018-04-30T10:01:35.000Z</Time>
            <Position>
              <LatitudeDegrees>42.7058571763336658477783203125</LatitudeDegrees>
              <LongitudeDegrees>1.26482273451983928680419921875</LongitudeDegrees>
            </Position>
            <AltitudeMeters>2367.199951171875</AltitudeMeters>
            <DistanceMeters>4629.1125911934</DistanceMeters>
          </Trackpoint>
          <Trackpoint>
            <Time>2018-04-30T10:01:49.000Z</Time>
            <Position>
              <LatitudeDegrees>42.7059104852378368377685546875</LatitudeDegrees>
              <LongitudeDegrees>1.2649121694266796112060546875</LongitudeDegrees>
            </Position>
            <AltitudeMeters>2370.60009765625</AltitudeMeters>
            <DistanceMeters>4638.530309114</DistanceMeters>
          </Trackpoint>
          <Trackpoint>
            <Time>2018-04-30T10:02:00.000Z</Time>
            <Position>
              <LatitudeDegrees>42.70594342611730098724365234375</LatitudeDegrees>
              <LongitudeDegrees>1.26500428654253482818603515625</LongitudeDegrees>
            </Position>
            <AltitudeMeters>2373.199951171875</AltitudeMeters>
            <DistanceMeters>4646.9088420569</DistanceMeters>
          </Trackpoint>
          <Trackpoint>
            <Time>2018-04-30T10:02:21.000Z</Time>
            <Position>
              <LatitudeDegrees>42.70602456294000148773193359375</LatitudeDegrees>
              <LongitudeDegrees>1.26514007337391376495361328125</LongitudeDegrees>
            </Position>
            <AltitudeMeters>2376.199951171875</AltitudeMeters>
            <DistanceMeters>4661.2229062776</DistanceMeters>
          </Trackpoint>
          <Trackpoint>
            <Time>2018-04-30T10:02:33.000Z</Time>
            <Position>
              <LatitudeDegrees>42.7060851640999317169189453125</LatitudeDegrees>
              <LongitudeDegrees>1.265178881585597991943359375</LongitudeDegrees>
            </Position>
            <AltitudeMeters>2379.39990234375</AltitudeMeters>
            <DistanceMeters>4668.6781138879</DistanceMeters>
          </Trackpoint>
          <Trackpoint>
            <Time>2018-04-30T10:02:39.000Z</Time>
            <Position>
              <LatitudeDegrees>42.706123553216457366943359375</LatitudeDegrees>
              <LongitudeDegrees>1.2652073800563812255859375</LongitudeDegrees>
            </Position>
            <AltitudeMeters>2380.199951171875</AltitudeMeters>
            <DistanceMeters>4673.5458567518</DistanceMeters>
          </Trackpoint>
          <Trackpoint>
            <Time>2018-04-30T10:03:00.000Z</Time>
            <Position>
              <LatitudeDegrees>42.70626663230359554290771484375</LatitudeDegrees>
              <LongitudeDegrees>1.2652940489351749420166015625</LongitudeDegrees>
            </Position>
            <AltitudeMeters>2383.39990234375</AltitudeMeters>
            <DistanceMeters>4690.9772377144</DistanceMeters>
          </Trackpoint>
          <Trackpoint>
            <Time>2018-04-30T10:03:25.000Z</Time>
            <Position>
              <LatitudeDegrees>42.70636989735066890716552734375</LatitudeDegrees>
              <LongitudeDegrees>1.26545808278024196624755859375</LongitudeDegrees>
            </Position>
            <AltitudeMeters>2386.39990234375</AltitudeMeters>
            <DistanceMeters>4708.6435192149</DistanceMeters>
          </Trackpoint>
          <Trackpoint>
            <Time>2018-04-30T10:03:40.000Z</Time>
            <Position>
              <LatitudeDegrees>42.706431336700916290283203125</LatitudeDegrees>
              <LongitudeDegrees>1.2655880860984325408935546875</LongitudeDegrees>
            </Position>
            <AltitudeMeters>2387.800048828125</AltitudeMeters>
            <DistanceMeters>4721.2852870068</DistanceMeters>
          </Trackpoint>
          <Trackpoint>
            <Time>2018-04-30T10:03:55.000Z</Time>
            <Position>
              <LatitudeDegrees>42.70651976577937602996826171875</LatitudeDegrees>
              <LongitudeDegrees>1.265699565410614013671875</LongitudeDegrees>
            </Position>
            <AltitudeMeters>2391</AltitudeMeters>
            <DistanceMeters>4734.7012284081</DistanceMeters>
          </Trackpoint>
          <Trackpoint>
            <Time>2018-04-30T10:04:13.000Z</Time>
            <Position>
              <LatitudeDegrees>42.706586234271526336669921875</LatitudeDegrees>
              <LongitudeDegrees>1.2658247910439968109130859375</LongitudeDegrees>
            </Position>
            <AltitudeMeters>2394.39990234375</AltitudeMeters>
            <DistanceMeters>4747.335851132</DistanceMeters>
          </Trackpoint>
          <Trackpoint>
            <Time>2018-04-30T10:04:32.000Z</Time>
            <Position>
              <LatitudeDegrees>42.7066353522241115570068359375</LatitudeDegrees>
              <LongitudeDegrees>1.26596485264599323272705078125</LongitudeDegrees>
            </Position>
            <AltitudeMeters>2397.60009765625</AltitudeMeters>
            <DistanceMeters>4760.0289446837</DistanceMeters>
          </Trackpoint>
          <Trackpoint>
            <Time>2018-04-30T10:04:48.000Z</Time>
            <Position>
              <LatitudeDegrees>42.706684805452823638916015625</LatitudeDegrees>
              <LongitudeDegrees>1.26611505635082721710205078125</LongitudeDegrees>
            </Position>
            <AltitudeMeters>2399</AltitudeMeters>
            <DistanceMeters>4773.4905780942</DistanceMeters>
          </Trackpoint>
          <Trackpoint>
            <Time>2018-04-30T10:04:49.000Z</Time>
            <Position>
              <LatitudeDegrees>42.7066876552999019622802734375</LatitudeDegrees>
              <LongitudeDegrees>1.26612595282495021820068359375</LongitudeDegrees>
            </Position>
            <AltitudeMeters>2399</AltitudeMeters>
            <DistanceMeters>4774.4408452379</DistanceMeters>
          </Trackpoint>
          <Trackpoint>
            <Time>2018-04-30T10:05:13.000Z</Time>
            <Position>
              <LatitudeDegrees>42.70671866834163665771484375</LatitudeDegrees>
              <LongitudeDegrees>1.26614145934581756591796875</LongitudeDegrees>
            </Position>
            <AltitudeMeters>2398.60009765625</AltitudeMeters>
            <DistanceMeters>4778.1187596623</DistanceMeters>
          </Trackpoint>
          <Trackpoint>
            <Time>2018-04-30T10:05:22.000Z</Time>
            <Position>
              <LatitudeDegrees>42.70670467056334018707275390625</LatitudeDegrees>
              <LongitudeDegrees>1.26610927283763885498046875</LongitudeDegrees>
            </Position>
            <AltitudeMeters>2398.60009765625</AltitudeMeters>
            <DistanceMeters>4781.1773801349</DistanceMeters>
          </Trackpoint>
          <Trackpoint>
            <Time>2018-04-30T10:05:56.000Z</Time>
            <Position>
              <LatitudeDegrees>42.70673744380474090576171875</LatitudeDegrees>
              <LongitudeDegrees>1.26609980128705501556396484375</LongitudeDegrees>
            </Position>
            <AltitudeMeters>2398.199951171875</AltitudeMeters>
            <DistanceMeters>4784.9064976879</DistanceMeters>
          </Trackpoint>
          <Trackpoint>
            <Time>2018-04-30T10:06:00.000Z</Time>
            <Position>
              <LatitudeDegrees>42.7067141421139240264892578125</LatitudeDegrees>
              <LongitudeDegrees>1.26612578518688678741455078125</LongitudeDegrees>
            </Position>
            <AltitudeMeters>2398.39990234375</AltitudeMeters>
            <DistanceMeters>4788.2608195641</DistanceMeters>
          </Trackpoint>
          <Trackpoint>
            <Time>2018-04-30T10:06:09.000Z</Time>
            <Position>
              <LatitudeDegrees>42.7067121304571628570556640625</LatitudeDegrees>
              <LongitudeDegrees>1.2661818601191043853759765625</LongitudeDegrees>
            </Position>
            <AltitudeMeters>2398.60009765625</AltitudeMeters>
            <DistanceMeters>4792.8517016602</DistanceMeters>
          </Trackpoint>
          <Trackpoint>
            <Time>2018-04-30T10:06:10.000Z</Time>
            <Position>
              <LatitudeDegrees>42.70671305246651172637939453125</LatitudeDegrees>
              <LongitudeDegrees>1.26619468443095684051513671875</LongitudeDegrees>
            </Position>
            <AltitudeMeters>2398.800048828125</AltitudeMeters>
            <DistanceMeters>4793.9013060267</DistanceMeters>
          </Trackpoint>
          <Trackpoint>
            <Time>2018-04-30T10:06:11.000Z</Time>
            <Position>
              <LatitudeDegrees>42.706714309751987457275390625</LatitudeDegrees>
              <LongitudeDegrees>1.26620675437152385711669921875</LongitudeDegrees>
            </Position>
            <AltitudeMeters>2398.800048828125</AltitudeMeters>
            <DistanceMeters>4794.8979546151</DistanceMeters>
          </Trackpoint>
          <Trackpoint>
            <Time>2018-04-30T10:06:26.000Z</Time>
            <Position>
              <LatitudeDegrees>42.70676787011325359344482421875</LatitudeDegrees>
              <LongitudeDegrees>1.266500540077686309814453125</LongitudeDegrees>
            </Position>
            <AltitudeMeters>2397.60009765625</AltitudeMeters>
            <DistanceMeters>4819.6547391091</DistanceMeters>
          </Trackpoint>
          <Trackpoint>
            <Time>2018-04-30T10:06:31.000Z</Time>
            <Position>
              <LatitudeDegrees>42.7068298123776912689208984375</LatitudeDegrees>
              <LongitudeDegrees>1.26667521893978118896484375</LongitudeDegrees>
            </Position>
            <AltitudeMeters>2394.199951171875</AltitudeMeters>
            <DistanceMeters>4835.5182245502</DistanceMeters>
          </Trackpoint>
          <Trackpoint>
            <Time>2018-04-30T10:06:33.000Z</Time>
            <Position>
              <LatitudeDegrees>42.7068425528705120086669921875</LatitudeDegrees>
              <LongitudeDegrees>1.26670715399086475372314453125</LongitudeDegrees>
            </Position>
            <AltitudeMeters>2393.39990234375</AltitudeMeters>
            <DistanceMeters>4838.489994185</DistanceMeters>
          </Trackpoint>
          <Trackpoint>
            <Time>2018-04-30T10:06:36.000Z</Time>
            <Position>
              <LatitudeDegrees>42.706844396889209747314453125</LatitudeDegrees>
              <LongitudeDegrees>1.26674629747867584228515625</LongitudeDegrees>
            </Position>
            <AltitudeMeters>2393.39990234375</AltitudeMeters>
            <DistanceMeters>4841.6970578061</DistanceMeters>
          </Trackpoint>
          <Trackpoint>
            <Time>2018-04-30T10:06:37.000Z</Time>
            <Position>
              <LatitudeDegrees>42.70684540271759033203125</LatitudeDegrees>
              <LongitudeDegrees>1.266756691038608551025390625</LongitudeDegrees>
            </Position>
            <AltitudeMeters>2393.39990234375</AltitudeMeters>
            <DistanceMeters>4842.5522982354</DistanceMeters>
          </Trackpoint>
          <Trackpoint>
            <Time>2018-04-30T10:06:38.000Z</Time>
            <Position>
              <LatitudeDegrees>42.70684481598436832427978515625</LatitudeDegrees>
              <LongitudeDegrees>1.26676783896982669830322265625</LongitudeDegrees>
            </Position>
            <AltitudeMeters>2393.39990234375</AltitudeMeters>
            <DistanceMeters>4843.46376246</DistanceMeters>
          </Trackpoint>
          <Trackpoint>
            <Time>2018-04-30T10:06:59.000Z</Time>
            <Position>
              <LatitudeDegrees>42.7068630047142505645751953125</LatitudeDegrees>
              <LongitudeDegrees>1.267013847827911376953125</LongitudeDegrees>
            </Position>
            <AltitudeMeters>2395.800048828125</AltitudeMeters>
            <DistanceMeters>4863.6859295507</DistanceMeters>
          </Trackpoint>
          <Trackpoint>
            <Time>2018-04-30T10:07:15.000Z</Time>
            <Position>
              <LatitudeDegrees>42.7068459056317806243896484375</LatitudeDegrees>
              <LongitudeDegrees>1.2671752832829952239990234375</LongitudeDegrees>
            </Position>
            <AltitudeMeters>2398.800048828125</AltitudeMeters>
            <DistanceMeters>4877.0255954537</DistanceMeters>
          </Trackpoint>
          <Trackpoint>
            <Time>2018-04-30T10:08:09.000Z</Time>
            <Position>
              <LatitudeDegrees>42.7068348415195941925048828125</LatitudeDegrees>
              <LongitudeDegrees>1.26720705069601535797119140625</LongitudeDegrees>
            </Position>
            <AltitudeMeters>2399.39990234375</AltitudeMeters>
            <DistanceMeters>4879.8984842211</DistanceMeters>
          </Trackpoint>
          <Trackpoint>
            <Time>2018-04-30T10:08:39.000Z</Time>
            <Position>
              <LatitudeDegrees>42.70683123730123043060302734375</LatitudeDegrees>
              <LongitudeDegrees>1.267182491719722747802734375</LongitudeDegrees>
            </Position>
            <AltitudeMeters>2401.60009765625</AltitudeMeters>
            <DistanceMeters>4881.947626858</DistanceMeters>
          </Trackpoint>
          <Trackpoint>
            <Time>2018-04-30T10:08:50.000Z</Time>
            <Position>
              <LatitudeDegrees>42.7068338356912136077880859375</LatitudeDegrees>
              <LongitudeDegrees>1.2672118283808231353759765625</LongitudeDegrees>
            </Position>
            <AltitudeMeters>2401.60009765625</AltitudeMeters>
            <DistanceMeters>4884.3666120865</DistanceMeters>
          </Trackpoint>
          <Trackpoint>
            <Time>2018-04-30T10:08:58.000Z</Time>
            <Position>
              <LatitudeDegrees>42.70682168193161487579345703125</LatitudeDegrees>
              <LongitudeDegrees>1.26728785224258899688720703125</LongitudeDegrees>
            </Position>
            <AltitudeMeters>2401.39990234375</AltitudeMeters>
            <DistanceMeters>4890.7305646988</DistanceMeters>
          </Trackpoint>
          <Trackpoint>
            <Time>2018-04-30T10:09:11.000Z</Time>
            <Position>
              <LatitudeDegrees>42.706812210381031036376953125</LatitudeDegrees>
              <LongitudeDegrees>1.26738105900585651397705078125</LongitudeDegrees>
            </Position>
            <AltitudeMeters>2404.60009765625</AltitudeMeters>
            <DistanceMeters>4898.4259686076</DistanceMeters>
          </Trackpoint>
          <Trackpoint>
            <Time>2018-04-30T10:09:22.000Z</Time>
            <Position>
              <LatitudeDegrees>42.70681321620941162109375</LatitudeDegrees>
              <LongitudeDegrees>1.26746320165693759918212890625</LongitudeDegrees>
            </Position>
            <AltitudeMeters>2407.60009765625</AltitudeMeters>
            <DistanceMeters>4905.1453720201</DistanceMeters>
          </Trackpoint>
          <Trackpoint>
            <Time>2018-04-30T10:09:33.000Z</Time>
            <Position>
              <LatitudeDegrees>42.70678706467151641845703125</LatitudeDegrees>
              <LongitudeDegrees>1.26756931655108928680419921875</LongitudeDegrees>
            </Position>
            <AltitudeMeters>2410.800048828125</AltitudeMeters>
            <DistanceMeters>4914.2995573688</DistanceMeters>
          </Trackpoint>
          <Trackpoint>
            <Time>2018-04-30T10:09:49.000Z</Time>
            <Position>
              <LatitudeDegrees>42.706770636141300201416015625</LatitudeDegrees>
              <LongitudeDegrees>1.26770091243088245391845703125</LongitudeDegrees>
            </Position>
            <AltitudeMeters>2414</AltitudeMeters>
            <DistanceMeters>4925.216468512</DistanceMeters>
          </Trackpoint>
          <Trackpoint>
            <Time>2018-04-30T10:09:50.000Z</Time>
            <Position>
              <LatitudeDegrees>42.70676954649388790130615234375</LatitudeDegrees>
              <LongitudeDegrees>1.26770711503922939300537109375</LongitudeDegrees>
            </Position>
            <AltitudeMeters>2414.199951171875</AltitudeMeters>
            <DistanceMeters>4925.7369512622</DistanceMeters>
          </Trackpoint>
          <Trackpoint>
            <Time>2018-04-30T10:10:19.000Z</Time>
            <Position>
              <LatitudeDegrees>42.70675848238170146942138671875</LatitudeDegrees>
              <LongitudeDegrees>1.2679437361657619476318359375</LongitudeDegrees>
            </Position>
            <AltitudeMeters>2417.199951171875</AltitudeMeters>
            <DistanceMeters>4945.1293869934</DistanceMeters>
          </Trackpoint>
          <Trackpoint>
            <Time>2018-04-30T10:10:36.000Z</Time>
            <Position>
              <LatitudeDegrees>42.70671355538070201873779296875</LatitudeDegrees>
              <LongitudeDegrees>1.26811263151466846466064453125</LongitudeDegrees>
            </Position>
            <AltitudeMeters>2420.39990234375</AltitudeMeters>
            <DistanceMeters>4959.8207751906</DistanceMeters>
          </Trackpoint>
          <Trackpoint>
            <Time>2018-04-30T10:10:42.000Z</Time>
            <Position>
              <LatitudeDegrees>42.70669427700340747833251953125</LatitudeDegrees>
              <LongitudeDegrees>1.2681677006185054779052734375</LongitudeDegrees>
            </Position>
            <AltitudeMeters>2421.60009765625</AltitudeMeters>
            <DistanceMeters>4964.8094514359</DistanceMeters>
          </Trackpoint>
          <Trackpoint>
            <Time>2018-04-30T10:10:56.000Z</Time>
            <Position>
              <LatitudeDegrees>42.70669855177402496337890625</LatitudeDegrees>
              <LongitudeDegrees>1.2682917527854442596435546875</LongitudeDegrees>
            </Position>
            <AltitudeMeters>2424</AltitudeMeters>
            <DistanceMeters>4974.966202555</DistanceMeters>
          </Trackpoint>
          <Trackpoint>
            <Time>2018-04-30T10:11:07.000Z</Time>
            <Position>
              <LatitudeDegrees>42.706696875393390655517578125</LatitudeDegrees>
              <LongitudeDegrees>1.2683977000415325164794921875</LongitudeDegrees>
            </Position>
            <AltitudeMeters>2425.39990234375</AltitudeMeters>
            <DistanceMeters>4983.6339725112</DistanceMeters>
          </Trackpoint>
          <Trackpoint>
            <Time>2018-04-30T10:11:34.000Z</Time>
            <Position>
              <LatitudeDegrees>42.7067459933459758758544921875</LatitudeDegrees>
              <LongitudeDegrees>1.26864069141447544097900390625</LongitudeDegrees>
            </Position>
            <AltitudeMeters>2428.39990234375</AltitudeMeters>
            <DistanceMeters>5004.2462284937</DistanceMeters>
          </Trackpoint>
          <Trackpoint>
            <Time>2018-04-30T10:11:51.000Z</Time>
            <Position>
              <LatitudeDegrees>42.7067555487155914306640625</LatitudeDegrees>
              <LongitudeDegrees>1.26881604082882404327392578125</LongitudeDegrees>
            </Position>
            <AltitudeMeters>2431.60009765625</AltitudeMeters>
            <DistanceMeters>5018.6276356179</DistanceMeters>
          </Trackpoint>
          <Trackpoint>
            <Time>2018-04-30T10:12:15.000Z</Time>
            <Position>
              <LatitudeDegrees>42.70676837302744388580322265625</LatitudeDegrees>
              <LongitudeDegrees>1.26903464086353778839111328125</LongitudeDegrees>
            </Position>
            <AltitudeMeters>2434.800048828125</AltitudeMeters>
            <DistanceMeters>5036.5632828948</DistanceMeters>
          </Trackpoint>
          <Trackpoint>
            <Time>2018-04-30T10:12:33.000Z</Time>
            <Position>
              <LatitudeDegrees>42.7067855559289455413818359375</LatitudeDegrees>
              <LongitudeDegrees>1.26918685622513294219970703125</LongitudeDegrees>
            </Position>
            <AltitudeMeters>2437.800048828125</AltitudeMeters>
            <DistanceMeters>5049.158893759</DistanceMeters>
          </Trackpoint>
          <Trackpoint>
            <Time>2018-04-30T10:12:57.000Z</Time>
            <Position>
              <LatitudeDegrees>42.7068130485713481903076171875</LatitudeDegrees>
              <LongitudeDegrees>1.2694119103252887725830078125</LongitudeDegrees>
            </Position>
            <AltitudeMeters>2441</AltitudeMeters>
            <DistanceMeters>5067.8185209666</DistanceMeters>
          </Trackpoint>
          <Trackpoint>
            <Time>2018-04-30T10:13:15.000Z</Time>
            <Position>
              <LatitudeDegrees>42.70679150708019733428955078125</LatitudeDegrees>
              <LongitudeDegrees>1.26959103159606456756591796875</LongitudeDegrees>
            </Position>
            <AltitudeMeters>2443.60009765625</AltitudeMeters>
            <DistanceMeters>5082.6633849114</DistanceMeters>
          </Trackpoint>
          <Trackpoint>
            <Time>2018-04-30T10:13:28.000Z</Time>
            <Position>
              <LatitudeDegrees>42.70675353705883026123046875</LatitudeDegrees>
              <LongitudeDegrees>1.26970502547919750213623046875</LongitudeDegrees>
            </Position>
            <AltitudeMeters>2446.60009765625</AltitudeMeters>
            <DistanceMeters>5092.8998397203</DistanceMeters>
          </Trackpoint>
          <Trackpoint>
            <Time>2018-04-30T10:13:31.000Z</Time>
            <Position>
              <LatitudeDegrees>42.706745825707912445068359375</LatitudeDegrees>
              <LongitudeDegrees>1.269738636910915374755859375</LongitudeDegrees>
            </Position>
            <AltitudeMeters>2447.199951171875</AltitudeMeters>
            <DistanceMeters>5095.7805757811</DistanceMeters>
          </Trackpoint>
          <Trackpoint>
            <Time>2018-04-30T10:13:54.000Z</Time>
            <Position>
              <LatitudeDegrees>42.70669327117502689361572265625</LatitudeDegrees>
              <LongitudeDegrees>1.26998514868319034576416015625</LongitudeDegrees>
            </Position>
            <AltitudeMeters>2450</AltitudeMeters>
            <DistanceMeters>5116.7735234248</DistanceMeters>
          </Trackpoint>
          <Trackpoint>
            <Time>2018-04-30T10:14:16.000Z</Time>
            <Position>
              <LatitudeDegrees>42.70663090981543064117431640625</LatitudeDegrees>
              <LongitudeDegrees>1.270222105085849761962890625</LongitudeDegrees>
            </Position>
            <AltitudeMeters>2452</AltitudeMeters>
            <DistanceMeters>5137.3594770708</DistanceMeters>
          </Trackpoint>
          <Trackpoint>
            <Time>2018-04-30T10:14:28.000Z</Time>
            <Position>
              <LatitudeDegrees>42.70659168250858783721923828125</LatitudeDegrees>
              <LongitudeDegrees>1.270336098968982696533203125</LongitudeDegrees>
            </Position>
            <AltitudeMeters>2453</AltitudeMeters>
            <DistanceMeters>5147.6548661989</DistanceMeters>
          </Trackpoint>
          <Trackpoint>
            <Time>2018-04-30T10:14:44.000Z</Time>
            <Position>
              <LatitudeDegrees>42.7065461687743663787841796875</LatitudeDegrees>
              <LongitudeDegrees>1.27047264017164707183837890625</LongitudeDegrees>
            </Position>
            <AltitudeMeters>2456</AltitudeMeters>
            <DistanceMeters>5159.9180995857</DistanceMeters>
          </Trackpoint>
          <Trackpoint>
            <Time>2018-04-30T10:15:08.000Z</Time>
            <Position>
              <LatitudeDegrees>42.70649109967052936553955078125</LatitudeDegrees>
              <LongitudeDegrees>1.27068503759801387786865234375</LongitudeDegrees>
            </Position>
            <AltitudeMeters>2458.60009765625</AltitudeMeters>
            <DistanceMeters>5178.3395618719</DistanceMeters>
          </Trackpoint>
          <Trackpoint>
            <Time>2018-04-30T10:15:23.000Z</Time>
            <Position>
              <LatitudeDegrees>42.7064465917646884918212890625</LatitudeDegrees>
              <LongitudeDegrees>1.27081118524074554443359375</LongitudeDegrees>
            </Position>
            <AltitudeMeters>2461.199951171875</AltitudeMeters>
            <DistanceMeters>5189.7846607748</DistanceMeters>
          </Trackpoint>
          <Trackpoint>
            <Time>2018-04-30T10:15:45.000Z</Time>
            <Position>
              <LatitudeDegrees>42.70638649351894855499267578125</LatitudeDegrees>
              <LongitudeDegrees>1.270998604595661163330078125</LongitudeDegrees>
            </Position>
            <AltitudeMeters>2464.39990234375</AltitudeMeters>
            <DistanceMeters>5206.5093625039</DistanceMeters>
          </Trackpoint>
          <Trackpoint>
            <Time>2018-04-30T10:16:05.000Z</Time>
            <Position>
              <LatitudeDegrees>42.70634718239307403564453125</LatitudeDegrees>
              <LongitudeDegrees>1.271173954010009765625</LongitudeDegrees>
            </Position>
            <AltitudeMeters>2467</AltitudeMeters>
            <DistanceMeters>5221.5040239998</DistanceMeters>
          </Trackpoint>
          <Trackpoint>
            <Time>2018-04-30T10:16:21.000Z</Time>
            <Position>
              <LatitudeDegrees>42.7063097991049289703369140625</LatitudeDegrees>
              <LongitudeDegrees>1.27132440917193889617919921875</LongitudeDegrees>
            </Position>
            <AltitudeMeters>2469.800048828125</AltitudeMeters>
            <DistanceMeters>5234.4938665097</DistanceMeters>
          </Trackpoint>
          <Trackpoint>
            <Time>2018-04-30T10:16:41.000Z</Time>
            <Position>
              <LatitudeDegrees>42.70623662509024143218994140625</LatitudeDegrees>
              <LongitudeDegrees>1.2715251557528972625732421875</LongitudeDegrees>
            </Position>
            <AltitudeMeters>2472.800048828125</AltitudeMeters>
            <DistanceMeters>5252.8214627395</DistanceMeters>
          </Trackpoint>
          <Trackpoint>
            <Time>2018-04-30T10:17:03.000Z</Time>
            <Position>
              <LatitudeDegrees>42.70617091096937656402587890625</LatitudeDegrees>
              <LongitudeDegrees>1.2717595137655735015869140625</LongitudeDegrees>
            </Position>
            <AltitudeMeters>2475.199951171875</AltitudeMeters>
            <DistanceMeters>5273.3373320394</DistanceMeters>
          </Trackpoint>
          <Trackpoint>
            <Time>2018-04-30T10:17:24.000Z</Time>
            <Position>
              <LatitudeDegrees>42.7061052806675434112548828125</LatitudeDegrees>
              <LongitudeDegrees>1.27200552262365818023681640625</LongitudeDegrees>
            </Position>
            <AltitudeMeters>2477.60009765625</AltitudeMeters>
            <DistanceMeters>5294.7430354597</DistanceMeters>
          </Trackpoint>
          <Trackpoint>
            <Time>2018-04-30T10:17:43.000Z</Time>
            <Position>
              <LatitudeDegrees>42.70606177859008312225341796875</LatitudeDegrees>
              <LongitudeDegrees>1.2722567282617092132568359375</LongitudeDegrees>
            </Position>
            <AltitudeMeters>2477.39990234375</AltitudeMeters>
            <DistanceMeters>5315.8520174846</DistanceMeters>
          </Trackpoint>
          <Trackpoint>
            <Time>2018-04-30T10:18:03.000Z</Time>
            <Position>
              <LatitudeDegrees>42.7060045301914215087890625</LatitudeDegrees>
              <LongitudeDegrees>1.27250240184366703033447265625</LongitudeDegrees>
            </Position>
            <AltitudeMeters>2478.800048828125</AltitudeMeters>
            <DistanceMeters>5336.9321043395</DistanceMeters>
          </Trackpoint>
          <Trackpoint>
            <Time>2018-04-30T10:18:23.000Z</Time>
            <Position>
              <LatitudeDegrees>42.7059647999703884124755859375</LatitudeDegrees>
              <LongitudeDegrees>1.27275385893881320953369140625</LongitudeDegrees>
            </Position>
            <AltitudeMeters>2480.199951171875</AltitudeMeters>
            <DistanceMeters>5357.9688813352</DistanceMeters>
          </Trackpoint>
          <Trackpoint>
            <Time>2018-04-30T10:18:43.000Z</Time>
            <Position>
              <LatitudeDegrees>42.70593420602381229400634765625</LatitudeDegrees>
              <LongitudeDegrees>1.27300548367202281951904296875</LongitudeDegrees>
            </Position>
            <AltitudeMeters>2480.800048828125</AltitudeMeters>
            <DistanceMeters>5378.8289226506</DistanceMeters>
          </Trackpoint>
          <Trackpoint>
            <Time>2018-04-30T10:19:05.000Z</Time>
            <Position>
              <LatitudeDegrees>42.7059148438274860382080078125</LatitudeDegrees>
              <LongitudeDegrees>1.2732665799558162689208984375</LongitudeDegrees>
            </Position>
            <AltitudeMeters>2483.199951171875</AltitudeMeters>
            <DistanceMeters>5400.2923422259</DistanceMeters>
          </Trackpoint>
          <Trackpoint>
            <Time>2018-04-30T10:19:14.000Z</Time>
            <Position>
              <LatitudeDegrees>42.70589816384017467498779296875</LatitudeDegrees>
              <LongitudeDegrees>1.273364983499050140380859375</LongitudeDegrees>
            </Position>
            <AltitudeMeters>2483.199951171875</AltitudeMeters>
            <DistanceMeters>5408.5514703553</DistanceMeters>
          </Trackpoint>
          <Trackpoint>
            <Time>2018-04-30T10:19:15.000Z</Time>
            <Position>
              <LatitudeDegrees>42.70589799620211124420166015625</LatitudeDegrees>
              <LongitudeDegrees>1.27337537705898284912109375</LongitudeDegrees>
            </Position>
            <AltitudeMeters>2482.800048828125</AltitudeMeters>
            <DistanceMeters>5409.3960862674</DistanceMeters>
          </Trackpoint>
          <Trackpoint>
            <Time>2018-04-30T10:19:26.000Z</Time>
            <Position>
              <LatitudeDegrees>42.70589129067957401275634765625</LatitudeDegrees>
              <LongitudeDegrees>1.273487024009227752685546875</LongitudeDegrees>
            </Position>
            <AltitudeMeters>2485.60009765625</AltitudeMeters>
            <DistanceMeters>5418.5576669469</DistanceMeters>
          </Trackpoint>
          <Trackpoint>
            <Time>2018-04-30T10:19:29.000Z</Time>
            <Position>
              <LatitudeDegrees>42.7058851718902587890625</LatitudeDegrees>
              <LongitudeDegrees>1.27351694740355014801025390625</LongitudeDegrees>
            </Position>
            <AltitudeMeters>2486</AltitudeMeters>
            <DistanceMeters>5421.0986322472</DistanceMeters>
          </Trackpoint>
          <Trackpoint>
            <Time>2018-04-30T10:19:38.000Z</Time>
            <Position>
              <LatitudeDegrees>42.70587779581546783447265625</LatitudeDegrees>
              <LongitudeDegrees>1.27360596321523189544677734375</LongitudeDegrees>
            </Position>
            <AltitudeMeters>2488</AltitudeMeters>
            <DistanceMeters>5428.4249392557</DistanceMeters>
          </Trackpoint>
          <Trackpoint>
            <Time>2018-04-30T10:20:02.000Z</Time>
            <Position>
              <LatitudeDegrees>42.70585675723850727081298828125</LatitudeDegrees>
              <LongitudeDegrees>1.27380008809268474578857421875</LongitudeDegrees>
            </Position>
            <AltitudeMeters>2491.199951171875</AltitudeMeters>
            <DistanceMeters>5444.4740482805</DistanceMeters>
          </Trackpoint>
          <Trackpoint>
            <Time>2018-04-30T10:20:04.000Z</Time>
            <Position>
              <LatitudeDegrees>42.7058585174381732940673828125</LatitudeDegrees>
              <LongitudeDegrees>1.27380444668233394622802734375</LongitudeDegrees>
            </Position>
            <AltitudeMeters>2492.199951171875</AltitudeMeters>
            <DistanceMeters>5444.8772124852</DistanceMeters>
          </Trackpoint>
          <Trackpoint>
            <Time>2018-04-30T10:20:13.000Z</Time>
            <Position>
              <LatitudeDegrees>42.70586379803717136383056640625</LatitudeDegrees>
              <LongitudeDegrees>1.27388927154242992401123046875</LongitudeDegrees>
            </Position>
            <AltitudeMeters>2492.39990234375</AltitudeMeters>
            <DistanceMeters>5451.8395002092</DistanceMeters>
          </Trackpoint>
          <Trackpoint>
            <Time>2018-04-30T10:20:37.000Z</Time>
            <Position>
              <LatitudeDegrees>42.7058253251016139984130859375</LatitudeDegrees>
              <LongitudeDegrees>1.27414860762655735015869140625</LongitudeDegrees>
            </Position>
            <AltitudeMeters>2495</AltitudeMeters>
            <DistanceMeters>5473.478483178</DistanceMeters>
          </Trackpoint>
          <Trackpoint>
            <Time>2018-04-30T10:21:01.000Z</Time>
            <Position>
              <LatitudeDegrees>42.70580931566655635833740234375</LatitudeDegrees>
              <LongitudeDegrees>1.27440827898681163787841796875</LongitudeDegrees>
            </Position>
            <AltitudeMeters>2496.60009765625</AltitudeMeters>
            <DistanceMeters>5494.7913885492</DistanceMeters>
          </Trackpoint>
          <Trackpoint>
            <Time>2018-04-30T10:21:07.000Z</Time>
            <Position>
              <LatitudeDegrees>42.70581048913300037384033203125</LatitudeDegrees>
              <LongitudeDegrees>1.274464689195156097412109375</LongitudeDegrees>
            </Position>
            <AltitudeMeters>2497.800048828125</AltitudeMeters>
            <DistanceMeters>5499.4067921427</DistanceMeters>
          </Trackpoint>
          <Trackpoint>
            <Time>2018-04-30T10:21:26.000Z</Time>
            <Position>
              <LatitudeDegrees>42.70579339005053043365478515625</LatitudeDegrees>
              <LongitudeDegrees>1.27463526092469692230224609375</LongitudeDegrees>
            </Position>
            <AltitudeMeters>2500.800048828125</AltitudeMeters>
            <DistanceMeters>5513.4871091962</DistanceMeters>
          </Trackpoint>
          <Trackpoint>
            <Time>2018-04-30T10:21:30.000Z</Time>
            <Position>
              <LatitudeDegrees>42.70578928291797637939453125</LatitudeDegrees>
              <LongitudeDegrees>1.27467767335474491119384765625</LongitudeDegrees>
            </Position>
            <AltitudeMeters>2501.39990234375</AltitudeMeters>
            <DistanceMeters>5516.9863639251</DistanceMeters>
          </Trackpoint>
          <Trackpoint>
            <Time>2018-04-30T10:21:51.000Z</Time>
            <Position>
              <LatitudeDegrees>42.705773524940013885498046875</LatitudeDegrees>
              <LongitudeDegrees>1.2748648412525653839111328125</LongitudeDegrees>
            </Position>
            <AltitudeMeters>2504.60009765625</AltitudeMeters>
            <DistanceMeters>5532.3947632536</DistanceMeters>
          </Trackpoint>
          <Trackpoint>
            <Time>2018-04-30T10:22:18.000Z</Time>
            <Position>
              <LatitudeDegrees>42.70576137118041515350341796875</LatitudeDegrees>
              <LongitudeDegrees>1.27504295669496059417724609375</LongitudeDegrees>
            </Position>
            <AltitudeMeters>2507.800048828125</AltitudeMeters>
            <DistanceMeters>5547.0251744586</DistanceMeters>
          </Trackpoint>
          <Trackpoint>
            <Time>2018-04-30T10:22:36.000Z</Time>
            <Position>
              <LatitudeDegrees>42.7057693339884281158447265625</LatitudeDegrees>
              <LongitudeDegrees>1.27520053647458553314208984375</LongitudeDegrees>
            </Position>
            <AltitudeMeters>2510.800048828125</AltitudeMeters>
            <DistanceMeters>5559.9439156061</DistanceMeters>
          </Trackpoint>
          <Trackpoint>
            <Time>2018-04-30T10:22:53.000Z</Time>
            <Position>
              <LatitudeDegrees>42.705776207149028778076171875</LatitudeDegrees>
              <LongitudeDegrees>1.27533615566790103912353515625</LongitudeDegrees>
            </Position>
            <AltitudeMeters>2513.800048828125</AltitudeMeters>
            <DistanceMeters>5571.0624472771</DistanceMeters>
          </Trackpoint>
          <Trackpoint>
            <Time>2018-04-30T10:22:59.000Z</Time>
            <Position>
              <LatitudeDegrees>42.7057844214141368865966796875</LatitudeDegrees>
              <LongitudeDegrees>1.27539533190429210662841796875</LongitudeDegrees>
            </Position>
            <AltitudeMeters>2515</AltitudeMeters>
            <DistanceMeters>5575.9882787201</DistanceMeters>
          </Trackpoint>
          <Trackpoint>
            <Time>2018-04-30T10:23:13.000Z</Time>
            <Position>
              <LatitudeDegrees>42.70577830262482166290283203125</LatitudeDegrees>
              <LongitudeDegrees>1.27550664357841014862060546875</LongitudeDegrees>
            </Position>
            <AltitudeMeters>2517.800048828125</AltitudeMeters>
            <DistanceMeters>5585.1177697014</DistanceMeters>
          </Trackpoint>
          <Trackpoint>
            <Time>2018-04-30T10:23:27.000Z</Time>
            <Position>
              <LatitudeDegrees>42.705731950700283050537109375</LatitudeDegrees>
              <LongitudeDegrees>1.275528855621814727783203125</LongitudeDegrees>
            </Position>
            <AltitudeMeters>2520.800048828125</AltitudeMeters>
            <DistanceMeters>5590.5882060035</DistanceMeters>
          </Trackpoint>
          <Trackpoint>
            <Time>2018-04-30T10:23:43.000Z</Time>
            <Position>
              <LatitudeDegrees>42.70572432316839694976806640625</LatitudeDegrees>
              <LongitudeDegrees>1.2756540812551975250244140625</LongitudeDegrees>
            </Position>
            <AltitudeMeters>2523.800048828125</AltitudeMeters>
            <DistanceMeters>5600.8651595447</DistanceMeters>
          </Trackpoint>
          <Trackpoint>
            <Time>2018-04-30T10:24:01.000Z</Time>
            <Position>
              <LatitudeDegrees>42.70572734065353870391845703125</LatitudeDegrees>
              <LongitudeDegrees>1.27574217505753040313720703125</LongitudeDegrees>
            </Position>
            <AltitudeMeters>2524.800048828125</AltitudeMeters>
            <DistanceMeters>5608.0778061043</DistanceMeters>
          </Trackpoint>
          <Trackpoint>
            <Time>2018-04-30T10:24:02.000Z</Time>
            <Position>
              <LatitudeDegrees>42.70572851411998271942138671875</LatitudeDegrees>
              <LongitudeDegrees>1.2757536582648754119873046875</LongitudeDegrees>
            </Position>
            <AltitudeMeters>2525.39990234375</AltitudeMeters>
            <DistanceMeters>5609.028073248</DistanceMeters>
          </Trackpoint>
          <Trackpoint>
            <Time>2018-04-30T10:24:03.000Z</Time>
            <Position>
              <LatitudeDegrees>42.7057284303009510040283203125</LatitudeDegrees>
              <LongitudeDegrees>1.2757643871009349822998046875</LongitudeDegrees>
            </Position>
            <AltitudeMeters>2525.60009765625</AltitudeMeters>
            <DistanceMeters>5609.8990074713</DistanceMeters>
          </Trackpoint>
          <Trackpoint>
            <Time>2018-04-30T10:24:04.000Z</Time>
            <Position>
              <LatitudeDegrees>42.70572516135871410369873046875</LatitudeDegrees>
              <LongitudeDegrees>1.2757757864892482757568359375</LongitudeDegrees>
            </Position>
            <AltitudeMeters>2525.800048828125</AltitudeMeters>
            <DistanceMeters>5610.8956560597</DistanceMeters>
          </Trackpoint>
          <Trackpoint>
            <Time>2018-04-30T10:24:26.000Z</Time>
            <Position>
              <LatitudeDegrees>42.7057539112865924835205078125</LatitudeDegrees>
              <LongitudeDegrees>1.275793723762035369873046875</LongitudeDegrees>
            </Position>
            <AltitudeMeters>2526.199951171875</AltitudeMeters>
            <DistanceMeters>5614.4154948176</DistanceMeters>
          </Trackpoint>
          <Trackpoint>
            <Time>2018-04-30T10:24:32.000Z</Time>
            <Position>
              <LatitudeDegrees>42.70574108697474002838134765625</LatitudeDegrees>
              <LongitudeDegrees>1.2758477032184600830078125</LongitudeDegrees>
            </Position>
            <AltitudeMeters>2527.800048828125</AltitudeMeters>
            <DistanceMeters>5619.0552903133</DistanceMeters>
          </Trackpoint>
          <Trackpoint>
            <Time>2018-04-30T10:24:37.000Z</Time>
            <Position>
              <LatitudeDegrees>42.7057354710996150970458984375</LatitudeDegrees>
              <LongitudeDegrees>1.27589874900877475738525390625</LongitudeDegrees>
            </Position>
            <AltitudeMeters>2528.800048828125</AltitudeMeters>
            <DistanceMeters>5623.2773006047</DistanceMeters>
          </Trackpoint>
          <Trackpoint>
            <Time>2018-04-30T10:24:50.000Z</Time>
            <Position>
              <LatitudeDegrees>42.70571242086589336395263671875</LatitudeDegrees>
              <LongitudeDegrees>1.27602447755634784698486328125</LongitudeDegrees>
            </Position>
            <AltitudeMeters>2532</AltitudeMeters>
            <DistanceMeters>5633.8752292141</DistanceMeters>
          </Trackpoint>
          <Trackpoint>
            <Time>2018-04-30T10:25:08.000Z</Time>
            <Position>
              <LatitudeDegrees>42.7057264186441898345947265625</LatitudeDegrees>
              <LongitudeDegrees>1.27614517696201801300048828125</LongitudeDegrees>
            </Position>
            <AltitudeMeters>2535.199951171875</AltitudeMeters>
            <DistanceMeters>5643.8693112403</DistanceMeters>
          </Trackpoint>
          <Trackpoint>
            <Time>2018-04-30T10:25:40.000Z</Time>
            <Position>
              <LatitudeDegrees>42.7056848444044589996337890625</LatitudeDegrees>
              <LongitudeDegrees>1.276163198053836822509765625</LongitudeDegrees>
            </Position>
            <AltitudeMeters>2535</AltitudeMeters>
            <DistanceMeters>5648.7268404217</DistanceMeters>
          </Trackpoint>
          <Trackpoint>
            <Time>2018-04-30T10:26:16.000Z</Time>
            <Position>
              <LatitudeDegrees>42.7057309448719024658203125</LatitudeDegrees>
              <LongitudeDegrees>1.27613478340208530426025390625</LongitudeDegrees>
            </Position>
            <AltitudeMeters>2534.60009765625</AltitudeMeters>
            <DistanceMeters>5654.3599291502</DistanceMeters>
          </Trackpoint>
          <Trackpoint>
            <Time>2018-04-30T10:27:28.000Z</Time>
            <Position>
              <LatitudeDegrees>42.70577411167323589324951171875</LatitudeDegrees>
              <LongitudeDegrees>1.27611701376736164093017578125</LongitudeDegrees>
            </Position>
            <AltitudeMeters>2534.39990234375</AltitudeMeters>
            <DistanceMeters>5659.3801824661</DistanceMeters>
          </Trackpoint>
          <Trackpoint>
            <Time>2018-04-30T10:28:02.000Z</Time>
            <Position>
              <LatitudeDegrees>42.70577981136739253997802734375</LatitudeDegrees>
              <LongitudeDegrees>1.27609421499073505401611328125</LongitudeDegrees>
            </Position>
            <AltitudeMeters>2534.39990234375</AltitudeMeters>
            <DistanceMeters>5661.3506983556</DistanceMeters>
          </Trackpoint>
          <Trackpoint>
            <Time>2018-04-30T10:28:23.000Z</Time>
            <Position>
              <LatitudeDegrees>42.70578299649059772491455078125</LatitudeDegrees>
              <LongitudeDegrees>1.27618876285851001739501953125</LongitudeDegrees>
            </Position>
            <AltitudeMeters>2535.199951171875</AltitudeMeters>
            <DistanceMeters>5669.0917310569</DistanceMeters>
          </Trackpoint>
          <Trackpoint>
            <Time>2018-04-30T10:29:43.000Z</Time>
            <Position>
              <LatitudeDegrees>42.7057765424251556396484375</LatitudeDegrees>
              <LongitudeDegrees>1.2762713246047496795654296875</LongitudeDegrees>
            </Position>
            <AltitudeMeters>2537.199951171875</AltitudeMeters>
            <DistanceMeters>5675.8826514952</DistanceMeters>
          </Trackpoint>
          <Trackpoint>
            <Time>2018-04-30T10:30:12.000Z</Time>
            <Position>
              <LatitudeDegrees>42.70578333176672458648681640625</LatitudeDegrees>
              <LongitudeDegrees>1.27627358771860599517822265625</LongitudeDegrees>
            </Position>
            <AltitudeMeters>2537.39990234375</AltitudeMeters>
            <DistanceMeters>5676.6662618564</DistanceMeters>
          </Trackpoint>
          <Trackpoint>
            <Time>2018-04-30T10:31:57.000Z</Time>
            <Position>
              <LatitudeDegrees>42.7057689987123012542724609375</LatitudeDegrees>
              <LongitudeDegrees>1.27628213725984096527099609375</LongitudeDegrees>
            </Position>
            <AltitudeMeters>2537.199951171875</AltitudeMeters>
            <DistanceMeters>5678.4081303029</DistanceMeters>
          </Trackpoint>
          <Trackpoint>
            <Time>2018-04-30T10:33:10.000Z</Time>
            <Position>
              <LatitudeDegrees>42.7057622931897640228271484375</LatitudeDegrees>
              <LongitudeDegrees>1.27649771980941295623779296875</LongitudeDegrees>
            </Position>
            <AltitudeMeters>2540.199951171875</AltitudeMeters>
            <DistanceMeters>5696.0565125717</DistanceMeters>
          </Trackpoint>
          <Trackpoint>
            <Time>2018-04-30T10:33:28.000Z</Time>
            <Position>
              <LatitudeDegrees>42.705761454999446868896484375</LatitudeDegrees>
              <LongitudeDegrees>1.27668865956366062164306640625</LongitudeDegrees>
            </Position>
            <AltitudeMeters>2543.39990234375</AltitudeMeters>
            <DistanceMeters>5711.6738863827</DistanceMeters>
          </Trackpoint>
          <Trackpoint>
            <Time>2018-04-30T10:33:54.000Z</Time>
            <Position>
              <LatitudeDegrees>42.7057740278542041778564453125</LatitudeDegrees>
              <LongitudeDegrees>1.27694497816264629364013671875</LongitudeDegrees>
            </Position>
            <AltitudeMeters>2545.60009765625</AltitudeMeters>
            <DistanceMeters>5732.6848924793</DistanceMeters>
          </Trackpoint>
          <Trackpoint>
            <Time>2018-04-30T10:34:17.000Z</Time>
            <Position>
              <LatitudeDegrees>42.70574594847857952117919921875</LatitudeDegrees>
              <LongitudeDegrees>1.27718470059335231781005859375</LongitudeDegrees>
            </Position>
            <AltitudeMeters>2548.60009765625</AltitudeMeters>
            <DistanceMeters>5752.5391093364</DistanceMeters>
          </Trackpoint>
          <Trackpoint>
            <Time>2018-04-30T10:34:34.000Z</Time>
            <Position>
              <LatitudeDegrees>42.70574293099343776702880859375</LatitudeDegrees>
              <LongitudeDegrees>1.2773428671061992645263671875</LongitudeDegrees>
            </Position>
            <AltitudeMeters>2551.800048828125</AltitudeMeters>
            <DistanceMeters>5765.4801988473</DistanceMeters>
          </Trackpoint>
          <Trackpoint>
            <Time>2018-04-30T10:34:52.000Z</Time>
            <Position>
              <LatitudeDegrees>42.70574561320245265960693359375</LatitudeDegrees>
              <LongitudeDegrees>1.277519725263118743896484375</LongitudeDegrees>
            </Position>
            <AltitudeMeters>2554.800048828125</AltitudeMeters>
            <DistanceMeters>5779.9486207421</DistanceMeters>
          </Trackpoint>
          <Trackpoint>
            <Time>2018-04-30T10:35:12.000Z</Time>
            <Position>
              <LatitudeDegrees>42.7057562582194805145263671875</LatitudeDegrees>
              <LongitudeDegrees>1.27772868610918521881103515625</LongitudeDegrees>
            </Position>
            <AltitudeMeters>2558</AltitudeMeters>
            <DistanceMeters>5797.0805959539</DistanceMeters>
          </Trackpoint>
          <Trackpoint>
            <Time>2018-04-30T10:35:35.000Z</Time>
            <Position>
              <LatitudeDegrees>42.705750726163387298583984375</LatitudeDegrees>
              <LongitudeDegrees>1.27797997556626796722412109375</LongitudeDegrees>
            </Position>
            <AltitudeMeters>2559.800048828125</AltitudeMeters>
            <DistanceMeters>5817.6428487307</DistanceMeters>
          </Trackpoint>
          <Trackpoint>
            <Time>2018-04-30T10:35:55.000Z</Time>
            <Position>
              <LatitudeDegrees>42.7057502232491970062255859375</LatitudeDegrees>
              <LongitudeDegrees>1.27817384898662567138671875</LongitudeDegrees>
            </Position>
            <AltitudeMeters>2562.199951171875</AltitudeMeters>
            <DistanceMeters>5833.500071333</DistanceMeters>
          </Trackpoint>
          <Trackpoint>
            <Time>2018-04-30T10:36:20.000Z</Time>
            <Position>
              <LatitudeDegrees>42.70576380193233489990234375</LatitudeDegrees>
              <LongitudeDegrees>1.27841281704604625701904296875</LongitudeDegrees>
            </Position>
            <AltitudeMeters>2565</AltitudeMeters>
            <DistanceMeters>5853.1036932765</DistanceMeters>
          </Trackpoint>
          <Trackpoint>
            <Time>2018-04-30T10:36:40.000Z</Time>
            <Position>
              <LatitudeDegrees>42.7057002671062946319580078125</LatitudeDegrees>
              <LongitudeDegrees>1.27860107459127902984619140625</LongitudeDegrees>
            </Position>
            <AltitudeMeters>2568.199951171875</AltitudeMeters>
            <DistanceMeters>5870.0472522387</DistanceMeters>
          </Trackpoint>
          <Trackpoint>
            <Time>2018-04-30T10:36:55.000Z</Time>
            <Position>
              <LatitudeDegrees>42.70567134954035282135009765625</LatitudeDegrees>
              <LongitudeDegrees>1.278718002140522003173828125</LongitudeDegrees>
            </Position>
            <AltitudeMeters>2570.800048828125</AltitudeMeters>
            <DistanceMeters>5880.1375501483</DistanceMeters>
          </Trackpoint>
          <Trackpoint>
            <Time>2018-04-30T10:37:15.000Z</Time>
            <Position>
              <LatitudeDegrees>42.70567352883517742156982421875</LatitudeDegrees>
              <LongitudeDegrees>1.2789002247154712677001953125</LongitudeDegrees>
            </Position>
            <AltitudeMeters>2573.800048828125</AltitudeMeters>
            <DistanceMeters>5895.0437254116</DistanceMeters>
          </Trackpoint>
          <Trackpoint>
            <Time>2018-04-30T10:37:32.000Z</Time>
            <Position>
              <LatitudeDegrees>42.7056687511503696441650390625</LatitudeDegrees>
              <LongitudeDegrees>1.2790504284203052520751953125</LongitudeDegrees>
            </Position>
            <AltitudeMeters>2576.60009765625</AltitudeMeters>
            <DistanceMeters>5907.3407844149</DistanceMeters>
          </Trackpoint>
          <Trackpoint>
            <Time>2018-04-30T10:37:50.000Z</Time>
            <Position>
              <LatitudeDegrees>42.7056774683296680450439453125</LatitudeDegrees>
              <LongitudeDegrees>1.2792138755321502685546875</LongitudeDegrees>
            </Position>
            <AltitudeMeters>2579.60009765625</AltitudeMeters>
            <DistanceMeters>5920.7446048005</DistanceMeters>
          </Trackpoint>
          <Trackpoint>
            <Time>2018-04-30T10:38:00.000Z</Time>
            <Position>
              <LatitudeDegrees>42.7056818269193172454833984375</LatitudeDegrees>
              <LongitudeDegrees>1.279310770332813262939453125</LongitudeDegrees>
            </Position>
            <AltitudeMeters>2581.199951171875</AltitudeMeters>
            <DistanceMeters>5928.6848814791</DistanceMeters>
          </Trackpoint>
          <Trackpoint>
            <Time>2018-04-30T10:38:06.000Z</Time>
            <Position>
              <LatitudeDegrees>42.70569062791764736175537109375</LatitudeDegrees>
              <LongitudeDegrees>1.279367767274379730224609375</LongitudeDegrees>
            </Position>
            <AltitudeMeters>2582</AltitudeMeters>
            <DistanceMeters>5933.4485546525</DistanceMeters>
          </Trackpoint>
          <Trackpoint>
            <Time>2018-04-30T10:38:29.000Z</Time>
            <Position>
              <LatitudeDegrees>42.705704458057880401611328125</LatitudeDegrees>
              <LongitudeDegrees>1.2795768119394779205322265625</LongitudeDegrees>
            </Position>
            <AltitudeMeters>2585.199951171875</AltitudeMeters>
            <DistanceMeters>5950.61501948</DistanceMeters>
          </Trackpoint>
          <Trackpoint>
            <Time>2018-04-30T10:38:48.000Z</Time>
            <Position>
              <LatitudeDegrees>42.7056962437927722930908203125</LatitudeDegrees>
              <LongitudeDegrees>1.27972559072077274322509765625</LongitudeDegrees>
            </Position>
            <AltitudeMeters>2588.199951171875</AltitudeMeters>
            <DistanceMeters>5962.8177224822</DistanceMeters>
          </Trackpoint>
          <Trackpoint>
            <Time>2018-04-30T10:39:06.000Z</Time>
            <Position>
              <LatitudeDegrees>42.70566732622683048248291015625</LatitudeDegrees>
              <LongitudeDegrees>1.2798602879047393798828125</LongitudeDegrees>
            </Position>
            <AltitudeMeters>2591.199951171875</AltitudeMeters>
            <DistanceMeters>5974.2951244166</DistanceMeters>
          </Trackpoint>
          <Trackpoint>
            <Time>2018-04-30T10:39:31.000Z</Time>
            <Position>
              <LatitudeDegrees>42.70565894432365894317626953125</LatitudeDegrees>
              <LongitudeDegrees>1.27997587434947490692138671875</LongitudeDegrees>
            </Position>
            <AltitudeMeters>2594.39990234375</AltitudeMeters>
            <DistanceMeters>5983.7949446245</DistanceMeters>
          </Trackpoint>
          <Trackpoint>
            <Time>2018-04-30T10:39:47.000Z</Time>
            <Position>
              <LatitudeDegrees>42.705636732280254364013671875</LatitudeDegrees>
              <LongitudeDegrees>1.2800398282706737518310546875</LongitudeDegrees>
            </Position>
            <AltitudeMeters>2597.60009765625</AltitudeMeters>
            <DistanceMeters>5989.5798787901</DistanceMeters>
          </Trackpoint>
          <Trackpoint>
            <Time>2018-04-30T10:39:57.000Z</Time>
            <Position>
              <LatitudeDegrees>42.705635391175746917724609375</LatitudeDegrees>
              <LongitudeDegrees>1.28004594705998897552490234375</LongitudeDegrees>
            </Position>
            <AltitudeMeters>2600.60009765625</AltitudeMeters>
            <DistanceMeters>5990.1003615404</DistanceMeters>
          </Trackpoint>
          <Trackpoint>
            <Time>2018-04-30T10:40:07.000Z</Time>
            <Position>
              <LatitudeDegrees>42.70560152828693389892578125</LatitudeDegrees>
              <LongitudeDegrees>1.2801202945411205291748046875</LongitudeDegrees>
            </Position>
            <AltitudeMeters>2600.39990234375</AltitudeMeters>
            <DistanceMeters>5997.2551853231</DistanceMeters>
          </Trackpoint>
          <Trackpoint>
            <Time>2018-04-30T10:40:31.000Z</Time>
            <Position>
              <LatitudeDegrees>42.7056318707764148712158203125</LatitudeDegrees>
              <LongitudeDegrees>1.28026823513209819793701171875</LongitudeDegrees>
            </Position>
            <AltitudeMeters>2603.60009765625</AltitudeMeters>
            <DistanceMeters>6009.8181338658</DistanceMeters>
          </Trackpoint>
          <Trackpoint>
            <Time>2018-04-30T10:40:32.000Z</Time>
            <Position>
              <LatitudeDegrees>42.7056412585079669952392578125</LatitudeDegrees>
              <LongitudeDegrees>1.28027443774044513702392578125</LongitudeDegrees>
            </Position>
            <AltitudeMeters>2603.800048828125</AltitudeMeters>
            <DistanceMeters>6010.9819686765</DistanceMeters>
          </Trackpoint>
          <Trackpoint>
            <Time>2018-04-30T10:40:33.000Z</Time>
            <Position>
              <LatitudeDegrees>42.70565005950629711151123046875</LatitudeDegrees>
              <LongitudeDegrees>1.28027762286365032196044921875</LongitudeDegrees>
            </Position>
            <AltitudeMeters>2603.800048828125</AltitudeMeters>
            <DistanceMeters>6011.9965763419</DistanceMeters>
          </Trackpoint>
          <Trackpoint>
            <Time>2018-04-30T10:40:34.000Z</Time>
            <Position>
              <LatitudeDegrees>42.7056600339710712432861328125</LatitudeDegrees>
              <LongitudeDegrees>1.2802808918058872222900390625</LongitudeDegrees>
            </Position>
            <AltitudeMeters>2604</AltitudeMeters>
            <DistanceMeters>6013.1408495105</DistanceMeters>
          </Trackpoint>
          <Trackpoint>
            <Time>2018-04-30T10:40:53.000Z</Time>
            <Position>
              <LatitudeDegrees>42.7057539112865924835205078125</LatitudeDegrees>
              <LongitudeDegrees>1.280352137982845306396484375</LongitudeDegrees>
            </Position>
            <AltitudeMeters>2607</AltitudeMeters>
            <DistanceMeters>6025.1051619349</DistanceMeters>
          </Trackpoint>
          <Trackpoint>
            <Time>2018-04-30T10:41:13.000Z</Time>
            <Position>
              <LatitudeDegrees>42.705884166061878204345703125</LatitudeDegrees>
              <LongitudeDegrees>1.28037996590137481689453125</LongitudeDegrees>
            </Position>
            <AltitudeMeters>2608.800048828125</AltitudeMeters>
            <DistanceMeters>6039.7802528413</DistanceMeters>
          </Trackpoint>
          <Trackpoint>
            <Time>2018-04-30T10:41:25.000Z</Time>
            <Position>
              <LatitudeDegrees>42.70595164038240909576416015625</LatitudeDegrees>
              <LongitudeDegrees>1.28035825677216053009033203125</LongitudeDegrees>
            </Position>
            <AltitudeMeters>2610.60009765625</AltitudeMeters>
            <DistanceMeters>6047.4973348124</DistanceMeters>
          </Trackpoint>
          <Trackpoint>
            <Time>2018-04-30T10:41:36.000Z</Time>
            <Position>
              <LatitudeDegrees>42.70601618103682994842529296875</LatitudeDegrees>
              <LongitudeDegrees>1.28034031949937343597412109375</LongitudeDegrees>
            </Position>
            <AltitudeMeters>2612.199951171875</AltitudeMeters>
            <DistanceMeters>6054.8285703832</DistanceMeters>
          </Trackpoint>
          <Trackpoint>
            <Time>2018-04-30T10:41:47.000Z</Time>
            <Position>
              <LatitudeDegrees>42.706090696156024932861328125</LatitudeDegrees>
              <LongitudeDegrees>1.28030997700989246368408203125</LongitudeDegrees>
            </Position>
            <AltitudeMeters>2614.800048828125</AltitudeMeters>
            <DistanceMeters>6063.4853945357</DistanceMeters>
          </Trackpoint>
          <Trackpoint>
            <Time>2018-04-30T10:41:50.000Z</Time>
            <Position>
              <LatitudeDegrees>42.706110142171382904052734375</LatitudeDegrees>
              <LongitudeDegrees>1.2803020142018795013427734375</LongitudeDegrees>
            </Position>
            <AltitudeMeters>2615.199951171875</AltitudeMeters>
            <DistanceMeters>6065.7461517689</DistanceMeters>
          </Trackpoint>
          <Trackpoint>
            <Time>2018-04-30T10:42:01.000Z</Time>
            <Position>
              <LatitudeDegrees>42.7061730064451694488525390625</LatitudeDegrees>
              <LongitudeDegrees>1.28034467808902263641357421875</LongitudeDegrees>
            </Position>
            <AltitudeMeters>2618.199951171875</AltitudeMeters>
            <DistanceMeters>6073.5649507512</DistanceMeters>
          </Trackpoint>
          <Trackpoint>
            <Time>2018-04-30T10:42:19.000Z</Time>
            <Position>
              <LatitudeDegrees>42.706189937889575958251953125</LatitudeDegrees>
              <LongitudeDegrees>1.280492953956127166748046875</LongitudeDegrees>
            </Position>
            <AltitudeMeters>2621.39990234375</AltitudeMeters>
            <DistanceMeters>6085.8381208861</DistanceMeters>
          </Trackpoint>
          <Trackpoint>
            <Time>2018-04-30T10:42:47.000Z</Time>
            <Position>
              <LatitudeDegrees>42.7062056958675384521484375</LatitudeDegrees>
              <LongitudeDegrees>1.2806104682385921478271484375</LongitudeDegrees>
            </Position>
            <AltitudeMeters>2624.60009765625</AltitudeMeters>
            <DistanceMeters>6095.6078654075</DistanceMeters>
          </Trackpoint>
          <Trackpoint>
            <Time>2018-04-30T10:43:17.000Z</Time>
            <Position>
              <LatitudeDegrees>42.7062065340578556060791015625</LatitudeDegrees>
              <LongitudeDegrees>1.28062362782657146453857421875</LongitudeDegrees>
            </Position>
            <AltitudeMeters>2624.60009765625</AltitudeMeters>
            <DistanceMeters>6096.691336652</DistanceMeters>
          </Trackpoint>
          <Trackpoint>
            <Time>2018-04-30T10:43:43.000Z</Time>
            <Position>
              <LatitudeDegrees>42.70620410330593585968017578125</LatitudeDegrees>
              <LongitudeDegrees>1.280617006123065948486328125</LongitudeDegrees>
            </Position>
            <AltitudeMeters>2624.800048828125</AltitudeMeters>
            <DistanceMeters>6097.292338364</DistanceMeters>
          </Trackpoint>
          <Trackpoint>
            <Time>2018-04-30T10:44:08.000Z</Time>
            <Position>
              <LatitudeDegrees>42.7062507905066013336181640625</LatitudeDegrees>
              <LongitudeDegrees>1.280768215656280517578125</LongitudeDegrees>
            </Position>
            <AltitudeMeters>2627.800048828125</AltitudeMeters>
            <DistanceMeters>6110.7069335265</DistanceMeters>
          </Trackpoint>
          <Trackpoint>
            <Time>2018-04-30T10:44:23.000Z</Time>
            <Position>
              <LatitudeDegrees>42.70627551712095737457275390625</LatitudeDegrees>
              <LongitudeDegrees>1.28089654259383678436279296875</LongitudeDegrees>
            </Position>
            <AltitudeMeters>2631</AltitudeMeters>
            <DistanceMeters>6121.5574697656</DistanceMeters>
          </Trackpoint>
          <Trackpoint>
            <Time>2018-04-30T10:44:39.000Z</Time>
            <Position>
              <LatitudeDegrees>42.706327736377716064453125</LatitudeDegrees>
              <LongitudeDegrees>1.281009614467620849609375</LongitudeDegrees>
            </Position>
            <AltitudeMeters>2634</AltitudeMeters>
            <DistanceMeters>6132.4797561518</DistanceMeters>
          </Trackpoint>
          <Trackpoint>
            <Time>2018-04-30T10:44:54.000Z</Time>
            <Position>
              <LatitudeDegrees>42.70640484988689422607421875</LatitudeDegrees>
              <LongitudeDegrees>1.28104674629867076873779296875</LongitudeDegrees>
            </Position>
            <AltitudeMeters>2637</AltitudeMeters>
            <DistanceMeters>6141.5844857884</DistanceMeters>
          </Trackpoint>
          <Trackpoint>
            <Time>2018-04-30T10:45:14.000Z</Time>
            <Position>
              <LatitudeDegrees>42.70651389844715595245361328125</LatitudeDegrees>
              <LongitudeDegrees>1.28113810904324054718017578125</LongitudeDegrees>
            </Position>
            <AltitudeMeters>2640.199951171875</AltitudeMeters>
            <DistanceMeters>6155.8375426451</DistanceMeters>
          </Trackpoint>
          <Trackpoint>
            <Time>2018-04-30T10:45:17.000Z</Time>
            <Position>
              <LatitudeDegrees>42.70652580074965953826904296875</LatitudeDegrees>
              <LongitudeDegrees>1.28115923143923282623291015625</LongitudeDegrees>
            </Position>
            <AltitudeMeters>2640.800048828125</AltitudeMeters>
            <DistanceMeters>6158.012803562</DistanceMeters>
          </Trackpoint>
          <Trackpoint>
            <Time>2018-04-30T10:45:38.000Z</Time>
            <Position>
              <LatitudeDegrees>42.706644572317600250244140625</LatitudeDegrees>
              <LongitudeDegrees>1.28130071796476840972900390625</LongitudeDegrees>
            </Position>
            <AltitudeMeters>2643</AltitudeMeters>
            <DistanceMeters>6175.5816986043</DistanceMeters>
          </Trackpoint>
          <Trackpoint>
            <Time>2018-04-30T10:45:39.000Z</Time>
            <Position>
              <LatitudeDegrees>42.70664951764047145843505859375</LatitudeDegrees>
              <LongitudeDegrees>1.28130943514406681060791015625</LongitudeDegrees>
            </Position>
            <AltitudeMeters>2643.199951171875</AltitudeMeters>
            <DistanceMeters>6176.4832011722</DistanceMeters>
          </Trackpoint>
          <Trackpoint>
            <Time>2018-04-30T10:46:59.000Z</Time>
            <Position>
              <LatitudeDegrees>42.7066819556057453155517578125</LatitudeDegrees>
              <LongitudeDegrees>1.281334497034549713134765625</LongitudeDegrees>
            </Position>
            <AltitudeMeters>2643.60009765625</AltitudeMeters>
            <DistanceMeters>6180.6362056278</DistanceMeters>
          </Trackpoint>
          <Trackpoint>
            <Time>2018-04-30T10:47:07.000Z</Time>
            <Position>
              <LatitudeDegrees>42.70672914572060108184814453125</LatitudeDegrees>
              <LongitudeDegrees>1.28131228499114513397216796875</LongitudeDegrees>
            </Position>
            <AltitudeMeters>2645.199951171875</AltitudeMeters>
            <DistanceMeters>6186.1950653662</DistanceMeters>
          </Trackpoint>
          <Trackpoint>
            <Time>2018-04-30T10:47:13.000Z</Time>
            <Position>
              <LatitudeDegrees>42.70676116459071636199951171875</LatitudeDegrees>
              <LongitudeDegrees>1.281278170645236968994140625</LongitudeDegrees>
            </Position>
            <AltitudeMeters>2646</AltitudeMeters>
            <DistanceMeters>6190.7215699173</DistanceMeters>
          </Trackpoint>
          <Trackpoint>
            <Time>2018-04-30T10:47:30.000Z</Time>
            <Position>
              <LatitudeDegrees>42.70682184956967830657958984375</LatitudeDegrees>
              <LongitudeDegrees>1.2811826169490814208984375</LongitudeDegrees>
            </Position>
            <AltitudeMeters>2649.199951171875</AltitudeMeters>
            <DistanceMeters>6201.0511092711</DistanceMeters>
          </Trackpoint>
          <Trackpoint>
            <Time>2018-04-30T10:47:48.000Z</Time>
            <Position>
              <LatitudeDegrees>42.70690239965915679931640625</LatitudeDegrees>
              <LongitudeDegrees>1.2810687907040119171142578125</LongitudeDegrees>
            </Position>
            <AltitudeMeters>2652.39990234375</AltitudeMeters>
            <DistanceMeters>6213.9761398015</DistanceMeters>
          </Trackpoint>
          <Trackpoint>
            <Time>2018-04-30T10:47:52.000Z</Time>
            <Position>
              <LatitudeDegrees>42.7069176547229290008544921875</LatitudeDegrees>
              <LongitudeDegrees>1.28103685565292835235595703125</LongitudeDegrees>
            </Position>
            <AltitudeMeters>2652.800048828125</AltitudeMeters>
            <DistanceMeters>6217.0903495088</DistanceMeters>
          </Trackpoint>
          <Trackpoint>
            <Time>2018-04-30T10:48:12.000Z</Time>
            <Position>
              <LatitudeDegrees>42.7069810219109058380126953125</LatitudeDegrees>
              <LongitudeDegrees>1.28091531805694103240966796875</LongitudeDegrees>
            </Position>
            <AltitudeMeters>2655.60009765625</AltitudeMeters>
            <DistanceMeters>6229.2786138471</DistanceMeters>
          </Trackpoint>
          <Trackpoint>
            <Time>2018-04-30T10:48:26.000Z</Time>
            <Position>
              <LatitudeDegrees>42.70700390450656414031982421875</LatitudeDegrees>
              <LongitudeDegrees>1.28091380931437015533447265625</LongitudeDegrees>
            </Position>
            <AltitudeMeters>2657.800048828125</AltitudeMeters>
            <DistanceMeters>6231.8302182671</DistanceMeters>
          </Trackpoint>
          <Trackpoint>
            <Time>2018-04-30T10:48:48.000Z</Time>
            <Position>
              <LatitudeDegrees>42.70706123672425746917724609375</LatitudeDegrees>
              <LongitudeDegrees>1.281038112938404083251953125</LongitudeDegrees>
            </Position>
            <AltitudeMeters>2661</AltitudeMeters>
            <DistanceMeters>6243.833337431</DistanceMeters>
          </Trackpoint>
          <Trackpoint>
            <Time>2018-04-30T10:49:17.000Z</Time>
            <Position>
              <LatitudeDegrees>42.70714572630822658538818359375</LatitudeDegrees>
              <LongitudeDegrees>1.28099762834608554840087890625</LongitudeDegrees>
            </Position>
            <AltitudeMeters>2663</AltitudeMeters>
            <DistanceMeters>6253.8029939656</DistanceMeters>
          </Trackpoint>
          <Trackpoint>
            <Time>2018-04-30T10:49:29.000Z</Time>
            <Position>
              <LatitudeDegrees>42.7071932516992092132568359375</LatitudeDegrees>
              <LongitudeDegrees>1.280936188995838165283203125</LongitudeDegrees>
            </Position>
            <AltitudeMeters>2666.60009765625</AltitudeMeters>
            <DistanceMeters>6261.0996596914</DistanceMeters>
          </Trackpoint>
          <Trackpoint>
            <Time>2018-04-30T10:49:31.000Z</Time>
            <Position>
              <LatitudeDegrees>42.70720020867884159088134765625</LatitudeDegrees>
              <LongitudeDegrees>1.280924789607524871826171875</LongitudeDegrees>
            </Position>
            <AltitudeMeters>2667.199951171875</AltitudeMeters>
            <DistanceMeters>6262.3091523056</DistanceMeters>
          </Trackpoint>
          <Trackpoint>
            <Time>2018-04-30T10:49:41.000Z</Time>
            <Position>
              <LatitudeDegrees>42.707240022718906402587890625</LatitudeDegrees>
              <LongitudeDegrees>1.280869133770465850830078125</LongitudeDegrees>
            </Position>
            <AltitudeMeters>2667.60009765625</AltitudeMeters>
            <DistanceMeters>6268.6610324644</DistanceMeters>
          </Trackpoint>
          <Trackpoint>
            <Time>2018-04-30T10:49:56.000Z</Time>
            <Position>
              <LatitudeDegrees>42.707303054630756378173828125</LatitudeDegrees>
              <LongitudeDegrees>1.2807952053844928741455078125</LongitudeDegrees>
            </Position>
            <AltitudeMeters>2671.39990234375</AltitudeMeters>
            <DistanceMeters>6277.9230908867</DistanceMeters>
          </Trackpoint>
          <Trackpoint>
            <Time>2018-04-30T10:50:15.000Z</Time>
            <Position>
              <LatitudeDegrees>42.707304060459136962890625</LatitudeDegrees>
              <LongitudeDegrees>1.28079302608966827392578125</LongitudeDegrees>
            </Position>
            <AltitudeMeters>2674.39990234375</AltitudeMeters>
            <DistanceMeters>6278.1355770797</DistanceMeters>
          </Trackpoint>
          <Trackpoint>
            <Time>2018-04-30T10:50:18.000Z</Time>
            <Position>
              <LatitudeDegrees>42.7073085866868495941162109375</LatitudeDegrees>
              <LongitudeDegrees>1.28078103996813297271728515625</LongitudeDegrees>
            </Position>
            <AltitudeMeters>2671.199951171875</AltitudeMeters>
            <DistanceMeters>6279.2355908267</DistanceMeters>
          </Trackpoint>
          <Trackpoint>
            <Time>2018-04-30T10:50:19.000Z</Time>
            <Position>
              <LatitudeDegrees>42.70731269381940364837646484375</LatitudeDegrees>
              <LongitudeDegrees>1.2807774357497692108154296875</LongitudeDegrees>
            </Position>
            <AltitudeMeters>2671</AltitudeMeters>
            <DistanceMeters>6279.7896870269</DistanceMeters>
          </Trackpoint>
          <Trackpoint>
            <Time>2018-04-30T10:50:40.000Z</Time>
            <Position>
              <LatitudeDegrees>42.707363069057464599609375</LatitudeDegrees>
              <LongitudeDegrees>1.280761174857616424560546875</LongitudeDegrees>
            </Position>
            <AltitudeMeters>2674</AltitudeMeters>
            <DistanceMeters>6285.5519427557</DistanceMeters>
          </Trackpoint>
          <Trackpoint>
            <Time>2018-04-30T10:50:55.000Z</Time>
            <Position>
              <LatitudeDegrees>42.707416377961635589599609375</LatitudeDegrees>
              <LongitudeDegrees>1.280853711068630218505859375</LongitudeDegrees>
            </Position>
            <AltitudeMeters>2677.199951171875</AltitudeMeters>
            <DistanceMeters>6295.1689091661</DistanceMeters>
          </Trackpoint>
          <Trackpoint>
            <Time>2018-04-30T10:51:03.000Z</Time>
            <Position>
              <LatitudeDegrees>42.70743607543408870697021484375</LatitudeDegrees>
              <LongitudeDegrees>1.28091632388532161712646484375</LongitudeDegrees>
            </Position>
            <AltitudeMeters>2678.800048828125</AltitudeMeters>
            <DistanceMeters>6300.7391284312</DistanceMeters>
          </Trackpoint>
          <Trackpoint>
            <Time>2018-04-30T10:51:16.000Z</Time>
            <Position>
              <LatitudeDegrees>42.7074557729065418243408203125</LatitudeDegrees>
              <LongitudeDegrees>1.2810070998966693878173828125</LongitudeDegrees>
            </Position>
            <AltitudeMeters>2682</AltitudeMeters>
            <DistanceMeters>6308.4801611325</DistanceMeters>
          </Trackpoint>
          <Trackpoint>
            <Time>2018-04-30T10:51:45.000Z</Time>
            <Position>
              <LatitudeDegrees>42.707509584724903106689453125</LatitudeDegrees>
              <LongitudeDegrees>1.2811184115707874298095703125</LongitudeDegrees>
            </Position>
            <AltitudeMeters>2685.199951171875</AltitudeMeters>
            <DistanceMeters>6319.3772022556</DistanceMeters>
          </Trackpoint>
          <Trackpoint>
            <Time>2018-04-30T10:51:59.000Z</Time>
            <Position>
              <LatitudeDegrees>42.7075620554387569427490234375</LatitudeDegrees>
              <LongitudeDegrees>1.28102294169366359710693359375</LongitudeDegrees>
            </Position>
            <AltitudeMeters>2688.39990234375</AltitudeMeters>
            <DistanceMeters>6329.1275173685</DistanceMeters>
          </Trackpoint>
          <Trackpoint>
            <Time>2018-04-30T10:52:28.000Z</Time>
            <Position>
              <LatitudeDegrees>42.707681916654109954833984375</LatitudeDegrees>
              <LongitudeDegrees>1.280869133770465850830078125</LongitudeDegrees>
            </Position>
            <AltitudeMeters>2691.39990234375</AltitudeMeters>
            <DistanceMeters>6347.4639801221</DistanceMeters>
          </Trackpoint>
          <Trackpoint>
            <Time>2018-04-30T10:52:49.000Z</Time>
            <Position>
              <LatitudeDegrees>42.70775576122105121612548828125</LatitudeDegrees>
              <LongitudeDegrees>1.28077332861721515655517578125</LongitudeDegrees>
            </Position>
            <AltitudeMeters>2694.60009765625</AltitudeMeters>
            <DistanceMeters>6358.8195730886</DistanceMeters>
          </Trackpoint>
          <Trackpoint>
            <Time>2018-04-30T10:52:52.000Z</Time>
            <Position>
              <LatitudeDegrees>42.70776615478098392486572265625</LatitudeDegrees>
              <LongitudeDegrees>1.28076025284826755523681640625</LongitudeDegrees>
            </Position>
            <AltitudeMeters>2696</AltitudeMeters>
            <DistanceMeters>6360.3954128717</DistanceMeters>
          </Trackpoint>
          <Trackpoint>
            <Time>2018-04-30T10:52:55.000Z</Time>
            <Position>
              <LatitudeDegrees>42.707775793969631195068359375</LatitudeDegrees>
              <LongitudeDegrees>1.2807668745517730712890625</LongitudeDegrees>
            </Position>
            <AltitudeMeters>2694.199951171875</AltitudeMeters>
            <DistanceMeters>6361.5974162956</DistanceMeters>
          </Trackpoint>
          <Trackpoint>
            <Time>2018-04-30T10:53:20.000Z</Time>
            <Position>
              <LatitudeDegrees>42.70779423415660858154296875</LatitudeDegrees>
              <LongitudeDegrees>1.2808129750192165374755859375</LongitudeDegrees>
            </Position>
            <AltitudeMeters>2695.800048828125</AltitudeMeters>
            <DistanceMeters>6365.8915304183</DistanceMeters>
          </Trackpoint>
          <Trackpoint>
            <Time>2018-04-30T10:54:03.000Z</Time>
            <Position>
              <LatitudeDegrees>42.70777923054993152618408203125</LatitudeDegrees>
              <LongitudeDegrees>1.2808176688849925994873046875</LongitudeDegrees>
            </Position>
            <AltitudeMeters>2699.199951171875</AltitudeMeters>
            <DistanceMeters>6367.6046488743</DistanceMeters>
          </Trackpoint>
          <Trackpoint>
            <Time>2018-04-30T10:54:28.000Z</Time>
            <Position>
              <LatitudeDegrees>42.70778886973857879638671875</LatitudeDegrees>
              <LongitudeDegrees>1.2807995639741420745849609375</LongitudeDegrees>
            </Position>
            <AltitudeMeters>2696.199951171875</AltitudeMeters>
            <DistanceMeters>6369.4325242213</DistanceMeters>
          </Trackpoint>
          <Trackpoint>
            <Time>2018-04-30T10:54:52.000Z</Time>
            <Position>
              <LatitudeDegrees>42.70780362188816070556640625</LatitudeDegrees>
              <LongitudeDegrees>1.28086854703724384307861328125</LongitudeDegrees>
            </Position>
            <AltitudeMeters>2699.60009765625</AltitudeMeters>
            <DistanceMeters>6375.3088336347</DistanceMeters>
          </Trackpoint>
          <Trackpoint>
            <Time>2018-04-30T10:55:18.000Z</Time>
            <Position>
              <LatitudeDegrees>42.70784310065209865570068359375</LatitudeDegrees>
              <LongitudeDegrees>1.28105076961219310760498046875</LongitudeDegrees>
            </Position>
            <AltitudeMeters>2702.39990234375</AltitudeMeters>
            <DistanceMeters>6390.8462099786</DistanceMeters>
          </Trackpoint>
          <Trackpoint>
            <Time>2018-04-30T10:55:22.000Z</Time>
            <Position>
              <LatitudeDegrees>42.707856595516204833984375</LatitudeDegrees>
              <LongitudeDegrees>1.28108228556811809539794921875</LongitudeDegrees>
            </Position>
            <AltitudeMeters>2703.199951171875</AltitudeMeters>
            <DistanceMeters>6393.8301093358</DistanceMeters>
          </Trackpoint>
          <Trackpoint>
            <Time>2018-04-30T10:55:29.000Z</Time>
            <Position>
              <LatitudeDegrees>42.70787528716027736663818359375</LatitudeDegrees>
              <LongitudeDegrees>1.2811274640262126922607421875</LongitudeDegrees>
            </Position>
            <AltitudeMeters>2704.800048828125</AltitudeMeters>
            <DistanceMeters>6398.0702605359</DistanceMeters>
          </Trackpoint>
          <Trackpoint>
            <Time>2018-04-30T10:55:55.000Z</Time>
            <Position>
              <LatitudeDegrees>42.7078886143863201141357421875</LatitudeDegrees>
              <LongitudeDegrees>1.281175576150417327880859375</LongitudeDegrees>
            </Position>
            <AltitudeMeters>2706</AltitudeMeters>
            <DistanceMeters>6402.275125537</DistanceMeters>
          </Trackpoint>
          <Trackpoint>
            <Time>2018-04-30T10:56:22.000Z</Time>
            <Position>
              <LatitudeDegrees>42.7079496346414089202880859375</LatitudeDegrees>
              <LongitudeDegrees>1.28100768662989139556884765625</LongitudeDegrees>
            </Position>
            <AltitudeMeters>2708.60009765625</AltitudeMeters>
            <DistanceMeters>6417.5941864294</DistanceMeters>
          </Trackpoint>
          <Trackpoint>
            <Time>2018-04-30T10:56:32.000Z</Time>
            <Position>
              <LatitudeDegrees>42.70798475481569766998291015625</LatitudeDegrees>
              <LongitudeDegrees>1.28093727864325046539306640625</LongitudeDegrees>
            </Position>
            <AltitudeMeters>2711.199951171875</AltitudeMeters>
            <DistanceMeters>6424.553879673</DistanceMeters>
          </Trackpoint>
          <Trackpoint>
            <Time>2018-04-30T10:57:09.000Z</Time>
            <Position>
              <LatitudeDegrees>42.708067484200000762939453125</LatitudeDegrees>
              <LongitudeDegrees>1.2808119691908359527587890625</LongitudeDegrees>
            </Position>
            <AltitudeMeters>2713.199951171875</AltitudeMeters>
            <DistanceMeters>6438.331442481</DistanceMeters>
          </Trackpoint>
          <Trackpoint>
            <Time>2018-04-30T10:57:24.000Z</Time>
            <Position>
              <LatitudeDegrees>42.70812339149415493011474609375</LatitudeDegrees>
              <LongitudeDegrees>1.28070853650569915771484375</LongitudeDegrees>
            </Position>
            <AltitudeMeters>2716.199951171875</AltitudeMeters>
            <DistanceMeters>6448.8335067394</DistanceMeters>
          </Trackpoint>
          <Trackpoint>
            <Time>2018-04-30T10:57:42.000Z</Time>
            <Position>
              <LatitudeDegrees>42.708185501396656036376953125</LatitudeDegrees>
              <LongitudeDegrees>1.280588842928409576416015625</LongitudeDegrees>
            </Position>
            <AltitudeMeters>2719.199951171875</AltitudeMeters>
            <DistanceMeters>6460.8174266225</DistanceMeters>
          </Trackpoint>
          <Trackpoint>
            <Time>2018-04-30T10:58:08.000Z</Time>
            <Position>
              <LatitudeDegrees>42.70822514779865741729736328125</LatitudeDegrees>
              <LongitudeDegrees>1.28061197698116302490234375</LongitudeDegrees>
            </Position>
            <AltitudeMeters>2722.39990234375</AltitudeMeters>
            <DistanceMeters>6465.6179219183</DistanceMeters>
          </Trackpoint>
          <Trackpoint>
            <Time>2018-04-30T10:58:41.000Z</Time>
            <Position>
              <LatitudeDegrees>42.70824392326176166534423828125</LatitudeDegrees>
              <LongitudeDegrees>1.28075547516345977783203125</LongitudeDegrees>
            </Position>
            <AltitudeMeters>2725.60009765625</AltitudeMeters>
            <DistanceMeters>6477.5383784079</DistanceMeters>
          </Trackpoint>
          <Trackpoint>
            <Time>2018-04-30T10:59:14.000Z</Time>
            <Position>
              <LatitudeDegrees>42.7083036862313747406005859375</LatitudeDegrees>
              <LongitudeDegrees>1.28071113489568233489990234375</LongitudeDegrees>
            </Position>
            <AltitudeMeters>2728.800048828125</AltitudeMeters>
            <DistanceMeters>6485.114338141</DistanceMeters>
          </Trackpoint>
          <Trackpoint>
            <Time>2018-04-30T10:59:27.000Z</Time>
            <Position>
              <LatitudeDegrees>42.70835489965975284576416015625</LatitudeDegrees>
              <LongitudeDegrees>1.28062714822590351104736328125</LongitudeDegrees>
            </Position>
            <AltitudeMeters>2731.800048828125</AltitudeMeters>
            <DistanceMeters>6494.0397700291</DistanceMeters>
          </Trackpoint>
          <Trackpoint>
            <Time>2018-04-30T10:59:47.000Z</Time>
            <Position>
              <LatitudeDegrees>42.70843603648245334625244140625</LatitudeDegrees>
              <LongitudeDegrees>1.2805424071848392486572265625</LongitudeDegrees>
            </Position>
            <AltitudeMeters>2735</AltitudeMeters>
            <DistanceMeters>6505.4231613064</DistanceMeters>
          </Trackpoint>
          <Trackpoint>
            <Time>2018-04-30T11:00:20.000Z</Time>
            <Position>
              <LatitudeDegrees>42.70850644446909427642822265625</LatitudeDegrees>
              <LongitudeDegrees>1.28046420402824878692626953125</LongitudeDegrees>
            </Position>
            <AltitudeMeters>2737.39990234375</AltitudeMeters>
            <DistanceMeters>6515.5380397589</DistanceMeters>
          </Trackpoint>
          <Trackpoint>
            <Time>2018-04-30T11:00:57.000Z</Time>
            <Position>
              <LatitudeDegrees>42.708544246852397918701171875</LatitudeDegrees>
              <LongitudeDegrees>1.28051483072340488433837890625</LongitudeDegrees>
            </Position>
            <AltitudeMeters>2740.60009765625</AltitudeMeters>
            <DistanceMeters>6521.4404151215</DistanceMeters>
          </Trackpoint>
          <Trackpoint>
            <Time>2018-04-30T11:01:17.000Z</Time>
            <Position>
              <LatitudeDegrees>42.708558999001979827880859375</LatitudeDegrees>
              <LongitudeDegrees>1.2806852348148822784423828125</LongitudeDegrees>
            </Position>
            <AltitudeMeters>2743.800048828125</AltitudeMeters>
            <DistanceMeters>6535.4735155305</DistanceMeters>
          </Trackpoint>
          <Trackpoint>
            <Time>2018-04-30T11:01:40.000Z</Time>
            <Position>
              <LatitudeDegrees>42.708577103912830352783203125</LatitudeDegrees>
              <LongitudeDegrees>1.2808739952743053436279296875</LongitudeDegrees>
            </Position>
            <AltitudeMeters>2747</AltitudeMeters>
            <DistanceMeters>6551.0422441847</DistanceMeters>
          </Trackpoint>
          <Trackpoint>
            <Time>2018-04-30T11:02:04.000Z</Time>
            <Position>
              <LatitudeDegrees>42.7085973881185054779052734375</LatitudeDegrees>
              <LongitudeDegrees>1.28102696500718593597412109375</LongitudeDegrees>
            </Position>
            <AltitudeMeters>2750</AltitudeMeters>
            <DistanceMeters>6563.7552417932</DistanceMeters>
          </Trackpoint>
          <Trackpoint>
            <Time>2018-04-30T11:02:28.000Z</Time>
            <Position>
              <LatitudeDegrees>42.70862630568444728851318359375</LatitudeDegrees>
              <LongitudeDegrees>1.28097273409366607666015625</LongitudeDegrees>
            </Position>
            <AltitudeMeters>2750.199951171875</AltitudeMeters>
            <DistanceMeters>6569.2355733756</DistanceMeters>
          </Trackpoint>
          <Trackpoint>
            <Time>2018-04-30T11:02:43.000Z</Time>
            <Position>
              <LatitudeDegrees>42.70868749357759952545166015625</LatitudeDegrees>
              <LongitudeDegrees>1.28088916651904582977294921875</LongitudeDegrees>
            </Position>
            <AltitudeMeters>2753.199951171875</AltitudeMeters>
            <DistanceMeters>6578.8844120693</DistanceMeters>
          </Trackpoint>
          <Trackpoint>
            <Time>2018-04-30T11:03:10.000Z</Time>
            <Position>
              <LatitudeDegrees>42.70877416245639324188232421875</LatitudeDegrees>
              <LongitudeDegrees>1.2808106280863285064697265625</LongitudeDegrees>
            </Position>
            <AltitudeMeters>2756.199951171875</AltitudeMeters>
            <DistanceMeters>6590.4737760306</DistanceMeters>
          </Trackpoint>
          <Trackpoint>
            <Time>2018-04-30T11:03:25.000Z</Time>
            <Position>
              <LatitudeDegrees>42.708842642605304718017578125</LatitudeDegrees>
              <LongitudeDegrees>1.280731000006198883056640625</LongitudeDegrees>
            </Position>
            <AltitudeMeters>2759.39990234375</AltitudeMeters>
            <DistanceMeters>6600.4994321636</DistanceMeters>
          </Trackpoint>
          <Trackpoint>
            <Time>2018-04-30T11:03:33.000Z</Time>
            <Position>
              <LatitudeDegrees>42.708850689232349395751953125</LatitudeDegrees>
              <LongitudeDegrees>1.2807348556816577911376953125</LongitudeDegrees>
            </Position>
            <AltitudeMeters>2760.60009765625</AltitudeMeters>
            <DistanceMeters>6601.4544388237</DistanceMeters>
          </Trackpoint>
          <Trackpoint>
            <Time>2018-04-30T11:05:09.000Z</Time>
            <Position>
              <LatitudeDegrees>42.7088428102433681488037109375</LatitudeDegrees>
              <LongitudeDegrees>1.2809034995734691619873046875</LongitudeDegrees>
            </Position>
            <AltitudeMeters>2761.60009765625</AltitudeMeters>
            <DistanceMeters>6615.2751915897</DistanceMeters>
          </Trackpoint>
          <Trackpoint>
            <Time>2018-04-30T11:05:37.000Z</Time>
            <Position>
              <LatitudeDegrees>42.7089095301926136016845703125</LatitudeDegrees>
              <LongitudeDegrees>1.28085161559283733367919921875</LongitudeDegrees>
            </Position>
            <AltitudeMeters>2764.800048828125</AltitudeMeters>
            <DistanceMeters>6623.827595883</DistanceMeters>
          </Trackpoint>
          <Trackpoint>
            <Time>2018-04-30T11:05:55.000Z</Time>
            <Position>
              <LatitudeDegrees>42.70899175666272640228271484375</LatitudeDegrees>
              <LongitudeDegrees>1.2807874940335750579833984375</LongitudeDegrees>
            </Position>
            <AltitudeMeters>2768</AltitudeMeters>
            <DistanceMeters>6634.3759892177</DistanceMeters>
          </Trackpoint>
          <Trackpoint>
            <Time>2018-04-30T11:06:01.000Z</Time>
            <Position>
              <LatitudeDegrees>42.709028385579586029052734375</LatitudeDegrees>
              <LongitudeDegrees>1.2807646952569484710693359375</LongitudeDegrees>
            </Position>
            <AltitudeMeters>2769.60009765625</AltitudeMeters>
            <DistanceMeters>6638.8593975377</DistanceMeters>
          </Trackpoint>
          <Trackpoint>
            <Time>2018-04-30T11:06:37.000Z</Time>
            <Position>
              <LatitudeDegrees>42.7090013958513736724853515625</LatitudeDegrees>
              <LongitudeDegrees>1.28094993531703948974609375</LongitudeDegrees>
            </Position>
            <AltitudeMeters>2772.800048828125</AltitudeMeters>
            <DistanceMeters>6654.3040891612</DistanceMeters>
          </Trackpoint>
          <Trackpoint>
            <Time>2018-04-30T11:06:50.000Z</Time>
            <Position>
              <LatitudeDegrees>42.7089819498360157012939453125</LatitudeDegrees>
              <LongitudeDegrees>1.281013302505016326904296875</LongitudeDegrees>
            </Position>
            <AltitudeMeters>2775.800048828125</AltitudeMeters>
            <DistanceMeters>6659.9203207286</DistanceMeters>
          </Trackpoint>
          <Trackpoint>
            <Time>2018-04-30T11:07:30.000Z</Time>
            <Position>
              <LatitudeDegrees>42.70910558290779590606689453125</LatitudeDegrees>
              <LongitudeDegrees>1.28087005577981472015380859375</LongitudeDegrees>
            </Position>
            <AltitudeMeters>2778.199951171875</AltitudeMeters>
            <DistanceMeters>6677.9923932391</DistanceMeters>
          </Trackpoint>
          <Trackpoint>
            <Time>2018-04-30T11:07:32.000Z</Time>
            <Position>
              <LatitudeDegrees>42.709113545715808868408203125</LatitudeDegrees>
              <LongitudeDegrees>1.28086217679083347320556640625</LongitudeDegrees>
            </Position>
            <AltitudeMeters>2778.39990234375</AltitudeMeters>
            <DistanceMeters>6679.0841670667</DistanceMeters>
          </Trackpoint>
          <Trackpoint>
            <Time>2018-04-30T11:08:14.000Z</Time>
            <Position>
              <LatitudeDegrees>42.7091515995562076568603515625</LatitudeDegrees>
              <LongitudeDegrees>1.28088765777647495269775390625</LongitudeDegrees>
            </Position>
            <AltitudeMeters>2781.39990234375</AltitudeMeters>
            <DistanceMeters>6683.8040397967</DistanceMeters>
          </Trackpoint>
          <Trackpoint>
            <Time>2018-04-30T11:09:13.000Z</Time>
            <Position>
              <LatitudeDegrees>42.70913374610245227813720703125</LatitudeDegrees>
              <LongitudeDegrees>1.2809544615447521209716796875</LongitudeDegrees>
            </Position>
            <AltitudeMeters>2782.60009765625</AltitudeMeters>
            <DistanceMeters>6689.6170034172</DistanceMeters>
          </Trackpoint>
          <Trackpoint>
            <Time>2018-04-30T11:09:59.000Z</Time>
            <Position>
              <LatitudeDegrees>42.70915470086038112640380859375</LatitudeDegrees>
              <LongitudeDegrees>1.2809826247394084930419921875</LongitudeDegrees>
            </Position>
            <AltitudeMeters>2785.60009765625</AltitudeMeters>
            <DistanceMeters>6692.8937031123</DistanceMeters>
          </Trackpoint>
          <Trackpoint>
            <Time>2018-04-30T11:10:14.000Z</Time>
            <Position>
              <LatitudeDegrees>42.70921488292515277862548828125</LatitudeDegrees>
              <LongitudeDegrees>1.28096695058047771453857421875</LongitudeDegrees>
            </Position>
            <AltitudeMeters>2788.800048828125</AltitudeMeters>
            <DistanceMeters>6699.7138148242</DistanceMeters>
          </Trackpoint>
          <Trackpoint>
            <Time>2018-04-30T11:11:03.000Z</Time>
            <Position>
              <LatitudeDegrees>42.709272801876068115234375</LatitudeDegrees>
              <LongitudeDegrees>1.2809112109243869781494140625</LongitudeDegrees>
            </Position>
            <AltitudeMeters>2790</AltitudeMeters>
            <DistanceMeters>6707.6096141991</DistanceMeters>
          </Trackpoint>
          <Trackpoint>
            <Time>2018-04-30T11:11:19.000Z</Time>
            <Position>
              <LatitudeDegrees>42.70926634781062602996826171875</LatitudeDegrees>
              <LongitudeDegrees>1.2809009850025177001953125</LongitudeDegrees>
            </Position>
            <AltitudeMeters>2790</AltitudeMeters>
            <DistanceMeters>6708.7096279461</DistanceMeters>
          </Trackpoint>
          <Trackpoint>
            <Time>2018-04-30T11:11:34.000Z</Time>
            <Position>
              <LatitudeDegrees>42.70926131866872310638427734375</LatitudeDegrees>
              <LongitudeDegrees>1.2809051759541034698486328125</LongitudeDegrees>
            </Position>
            <AltitudeMeters>2790.60009765625</AltitudeMeters>
            <DistanceMeters>6709.3679923355</DistanceMeters>
          </Trackpoint>
          <Trackpoint>
            <Time>2018-04-30T11:11:54.000Z</Time>
            <Position>
              <LatitudeDegrees>42.709275819361209869384765625</LatitudeDegrees>
              <LongitudeDegrees>1.28092738799750804901123046875</LongitudeDegrees>
            </Position>
            <AltitudeMeters>2790</AltitudeMeters>
            <DistanceMeters>6711.7981507654</DistanceMeters>
          </Trackpoint>
          <Trackpoint>
            <Time>2018-04-30T11:14:29.000Z</Time>
            <Position>
              <LatitudeDegrees>42.70926232449710369110107421875</LatitudeDegrees>
              <LongitudeDegrees>1.2809189222753047943115234375</LongitudeDegrees>
            </Position>
            <AltitudeMeters>2790.39990234375</AltitudeMeters>
            <DistanceMeters>6713.4522708223</DistanceMeters>
          </Trackpoint>
          <Trackpoint>
            <Time>2018-04-30T11:15:13.000Z</Time>
            <Position>
              <LatitudeDegrees>42.7092753164470195770263671875</LatitudeDegrees>
              <LongitudeDegrees>1.28092738799750804901123046875</LongitudeDegrees>
            </Position>
            <AltitudeMeters>2789.60009765625</AltitudeMeters>
            <DistanceMeters>6715.0593183832</DistanceMeters>
          </Trackpoint>
          <Trackpoint>
            <Time>2018-04-30T11:16:04.000Z</Time>
            <Position>
              <LatitudeDegrees>42.70926542580127716064453125</LatitudeDegrees>
              <LongitudeDegrees>1.2809262983500957489013671875</LongitudeDegrees>
            </Position>
            <AltitudeMeters>2789.800048828125</AltitudeMeters>
            <DistanceMeters>6716.1675107836</DistanceMeters>
          </Trackpoint>
          <Trackpoint>
            <Time>2018-04-30T11:17:08.000Z</Time>
            <Position>
              <LatitudeDegrees>42.709266431629657745361328125</LatitudeDegrees>
              <LongitudeDegrees>1.28095521591603755950927734375</LongitudeDegrees>
            </Position>
            <AltitudeMeters>2789</AltitudeMeters>
            <DistanceMeters>6718.5336568897</DistanceMeters>
          </Trackpoint>
          <Trackpoint>
            <Time>2018-04-30T11:17:15.000Z</Time>
            <Position>
              <LatitudeDegrees>42.70926115103065967559814453125</LatitudeDegrees>
              <LongitudeDegrees>1.280930824577808380126953125</LongitudeDegrees>
            </Position>
            <AltitudeMeters>2789.39990234375</AltitudeMeters>
            <DistanceMeters>6720.6134180819</DistanceMeters>
          </Trackpoint>
          <Trackpoint>
            <Time>2018-04-30T11:17:50.000Z</Time>
            <Position>
              <LatitudeDegrees>42.70927011966705322265625</LatitudeDegrees>
              <LongitudeDegrees>1.280956305563449859619140625</LongitudeDegrees>
            </Position>
            <AltitudeMeters>2788.60009765625</AltitudeMeters>
            <DistanceMeters>6722.9235642198</DistanceMeters>
          </Trackpoint>
          <Trackpoint>
            <Time>2018-04-30T11:17:52.000Z</Time>
            <Position>
              <LatitudeDegrees>42.70926282741129398345947265625</LatitudeDegrees>
              <LongitudeDegrees>1.280950605869293212890625</LongitudeDegrees>
            </Position>
            <AltitudeMeters>2788.60009765625</AltitudeMeters>
            <DistanceMeters>6723.859468817</DistanceMeters>
          </Trackpoint>
          <Trackpoint>
            <Time>2018-04-30T11:19:40.000Z</Time>
            <Position>
              <LatitudeDegrees>42.70925830118358135223388671875</LatitudeDegrees>
              <LongitudeDegrees>1.28089318983256816864013671875</LongitudeDegrees>
            </Position>
            <AltitudeMeters>2789</AltitudeMeters>
            <DistanceMeters>6728.5822104801</DistanceMeters>
          </Trackpoint>
          <Trackpoint>
            <Time>2018-04-30T11:21:18.000Z</Time>
            <Position>
              <LatitudeDegrees>42.70925511606037616729736328125</LatitudeDegrees>
              <LongitudeDegrees>1.28090701997280120849609375</LongitudeDegrees>
            </Position>
            <AltitudeMeters>2789.39990234375</AltitudeMeters>
            <DistanceMeters>6729.7690937622</DistanceMeters>
          </Trackpoint>
          <Trackpoint>
            <Time>2018-04-30T11:21:43.000Z</Time>
            <Position>
              <LatitudeDegrees>42.70925662480294704437255859375</LatitudeDegrees>
              <LongitudeDegrees>1.28091095946729183197021484375</LongitudeDegrees>
            </Position>
            <AltitudeMeters>2789.39990234375</AltitudeMeters>
            <DistanceMeters>6730.1246511699</DistanceMeters>
          </Trackpoint>
          <Trackpoint>
            <Time>2018-04-30T11:22:08.000Z</Time>
            <Position>
              <LatitudeDegrees>42.7092454768717288970947265625</LatitudeDegrees>
              <LongitudeDegrees>1.28106049261987209320068359375</LongitudeDegrees>
            </Position>
            <AltitudeMeters>2792.39990234375</AltitudeMeters>
            <DistanceMeters>6742.4173034148</DistanceMeters>
          </Trackpoint>
          <Trackpoint>
            <Time>2018-04-30T11:22:25.000Z</Time>
            <Position>
              <LatitudeDegrees>42.70923851989209651947021484375</LatitudeDegrees>
              <LongitudeDegrees>1.281168870627880096435546875</LongitudeDegrees>
            </Position>
            <AltitudeMeters>2795.60009765625</AltitudeMeters>
            <DistanceMeters>6751.3153768164</DistanceMeters>
          </Trackpoint>
          <Trackpoint>
            <Time>2018-04-30T11:22:42.000Z</Time>
            <Position>
              <LatitudeDegrees>42.7092555351555347442626953125</LatitudeDegrees>
              <LongitudeDegrees>1.28124271519482135772705078125</LongitudeDegrees>
            </Position>
            <AltitudeMeters>2798.60009765625</AltitudeMeters>
            <DistanceMeters>6757.6444698877</DistanceMeters>
          </Trackpoint>
          <Trackpoint>
            <Time>2018-04-30T11:22:58.000Z</Time>
            <Position>
              <LatitudeDegrees>42.70926903001964092254638671875</LatitudeDegrees>
              <LongitudeDegrees>1.2813024781644344329833984375</LongitudeDegrees>
            </Position>
            <AltitudeMeters>2802</AltitudeMeters>
            <DistanceMeters>6762.758284646</DistanceMeters>
          </Trackpoint>
          <Trackpoint>
            <Time>2018-04-30T11:23:06.000Z</Time>
            <Position>
              <LatitudeDegrees>42.7092634141445159912109375</LatitudeDegrees>
              <LongitudeDegrees>1.28130801022052764892578125</LongitudeDegrees>
            </Position>
            <AltitudeMeters>2800.39990234375</AltitudeMeters>
            <DistanceMeters>6763.530285323</DistanceMeters>
          </Trackpoint>
          <Trackpoint>
            <Time>2018-04-30T11:23:17.000Z</Time>
            <Position>
              <LatitudeDegrees>42.70927841775119304656982421875</LatitudeDegrees>
              <LongitudeDegrees>1.28134849481284618377685546875</LongitudeDegrees>
            </Position>
            <AltitudeMeters>2803.60009765625</AltitudeMeters>
            <DistanceMeters>6767.2375452744</DistanceMeters>
          </Trackpoint>
          <Trackpoint>
            <Time>2018-04-30T11:23:29.000Z</Time>
            <Position>
              <LatitudeDegrees>42.70928747020661830902099609375</LatitudeDegrees>
              <LongitudeDegrees>1.28142259083688259124755859375</LongitudeDegrees>
            </Position>
            <AltitudeMeters>2806.800048828125</AltitudeMeters>
            <DistanceMeters>6773.3805648462</DistanceMeters>
          </Trackpoint>
          <Trackpoint>
            <Time>2018-04-30T11:23:41.000Z</Time>
            <Position>
              <LatitudeDegrees>42.70930138416588306427001953125</LatitudeDegrees>
              <LongitudeDegrees>1.2814939208328723907470703125</LongitudeDegrees>
            </Position>
            <AltitudeMeters>2810</AltitudeMeters>
            <DistanceMeters>6779.4168185231</DistanceMeters>
          </Trackpoint>
          <Trackpoint>
            <Time>2018-04-30T11:23:54.000Z</Time>
            <Position>
              <LatitudeDegrees>42.7092947624623775482177734375</LatitudeDegrees>
              <LongitudeDegrees>1.281547062098979949951171875</LongitudeDegrees>
            </Position>
            <AltitudeMeters>2813.60009765625</AltitudeMeters>
            <DistanceMeters>6783.8250749253</DistanceMeters>
          </Trackpoint>
          <Trackpoint>
            <Time>2018-04-30T11:23:55.000Z</Time>
            <Position>
              <LatitudeDegrees>42.70929534919559955596923828125</LatitudeDegrees>
              <LongitudeDegrees>1.28155745565891265869140625</LongitudeDegrees>
            </Position>
            <AltitudeMeters>2814</AltitudeMeters>
            <DistanceMeters>6784.6803153546</DistanceMeters>
          </Trackpoint>
          <Trackpoint>
            <Time>2018-04-30T11:24:07.000Z</Time>
            <Position>
              <LatitudeDegrees>42.709315381944179534912109375</LatitudeDegrees>
              <LongitudeDegrees>1.28164638765156269073486328125</LongitudeDegrees>
            </Position>
            <AltitudeMeters>2817</AltitudeMeters>
            <DistanceMeters>6792.287202356</DistanceMeters>
          </Trackpoint>
          <Trackpoint>
            <Time>2018-04-30T11:24:57.000Z</Time>
            <Position>
              <LatitudeDegrees>42.709303982555866241455078125</LatitudeDegrees>
              <LongitudeDegrees>1.281716711819171905517578125</LongitudeDegrees>
            </Position>
            <AltitudeMeters>2816.800048828125</AltitudeMeters>
            <DistanceMeters>6798.1773257586</DistanceMeters>
          </Trackpoint>
          <Trackpoint>
            <Time>2018-04-30T11:25:11.000Z</Time>
            <Position>
              <LatitudeDegrees>42.709312699735164642333984375</LatitudeDegrees>
              <LongitudeDegrees>1.28168544732034206390380859375</LongitudeDegrees>
            </Position>
            <AltitudeMeters>2814.800048828125</AltitudeMeters>
            <DistanceMeters>6800.9117184326</DistanceMeters>
          </Trackpoint>
          <Trackpoint>
            <Time>2018-04-30T11:25:12.000Z</Time>
            <Position>
              <LatitudeDegrees>42.70931613631546497344970703125</LatitudeDegrees>
              <LongitudeDegrees>1.28167220391333103179931640625</LongitudeDegrees>
            </Position>
            <AltitudeMeters>2814.800048828125</AltitudeMeters>
            <DistanceMeters>6802.0599305911</DistanceMeters>
          </Trackpoint>
          <Trackpoint>
            <Time>2018-04-30T11:25:14.000Z</Time>
            <Position>
              <LatitudeDegrees>42.7093262784183025360107421875</LatitudeDegrees>
              <LongitudeDegrees>1.281653009355068206787109375</LongitudeDegrees>
            </Position>
            <AltitudeMeters>2815</AltitudeMeters>
            <DistanceMeters>6803.995771939</DistanceMeters>
          </Trackpoint>
          <Trackpoint>
            <Time>2018-04-30T11:25:15.000Z</Time>
            <Position>
              <LatitudeDegrees>42.709332816302776336669921875</LatitudeDegrees>
              <LongitudeDegrees>1.2816437892615795135498046875</LongitudeDegrees>
            </Position>
            <AltitudeMeters>2815.39990234375</AltitudeMeters>
            <DistanceMeters>6805.0453763055</DistanceMeters>
          </Trackpoint>
          <Trackpoint>
            <Time>2018-04-30T11:25:26.000Z</Time>
            <Position>
              <LatitudeDegrees>42.70938134752213954925537109375</LatitudeDegrees>
              <LongitudeDegrees>1.2816042266786098480224609375</LongitudeDegrees>
            </Position>
            <AltitudeMeters>2818.39990234375</AltitudeMeters>
            <DistanceMeters>6811.3415684554</DistanceMeters>
          </Trackpoint>
          <Trackpoint>
            <Time>2018-04-30T11:25:30.000Z</Time>
            <Position>
              <LatitudeDegrees>42.7094010449945926666259765625</LatitudeDegrees>
              <LongitudeDegrees>1.28158050589263439178466796875</LongitudeDegrees>
            </Position>
            <AltitudeMeters>2819</AltitudeMeters>
            <DistanceMeters>6814.270488499</DistanceMeters>
          </Trackpoint>
          <Trackpoint>
            <Time>2018-04-30T11:25:58.000Z</Time>
            <Position>
              <LatitudeDegrees>42.709479667246341705322265625</LatitudeDegrees>
              <LongitudeDegrees>1.28146651200950145721435546875</LongitudeDegrees>
            </Position>
            <AltitudeMeters>2822.199951171875</AltitudeMeters>
            <DistanceMeters>6827.0567910927</DistanceMeters>
          </Trackpoint>
          <Trackpoint>
            <Time>2018-04-30T11:26:12.000Z</Time>
            <Position>
              <LatitudeDegrees>42.70951529033482074737548828125</LatitudeDegrees>
              <LongitudeDegrees>1.2815002910792827606201171875</LongitudeDegrees>
            </Position>
            <AltitudeMeters>2825.199951171875</AltitudeMeters>
            <DistanceMeters>6831.8891588026</DistanceMeters>
          </Trackpoint>
          <Trackpoint>
            <Time>2018-04-30T11:26:29.000Z</Time>
            <Position>
              <LatitudeDegrees>42.70958460867404937744140625</LatitudeDegrees>
              <LongitudeDegrees>1.2814888916909694671630859375</LongitudeDegrees>
            </Position>
            <AltitudeMeters>2828.199951171875</AltitudeMeters>
            <DistanceMeters>6839.6610428299</DistanceMeters>
          </Trackpoint>
          <Trackpoint>
            <Time>2018-04-30T11:26:50.000Z</Time>
            <Position>
              <LatitudeDegrees>42.70966012962162494659423828125</LatitudeDegrees>
              <LongitudeDegrees>1.2814213335514068603515625</LongitudeDegrees>
            </Position>
            <AltitudeMeters>2831.199951171875</AltitudeMeters>
            <DistanceMeters>6849.7204183886</DistanceMeters>
          </Trackpoint>
          <Trackpoint>
            <Time>2018-04-30T11:26:53.000Z</Time>
            <Position>
              <LatitudeDegrees>42.70967873744666576385498046875</LatitudeDegrees>
              <LongitudeDegrees>1.28140901215374469757080078125</LongitudeDegrees>
            </Position>
            <AltitudeMeters>2832.199951171875</AltitudeMeters>
            <DistanceMeters>6852.0246937517</DistanceMeters>
          </Trackpoint>
          <Trackpoint>
            <Time>2018-04-30T11:27:15.000Z</Time>
            <Position>
              <LatitudeDegrees>42.70976104773581027984619140625</LatitudeDegrees>
              <LongitudeDegrees>1.2813393585383892059326171875</LongitudeDegrees>
            </Position>
            <AltitudeMeters>2835.39990234375</AltitudeMeters>
            <DistanceMeters>6862.8126326286</DistanceMeters>
          </Trackpoint>
          <Trackpoint>
            <Time>2018-04-30T11:27:28.000Z</Time>
            <Position>
              <LatitudeDegrees>42.70981418900191783905029296875</LatitudeDegrees>
              <LongitudeDegrees>1.2812612392008304595947265625</LongitudeDegrees>
            </Position>
            <AltitudeMeters>2838.39990234375</AltitudeMeters>
            <DistanceMeters>6871.5188638264</DistanceMeters>
          </Trackpoint>
          <Trackpoint>
            <Time>2018-04-30T11:28:02.000Z</Time>
            <Position>
              <LatitudeDegrees>42.70983397029340267181396484375</LatitudeDegrees>
              <LongitudeDegrees>1.2812335789203643798828125</LongitudeDegrees>
            </Position>
            <AltitudeMeters>2841.60009765625</AltitudeMeters>
            <DistanceMeters>6874.6762685192</DistanceMeters>
          </Trackpoint>
          <Trackpoint>
            <Time>2018-04-30T11:28:19.000Z</Time>
            <Position>
              <LatitudeDegrees>42.709872610867023468017578125</LatitudeDegrees>
              <LongitudeDegrees>1.281206421554088592529296875</LongitudeDegrees>
            </Position>
            <AltitudeMeters>2842.39990234375</AltitudeMeters>
            <DistanceMeters>6879.5161051172</DistanceMeters>
          </Trackpoint>
          <Trackpoint>
            <Time>2018-04-30T11:28:27.000Z</Time>
            <Position>
              <LatitudeDegrees>42.70992265082895755767822265625</LatitudeDegrees>
              <LongitudeDegrees>1.28116174601018428802490234375</LongitudeDegrees>
            </Position>
            <AltitudeMeters>2842.60009765625</AltitudeMeters>
            <DistanceMeters>6886.1774710166</DistanceMeters>
          </Trackpoint>
          <Trackpoint>
            <Time>2018-04-30T11:28:50.000Z</Time>
            <Position>
              <LatitudeDegrees>42.71001418121159076690673828125</LatitudeDegrees>
              <LongitudeDegrees>1.2810409627854824066162109375</LongitudeDegrees>
            </Position>
            <AltitudeMeters>2845.60009765625</AltitudeMeters>
            <DistanceMeters>6900.3679856197</DistanceMeters>
          </Trackpoint>
          <Trackpoint>
            <Time>2018-04-30T11:29:04.000Z</Time>
            <Position>
              <LatitudeDegrees>42.710050642490386962890625</LatitudeDegrees>
              <LongitudeDegrees>1.281006596982479095458984375</LongitudeDegrees>
            </Position>
            <AltitudeMeters>2848.800048828125</AltitudeMeters>
            <DistanceMeters>6905.3057185407</DistanceMeters>
          </Trackpoint>
          <Trackpoint>
            <Time>2018-04-30T11:29:37.000Z</Time>
            <Position>
              <LatitudeDegrees>42.7100528217852115631103515625</LatitudeDegrees>
              <LongitudeDegrees>1.28095270134508609771728515625</LongitudeDegrees>
            </Position>
            <AltitudeMeters>2852</AltitudeMeters>
            <DistanceMeters>6909.7221611271</DistanceMeters>
          </Trackpoint>
          <Trackpoint>
            <Time>2018-04-30T11:29:40.000Z</Time>
            <Position>
              <LatitudeDegrees>42.710051648318767547607421875</LatitudeDegrees>
              <LongitudeDegrees>1.28094515763223171234130859375</LongitudeDegrees>
            </Position>
            <AltitudeMeters>2852.800048828125</AltitudeMeters>
            <DistanceMeters>6910.3524970403</DistanceMeters>
          </Trackpoint>
          <Trackpoint>
            <Time>2018-04-30T11:29:43.000Z</Time>
            <Position>
              <LatitudeDegrees>42.7100518159568309783935546875</LatitudeDegrees>
              <LongitudeDegrees>1.28094549290835857391357421875</LongitudeDegrees>
            </Position>
            <AltitudeMeters>2851.39990234375</AltitudeMeters>
            <DistanceMeters>6910.3524970403</DistanceMeters>
          </Trackpoint>
          <Trackpoint>
            <Time>2018-04-30T11:29:50.000Z</Time>
            <Position>
              <LatitudeDegrees>42.71005801856517791748046875</LatitudeDegrees>
              <LongitudeDegrees>1.28093007020652294158935546875</LongitudeDegrees>
            </Position>
            <AltitudeMeters>2849.60009765625</AltitudeMeters>
            <DistanceMeters>6911.7873689612</DistanceMeters>
          </Trackpoint>
          <Trackpoint>
            <Time>2018-04-30T11:30:34.000Z</Time>
            <Position>
              <LatitudeDegrees>42.71009582094848155975341796875</LatitudeDegrees>
              <LongitudeDegrees>1.28087257035076618194580078125</LongitudeDegrees>
            </Position>
            <AltitudeMeters>2850</AltitudeMeters>
            <DistanceMeters>6918.0971714178</DistanceMeters>
          </Trackpoint>
          <Trackpoint>
            <Time>2018-04-30T11:31:05.000Z</Time>
            <Position>
              <LatitudeDegrees>42.71017746068537235260009765625</LatitudeDegrees>
              <LongitudeDegrees>1.28078321926295757293701171875</LongitudeDegrees>
            </Position>
            <AltitudeMeters>2853</AltitudeMeters>
            <DistanceMeters>6929.7579986223</DistanceMeters>
          </Trackpoint>
          <Trackpoint>
            <Time>2018-04-30T11:31:37.000Z</Time>
            <Position>
              <LatitudeDegrees>42.710240744054317474365234375</LatitudeDegrees>
              <LongitudeDegrees>1.28068515099585056304931640625</LongitudeDegrees>
            </Position>
            <AltitudeMeters>2855.199951171875</AltitudeMeters>
            <DistanceMeters>6940.4323372233</DistanceMeters>
          </Trackpoint>
          <Trackpoint>
            <Time>2018-04-30T11:31:41.000Z</Time>
            <Position>
              <LatitudeDegrees>42.710259519517421722412109375</LatitudeDegrees>
              <LongitudeDegrees>1.2806909345090389251708984375</LongitudeDegrees>
            </Position>
            <AltitudeMeters>2858.199951171875</AltitudeMeters>
            <DistanceMeters>6942.5741305919</DistanceMeters>
          </Trackpoint>
          <Trackpoint>
            <Time>2018-04-30T11:32:02.000Z</Time>
            <Position>
              <LatitudeDegrees>42.7102834917604923248291015625</LatitudeDegrees>
              <LongitudeDegrees>1.28067827783524990081787109375</LongitudeDegrees>
            </Position>
            <AltitudeMeters>2862</AltitudeMeters>
            <DistanceMeters>6945.4375742199</DistanceMeters>
          </Trackpoint>
          <Trackpoint>
            <Time>2018-04-30T11:32:04.000Z</Time>
            <Position>
              <LatitudeDegrees>42.7102915383875370025634765625</LatitudeDegrees>
              <LongitudeDegrees>1.28067542798817157745361328125</LongitudeDegrees>
            </Position>
            <AltitudeMeters>2862.60009765625</AltitudeMeters>
            <DistanceMeters>6946.3637800621</DistanceMeters>
          </Trackpoint>
          <Trackpoint>
            <Time>2018-04-30T11:32:31.000Z</Time>
            <Position>
              <LatitudeDegrees>42.710397653281688690185546875</LatitudeDegrees>
              <LongitudeDegrees>1.28053880296647548675537109375</LongitudeDegrees>
            </Position>
            <AltitudeMeters>2864.39990234375</AltitudeMeters>
            <DistanceMeters>6962.6225148782</DistanceMeters>
          </Trackpoint>
          <Trackpoint>
            <Time>2018-04-30T11:32:38.000Z</Time>
            <Position>
              <LatitudeDegrees>42.7104306779801845550537109375</LatitudeDegrees>
              <LongitudeDegrees>1.28049303777515888214111328125</LongitudeDegrees>
            </Position>
            <AltitudeMeters>2865.39990234375</AltitudeMeters>
            <DistanceMeters>6967.8670942559</DistanceMeters>
          </Trackpoint>
          <Trackpoint>
            <Time>2018-04-30T11:32:45.000Z</Time>
            <Position>
              <LatitudeDegrees>42.71045305766165256500244140625</LatitudeDegrees>
              <LongitudeDegrees>1.2804341129958629608154296875</LongitudeDegrees>
            </Position>
            <AltitudeMeters>2864</AltitudeMeters>
            <DistanceMeters>6973.2911138958</DistanceMeters>
          </Trackpoint>
          <Trackpoint>
            <Time>2018-04-30T11:32:46.000Z</Time>
            <Position>
              <LatitudeDegrees>42.7104564942419528961181640625</LatitudeDegrees>
              <LongitudeDegrees>1.2804250605404376983642578125</LongitudeDegrees>
            </Position>
            <AltitudeMeters>2864.199951171875</AltitudeMeters>
            <DistanceMeters>6974.1195375856</DistanceMeters>
          </Trackpoint>
          <Trackpoint>
            <Time>2018-04-30T11:32:47.000Z</Time>
            <Position>
              <LatitudeDegrees>42.710461355745792388916015625</LatitudeDegrees>
              <LongitudeDegrees>1.28041424788534641265869140625</LongitudeDegrees>
            </Position>
            <AltitudeMeters>2864.60009765625</AltitudeMeters>
            <DistanceMeters>6975.1517919246</DistanceMeters>
          </Trackpoint>
          <Trackpoint>
            <Time>2018-04-30T11:32:52.000Z</Time>
            <Position>
              <LatitudeDegrees>42.7104782871901988983154296875</LatitudeDegrees>
              <LongitudeDegrees>1.28036999143660068511962890625</LongitudeDegrees>
            </Position>
            <AltitudeMeters>2865.800048828125</AltitudeMeters>
            <DistanceMeters>6979.2335184023</DistanceMeters>
          </Trackpoint>
          <Trackpoint>
            <Time>2018-04-30T11:32:53.000Z</Time>
            <Position>
              <LatitudeDegrees>42.71048390306532382965087890625</LatitudeDegrees>
              <LongitudeDegrees>1.28035976551473140716552734375</LongitudeDegrees>
            </Position>
            <AltitudeMeters>2865.800048828125</AltitudeMeters>
            <DistanceMeters>6980.2788122604</DistanceMeters>
          </Trackpoint>
          <Trackpoint>
            <Time>2018-04-30T11:32:55.000Z</Time>
            <Position>
              <LatitudeDegrees>42.71049345843493938446044921875</LatitudeDegrees>
              <LongitudeDegrees>1.28034316934645175933837890625</LongitudeDegrees>
            </Position>
            <AltitudeMeters>2865.39990234375</AltitudeMeters>
            <DistanceMeters>6982.0050582528</DistanceMeters>
          </Trackpoint>
          <Trackpoint>
            <Time>2018-04-30T11:32:58.000Z</Time>
            <Position>
              <LatitudeDegrees>42.71050603128969669342041015625</LatitudeDegrees>
              <LongitudeDegrees>1.2803147546947002410888671875</LongitudeDegrees>
            </Position>
            <AltitudeMeters>2864.800048828125</AltitudeMeters>
            <DistanceMeters>6984.7179003606</DistanceMeters>
          </Trackpoint>
          <Trackpoint>
            <Time>2018-04-30T11:33:01.000Z</Time>
            <Position>
              <LatitudeDegrees>42.71051994524896144866943359375</LatitudeDegrees>
              <LongitudeDegrees>1.280287094414234161376953125</LongitudeDegrees>
            </Position>
            <AltitudeMeters>2865</AltitudeMeters>
            <DistanceMeters>6987.4588898902</DistanceMeters>
          </Trackpoint>
          <Trackpoint>
            <Time>2018-04-30T11:33:02.000Z</Time>
            <Position>
              <LatitudeDegrees>42.71052564494311809539794921875</LatitudeDegrees>
              <LongitudeDegrees>1.2802785448729991912841796875</LongitudeDegrees>
            </Position>
            <AltitudeMeters>2864.800048828125</AltitudeMeters>
            <DistanceMeters>6988.4043937601</DistanceMeters>
          </Trackpoint>
          <Trackpoint>
            <Time>2018-04-30T11:33:07.000Z</Time>
            <Position>
              <LatitudeDegrees>42.71054727025330066680908203125</LatitudeDegrees>
              <LongitudeDegrees>1.28024317324161529541015625</LongitudeDegrees>
            </Position>
            <AltitudeMeters>2864.39990234375</AltitudeMeters>
            <DistanceMeters>6992.1672596711</DistanceMeters>
          </Trackpoint>
          <Trackpoint>
            <Time>2018-04-30T11:33:16.000Z</Time>
            <Position>
              <LatitudeDegrees>42.710587419569492340087890625</LatitudeDegrees>
              <LongitudeDegrees>1.280155666172504425048828125</LongitudeDegrees>
            </Position>
            <AltitudeMeters>2863.199951171875</AltitudeMeters>
            <DistanceMeters>7000.6048613851</DistanceMeters>
          </Trackpoint>
          <Trackpoint>
            <Time>2018-04-30T11:33:22.000Z</Time>
            <Position>
              <LatitudeDegrees>42.71061533130705356597900390625</LatitudeDegrees>
              <LongitudeDegrees>1.28010378219187259674072265625</LongitudeDegrees>
            </Position>
            <AltitudeMeters>2862.800048828125</AltitudeMeters>
            <DistanceMeters>7005.8649140678</DistanceMeters>
          </Trackpoint>
          <Trackpoint>
            <Time>2018-04-30T11:33:25.000Z</Time>
            <Position>
              <LatitudeDegrees>42.710624970495700836181640625</LatitudeDegrees>
              <LongitudeDegrees>1.28007863648235797882080078125</LongitudeDegrees>
            </Position>
            <AltitudeMeters>2861.60009765625</AltitudeMeters>
            <DistanceMeters>7008.1828647756</DistanceMeters>
          </Trackpoint>
          <Trackpoint>
            <Time>2018-04-30T11:33:27.000Z</Time>
            <Position>
              <LatitudeDegrees>42.7106325142085552215576171875</LatitudeDegrees>
              <LongitudeDegrees>1.28006036393344402313232421875</LongitudeDegrees>
            </Position>
            <AltitudeMeters>2862.199951171875</AltitudeMeters>
            <DistanceMeters>7009.8986167743</DistanceMeters>
          </Trackpoint>
          <Trackpoint>
            <Time>2018-04-30T11:33:29.000Z</Time>
            <Position>
              <LatitudeDegrees>42.7106388844549655914306640625</LatitudeDegrees>
              <LongitudeDegrees>1.2800448574125766754150390625</LongitudeDegrees>
            </Position>
            <AltitudeMeters>2862</AltitudeMeters>
            <DistanceMeters>7011.3522459869</DistanceMeters>
          </Trackpoint>
          <Trackpoint>
            <Time>2018-04-30T11:33:32.000Z</Time>
            <Position>
              <LatitudeDegrees>42.71065070293843746185302734375</LatitudeDegrees>
              <LongitudeDegrees>1.280020885169506072998046875</LongitudeDegrees>
            </Position>
            <AltitudeMeters>2861.60009765625</AltitudeMeters>
            <DistanceMeters>7013.7126606043</DistanceMeters>
          </Trackpoint>
          <Trackpoint>
            <Time>2018-04-30T11:33:34.000Z</Time>
            <Position>
              <LatitudeDegrees>42.71065749228000640869140625</LatitudeDegrees>
              <LongitudeDegrees>1.2800046242773532867431640625</LongitudeDegrees>
            </Position>
            <AltitudeMeters>2861</AltitudeMeters>
            <DistanceMeters>7015.2419708406</DistanceMeters>
          </Trackpoint>
          <Trackpoint>
            <Time>2018-04-30T11:33:37.000Z</Time>
            <Position>
              <LatitudeDegrees>42.7106707356870174407958984375</LatitudeDegrees>
              <LongitudeDegrees>1.27997654490172863006591796875</LongitudeDegrees>
            </Position>
            <AltitudeMeters>2860.60009765625</AltitudeMeters>
            <DistanceMeters>7017.9697507052</DistanceMeters>
          </Trackpoint>
          <Trackpoint>
            <Time>2018-04-30T11:34:00.000Z</Time>
            <Position>
              <LatitudeDegrees>42.7107756771147251129150390625</LatitudeDegrees>
              <LongitudeDegrees>1.2797558493912220001220703125</LongitudeDegrees>
            </Position>
            <AltitudeMeters>2858.800048828125</AltitudeMeters>
            <DistanceMeters>7039.468481661</DistanceMeters>
          </Trackpoint>
          <Trackpoint>
            <Time>2018-04-30T11:34:09.000Z</Time>
            <Position>
              <LatitudeDegrees>42.71082513034343719482421875</LatitudeDegrees>
              <LongitudeDegrees>1.2796626426279544830322265625</LongitudeDegrees>
            </Position>
            <AltitudeMeters>2857.60009765625</AltitudeMeters>
            <DistanceMeters>7048.8713258298</DistanceMeters>
          </Trackpoint>
          <Trackpoint>
            <Time>2018-04-30T11:34:12.000Z</Time>
            <Position>
              <LatitudeDegrees>42.71083342842757701873779296875</LatitudeDegrees>
              <LongitudeDegrees>1.2796324677765369415283203125</LongitudeDegrees>
            </Position>
            <AltitudeMeters>2856.39990234375</AltitudeMeters>
            <DistanceMeters>7051.5064973205</DistanceMeters>
          </Trackpoint>
          <Trackpoint>
            <Time>2018-04-30T11:34:13.000Z</Time>
            <Position>
              <LatitudeDegrees>42.71083854138851165771484375</LatitudeDegrees>
              <LongitudeDegrees>1.279620230197906494140625</LongitudeDegrees>
            </Position>
            <AltitudeMeters>2856.39990234375</AltitudeMeters>
            <DistanceMeters>7052.6547094789</DistanceMeters>
          </Trackpoint>
          <Trackpoint>
            <Time>2018-04-30T11:34:31.000Z</Time>
            <Position>
              <LatitudeDegrees>42.71094691939651966094970703125</LatitudeDegrees>
              <LongitudeDegrees>1.279432475566864013671875</LongitudeDegrees>
            </Position>
            <AltitudeMeters>2854.60009765625</AltitudeMeters>
            <DistanceMeters>7072.1814853994</DistanceMeters>
          </Trackpoint>
          <Trackpoint>
            <Time>2018-04-30T11:34:32.000Z</Time>
            <Position>
              <LatitudeDegrees>42.7109503559768199920654296875</LatitudeDegrees>
              <LongitudeDegrees>1.27942216582596302032470703125</LongitudeDegrees>
            </Position>
            <AltitudeMeters>2854.39990234375</AltitudeMeters>
            <DistanceMeters>7073.1125532479</DistanceMeters>
          </Trackpoint>
          <Trackpoint>
            <Time>2018-04-30T11:34:33.000Z</Time>
            <Position>
              <LatitudeDegrees>42.71095521748065948486328125</LatitudeDegrees>
              <LongitudeDegrees>1.27941059879958629608154296875</LongitudeDegrees>
            </Position>
            <AltitudeMeters>2854.199951171875</AltitudeMeters>
            <DistanceMeters>7074.2001837064</DistanceMeters>
          </Trackpoint>
          <Trackpoint>
            <Time>2018-04-30T11:34:34.000Z</Time>
            <Position>
              <LatitudeDegrees>42.7109614200890064239501953125</LatitudeDegrees>
              <LongitudeDegrees>1.27939903177320957183837890625</LongitudeDegrees>
            </Position>
            <AltitudeMeters>2854.39990234375</AltitudeMeters>
            <DistanceMeters>7075.3678915222</DistanceMeters>
          </Trackpoint>
          <Trackpoint>
            <Time>2018-04-30T11:34:40.000Z</Time>
            <Position>
              <LatitudeDegrees>42.710987068712711334228515625</LatitudeDegrees>
              <LongitudeDegrees>1.27932342700660228729248046875</LongitudeDegrees>
            </Position>
            <AltitudeMeters>2855</AltitudeMeters>
            <DistanceMeters>7082.1780657208</DistanceMeters>
          </Trackpoint>
          <Trackpoint>
            <Time>2018-04-30T11:34:41.000Z</Time>
            <Position>
              <LatitudeDegrees>42.71099385805428028106689453125</LatitudeDegrees>
              <LongitudeDegrees>1.27930917777121067047119140625</LongitudeDegrees>
            </Position>
            <AltitudeMeters>2855</AltitudeMeters>
            <DistanceMeters>7083.568186708</DistanceMeters>
          </Trackpoint>
          <Trackpoint>
            <Time>2018-04-30T11:34:42.000Z</Time>
            <Position>
              <LatitudeDegrees>42.71099947392940521240234375</LatitudeDegrees>
              <LongitudeDegrees>1.2792943418025970458984375</LongitudeDegrees>
            </Position>
            <AltitudeMeters>2855</AltitudeMeters>
            <DistanceMeters>7084.935383045</DistanceMeters>
          </Trackpoint>
          <Trackpoint>
            <Time>2018-04-30T11:34:43.000Z</Time>
            <Position>
              <LatitudeDegrees>42.71100559271872043609619140625</LatitudeDegrees>
              <LongitudeDegrees>1.27928084693849086761474609375</LongitudeDegrees>
            </Position>
            <AltitudeMeters>2855</AltitudeMeters>
            <DistanceMeters>7086.2313746417</DistanceMeters>
          </Trackpoint>
          <Trackpoint>
            <Time>2018-04-30T11:34:44.000Z</Time>
            <Position>
              <LatitudeDegrees>42.71101129241287708282470703125</LatitudeDegrees>
              <LongitudeDegrees>1.2792690284550189971923828125</LongitudeDegrees>
            </Position>
            <AltitudeMeters>2854.800048828125</AltitudeMeters>
            <DistanceMeters>7087.3874245167</DistanceMeters>
          </Trackpoint>
          <Trackpoint>
            <Time>2018-04-30T11:34:45.000Z</Time>
            <Position>
              <LatitudeDegrees>42.711018584668636322021484375</LatitudeDegrees>
              <LongitudeDegrees>1.2792582996189594268798828125</LongitudeDegrees>
            </Position>
            <AltitudeMeters>2854.60009765625</AltitudeMeters>
            <DistanceMeters>7088.5818917947</DistanceMeters>
          </Trackpoint>
          <Trackpoint>
            <Time>2018-04-30T11:34:46.000Z</Time>
            <Position>
              <LatitudeDegrees>42.7110274694859981536865234375</LatitudeDegrees>
              <LongitudeDegrees>1.27924698404967784881591796875</LongitudeDegrees>
            </Position>
            <AltitudeMeters>2854.60009765625</AltitudeMeters>
            <DistanceMeters>7089.9391447537</DistanceMeters>
          </Trackpoint>
          <Trackpoint>
            <Time>2018-04-30T11:34:47.000Z</Time>
            <Position>
              <LatitudeDegrees>42.711034677922725677490234375</LatitudeDegrees>
              <LongitudeDegrees>1.27923776395618915557861328125</LongitudeDegrees>
            </Position>
            <AltitudeMeters>2854.60009765625</AltitudeMeters>
            <DistanceMeters>7091.0391585006</DistanceMeters>
          </Trackpoint>
          <Trackpoint>
            <Time>2018-04-30T11:35:07.000Z</Time>
            <Position>
              <LatitudeDegrees>42.71114624105393886566162109375</LatitudeDegrees>
              <LongitudeDegrees>1.27903240732848644256591796875</LongitudeDegrees>
            </Position>
            <AltitudeMeters>2855.199951171875</AltitudeMeters>
            <DistanceMeters>7111.9255893352</DistanceMeters>
          </Trackpoint>
          <Trackpoint>
            <Time>2018-04-30T11:35:24.000Z</Time>
            <Position>
              <LatitudeDegrees>42.71120457910001277923583984375</LatitudeDegrees>
              <LongitudeDegrees>1.27890340983867645263671875</LongitudeDegrees>
            </Position>
            <AltitudeMeters>2851.60009765625</AltitudeMeters>
            <DistanceMeters>7124.3133703749</DistanceMeters>
          </Trackpoint>
          <Trackpoint>
            <Time>2018-04-30T11:35:27.000Z</Time>
            <Position>
              <LatitudeDegrees>42.71121832542121410369873046875</LatitudeDegrees>
              <LongitudeDegrees>1.27887667156755924224853515625</LongitudeDegrees>
            </Position>
            <AltitudeMeters>2851.60009765625</AltitudeMeters>
            <DistanceMeters>7126.9825894207</DistanceMeters>
          </Trackpoint>
          <Trackpoint>
            <Time>2018-04-30T11:35:40.000Z</Time>
            <Position>
              <LatitudeDegrees>42.7112645097076892852783203125</LatitudeDegrees>
              <LongitudeDegrees>1.2787614203989505767822265625</LongitudeDegrees>
            </Position>
            <AltitudeMeters>2854.60009765625</AltitudeMeters>
            <DistanceMeters>7137.7185055777</DistanceMeters>
          </Trackpoint>
          <Trackpoint>
            <Time>2018-04-30T11:35:52.000Z</Time>
            <Position>
              <LatitudeDegrees>42.711324356496334075927734375</LatitudeDegrees>
              <LongitudeDegrees>1.2786688841879367828369140625</LongitudeDegrees>
            </Position>
            <AltitudeMeters>2857.60009765625</AltitudeMeters>
            <DistanceMeters>7147.8002980996</DistanceMeters>
          </Trackpoint>
          <Trackpoint>
            <Time>2018-04-30T11:36:06.000Z</Time>
            <Position>
              <LatitudeDegrees>42.7113758213818073272705078125</LatitudeDegrees>
              <LongitudeDegrees>1.2785446643829345703125</LongitudeDegrees>
            </Position>
            <AltitudeMeters>2859.800048828125</AltitudeMeters>
            <DistanceMeters>7159.4626739895</DistanceMeters>
          </Trackpoint>
          <Trackpoint>
            <Time>2018-04-30T11:36:27.000Z</Time>
            <Position>
              <LatitudeDegrees>42.71142938174307346343994140625</LatitudeDegrees>
              <LongitudeDegrees>1.27842924557626247406005859375</LongitudeDegrees>
            </Position>
            <AltitudeMeters>2862</AltitudeMeters>
            <DistanceMeters>7170.6265942275</DistanceMeters>
          </Trackpoint>
          <Trackpoint>
            <Time>2018-04-30T11:36:33.000Z</Time>
            <Position>
              <LatitudeDegrees>42.7114492468535900115966796875</LatitudeDegrees>
              <LongitudeDegrees>1.27840158529579639434814453125</LongitudeDegrees>
            </Position>
            <AltitudeMeters>2863.800048828125</AltitudeMeters>
            <DistanceMeters>7173.7897136846</DistanceMeters>
          </Trackpoint>
          <Trackpoint>
            <Time>2018-04-30T11:36:35.000Z</Time>
            <Position>
              <LatitudeDegrees>42.71145905368030071258544921875</LatitudeDegrees>
              <LongitudeDegrees>1.278389431536197662353515625</LongitudeDegrees>
            </Position>
            <AltitudeMeters>2864.800048828125</AltitudeMeters>
            <DistanceMeters>7175.2679824353</DistanceMeters>
          </Trackpoint>
          <Trackpoint>
            <Time>2018-04-30T11:37:09.000Z</Time>
            <Position>
              <LatitudeDegrees>42.711557708680629730224609375</LatitudeDegrees>
              <LongitudeDegrees>1.27825423143804073333740234375</LongitudeDegrees>
            </Position>
            <AltitudeMeters>2868</AltitudeMeters>
            <DistanceMeters>7190.8512046866</DistanceMeters>
          </Trackpoint>
          <Trackpoint>
            <Time>2018-04-30T11:37:25.000Z</Time>
            <Position>
              <LatitudeDegrees>42.71159299649298191070556640625</LatitudeDegrees>
              <LongitudeDegrees>1.27824316732585430145263671875</LongitudeDegrees>
            </Position>
            <AltitudeMeters>2871.39990234375</AltitudeMeters>
            <DistanceMeters>7194.8828467341</DistanceMeters>
          </Trackpoint>
          <Trackpoint>
            <Time>2018-04-30T11:37:59.000Z</Time>
            <Position>
              <LatitudeDegrees>42.711632810533046722412109375</LatitudeDegrees>
              <LongitudeDegrees>1.2782491184771060943603515625</LongitudeDegrees>
            </Position>
            <AltitudeMeters>2874.39990234375</AltitudeMeters>
            <DistanceMeters>7199.3399947209</DistanceMeters>
          </Trackpoint>
          <Trackpoint>
            <Time>2018-04-30T11:38:11.000Z</Time>
            <Position>
              <LatitudeDegrees>42.71168234758079051971435546875</LatitudeDegrees>
              <LongitudeDegrees>1.2782306782901287078857421875</LongitudeDegrees>
            </Position>
            <AltitudeMeters>2877.800048828125</AltitudeMeters>
            <DistanceMeters>7205.0558338172</DistanceMeters>
          </Trackpoint>
          <Trackpoint>
            <Time>2018-04-30T11:38:26.000Z</Time>
            <Position>
              <LatitudeDegrees>42.71175510250031948089599609375</LatitudeDegrees>
              <LongitudeDegrees>1.27820595167577266693115234375</LongitudeDegrees>
            </Position>
            <AltitudeMeters>2880.800048828125</AltitudeMeters>
            <DistanceMeters>7213.4030531051</DistanceMeters>
          </Trackpoint>
          <Trackpoint>
            <Time>2018-04-30T11:39:02.000Z</Time>
            <Position>
              <LatitudeDegrees>42.711764238774776458740234375</LatitudeDegrees>
              <LongitudeDegrees>1.27813956700265407562255859375</LongitudeDegrees>
            </Position>
            <AltitudeMeters>2883.800048828125</AltitudeMeters>
            <DistanceMeters>7218.9260593723</DistanceMeters>
          </Trackpoint>
          <Trackpoint>
            <Time>2018-04-30T11:39:29.000Z</Time>
            <Position>
              <LatitudeDegrees>42.71183892153203487396240234375</LatitudeDegrees>
              <LongitudeDegrees>1.27798634581267833709716796875</LongitudeDegrees>
            </Position>
            <AltitudeMeters>2887</AltitudeMeters>
            <DistanceMeters>7233.963117401</DistanceMeters>
          </Trackpoint>
          <Trackpoint>
            <Time>2018-04-30T11:39:37.000Z</Time>
            <Position>
              <LatitudeDegrees>42.71186423487961292266845703125</LatitudeDegrees>
              <LongitudeDegrees>1.27794762142002582550048828125</LongitudeDegrees>
            </Position>
            <AltitudeMeters>2889.60009765625</AltitudeMeters>
            <DistanceMeters>7238.2022036378</DistanceMeters>
          </Trackpoint>
          <Trackpoint>
            <Time>2018-04-30T11:40:02.000Z</Time>
            <Position>
              <LatitudeDegrees>42.7119162864983081817626953125</LatitudeDegrees>
              <LongitudeDegrees>1.2778541631996631622314453125</LongitudeDegrees>
            </Position>
            <AltitudeMeters>2890.39990234375</AltitudeMeters>
            <DistanceMeters>7247.7937842589</DistanceMeters>
          </Trackpoint>
          <Trackpoint>
            <Time>2018-04-30T11:40:26.000Z</Time>
            <Position>
              <LatitudeDegrees>42.71195006556808948516845703125</LatitudeDegrees>
              <LongitudeDegrees>1.27780462615191936492919921875</LongitudeDegrees>
            </Position>
            <AltitudeMeters>2893.60009765625</AltitudeMeters>
            <DistanceMeters>7253.3200595446</DistanceMeters>
          </Trackpoint>
          <Trackpoint>
            <Time>2018-04-30T11:41:37.000Z</Time>
            <Position>
              <LatitudeDegrees>42.71195660345256328582763671875</LatitudeDegrees>
              <LongitudeDegrees>1.27775751985609531402587890625</LongitudeDegrees>
            </Position>
            <AltitudeMeters>2895.60009765625</AltitudeMeters>
            <DistanceMeters>7257.2404154096</DistanceMeters>
          </Trackpoint>
          <Trackpoint>
            <Time>2018-04-30T11:42:02.000Z</Time>
            <Position>
              <LatitudeDegrees>42.7119551785290241241455078125</LatitudeDegrees>
              <LongitudeDegrees>1.2777562625706195831298828125</LongitudeDegrees>
            </Position>
            <AltitudeMeters>2892.39990234375</AltitudeMeters>
            <DistanceMeters>7257.4304688383</DistanceMeters>
          </Trackpoint>
          <Trackpoint>
            <Time>2018-04-30T11:42:05.000Z</Time>
            <Position>
              <LatitudeDegrees>42.7119571901857852935791015625</LatitudeDegrees>
              <LongitudeDegrees>1.2777547538280487060546875</LongitudeDegrees>
            </Position>
            <AltitudeMeters>2895.199951171875</AltitudeMeters>
            <DistanceMeters>7257.6632358004</DistanceMeters>
          </Trackpoint>
          <Trackpoint>
            <Time>2018-04-30T11:42:54.000Z</Time>
            <Position>
              <LatitudeDegrees>42.71197177469730377197265625</LatitudeDegrees>
              <LongitudeDegrees>1.277767159044742584228515625</LongitudeDegrees>
            </Position>
            <AltitudeMeters>2895</AltitudeMeters>
            <DistanceMeters>7259.5779710396</DistanceMeters>
          </Trackpoint>
          <Trackpoint>
            <Time>2018-04-30T11:43:43.000Z</Time>
            <Position>
              <LatitudeDegrees>42.711962051689624786376953125</LatitudeDegrees>
              <LongitudeDegrees>1.27776741050183773040771484375</LongitudeDegrees>
            </Position>
            <AltitudeMeters>2894.60009765625</AltitudeMeters>
            <DistanceMeters>7260.6614422842</DistanceMeters>
          </Trackpoint>
          <Trackpoint>
            <Time>2018-04-30T11:45:11.000Z</Time>
            <Position>
              <LatitudeDegrees>42.71196263842284679412841796875</LatitudeDegrees>
              <LongitudeDegrees>1.27772415988147258758544921875</LongitudeDegrees>
            </Position>
            <AltitudeMeters>2895</AltitudeMeters>
            <DistanceMeters>7264.1991938231</DistanceMeters>
          </Trackpoint>
          <Trackpoint>
            <Time>2018-04-30T11:45:16.000Z</Time>
            <Position>
              <LatitudeDegrees>42.7119628898799419403076171875</LatitudeDegrees>
              <LongitudeDegrees>1.27772382460534572601318359375</LongitudeDegrees>
            </Position>
            <AltitudeMeters>2896.800048828125</AltitudeMeters>
            <DistanceMeters>7264.1991938231</DistanceMeters>
          </Trackpoint>
          <Trackpoint>
            <Time>2018-04-30T11:45:29.000Z</Time>
            <Position>
              <LatitudeDegrees>42.711964733898639678955078125</LatitudeDegrees>
              <LongitudeDegrees>1.2776348926126956939697265625</LongitudeDegrees>
            </Position>
            <AltitudeMeters>2895.39990234375</AltitudeMeters>
            <DistanceMeters>7271.4760316162</DistanceMeters>
          </Trackpoint>
          <Trackpoint>
            <Time>2018-04-30T11:45:33.000Z</Time>
            <Position>
              <LatitudeDegrees>42.711968086659908294677734375</LatitudeDegrees>
              <LongitudeDegrees>1.2775926478207111358642578125</LongitudeDegrees>
            </Position>
            <AltitudeMeters>2894.800048828125</AltitudeMeters>
            <DistanceMeters>7274.9519836127</DistanceMeters>
          </Trackpoint>
          <Trackpoint>
            <Time>2018-04-30T11:46:58.000Z</Time>
            <Position>
              <LatitudeDegrees>42.71198191680014133453369140625</LatitudeDegrees>
              <LongitudeDegrees>1.27760547213256359100341796875</LongitudeDegrees>
            </Position>
            <AltitudeMeters>2894.199951171875</AltitudeMeters>
            <DistanceMeters>7276.8141193099</DistanceMeters>
          </Trackpoint>
          <Trackpoint>
            <Time>2018-04-30T11:46:59.000Z</Time>
            <Position>
              <LatitudeDegrees>42.71198124624788761138916015625</LatitudeDegrees>
              <LongitudeDegrees>1.27761972136795520782470703125</LongitudeDegrees>
            </Position>
            <AltitudeMeters>2894</AltitudeMeters>
            <DistanceMeters>7277.9856873273</DistanceMeters>
          </Trackpoint>
          <Trackpoint>
            <Time>2018-04-30T11:47:00.000Z</Time>
            <Position>
              <LatitudeDegrees>42.71197940222918987274169921875</LatitudeDegrees>
              <LongitudeDegrees>1.277633719146251678466796875</LongitudeDegrees>
            </Position>
            <AltitudeMeters>2894.39990234375</AltitudeMeters>
            <DistanceMeters>7279.149522138</DistanceMeters>
          </Trackpoint>
          <Trackpoint>
            <Time>2018-04-30T11:47:07.000Z</Time>
            <Position>
              <LatitudeDegrees>42.71196506917476654052734375</LatitudeDegrees>
              <LongitudeDegrees>1.27769717015326023101806640625</LongitudeDegrees>
            </Position>
            <AltitudeMeters>2895.800048828125</AltitudeMeters>
            <DistanceMeters>7284.5785339738</DistanceMeters>
          </Trackpoint>
          <Trackpoint>
            <Time>2018-04-30T11:49:50.000Z</Time>
            <Position>
              <LatitudeDegrees>42.71196800284087657928466796875</LatitudeDegrees>
              <LongitudeDegrees>1.277617625892162322998046875</LongitudeDegrees>
            </Position>
            <AltitudeMeters>2892.800048828125</AltitudeMeters>
            <DistanceMeters>7291.0911577966</DistanceMeters>
          </Trackpoint>
          <Trackpoint>
            <Time>2018-04-30T11:52:14.000Z</Time>
            <Position>
              <LatitudeDegrees>42.7119967527687549591064453125</LatitudeDegrees>
              <LongitudeDegrees>1.2775919772684574127197265625</LongitudeDegrees>
            </Position>
            <AltitudeMeters>2895.39990234375</AltitudeMeters>
            <DistanceMeters>7294.9182695002</DistanceMeters>
          </Trackpoint>
          <Trackpoint>
            <Time>2018-04-30T11:52:21.000Z</Time>
            <Position>
              <LatitudeDegrees>42.71197688765823841094970703125</LatitudeDegrees>
              <LongitudeDegrees>1.277651824057102203369140625</LongitudeDegrees>
            </Position>
            <AltitudeMeters>2895.60009765625</AltitudeMeters>
            <DistanceMeters>7300.2887503131</DistanceMeters>
          </Trackpoint>
          <Trackpoint>
            <Time>2018-04-30T11:52:27.000Z</Time>
            <Position>
              <LatitudeDegrees>42.71196280606091022491455078125</LatitudeDegrees>
              <LongitudeDegrees>1.2776818312704563140869140625</LongitudeDegrees>
            </Position>
            <AltitudeMeters>2897.800048828125</AltitudeMeters>
            <DistanceMeters>7303.1991131263</DistanceMeters>
          </Trackpoint>
          <Trackpoint>
            <Time>2018-04-30T11:53:39.000Z</Time>
            <Position>
              <LatitudeDegrees>42.71196431480348110198974609375</LatitudeDegrees>
              <LongitudeDegrees>1.27770387567579746246337890625</LongitudeDegrees>
            </Position>
            <AltitudeMeters>2898</AltitudeMeters>
            <DistanceMeters>7305.007119673</DistanceMeters>
          </Trackpoint>
          <Trackpoint>
            <Time>2018-04-30T11:54:13.000Z</Time>
            <Position>
              <LatitudeDegrees>42.71195174194872379302978515625</LatitudeDegrees>
              <LongitudeDegrees>1.27770052291452884674072265625</LongitudeDegrees>
            </Position>
            <AltitudeMeters>2897</AltitudeMeters>
            <DistanceMeters>7306.435684434</DistanceMeters>
          </Trackpoint>
          <Trackpoint>
            <Time>2018-04-30T11:56:03.000Z</Time>
            <Position>
              <LatitudeDegrees>42.71196263842284679412841796875</LatitudeDegrees>
              <LongitudeDegrees>1.27771192230284214019775390625</LongitudeDegrees>
            </Position>
            <AltitudeMeters>2897.800048828125</AltitudeMeters>
            <DistanceMeters>7307.9679441624</DistanceMeters>
          </Trackpoint>
          <Trackpoint>
            <Time>2018-04-30T11:58:16.000Z</Time>
            <Position>
              <LatitudeDegrees>42.71195123903453350067138671875</LatitudeDegrees>
              <LongitudeDegrees>1.2777508981525897979736328125</LongitudeDegrees>
            </Position>
            <AltitudeMeters>2894.800048828125</AltitudeMeters>
            <DistanceMeters>7311.3981321465</DistanceMeters>
          </Trackpoint>
          <Trackpoint>
            <Time>2018-04-30T11:59:04.000Z</Time>
            <Position>
              <LatitudeDegrees>42.711965404450893402099609375</LatitudeDegrees>
              <LongitudeDegrees>1.2777601182460784912109375</LongitudeDegrees>
            </Position>
            <AltitudeMeters>2896.60009765625</AltitudeMeters>
            <DistanceMeters>7313.1451770338</DistanceMeters>
          </Trackpoint>
          <Trackpoint>
            <Time>2018-04-30T12:00:03.000Z</Time>
            <Position>
              <LatitudeDegrees>42.71198141388595104217529296875</LatitudeDegrees>
              <LongitudeDegrees>1.27770706079900264739990234375</LongitudeDegrees>
            </Position>
            <AltitudeMeters>2897.800048828125</AltitudeMeters>
            <DistanceMeters>7317.8353013624</DistanceMeters>
          </Trackpoint>
          <Trackpoint>
            <Time>2018-04-30T12:00:33.000Z</Time>
            <Position>
              <LatitudeDegrees>42.711975462734699249267578125</LatitudeDegrees>
              <LongitudeDegrees>1.2776985950767993927001953125</LongitudeDegrees>
            </Position>
            <AltitudeMeters>2894.800048828125</AltitudeMeters>
            <DistanceMeters>7318.7903080225</DistanceMeters>
          </Trackpoint>
          <Trackpoint>
            <Time>2018-04-30T12:01:38.000Z</Time>
            <Position>
              <LatitudeDegrees>42.71196951158344745635986328125</LatitudeDegrees>
              <LongitudeDegrees>1.2776979245245456695556640625</LongitudeDegrees>
            </Position>
            <AltitudeMeters>2896.39990234375</AltitudeMeters>
            <DistanceMeters>7319.4554950231</DistanceMeters>
          </Trackpoint>
          <Trackpoint>
            <Time>2018-04-30T12:01:49.000Z</Time>
            <Position>
              <LatitudeDegrees>42.711968086659908294677734375</LatitudeDegrees>
              <LongitudeDegrees>1.2777037918567657470703125</LongitudeDegrees>
            </Position>
            <AltitudeMeters>2894.800048828125</AltitudeMeters>
            <DistanceMeters>7319.9583291313</DistanceMeters>
          </Trackpoint>
          <Trackpoint>
            <Time>2018-04-30T12:03:43.000Z</Time>
            <Position>
              <LatitudeDegrees>42.71197051741182804107666015625</LatitudeDegrees>
              <LongitudeDegrees>1.27767235971987247467041015625</LongitudeDegrees>
            </Position>
            <AltitudeMeters>2895.39990234375</AltitudeMeters>
            <DistanceMeters>7322.5433352374</DistanceMeters>
          </Trackpoint>
          <Trackpoint>
            <Time>2018-04-30T12:04:45.000Z</Time>
            <Position>
              <LatitudeDegrees>42.71197387017309665679931640625</LatitudeDegrees>
              <LongitudeDegrees>1.2777064740657806396484375</LongitudeDegrees>
            </Position>
            <AltitudeMeters>2892.800048828125</AltitudeMeters>
            <DistanceMeters>7325.3590779667</DistanceMeters>
          </Trackpoint>
          <Trackpoint>
            <Time>2018-04-30T12:04:49.000Z</Time>
            <Position>
              <LatitudeDegrees>42.71197487600147724151611328125</LatitudeDegrees>
              <LongitudeDegrees>1.277704797685146331787109375</LongitudeDegrees>
            </Position>
            <AltitudeMeters>2895</AltitudeMeters>
            <DistanceMeters>7325.5491313955</DistanceMeters>
          </Trackpoint>
          <Trackpoint>
            <Time>2018-04-30T12:05:32.000Z</Time>
            <Position>
              <LatitudeDegrees>42.71196515299379825592041015625</LatitudeDegrees>
              <LongitudeDegrees>1.27768560312688350677490234375</LongitudeDegrees>
            </Position>
            <AltitudeMeters>2891.800048828125</AltitudeMeters>
            <DistanceMeters>7327.4544110942</DistanceMeters>
          </Trackpoint>
          <Trackpoint>
            <Time>2018-04-30T12:05:33.000Z</Time>
            <Position>
              <LatitudeDegrees>42.71196465007960796356201171875</LatitudeDegrees>
              <LongitudeDegrees>1.27768543548882007598876953125</LongitudeDegrees>
            </Position>
            <AltitudeMeters>2891.60009765625</AltitudeMeters>
            <DistanceMeters>7327.4544110942</DistanceMeters>
          </Trackpoint>
          <Trackpoint>
            <Time>2018-04-30T12:05:49.000Z</Time>
            <Position>
              <LatitudeDegrees>42.71196397952735424041748046875</LatitudeDegrees>
              <LongitudeDegrees>1.27767495810985565185546875</LongitudeDegrees>
            </Position>
            <AltitudeMeters>2894.800048828125</AltitudeMeters>
            <DistanceMeters>7328.3149145913</DistanceMeters>
          </Trackpoint>
          <Trackpoint>
            <Time>2018-04-30T12:05:53.000Z</Time>
            <Position>
              <LatitudeDegrees>42.71196414716541767120361328125</LatitudeDegrees>
              <LongitudeDegrees>1.2776757963001728057861328125</LongitudeDegrees>
            </Position>
            <AltitudeMeters>2892.39990234375</AltitudeMeters>
            <DistanceMeters>7328.3149145913</DistanceMeters>
          </Trackpoint>
          <Trackpoint>
            <Time>2018-04-30T12:05:58.000Z</Time>
            <Position>
              <LatitudeDegrees>42.7119649015367031097412109375</LatitudeDegrees>
              <LongitudeDegrees>1.27769499085843563079833984375</LongitudeDegrees>
            </Position>
            <AltitudeMeters>2895.39990234375</AltitudeMeters>
            <DistanceMeters>7329.8850135911</DistanceMeters>
          </Trackpoint>
          <Trackpoint>
            <Time>2018-04-30T12:06:46.000Z</Time>
            <Position>
              <LatitudeDegrees>42.7119659073650836944580078125</LatitudeDegrees>
              <LongitudeDegrees>1.27770178020000457763671875</LongitudeDegrees>
            </Position>
            <AltitudeMeters>2893.39990234375</AltitudeMeters>
            <DistanceMeters>7330.4551738773</DistanceMeters>
          </Trackpoint>
          <Trackpoint>
            <Time>2018-04-30T12:07:06.000Z</Time>
            <Position>
              <LatitudeDegrees>42.7119590342044830322265625</LatitudeDegrees>
              <LongitudeDegrees>1.27769507467746734619140625</LongitudeDegrees>
            </Position>
            <AltitudeMeters>2895.800048828125</AltitudeMeters>
            <DistanceMeters>7331.3910784745</DistanceMeters>
          </Trackpoint>
          <Trackpoint>
            <Time>2018-04-30T12:07:11.000Z</Time>
            <Position>
              <LatitudeDegrees>42.71196280606091022491455078125</LatitudeDegrees>
              <LongitudeDegrees>1.277698092162609100341796875</LongitudeDegrees>
            </Position>
            <AltitudeMeters>2894.199951171875</AltitudeMeters>
            <DistanceMeters>7331.8566123988</DistanceMeters>
          </Trackpoint>
          <Trackpoint>
            <Time>2018-04-30T12:07:41.000Z</Time>
            <Position>
              <LatitudeDegrees>42.71196934394538402557373046875</LatitudeDegrees>
              <LongitudeDegrees>1.277692727744579315185546875</LongitudeDegrees>
            </Position>
            <AltitudeMeters>2895</AltitudeMeters>
            <DistanceMeters>7332.7065571708</DistanceMeters>
          </Trackpoint>
          <Trackpoint>
            <Time>2018-04-30T12:07:57.000Z</Time>
            <Position>
              <LatitudeDegrees>42.71198962815105915069580078125</LatitudeDegrees>
              <LongitudeDegrees>1.2775634787976741790771484375</LongitudeDegrees>
            </Position>
            <AltitudeMeters>2894.800048828125</AltitudeMeters>
            <DistanceMeters>7343.5154021152</DistanceMeters>
          </Trackpoint>
          <Trackpoint>
            <Time>2018-04-30T12:09:15.000Z</Time>
            <Position>
              <LatitudeDegrees>42.71200974471867084503173828125</LatitudeDegrees>
              <LongitudeDegrees>1.27750891260802745819091796875</LongitudeDegrees>
            </Position>
            <AltitudeMeters>2893.39990234375</AltitudeMeters>
            <DistanceMeters>7348.5076972773</DistanceMeters>
          </Trackpoint>
          <Trackpoint>
            <Time>2018-04-30T12:12:16.000Z</Time>
            <Position>
              <LatitudeDegrees>42.71201661787927150726318359375</LatitudeDegrees>
              <LongitudeDegrees>1.27750254236161708831787109375</LongitudeDegrees>
            </Position>
            <AltitudeMeters>2890.199951171875</AltitudeMeters>
            <DistanceMeters>7349.4290154556</DistanceMeters>
          </Trackpoint>
          <Trackpoint>
            <Time>2018-04-30T12:12:22.000Z</Time>
            <Position>
              <LatitudeDegrees>42.71201510913670063018798828125</LatitudeDegrees>
              <LongitudeDegrees>1.27750069834291934967041015625</LongitudeDegrees>
            </Position>
            <AltitudeMeters>2891.800048828125</AltitudeMeters>
            <DistanceMeters>7349.6617824178</DistanceMeters>
          </Trackpoint>
          <Trackpoint>
            <Time>2018-04-30T12:12:36.000Z</Time>
            <Position>
              <LatitudeDegrees>42.71201737225055694580078125</LatitudeDegrees>
              <LongitudeDegrees>1.27750069834291934967041015625</LongitudeDegrees>
            </Position>
            <AltitudeMeters>2893.60009765625</AltitudeMeters>
            <DistanceMeters>7349.9131994719</DistanceMeters>
          </Trackpoint>
          <Trackpoint>
            <Time>2018-04-30T12:13:48.000Z</Time>
            <Position>
              <LatitudeDegrees>42.71202231757342815399169921875</LatitudeDegrees>
              <LongitudeDegrees>1.2774913944303989410400390625</LongitudeDegrees>
            </Position>
            <AltitudeMeters>2892</AltitudeMeters>
            <DistanceMeters>7350.8539159496</DistanceMeters>
          </Trackpoint>
          <Trackpoint>
            <Time>2018-04-30T12:15:44.000Z</Time>
            <Position>
              <LatitudeDegrees>42.712003290653228759765625</LatitudeDegrees>
              <LongitudeDegrees>1.2775745429098606109619140625</LongitudeDegrees>
            </Position>
            <AltitudeMeters>2892</AltitudeMeters>
            <DistanceMeters>7357.9764835669</DistanceMeters>
          </Trackpoint>
          <Trackpoint>
            <Time>2018-04-30T12:15:45.000Z</Time>
            <Position>
              <LatitudeDegrees>42.7120034582912921905517578125</LatitudeDegrees>
              <LongitudeDegrees>1.277585439383983612060546875</LongitudeDegrees>
            </Position>
            <AltitudeMeters>2891.800048828125</AltitudeMeters>
            <DistanceMeters>7358.8679131642</DistanceMeters>
          </Trackpoint>
          <Trackpoint>
            <Time>2018-04-30T12:15:48.000Z</Time>
            <Position>
              <LatitudeDegrees>42.7119964174926280975341796875</LatitudeDegrees>
              <LongitudeDegrees>1.27761268056929111480712890625</LongitudeDegrees>
            </Position>
            <AltitudeMeters>2892.199951171875</AltitudeMeters>
            <DistanceMeters>7361.2302398229</DistanceMeters>
          </Trackpoint>
          <Trackpoint>
            <Time>2018-04-30T12:15:49.000Z</Time>
            <Position>
              <LatitudeDegrees>42.71199163980782032012939453125</LatitudeDegrees>
              <LongitudeDegrees>1.277625001966953277587890625</LongitudeDegrees>
            </Position>
            <AltitudeMeters>2892.199951171875</AltitudeMeters>
            <DistanceMeters>7362.3705603954</DistanceMeters>
          </Trackpoint>
          <Trackpoint>
            <Time>2018-04-30T12:15:50.000Z</Time>
            <Position>
              <LatitudeDegrees>42.7119873650372028350830078125</LatitudeDegrees>
              <LongitudeDegrees>1.27763715572655200958251953125</LongitudeDegrees>
            </Position>
            <AltitudeMeters>2892.199951171875</AltitudeMeters>
            <DistanceMeters>7363.4705741423</DistanceMeters>
          </Trackpoint>
          <Trackpoint>
            <Time>2018-04-30T12:16:25.000Z</Time>
            <Position>
              <LatitudeDegrees>42.71196263842284679412841796875</LatitudeDegrees>
              <LongitudeDegrees>1.27763832919299602508544921875</LongitudeDegrees>
            </Position>
            <AltitudeMeters>2893.199951171875</AltitudeMeters>
            <DistanceMeters>7366.2247099801</DistanceMeters>
          </Trackpoint>
          <Trackpoint>
            <Time>2018-04-30T12:17:55.000Z</Time>
            <Position>
              <LatitudeDegrees>42.71199432201683521270751953125</LatitudeDegrees>
              <LongitudeDegrees>1.2775262631475925445556640625</LongitudeDegrees>
            </Position>
            <AltitudeMeters>2893</AltitudeMeters>
            <DistanceMeters>7376.0451588711</DistanceMeters>
          </Trackpoint>
          <Trackpoint>
            <Time>2018-04-30T12:19:09.000Z</Time>
            <Position>
              <LatitudeDegrees>42.7119840122759342193603515625</LatitudeDegrees>
              <LongitudeDegrees>1.2775108404457569122314453125</LongitudeDegrees>
            </Position>
            <AltitudeMeters>2892.800048828125</AltitudeMeters>
            <DistanceMeters>7377.7503522956</DistanceMeters>
          </Trackpoint>
          <Trackpoint>
            <Time>2018-04-30T12:19:21.000Z</Time>
            <Position>
              <LatitudeDegrees>42.711990885436534881591796875</LatitudeDegrees>
              <LongitudeDegrees>1.2774950824677944183349609375</LongitudeDegrees>
            </Position>
            <AltitudeMeters>2891.199951171875</AltitudeMeters>
            <DistanceMeters>7379.24683449</DistanceMeters>
          </Trackpoint>
          <Trackpoint>
            <Time>2018-04-30T12:20:54.000Z</Time>
            <Position>
              <LatitudeDegrees>42.71199130453169345855712890625</LatitudeDegrees>
              <LongitudeDegrees>1.27751075662672519683837890625</LongitudeDegrees>
            </Position>
            <AltitudeMeters>2890.199951171875</AltitudeMeters>
            <DistanceMeters>7380.5323320549</DistanceMeters>
          </Trackpoint>
          <Trackpoint>
            <Time>2018-04-30T12:21:00.000Z</Time>
            <Position>
              <LatitudeDegrees>42.71198920905590057373046875</LatitudeDegrees>
              <LongitudeDegrees>1.277514360845088958740234375</LongitudeDegrees>
            </Position>
            <AltitudeMeters>2891.800048828125</AltitudeMeters>
            <DistanceMeters>7380.9241372355</DistanceMeters>
          </Trackpoint>
          <Trackpoint>
            <Time>2018-04-30T12:21:07.000Z</Time>
            <Position>
              <LatitudeDegrees>42.7119907177984714508056640625</LatitudeDegrees>
              <LongitudeDegrees>1.27751427702605724334716796875</LongitudeDegrees>
            </Position>
            <AltitudeMeters>2890.199951171875</AltitudeMeters>
            <DistanceMeters>7381.0585253037</DistanceMeters>
          </Trackpoint>
          <Trackpoint>
            <Time>2018-04-30T12:22:13.000Z</Time>
            <Position>
              <LatitudeDegrees>42.7119987644255161285400390625</LatitudeDegrees>
              <LongitudeDegrees>1.27750623039901256561279296875</LongitudeDegrees>
            </Position>
            <AltitudeMeters>2890.60009765625</AltitudeMeters>
            <DistanceMeters>7382.1748364383</DistanceMeters>
          </Trackpoint>
          <Trackpoint>
            <Time>2018-04-30T12:23:36.000Z</Time>
            <Position>
              <LatitudeDegrees>42.712011672556400299072265625</LatitudeDegrees>
              <LongitudeDegrees>1.2774843536317348480224609375</LongitudeDegrees>
            </Position>
            <AltitudeMeters>2891.800048828125</AltitudeMeters>
            <DistanceMeters>7384.473226031</DistanceMeters>
          </Trackpoint>
          <Trackpoint>
            <Time>2018-04-30T12:24:31.000Z</Time>
            <Position>
              <LatitudeDegrees>42.71202810108661651611328125</LatitudeDegrees>
              <LongitudeDegrees>1.27751494757831096649169921875</LongitudeDegrees>
            </Position>
            <AltitudeMeters>2888.800048828125</AltitudeMeters>
            <DistanceMeters>7387.5729036492</DistanceMeters>
          </Trackpoint>
          <Trackpoint>
            <Time>2018-04-30T12:25:24.000Z</Time>
            <Position>
              <LatitudeDegrees>42.7120678313076496124267578125</LatitudeDegrees>
              <LongitudeDegrees>1.27749868668615818023681640625</LongitudeDegrees>
            </Position>
            <AltitudeMeters>2886.39990234375</AltitudeMeters>
            <DistanceMeters>7392.191241073</DistanceMeters>
          </Trackpoint>
          <Trackpoint>
            <Time>2018-04-30T12:26:01.000Z</Time>
            <Position>
              <LatitudeDegrees>42.71211502142250537872314453125</LatitudeDegrees>
              <LongitudeDegrees>1.277479492127895355224609375</LongitudeDegrees>
            </Position>
            <AltitudeMeters>2883.199951171875</AltitudeMeters>
            <DistanceMeters>7397.6732201322</DistanceMeters>
          </Trackpoint>
          <Trackpoint>
            <Time>2018-04-30T12:26:28.000Z</Time>
            <Position>
              <LatitudeDegrees>42.71215475164353847503662109375</LatitudeDegrees>
              <LongitudeDegrees>1.27747404389083385467529296875</LongitudeDegrees>
            </Position>
            <AltitudeMeters>2880.199951171875</AltitudeMeters>
            <DistanceMeters>7402.1181956394</DistanceMeters>
          </Trackpoint>
          <Trackpoint>
            <Time>2018-04-30T12:26:52.000Z</Time>
            <Position>
              <LatitudeDegrees>42.712208814918994903564453125</LatitudeDegrees>
              <LongitudeDegrees>1.277468763291835784912109375</LongitudeDegrees>
            </Position>
            <AltitudeMeters>2877.199951171875</AltitudeMeters>
            <DistanceMeters>7408.1514566271</DistanceMeters>
          </Trackpoint>
          <Trackpoint>
            <Time>2018-04-30T12:27:41.000Z</Time>
            <Position>
              <LatitudeDegrees>42.71224938333034515380859375</LatitudeDegrees>
              <LongitudeDegrees>1.2775007821619510650634765625</LongitudeDegrees>
            </Position>
            <AltitudeMeters>2875.800048828125</AltitudeMeters>
            <DistanceMeters>7413.3701452128</DistanceMeters>
          </Trackpoint>
          <Trackpoint>
            <Time>2018-04-30T12:29:02.000Z</Time>
            <Position>
              <LatitudeDegrees>42.71223706193268299102783203125</LatitudeDegrees>
              <LongitudeDegrees>1.27751109190285205841064453125</LongitudeDegrees>
            </Position>
            <AltitudeMeters>2875.800048828125</AltitudeMeters>
            <DistanceMeters>7414.9771927737</DistanceMeters>
          </Trackpoint>
          <Trackpoint>
            <Time>2018-04-30T12:32:01.000Z</Time>
            <Position>
              <LatitudeDegrees>42.71224276162683963775634765625</LatitudeDegrees>
              <LongitudeDegrees>1.277504973113536834716796875</LongitudeDegrees>
            </Position>
            <AltitudeMeters>2875.39990234375</AltitudeMeters>
            <DistanceMeters>7415.7835211832</DistanceMeters>
          </Trackpoint>
          <Trackpoint>
            <Time>2018-04-30T12:34:39.000Z</Time>
            <Position>
              <LatitudeDegrees>42.7122482098639011383056640625</LatitudeDegrees>
              <LongitudeDegrees>1.27751377411186695098876953125</LongitudeDegrees>
            </Position>
            <AltitudeMeters>2875.39990234375</AltitudeMeters>
            <DistanceMeters>7416.724237661</DistanceMeters>
          </Trackpoint>
          <Trackpoint>
            <Time>2018-04-30T12:35:47.000Z</Time>
            <Position>
              <LatitudeDegrees>42.71223924122750759124755859375</LatitudeDegrees>
              <LongitudeDegrees>1.2775061465799808502197265625</LongitudeDegrees>
            </Position>
            <AltitudeMeters>2875</AltitudeMeters>
            <DistanceMeters>7417.9034881739</DistanceMeters>
          </Trackpoint>
          <Trackpoint>
            <Time>2018-04-30T12:42:02.000Z</Time>
            <Position>
              <LatitudeDegrees>42.71223731338977813720703125</LatitudeDegrees>
              <LongitudeDegrees>1.27750555984675884246826171875</LongitudeDegrees>
            </Position>
            <AltitudeMeters>2874</AltitudeMeters>
            <DistanceMeters>7418.1362551361</DistanceMeters>
          </Trackpoint>
          <Trackpoint>
            <Time>2018-04-30T12:43:15.000Z</Time>
            <Position>
              <LatitudeDegrees>42.712252400815486907958984375</LatitudeDegrees>
              <LongitudeDegrees>1.2775091640651226043701171875</LongitudeDegrees>
            </Position>
            <AltitudeMeters>2873.800048828125</AltitudeMeters>
            <DistanceMeters>7419.8440943239</DistanceMeters>
          </Trackpoint>
          <Trackpoint>
            <Time>2018-04-30T12:43:56.000Z</Time>
            <Position>
              <LatitudeDegrees>42.7122361399233341217041015625</LatitudeDegrees>
              <LongitudeDegrees>1.27751293592154979705810546875</LongitudeDegrees>
            </Position>
            <AltitudeMeters>2874.39990234375</AltitudeMeters>
            <DistanceMeters>7421.6818235178</DistanceMeters>
          </Trackpoint>
          <Trackpoint>
            <Time>2018-04-30T12:44:56.000Z</Time>
            <Position>
              <LatitudeDegrees>42.7122438512742519378662109375</LatitudeDegrees>
              <LongitudeDegrees>1.277507655322551727294921875</LongitudeDegrees>
            </Position>
            <AltitudeMeters>2874.60009765625</AltitudeMeters>
            <DistanceMeters>7422.6415462888</DistanceMeters>
          </Trackpoint>
          <Trackpoint>
            <Time>2018-04-30T12:46:16.000Z</Time>
            <Position>
              <LatitudeDegrees>42.71225600503385066986083984375</LatitudeDegrees>
              <LongitudeDegrees>1.27751461230218410491943359375</LongitudeDegrees>
            </Position>
            <AltitudeMeters>2874.800048828125</AltitudeMeters>
            <DistanceMeters>7424.107547037</DistanceMeters>
          </Trackpoint>
          <Trackpoint>
            <Time>2018-04-30T12:50:06.000Z</Time>
            <Position>
              <LatitudeDegrees>42.7122700028121471405029296875</LatitudeDegrees>
              <LongitudeDegrees>1.27751804888248443603515625</LongitudeDegrees>
            </Position>
            <AltitudeMeters>2874.800048828125</AltitudeMeters>
            <DistanceMeters>7425.6919589946</DistanceMeters>
          </Trackpoint>
          <Trackpoint>
            <Time>2018-04-30T12:51:21.000Z</Time>
            <Position>
              <LatitudeDegrees>42.7122485451400279998779296875</LatitudeDegrees>
              <LongitudeDegrees>1.27753841690719127655029296875</LongitudeDegrees>
            </Position>
            <AltitudeMeters>2875</AltitudeMeters>
            <DistanceMeters>7428.6023218078</DistanceMeters>
          </Trackpoint>
          <Trackpoint>
            <Time>2018-04-30T12:51:34.000Z</Time>
            <Position>
              <LatitudeDegrees>42.712233960628509521484375</LatitudeDegrees>
              <LongitudeDegrees>1.27758250571787357330322265625</LongitudeDegrees>
            </Position>
            <AltitudeMeters>2871.800048828125</AltitudeMeters>
            <DistanceMeters>7432.5570774767</DistanceMeters>
          </Trackpoint>
          <Trackpoint>
            <Time>2018-04-30T12:51:49.000Z</Time>
            <Position>
              <LatitudeDegrees>42.7122012712061405181884765625</LatitudeDegrees>
              <LongitudeDegrees>1.277644447982311248779296875</LongitudeDegrees>
            </Position>
            <AltitudeMeters>2870.199951171875</AltitudeMeters>
            <DistanceMeters>7438.7941897349</DistanceMeters>
          </Trackpoint>
          <Trackpoint>
            <Time>2018-04-30T12:51:52.000Z</Time>
            <Position>
              <LatitudeDegrees>42.7122140116989612579345703125</LatitudeDegrees>
              <LongitudeDegrees>1.277673281729221343994140625</LongitudeDegrees>
            </Position>
            <AltitudeMeters>2867.60009765625</AltitudeMeters>
            <DistanceMeters>7441.5450448855</DistanceMeters>
          </Trackpoint>
          <Trackpoint>
            <Time>2018-04-30T12:51:53.000Z</Time>
            <Position>
              <LatitudeDegrees>42.71221895702183246612548828125</LatitudeDegrees>
              <LongitudeDegrees>1.27768971025943756103515625</LongitudeDegrees>
            </Position>
            <AltitudeMeters>2867</AltitudeMeters>
            <DistanceMeters>7442.9955647273</DistanceMeters>
          </Trackpoint>
          <Trackpoint>
            <Time>2018-04-30T12:51:54.000Z</Time>
            <Position>
              <LatitudeDegrees>42.7122217230498790740966796875</LatitudeDegrees>
              <LongitudeDegrees>1.27770655788481235504150390625</LongitudeDegrees>
            </Position>
            <AltitudeMeters>2866.199951171875</AltitudeMeters>
            <DistanceMeters>7444.405038678</DistanceMeters>
          </Trackpoint>
          <Trackpoint>
            <Time>2018-04-30T12:52:02.000Z</Time>
            <Position>
              <LatitudeDegrees>42.71221409551799297332763671875</LatitudeDegrees>
              <LongitudeDegrees>1.27774494700133800506591796875</LongitudeDegrees>
            </Position>
            <AltitudeMeters>2863.199951171875</AltitudeMeters>
            <DistanceMeters>7447.6582293568</DistanceMeters>
          </Trackpoint>
          <Trackpoint>
            <Time>2018-04-30T12:52:10.000Z</Time>
            <Position>
              <LatitudeDegrees>42.71219766698777675628662109375</LatitudeDegrees>
              <LongitudeDegrees>1.277794651687145233154296875</LongitudeDegrees>
            </Position>
            <AltitudeMeters>2862.60009765625</AltitudeMeters>
            <DistanceMeters>7452.1153773436</DistanceMeters>
          </Trackpoint>
          <Trackpoint>
            <Time>2018-04-30T12:52:11.000Z</Time>
            <Position>
              <LatitudeDegrees>42.712198086082935333251953125</LatitudeDegrees>
              <LongitudeDegrees>1.27781032584607601165771484375</LongitudeDegrees>
            </Position>
            <AltitudeMeters>2862.199951171875</AltitudeMeters>
            <DistanceMeters>7453.3973578087</DistanceMeters>
          </Trackpoint>
          <Trackpoint>
            <Time>2018-04-30T12:52:12.000Z</Time>
            <Position>
              <LatitudeDegrees>42.712196409702301025390625</LatitudeDegrees>
              <LongitudeDegrees>1.2778223119676113128662109375</LongitudeDegrees>
            </Position>
            <AltitudeMeters>2861</AltitudeMeters>
            <DistanceMeters>7454.3940063971</DistanceMeters>
          </Trackpoint>
          <Trackpoint>
            <Time>2018-04-30T12:52:17.000Z</Time>
            <Position>
              <LatitudeDegrees>42.7122136764228343963623046875</LatitudeDegrees>
              <LongitudeDegrees>1.2778337113559246063232421875</LongitudeDegrees>
            </Position>
            <AltitudeMeters>2858</AltitudeMeters>
            <DistanceMeters>7456.5294662081</DistanceMeters>
          </Trackpoint>
          <Trackpoint>
            <Time>2018-04-30T12:52:30.000Z</Time>
            <Position>
              <LatitudeDegrees>42.712195403873920440673828125</LatitudeDegrees>
              <LongitudeDegrees>1.27790001221001148223876953125</LongitudeDegrees>
            </Position>
            <AltitudeMeters>2855</AltitudeMeters>
            <DistanceMeters>7462.3206408655</DistanceMeters>
          </Trackpoint>
          <Trackpoint>
            <Time>2018-04-30T12:52:31.000Z</Time>
            <Position>
              <LatitudeDegrees>42.71219263784587383270263671875</LatitudeDegrees>
              <LongitudeDegrees>1.2779205478727817535400390625</LongitudeDegrees>
            </Position>
            <AltitudeMeters>2854.39990234375</AltitudeMeters>
            <DistanceMeters>7464.0284800533</DistanceMeters>
          </Trackpoint>
          <Trackpoint>
            <Time>2018-04-30T12:52:32.000Z</Time>
            <Position>
              <LatitudeDegrees>42.71219146437942981719970703125</LatitudeDegrees>
              <LongitudeDegrees>1.2779366411268711090087890625</LongitudeDegrees>
            </Position>
            <AltitudeMeters>2854</AltitudeMeters>
            <DistanceMeters>7465.3520490278</DistanceMeters>
          </Trackpoint>
          <Trackpoint>
            <Time>2018-04-30T12:52:36.000Z</Time>
            <Position>
              <LatitudeDegrees>42.71218157373368740081787109375</LatitudeDegrees>
              <LongitudeDegrees>1.27795533277094364166259765625</LongitudeDegrees>
            </Position>
            <AltitudeMeters>2851</AltitudeMeters>
            <DistanceMeters>7467.2382754508</DistanceMeters>
          </Trackpoint>
          <Trackpoint>
            <Time>2018-04-30T12:52:38.000Z</Time>
            <Position>
              <LatitudeDegrees>42.71218660287559032440185546875</LatitudeDegrees>
              <LongitudeDegrees>1.2779745273292064666748046875</LongitudeDegrees>
            </Position>
            <AltitudeMeters>2850.60009765625</AltitudeMeters>
            <DistanceMeters>7468.9059875197</DistanceMeters>
          </Trackpoint>
          <Trackpoint>
            <Time>2018-04-30T12:52:39.000Z</Time>
            <Position>
              <LatitudeDegrees>42.7121828310191631317138671875</LatitudeDegrees>
              <LongitudeDegrees>1.27799321897327899932861328125</LongitudeDegrees>
            </Position>
            <AltitudeMeters>2850.199951171875</AltitudeMeters>
            <DistanceMeters>7470.493246581</DistanceMeters>
          </Trackpoint>
          <Trackpoint>
            <Time>2018-04-30T12:52:40.000Z</Time>
            <Position>
              <LatitudeDegrees>42.71217972971498966217041015625</LatitudeDegrees>
              <LongitudeDegrees>1.27800947986543178558349609375</LongitudeDegrees>
            </Position>
            <AltitudeMeters>2849.39990234375</AltitudeMeters>
            <DistanceMeters>7471.8703144999</DistanceMeters>
          </Trackpoint>
          <Trackpoint>
            <Time>2018-04-30T12:52:41.000Z</Time>
            <Position>
              <LatitudeDegrees>42.71217696368694305419921875</LatitudeDegrees>
              <LongitudeDegrees>1.27801962196826934814453125</LongitudeDegrees>
            </Position>
            <AltitudeMeters>2848.39990234375</AltitudeMeters>
            <DistanceMeters>7472.756664685</DistanceMeters>
          </Trackpoint>
          <Trackpoint>
            <Time>2018-04-30T12:52:42.000Z</Time>
            <Position>
              <LatitudeDegrees>42.712180316448211669921875</LatitudeDegrees>
              <LongitudeDegrees>1.27802657894790172576904296875</LongitudeDegrees>
            </Position>
            <AltitudeMeters>2847.800048828125</AltitudeMeters>
            <DistanceMeters>7473.4419120674</DistanceMeters>
          </Trackpoint>
          <Trackpoint>
            <Time>2018-04-30T12:52:43.000Z</Time>
            <Position>
              <LatitudeDegrees>42.7121791429817676544189453125</LatitudeDegrees>
              <LongitudeDegrees>1.27803378738462924957275390625</LongitudeDegrees>
            </Position>
            <AltitudeMeters>2847.39990234375</AltitudeMeters>
            <DistanceMeters>7474.0429137794</DistanceMeters>
          </Trackpoint>
          <Trackpoint>
            <Time>2018-04-30T12:52:57.000Z</Time>
            <Position>
              <LatitudeDegrees>42.7122079767286777496337890625</LatitudeDegrees>
              <LongitudeDegrees>1.2780593521893024444580078125</LongitudeDegrees>
            </Position>
            <AltitudeMeters>2847.199951171875</AltitudeMeters>
            <DistanceMeters>7477.8723842578</DistanceMeters>
          </Trackpoint>
          <Trackpoint>
            <Time>2018-04-30T12:53:10.000Z</Time>
            <Position>
              <LatitudeDegrees>42.71221962757408618927001953125</LatitudeDegrees>
              <LongitudeDegrees>1.27814761362969875335693359375</LongitudeDegrees>
            </Position>
            <AltitudeMeters>2844</AltitudeMeters>
            <DistanceMeters>7485.2066984982</DistanceMeters>
          </Trackpoint>
          <Trackpoint>
            <Time>2018-04-30T12:53:11.000Z</Time>
            <Position>
              <LatitudeDegrees>42.712210826575756072998046875</LatitudeDegrees>
              <LongitudeDegrees>1.2781777046620845794677734375</LongitudeDegrees>
            </Position>
            <AltitudeMeters>2843.39990234375</AltitudeMeters>
            <DistanceMeters>7487.855541528</DistanceMeters>
          </Trackpoint>
          <Trackpoint>
            <Time>2018-04-30T12:53:12.000Z</Time>
            <Position>
              <LatitudeDegrees>42.71220101974904537200927734375</LatitudeDegrees>
              <LongitudeDegrees>1.27820058725774288177490234375</LongitudeDegrees>
            </Position>
            <AltitudeMeters>2842.199951171875</AltitudeMeters>
            <DistanceMeters>7490.0224840171</DistanceMeters>
          </Trackpoint>
          <Trackpoint>
            <Time>2018-04-30T12:53:13.000Z</Time>
            <Position>
              <LatitudeDegrees>42.7121999301016330718994140625</LatitudeDegrees>
              <LongitudeDegrees>1.27820410765707492828369140625</LongitudeDegrees>
            </Position>
            <AltitudeMeters>2841</AltitudeMeters>
            <DistanceMeters>7490.3229848731</DistanceMeters>
          </Trackpoint>
          <Trackpoint>
            <Time>2018-04-30T12:53:14.000Z</Time>
            <Position>
              <LatitudeDegrees>42.7122022770345211029052734375</LatitudeDegrees>
              <LongitudeDegrees>1.2782095558941364288330078125</LongitudeDegrees>
            </Position>
            <AltitudeMeters>2840.199951171875</AltitudeMeters>
            <DistanceMeters>7490.8258189813</DistanceMeters>
          </Trackpoint>
          <Trackpoint>
            <Time>2018-04-30T12:53:32.000Z</Time>
            <Position>
              <LatitudeDegrees>42.7122009359300136566162109375</LatitudeDegrees>
              <LongitudeDegrees>1.27824853174388408660888671875</LongitudeDegrees>
            </Position>
            <AltitudeMeters>2839.800048828125</AltitudeMeters>
            <DistanceMeters>7494.0145281364</DistanceMeters>
          </Trackpoint>
          <Trackpoint>
            <Time>2018-04-30T12:53:39.000Z</Time>
            <Position>
              <LatitudeDegrees>42.712199427187442779541015625</LatitudeDegrees>
              <LongitudeDegrees>1.2783369608223438262939453125</LongitudeDegrees>
            </Position>
            <AltitudeMeters>2839</AltitudeMeters>
            <DistanceMeters>7501.2484270155</DistanceMeters>
          </Trackpoint>
          <Trackpoint>
            <Time>2018-04-30T12:53:41.000Z</Time>
            <Position>
              <LatitudeDegrees>42.7122042886912822723388671875</LatitudeDegrees>
              <LongitudeDegrees>1.2783832289278507232666015625</LongitudeDegrees>
            </Position>
            <AltitudeMeters>2836.800048828125</AltitudeMeters>
            <DistanceMeters>7505.0708168028</DistanceMeters>
          </Trackpoint>
          <Trackpoint>
            <Time>2018-04-30T12:53:42.000Z</Time>
            <Position>
              <LatitudeDegrees>42.71219112910330295562744140625</LatitudeDegrees>
              <LongitudeDegrees>1.27840745262801647186279296875</LongitudeDegrees>
            </Position>
            <AltitudeMeters>2835.800048828125</AltitudeMeters>
            <DistanceMeters>7507.5341907839</DistanceMeters>
          </Trackpoint>
          <Trackpoint>
            <Time>2018-04-30T12:53:43.000Z</Time>
            <Position>
              <LatitudeDegrees>42.712185680866241455078125</LatitudeDegrees>
              <LongitudeDegrees>1.2784201093018054962158203125</LongitudeDegrees>
            </Position>
            <AltitudeMeters>2834.199951171875</AltitudeMeters>
            <DistanceMeters>7508.7324320595</DistanceMeters>
          </Trackpoint>
          <Trackpoint>
            <Time>2018-04-30T12:53:44.000Z</Time>
            <Position>
              <LatitudeDegrees>42.71218475885689258575439453125</LatitudeDegrees>
              <LongitudeDegrees>1.2784368731081485748291015625</LongitudeDegrees>
            </Position>
            <AltitudeMeters>2832.800048828125</AltitudeMeters>
            <DistanceMeters>7510.1062173327</DistanceMeters>
          </Trackpoint>
          <Trackpoint>
            <Time>2018-04-30T12:53:45.000Z</Time>
            <Position>
              <LatitudeDegrees>42.71219297312200069427490234375</LatitudeDegrees>
              <LongitudeDegrees>1.27846931107342243194580078125</LongitudeDegrees>
            </Position>
            <AltitudeMeters>2831.800048828125</AltitudeMeters>
            <DistanceMeters>7512.9139311243</DistanceMeters>
          </Trackpoint>
          <Trackpoint>
            <Time>2018-04-30T12:53:46.000Z</Time>
            <Position>
              <LatitudeDegrees>42.71219967864453792572021484375</LatitudeDegrees>
              <LongitudeDegrees>1.278484649956226348876953125</LongitudeDegrees>
            </Position>
            <AltitudeMeters>2830.199951171875</AltitudeMeters>
            <DistanceMeters>7514.3737592103</DistanceMeters>
          </Trackpoint>
          <Trackpoint>
            <Time>2018-04-30T12:53:47.000Z</Time>
            <Position>
              <LatitudeDegrees>42.7122032828629016876220703125</LatitudeDegrees>
              <LongitudeDegrees>1.27849412150681018829345703125</LongitudeDegrees>
            </Position>
            <AltitudeMeters>2829</AltitudeMeters>
            <DistanceMeters>7515.2446934336</DistanceMeters>
          </Trackpoint>
          <Trackpoint>
            <Time>2018-04-30T12:53:51.000Z</Time>
            <Position>
              <LatitudeDegrees>42.71219414658844470977783203125</LatitudeDegrees>
              <LongitudeDegrees>1.27848071046173572540283203125</LongitudeDegrees>
            </Position>
            <AltitudeMeters>2826.800048828125</AltitudeMeters>
            <DistanceMeters>7516.741175628</DistanceMeters>
          </Trackpoint>
          <Trackpoint>
            <Time>2018-04-30T12:55:01.000Z</Time>
            <Position>
              <LatitudeDegrees>42.712175957858562469482421875</LatitudeDegrees>
              <LongitudeDegrees>1.27850233577191829681396484375</LongitudeDegrees>
            </Position>
            <AltitudeMeters>2824.199951171875</AltitudeMeters>
            <DistanceMeters>7519.4322945975</DistanceMeters>
          </Trackpoint>
          <Trackpoint>
            <Time>2018-04-30T12:55:02.000Z</Time>
            <Position>
              <LatitudeDegrees>42.71216430701315402984619140625</LatitudeDegrees>
              <LongitudeDegrees>1.27852882258594036102294921875</LongitudeDegrees>
            </Position>
            <AltitudeMeters>2823.60009765625</AltitudeMeters>
            <DistanceMeters>7521.9572171645</DistanceMeters>
          </Trackpoint>
          <Trackpoint>
            <Time>2018-04-30T12:55:03.000Z</Time>
            <Position>
              <LatitudeDegrees>42.71215927787125110626220703125</LatitudeDegrees>
              <LongitudeDegrees>1.278556399047374725341796875</LongitudeDegrees>
            </Position>
            <AltitudeMeters>2822.199951171875</AltitudeMeters>
            <DistanceMeters>7524.2810040982</DistanceMeters>
          </Trackpoint>
          <Trackpoint>
            <Time>2018-04-30T12:55:04.000Z</Time>
            <Position>
              <LatitudeDegrees>42.7121593616902828216552734375</LatitudeDegrees>
              <LongitudeDegrees>1.27859386615455150604248046875</LongitudeDegrees>
            </Position>
            <AltitudeMeters>2821</AltitudeMeters>
            <DistanceMeters>7527.3455235551</DistanceMeters>
          </Trackpoint>
          <Trackpoint>
            <Time>2018-04-30T12:55:05.000Z</Time>
            <Position>
              <LatitudeDegrees>42.71216782741248607635498046875</LatitudeDegrees>
              <LongitudeDegrees>1.2786237895488739013671875</LongitudeDegrees>
            </Position>
            <AltitudeMeters>2819.39990234375</AltitudeMeters>
            <DistanceMeters>7529.9686739988</DistanceMeters>
          </Trackpoint>
          <Trackpoint>
            <Time>2018-04-30T12:55:06.000Z</Time>
            <Position>
              <LatitudeDegrees>42.7121747843921184539794921875</LatitudeDegrees>
              <LongitudeDegrees>1.2786611728370189666748046875</LongitudeDegrees>
            </Position>
            <AltitudeMeters>2817.800048828125</AltitudeMeters>
            <DistanceMeters>7533.1217858213</DistanceMeters>
          </Trackpoint>
          <Trackpoint>
            <Time>2018-04-30T12:55:07.000Z</Time>
            <Position>
              <LatitudeDegrees>42.71215609274804592132568359375</LatitudeDegrees>
              <LongitudeDegrees>1.2786987237632274627685546875</LongitudeDegrees>
            </Position>
            <AltitudeMeters>2816.60009765625</AltitudeMeters>
            <DistanceMeters>7536.8290457727</DistanceMeters>
          </Trackpoint>
          <Trackpoint>
            <Time>2018-04-30T12:55:08.000Z</Time>
            <Position>
              <LatitudeDegrees>42.7121441066265106201171875</LatitudeDegrees>
              <LongitudeDegrees>1.27872579731047153472900390625</LongitudeDegrees>
            </Position>
            <AltitudeMeters>2814.199951171875</AltitudeMeters>
            <DistanceMeters>7539.4140518788</DistanceMeters>
          </Trackpoint>
          <Trackpoint>
            <Time>2018-04-30T12:55:09.000Z</Time>
            <Position>
              <LatitudeDegrees>42.7121419273316860198974609375</LatitudeDegrees>
              <LongitudeDegrees>1.27876284532248973846435546875</LongitudeDegrees>
            </Position>
            <AltitudeMeters>2812.39990234375</AltitudeMeters>
            <DistanceMeters>7542.4549067387</DistanceMeters>
          </Trackpoint>
          <Trackpoint>
            <Time>2018-04-30T12:55:10.000Z</Time>
            <Position>
              <LatitudeDegrees>42.7121358923614025115966796875</LatitudeDegrees>
              <LongitudeDegrees>1.27879385836422443389892578125</LongitudeDegrees>
            </Position>
            <AltitudeMeters>2810.199951171875</AltitudeMeters>
            <DistanceMeters>7545.0780571824</DistanceMeters>
          </Trackpoint>
          <Trackpoint>
            <Time>2018-04-30T12:55:11.000Z</Time>
            <Position>
              <LatitudeDegrees>42.71213815547525882720947265625</LatitudeDegrees>
              <LongitudeDegrees>1.2787919305264949798583984375</LongitudeDegrees>
            </Position>
            <AltitudeMeters>2808.60009765625</AltitudeMeters>
            <DistanceMeters>7545.3785580383</DistanceMeters>
          </Trackpoint>
          <Trackpoint>
            <Time>2018-04-30T12:55:13.000Z</Time>
            <Position>
              <LatitudeDegrees>42.7121295221149921417236328125</LatitudeDegrees>
              <LongitudeDegrees>1.27877105958759784698486328125</LongitudeDegrees>
            </Position>
            <AltitudeMeters>2807</AltitudeMeters>
            <DistanceMeters>7547.3398873236</DistanceMeters>
          </Trackpoint>
          <Trackpoint>
            <Time>2018-04-30T12:55:14.000Z</Time>
            <Position>
              <LatitudeDegrees>42.71213471889495849609375</LatitudeDegrees>
              <LongitudeDegrees>1.27877826802432537078857421875</LongitudeDegrees>
            </Position>
            <AltitudeMeters>2806.199951171875</AltitudeMeters>
            <DistanceMeters>7548.1628428104</DistanceMeters>
          </Trackpoint>
          <Trackpoint>
            <Time>2018-04-30T12:55:37.000Z</Time>
            <Position>
              <LatitudeDegrees>42.7121311984956264495849609375</LatitudeDegrees>
              <LongitudeDegrees>1.27873845398426055908203125</LongitudeDegrees>
            </Position>
            <AltitudeMeters>2804.60009765625</AltitudeMeters>
            <DistanceMeters>7551.4422971926</DistanceMeters>
          </Trackpoint>
          <Trackpoint>
            <Time>2018-04-30T12:55:53.000Z</Time>
            <Position>
              <LatitudeDegrees>42.712140418589115142822265625</LatitudeDegrees>
              <LongitudeDegrees>1.27871590666472911834716796875</LongitudeDegrees>
            </Position>
            <AltitudeMeters>2804.39990234375</AltitudeMeters>
            <DistanceMeters>7553.5500916822</DistanceMeters>
          </Trackpoint>
          <Trackpoint>
            <Time>2018-04-30T12:56:17.000Z</Time>
            <Position>
              <LatitudeDegrees>42.7121368981897830963134765625</LatitudeDegrees>
              <LongitudeDegrees>1.2786722369492053985595703125</LongitudeDegrees>
            </Position>
            <AltitudeMeters>2804.199951171875</AltitudeMeters>
            <DistanceMeters>7557.1410454778</DistanceMeters>
          </Trackpoint>
          <Trackpoint>
            <Time>2018-04-30T12:56:30.000Z</Time>
            <Position>
              <LatitudeDegrees>42.7121570147573947906494140625</LatitudeDegrees>
              <LongitudeDegrees>1.278705261647701263427734375</LongitudeDegrees>
            </Position>
            <AltitudeMeters>2803.800048828125</AltitudeMeters>
            <DistanceMeters>7560.6480333758</DistanceMeters>
          </Trackpoint>
          <Trackpoint>
            <Time>2018-04-30T12:56:31.000Z</Time>
            <Position>
              <LatitudeDegrees>42.71215156652033329010009765625</LatitudeDegrees>
              <LongitudeDegrees>1.27872998826205730438232421875</LongitudeDegrees>
            </Position>
            <AltitudeMeters>2803.39990234375</AltitudeMeters>
            <DistanceMeters>7562.7601076555</DistanceMeters>
          </Trackpoint>
          <Trackpoint>
            <Time>2018-04-30T12:56:32.000Z</Time>
            <Position>
              <LatitudeDegrees>42.71212256513535976409912109375</LatitudeDegrees>
              <LongitudeDegrees>1.27879436127841472625732421875</LongitudeDegrees>
            </Position>
            <AltitudeMeters>2802.39990234375</AltitudeMeters>
            <DistanceMeters>7568.9353819671</DistanceMeters>
          </Trackpoint>
          <Trackpoint>
            <Time>2018-04-30T12:56:33.000Z</Time>
            <Position>
              <LatitudeDegrees>42.71213312633335590362548828125</LatitudeDegrees>
              <LongitudeDegrees>1.27883107401430606842041015625</LongitudeDegrees>
            </Position>
            <AltitudeMeters>2801.199951171875</AltitudeMeters>
            <DistanceMeters>7572.1606956051</DistanceMeters>
          </Trackpoint>
          <Trackpoint>
            <Time>2018-04-30T12:56:34.000Z</Time>
            <Position>
              <LatitudeDegrees>42.7121352218091487884521484375</LatitudeDegrees>
              <LongitudeDegrees>1.2788915075361728668212890625</LongitudeDegrees>
            </Position>
            <AltitudeMeters>2799</AltitudeMeters>
            <DistanceMeters>7577.1093891009</DistanceMeters>
          </Trackpoint>
          <Trackpoint>
            <Time>2018-04-30T12:56:35.000Z</Time>
            <Position>
              <LatitudeDegrees>42.7121248282492160797119140625</LatitudeDegrees>
              <LongitudeDegrees>1.2789397872984409332275390625</LongitudeDegrees>
            </Position>
            <AltitudeMeters>2796.60009765625</AltitudeMeters>
            <DistanceMeters>7581.2241665351</DistanceMeters>
          </Trackpoint>
          <Trackpoint>
            <Time>2018-04-30T12:56:36.000Z</Time>
            <Position>
              <LatitudeDegrees>42.71213530562818050384521484375</LatitudeDegrees>
              <LongitudeDegrees>1.27899460494518280029296875</LongitudeDegrees>
            </Position>
            <AltitudeMeters>2794</AltitudeMeters>
            <DistanceMeters>7585.85422069</DistanceMeters>
          </Trackpoint>
          <Trackpoint>
            <Time>2018-04-30T12:56:37.000Z</Time>
            <Position>
              <LatitudeDegrees>42.71214804612100124359130859375</LatitudeDegrees>
              <LongitudeDegrees>1.2790584750473499298095703125</LongitudeDegrees>
            </Position>
            <AltitudeMeters>2791.39990234375</AltitudeMeters>
            <DistanceMeters>7591.266573966</DistanceMeters>
          </Trackpoint>
          <Trackpoint>
            <Time>2018-04-30T12:56:38.000Z</Time>
            <Position>
              <LatitudeDegrees>42.71214871667325496673583984375</LatitudeDegrees>
              <LongitudeDegrees>1.2791144661605358123779296875</LongitudeDegrees>
            </Position>
            <AltitudeMeters>2788.39990234375</AltitudeMeters>
            <DistanceMeters>7595.8476107107</DistanceMeters>
          </Trackpoint>
          <Trackpoint>
            <Time>2018-04-30T12:56:39.000Z</Time>
            <Position>
              <LatitudeDegrees>42.71214905194938182830810546875</LatitudeDegrees>
              <LongitudeDegrees>1.27916852943599224090576171875</LongitudeDegrees>
            </Position>
            <AltitudeMeters>2785.60009765625</AltitudeMeters>
            <DistanceMeters>7600.2691619657</DistanceMeters>
          </Trackpoint>
          <Trackpoint>
            <Time>2018-04-30T12:56:40.000Z</Time>
            <Position>
              <LatitudeDegrees>42.71215542219579219818115234375</LatitudeDegrees>
              <LongitudeDegrees>1.27923575229942798614501953125</LongitudeDegrees>
            </Position>
            <AltitudeMeters>2782.60009765625</AltitudeMeters>
            <DistanceMeters>7605.811753423</DistanceMeters>
          </Trackpoint>
          <Trackpoint>
            <Time>2018-04-30T12:56:41.000Z</Time>
            <Position>
              <LatitudeDegrees>42.71214921958744525909423828125</LatitudeDegrees>
              <LongitudeDegrees>1.2792924977838993072509765625</LongitudeDegrees>
            </Position>
            <AltitudeMeters>2779.800048828125</AltitudeMeters>
            <DistanceMeters>7610.503802695</DistanceMeters>
          </Trackpoint>
          <Trackpoint>
            <Time>2018-04-30T12:56:42.000Z</Time>
            <Position>
              <LatitudeDegrees>42.7121441066265106201171875</LatitudeDegrees>
              <LongitudeDegrees>1.27935678698122501373291015625</LongitudeDegrees>
            </Position>
            <AltitudeMeters>2777</AltitudeMeters>
            <DistanceMeters>7615.7929592273</DistanceMeters>
          </Trackpoint>
          <Trackpoint>
            <Time>2018-04-30T12:56:43.000Z</Time>
            <Position>
              <LatitudeDegrees>42.7121508121490478515625</LatitudeDegrees>
              <LongitudeDegrees>1.27942350693047046661376953125</LongitudeDegrees>
            </Position>
            <AltitudeMeters>2774</AltitudeMeters>
            <DistanceMeters>7621.2995912922</DistanceMeters>
          </Trackpoint>
          <Trackpoint>
            <Time>2018-04-30T12:56:44.000Z</Time>
            <Position>
              <LatitudeDegrees>42.71214569918811321258544921875</LatitudeDegrees>
              <LongitudeDegrees>1.27948653884232044219970703125</LongitudeDegrees>
            </Position>
            <AltitudeMeters>2772.39990234375</AltitudeMeters>
            <DistanceMeters>7626.4852993104</DistanceMeters>
          </Trackpoint>
          <Trackpoint>
            <Time>2018-04-30T12:56:45.000Z</Time>
            <Position>
              <LatitudeDegrees>42.71215416491031646728515625</LatitudeDegrees>
              <LongitudeDegrees>1.27954940311610698699951171875</LongitudeDegrees>
            </Position>
            <AltitudeMeters>2768.60009765625</AltitudeMeters>
            <DistanceMeters>7631.7109046502</DistanceMeters>
          </Trackpoint>
          <Trackpoint>
            <Time>2018-04-30T12:56:46.000Z</Time>
            <Position>
              <LatitudeDegrees>42.71217889152467250823974609375</LatitudeDegrees>
              <LongitudeDegrees>1.279580332338809967041015625</LongitudeDegrees>
            </Position>
            <AltitudeMeters>2765.39990234375</AltitudeMeters>
            <DistanceMeters>7635.4472796558</DistanceMeters>
          </Trackpoint>
          <Trackpoint>
            <Time>2018-04-30T12:56:47.000Z</Time>
            <Position>
              <LatitudeDegrees>42.71219397895038127899169921875</LatitudeDegrees>
              <LongitudeDegrees>1.2795731239020824432373046875</LongitudeDegrees>
            </Position>
            <AltitudeMeters>2762.39990234375</AltitudeMeters>
            <DistanceMeters>7637.2276045789</DistanceMeters>
          </Trackpoint>
          <Trackpoint>
            <Time>2018-04-30T12:56:48.000Z</Time>
            <Position>
              <LatitudeDegrees>42.71220252849161624908447265625</LatitudeDegrees>
              <LongitudeDegrees>1.2796237505972385406494140625</LongitudeDegrees>
            </Position>
            <AltitudeMeters>2759.60009765625</AltitudeMeters>
            <DistanceMeters>7641.4762658752</DistanceMeters>
          </Trackpoint>
          <Trackpoint>
            <Time>2018-04-30T12:56:49.000Z</Time>
            <Position>
              <LatitudeDegrees>42.7122173644602298736572265625</LatitudeDegrees>
              <LongitudeDegrees>1.27968049608170986175537109375</LongitudeDegrees>
            </Position>
            <AltitudeMeters>2756.199951171875</AltitudeMeters>
            <DistanceMeters>7646.4020973183</DistanceMeters>
          </Trackpoint>
          <Trackpoint>
            <Time>2018-04-30T12:56:50.000Z</Time>
            <Position>
              <LatitudeDegrees>42.7122264169156551361083984375</LatitudeDegrees>
              <LongitudeDegrees>1.2797139398753643035888671875</LongitudeDegrees>
            </Position>
            <AltitudeMeters>2753</AltitudeMeters>
            <DistanceMeters>7649.3155612115</DistanceMeters>
          </Trackpoint>
          <Trackpoint>
            <Time>2018-04-30T12:56:51.000Z</Time>
            <Position>
              <LatitudeDegrees>42.7122398279607295989990234375</LatitudeDegrees>
              <LongitudeDegrees>1.27980119548738002777099609375</LongitudeDegrees>
            </Position>
            <AltitudeMeters>2750.39990234375</AltitudeMeters>
            <DistanceMeters>7656.6060365012</DistanceMeters>
          </Trackpoint>
          <Trackpoint>
            <Time>2018-04-30T12:56:52.000Z</Time>
            <Position>
              <LatitudeDegrees>42.71223035641014575958251953125</LatitudeDegrees>
              <LongitudeDegrees>1.27988702617585659027099609375</LongitudeDegrees>
            </Position>
            <AltitudeMeters>2747.199951171875</AltitudeMeters>
            <DistanceMeters>7663.7038387301</DistanceMeters>
          </Trackpoint>
          <Trackpoint>
            <Time>2018-04-30T12:56:53.000Z</Time>
            <Position>
              <LatitudeDegrees>42.71222683601081371307373046875</LatitudeDegrees>
              <LongitudeDegrees>1.27995072863996028900146484375</LongitudeDegrees>
            </Position>
            <AltitudeMeters>2744.199951171875</AltitudeMeters>
            <DistanceMeters>7668.9285799763</DistanceMeters>
          </Trackpoint>
          <Trackpoint>
            <Time>2018-04-30T12:56:54.000Z</Time>
            <Position>
              <LatitudeDegrees>42.7122297696769237518310546875</LatitudeDegrees>
              <LongitudeDegrees>1.28002985380589962005615234375</LongitudeDegrees>
            </Position>
            <AltitudeMeters>2740.60009765625</AltitudeMeters>
            <DistanceMeters>7675.4071442703</DistanceMeters>
          </Trackpoint>
          <Trackpoint>
            <Time>2018-04-30T12:56:55.000Z</Time>
            <Position>
              <LatitudeDegrees>42.7122151851654052734375</LatitudeDegrees>
              <LongitudeDegrees>1.28008584491908550262451171875</LongitudeDegrees>
            </Position>
            <AltitudeMeters>2738.199951171875</AltitudeMeters>
            <DistanceMeters>7680.26374387</DistanceMeters>
          </Trackpoint>
          <Trackpoint>
            <Time>2018-04-30T12:56:56.000Z</Time>
            <Position>
              <LatitudeDegrees>42.7121892012655735015869140625</LatitudeDegrees>
              <LongitudeDegrees>1.280129514634609222412109375</LongitudeDegrees>
            </Position>
            <AltitudeMeters>2734.199951171875</AltitudeMeters>
            <DistanceMeters>7684.8585581999</DistanceMeters>
          </Trackpoint>
          <Trackpoint>
            <Time>2018-04-30T12:56:57.000Z</Time>
            <Position>
              <LatitudeDegrees>42.712175957858562469482421875</LatitudeDegrees>
              <LongitudeDegrees>1.280189864337444305419921875</LongitudeDegrees>
            </Position>
            <AltitudeMeters>2731.60009765625</AltitudeMeters>
            <DistanceMeters>7690.0093216959</DistanceMeters>
          </Trackpoint>
          <Trackpoint>
            <Time>2018-04-30T12:56:58.000Z</Time>
            <Position>
              <LatitudeDegrees>42.71216782741248607635498046875</LatitudeDegrees>
              <LongitudeDegrees>1.28025147132575511932373046875</LongitudeDegrees>
            </Position>
            <AltitudeMeters>2728.800048828125</AltitudeMeters>
            <DistanceMeters>7695.1284311732</DistanceMeters>
          </Trackpoint>
          <Trackpoint>
            <Time>2018-04-30T12:56:59.000Z</Time>
            <Position>
              <LatitudeDegrees>42.7121762931346893310546875</LatitudeDegrees>
              <LongitudeDegrees>1.28032623790204524993896484375</LongitudeDegrees>
            </Position>
            <AltitudeMeters>2726.199951171875</AltitudeMeters>
            <DistanceMeters>7701.3153927899</DistanceMeters>
          </Trackpoint>
          <Trackpoint>
            <Time>2018-04-30T12:57:00.000Z</Time>
            <Position>
              <LatitudeDegrees>42.71218542940914630889892578125</LatitudeDegrees>
              <LongitudeDegrees>1.28040083684027194976806640625</LongitudeDegrees>
            </Position>
            <AltitudeMeters>2722.800048828125</AltitudeMeters>
            <DistanceMeters>7707.5001647191</DistanceMeters>
          </Trackpoint>
          <Trackpoint>
            <Time>2018-04-30T12:57:01.000Z</Time>
            <Position>
              <LatitudeDegrees>42.712183333933353424072265625</LatitudeDegrees>
              <LongitudeDegrees>1.28047208301723003387451171875</LongitudeDegrees>
            </Position>
            <AltitudeMeters>2720</AltitudeMeters>
            <DistanceMeters>7713.3317397969</DistanceMeters>
          </Trackpoint>
          <Trackpoint>
            <Time>2018-04-30T12:57:02.000Z</Time>
            <Position>
              <LatitudeDegrees>42.71219230256974697113037109375</LatitudeDegrees>
              <LongitudeDegrees>1.28054299391806125640869140625</LongitudeDegrees>
            </Position>
            <AltitudeMeters>2718</AltitudeMeters>
            <DistanceMeters>7719.2157276526</DistanceMeters>
          </Trackpoint>
          <Trackpoint>
            <Time>2018-04-30T12:57:03.000Z</Time>
            <Position>
              <LatitudeDegrees>42.7122059650719165802001953125</LatitudeDegrees>
              <LongitudeDegrees>1.280615665018558502197265625</LongitudeDegrees>
            </Position>
            <AltitudeMeters>2714.800048828125</AltitudeMeters>
            <DistanceMeters>7725.3499210423</DistanceMeters>
          </Trackpoint>
          <Trackpoint>
            <Time>2018-04-30T12:57:04.000Z</Time>
            <Position>
              <LatitudeDegrees>42.7122089825570583343505859375</LatitudeDegrees>
              <LongitudeDegrees>1.28068841993808746337890625</LongitudeDegrees>
            </Position>
            <AltitudeMeters>2712.39990234375</AltitudeMeters>
            <DistanceMeters>7731.3101492871</DistanceMeters>
          </Trackpoint>
          <Trackpoint>
            <Time>2018-04-30T12:57:05.000Z</Time>
            <Position>
              <LatitudeDegrees>42.71222314797341823577880859375</LatitudeDegrees>
              <LongitudeDegrees>1.2807559780776500701904296875</LongitudeDegrees>
            </Position>
            <AltitudeMeters>2710.199951171875</AltitudeMeters>
            <DistanceMeters>7737.055140967</DistanceMeters>
          </Trackpoint>
          <Trackpoint>
            <Time>2018-04-30T12:57:06.000Z</Time>
            <Position>
              <LatitudeDegrees>42.7122136764228343963623046875</LatitudeDegrees>
              <LongitudeDegrees>1.2808136455714702606201171875</LongitudeDegrees>
            </Position>
            <AltitudeMeters>2708.60009765625</AltitudeMeters>
            <DistanceMeters>7741.887508677</DistanceMeters>
          </Trackpoint>
          <Trackpoint>
            <Time>2018-04-30T12:57:07.000Z</Time>
            <Position>
              <LatitudeDegrees>42.71219096146523952484130859375</LatitudeDegrees>
              <LongitudeDegrees>1.28086351789534091949462890625</LongitudeDegrees>
            </Position>
            <AltitudeMeters>2706</AltitudeMeters>
            <DistanceMeters>7746.6861225323</DistanceMeters>
          </Trackpoint>
          <Trackpoint>
            <Time>2018-04-30T12:57:08.000Z</Time>
            <Position>
              <LatitudeDegrees>42.71218710578978061676025390625</LatitudeDegrees>
              <LongitudeDegrees>1.28090190701186656951904296875</LongitudeDegrees>
            </Position>
            <AltitudeMeters>2704.39990234375</AltitudeMeters>
            <DistanceMeters>7749.8549464475</DistanceMeters>
          </Trackpoint>
          <Trackpoint>
            <Time>2018-04-30T12:57:11.000Z</Time>
            <Position>
              <LatitudeDegrees>42.71218727342784404754638671875</LatitudeDegrees>
              <LongitudeDegrees>1.2809117138385772705078125</LongitudeDegrees>
            </Position>
            <AltitudeMeters>2701.199951171875</AltitudeMeters>
            <DistanceMeters>7750.6556557752</DistanceMeters>
          </Trackpoint>
          <Trackpoint>
            <Time>2018-04-30T12:57:50.000Z</Time>
            <Position>
              <LatitudeDegrees>42.71221853792667388916015625</LatitudeDegrees>
              <LongitudeDegrees>1.2808837182819843292236328125</LongitudeDegrees>
            </Position>
            <AltitudeMeters>2700</AltitudeMeters>
            <DistanceMeters>7754.821685891</DistanceMeters>
          </Trackpoint>
          <Trackpoint>
            <Time>2018-04-30T12:59:50.000Z</Time>
            <Position>
              <LatitudeDegrees>42.71222834475338459014892578125</LatitudeDegrees>
              <LongitudeDegrees>1.28094716928899288177490234375</LongitudeDegrees>
            </Position>
            <AltitudeMeters>2698.199951171875</AltitudeMeters>
            <DistanceMeters>7760.1244830817</DistanceMeters>
          </Trackpoint>
          <Trackpoint>
            <Time>2018-04-30T12:59:51.000Z</Time>
            <Position>
              <LatitudeDegrees>42.7122116647660732269287109375</LatitudeDegrees>
              <LongitudeDegrees>1.28099276684224605560302734375</LongitudeDegrees>
            </Position>
            <AltitudeMeters>2697.39990234375</AltitudeMeters>
            <DistanceMeters>7764.2905131975</DistanceMeters>
          </Trackpoint>
          <Trackpoint>
            <Time>2018-04-30T12:59:52.000Z</Time>
            <Position>
              <LatitudeDegrees>42.71220789290964603424072265625</LatitudeDegrees>
              <LongitudeDegrees>1.28104557283222675323486328125</LongitudeDegrees>
            </Position>
            <AltitudeMeters>2696</AltitudeMeters>
            <DistanceMeters>7768.6285633711</DistanceMeters>
          </Trackpoint>
          <Trackpoint>
            <Time>2018-04-30T12:59:53.000Z</Time>
            <Position>
              <LatitudeDegrees>42.7122046239674091339111328125</LatitudeDegrees>
              <LongitudeDegrees>1.28111816011369228363037109375</LongitudeDegrees>
            </Position>
            <AltitudeMeters>2692.800048828125</AltitudeMeters>
            <DistanceMeters>7774.5758997019</DistanceMeters>
          </Trackpoint>
          <Trackpoint>
            <Time>2018-04-30T12:59:54.000Z</Time>
            <Position>
              <LatitudeDegrees>42.71218341775238513946533203125</LatitudeDegrees>
              <LongitudeDegrees>1.28117331303656101226806640625</LongitudeDegrees>
            </Position>
            <AltitudeMeters>2690.800048828125</AltitudeMeters>
            <DistanceMeters>7779.666707044</DistanceMeters>
          </Trackpoint>
          <Trackpoint>
            <Time>2018-04-30T12:59:55.000Z</Time>
            <Position>
              <LatitudeDegrees>42.71214905194938182830810546875</LatitudeDegrees>
              <LongitudeDegrees>1.28122108988463878631591796875</LongitudeDegrees>
            </Position>
            <AltitudeMeters>2689</AltitudeMeters>
            <DistanceMeters>7785.1338409393</DistanceMeters>
          </Trackpoint>
          <Trackpoint>
            <Time>2018-04-30T12:59:56.000Z</Time>
            <Position>
              <LatitudeDegrees>42.71214611828327178955078125</LatitudeDegrees>
              <LongitudeDegrees>1.2812813557684421539306640625</LongitudeDegrees>
            </Position>
            <AltitudeMeters>2687.199951171875</AltitudeMeters>
            <DistanceMeters>7790.0724881706</DistanceMeters>
          </Trackpoint>
          <Trackpoint>
            <Time>2018-04-30T12:59:57.000Z</Time>
            <Position>
              <LatitudeDegrees>42.7121385745704174041748046875</LatitudeDegrees>
              <LongitudeDegrees>1.28134287893772125244140625</LongitudeDegrees>
            </Position>
            <AltitudeMeters>2684.39990234375</AltitudeMeters>
            <DistanceMeters>7795.1739272138</DistanceMeters>
          </Trackpoint>
          <Trackpoint>
            <Time>2018-04-30T12:59:58.000Z</Time>
            <Position>
              <LatitudeDegrees>42.71211250685155391693115234375</LatitudeDegrees>
              <LongitudeDegrees>1.28139291889965534210205078125</LongitudeDegrees>
            </Position>
            <AltitudeMeters>2682</AltitudeMeters>
            <DistanceMeters>7800.1914817103</DistanceMeters>
          </Trackpoint>
          <Trackpoint>
            <Time>2018-04-30T12:59:59.000Z</Time>
            <Position>
              <LatitudeDegrees>42.71209440194070339202880859375</LatitudeDegrees>
              <LongitudeDegrees>1.2814446352422237396240234375</LongitudeDegrees>
            </Position>
            <AltitudeMeters>2679.60009765625</AltitudeMeters>
            <DistanceMeters>7804.8767902205</DistanceMeters>
          </Trackpoint>
          <Trackpoint>
            <Time>2018-04-30T13:00:00.000Z</Time>
            <Position>
              <LatitudeDegrees>42.71207344718277454376220703125</LatitudeDegrees>
              <LongitudeDegrees>1.28149987198412418365478515625</LongitudeDegrees>
            </Position>
            <AltitudeMeters>2677</AltitudeMeters>
            <DistanceMeters>7809.9604974094</DistanceMeters>
          </Trackpoint>
          <Trackpoint>
            <Time>2018-04-30T13:00:01.000Z</Time>
            <Position>
              <LatitudeDegrees>42.71204109303653240203857421875</LatitudeDegrees>
              <LongitudeDegrees>1.28153960220515727996826171875</LongitudeDegrees>
            </Position>
            <AltitudeMeters>2674.800048828125</AltitudeMeters>
            <DistanceMeters>7814.8096539402</DistanceMeters>
          </Trackpoint>
          <Trackpoint>
            <Time>2018-04-30T13:00:02.000Z</Time>
            <Position>
              <LatitudeDegrees>42.7120151929557323455810546875</LatitudeDegrees>
              <LongitudeDegrees>1.28157396800816059112548828125</LongitudeDegrees>
            </Position>
            <AltitudeMeters>2673.199951171875</AltitudeMeters>
            <DistanceMeters>7818.8356925909</DistanceMeters>
          </Trackpoint>
          <Trackpoint>
            <Time>2018-04-30T13:00:03.000Z</Time>
            <Position>
              <LatitudeDegrees>42.71201712079346179962158203125</LatitudeDegrees>
              <LongitudeDegrees>1.281616799533367156982421875</LongitudeDegrees>
            </Position>
            <AltitudeMeters>2670</AltitudeMeters>
            <DistanceMeters>7822.3452544253</DistanceMeters>
          </Trackpoint>
          <Trackpoint>
            <Time>2018-04-30T13:00:04.000Z</Time>
            <Position>
              <LatitudeDegrees>42.71203421987593173980712890625</LatitudeDegrees>
              <LongitudeDegrees>1.28166315145790576934814453125</LongitudeDegrees>
            </Position>
            <AltitudeMeters>2668.199951171875</AltitudeMeters>
            <DistanceMeters>7826.5885989116</DistanceMeters>
          </Trackpoint>
          <Trackpoint>
            <Time>2018-04-30T13:00:05.000Z</Time>
            <Position>
              <LatitudeDegrees>42.71205089986324310302734375</LatitudeDegrees>
              <LongitudeDegrees>1.28172014839947223663330078125</LongitudeDegrees>
            </Position>
            <AltitudeMeters>2666.800048828125</AltitudeMeters>
            <DistanceMeters>7831.6061534081</DistanceMeters>
          </Trackpoint>
          <Trackpoint>
            <Time>2018-04-30T13:00:06.000Z</Time>
            <Position>
              <LatitudeDegrees>42.712063975632190704345703125</LatitudeDegrees>
              <LongitudeDegrees>1.28178921528160572052001953125</LongitudeDegrees>
            </Position>
            <AltitudeMeters>2666</AltitudeMeters>
            <DistanceMeters>7837.4392767602</DistanceMeters>
          </Trackpoint>
          <Trackpoint>
            <Time>2018-04-30T13:00:07.000Z</Time>
            <Position>
              <LatitudeDegrees>42.71207260899245738983154296875</LatitudeDegrees>
              <LongitudeDegrees>1.28187219612300395965576171875</LongitudeDegrees>
            </Position>
            <AltitudeMeters>2665.199951171875</AltitudeMeters>
            <DistanceMeters>7844.2943856444</DistanceMeters>
          </Trackpoint>
          <Trackpoint>
            <Time>2018-04-30T13:00:09.000Z</Time>
            <Position>
              <LatitudeDegrees>42.71208568476140499114990234375</LatitudeDegrees>
              <LongitudeDegrees>1.28204301930963993072509765625</LongitudeDegrees>
            </Position>
            <AltitudeMeters>2662.39990234375</AltitudeMeters>
            <DistanceMeters>7858.3403498387</DistanceMeters>
          </Trackpoint>
          <Trackpoint>
            <Time>2018-04-30T13:00:11.000Z</Time>
            <Position>
              <LatitudeDegrees>42.71210378967225551605224609375</LatitudeDegrees>
              <LongitudeDegrees>1.28219624049961566925048828125</LongitudeDegrees>
            </Position>
            <AltitudeMeters>2659.39990234375</AltitudeMeters>
            <DistanceMeters>7871.0320204776</DistanceMeters>
          </Trackpoint>
          <Trackpoint>
            <Time>2018-04-30T13:00:12.000Z</Time>
            <Position>
              <LatitudeDegrees>42.71210898645222187042236328125</LatitudeDegrees>
              <LongitudeDegrees>1.28227469511330127716064453125</LongitudeDegrees>
            </Position>
            <AltitudeMeters>2658.39990234375</AltitudeMeters>
            <DistanceMeters>7877.4749438369</DistanceMeters>
          </Trackpoint>
          <Trackpoint>
            <Time>2018-04-30T13:00:13.000Z</Time>
            <Position>
              <LatitudeDegrees>42.71211384795606136322021484375</LatitudeDegrees>
              <LongitudeDegrees>1.28235901705920696258544921875</LongitudeDegrees>
            </Position>
            <AltitudeMeters>2657.60009765625</AltitudeMeters>
            <DistanceMeters>7884.3929930672</DistanceMeters>
          </Trackpoint>
          <Trackpoint>
            <Time>2018-04-30T13:00:16.000Z</Time>
            <Position>
              <LatitudeDegrees>42.71212826482951641082763671875</LatitudeDegrees>
              <LongitudeDegrees>1.28262899816036224365234375</LongitudeDegrees>
            </Position>
            <AltitudeMeters>2654</AltitudeMeters>
            <DistanceMeters>7906.5307506042</DistanceMeters>
          </Trackpoint>
          <Trackpoint>
            <Time>2018-04-30T13:00:19.000Z</Time>
            <Position>
              <LatitudeDegrees>42.71212541498243808746337890625</LatitudeDegrees>
              <LongitudeDegrees>1.282946169376373291015625</LongitudeDegrees>
            </Position>
            <AltitudeMeters>2649.199951171875</AltitudeMeters>
            <DistanceMeters>7932.4714772055</DistanceMeters>
          </Trackpoint>
          <Trackpoint>
            <Time>2018-04-30T13:00:21.000Z</Time>
            <Position>
              <LatitudeDegrees>42.71211401559412479400634765625</LatitudeDegrees>
              <LongitudeDegrees>1.28314406611025333404541015625</LongitudeDegrees>
            </Position>
            <AltitudeMeters>2645.199951171875</AltitudeMeters>
            <DistanceMeters>7948.705756096</DistanceMeters>
          </Trackpoint>
          <Trackpoint>
            <Time>2018-04-30T13:00:23.000Z</Time>
            <Position>
              <LatitudeDegrees>42.712099514901638031005859375</LatitudeDegrees>
              <LongitudeDegrees>1.2832913361489772796630859375</LongitudeDegrees>
            </Position>
            <AltitudeMeters>2643.60009765625</AltitudeMeters>
            <DistanceMeters>7960.8572913904</DistanceMeters>
          </Trackpoint>
          <Trackpoint>
            <Time>2018-04-30T13:00:26.000Z</Time>
            <Position>
              <LatitudeDegrees>42.7120859362185001373291015625</LatitudeDegrees>
              <LongitudeDegrees>1.2834361754357814788818359375</LongitudeDegrees>
            </Position>
            <AltitudeMeters>2641.800048828125</AltitudeMeters>
            <DistanceMeters>7972.7989398194</DistanceMeters>
          </Trackpoint>
          <Trackpoint>
            <Time>2018-04-30T13:00:27.000Z</Time>
            <Position>
              <LatitudeDegrees>42.71207034587860107421875</LatitudeDegrees>
              <LongitudeDegrees>1.2834804318845272064208984375</LongitudeDegrees>
            </Position>
            <AltitudeMeters>2641.39990234375</AltitudeMeters>
            <DistanceMeters>7976.8126234612</DistanceMeters>
          </Trackpoint>
          <Trackpoint>
            <Time>2018-04-30T13:00:28.000Z</Time>
            <Position>
              <LatitudeDegrees>42.7120540849864482879638671875</LatitudeDegrees>
              <LongitudeDegrees>1.2835337407886981964111328125</LongitudeDegrees>
            </Position>
            <AltitudeMeters>2640.60009765625</AltitudeMeters>
            <DistanceMeters>7981.5334526959</DistanceMeters>
          </Trackpoint>
          <Trackpoint>
            <Time>2018-04-30T13:00:29.000Z</Time>
            <Position>
              <LatitudeDegrees>42.71204645745456218719482421875</LatitudeDegrees>
              <LongitudeDegrees>1.283592917025089263916015625</LongitudeDegrees>
            </Position>
            <AltitudeMeters>2640</AltitudeMeters>
            <DistanceMeters>7986.4473538357</DistanceMeters>
          </Trackpoint>
          <Trackpoint>
            <Time>2018-04-30T13:00:30.000Z</Time>
            <Position>
              <LatitudeDegrees>42.7120475471019744873046875</LatitudeDegrees>
              <LongitudeDegrees>1.28363591618835926055908203125</LongitudeDegrees>
            </Position>
            <AltitudeMeters>2638.800048828125</AltitudeMeters>
            <DistanceMeters>7989.9671925935</DistanceMeters>
          </Trackpoint>
          <Trackpoint>
            <Time>2018-04-30T13:00:31.000Z</Time>
            <Position>
              <LatitudeDegrees>42.71204176358878612518310546875</LatitudeDegrees>
              <LongitudeDegrees>1.28367237746715545654296875</LongitudeDegrees>
            </Position>
            <AltitudeMeters>2637.800048828125</AltitudeMeters>
            <DistanceMeters>7993.0199026829</DistanceMeters>
          </Trackpoint>
          <Trackpoint>
            <Time>2018-04-30T13:00:32.000Z</Time>
            <Position>
              <LatitudeDegrees>42.71202147938311100006103515625</LatitudeDegrees>
              <LongitudeDegrees>1.28371554426848888397216796875</LongitudeDegrees>
            </Position>
            <AltitudeMeters>2637.39990234375</AltitudeMeters>
            <DistanceMeters>7997.2097080014</DistanceMeters>
          </Trackpoint>
          <Trackpoint>
            <Time>2018-04-30T13:00:33.000Z</Time>
            <Position>
              <LatitudeDegrees>42.71198610775172710418701171875</LatitudeDegrees>
              <LongitudeDegrees>1.2837603874504566192626953125</LongitudeDegrees>
            </Position>
            <AltitudeMeters>2637</AltitudeMeters>
            <DistanceMeters>8002.5902679239</DistanceMeters>
          </Trackpoint>
          <Trackpoint>
            <Time>2018-04-30T13:00:36.000Z</Time>
            <Position>
              <LatitudeDegrees>42.7118385024368762969970703125</LatitudeDegrees>
              <LongitudeDegrees>1.28392978571355342864990234375</LongitudeDegrees>
            </Position>
            <AltitudeMeters>2633.800048828125</AltitudeMeters>
            <DistanceMeters>8024.0805966708</DistanceMeters>
          </Trackpoint>
          <Trackpoint>
            <Time>2018-04-30T13:00:37.000Z</Time>
            <Position>
              <LatitudeDegrees>42.711797766387462615966796875</LatitudeDegrees>
              <LongitudeDegrees>1.284002959728240966796875</LongitudeDegrees>
            </Position>
            <AltitudeMeters>2631.199951171875</AltitudeMeters>
            <DistanceMeters>8031.5889098795</DistanceMeters>
          </Trackpoint>
          <Trackpoint>
            <Time>2018-04-30T13:00:38.000Z</Time>
            <Position>
              <LatitudeDegrees>42.71176834590733051300048828125</LatitudeDegrees>
              <LongitudeDegrees>1.284076385200023651123046875</LongitudeDegrees>
            </Position>
            <AltitudeMeters>2630</AltitudeMeters>
            <DistanceMeters>8038.4295133713</DistanceMeters>
          </Trackpoint>
          <Trackpoint>
            <Time>2018-04-30T13:00:39.000Z</Time>
            <Position>
              <LatitudeDegrees>42.711754180490970611572265625</LatitudeDegrees>
              <LongitudeDegrees>1.28413966856896877288818359375</LongitudeDegrees>
            </Position>
            <AltitudeMeters>2629.39990234375</AltitudeMeters>
            <DistanceMeters>8043.839363439</DistanceMeters>
          </Trackpoint>
          <Trackpoint>
            <Time>2018-04-30T13:00:44.000Z</Time>
            <Position>
              <LatitudeDegrees>42.711690478026866912841796875</LatitudeDegrees>
              <LongitudeDegrees>1.2844654731452465057373046875</LongitudeDegrees>
            </Position>
            <AltitudeMeters>2628</AltitudeMeters>
            <DistanceMeters>8071.411524683</DistanceMeters>
          </Trackpoint>
          <Trackpoint>
            <Time>2018-04-30T13:00:50.000Z</Time>
            <Position>
              <LatitudeDegrees>42.7116329781711101531982421875</LatitudeDegrees>
              <LongitudeDegrees>1.2847244739532470703125</LongitudeDegrees>
            </Position>
            <AltitudeMeters>2625.39990234375</AltitudeMeters>
            <DistanceMeters>8093.5386741784</DistanceMeters>
          </Trackpoint>
          <Trackpoint>
            <Time>2018-04-30T13:00:56.000Z</Time>
            <Position>
              <LatitudeDegrees>42.71161311306059360504150390625</LatitudeDegrees>
              <LongitudeDegrees>1.284979283809661865234375</LongitudeDegrees>
            </Position>
            <AltitudeMeters>2621.60009765625</AltitudeMeters>
            <DistanceMeters>8114.494596435</DistanceMeters>
          </Trackpoint>
          <Trackpoint>
            <Time>2018-04-30T13:00:58.000Z</Time>
            <Position>
              <LatitudeDegrees>42.711611352860927581787109375</LatitudeDegrees>
              <LongitudeDegrees>1.28507626242935657501220703125</LongitudeDegrees>
            </Position>
            <AltitudeMeters>2620.60009765625</AltitudeMeters>
            <DistanceMeters>8122.4280466815</DistanceMeters>
          </Trackpoint>
          <Trackpoint>
            <Time>2018-04-30T13:01:04.000Z</Time>
            <Position>
              <LatitudeDegrees>42.71160221658647060394287109375</LatitudeDegrees>
              <LongitudeDegrees>1.28536082804203033447265625</LongitudeDegrees>
            </Position>
            <AltitudeMeters>2619.60009765625</AltitudeMeters>
            <DistanceMeters>8145.7225815271</DistanceMeters>
          </Trackpoint>
          <Trackpoint>
            <Time>2018-04-30T13:01:09.000Z</Time>
            <Position>
              <LatitudeDegrees>42.711616046726703643798828125</LatitudeDegrees>
              <LongitudeDegrees>1.28557984717190265655517578125</LongitudeDegrees>
            </Position>
            <AltitudeMeters>2617</AltitudeMeters>
            <DistanceMeters>8163.7007217579</DistanceMeters>
          </Trackpoint>
          <Trackpoint>
            <Time>2018-04-30T13:01:17.000Z</Time>
            <Position>
              <LatitudeDegrees>42.71165820769965648651123046875</LatitudeDegrees>
              <LongitudeDegrees>1.2858572043478488922119140625</LongitudeDegrees>
            </Position>
            <AltitudeMeters>2615.199951171875</AltitudeMeters>
            <DistanceMeters>8186.8638610528</DistanceMeters>
          </Trackpoint>
          <Trackpoint>
            <Time>2018-04-30T13:01:26.000Z</Time>
            <Position>
              <LatitudeDegrees>42.711689472198486328125</LatitudeDegrees>
              <LongitudeDegrees>1.2861157022416591644287109375</LongitudeDegrees>
            </Position>
            <AltitudeMeters>2614.60009765625</AltitudeMeters>
            <DistanceMeters>8208.2885394821</DistanceMeters>
          </Trackpoint>
          <Trackpoint>
            <Time>2018-04-30T13:01:27.000Z</Time>
            <Position>
              <LatitudeDegrees>42.71168419159948825836181640625</LatitudeDegrees>
              <LongitudeDegrees>1.2861420214176177978515625</LongitudeDegrees>
            </Position>
            <AltitudeMeters>2614.39990234375</AltitudeMeters>
            <DistanceMeters>8210.5171134755</DistanceMeters>
          </Trackpoint>
          <Trackpoint>
            <Time>2018-04-30T13:02:55.000Z</Time>
            <Position>
              <LatitudeDegrees>42.71169483661651611328125</LatitudeDegrees>
              <LongitudeDegrees>1.28603531979024410247802734375</LongitudeDegrees>
            </Position>
            <AltitudeMeters>2613.800048828125</AltitudeMeters>
            <DistanceMeters>8219.3233780923</DistanceMeters>
          </Trackpoint>
          <Trackpoint>
            <Time>2018-04-30T13:02:57.000Z</Time>
            <Position>
              <LatitudeDegrees>42.7116976864635944366455078125</LatitudeDegrees>
              <LongitudeDegrees>1.28606985323131084442138671875</LongitudeDegrees>
            </Position>
            <AltitudeMeters>2613.39990234375</AltitudeMeters>
            <DistanceMeters>8222.1646609612</DistanceMeters>
          </Trackpoint>
          <Trackpoint>
            <Time>2018-04-30T13:02:58.000Z</Time>
            <Position>
              <LatitudeDegrees>42.711695842444896697998046875</LatitudeDegrees>
              <LongitudeDegrees>1.28608292900025844573974609375</LongitudeDegrees>
            </Position>
            <AltitudeMeters>2613.39990234375</AltitudeMeters>
            <DistanceMeters>8223.2522914196</DistanceMeters>
          </Trackpoint>
          <Trackpoint>
            <Time>2018-04-30T13:04:07.000Z</Time>
            <Position>
              <LatitudeDegrees>42.711679078638553619384765625</LatitudeDegrees>
              <LongitudeDegrees>1.2863024510443210601806640625</LongitudeDegrees>
            </Position>
            <AltitudeMeters>2613</AltitudeMeters>
            <DistanceMeters>8241.3021149096</DistanceMeters>
          </Trackpoint>
          <Trackpoint>
            <Time>2018-04-30T13:04:28.000Z</Time>
            <Position>
              <LatitudeDegrees>42.71174621768295764923095703125</LatitudeDegrees>
              <LongitudeDegrees>1.28653957508504390716552734375</LongitudeDegrees>
            </Position>
            <AltitudeMeters>2612.199951171875</AltitudeMeters>
            <DistanceMeters>8262.0845246909</DistanceMeters>
          </Trackpoint>
          <Trackpoint>
            <Time>2018-04-30T13:05:27.000Z</Time>
            <Position>
              <LatitudeDegrees>42.71175384521484375</LatitudeDegrees>
              <LongitudeDegrees>1.28655575215816497802734375</LongitudeDegrees>
            </Position>
            <AltitudeMeters>2613.199951171875</AltitudeMeters>
            <DistanceMeters>8263.6574967013</DistanceMeters>
          </Trackpoint>
          <Trackpoint>
            <Time>2018-04-30T13:05:28.000Z</Time>
            <Position>
              <LatitudeDegrees>42.7117372490465641021728515625</LatitudeDegrees>
              <LongitudeDegrees>1.2865512259304523468017578125</LongitudeDegrees>
            </Position>
            <AltitudeMeters>2612.800048828125</AltitudeMeters>
            <DistanceMeters>8265.5413279152</DistanceMeters>
          </Trackpoint>
          <Trackpoint>
            <Time>2018-04-30T13:05:29.000Z</Time>
            <Position>
              <LatitudeDegrees>42.71171051077544689178466796875</LatitudeDegrees>
              <LongitudeDegrees>1.28654770553112030029296875</LongitudeDegrees>
            </Position>
            <AltitudeMeters>2612.199951171875</AltitudeMeters>
            <DistanceMeters>8268.5312736805</DistanceMeters>
          </Trackpoint>
          <Trackpoint>
            <Time>2018-04-30T13:05:30.000Z</Time>
            <Position>
              <LatitudeDegrees>42.71168234758079051971435546875</LatitudeDegrees>
              <LongitudeDegrees>1.286566816270351409912109375</LongitudeDegrees>
            </Position>
            <AltitudeMeters>2611.60009765625</AltitudeMeters>
            <DistanceMeters>8272.03310803</DistanceMeters>
          </Trackpoint>
          <Trackpoint>
            <Time>2018-04-30T13:05:31.000Z</Time>
            <Position>
              <LatitudeDegrees>42.71166290156543254852294921875</LatitudeDegrees>
              <LongitudeDegrees>1.286594979465007781982421875</LongitudeDegrees>
            </Position>
            <AltitudeMeters>2611.199951171875</AltitudeMeters>
            <DistanceMeters>8275.1933713967</DistanceMeters>
          </Trackpoint>
          <Trackpoint>
            <Time>2018-04-30T13:05:32.000Z</Time>
            <Position>
              <LatitudeDegrees>42.711654603481292724609375</LatitudeDegrees>
              <LongitudeDegrees>1.28662289120256900787353515625</LongitudeDegrees>
            </Position>
            <AltitudeMeters>2610.800048828125</AltitudeMeters>
            <DistanceMeters>8277.6567453777</DistanceMeters>
          </Trackpoint>
          <Trackpoint>
            <Time>2018-04-30T13:05:33.000Z</Time>
            <Position>
              <LatitudeDegrees>42.7116527594625949859619140625</LatitudeDegrees>
              <LongitudeDegrees>1.2866350449621677398681640625</LongitudeDegrees>
            </Position>
            <AltitudeMeters>2610.39990234375</AltitudeMeters>
            <DistanceMeters>8278.6713530431</DistanceMeters>
          </Trackpoint>
          <Trackpoint>
            <Time>2018-04-30T13:05:57.000Z</Time>
            <Position>
              <LatitudeDegrees>42.71155058406293392181396484375</LatitudeDegrees>
              <LongitudeDegrees>1.286814920604228973388671875</LongitudeDegrees>
            </Position>
            <AltitudeMeters>2607.800048828125</AltitudeMeters>
            <DistanceMeters>8297.2650483921</DistanceMeters>
          </Trackpoint>
          <Trackpoint>
            <Time>2018-04-30T13:05:58.000Z</Time>
            <Position>
              <LatitudeDegrees>42.711507417261600494384765625</LatitudeDegrees>
              <LongitudeDegrees>1.2868608534336090087890625</LongitudeDegrees>
            </Position>
            <AltitudeMeters>2607.199951171875</AltitudeMeters>
            <DistanceMeters>8303.3630689559</DistanceMeters>
          </Trackpoint>
          <Trackpoint>
            <Time>2018-04-30T13:05:59.000Z</Time>
            <Position>
              <LatitudeDegrees>42.71148336119949817657470703125</LatitudeDegrees>
              <LongitudeDegrees>1.2869225442409515380859375</LongitudeDegrees>
            </Position>
            <AltitudeMeters>2606</AltitudeMeters>
            <DistanceMeters>8309.0749571019</DistanceMeters>
          </Trackpoint>
          <Trackpoint>
            <Time>2018-04-30T13:06:00.000Z</Time>
            <Position>
              <LatitudeDegrees>42.71145989187061786651611328125</LatitudeDegrees>
              <LongitudeDegrees>1.28699622116982936859130859375</LongitudeDegrees>
            </Position>
            <AltitudeMeters>2604.39990234375</AltitudeMeters>
            <DistanceMeters>8315.6428087424</DistanceMeters>
          </Trackpoint>
          <Trackpoint>
            <Time>2018-04-30T13:06:01.000Z</Time>
            <Position>
              <LatitudeDegrees>42.71142887882888317108154296875</LatitudeDegrees>
              <LongitudeDegrees>1.28705673851072788238525390625</LongitudeDegrees>
            </Position>
            <AltitudeMeters>2602.800048828125</AltitudeMeters>
            <DistanceMeters>8321.6768180416</DistanceMeters>
          </Trackpoint>
          <Trackpoint>
            <Time>2018-04-30T13:06:02.000Z</Time>
            <Position>
              <LatitudeDegrees>42.711401470005512237548828125</LatitudeDegrees>
              <LongitudeDegrees>1.28711189143359661102294921875</LongitudeDegrees>
            </Position>
            <AltitudeMeters>2601.199951171875</AltitudeMeters>
            <DistanceMeters>8327.1216083007</DistanceMeters>
          </Trackpoint>
          <Trackpoint>
            <Time>2018-04-30T13:06:03.000Z</Time>
            <Position>
              <LatitudeDegrees>42.71139107644557952880859375</LatitudeDegrees>
              <LongitudeDegrees>1.2871812097728252410888671875</LongitudeDegrees>
            </Position>
            <AltitudeMeters>2599.60009765625</AltitudeMeters>
            <DistanceMeters>8332.9073228959</DistanceMeters>
          </Trackpoint>
          <Trackpoint>
            <Time>2018-04-30T13:06:04.000Z</Time>
            <Position>
              <LatitudeDegrees>42.71137707866728305816650390625</LatitudeDegrees>
              <LongitudeDegrees>1.28724013455212116241455078125</LongitudeDegrees>
            </Position>
            <AltitudeMeters>2598</AltitudeMeters>
            <DistanceMeters>8337.9714533347</DistanceMeters>
          </Trackpoint>
          <Trackpoint>
            <Time>2018-04-30T13:06:05.000Z</Time>
            <Position>
              <LatitudeDegrees>42.71135880611836910247802734375</LatitudeDegrees>
              <LongitudeDegrees>1.287307105958461761474609375</LongitudeDegrees>
            </Position>
            <AltitudeMeters>2596.60009765625</AltitudeMeters>
            <DistanceMeters>8343.8138577163</DistanceMeters>
          </Trackpoint>
          <Trackpoint>
            <Time>2018-04-30T13:06:06.000Z</Time>
            <Position>
              <LatitudeDegrees>42.7113614045083522796630859375</LatitudeDegrees>
              <LongitudeDegrees>1.287380196154117584228515625</LongitudeDegrees>
            </Position>
            <AltitudeMeters>2594.800048828125</AltitudeMeters>
            <DistanceMeters>8349.7982777531</DistanceMeters>
          </Trackpoint>
          <Trackpoint>
            <Time>2018-04-30T13:06:07.000Z</Time>
            <Position>
              <LatitudeDegrees>42.7113386057317256927490234375</LatitudeDegrees>
              <LongitudeDegrees>1.2874534539878368377685546875</LongitudeDegrees>
            </Position>
            <AltitudeMeters>2592.39990234375</AltitudeMeters>
            <DistanceMeters>8356.3046591106</DistanceMeters>
          </Trackpoint>
          <Trackpoint>
            <Time>2018-04-30T13:06:08.000Z</Time>
            <Position>
              <LatitudeDegrees>42.71129996515810489654541015625</LatitudeDegrees>
              <LongitudeDegrees>1.287513636052608489990234375</LongitudeDegrees>
            </Position>
            <AltitudeMeters>2590.199951171875</AltitudeMeters>
            <DistanceMeters>8362.841502518</DistanceMeters>
          </Trackpoint>
          <Trackpoint>
            <Time>2018-04-30T13:06:09.000Z</Time>
            <Position>
              <LatitudeDegrees>42.711277417838573455810546875</LatitudeDegrees>
              <LongitudeDegrees>1.28757943399250507354736328125</LongitudeDegrees>
            </Position>
            <AltitudeMeters>2588.60009765625</AltitudeMeters>
            <DistanceMeters>8368.7782009574</DistanceMeters>
          </Trackpoint>
          <Trackpoint>
            <Time>2018-04-30T13:06:10.000Z</Time>
            <Position>
              <LatitudeDegrees>42.7112715505063533782958984375</LatitudeDegrees>
              <LongitudeDegrees>1.28765956498682498931884765625</LongitudeDegrees>
            </Position>
            <AltitudeMeters>2586</AltitudeMeters>
            <DistanceMeters>8375.3639019194</DistanceMeters>
          </Trackpoint>
          <Trackpoint>
            <Time>2018-04-30T13:06:11.000Z</Time>
            <Position>
              <LatitudeDegrees>42.71125252358615398406982421875</LatitudeDegrees>
              <LongitudeDegrees>1.287730894982814788818359375</LongitudeDegrees>
            </Position>
            <AltitudeMeters>2583.199951171875</AltitudeMeters>
            <DistanceMeters>8381.5705359596</DistanceMeters>
          </Trackpoint>
          <Trackpoint>
            <Time>2018-04-30T13:06:12.000Z</Time>
            <Position>
              <LatitudeDegrees>42.7112363465130329132080078125</LatitudeDegrees>
              <LongitudeDegrees>1.28780323080718517303466796875</LongitudeDegrees>
            </Position>
            <AltitudeMeters>2581</AltitudeMeters>
            <DistanceMeters>8387.7538476665</DistanceMeters>
          </Trackpoint>
          <Trackpoint>
            <Time>2018-04-30T13:06:13.000Z</Time>
            <Position>
              <LatitudeDegrees>42.71122721023857593536376953125</LatitudeDegrees>
              <LongitudeDegrees>1.28789090551435947418212890625</LongitudeDegrees>
            </Position>
            <AltitudeMeters>2579</AltitudeMeters>
            <DistanceMeters>8394.9958559505</DistanceMeters>
          </Trackpoint>
          <Trackpoint>
            <Time>2018-04-30T13:06:14.000Z</Time>
            <Position>
              <LatitudeDegrees>42.7112106978893280029296875</LatitudeDegrees>
              <LongitudeDegrees>1.28798461519181728363037109375</LongitudeDegrees>
            </Position>
            <AltitudeMeters>2576.199951171875</AltitudeMeters>
            <DistanceMeters>8402.8767737766</DistanceMeters>
          </Trackpoint>
          <Trackpoint>
            <Time>2018-04-30T13:06:15.000Z</Time>
            <Position>
              <LatitudeDegrees>42.71120994351804256439208984375</LatitudeDegrees>
              <LongitudeDegrees>1.2880812585353851318359375</LongitudeDegrees>
            </Position>
            <AltitudeMeters>2574</AltitudeMeters>
            <DistanceMeters>8410.7805746875</DistanceMeters>
          </Trackpoint>
          <Trackpoint>
            <Time>2018-04-30T13:06:16.000Z</Time>
            <Position>
              <LatitudeDegrees>42.7112101949751377105712890625</LatitudeDegrees>
              <LongitudeDegrees>1.28817848861217498779296875</LongitudeDegrees>
            </Position>
            <AltitudeMeters>2571.199951171875</AltitudeMeters>
            <DistanceMeters>8418.7322157295</DistanceMeters>
          </Trackpoint>
          <Trackpoint>
            <Time>2018-04-30T13:06:17.000Z</Time>
            <Position>
              <LatitudeDegrees>42.71120022051036357879638671875</LatitudeDegrees>
              <LongitudeDegrees>1.2882797420024871826171875</LongitudeDegrees>
            </Position>
            <AltitudeMeters>2569.199951171875</AltitudeMeters>
            <DistanceMeters>8427.0870042314</DistanceMeters>
          </Trackpoint>
          <Trackpoint>
            <Time>2018-04-30T13:06:18.000Z</Time>
            <Position>
              <LatitudeDegrees>42.71121178753674030303955078125</LatitudeDegrees>
              <LongitudeDegrees>1.28838577307760715484619140625</LongitudeDegrees>
            </Position>
            <AltitudeMeters>2567.199951171875</AltitudeMeters>
            <DistanceMeters>8435.8531864414</DistanceMeters>
          </Trackpoint>
          <Trackpoint>
            <Time>2018-04-30T13:06:19.000Z</Time>
            <Position>
              <LatitudeDegrees>42.71123391576111316680908203125</LatitudeDegrees>
              <LongitudeDegrees>1.28849205560982227325439453125</LongitudeDegrees>
            </Position>
            <AltitudeMeters>2565</AltitudeMeters>
            <DistanceMeters>8444.8872237947</DistanceMeters>
          </Trackpoint>
          <Trackpoint>
            <Time>2018-04-30T13:06:20.000Z</Time>
            <Position>
              <LatitudeDegrees>42.71123190410435199737548828125</LatitudeDegrees>
              <LongitudeDegrees>1.288593225181102752685546875</LongitudeDegrees>
            </Position>
            <AltitudeMeters>2563</AltitudeMeters>
            <DistanceMeters>8453.1638269568</DistanceMeters>
          </Trackpoint>
          <Trackpoint>
            <Time>2018-04-30T13:06:21.000Z</Time>
            <Position>
              <LatitudeDegrees>42.7112081833183765411376953125</LatitudeDegrees>
              <LongitudeDegrees>1.28868483938276767730712890625</LongitudeDegrees>
            </Position>
            <AltitudeMeters>2561.39990234375</AltitudeMeters>
            <DistanceMeters>8461.1080830118</DistanceMeters>
          </Trackpoint>
          <Trackpoint>
            <Time>2018-04-30T13:06:22.000Z</Time>
            <Position>
              <LatitudeDegrees>42.71118412725627422332763671875</LatitudeDegrees>
              <LongitudeDegrees>1.28877469338476657867431640625</LongitudeDegrees>
            </Position>
            <AltitudeMeters>2559.800048828125</AltitudeMeters>
            <DistanceMeters>8468.9291914902</DistanceMeters>
          </Trackpoint>
          <Trackpoint>
            <Time>2018-04-30T13:06:23.000Z</Time>
            <Position>
              <LatitudeDegrees>42.71119334734976291656494140625</LatitudeDegrees>
              <LongitudeDegrees>1.2888751924037933349609375</LongitudeDegrees>
            </Position>
            <AltitudeMeters>2557.800048828125</AltitudeMeters>
            <DistanceMeters>8477.2123382848</DistanceMeters>
          </Trackpoint>
          <Trackpoint>
            <Time>2018-04-30T13:06:24.000Z</Time>
            <Position>
              <LatitudeDegrees>42.7112080156803131103515625</LatitudeDegrees>
              <LongitudeDegrees>1.288968063890933990478515625</LongitudeDegrees>
            </Position>
            <AltitudeMeters>2555.800048828125</AltitudeMeters>
            <DistanceMeters>8484.9818981841</DistanceMeters>
          </Trackpoint>
          <Trackpoint>
            <Time>2018-04-30T13:06:25.000Z</Time>
            <Position>
              <LatitudeDegrees>42.711205668747425079345703125</LatitudeDegrees>
              <LongitudeDegrees>1.28905833698809146881103515625</LongitudeDegrees>
            </Position>
            <AltitudeMeters>2553.199951171875</AltitudeMeters>
            <DistanceMeters>8492.3695758995</DistanceMeters>
          </Trackpoint>
          <Trackpoint>
            <Time>2018-04-30T13:06:26.000Z</Time>
            <Position>
              <LatitudeDegrees>42.71119502373039722442626953125</LatitudeDegrees>
              <LongitudeDegrees>1.289143078029155731201171875</LongitudeDegrees>
            </Position>
            <AltitudeMeters>2552</AltitudeMeters>
            <DistanceMeters>8499.4009106612</DistanceMeters>
          </Trackpoint>
          <Trackpoint>
            <Time>2018-04-30T13:06:27.000Z</Time>
            <Position>
              <LatitudeDegrees>42.71119552664458751678466796875</LatitudeDegrees>
              <LongitudeDegrees>1.2892273999750614166259765625</LongitudeDegrees>
            </Position>
            <AltitudeMeters>2550.800048828125</AltitudeMeters>
            <DistanceMeters>8506.2973889386</DistanceMeters>
          </Trackpoint>
          <Trackpoint>
            <Time>2018-04-30T13:06:28.000Z</Time>
            <Position>
              <LatitudeDegrees>42.71120860241353511810302734375</LatitudeDegrees>
              <LongitudeDegrees>1.28930099308490753173828125</LongitudeDegrees>
            </Position>
            <AltitudeMeters>2549.60009765625</AltitudeMeters>
            <DistanceMeters>8512.4901859365</DistanceMeters>
          </Trackpoint>
          <Trackpoint>
            <Time>2018-04-30T13:06:29.000Z</Time>
            <Position>
              <LatitudeDegrees>42.71122737787663936614990234375</LatitudeDegrees>
              <LongitudeDegrees>1.2893641926348209381103515625</LongitudeDegrees>
            </Position>
            <AltitudeMeters>2549.199951171875</AltitudeMeters>
            <DistanceMeters>8518.0668859708</DistanceMeters>
          </Trackpoint>
          <Trackpoint>
            <Time>2018-04-30T13:06:30.000Z</Time>
            <Position>
              <LatitudeDegrees>42.7112453989684581756591796875</LatitudeDegrees>
              <LongitudeDegrees>1.2894215248525142669677734375</LongitudeDegrees>
            </Position>
            <AltitudeMeters>2549</AltitudeMeters>
            <DistanceMeters>8523.166554603</DistanceMeters>
          </Trackpoint>
          <Trackpoint>
            <Time>2018-04-30T13:06:31.000Z</Time>
            <Position>
              <LatitudeDegrees>42.711261995136737823486328125</LatitudeDegrees>
              <LongitudeDegrees>1.2894748337566852569580078125</LongitudeDegrees>
            </Position>
            <AltitudeMeters>2548.800048828125</AltitudeMeters>
            <DistanceMeters>8527.9017082236</DistanceMeters>
          </Trackpoint>
          <Trackpoint>
            <Time>2018-04-30T13:06:36.000Z</Time>
            <Position>
              <LatitudeDegrees>42.711312286555767059326171875</LatitudeDegrees>
              <LongitudeDegrees>1.28970466554164886474609375</LongitudeDegrees>
            </Position>
            <AltitudeMeters>2545</AltitudeMeters>
            <DistanceMeters>8547.5138500274</DistanceMeters>
          </Trackpoint>
          <Trackpoint>
            <Time>2018-04-30T13:06:38.000Z</Time>
            <Position>
              <LatitudeDegrees>42.7113275416195392608642578125</LatitudeDegrees>
              <LongitudeDegrees>1.2897494249045848846435546875</LongitudeDegrees>
            </Position>
            <AltitudeMeters>2544.199951171875</AltitudeMeters>
            <DistanceMeters>8551.5499691912</DistanceMeters>
          </Trackpoint>
          <Trackpoint>
            <Time>2018-04-30T13:08:25.000Z</Time>
            <Position>
              <LatitudeDegrees>42.7113365940749645233154296875</LatitudeDegrees>
              <LongitudeDegrees>1.28974850289523601531982421875</LongitudeDegrees>
            </Position>
            <AltitudeMeters>2543</AltitudeMeters>
            <DistanceMeters>8552.5645768566</DistanceMeters>
          </Trackpoint>
          <Trackpoint>
            <Time>2018-04-30T13:08:29.000Z</Time>
            <Position>
              <LatitudeDegrees>42.71131706424057483673095703125</LatitudeDegrees>
              <LongitudeDegrees>1.28979342989623546600341796875</LongitudeDegrees>
            </Position>
            <AltitudeMeters>2543</AltitudeMeters>
            <DistanceMeters>8556.8344391893</DistanceMeters>
          </Trackpoint>
          <Trackpoint>
            <Time>2018-04-30T13:08:30.000Z</Time>
            <Position>
              <LatitudeDegrees>42.71129728294909000396728515625</LatitudeDegrees>
              <LongitudeDegrees>1.289823688566684722900390625</LongitudeDegrees>
            </Position>
            <AltitudeMeters>2542.199951171875</AltitudeMeters>
            <DistanceMeters>8560.1481339483</DistanceMeters>
          </Trackpoint>
          <Trackpoint>
            <Time>2018-04-30T13:08:31.000Z</Time>
            <Position>
              <LatitudeDegrees>42.71123684942722320556640625</LatitudeDegrees>
              <LongitudeDegrees>1.2898855470120906829833984375</LongitudeDegrees>
            </Position>
            <AltitudeMeters>2540.60009765625</AltitudeMeters>
            <DistanceMeters>8568.5648405312</DistanceMeters>
          </Trackpoint>
          <Trackpoint>
            <Time>2018-04-30T13:08:33.000Z</Time>
            <Position>
              <LatitudeDegrees>42.7111253701150417327880859375</LatitudeDegrees>
              <LongitudeDegrees>1.29001202993094921112060546875</LongitudeDegrees>
            </Position>
            <AltitudeMeters>2538.199951171875</AltitudeMeters>
            <DistanceMeters>8584.7191024814</DistanceMeters>
          </Trackpoint>
          <Trackpoint>
            <Time>2018-04-30T13:08:34.000Z</Time>
            <Position>
              <LatitudeDegrees>42.7111082710325717926025390625</LatitudeDegrees>
              <LongitudeDegrees>1.29008076153695583343505859375</LongitudeDegrees>
            </Position>
            <AltitudeMeters>2537.199951171875</AltitudeMeters>
            <DistanceMeters>8590.6535188917</DistanceMeters>
          </Trackpoint>
          <Trackpoint>
            <Time>2018-04-30T13:08:35.000Z</Time>
            <Position>
              <LatitudeDegrees>42.71109335124492645263671875</LatitudeDegrees>
              <LongitudeDegrees>1.29015988670289516448974609375</LongitudeDegrees>
            </Position>
            <AltitudeMeters>2535.800048828125</AltitudeMeters>
            <DistanceMeters>8597.3338360837</DistanceMeters>
          </Trackpoint>
          <Trackpoint>
            <Time>2018-04-30T13:08:37.000Z</Time>
            <Position>
              <LatitudeDegrees>42.7110707201063632965087890625</LatitudeDegrees>
              <LongitudeDegrees>1.29032065160572528839111328125</LongitudeDegrees>
            </Position>
            <AltitudeMeters>2532.60009765625</AltitudeMeters>
            <DistanceMeters>8610.7208035188</DistanceMeters>
          </Trackpoint>
          <Trackpoint>
            <Time>2018-04-30T13:08:38.000Z</Time>
            <Position>
              <LatitudeDegrees>42.711081616580486297607421875</LatitudeDegrees>
              <LongitudeDegrees>1.290394999086856842041015625</LongitudeDegrees>
            </Position>
            <AltitudeMeters>2530.199951171875</AltitudeMeters>
            <DistanceMeters>8616.920158755</DistanceMeters>
          </Trackpoint>
          <Trackpoint>
            <Time>2018-04-30T13:08:39.000Z</Time>
            <Position>
              <LatitudeDegrees>42.711089663207530975341796875</LatitudeDegrees>
              <LongitudeDegrees>1.2904759682714939117431640625</LongitudeDegrees>
            </Position>
            <AltitudeMeters>2527.39990234375</AltitudeMeters>
            <DistanceMeters>8623.601827554</DistanceMeters>
          </Trackpoint>
          <Trackpoint>
            <Time>2018-04-30T13:08:40.000Z</Time>
            <Position>
              <LatitudeDegrees>42.71110651083290576934814453125</LatitudeDegrees>
              <LongitudeDegrees>1.29056992940604686737060546875</LongitudeDegrees>
            </Position>
            <AltitudeMeters>2524</AltitudeMeters>
            <DistanceMeters>8631.5107680347</DistanceMeters>
          </Trackpoint>
          <Trackpoint>
            <Time>2018-04-30T13:08:41.000Z</Time>
            <Position>
              <LatitudeDegrees>42.71112176589667797088623046875</LatitudeDegrees>
              <LongitudeDegrees>1.2906657345592975616455078125</LongitudeDegrees>
            </Position>
            <AltitudeMeters>2520.39990234375</AltitudeMeters>
            <DistanceMeters>8639.5268783118</DistanceMeters>
          </Trackpoint>
          <Trackpoint>
            <Time>2018-04-30T13:08:42.000Z</Time>
            <Position>
              <LatitudeDegrees>42.7111354283988475799560546875</LatitudeDegrees>
              <LongitudeDegrees>1.2907653115689754486083984375</LongitudeDegrees>
            </Position>
            <AltitudeMeters>2516.800048828125</AltitudeMeters>
            <DistanceMeters>8647.8111152093</DistanceMeters>
          </Trackpoint>
          <Trackpoint>
            <Time>2018-04-30T13:08:43.000Z</Time>
            <Position>
              <LatitudeDegrees>42.71116887219250202178955078125</LatitudeDegrees>
              <LongitudeDegrees>1.2908548302948474884033203125</LongitudeDegrees>
            </Position>
            <AltitudeMeters>2514.60009765625</AltitudeMeters>
            <DistanceMeters>8656.0241944758</DistanceMeters>
          </Trackpoint>
          <Trackpoint>
            <Time>2018-04-30T13:08:44.000Z</Time>
            <Position>
              <LatitudeDegrees>42.7111920900642871856689453125</LatitudeDegrees>
              <LongitudeDegrees>1.29094728268682956695556640625</LongitudeDegrees>
            </Position>
            <AltitudeMeters>2509.60009765625</AltitudeMeters>
            <DistanceMeters>8664.0143534516</DistanceMeters>
          </Trackpoint>
          <Trackpoint>
            <Time>2018-04-30T13:08:45.000Z</Time>
            <Position>
              <LatitudeDegrees>42.7112165652215480804443359375</LatitudeDegrees>
              <LongitudeDegrees>1.2910553254187107086181640625</LongitudeDegrees>
            </Position>
            <AltitudeMeters>2505.800048828125</AltitudeMeters>
            <DistanceMeters>8673.2598228079</DistanceMeters>
          </Trackpoint>
          <Trackpoint>
            <Time>2018-04-30T13:08:46.000Z</Time>
            <Position>
              <LatitudeDegrees>42.7112643420696258544921875</LatitudeDegrees>
              <LongitudeDegrees>1.2911532260477542877197265625</LongitudeDegrees>
            </Position>
            <AltitudeMeters>2501.800048828125</AltitudeMeters>
            <DistanceMeters>8682.8711537262</DistanceMeters>
          </Trackpoint>
          <Trackpoint>
            <Time>2018-04-30T13:08:47.000Z</Time>
            <Position>
              <LatitudeDegrees>42.71132661961019039154052734375</LatitudeDegrees>
              <LongitudeDegrees>1.29122120328247547149658203125</LongitudeDegrees>
            </Position>
            <AltitudeMeters>2498</AltitudeMeters>
            <DistanceMeters>8691.7560244778</DistanceMeters>
          </Trackpoint>
          <Trackpoint>
            <Time>2018-04-30T13:08:48.000Z</Time>
            <Position>
              <LatitudeDegrees>42.71136668510735034942626953125</LatitudeDegrees>
              <LongitudeDegrees>1.291307620704174041748046875</LongitudeDegrees>
            </Position>
            <AltitudeMeters>2494.800048828125</AltitudeMeters>
            <DistanceMeters>8700.1118937363</DistanceMeters>
          </Trackpoint>
          <Trackpoint>
            <Time>2018-04-30T13:08:49.000Z</Time>
            <Position>
              <LatitudeDegrees>42.71140390075743198394775390625</LatitudeDegrees>
              <LongitudeDegrees>1.291402168571949005126953125</LongitudeDegrees>
            </Position>
            <AltitudeMeters>2492.39990234375</AltitudeMeters>
            <DistanceMeters>8708.8837396868</DistanceMeters>
          </Trackpoint>
          <Trackpoint>
            <Time>2018-04-30T13:08:50.000Z</Time>
            <Position>
              <LatitudeDegrees>42.71143742837011814117431640625</LatitudeDegrees>
              <LongitudeDegrees>1.29148489795625209808349609375</LongitudeDegrees>
            </Position>
            <AltitudeMeters>2490</AltitudeMeters>
            <DistanceMeters>8716.6101771175</DistanceMeters>
          </Trackpoint>
          <Trackpoint>
            <Time>2018-04-30T13:08:51.000Z</Time>
            <Position>
              <LatitudeDegrees>42.711480595171451568603515625</LatitudeDegrees>
              <LongitudeDegrees>1.2915438227355480194091796875</LongitudeDegrees>
            </Position>
            <AltitudeMeters>2488.199951171875</AltitudeMeters>
            <DistanceMeters>8723.4150453752</DistanceMeters>
          </Trackpoint>
          <Trackpoint>
            <Time>2018-04-30T13:08:52.000Z</Time>
            <Position>
              <LatitudeDegrees>42.7115082554519176483154296875</LatitudeDegrees>
              <LongitudeDegrees>1.2916083633899688720703125</LongitudeDegrees>
            </Position>
            <AltitudeMeters>2487.199951171875</AltitudeMeters>
            <DistanceMeters>8729.5263787954</DistanceMeters>
          </Trackpoint>
          <Trackpoint>
            <Time>2018-04-30T13:08:53.000Z</Time>
            <Position>
              <LatitudeDegrees>42.711512781679630279541015625</LatitudeDegrees>
              <LongitudeDegrees>1.2916316650807857513427734375</LongitudeDegrees>
            </Position>
            <AltitudeMeters>2486.60009765625</AltitudeMeters>
            <DistanceMeters>8731.4968946849</DistanceMeters>
          </Trackpoint>
          <Trackpoint>
            <Time>2018-04-30T13:08:57.000Z</Time>
            <Position>
              <LatitudeDegrees>42.71152292378246784210205078125</LatitudeDegrees>
              <LongitudeDegrees>1.2916387058794498443603515625</LongitudeDegrees>
            </Position>
            <AltitudeMeters>2484.39990234375</AltitudeMeters>
            <DistanceMeters>8732.7647091851</DistanceMeters>
          </Trackpoint>
          <Trackpoint>
            <Time>2018-04-30T13:10:40.000Z</Time>
            <Position>
              <LatitudeDegrees>42.7115727961063385009765625</LatitudeDegrees>
              <LongitudeDegrees>1.2915837205946445465087890625</LongitudeDegrees>
            </Position>
            <AltitudeMeters>2483.800048828125</AltitudeMeters>
            <DistanceMeters>8739.9081650704</DistanceMeters>
          </Trackpoint>
          <Trackpoint>
            <Time>2018-04-30T13:11:36.000Z</Time>
            <Position>
              <LatitudeDegrees>42.711587883532047271728515625</LatitudeDegrees>
              <LongitudeDegrees>1.2915672920644283294677734375</LongitudeDegrees>
            </Position>
            <AltitudeMeters>2483.800048828125</AltitudeMeters>
            <DistanceMeters>8742.0583741624</DistanceMeters>
          </Trackpoint>
          <Trackpoint>
            <Time>2018-04-30T13:12:21.000Z</Time>
            <Position>
              <LatitudeDegrees>42.711548320949077606201171875</LatitudeDegrees>
              <LongitudeDegrees>1.291667036712169647216796875</LongitudeDegrees>
            </Position>
            <AltitudeMeters>2482</AltitudeMeters>
            <DistanceMeters>8751.3282289315</DistanceMeters>
          </Trackpoint>
          <Trackpoint>
            <Time>2018-04-30T13:12:22.000Z</Time>
            <Position>
              <LatitudeDegrees>42.711525857448577880859375</LatitudeDegrees>
              <LongitudeDegrees>1.29174180328845977783203125</LongitudeDegrees>
            </Position>
            <AltitudeMeters>2480.39990234375</AltitudeMeters>
            <DistanceMeters>8757.9337818514</DistanceMeters>
          </Trackpoint>
          <Trackpoint>
            <Time>2018-04-30T13:12:23.000Z</Time>
            <Position>
              <LatitudeDegrees>42.7114971913397312164306640625</LatitudeDegrees>
              <LongitudeDegrees>1.29180843941867351531982421875</LongitudeDegrees>
            </Position>
            <AltitudeMeters>2478</AltitudeMeters>
            <DistanceMeters>8764.2493061885</DistanceMeters>
          </Trackpoint>
          <Trackpoint>
            <Time>2018-04-30T13:12:24.000Z</Time>
            <Position>
              <LatitudeDegrees>42.7114797569811344146728515625</LatitudeDegrees>
              <LongitudeDegrees>1.29188722930848598480224609375</LongitudeDegrees>
            </Position>
            <AltitudeMeters>2475.199951171875</AltitudeMeters>
            <DistanceMeters>8770.9787811581</DistanceMeters>
          </Trackpoint>
          <Trackpoint>
            <Time>2018-04-30T13:12:25.000Z</Time>
            <Position>
              <LatitudeDegrees>42.71145972423255443572998046875</LatitudeDegrees>
              <LongitudeDegrees>1.2919706292450428009033203125</LongitudeDegrees>
            </Position>
            <AltitudeMeters>2471.60009765625</AltitudeMeters>
            <DistanceMeters>8778.1543993115</DistanceMeters>
          </Trackpoint>
          <Trackpoint>
            <Time>2018-04-30T13:12:26.000Z</Time>
            <Position>
              <LatitudeDegrees>42.71143122576177120208740234375</LatitudeDegrees>
              <LongitudeDegrees>1.2920635007321834564208984375</LongitudeDegrees>
            </Position>
            <AltitudeMeters>2467.800048828125</AltitudeMeters>
            <DistanceMeters>8786.3861484352</DistanceMeters>
          </Trackpoint>
          <Trackpoint>
            <Time>2018-04-30T13:12:27.000Z</Time>
            <Position>
              <LatitudeDegrees>42.71141521632671356201171875</LatitudeDegrees>
              <LongitudeDegrees>1.29217724315822124481201171875</LongitudeDegrees>
            </Position>
            <AltitudeMeters>2462.800048828125</AltitudeMeters>
            <DistanceMeters>8795.857409143</DistanceMeters>
          </Trackpoint>
          <Trackpoint>
            <Time>2018-04-30T13:12:28.000Z</Time>
            <Position>
              <LatitudeDegrees>42.7113942615687847137451171875</LatitudeDegrees>
              <LongitudeDegrees>1.2922975234687328338623046875</LongitudeDegrees>
            </Position>
            <AltitudeMeters>2458</AltitudeMeters>
            <DistanceMeters>8805.9669296654</DistanceMeters>
          </Trackpoint>
          <Trackpoint>
            <Time>2018-04-30T13:12:29.000Z</Time>
            <Position>
              <LatitudeDegrees>42.7113662660121917724609375</LatitudeDegrees>
              <LongitudeDegrees>1.29242668859660625457763671875</LongitudeDegrees>
            </Position>
            <AltitudeMeters>2454</AltitudeMeters>
            <DistanceMeters>8816.9801937953</DistanceMeters>
          </Trackpoint>
          <Trackpoint>
            <Time>2018-04-30T13:12:30.000Z</Time>
            <Position>
              <LatitudeDegrees>42.71134187467396259307861328125</LatitudeDegrees>
              <LongitudeDegrees>1.29256767220795154571533203125</LongitudeDegrees>
            </Position>
            <AltitudeMeters>2449.199951171875</AltitudeMeters>
            <DistanceMeters>8828.8254176339</DistanceMeters>
          </Trackpoint>
          <Trackpoint>
            <Time>2018-04-30T13:12:31.000Z</Time>
            <Position>
              <LatitudeDegrees>42.71131874062120914459228515625</LatitudeDegrees>
              <LongitudeDegrees>1.29270731471478939056396484375</LongitudeDegrees>
            </Position>
            <AltitudeMeters>2444.800048828125</AltitudeMeters>
            <DistanceMeters>8840.5326162854</DistanceMeters>
          </Trackpoint>
          <Trackpoint>
            <Time>2018-04-30T13:12:33.000Z</Time>
            <Position>
              <LatitudeDegrees>42.7112911641597747802734375</LatitudeDegrees>
              <LongitudeDegrees>1.2929469533264636993408203125</LongitudeDegrees>
            </Position>
            <AltitudeMeters>2440.800048828125</AltitudeMeters>
            <DistanceMeters>8860.3697700952</DistanceMeters>
          </Trackpoint>
          <Trackpoint>
            <Time>2018-04-30T13:12:34.000Z</Time>
            <Position>
              <LatitudeDegrees>42.711291499435901641845703125</LatitudeDegrees>
              <LongitudeDegrees>1.29305633716285228729248046875</LongitudeDegrees>
            </Position>
            <AltitudeMeters>2437.199951171875</AltitudeMeters>
            <DistanceMeters>8869.315413585</DistanceMeters>
          </Trackpoint>
          <Trackpoint>
            <Time>2018-04-30T13:12:35.000Z</Time>
            <Position>
              <LatitudeDegrees>42.71130164153873920440673828125</LatitudeDegrees>
              <LongitudeDegrees>1.2931628711521625518798828125</LongitudeDegrees>
            </Position>
            <AltitudeMeters>2435</AltitudeMeters>
            <DistanceMeters>8878.1011459645</DistanceMeters>
          </Trackpoint>
          <Trackpoint>
            <Time>2018-04-30T13:12:36.000Z</Time>
            <Position>
              <LatitudeDegrees>42.711312286555767059326171875</LatitudeDegrees>
              <LongitudeDegrees>1.29326202906668186187744140625</LongitudeDegrees>
            </Position>
            <AltitudeMeters>2432.199951171875</AltitudeMeters>
            <DistanceMeters>8886.2971656488</DistanceMeters>
          </Trackpoint>
          <Trackpoint>
            <Time>2018-04-30T13:12:37.000Z</Time>
            <Position>
              <LatitudeDegrees>42.7113260328769683837890625</LatitudeDegrees>
              <LongitudeDegrees>1.29334886558353900909423828125</LongitudeDegrees>
            </Position>
            <AltitudeMeters>2429.39990234375</AltitudeMeters>
            <DistanceMeters>8893.5615835015</DistanceMeters>
          </Trackpoint>
          <Trackpoint>
            <Time>2018-04-30T13:12:38.000Z</Time>
            <Position>
              <LatitudeDegrees>42.7113577164709568023681640625</LatitudeDegrees>
              <LongitudeDegrees>1.2934186868369579315185546875</LongitudeDegrees>
            </Position>
            <AltitudeMeters>2426.800048828125</AltitudeMeters>
            <DistanceMeters>8900.2729187861</DistanceMeters>
          </Trackpoint>
          <Trackpoint>
            <Time>2018-04-30T13:12:39.000Z</Time>
            <Position>
              <LatitudeDegrees>42.71140021272003650665283203125</LatitudeDegrees>
              <LongitudeDegrees>1.2934807129204273223876953125</LongitudeDegrees>
            </Position>
            <AltitudeMeters>2423.800048828125</AltitudeMeters>
            <DistanceMeters>8907.2092180367</DistanceMeters>
          </Trackpoint>
          <Trackpoint>
            <Time>2018-04-30T13:12:40.000Z</Time>
            <Position>
              <LatitudeDegrees>42.71143977530300617218017578125</LatitudeDegrees>
              <LongitudeDegrees>1.29353628493845462799072265625</LongitudeDegrees>
            </Position>
            <AltitudeMeters>2421.199951171875</AltitudeMeters>
            <DistanceMeters>8913.5368841904</DistanceMeters>
          </Trackpoint>
          <Trackpoint>
            <Time>2018-04-30T13:12:41.000Z</Time>
            <Position>
              <LatitudeDegrees>42.7114666812121868133544921875</LatitudeDegrees>
              <LongitudeDegrees>1.293553970754146575927734375</LongitudeDegrees>
            </Position>
            <AltitudeMeters>2419.39990234375</AltitudeMeters>
            <DistanceMeters>8916.8628191933</DistanceMeters>
          </Trackpoint>
          <Trackpoint>
            <Time>2018-04-30T13:12:45.000Z</Time>
            <Position>
              <LatitudeDegrees>42.71149291656911373138427734375</LatitudeDegrees>
              <LongitudeDegrees>1.29355355165898799896240234375</LongitudeDegrees>
            </Position>
            <AltitudeMeters>2416.60009765625</AltitudeMeters>
            <DistanceMeters>8919.7824753654</DistanceMeters>
          </Trackpoint>
          <Trackpoint>
            <Time>2018-04-30T13:12:49.000Z</Time>
            <Position>
              <LatitudeDegrees>42.7115191519260406494140625</LatitudeDegrees>
              <LongitudeDegrees>1.2935682199895381927490234375</LongitudeDegrees>
            </Position>
            <AltitudeMeters>2416.199951171875</AltitudeMeters>
            <DistanceMeters>8922.9370187937</DistanceMeters>
          </Trackpoint>
          <Trackpoint>
            <Time>2018-04-30T13:12:50.000Z</Time>
            <Position>
              <LatitudeDegrees>42.71153097040951251983642578125</LatitudeDegrees>
              <LongitudeDegrees>1.29357467405498027801513671875</LongitudeDegrees>
            </Position>
            <AltitudeMeters>2416</AltitudeMeters>
            <DistanceMeters>8924.3528849493</DistanceMeters>
          </Trackpoint>
          <Trackpoint>
            <Time>2018-04-30T13:14:25.000Z</Time>
            <Position>
              <LatitudeDegrees>42.71157992072403430938720703125</LatitudeDegrees>
              <LongitudeDegrees>1.2935839779675006866455078125</LongitudeDegrees>
            </Position>
            <AltitudeMeters>2415.800048828125</AltitudeMeters>
            <DistanceMeters>8929.8545952507</DistanceMeters>
          </Trackpoint>
          <Trackpoint>
            <Time>2018-04-30T13:14:26.000Z</Time>
            <Position>
              <LatitudeDegrees>42.71158813498914241790771484375</LatitudeDegrees>
              <LongitudeDegrees>1.29362362436950206756591796875</LongitudeDegrees>
            </Position>
            <AltitudeMeters>2415.199951171875</AltitudeMeters>
            <DistanceMeters>8933.2223505882</DistanceMeters>
          </Trackpoint>
          <Trackpoint>
            <Time>2018-04-30T13:14:27.000Z</Time>
            <Position>
              <LatitudeDegrees>42.71157321520149707794189453125</LatitudeDegrees>
              <LongitudeDegrees>1.29366871900856494903564453125</LongitudeDegrees>
            </Position>
            <AltitudeMeters>2414</AltitudeMeters>
            <DistanceMeters>8937.2651761303</DistanceMeters>
          </Trackpoint>
          <Trackpoint>
            <Time>2018-04-30T13:14:28.000Z</Time>
            <Position>
              <LatitudeDegrees>42.7115659229457378387451171875</LatitudeDegrees>
              <LongitudeDegrees>1.293712221086025238037109375</LongitudeDegrees>
            </Position>
            <AltitudeMeters>2411.800048828125</AltitudeMeters>
            <DistanceMeters>8940.9147463454</DistanceMeters>
          </Trackpoint>
          <Trackpoint>
            <Time>2018-04-30T13:14:29.000Z</Time>
            <Position>
              <LatitudeDegrees>42.71158008836209774017333984375</LatitudeDegrees>
              <LongitudeDegrees>1.293761841952800750732421875</LongitudeDegrees>
            </Position>
            <AltitudeMeters>2409.39990234375</AltitudeMeters>
            <DistanceMeters>8945.2673433149</DistanceMeters>
          </Trackpoint>
          <Trackpoint>
            <Time>2018-04-30T13:14:30.000Z</Time>
            <Position>
              <LatitudeDegrees>42.7115890569984912872314453125</LatitudeDegrees>
              <LongitudeDegrees>1.2938106246292591094970703125</LongitudeDegrees>
            </Position>
            <AltitudeMeters>2407</AltitudeMeters>
            <DistanceMeters>8949.3799256156</DistanceMeters>
          </Trackpoint>
          <Trackpoint>
            <Time>2018-04-30T13:14:31.000Z</Time>
            <Position>
              <LatitudeDegrees>42.71156944334506988525390625</LatitudeDegrees>
              <LongitudeDegrees>1.2938654422760009765625</LongitudeDegrees>
            </Position>
            <AltitudeMeters>2404.39990234375</AltitudeMeters>
            <DistanceMeters>8954.3649803168</DistanceMeters>
          </Trackpoint>
          <Trackpoint>
            <Time>2018-04-30T13:14:32.000Z</Time>
            <Position>
              <LatitudeDegrees>42.71158746443688869476318359375</LatitudeDegrees>
              <LongitudeDegrees>1.29391212947666645050048828125</LongitudeDegrees>
            </Position>
            <AltitudeMeters>2401.800048828125</AltitudeMeters>
            <DistanceMeters>8958.6779789806</DistanceMeters>
          </Trackpoint>
          <Trackpoint>
            <Time>2018-04-30T13:14:33.000Z</Time>
            <Position>
              <LatitudeDegrees>42.71159936673939228057861328125</LatitudeDegrees>
              <LongitudeDegrees>1.29395521245896816253662109375</LongitudeDegrees>
            </Position>
            <AltitudeMeters>2400</AltitudeMeters>
            <DistanceMeters>8962.4432439138</DistanceMeters>
          </Trackpoint>
          <Trackpoint>
            <Time>2018-04-30T13:14:34.000Z</Time>
            <Position>
              <LatitudeDegrees>42.71158914081752300262451171875</LatitudeDegrees>
              <LongitudeDegrees>1.29400198347866535186767578125</LongitudeDegrees>
            </Position>
            <AltitudeMeters>2396.199951171875</AltitudeMeters>
            <DistanceMeters>8966.4343659173</DistanceMeters>
          </Trackpoint>
          <Trackpoint>
            <Time>2018-04-30T13:14:36.000Z</Time>
            <Position>
              <LatitudeDegrees>42.7115548588335514068603515625</LatitudeDegrees>
              <LongitudeDegrees>1.29408060573041439056396484375</LongitudeDegrees>
            </Position>
            <AltitudeMeters>2391.199951171875</AltitudeMeters>
            <DistanceMeters>8973.9107402517</DistanceMeters>
          </Trackpoint>
          <Trackpoint>
            <Time>2018-04-30T13:14:37.000Z</Time>
            <Position>
              <LatitudeDegrees>42.711555026471614837646484375</LatitudeDegrees>
              <LongitudeDegrees>1.29410759545862674713134765625</LongitudeDegrees>
            </Position>
            <AltitudeMeters>2389.39990234375</AltitudeMeters>
            <DistanceMeters>8976.1169159481</DistanceMeters>
          </Trackpoint>
          <Trackpoint>
            <Time>2018-04-30T13:14:40.000Z</Time>
            <Position>
              <LatitudeDegrees>42.71156265400350093841552734375</LatitudeDegrees>
              <LongitudeDegrees>1.29413022659718990325927734375</LongitudeDegrees>
            </Position>
            <AltitudeMeters>2386.199951171875</AltitudeMeters>
            <DistanceMeters>8978.1550119135</DistanceMeters>
          </Trackpoint>
          <Trackpoint>
            <Time>2018-04-30T13:14:41.000Z</Time>
            <Position>
              <LatitudeDegrees>42.71156852133572101593017578125</LatitudeDegrees>
              <LongitudeDegrees>1.294145397841930389404296875</LongitudeDegrees>
            </Position>
            <AltitudeMeters>2385.800048828125</AltitudeMeters>
            <DistanceMeters>8979.5580645372</DistanceMeters>
          </Trackpoint>
          <Trackpoint>
            <Time>2018-04-30T13:14:42.000Z</Time>
            <Position>
              <LatitudeDegrees>42.71156500093638896942138671875</LatitudeDegrees>
              <LongitudeDegrees>1.29416744224727153778076171875</LongitudeDegrees>
            </Position>
            <AltitudeMeters>2385.60009765625</AltitudeMeters>
            <DistanceMeters>8981.405595023</DistanceMeters>
          </Trackpoint>
          <Trackpoint>
            <Time>2018-04-30T13:14:43.000Z</Time>
            <Position>
              <LatitudeDegrees>42.71154773421585559844970703125</LatitudeDegrees>
              <LongitudeDegrees>1.29419376142323017120361328125</LongitudeDegrees>
            </Position>
            <AltitudeMeters>2384.800048828125</AltitudeMeters>
            <DistanceMeters>8984.2910292158</DistanceMeters>
          </Trackpoint>
          <Trackpoint>
            <Time>2018-04-30T13:14:44.000Z</Time>
            <Position>
              <LatitudeDegrees>42.7115406095981597900390625</LatitudeDegrees>
              <LongitudeDegrees>1.29422276280820369720458984375</LongitudeDegrees>
            </Position>
            <AltitudeMeters>2383.60009765625</AltitudeMeters>
            <DistanceMeters>8986.7907917844</DistanceMeters>
          </Trackpoint>
          <Trackpoint>
            <Time>2018-04-30T13:14:45.000Z</Time>
            <Position>
              <LatitudeDegrees>42.71154119633138179779052734375</LatitudeDegrees>
              <LongitudeDegrees>1.2942558713257312774658203125</LongitudeDegrees>
            </Position>
            <AltitudeMeters>2382.199951171875</AltitudeMeters>
            <DistanceMeters>8989.498636328</DistanceMeters>
          </Trackpoint>
          <Trackpoint>
            <Time>2018-04-30T13:14:46.000Z</Time>
            <Position>
              <LatitudeDegrees>42.7115567028522491455078125</LatitudeDegrees>
              <LongitudeDegrees>1.2942702881991863250732421875</LongitudeDegrees>
            </Position>
            <AltitudeMeters>2380.39990234375</AltitudeMeters>
            <DistanceMeters>8991.5913826278</DistanceMeters>
          </Trackpoint>
          <Trackpoint>
            <Time>2018-04-30T13:14:47.000Z</Time>
            <Position>
              <LatitudeDegrees>42.71157170645892620086669921875</LatitudeDegrees>
              <LongitudeDegrees>1.29428143613040447235107421875</LongitudeDegrees>
            </Position>
            <AltitudeMeters>2378.800048828125</AltitudeMeters>
            <DistanceMeters>8993.4942911001</DistanceMeters>
          </Trackpoint>
          <Trackpoint>
            <Time>2018-04-30T13:14:48.000Z</Time>
            <Position>
              <LatitudeDegrees>42.71157120354473590850830078125</LatitudeDegrees>
              <LongitudeDegrees>1.2943054921925067901611328125</LongitudeDegrees>
            </Position>
            <AltitudeMeters>2377.39990234375</AltitudeMeters>
            <DistanceMeters>8995.4602190536</DistanceMeters>
          </Trackpoint>
          <Trackpoint>
            <Time>2018-04-30T13:14:49.000Z</Time>
            <Position>
              <LatitudeDegrees>42.711554355919361114501953125</LatitudeDegrees>
              <LongitudeDegrees>1.29433549940586090087890625</LongitudeDegrees>
            </Position>
            <AltitudeMeters>2376</AltitudeMeters>
            <DistanceMeters>8998.5482217616</DistanceMeters>
          </Trackpoint>
          <Trackpoint>
            <Time>2018-04-30T13:14:50.000Z</Time>
            <Position>
              <LatitudeDegrees>42.71153382025659084320068359375</LatitudeDegrees>
              <LongitudeDegrees>1.2943514250218868255615234375</LongitudeDegrees>
            </Position>
            <AltitudeMeters>2374.39990234375</AltitudeMeters>
            <DistanceMeters>9001.1782481029</DistanceMeters>
          </Trackpoint>
          <Trackpoint>
            <Time>2018-04-30T13:14:51.000Z</Time>
            <Position>
              <LatitudeDegrees>42.71154689602553844451904296875</LatitudeDegrees>
              <LongitudeDegrees>1.29437698982656002044677734375</LongitudeDegrees>
            </Position>
            <AltitudeMeters>2373</AltitudeMeters>
            <DistanceMeters>9003.7245385197</DistanceMeters>
          </Trackpoint>
          <Trackpoint>
            <Time>2018-04-30T13:14:52.000Z</Time>
            <Position>
              <LatitudeDegrees>42.71156215108931064605712890625</LatitudeDegrees>
              <LongitudeDegrees>1.2944032251834869384765625</LongitudeDegrees>
            </Position>
            <AltitudeMeters>2371.60009765625</AltitudeMeters>
            <DistanceMeters>9006.4589311937</DistanceMeters>
          </Trackpoint>
          <Trackpoint>
            <Time>2018-04-30T13:14:53.000Z</Time>
            <Position>
              <LatitudeDegrees>42.71158914081752300262451171875</LatitudeDegrees>
              <LongitudeDegrees>1.2944168038666248321533203125</LongitudeDegrees>
            </Position>
            <AltitudeMeters>2370</AltitudeMeters>
            <DistanceMeters>9009.6617685047</DistanceMeters>
          </Trackpoint>
          <Trackpoint>
            <Time>2018-04-30T13:14:54.000Z</Time>
            <Position>
              <LatitudeDegrees>42.711606323719024658203125</LatitudeDegrees>
              <LongitudeDegrees>1.29442862235009670257568359375</LongitudeDegrees>
            </Position>
            <AltitudeMeters>2368.199951171875</AltitudeMeters>
            <DistanceMeters>9011.8077738603</DistanceMeters>
          </Trackpoint>
          <Trackpoint>
            <Time>2018-04-30T13:14:55.000Z</Time>
            <Position>
              <LatitudeDegrees>42.7115930803120136260986328125</LatitudeDegrees>
              <LongitudeDegrees>1.2944526784121990203857421875</LongitudeDegrees>
            </Position>
            <AltitudeMeters>2367.39990234375</AltitudeMeters>
            <DistanceMeters>9014.2674793747</DistanceMeters>
          </Trackpoint>
          <Trackpoint>
            <Time>2018-04-30T13:14:56.000Z</Time>
            <Position>
              <LatitudeDegrees>42.7115618996322154998779296875</LatitudeDegrees>
              <LongitudeDegrees>1.2944704480469226837158203125</LongitudeDegrees>
            </Position>
            <AltitudeMeters>2365.60009765625</AltitudeMeters>
            <DistanceMeters>9018.0315449879</DistanceMeters>
          </Trackpoint>
          <Trackpoint>
            <Time>2018-04-30T13:14:57.000Z</Time>
            <Position>
              <LatitudeDegrees>42.71152694709599018096923828125</LatitudeDegrees>
              <LongitudeDegrees>1.29448511637747287750244140625</LongitudeDegrees>
            </Position>
            <AltitudeMeters>2363.60009765625</AltitudeMeters>
            <DistanceMeters>9022.1033038647</DistanceMeters>
          </Trackpoint>
          <Trackpoint>
            <Time>2018-04-30T13:15:02.000Z</Time>
            <Position>
              <LatitudeDegrees>42.7113315649330615997314453125</LatitudeDegrees>
              <LongitudeDegrees>1.2946035526692867279052734375</LongitudeDegrees>
            </Position>
            <AltitudeMeters>2360.199951171875</AltitudeMeters>
            <DistanceMeters>9045.9093450649</DistanceMeters>
          </Trackpoint>
          <Trackpoint>
            <Time>2018-04-30T13:15:07.000Z</Time>
            <Position>
              <LatitudeDegrees>42.7111776731908321380615234375</LatitudeDegrees>
              <LongitudeDegrees>1.2947705201804637908935546875</LongitudeDegrees>
            </Position>
            <AltitudeMeters>2357</AltitudeMeters>
            <DistanceMeters>9067.8146001896</DistanceMeters>
          </Trackpoint>
          <Trackpoint>
            <Time>2018-04-30T13:15:12.000Z</Time>
            <Position>
              <LatitudeDegrees>42.71108689717948436737060546875</LatitudeDegrees>
              <LongitudeDegrees>1.294920556247234344482421875</LongitudeDegrees>
            </Position>
            <AltitudeMeters>2353.60009765625</AltitudeMeters>
            <DistanceMeters>9083.7090787489</DistanceMeters>
          </Trackpoint>
          <Trackpoint>
            <Time>2018-04-30T13:15:35.000Z</Time>
            <Position>
              <LatitudeDegrees>42.71105102263391017913818359375</LatitudeDegrees>
              <LongitudeDegrees>1.29494427703320980072021484375</LongitudeDegrees>
            </Position>
            <AltitudeMeters>2350.60009765625</AltitudeMeters>
            <DistanceMeters>9088.1479554988</DistanceMeters>
          </Trackpoint>
          <Trackpoint>
            <Time>2018-04-30T13:16:27.000Z</Time>
            <Position>
              <LatitudeDegrees>42.7110935188829898834228515625</LatitudeDegrees>
              <LongitudeDegrees>1.294951401650905609130859375</LongitudeDegrees>
            </Position>
            <AltitudeMeters>2350.800048828125</AltitudeMeters>
            <DistanceMeters>9092.9144712423</DistanceMeters>
          </Trackpoint>
          <Trackpoint>
            <Time>2018-04-30T13:16:55.000Z</Time>
            <Position>
              <LatitudeDegrees>42.71106443367898464202880859375</LatitudeDegrees>
              <LongitudeDegrees>1.29500479437410831451416015625</LongitudeDegrees>
            </Position>
            <AltitudeMeters>2351.199951171875</AltitudeMeters>
            <DistanceMeters>9098.3501322071</DistanceMeters>
          </Trackpoint>
          <Trackpoint>
            <Time>2018-04-30T13:16:56.000Z</Time>
            <Position>
              <LatitudeDegrees>42.71105253137648105621337890625</LatitudeDegrees>
              <LongitudeDegrees>1.29502482712268829345703125</LongitudeDegrees>
            </Position>
            <AltitudeMeters>2351</AltitudeMeters>
            <DistanceMeters>9100.4579266967</DistanceMeters>
          </Trackpoint>
          <Trackpoint>
            <Time>2018-04-30T13:16:57.000Z</Time>
            <Position>
              <LatitudeDegrees>42.7110338397324085235595703125</LatitudeDegrees>
              <LongitudeDegrees>1.295042932033538818359375</LongitudeDegrees>
            </Position>
            <AltitudeMeters>2351</AltitudeMeters>
            <DistanceMeters>9103.0112999935</DistanceMeters>
          </Trackpoint>
          <Trackpoint>
            <Time>2018-04-30T13:16:58.000Z</Time>
            <Position>
              <LatitudeDegrees>42.71101481281220912933349609375</LatitudeDegrees>
              <LongitudeDegrees>1.29506430588662624359130859375</LongitudeDegrees>
            </Position>
            <AltitudeMeters>2350.800048828125</AltitudeMeters>
            <DistanceMeters>9105.7588705398</DistanceMeters>
          </Trackpoint>
          <Trackpoint>
            <Time>2018-04-30T13:16:59.000Z</Time>
            <Position>
              <LatitudeDegrees>42.7109932713210582733154296875</LatitudeDegrees>
              <LongitudeDegrees>1.29508827812969684600830078125</LongitudeDegrees>
            </Position>
            <AltitudeMeters>2350.39990234375</AltitudeMeters>
            <DistanceMeters>9108.8556335568</DistanceMeters>
          </Trackpoint>
          <Trackpoint>
            <Time>2018-04-30T13:17:00.000Z</Time>
            <Position>
              <LatitudeDegrees>42.71096787415444850921630859375</LatitudeDegrees>
              <LongitudeDegrees>1.29511493258178234100341796875</LongitudeDegrees>
            </Position>
            <AltitudeMeters>2350.199951171875</AltitudeMeters>
            <DistanceMeters>9112.4238835181</DistanceMeters>
          </Trackpoint>
          <Trackpoint>
            <Time>2018-04-30T13:17:05.000Z</Time>
            <Position>
              <LatitudeDegrees>42.710810042917728424072265625</LatitudeDegrees>
              <LongitudeDegrees>1.29528927616775035858154296875</LongitudeDegrees>
            </Position>
            <AltitudeMeters>2347.60009765625</AltitudeMeters>
            <DistanceMeters>9135.049023815</DistanceMeters>
          </Trackpoint>
          <Trackpoint>
            <Time>2018-04-30T13:17:08.000Z</Time>
            <Position>
              <LatitudeDegrees>42.71068674512207508087158203125</LatitudeDegrees>
              <LongitudeDegrees>1.29540109075605869293212890625</LongitudeDegrees>
            </Position>
            <AltitudeMeters>2345.800048828125</AltitudeMeters>
            <DistanceMeters>9151.5401975835</DistanceMeters>
          </Trackpoint>
          <Trackpoint>
            <Time>2018-04-30T13:17:12.000Z</Time>
            <Position>
              <LatitudeDegrees>42.7104997448623180389404296875</LatitudeDegrees>
              <LongitudeDegrees>1.2955431640148162841796875</LongitudeDegrees>
            </Position>
            <AltitudeMeters>2342.60009765625</AltitudeMeters>
            <DistanceMeters>9175.3773226232</DistanceMeters>
          </Trackpoint>
          <Trackpoint>
            <Time>2018-04-30T13:17:16.000Z</Time>
            <Position>
              <LatitudeDegrees>42.7103250660002231597900390625</LatitudeDegrees>
              <LongitudeDegrees>1.295690350234508514404296875</LongitudeDegrees>
            </Position>
            <AltitudeMeters>2339.60009765625</AltitudeMeters>
            <DistanceMeters>9198.2442333583</DistanceMeters>
          </Trackpoint>
          <Trackpoint>
            <Time>2018-04-30T13:17:17.000Z</Time>
            <Position>
              <LatitudeDegrees>42.71028089337050914764404296875</LatitudeDegrees>
              <LongitudeDegrees>1.29574122838675975799560546875</LongitudeDegrees>
            </Position>
            <AltitudeMeters>2338.800048828125</AltitudeMeters>
            <DistanceMeters>9204.6850540501</DistanceMeters>
          </Trackpoint>
          <Trackpoint>
            <Time>2018-04-30T13:17:19.000Z</Time>
            <Position>
              <LatitudeDegrees>42.71017963998019695281982421875</LatitudeDegrees>
              <LongitudeDegrees>1.29584834910929203033447265625</LongitudeDegrees>
            </Position>
            <AltitudeMeters>2336.800048828125</AltitudeMeters>
            <DistanceMeters>9218.9593191758</DistanceMeters>
          </Trackpoint>
          <Trackpoint>
            <Time>2018-04-30T13:17:20.000Z</Time>
            <Position>
              <LatitudeDegrees>42.71012281067669391632080078125</LatitudeDegrees>
              <LongitudeDegrees>1.295890174806118011474609375</LongitudeDegrees>
            </Position>
            <AltitudeMeters>2336.199951171875</AltitudeMeters>
            <DistanceMeters>9226.150022738</DistanceMeters>
          </Trackpoint>
          <Trackpoint>
            <Time>2018-04-30T13:17:23.000Z</Time>
            <Position>
              <LatitudeDegrees>42.70994327031075954437255859375</LatitudeDegrees>
              <LongitudeDegrees>1.2960308231413364410400390625</LongitudeDegrees>
            </Position>
            <AltitudeMeters>2332.199951171875</AltitudeMeters>
            <DistanceMeters>9249.2072715019</DistanceMeters>
          </Trackpoint>
          <Trackpoint>
            <Time>2018-04-30T13:17:24.000Z</Time>
            <Position>
              <LatitudeDegrees>42.7098939009010791778564453125</LatitudeDegrees>
              <LongitudeDegrees>1.29608966410160064697265625</LongitudeDegrees>
            </Position>
            <AltitudeMeters>2331</AltitudeMeters>
            <DistanceMeters>9256.5113588255</DistanceMeters>
          </Trackpoint>
          <Trackpoint>
            <Time>2018-04-30T13:17:25.000Z</Time>
            <Position>
              <LatitudeDegrees>42.709845788776874542236328125</LatitudeDegrees>
              <LongitudeDegrees>1.2961511872708797454833984375</LongitudeDegrees>
            </Position>
            <AltitudeMeters>2330</AltitudeMeters>
            <DistanceMeters>9263.8598183331</DistanceMeters>
          </Trackpoint>
          <Trackpoint>
            <Time>2018-04-30T13:17:29.000Z</Time>
            <Position>
              <LatitudeDegrees>42.70967085845768451690673828125</LatitudeDegrees>
              <LongitudeDegrees>1.29636861383914947509765625</LongitudeDegrees>
            </Position>
            <AltitudeMeters>2326</AltitudeMeters>
            <DistanceMeters>9290.2281477446</DistanceMeters>
          </Trackpoint>
          <Trackpoint>
            <Time>2018-04-30T13:17:32.000Z</Time>
            <Position>
              <LatitudeDegrees>42.70950556732714176177978515625</LatitudeDegrees>
              <LongitudeDegrees>1.2965538538992404937744140625</LongitudeDegrees>
            </Position>
            <AltitudeMeters>2322.39990234375</AltitudeMeters>
            <DistanceMeters>9314.0603475628</DistanceMeters>
          </Trackpoint>
          <Trackpoint>
            <Time>2018-04-30T13:17:35.000Z</Time>
            <Position>
              <LatitudeDegrees>42.70936944521963596343994140625</LatitudeDegrees>
              <LongitudeDegrees>1.29676935262978076934814453125</LongitudeDegrees>
            </Position>
            <AltitudeMeters>2319</AltitudeMeters>
            <DistanceMeters>9337.3021025068</DistanceMeters>
          </Trackpoint>
          <Trackpoint>
            <Time>2018-04-30T13:17:39.000Z</Time>
            <Position>
              <LatitudeDegrees>42.709220163524150848388671875</LatitudeDegrees>
              <LongitudeDegrees>1.29706439562141895294189453125</LongitudeDegrees>
            </Position>
            <AltitudeMeters>2315.39990234375</AltitudeMeters>
            <DistanceMeters>9366.5994719489</DistanceMeters>
          </Trackpoint>
          <Trackpoint>
            <Time>2018-04-30T13:17:42.000Z</Time>
            <Position>
              <LatitudeDegrees>42.70910843275487422943115234375</LatitudeDegrees>
              <LongitudeDegrees>1.29730730317533016204833984375</LongitudeDegrees>
            </Position>
            <AltitudeMeters>2311.800048828125</AltitudeMeters>
            <DistanceMeters>9390.036997634</DistanceMeters>
          </Trackpoint>
          <Trackpoint>
            <Time>2018-04-30T13:17:45.000Z</Time>
            <Position>
              <LatitudeDegrees>42.708978764712810516357421875</LatitudeDegrees>
              <LongitudeDegrees>1.29759781993925571441650390625</LongitudeDegrees>
            </Position>
            <AltitudeMeters>2307.199951171875</AltitudeMeters>
            <DistanceMeters>9417.8368188993</DistanceMeters>
          </Trackpoint>
          <Trackpoint>
            <Time>2018-04-30T13:17:49.000Z</Time>
            <Position>
              <LatitudeDegrees>42.70887893624603748321533203125</LatitudeDegrees>
              <LongitudeDegrees>1.2977578304708003997802734375</LongitudeDegrees>
            </Position>
            <AltitudeMeters>2305</AltitudeMeters>
            <DistanceMeters>9435.0043357546</DistanceMeters>
          </Trackpoint>
          <Trackpoint>
            <Time>2018-04-30T13:18:00.000Z</Time>
            <Position>
              <LatitudeDegrees>42.70870844833552837371826171875</LatitudeDegrees>
              <LongitudeDegrees>1.297872327268123626708984375</LongitudeDegrees>
            </Position>
            <AltitudeMeters>2302.800048828125</AltitudeMeters>
            <DistanceMeters>9456.1648029175</DistanceMeters>
          </Trackpoint>
          <Trackpoint>
            <Time>2018-04-30T13:18:12.000Z</Time>
            <Position>
              <LatitudeDegrees>42.70864457823336124420166015625</LatitudeDegrees>
              <LongitudeDegrees>1.29789856262505054473876953125</LongitudeDegrees>
            </Position>
            <AltitudeMeters>2301.39990234375</AltitudeMeters>
            <DistanceMeters>9463.5902757487</DistanceMeters>
          </Trackpoint>
          <Trackpoint>
            <Time>2018-04-30T13:18:13.000Z</Time>
            <Position>
              <LatitudeDegrees>42.70861440338194370269775390625</LatitudeDegrees>
              <LongitudeDegrees>1.2979060225188732147216796875</LongitudeDegrees>
            </Position>
            <AltitudeMeters>2301.39990234375</AltitudeMeters>
            <DistanceMeters>9467.0033093865</DistanceMeters>
          </Trackpoint>
          <Trackpoint>
            <Time>2018-04-30T13:18:14.000Z</Time>
            <Position>
              <LatitudeDegrees>42.70859495736658573150634765625</LatitudeDegrees>
              <LongitudeDegrees>1.2979107163846492767333984375</LongitudeDegrees>
            </Position>
            <AltitudeMeters>2301</AltitudeMeters>
            <DistanceMeters>9469.2012836578</DistanceMeters>
          </Trackpoint>
          <Trackpoint>
            <Time>2018-04-30T13:18:15.000Z</Time>
            <Position>
              <LatitudeDegrees>42.70857341587543487548828125</LatitudeDegrees>
              <LongitudeDegrees>1.29791348241269588470458984375</LongitudeDegrees>
            </Position>
            <AltitudeMeters>2300.60009765625</AltitudeMeters>
            <DistanceMeters>9471.6090438363</DistanceMeters>
          </Trackpoint>
          <Trackpoint>
            <Time>2018-04-30T13:18:16.000Z</Time>
            <Position>
              <LatitudeDegrees>42.7085514552891254425048828125</LatitudeDegrees>
              <LongitudeDegrees>1.29791314713656902313232421875</LongitudeDegrees>
            </Position>
            <AltitudeMeters>2300.199951171875</AltitudeMeters>
            <DistanceMeters>9474.0521730857</DistanceMeters>
          </Trackpoint>
          <Trackpoint>
            <Time>2018-04-30T13:18:17.000Z</Time>
            <Position>
              <LatitudeDegrees>42.708532847464084625244140625</LatitudeDegrees>
              <LongitudeDegrees>1.29791230894625186920166015625</LongitudeDegrees>
            </Position>
            <AltitudeMeters>2299.800048828125</AltitudeMeters>
            <DistanceMeters>9476.1254112263</DistanceMeters>
          </Trackpoint>
          <Trackpoint>
            <Time>2018-04-30T13:19:40.000Z</Time>
            <Position>
              <LatitudeDegrees>42.708532176911830902099609375</LatitudeDegrees>
              <LongitudeDegrees>1.29788339138031005859375</LongitudeDegrees>
            </Position>
            <AltitudeMeters>2298.800048828125</AltitudeMeters>
            <DistanceMeters>9478.4915573323</DistanceMeters>
          </Trackpoint>
          <Trackpoint>
            <Time>2018-04-30T13:20:21.000Z</Time>
            <Position>
              <LatitudeDegrees>42.708530835807323455810546875</LatitudeDegrees>
              <LongitudeDegrees>1.297936700284481048583984375</LongitudeDegrees>
            </Position>
            <AltitudeMeters>2299</AltitudeMeters>
            <DistanceMeters>9482.8545151758</DistanceMeters>
          </Trackpoint>
          <Trackpoint>
            <Time>2018-04-30T13:20:22.000Z</Time>
            <Position>
              <LatitudeDegrees>42.7085470966994762420654296875</LatitudeDegrees>
              <LongitudeDegrees>1.297953128814697265625</LongitudeDegrees>
            </Position>
            <AltitudeMeters>2299</AltitudeMeters>
            <DistanceMeters>9485.1092730426</DistanceMeters>
          </Trackpoint>
          <Trackpoint>
            <Time>2018-04-30T13:20:23.000Z</Time>
            <Position>
              <LatitudeDegrees>42.70855640061199665069580078125</LatitudeDegrees>
              <LongitudeDegrees>1.29796545021235942840576171875</LongitudeDegrees>
            </Position>
            <AltitudeMeters>2298.60009765625</AltitudeMeters>
            <DistanceMeters>9486.5535540605</DistanceMeters>
          </Trackpoint>
          <Trackpoint>
            <Time>2018-04-30T13:20:24.000Z</Time>
            <Position>
              <LatitudeDegrees>42.70856712944805622100830078125</LatitudeDegrees>
              <LongitudeDegrees>1.2979767657816410064697265625</LongitudeDegrees>
            </Position>
            <AltitudeMeters>2297.199951171875</AltitudeMeters>
            <DistanceMeters>9488.065046482</DistanceMeters>
          </Trackpoint>
          <Trackpoint>
            <Time>2018-04-30T13:20:27.000Z</Time>
            <Position>
              <LatitudeDegrees>42.70858204923570156097412109375</LatitudeDegrees>
              <LongitudeDegrees>1.29798456095159053802490234375</LongitudeDegrees>
            </Position>
            <AltitudeMeters>2294.60009765625</AltitudeMeters>
            <DistanceMeters>9489.8428335208</DistanceMeters>
          </Trackpoint>
          <Trackpoint>
            <Time>2018-04-30T13:21:23.000Z</Time>
            <Position>
              <LatitudeDegrees>42.708544246852397918701171875</LatitudeDegrees>
              <LongitudeDegrees>1.2979791127145290374755859375</LongitudeDegrees>
            </Position>
            <AltitudeMeters>2293.800048828125</AltitudeMeters>
            <DistanceMeters>9494.0744575103</DistanceMeters>
          </Trackpoint>
          <Trackpoint>
            <Time>2018-04-30T13:21:57.000Z</Time>
            <Position>
              <LatitudeDegrees>42.708564363420009613037109375</LatitudeDegrees>
              <LongitudeDegrees>1.29799864254891872406005859375</LongitudeDegrees>
            </Position>
            <AltitudeMeters>2293.800048828125</AltitudeMeters>
            <DistanceMeters>9496.825312661</DistanceMeters>
          </Trackpoint>
          <Trackpoint>
            <Time>2018-04-30T13:21:58.000Z</Time>
            <Position>
              <LatitudeDegrees>42.70857618190348148345947265625</LatitudeDegrees>
              <LongitudeDegrees>1.29801146686077117919921875</LongitudeDegrees>
            </Position>
            <AltitudeMeters>2293.800048828125</AltitudeMeters>
            <DistanceMeters>9498.5091903297</DistanceMeters>
          </Trackpoint>
          <Trackpoint>
            <Time>2018-04-30T13:21:59.000Z</Time>
            <Position>
              <LatitudeDegrees>42.708586156368255615234375</LatitudeDegrees>
              <LongitudeDegrees>1.298033259809017181396484375</LongitudeDegrees>
            </Position>
            <AltitudeMeters>2293.39990234375</AltitudeMeters>
            <DistanceMeters>9500.6083990627</DistanceMeters>
          </Trackpoint>
          <Trackpoint>
            <Time>2018-04-30T13:22:00.000Z</Time>
            <Position>
              <LatitudeDegrees>42.7085719071328639984130859375</LatitudeDegrees>
              <LongitudeDegrees>1.298068799078464508056640625</LongitudeDegrees>
            </Position>
            <AltitudeMeters>2292.800048828125</AltitudeMeters>
            <DistanceMeters>9503.9193676224</DistanceMeters>
          </Trackpoint>
          <Trackpoint>
            <Time>2018-04-30T13:22:01.000Z</Time>
            <Position>
              <LatitudeDegrees>42.70854684524238109588623046875</LatitudeDegrees>
              <LongitudeDegrees>1.2981071881949901580810546875</LongitudeDegrees>
            </Position>
            <AltitudeMeters>2291.800048828125</AltitudeMeters>
            <DistanceMeters>9508.118860365</DistanceMeters>
          </Trackpoint>
          <Trackpoint>
            <Time>2018-04-30T13:22:02.000Z</Time>
            <Position>
              <LatitudeDegrees>42.7085491083562374114990234375</LatitudeDegrees>
              <LongitudeDegrees>1.29815161228179931640625</LongitudeDegrees>
            </Position>
            <AltitudeMeters>2290.199951171875</AltitudeMeters>
            <DistanceMeters>9511.7610001613</DistanceMeters>
          </Trackpoint>
          <Trackpoint>
            <Time>2018-04-30T13:22:03.000Z</Time>
            <Position>
              <LatitudeDegrees>42.70856964401900768280029296875</LatitudeDegrees>
              <LongitudeDegrees>1.2982060946524143218994140625</LongitudeDegrees>
            </Position>
            <AltitudeMeters>2288.199951171875</AltitudeMeters>
            <DistanceMeters>9516.7695480907</DistanceMeters>
          </Trackpoint>
          <Trackpoint>
            <Time>2018-04-30T13:22:04.000Z</Time>
            <Position>
              <LatitudeDegrees>42.7085695601999759674072265625</LatitudeDegrees>
              <LongitudeDegrees>1.29826853983104228973388671875</LongitudeDegrees>
            </Position>
            <AltitudeMeters>2286.60009765625</AltitudeMeters>
            <DistanceMeters>9521.8762946842</DistanceMeters>
          </Trackpoint>
          <Trackpoint>
            <Time>2018-04-30T13:22:05.000Z</Time>
            <Position>
              <LatitudeDegrees>42.70854215137660503387451171875</LatitudeDegrees>
              <LongitudeDegrees>1.29832503385841846466064453125</LongitudeDegrees>
            </Position>
            <AltitudeMeters>2285.60009765625</AltitudeMeters>
            <DistanceMeters>9527.4131809506</DistanceMeters>
          </Trackpoint>
          <Trackpoint>
            <Time>2018-04-30T13:22:06.000Z</Time>
            <Position>
              <LatitudeDegrees>42.7085400559008121490478515625</LatitudeDegrees>
              <LongitudeDegrees>1.2983824498951435089111328125</LongitudeDegrees>
            </Position>
            <AltitudeMeters>2282.39990234375</AltitudeMeters>
            <DistanceMeters>9532.113882713</DistanceMeters>
          </Trackpoint>
          <Trackpoint>
            <Time>2018-04-30T13:22:07.000Z</Time>
            <Position>
              <LatitudeDegrees>42.70856134593486785888671875</LatitudeDegrees>
              <LongitudeDegrees>1.2984478287398815155029296875</LongitudeDegrees>
            </Position>
            <AltitudeMeters>2279.199951171875</AltitudeMeters>
            <DistanceMeters>9537.9624662654</DistanceMeters>
          </Trackpoint>
          <Trackpoint>
            <Time>2018-04-30T13:22:08.000Z</Time>
            <Position>
              <LatitudeDegrees>42.70855371840298175811767578125</LatitudeDegrees>
              <LongitudeDegrees>1.29851915873587131500244140625</LongitudeDegrees>
            </Position>
            <AltitudeMeters>2276.60009765625</AltitudeMeters>
            <DistanceMeters>9543.8587188303</DistanceMeters>
          </Trackpoint>
          <Trackpoint>
            <Time>2018-04-30T13:22:09.000Z</Time>
            <Position>
              <LatitudeDegrees>42.7085263095796108245849609375</LatitudeDegrees>
              <LongitudeDegrees>1.29856240935623645782470703125</LongitudeDegrees>
            </Position>
            <AltitudeMeters>2274.800048828125</AltitudeMeters>
            <DistanceMeters>9548.530516639</DistanceMeters>
          </Trackpoint>
          <Trackpoint>
            <Time>2018-04-30T13:22:10.000Z</Time>
            <Position>
              <LatitudeDegrees>42.7085078693926334381103515625</LatitudeDegrees>
              <LongitudeDegrees>1.29859660752117633819580078125</LongitudeDegrees>
            </Position>
            <AltitudeMeters>2272.39990234375</AltitudeMeters>
            <DistanceMeters>9551.999967878</DistanceMeters>
          </Trackpoint>
          <Trackpoint>
            <Time>2018-04-30T13:22:11.000Z</Time>
            <Position>
              <LatitudeDegrees>42.70851734094321727752685546875</LatitudeDegrees>
              <LongitudeDegrees>1.29861253313720226287841796875</LongitudeDegrees>
            </Position>
            <AltitudeMeters>2270.199951171875</AltitudeMeters>
            <DistanceMeters>9553.6757822394</DistanceMeters>
          </Trackpoint>
          <Trackpoint>
            <Time>2018-04-30T13:22:12.000Z</Time>
            <Position>
              <LatitudeDegrees>42.7085343562066555023193359375</LatitudeDegrees>
              <LongitudeDegrees>1.29861219786107540130615234375</LongitudeDegrees>
            </Position>
            <AltitudeMeters>2268.800048828125</AltitudeMeters>
            <DistanceMeters>9555.571559237</DistanceMeters>
          </Trackpoint>
          <Trackpoint>
            <Time>2018-04-30T13:22:15.000Z</Time>
            <Position>
              <LatitudeDegrees>42.70854366011917591094970703125</LatitudeDegrees>
              <LongitudeDegrees>1.2986054085195064544677734375</LongitudeDegrees>
            </Position>
            <AltitudeMeters>2267.199951171875</AltitudeMeters>
            <DistanceMeters>9556.7469747789</DistanceMeters>
          </Trackpoint>
          <Trackpoint>
            <Time>2018-04-30T13:22:19.000Z</Time>
            <Position>
              <LatitudeDegrees>42.70856394432485103607177734375</LatitudeDegrees>
              <LongitudeDegrees>1.29863600246608257293701171875</LongitudeDegrees>
            </Position>
            <AltitudeMeters>2267.199951171875</AltitudeMeters>
            <DistanceMeters>9560.1174103837</DistanceMeters>
          </Trackpoint>
          <Trackpoint>
            <Time>2018-04-30T13:22:20.000Z</Time>
            <Position>
              <LatitudeDegrees>42.708574421703815460205078125</LatitudeDegrees>
              <LongitudeDegrees>1.29867539741098880767822265625</LongitudeDegrees>
            </Position>
            <AltitudeMeters>2266.800048828125</AltitudeMeters>
            <DistanceMeters>9563.5436472957</DistanceMeters>
          </Trackpoint>
          <Trackpoint>
            <Time>2018-04-30T13:22:21.000Z</Time>
            <Position>
              <LatitudeDegrees>42.7085742540657520294189453125</LatitudeDegrees>
              <LongitudeDegrees>1.29872384481132030487060546875</LongitudeDegrees>
            </Position>
            <AltitudeMeters>2266.199951171875</AltitudeMeters>
            <DistanceMeters>9567.506386618</DistanceMeters>
          </Trackpoint>
          <Trackpoint>
            <Time>2018-04-30T13:22:22.000Z</Time>
            <Position>
              <LatitudeDegrees>42.7085544727742671966552734375</LatitudeDegrees>
              <LongitudeDegrees>1.29877313040196895599365234375</LongitudeDegrees>
            </Position>
            <AltitudeMeters>2264.800048828125</AltitudeMeters>
            <DistanceMeters>9572.0992352518</DistanceMeters>
          </Trackpoint>
          <Trackpoint>
            <Time>2018-04-30T13:22:23.000Z</Time>
            <Position>
              <LatitudeDegrees>42.70854013971984386444091796875</LatitudeDegrees>
              <LongitudeDegrees>1.2988266907632350921630859375</LongitudeDegrees>
            </Position>
            <AltitudeMeters>2263.39990234375</AltitudeMeters>
            <DistanceMeters>9576.7623269383</DistanceMeters>
          </Trackpoint>
          <Trackpoint>
            <Time>2018-04-30T13:22:24.000Z</Time>
            <Position>
              <LatitudeDegrees>42.7085231244564056396484375</LatitudeDegrees>
              <LongitudeDegrees>1.29890522919595241546630859375</LongitudeDegrees>
            </Position>
            <AltitudeMeters>2261.800048828125</AltitudeMeters>
            <DistanceMeters>9583.4588454084</DistanceMeters>
          </Trackpoint>
          <Trackpoint>
            <Time>2018-04-30T13:22:25.000Z</Time>
            <Position>
              <LatitudeDegrees>42.7084897644817829132080078125</LatitudeDegrees>
              <LongitudeDegrees>1.2990084104239940643310546875</LongitudeDegrees>
            </Position>
            <AltitudeMeters>2259.800048828125</AltitudeMeters>
            <DistanceMeters>9592.6783958078</DistanceMeters>
          </Trackpoint>
          <Trackpoint>
            <Time>2018-04-30T13:22:27.000Z</Time>
            <Position>
              <LatitudeDegrees>42.70840602926909923553466796875</LatitudeDegrees>
              <LongitudeDegrees>1.299220807850360870361328125</LongitudeDegrees>
            </Position>
            <AltitudeMeters>2256</AltitudeMeters>
            <DistanceMeters>9612.3918016486</DistanceMeters>
          </Trackpoint>
          <Trackpoint>
            <Time>2018-04-30T13:22:31.000Z</Time>
            <Position>
              <LatitudeDegrees>42.70827778615057468414306640625</LatitudeDegrees>
              <LongitudeDegrees>1.29949078895151615142822265625</LongitudeDegrees>
            </Position>
            <AltitudeMeters>2253.800048828125</AltitudeMeters>
            <DistanceMeters>9638.6845103764</DistanceMeters>
          </Trackpoint>
          <Trackpoint>
            <Time>2018-04-30T13:22:42.000Z</Time>
            <Position>
              <LatitudeDegrees>42.70818910561501979827880859375</LatitudeDegrees>
              <LongitudeDegrees>1.29971735179424285888671875</LongitudeDegrees>
            </Position>
            <AltitudeMeters>2252.39990234375</AltitudeMeters>
            <DistanceMeters>9659.6791785419</DistanceMeters>
          </Trackpoint>
          <Trackpoint>
            <Time>2018-04-30T13:22:43.000Z</Time>
            <Position>
              <LatitudeDegrees>42.7081826515495777130126953125</LatitudeDegrees>
              <LongitudeDegrees>1.2997300922870635986328125</LongitudeDegrees>
            </Position>
            <AltitudeMeters>2252.39990234375</AltitudeMeters>
            <DistanceMeters>9660.9434267496</DistanceMeters>
          </Trackpoint>
          <Trackpoint>
            <Time>2018-04-30T13:22:49.000Z</Time>
            <Position>
              <LatitudeDegrees>42.70817653276026248931884765625</LatitudeDegrees>
              <LongitudeDegrees>1.29977409727871417999267578125</LongitudeDegrees>
            </Position>
            <AltitudeMeters>2252.39990234375</AltitudeMeters>
            <DistanceMeters>9664.6065802539</DistanceMeters>
          </Trackpoint>
          <Trackpoint>
            <Time>2018-04-30T13:22:53.000Z</Time>
            <Position>
              <LatitudeDegrees>42.70817485637962818145751953125</LatitudeDegrees>
              <LongitudeDegrees>1.2998174317181110382080078125</LongitudeDegrees>
            </Position>
            <AltitudeMeters>2252.39990234375</AltitudeMeters>
            <DistanceMeters>9668.155799413</DistanceMeters>
          </Trackpoint>
          <Trackpoint>
            <Time>2018-04-30T13:22:54.000Z</Time>
            <Position>
              <LatitudeDegrees>42.70817167125642299652099609375</LatitudeDegrees>
              <LongitudeDegrees>1.29982841201126575469970703125</LongitudeDegrees>
            </Position>
            <AltitudeMeters>2252.199951171875</AltitudeMeters>
            <DistanceMeters>9669.1248855547</DistanceMeters>
          </Trackpoint>
          <Trackpoint>
            <Time>2018-04-30T13:24:26.000Z</Time>
            <Position>
              <LatitudeDegrees>42.70814753137528896331787109375</LatitudeDegrees>
              <LongitudeDegrees>1.29988993518054485321044921875</LongitudeDegrees>
            </Position>
            <AltitudeMeters>2252.60009765625</AltitudeMeters>
            <DistanceMeters>9674.8296550947</DistanceMeters>
          </Trackpoint>
          <Trackpoint>
            <Time>2018-04-30T13:24:43.000Z</Time>
            <Position>
              <LatitudeDegrees>42.7080418355762958526611328125</LatitudeDegrees>
              <LongitudeDegrees>1.300123371183872222900390625</LongitudeDegrees>
            </Position>
            <AltitudeMeters>2252.60009765625</AltitudeMeters>
            <DistanceMeters>9697.2551543604</DistanceMeters>
          </Trackpoint>
          <Trackpoint>
            <Time>2018-04-30T13:24:58.000Z</Time>
            <Position>
              <LatitudeDegrees>42.7079462818801403045654296875</LatitudeDegrees>
              <LongitudeDegrees>1.30034632980823516845703125</LongitudeDegrees>
            </Position>
            <AltitudeMeters>2252.60009765625</AltitudeMeters>
            <DistanceMeters>9718.3652058172</DistanceMeters>
          </Trackpoint>
          <Trackpoint>
            <Time>2018-04-30T13:25:13.000Z</Time>
            <Position>
              <LatitudeDegrees>42.7078463695943355560302734375</LatitudeDegrees>
              <LongitudeDegrees>1.30057255737483501434326171875</LongitudeDegrees>
            </Position>
            <AltitudeMeters>2252.199951171875</AltitudeMeters>
            <DistanceMeters>9739.9523808285</DistanceMeters>
          </Trackpoint>
          <Trackpoint>
            <Time>2018-04-30T13:25:20.000Z</Time>
            <Position>
              <LatitudeDegrees>42.70779146812856197357177734375</LatitudeDegrees>
              <LongitudeDegrees>1.30067783407866954803466796875</LongitudeDegrees>
            </Position>
            <AltitudeMeters>2252.199951171875</AltitudeMeters>
            <DistanceMeters>9750.510614284</DistanceMeters>
          </Trackpoint>
          <Trackpoint>
            <Time>2018-04-30T13:25:26.000Z</Time>
            <Position>
              <LatitudeDegrees>42.707775793969631195068359375</LatitudeDegrees>
              <LongitudeDegrees>1.3007246889173984527587890625</LongitudeDegrees>
            </Position>
            <AltitudeMeters>2252.199951171875</AltitudeMeters>
            <DistanceMeters>9754.7208446885</DistanceMeters>
          </Trackpoint>
          <Trackpoint>
            <Time>2018-04-30T13:25:27.000Z</Time>
            <Position>
              <LatitudeDegrees>42.7077695913612842559814453125</LatitudeDegrees>
              <LongitudeDegrees>1.3007374294102191925048828125</LongitudeDegrees>
            </Position>
            <AltitudeMeters>2252.199951171875</AltitudeMeters>
            <DistanceMeters>9755.9707259728</DistanceMeters>
          </Trackpoint>
          <Trackpoint>
            <Time>2018-04-30T13:25:28.000Z</Time>
            <Position>
              <LatitudeDegrees>42.70775995217263698577880859375</LatitudeDegrees>
              <LongitudeDegrees>1.3007528521120548248291015625</LongitudeDegrees>
            </Position>
            <AltitudeMeters>2252.199951171875</AltitudeMeters>
            <DistanceMeters>9757.6275733523</DistanceMeters>
          </Trackpoint>
          <Trackpoint>
            <Time>2018-04-30T13:25:29.000Z</Time>
            <Position>
              <LatitudeDegrees>42.7077508158981800079345703125</LatitudeDegrees>
              <LongitudeDegrees>1.30076752044260501861572265625</LongitudeDegrees>
            </Position>
            <AltitudeMeters>2252.199951171875</AltitudeMeters>
            <DistanceMeters>9759.2005453628</DistanceMeters>
          </Trackpoint>
          <Trackpoint>
            <Time>2018-04-30T13:25:30.000Z</Time>
            <Position>
              <LatitudeDegrees>42.7077400870621204376220703125</LatitudeDegrees>
              <LongitudeDegrees>1.30078294314444065093994140625</LongitudeDegrees>
            </Position>
            <AltitudeMeters>2252.199951171875</AltitudeMeters>
            <DistanceMeters>9760.9372219395</DistanceMeters>
          </Trackpoint>
          <Trackpoint>
            <Time>2018-04-30T13:25:31.000Z</Time>
            <Position>
              <LatitudeDegrees>42.70773078314960002899169921875</LatitudeDegrees>
              <LongitudeDegrees>1.3008014671504497528076171875</LongitudeDegrees>
            </Position>
            <AltitudeMeters>2252.39990234375</AltitudeMeters>
            <DistanceMeters>9762.7724926317</DistanceMeters>
          </Trackpoint>
          <Trackpoint>
            <Time>2018-04-30T13:25:32.000Z</Time>
            <Position>
              <LatitudeDegrees>42.70772458054125308990478515625</LatitudeDegrees>
              <LongitudeDegrees>1.30081445910036563873291015625</LongitudeDegrees>
            </Position>
            <AltitudeMeters>2252.199951171875</AltitudeMeters>
            <DistanceMeters>9764.040307132</DistanceMeters>
          </Trackpoint>
          <Trackpoint>
            <Time>2018-04-30T13:25:33.000Z</Time>
            <Position>
              <LatitudeDegrees>42.70771636627614498138427734375</LatitudeDegrees>
              <LongitudeDegrees>1.3008266128599643707275390625</LongitudeDegrees>
            </Position>
            <AltitudeMeters>2252.199951171875</AltitudeMeters>
            <DistanceMeters>9765.3908905028</DistanceMeters>
          </Trackpoint>
          <Trackpoint>
            <Time>2018-04-30T13:25:34.000Z</Time>
            <Position>
              <LatitudeDegrees>42.70771083422005176544189453125</LatitudeDegrees>
              <LongitudeDegrees>1.3008410297334194183349609375</LongitudeDegrees>
            </Position>
            <AltitudeMeters>2252.199951171875</AltitudeMeters>
            <DistanceMeters>9766.721264504</DistanceMeters>
          </Trackpoint>
          <Trackpoint>
            <Time>2018-04-30T13:25:41.000Z</Time>
            <Position>
              <LatitudeDegrees>42.70767848007380962371826171875</LatitudeDegrees>
              <LongitudeDegrees>1.300919316709041595458984375</LongitudeDegrees>
            </Position>
            <AltitudeMeters>2252</AltitudeMeters>
            <DistanceMeters>9774.0672659217</DistanceMeters>
          </Trackpoint>
          <Trackpoint>
            <Time>2018-04-30T13:25:42.000Z</Time>
            <Position>
              <LatitudeDegrees>42.707674205303192138671875</LatitudeDegrees>
              <LongitudeDegrees>1.3009332306683063507080078125</LongitudeDegrees>
            </Position>
            <AltitudeMeters>2252.199951171875</AltitudeMeters>
            <DistanceMeters>9775.3026132085</DistanceMeters>
          </Trackpoint>
          <Trackpoint>
            <Time>2018-04-30T13:25:43.000Z</Time>
            <Position>
              <LatitudeDegrees>42.707667835056781768798828125</LatitudeDegrees>
              <LongitudeDegrees>1.30094940774142742156982421875</LongitudeDegrees>
            </Position>
            <AltitudeMeters>2252.199951171875</AltitudeMeters>
            <DistanceMeters>9776.8051174884</DistanceMeters>
          </Trackpoint>
          <Trackpoint>
            <Time>2018-04-30T13:25:44.000Z</Time>
            <Position>
              <LatitudeDegrees>42.70766423083841800689697265625</LatitudeDegrees>
              <LongitudeDegrees>1.30096332170069217681884765625</LongitudeDegrees>
            </Position>
            <AltitudeMeters>2252.199951171875</AltitudeMeters>
            <DistanceMeters>9778.0146101027</DistanceMeters>
          </Trackpoint>
          <Trackpoint>
            <Time>2018-04-30T13:25:45.000Z</Time>
            <Position>
              <LatitudeDegrees>42.7076602913439273834228515625</LatitudeDegrees>
              <LongitudeDegrees>1.30097262561321258544921875</LongitudeDegrees>
            </Position>
            <AltitudeMeters>2252.199951171875</AltitudeMeters>
            <DistanceMeters>9778.8907131204</DistanceMeters>
          </Trackpoint>
          <Trackpoint>
            <Time>2018-04-30T13:25:46.000Z</Time>
            <Position>
              <LatitudeDegrees>42.707655429840087890625</LatitudeDegrees>
              <LongitudeDegrees>1.3009838573634624481201171875</LongitudeDegrees>
            </Position>
            <AltitudeMeters>2252.199951171875</AltitudeMeters>
            <DistanceMeters>9779.9573853437</DistanceMeters>
          </Trackpoint>
          <Trackpoint>
            <Time>2018-04-30T13:25:47.000Z</Time>
            <Position>
              <LatitudeDegrees>42.70764998160302639007568359375</LatitudeDegrees>
              <LongitudeDegrees>1.3009987771511077880859375</LongitudeDegrees>
            </Position>
            <AltitudeMeters>2252.39990234375</AltitudeMeters>
            <DistanceMeters>9781.321275276</DistanceMeters>
          </Trackpoint>
          <Trackpoint>
            <Time>2018-04-30T13:26:01.000Z</Time>
            <Position>
              <LatitudeDegrees>42.707545123994350433349609375</LatitudeDegrees>
              <LongitudeDegrees>1.3012131862342357635498046875</LongitudeDegrees>
            </Position>
            <AltitudeMeters>2252.199951171875</AltitudeMeters>
            <DistanceMeters>9802.3859351665</DistanceMeters>
          </Trackpoint>
          <Trackpoint>
            <Time>2018-04-30T13:26:02.000Z</Time>
            <Position>
              <LatitudeDegrees>42.7075369097292423248291015625</LatitudeDegrees>
              <LongitudeDegrees>1.30122668109834194183349609375</LongitudeDegrees>
            </Position>
            <AltitudeMeters>2252.199951171875</AltitudeMeters>
            <DistanceMeters>9803.8208070874</DistanceMeters>
          </Trackpoint>
          <Trackpoint>
            <Time>2018-04-30T13:26:03.000Z</Time>
            <Position>
              <LatitudeDegrees>42.70752961747348308563232421875</LatitudeDegrees>
              <LongitudeDegrees>1.3012413494288921356201171875</LongitudeDegrees>
            </Position>
            <AltitudeMeters>2252.199951171875</AltitudeMeters>
            <DistanceMeters>9805.2682108787</DistanceMeters>
          </Trackpoint>
          <Trackpoint>
            <Time>2018-04-30T13:26:04.000Z</Time>
            <Position>
              <LatitudeDegrees>42.70752131938934326171875</LatitudeDegrees>
              <LongitudeDegrees>1.3012581132352352142333984375</LongitudeDegrees>
            </Position>
            <AltitudeMeters>2252.199951171875</AltitudeMeters>
            <DistanceMeters>9806.9195991086</DistanceMeters>
          </Trackpoint>
          <Trackpoint>
            <Time>2018-04-30T13:26:05.000Z</Time>
            <Position>
              <LatitudeDegrees>42.707513608038425445556640625</LatitudeDegrees>
              <LongitudeDegrees>1.30127227865159511566162109375</LongitudeDegrees>
            </Position>
            <AltitudeMeters>2252.39990234375</AltitudeMeters>
            <DistanceMeters>9808.3576142357</DistanceMeters>
          </Trackpoint>
          <Trackpoint>
            <Time>2018-04-30T13:26:06.000Z</Time>
            <Position>
              <LatitudeDegrees>42.70750480704009532928466796875</LatitudeDegrees>
              <LongitudeDegrees>1.3012876175343990325927734375</LongitudeDegrees>
            </Position>
            <AltitudeMeters>2252.39990234375</AltitudeMeters>
            <DistanceMeters>9809.9505522385</DistanceMeters>
          </Trackpoint>
          <Trackpoint>
            <Time>2018-04-30T13:26:07.000Z</Time>
            <Position>
              <LatitudeDegrees>42.70749961026012897491455078125</LatitudeDegrees>
              <LongitudeDegrees>1.301303543150424957275390625</LongitudeDegrees>
            </Position>
            <AltitudeMeters>2252.39990234375</AltitudeMeters>
            <DistanceMeters>9811.375952954</DistanceMeters>
          </Trackpoint>
          <Trackpoint>
            <Time>2018-04-30T13:26:08.000Z</Time>
            <Position>
              <LatitudeDegrees>42.7074958384037017822265625</LatitudeDegrees>
              <LongitudeDegrees>1.30131720565259456634521484375</LongitudeDegrees>
            </Position>
            <AltitudeMeters>2252.39990234375</AltitudeMeters>
            <DistanceMeters>9812.5666342723</DistanceMeters>
          </Trackpoint>
          <Trackpoint>
            <Time>2018-04-30T13:26:11.000Z</Time>
            <Position>
              <LatitudeDegrees>42.707475721836090087890625</LatitudeDegrees>
              <LongitudeDegrees>1.301365233957767486572265625</LongitudeDegrees>
            </Position>
            <AltitudeMeters>2252.39990234375</AltitudeMeters>
            <DistanceMeters>9817.0881487386</DistanceMeters>
          </Trackpoint>
          <Trackpoint>
            <Time>2018-04-30T13:26:13.000Z</Time>
            <Position>
              <LatitudeDegrees>42.7074668370187282562255859375</LatitudeDegrees>
              <LongitudeDegrees>1.30138426087796688079833984375</LongitudeDegrees>
            </Position>
            <AltitudeMeters>2252.39990234375</AltitudeMeters>
            <DistanceMeters>9818.9307850953</DistanceMeters>
          </Trackpoint>
          <Trackpoint>
            <Time>2018-04-30T13:26:22.000Z</Time>
            <Position>
              <LatitudeDegrees>42.707443870604038238525390625</LatitudeDegrees>
              <LongitudeDegrees>1.30142323672771453857421875</LongitudeDegrees>
            </Position>
            <AltitudeMeters>2252.199951171875</AltitudeMeters>
            <DistanceMeters>9823.015828702</DistanceMeters>
          </Trackpoint>
          <Trackpoint>
            <Time>2018-04-30T13:26:23.000Z</Time>
            <Position>
              <LatitudeDegrees>42.7074373327195644378662109375</LatitudeDegrees>
              <LongitudeDegrees>1.3014378212392330169677734375</LongitudeDegrees>
            </Position>
            <AltitudeMeters>2252.39990234375</AltitudeMeters>
            <DistanceMeters>9824.4124304748</DistanceMeters>
          </Trackpoint>
          <Trackpoint>
            <Time>2018-04-30T13:26:33.000Z</Time>
            <Position>
              <LatitudeDegrees>42.7073657512664794921875</LatitudeDegrees>
              <LongitudeDegrees>1.30158257670700550079345703125</LongitudeDegrees>
            </Position>
            <AltitudeMeters>2252.39990234375</AltitudeMeters>
            <DistanceMeters>9838.6828994217</DistanceMeters>
          </Trackpoint>
          <Trackpoint>
            <Time>2018-04-30T13:26:34.000Z</Time>
            <Position>
              <LatitudeDegrees>42.70735426805913448333740234375</LatitudeDegrees>
              <LongitudeDegrees>1.3015970773994922637939453125</LongitudeDegrees>
            </Position>
            <AltitudeMeters>2252.199951171875</AltitudeMeters>
            <DistanceMeters>9840.429944309</DistanceMeters>
          </Trackpoint>
          <Trackpoint>
            <Time>2018-04-30T13:26:35.000Z</Time>
            <Position>
              <LatitudeDegrees>42.7073444612324237823486328125</LatitudeDegrees>
              <LongitudeDegrees>1.30161107517778873443603515625</LongitudeDegrees>
            </Position>
            <AltitudeMeters>2252.199951171875</AltitudeMeters>
            <DistanceMeters>9842.0086466554</DistanceMeters>
          </Trackpoint>
          <Trackpoint>
            <Time>2018-04-30T13:26:36.000Z</Time>
            <Position>
              <LatitudeDegrees>42.70733783952891826629638671875</LatitudeDegrees>
              <LongitudeDegrees>1.301626078784465789794921875</LongitudeDegrees>
            </Position>
            <AltitudeMeters>2252.39990234375</AltitudeMeters>
            <DistanceMeters>9843.4372114163</DistanceMeters>
          </Trackpoint>
          <Trackpoint>
            <Time>2018-04-30T13:26:37.000Z</Time>
            <Position>
              <LatitudeDegrees>42.70733096636831760406494140625</LatitudeDegrees>
              <LongitudeDegrees>1.30163848400115966796875</LongitudeDegrees>
            </Position>
            <AltitudeMeters>2252.39990234375</AltitudeMeters>
            <DistanceMeters>9844.7050259166</DistanceMeters>
          </Trackpoint>
          <Trackpoint>
            <Time>2018-04-30T13:26:53.000Z</Time>
            <Position>
              <LatitudeDegrees>42.70721781067550182342529296875</LatitudeDegrees>
              <LongitudeDegrees>1.3018595986068248748779296875</LongitudeDegrees>
            </Position>
            <AltitudeMeters>2252.199951171875</AltitudeMeters>
            <DistanceMeters>9866.7430301697</DistanceMeters>
          </Trackpoint>
          <Trackpoint>
            <Time>2018-04-30T13:27:04.000Z</Time>
            <Position>
              <LatitudeDegrees>42.70719769410789012908935546875</LatitudeDegrees>
              <LongitudeDegrees>1.3020394742488861083984375</LongitudeDegrees>
            </Position>
            <AltitudeMeters>2252.39990234375</AltitudeMeters>
            <DistanceMeters>9881.6243471381</DistanceMeters>
          </Trackpoint>
          <Trackpoint>
            <Time>2018-04-30T13:27:05.000Z</Time>
            <Position>
              <LatitudeDegrees>42.7071989513933658599853515625</LatitudeDegrees>
              <LongitudeDegrees>1.30205699242651462554931640625</LongitudeDegrees>
            </Position>
            <AltitudeMeters>2252.60009765625</AltitudeMeters>
            <DistanceMeters>9883.0654986159</DistanceMeters>
          </Trackpoint>
          <Trackpoint>
            <Time>2018-04-30T13:27:06.000Z</Time>
            <Position>
              <LatitudeDegrees>42.70719853229820728302001953125</LatitudeDegrees>
              <LongitudeDegrees>1.30207291804254055023193359375</LongitudeDegrees>
            </Position>
            <AltitudeMeters>2252.60009765625</AltitudeMeters>
            <DistanceMeters>9884.368439279</DistanceMeters>
          </Trackpoint>
          <Trackpoint>
            <Time>2018-04-30T13:27:07.000Z</Time>
            <Position>
              <LatitudeDegrees>42.707195766270160675048828125</LatitudeDegrees>
              <LongitudeDegrees>1.30208632908761501312255859375</LongitudeDegrees>
            </Position>
            <AltitudeMeters>2252.60009765625</AltitudeMeters>
            <DistanceMeters>9885.504793507</DistanceMeters>
          </Trackpoint>
          <Trackpoint>
            <Time>2018-04-30T13:27:08.000Z</Time>
            <Position>
              <LatitudeDegrees>42.70719434134662151336669921875</LatitudeDegrees>
              <LongitudeDegrees>1.302106194198131561279296875</LongitudeDegrees>
            </Position>
            <AltitudeMeters>2252.60009765625</AltitudeMeters>
            <DistanceMeters>9887.1341622419</DistanceMeters>
          </Trackpoint>
          <Trackpoint>
            <Time>2018-04-30T13:27:09.000Z</Time>
            <Position>
              <LatitudeDegrees>42.70719484426081180572509765625</LatitudeDegrees>
              <LongitudeDegrees>1.3021258078515529632568359375</LongitudeDegrees>
            </Position>
            <AltitudeMeters>2252.800048828125</AltitudeMeters>
            <DistanceMeters>9888.738397819</DistanceMeters>
          </Trackpoint>
          <Trackpoint>
            <Time>2018-04-30T13:27:10.000Z</Time>
            <Position>
              <LatitudeDegrees>42.707195766270160675048828125</LatitudeDegrees>
              <LongitudeDegrees>1.30214148201048374176025390625</LongitudeDegrees>
            </Position>
            <AltitudeMeters>2252.800048828125</AltitudeMeters>
            <DistanceMeters>9890.0238953838</DistanceMeters>
          </Trackpoint>
          <Trackpoint>
            <Time>2018-04-30T13:27:23.000Z</Time>
            <Position>
              <LatitudeDegrees>42.70707850344479084014892578125</LatitudeDegrees>
              <LongitudeDegrees>1.3023506104946136474609375</LongitudeDegrees>
            </Position>
            <AltitudeMeters>2252.199951171875</AltitudeMeters>
            <DistanceMeters>9911.539001209</DistanceMeters>
          </Trackpoint>
          <Trackpoint>
            <Time>2018-04-30T13:27:26.000Z</Time>
            <Position>
              <LatitudeDegrees>42.7070584706962108612060546875</LatitudeDegrees>
              <LongitudeDegrees>1.30237785167992115020751953125</LongitudeDegrees>
            </Position>
            <AltitudeMeters>2252.199951171875</AltitudeMeters>
            <DistanceMeters>9914.6921130315</DistanceMeters>
          </Trackpoint>
          <Trackpoint>
            <Time>2018-04-30T13:27:27.000Z</Time>
            <Position>
              <LatitudeDegrees>42.7070490829646587371826171875</LatitudeDegrees>
              <LongitudeDegrees>1.302387155592441558837890625</LongitudeDegrees>
            </Position>
            <AltitudeMeters>2252.39990234375</AltitudeMeters>
            <DistanceMeters>9915.9881046281</DistanceMeters>
          </Trackpoint>
          <Trackpoint>
            <Time>2018-04-30T13:27:41.000Z</Time>
            <Position>
              <LatitudeDegrees>42.70692897029221057891845703125</LatitudeDegrees>
              <LongitudeDegrees>1.30253945477306842803955078125</LongitudeDegrees>
            </Position>
            <AltitudeMeters>2252.60009765625</AltitudeMeters>
            <DistanceMeters>9934.2609288923</DistanceMeters>
          </Trackpoint>
          <Trackpoint>
            <Time>2018-04-30T13:27:42.000Z</Time>
            <Position>
              <LatitudeDegrees>42.70692125894129276275634765625</LatitudeDegrees>
              <LongitudeDegrees>1.30255169235169887542724609375</LongitudeDegrees>
            </Position>
            <AltitudeMeters>2252.800048828125</AltitudeMeters>
            <DistanceMeters>9935.5810821992</DistanceMeters>
          </Trackpoint>
          <Trackpoint>
            <Time>2018-04-30T13:27:43.000Z</Time>
            <Position>
              <LatitudeDegrees>42.70691304467618465423583984375</LatitudeDegrees>
              <LongitudeDegrees>1.30256745032966136932373046875</LongitudeDegrees>
            </Position>
            <AltitudeMeters>2252.800048828125</AltitudeMeters>
            <DistanceMeters>9937.1597845456</DistanceMeters>
          </Trackpoint>
          <Trackpoint>
            <Time>2018-04-30T13:27:44.000Z</Time>
            <Position>
              <LatitudeDegrees>42.7069032378494739532470703125</LatitudeDegrees>
              <LongitudeDegrees>1.30258186720311641693115234375</LongitudeDegrees>
            </Position>
            <AltitudeMeters>2252.800048828125</AltitudeMeters>
            <DistanceMeters>9938.7668321065</DistanceMeters>
          </Trackpoint>
          <Trackpoint>
            <Time>2018-04-30T13:27:45.000Z</Time>
            <Position>
              <LatitudeDegrees>42.7068908326327800750732421875</LatitudeDegrees>
              <LongitudeDegrees>1.30259796045720577239990234375</LongitudeDegrees>
            </Position>
            <AltitudeMeters>2252.800048828125</AltitudeMeters>
            <DistanceMeters>9940.6768454267</DistanceMeters>
          </Trackpoint>
          <Trackpoint>
            <Time>2018-04-30T13:27:46.000Z</Time>
            <Position>
              <LatitudeDegrees>42.706877924501895904541015625</LatitudeDegrees>
              <LongitudeDegrees>1.30261455662548542022705078125</LongitudeDegrees>
            </Position>
            <AltitudeMeters>2252.800048828125</AltitudeMeters>
            <DistanceMeters>9942.6565052906</DistanceMeters>
          </Trackpoint>
          <Trackpoint>
            <Time>2018-04-30T13:27:47.000Z</Time>
            <Position>
              <LatitudeDegrees>42.70686945877969264984130859375</LatitudeDegrees>
              <LongitudeDegrees>1.30263014696538448333740234375</LongitudeDegrees>
            </Position>
            <AltitudeMeters>2252.60009765625</AltitudeMeters>
            <DistanceMeters>9944.2409172482</DistanceMeters>
          </Trackpoint>
          <Trackpoint>
            <Time>2018-04-30T13:27:48.000Z</Time>
            <Position>
              <LatitudeDegrees>42.70686258561909198760986328125</LatitudeDegrees>
              <LongitudeDegrees>1.3026456534862518310546875</LongitudeDegrees>
            </Position>
            <AltitudeMeters>2252.60009765625</AltitudeMeters>
            <DistanceMeters>9945.7252819784</DistanceMeters>
          </Trackpoint>
          <Trackpoint>
            <Time>2018-04-30T13:27:57.000Z</Time>
            <Position>
              <LatitudeDegrees>42.70681229420006275177001953125</LatitudeDegrees>
              <LongitudeDegrees>1.30276207812130451202392578125</LongitudeDegrees>
            </Position>
            <AltitudeMeters>2253</AltitudeMeters>
            <DistanceMeters>9956.7712945129</DistanceMeters>
          </Trackpoint>
          <Trackpoint>
            <Time>2018-04-30T13:28:13.000Z</Time>
            <Position>
              <LatitudeDegrees>42.706713639199733734130859375</LatitudeDegrees>
              <LongitudeDegrees>1.3029660098254680633544921875</LongitudeDegrees>
            </Position>
            <AltitudeMeters>2252.800048828125</AltitudeMeters>
            <DistanceMeters>9976.7404751612</DistanceMeters>
          </Trackpoint>
          <Trackpoint>
            <Time>2018-04-30T13:28:17.000Z</Time>
            <Position>
              <LatitudeDegrees>42.70668924786150455474853515625</LatitudeDegrees>
              <LongitudeDegrees>1.3030184805393218994140625</LongitudeDegrees>
            </Position>
            <AltitudeMeters>2252.60009765625</AltitudeMeters>
            <DistanceMeters>9981.8188507208</DistanceMeters>
          </Trackpoint>
          <Trackpoint>
            <Time>2018-04-30T13:28:18.000Z</Time>
            <Position>
              <LatitudeDegrees>42.7066802792251110076904296875</LatitudeDegrees>
              <LongitudeDegrees>1.30303331650793552398681640625</LongitudeDegrees>
            </Position>
            <AltitudeMeters>2252.60009765625</AltitudeMeters>
            <DistanceMeters>9983.3918227312</DistanceMeters>
          </Trackpoint>
          <Trackpoint>
            <Time>2018-04-30T13:28:19.000Z</Time>
            <Position>
              <LatitudeDegrees>42.70667315460741519927978515625</LatitudeDegrees>
              <LongitudeDegrees>1.3030484877526760101318359375</LongitudeDegrees>
            </Position>
            <AltitudeMeters>2252.800048828125</AltitudeMeters>
            <DistanceMeters>9984.8670340459</DistanceMeters>
          </Trackpoint>
          <Trackpoint>
            <Time>2018-04-30T13:28:20.000Z</Time>
            <Position>
              <LatitudeDegrees>42.70666728727519512176513671875</LatitudeDegrees>
              <LongitudeDegrees>1.30306114442646503448486328125</LongitudeDegrees>
            </Position>
            <AltitudeMeters>2252.800048828125</AltitudeMeters>
            <DistanceMeters>9986.0913676155</DistanceMeters>
          </Trackpoint>
          <Trackpoint>
            <Time>2018-04-30T13:28:21.000Z</Time>
            <Position>
              <LatitudeDegrees>42.7066576480865478515625</LatitudeDegrees>
              <LongitudeDegrees>1.303073465824127197265625</LongitudeDegrees>
            </Position>
            <AltitudeMeters>2252.800048828125</AltitudeMeters>
            <DistanceMeters>9987.5635151443</DistanceMeters>
          </Trackpoint>
          <Trackpoint>
            <Time>2018-04-30T13:28:22.000Z</Time>
            <Position>
              <LatitudeDegrees>42.70664733834564685821533203125</LatitudeDegrees>
              <LongitudeDegrees>1.3030882179737091064453125</LongitudeDegrees>
            </Position>
            <AltitudeMeters>2252.800048828125</AltitudeMeters>
            <DistanceMeters>9989.225803745</DistanceMeters>
          </Trackpoint>
          <Trackpoint>
            <Time>2018-04-30T13:28:23.000Z</Time>
            <Position>
              <LatitudeDegrees>42.7066350169479846954345703125</LatitudeDegrees>
              <LongitudeDegrees>1.30310188047587871551513671875</LongitudeDegrees>
            </Position>
            <AltitudeMeters>2252.800048828125</AltitudeMeters>
            <DistanceMeters>9990.9934028086</DistanceMeters>
          </Trackpoint>
          <Trackpoint>
            <Time>2018-04-30T13:28:36.000Z</Time>
            <Position>
              <LatitudeDegrees>42.70646897144615650177001953125</LatitudeDegrees>
              <LongitudeDegrees>1.30323649384081363677978515625</LongitudeDegrees>
            </Position>
            <AltitudeMeters>2252.800048828125</AltitudeMeters>
            <DistanceMeters>10012.505570472</DistanceMeters>
          </Trackpoint>
          <Trackpoint>
            <Time>2018-04-30T13:28:51.000Z</Time>
            <Position>
              <LatitudeDegrees>42.70632966421544551849365234375</LatitudeDegrees>
              <LongitudeDegrees>1.30341033451259136199951171875</LongitudeDegrees>
            </Position>
            <AltitudeMeters>2253</AltitudeMeters>
            <DistanceMeters>10033.542776716</DistanceMeters>
          </Trackpoint>
          <Trackpoint>
            <Time>2018-04-30T13:29:02.000Z</Time>
            <Position>
              <LatitudeDegrees>42.70623846910893917083740234375</LatitudeDegrees>
              <LongitudeDegrees>1.30357428453862667083740234375</LongitudeDegrees>
            </Position>
            <AltitudeMeters>2253.199951171875</AltitudeMeters>
            <DistanceMeters>10050.360625995</DistanceMeters>
          </Trackpoint>
          <Trackpoint>
            <Time>2018-04-30T13:29:03.000Z</Time>
            <Position>
              <LatitudeDegrees>42.70623193122446537017822265625</LatitudeDegrees>
              <LongitudeDegrees>1.3035856001079082489013671875</LongitudeDegrees>
            </Position>
            <AltitudeMeters>2253.199951171875</AltitudeMeters>
            <DistanceMeters>10051.539876508</DistanceMeters>
          </Trackpoint>
          <Trackpoint>
            <Time>2018-04-30T13:29:04.000Z</Time>
            <Position>
              <LatitudeDegrees>42.70622606389224529266357421875</LatitudeDegrees>
              <LongitudeDegrees>1.30359842441976070404052734375</LongitudeDegrees>
            </Position>
            <AltitudeMeters>2253.199951171875</AltitudeMeters>
            <DistanceMeters>10052.775223795</DistanceMeters>
          </Trackpoint>
          <Trackpoint>
            <Time>2018-04-30T13:29:05.000Z</Time>
            <Position>
              <LatitudeDegrees>42.70621499978005886077880859375</LatitudeDegrees>
              <LongitudeDegrees>1.3036114163696765899658203125</LongitudeDegrees>
            </Position>
            <AltitudeMeters>2253</AltitudeMeters>
            <DistanceMeters>10054.40459253</DistanceMeters>
          </Trackpoint>
          <Trackpoint>
            <Time>2018-04-30T13:29:06.000Z</Time>
            <Position>
              <LatitudeDegrees>42.70620527677237987518310546875</LatitudeDegrees>
              <LongitudeDegrees>1.30362440831959247589111328125</LongitudeDegrees>
            </Position>
            <AltitudeMeters>2252.800048828125</AltitudeMeters>
            <DistanceMeters>10055.919069144</DistanceMeters>
          </Trackpoint>
          <Trackpoint>
            <Time>2018-04-30T13:29:07.000Z</Time>
            <Position>
              <LatitudeDegrees>42.70619831979274749755859375</LatitudeDegrees>
              <LongitudeDegrees>1.30363496951758861541748046875</LongitudeDegrees>
            </Position>
            <AltitudeMeters>2252.39990234375</AltitudeMeters>
            <DistanceMeters>10057.082903955</DistanceMeters>
          </Trackpoint>
          <Trackpoint>
            <Time>2018-04-30T13:29:24.000Z</Time>
            <Position>
              <LatitudeDegrees>42.7061046101152896881103515625</LatitudeDegrees>
              <LongitudeDegrees>1.30385222844779491424560546875</LongitudeDegrees>
            </Position>
            <AltitudeMeters>2252.800048828125</AltitudeMeters>
            <DistanceMeters>10077.687491891</DistanceMeters>
          </Trackpoint>
          <Trackpoint>
            <Time>2018-04-30T13:29:29.000Z</Time>
            <Position>
              <LatitudeDegrees>42.7060637064278125762939453125</LatitudeDegrees>
              <LongitudeDegrees>1.30391408689320087432861328125</LongitudeDegrees>
            </Position>
            <AltitudeMeters>2252.39990234375</AltitudeMeters>
            <DistanceMeters>10084.493687022</DistanceMeters>
          </Trackpoint>
          <Trackpoint>
            <Time>2018-04-30T13:29:44.000Z</Time>
            <Position>
              <LatitudeDegrees>42.7059202082455158233642578125</LatitudeDegrees>
              <LongitudeDegrees>1.3040777854621410369873046875</LongitudeDegrees>
            </Position>
            <AltitudeMeters>2252.60009765625</AltitudeMeters>
            <DistanceMeters>10105.334889171</DistanceMeters>
          </Trackpoint>
          <Trackpoint>
            <Time>2018-04-30T13:30:00.000Z</Time>
            <Position>
              <LatitudeDegrees>42.70577453076839447021484375</LatitudeDegrees>
              <LongitudeDegrees>1.30426478572189807891845703125</LongitudeDegrees>
            </Position>
            <AltitudeMeters>2252.800048828125</AltitudeMeters>
            <DistanceMeters>10127.624478128</DistanceMeters>
          </Trackpoint>
          <Trackpoint>
            <Time>2018-04-30T13:30:03.000Z</Time>
            <Position>
              <LatitudeDegrees>42.70574762485921382904052734375</LatitudeDegrees>
              <LongitudeDegrees>1.30430267192423343658447265625</LongitudeDegrees>
            </Position>
            <AltitudeMeters>2252.800048828125</AltitudeMeters>
            <DistanceMeters>10131.93328738</DistanceMeters>
          </Trackpoint>
          <Trackpoint>
            <Time>2018-04-30T13:30:18.000Z</Time>
            <Position>
              <LatitudeDegrees>42.70562432706356048583984375</LatitudeDegrees>
              <LongitudeDegrees>1.30451456643640995025634765625</LongitudeDegrees>
            </Position>
            <AltitudeMeters>2253</AltitudeMeters>
            <DistanceMeters>10154.039409765</DistanceMeters>
          </Trackpoint>
          <Trackpoint>
            <Time>2018-04-30T13:30:33.000Z</Time>
            <Position>
              <LatitudeDegrees>42.70550102926790714263916015625</LatitudeDegrees>
              <LongitudeDegrees>1.304736435413360595703125</LongitudeDegrees>
            </Position>
            <AltitudeMeters>2252.800048828125</AltitudeMeters>
            <DistanceMeters>10176.790916792</DistanceMeters>
          </Trackpoint>
          <Trackpoint>
            <Time>2018-04-30T13:30:47.000Z</Time>
            <Position>
              <LatitudeDegrees>42.7053924836218357086181640625</LatitudeDegrees>
              <LongitudeDegrees>1.3049558736383914947509765625</LongitudeDegrees>
            </Position>
            <AltitudeMeters>2252.800048828125</AltitudeMeters>
            <DistanceMeters>10198.42635237</DistanceMeters>
          </Trackpoint>
          <Trackpoint>
            <Time>2018-04-30T13:31:01.000Z</Time>
            <Position>
              <LatitudeDegrees>42.70530304871499538421630859375</LatitudeDegrees>
              <LongitudeDegrees>1.3051751442253589630126953125</LongitudeDegrees>
            </Position>
            <AltitudeMeters>2252.800048828125</AltitudeMeters>
            <DistanceMeters>10218.937819689</DistanceMeters>
          </Trackpoint>
          <Trackpoint>
            <Time>2018-04-30T13:31:05.000Z</Time>
            <Position>
              <LatitudeDegrees>42.7052774839103221893310546875</LatitudeDegrees>
              <LongitudeDegrees>1.30523792468011379241943359375</LongitudeDegrees>
            </Position>
            <AltitudeMeters>2252.800048828125</AltitudeMeters>
            <DistanceMeters>10224.808748218</DistanceMeters>
          </Trackpoint>
          <Trackpoint>
            <Time>2018-04-30T13:31:06.000Z</Time>
            <Position>
              <LatitudeDegrees>42.70527237094938755035400390625</LatitudeDegrees>
              <LongitudeDegrees>1.30524882115423679351806640625</LongitudeDegrees>
            </Position>
            <AltitudeMeters>2252.800048828125</AltitudeMeters>
            <DistanceMeters>10225.866920925</DistanceMeters>
          </Trackpoint>
          <Trackpoint>
            <Time>2018-04-30T13:31:07.000Z</Time>
            <Position>
              <LatitudeDegrees>42.7052657492458820343017578125</LatitudeDegrees>
              <LongitudeDegrees>1.30526055581867694854736328125</LongitudeDegrees>
            </Position>
            <AltitudeMeters>2253</AltitudeMeters>
            <DistanceMeters>10227.07641354</DistanceMeters>
          </Trackpoint>
          <Trackpoint>
            <Time>2018-04-30T13:31:08.000Z</Time>
            <Position>
              <LatitudeDegrees>42.7052590437233448028564453125</LatitudeDegrees>
              <LongitudeDegrees>1.30527514033019542694091796875</LongitudeDegrees>
            </Position>
            <AltitudeMeters>2253</AltitudeMeters>
            <DistanceMeters>10228.48588749</DistanceMeters>
          </Trackpoint>
          <Trackpoint>
            <Time>2018-04-30T13:31:09.000Z</Time>
            <Position>
              <LatitudeDegrees>42.7052540145814418792724609375</LatitudeDegrees>
              <LongitudeDegrees>1.30528964102268218994140625</LongitudeDegrees>
            </Position>
            <AltitudeMeters>2252.800048828125</AltitudeMeters>
            <DistanceMeters>10229.799182812</DistanceMeters>
          </Trackpoint>
          <Trackpoint>
            <Time>2018-04-30T13:31:10.000Z</Time>
            <Position>
              <LatitudeDegrees>42.705248482525348663330078125</LatitudeDegrees>
              <LongitudeDegrees>1.30530112423002719879150390625</LongitudeDegrees>
            </Position>
            <AltitudeMeters>2252.800048828125</AltitudeMeters>
            <DistanceMeters>10230.923554059</DistanceMeters>
          </Trackpoint>
          <Trackpoint>
            <Time>2018-04-30T13:31:23.000Z</Time>
            <Position>
              <LatitudeDegrees>42.70518067292869091033935546875</LatitudeDegrees>
              <LongitudeDegrees>1.30551821552217006683349609375</LongitudeDegrees>
            </Position>
            <AltitudeMeters>2253</AltitudeMeters>
            <DistanceMeters>10250.217019564</DistanceMeters>
          </Trackpoint>
          <Trackpoint>
            <Time>2018-04-30T13:31:38.000Z</Time>
            <Position>
              <LatitudeDegrees>42.705088555812835693359375</LatitudeDegrees>
              <LongitudeDegrees>1.30574134178459644317626953125</LongitudeDegrees>
            </Position>
            <AltitudeMeters>2252.60009765625</AltitudeMeters>
            <DistanceMeters>10271.14965985</DistanceMeters>
          </Trackpoint>
          <Trackpoint>
            <Time>2018-04-30T13:31:47.000Z</Time>
            <Position>
              <LatitudeDegrees>42.7050290443003177642822265625</LatitudeDegrees>
              <LongitudeDegrees>1.30586891435086727142333984375</LongitudeDegrees>
            </Position>
            <AltitudeMeters>2252.800048828125</AltitudeMeters>
            <DistanceMeters>10283.508979133</DistanceMeters>
          </Trackpoint>
          <Trackpoint>
            <Time>2018-04-30T13:31:59.000Z</Time>
            <Position>
              <LatitudeDegrees>42.70497330464422702789306640625</LatitudeDegrees>
              <LongitudeDegrees>1.30606337450444698333740234375</LongitudeDegrees>
            </Position>
            <AltitudeMeters>2252.800048828125</AltitudeMeters>
            <DistanceMeters>10300.581024918</DistanceMeters>
          </Trackpoint>
          <Trackpoint>
            <Time>2018-04-30T13:32:00.000Z</Time>
            <Position>
              <LatitudeDegrees>42.704970538616180419921875</LatitudeDegrees>
              <LongitudeDegrees>1.30608097650110721588134765625</LongitudeDegrees>
            </Position>
            <AltitudeMeters>2252.60009765625</AltitudeMeters>
            <DistanceMeters>10302.056236233</DistanceMeters>
          </Trackpoint>
          <Trackpoint>
            <Time>2018-04-30T13:32:01.000Z</Time>
            <Position>
              <LatitudeDegrees>42.70496928133070468902587890625</LatitudeDegrees>
              <LongitudeDegrees>1.306099332869052886962890625</LongitudeDegrees>
            </Position>
            <AltitudeMeters>2252.60009765625</AltitudeMeters>
            <DistanceMeters>10303.558740513</DistanceMeters>
          </Trackpoint>
          <Trackpoint>
            <Time>2018-04-30T13:32:02.000Z</Time>
            <Position>
              <LatitudeDegrees>42.70496525801718235015869140625</LatitudeDegrees>
              <LongitudeDegrees>1.30611869506537914276123046875</LongitudeDegrees>
            </Position>
            <AltitudeMeters>2252.60009765625</AltitudeMeters>
            <DistanceMeters>10305.204651486</DistanceMeters>
          </Trackpoint>
          <Trackpoint>
            <Time>2018-04-30T13:32:03.000Z</Time>
            <Position>
              <LatitudeDegrees>42.7049626596271991729736328125</LatitudeDegrees>
              <LongitudeDegrees>1.3061325252056121826171875</LongitudeDegrees>
            </Position>
            <AltitudeMeters>2252.60009765625</AltitudeMeters>
            <DistanceMeters>10306.368486297</DistanceMeters>
          </Trackpoint>
          <Trackpoint>
            <Time>2018-04-30T13:32:04.000Z</Time>
            <Position>
              <LatitudeDegrees>42.704964168369770050048828125</LatitudeDegrees>
              <LongitudeDegrees>1.30614392459392547607421875</LongitudeDegrees>
            </Position>
            <AltitudeMeters>2252.60009765625</AltitudeMeters>
            <DistanceMeters>10307.318753441</DistanceMeters>
          </Trackpoint>
          <Trackpoint>
            <Time>2018-04-30T13:32:05.000Z</Time>
            <Position>
              <LatitudeDegrees>42.704960145056247711181640625</LatitudeDegrees>
              <LongitudeDegrees>1.30615993402898311614990234375</LongitudeDegrees>
            </Position>
            <AltitudeMeters>2252.60009765625</AltitudeMeters>
            <DistanceMeters>10308.702363287</DistanceMeters>
          </Trackpoint>
          <Trackpoint>
            <Time>2018-04-30T13:32:06.000Z</Time>
            <Position>
              <LatitudeDegrees>42.70495184697210788726806640625</LatitudeDegrees>
              <LongitudeDegrees>1.30617401562631130218505859375</LongitudeDegrees>
            </Position>
            <AltitudeMeters>2252.60009765625</AltitudeMeters>
            <DistanceMeters>10310.180632038</DistanceMeters>
          </Trackpoint>
          <Trackpoint>
            <Time>2018-04-30T13:32:34.000Z</Time>
            <Position>
              <LatitudeDegrees>42.70488881506025791168212890625</LatitudeDegrees>
              <LongitudeDegrees>1.30629136227071285247802734375</LongitudeDegrees>
            </Position>
            <AltitudeMeters>2255.800048828125</AltitudeMeters>
            <DistanceMeters>10322.069229789</DistanceMeters>
          </Trackpoint>
          <Trackpoint>
            <Time>2018-04-30T13:33:25.000Z</Time>
            <Position>
              <LatitudeDegrees>42.70491127856075763702392578125</LatitudeDegrees>
              <LongitudeDegrees>1.30642597563564777374267578125</LongitudeDegrees>
            </Position>
            <AltitudeMeters>2258.800048828125</AltitudeMeters>
            <DistanceMeters>10333.359427267</DistanceMeters>
          </Trackpoint>
          <Trackpoint>
            <Time>2018-04-30T13:33:55.000Z</Time>
            <Position>
              <LatitudeDegrees>42.70489686168730258941650390625</LatitudeDegrees>
              <LongitudeDegrees>1.30649537779390811920166015625</LongitudeDegrees>
            </Position>
            <AltitudeMeters>2260.800048828125</AltitudeMeters>
            <DistanceMeters>10339.257976626</DistanceMeters>
          </Trackpoint>
          <Trackpoint>
            <Time>2018-04-30T13:33:59.000Z</Time>
            <Position>
              <LatitudeDegrees>42.7049073390662670135498046875</LatitudeDegrees>
              <LongitudeDegrees>1.30650409497320652008056640625</LongitudeDegrees>
            </Position>
            <AltitudeMeters>2261</AltitudeMeters>
            <DistanceMeters>10340.621866558</DistanceMeters>
          </Trackpoint>
          <Trackpoint>
            <Time>2018-04-30T13:34:10.000Z</Time>
            <Position>
              <LatitudeDegrees>42.7049257792532444000244140625</LatitudeDegrees>
              <LongitudeDegrees>1.30652102641761302947998046875</LongitudeDegrees>
            </Position>
            <AltitudeMeters>2261.199951171875</AltitudeMeters>
            <DistanceMeters>10343.096213306</DistanceMeters>
          </Trackpoint>
          <Trackpoint>
            <Time>2018-04-30T13:34:14.000Z</Time>
            <Position>
              <LatitudeDegrees>42.70493055693805217742919921875</LatitudeDegrees>
              <LongitudeDegrees>1.3065202720463275909423828125</LongitudeDegrees>
            </Position>
            <AltitudeMeters>2260.800048828125</AltitudeMeters>
            <DistanceMeters>10343.633765579</DistanceMeters>
          </Trackpoint>
          <Trackpoint>
            <Time>2018-04-30T13:35:10.000Z</Time>
            <Position>
              <LatitudeDegrees>42.70493390969932079315185546875</LatitudeDegrees>
              <LongitudeDegrees>1.30655975081026554107666015625</LongitudeDegrees>
            </Position>
            <AltitudeMeters>2261.39990234375</AltitudeMeters>
            <DistanceMeters>10346.884179312</DistanceMeters>
          </Trackpoint>
          <Trackpoint>
            <Time>2018-04-30T13:35:12.000Z</Time>
            <Position>
              <LatitudeDegrees>42.70493256859481334686279296875</LatitudeDegrees>
              <LongitudeDegrees>1.30657031200826168060302734375</LongitudeDegrees>
            </Position>
            <AltitudeMeters>2261.60009765625</AltitudeMeters>
            <DistanceMeters>10347.76028233</DistanceMeters>
          </Trackpoint>
          <Trackpoint>
            <Time>2018-04-30T13:35:16.000Z</Time>
            <Position>
              <LatitudeDegrees>42.70496182143688201904296875</LatitudeDegrees>
              <LongitudeDegrees>1.30659311078488826751708984375</LongitudeDegrees>
            </Position>
            <AltitudeMeters>2262.60009765625</AltitudeMeters>
            <DistanceMeters>10351.512333659</DistanceMeters>
          </Trackpoint>
          <Trackpoint>
            <Time>2018-04-30T13:35:17.000Z</Time>
            <Position>
              <LatitudeDegrees>42.704965509474277496337890625</LatitudeDegrees>
              <LongitudeDegrees>1.30660031922161579132080078125</LongitudeDegrees>
            </Position>
            <AltitudeMeters>2262.800048828125</AltitudeMeters>
            <DistanceMeters>10352.22976962</DistanceMeters>
          </Trackpoint>
          <Trackpoint>
            <Time>2018-04-30T13:35:18.000Z</Time>
            <Position>
              <LatitudeDegrees>42.70497079007327556610107421875</LatitudeDegrees>
              <LongitudeDegrees>1.306610293686389923095703125</LongitudeDegrees>
            </Position>
            <AltitudeMeters>2263</AltitudeMeters>
            <DistanceMeters>10353.235437836</DistanceMeters>
          </Trackpoint>
          <Trackpoint>
            <Time>2018-04-30T13:35:19.000Z</Time>
            <Position>
              <LatitudeDegrees>42.70497296936810016632080078125</LatitudeDegrees>
              <LongitudeDegrees>1.3066201843321323394775390625</LongitudeDegrees>
            </Position>
            <AltitudeMeters>2263.199951171875</AltitudeMeters>
            <DistanceMeters>10354.074691054</DistanceMeters>
          </Trackpoint>
          <Trackpoint>
            <Time>2018-04-30T13:35:32.000Z</Time>
            <Position>
              <LatitudeDegrees>42.70498755387961864471435546875</LatitudeDegrees>
              <LongitudeDegrees>1.306722946465015411376953125</LongitudeDegrees>
            </Position>
            <AltitudeMeters>2265</AltitudeMeters>
            <DistanceMeters>10362.634483123</DistanceMeters>
          </Trackpoint>
          <Trackpoint>
            <Time>2018-04-30T13:35:45.000Z</Time>
            <Position>
              <LatitudeDegrees>42.704988978803157806396484375</LatitudeDegrees>
              <LongitudeDegrees>1.306822858750820159912109375</LongitudeDegrees>
            </Position>
            <AltitudeMeters>2265.800048828125</AltitudeMeters>
            <DistanceMeters>10370.807333021</DistanceMeters>
          </Trackpoint>
          <Trackpoint>
            <Time>2018-04-30T13:36:02.000Z</Time>
            <Position>
              <LatitudeDegrees>42.70497263409197330474853515625</LatitudeDegrees>
              <LongitudeDegrees>1.30693224258720874786376953125</LongitudeDegrees>
            </Position>
            <AltitudeMeters>2266.60009765625</AltitudeMeters>
            <DistanceMeters>10379.936824002</DistanceMeters>
          </Trackpoint>
          <Trackpoint>
            <Time>2018-04-30T13:36:03.000Z</Time>
            <Position>
              <LatitudeDegrees>42.70496559329330921173095703125</LatitudeDegrees>
              <LongitudeDegrees>1.306942887604236602783203125</LongitudeDegrees>
            </Position>
            <AltitudeMeters>2266.60009765625</AltitudeMeters>
            <DistanceMeters>10381.108392019</DistanceMeters>
          </Trackpoint>
          <Trackpoint>
            <Time>2018-04-30T13:36:19.000Z</Time>
            <Position>
              <LatitudeDegrees>42.70494363270699977874755859375</LatitudeDegrees>
              <LongitudeDegrees>1.30699695087969303131103515625</LongitudeDegrees>
            </Position>
            <AltitudeMeters>2266</AltitudeMeters>
            <DistanceMeters>10386.160025026</DistanceMeters>
          </Trackpoint>
          <Trackpoint>
            <Time>2018-04-30T13:36:33.000Z</Time>
            <Position>
              <LatitudeDegrees>42.70493944175541400909423828125</LatitudeDegrees>
              <LongitudeDegrees>1.3069908320903778076171875</LongitudeDegrees>
            </Position>
            <AltitudeMeters>2266.199951171875</AltitudeMeters>
            <DistanceMeters>10386.845272408</DistanceMeters>
          </Trackpoint>
          <Trackpoint>
            <Time>2018-04-30T13:36:38.000Z</Time>
            <Position>
              <LatitudeDegrees>42.704927958548069000244140625</LatitudeDegrees>
              <LongitudeDegrees>1.3069559633731842041015625</LongitudeDegrees>
            </Position>
            <AltitudeMeters>2266.39990234375</AltitudeMeters>
            <DistanceMeters>10389.971059143</DistanceMeters>
          </Trackpoint>
          <Trackpoint>
            <Time>2018-04-30T13:36:39.000Z</Time>
            <Position>
              <LatitudeDegrees>42.70492770709097385406494140625</LatitudeDegrees>
              <LongitudeDegrees>1.3069420494139194488525390625</LongitudeDegrees>
            </Position>
            <AltitudeMeters>2266.800048828125</AltitudeMeters>
            <DistanceMeters>10391.111379716</DistanceMeters>
          </Trackpoint>
          <Trackpoint>
            <Time>2018-04-30T13:36:50.000Z</Time>
            <Position>
              <LatitudeDegrees>42.7048657648265361785888671875</LatitudeDegrees>
              <LongitudeDegrees>1.3067977130413055419921875</LongitudeDegrees>
            </Position>
            <AltitudeMeters>2267</AltitudeMeters>
            <DistanceMeters>10404.782682588</DistanceMeters>
          </Trackpoint>
          <Trackpoint>
            <Time>2018-04-30T13:37:00.000Z</Time>
            <Position>
              <LatitudeDegrees>42.704804241657257080078125</LatitudeDegrees>
              <LongitudeDegrees>1.30673007108271121978759765625</LongitudeDegrees>
            </Position>
            <AltitudeMeters>2266</AltitudeMeters>
            <DistanceMeters>10413.585870422</DistanceMeters>
          </Trackpoint>
          <Trackpoint>
            <Time>2018-04-30T13:37:13.000Z</Time>
            <Position>
              <LatitudeDegrees>42.7047557942569255828857421875</LatitudeDegrees>
              <LongitudeDegrees>1.30672085098922252655029296875</LongitudeDegrees>
            </Position>
            <AltitudeMeters>2266</AltitudeMeters>
            <DistanceMeters>10419.030660681</DistanceMeters>
          </Trackpoint>
          <Trackpoint>
            <Time>2018-04-30T13:37:32.000Z</Time>
            <Position>
              <LatitudeDegrees>42.704733498394489288330078125</LatitudeDegrees>
              <LongitudeDegrees>1.306729651987552642822265625</LongitudeDegrees>
            </Position>
            <AltitudeMeters>2268</AltitudeMeters>
            <DistanceMeters>10421.612171172</DistanceMeters>
          </Trackpoint>
          <Trackpoint>
            <Time>2018-04-30T13:37:43.000Z</Time>
            <Position>
              <LatitudeDegrees>42.70467348396778106689453125</LatitudeDegrees>
              <LongitudeDegrees>1.30671984516084194183349609375</LongitudeDegrees>
            </Position>
            <AltitudeMeters>2268.800048828125</AltitudeMeters>
            <DistanceMeters>10428.339633037</DistanceMeters>
          </Trackpoint>
          <Trackpoint>
            <Time>2018-04-30T13:37:44.000Z</Time>
            <Position>
              <LatitudeDegrees>42.70466418005526065826416015625</LatitudeDegrees>
              <LongitudeDegrees>1.3067257963120937347412109375</LongitudeDegrees>
            </Position>
            <AltitudeMeters>2268.800048828125</AltitudeMeters>
            <DistanceMeters>10429.487845195</DistanceMeters>
          </Trackpoint>
          <Trackpoint>
            <Time>2018-04-30T13:37:45.000Z</Time>
            <Position>
              <LatitudeDegrees>42.704656384885311126708984375</LatitudeDegrees>
              <LongitudeDegrees>1.30673225037753582000732421875</LongitudeDegrees>
            </Position>
            <AltitudeMeters>2268.800048828125</AltitudeMeters>
            <DistanceMeters>10430.506893178</DistanceMeters>
          </Trackpoint>
          <Trackpoint>
            <Time>2018-04-30T13:37:52.000Z</Time>
            <Position>
              <LatitudeDegrees>42.70461045205593109130859375</LatitudeDegrees>
              <LongitudeDegrees>1.30676141940057277679443359375</LongitudeDegrees>
            </Position>
            <AltitudeMeters>2269.199951171875</AltitudeMeters>
            <DistanceMeters>10436.147991421</DistanceMeters>
          </Trackpoint>
          <Trackpoint>
            <Time>2018-04-30T13:37:58.000Z</Time>
            <Position>
              <LatitudeDegrees>42.70456275902688503265380859375</LatitudeDegrees>
              <LongitudeDegrees>1.3067574799060821533203125</LongitudeDegrees>
            </Position>
            <AltitudeMeters>2270.60009765625</AltitudeMeters>
            <DistanceMeters>10441.464394272</DistanceMeters>
          </Trackpoint>
          <Trackpoint>
            <Time>2018-04-30T13:38:04.000Z</Time>
            <Position>
              <LatitudeDegrees>42.70453610457479953765869140625</LatitudeDegrees>
              <LongitudeDegrees>1.30675706081092357635498046875</LongitudeDegrees>
            </Position>
            <AltitudeMeters>2271.199951171875</AltitudeMeters>
            <DistanceMeters>10444.430080441</DistanceMeters>
          </Trackpoint>
          <Trackpoint>
            <Time>2018-04-30T13:38:05.000Z</Time>
            <Position>
              <LatitudeDegrees>42.7045247890055179595947265625</LatitudeDegrees>
              <LongitudeDegrees>1.30675773136317729949951171875</LongitudeDegrees>
            </Position>
            <AltitudeMeters>2271.199951171875</AltitudeMeters>
            <DistanceMeters>10445.694328649</DistanceMeters>
          </Trackpoint>
          <Trackpoint>
            <Time>2018-04-30T13:38:06.000Z</Time>
            <Position>
              <LatitudeDegrees>42.70451330579817295074462890625</LatitudeDegrees>
              <LongitudeDegrees>1.30675471387803554534912109375</LongitudeDegrees>
            </Position>
            <AltitudeMeters>2271</AltitudeMeters>
            <DistanceMeters>10446.990320246</DistanceMeters>
          </Trackpoint>
          <Trackpoint>
            <Time>2018-04-30T13:38:07.000Z</Time>
            <Position>
              <LatitudeDegrees>42.704504169523715972900390625</LatitudeDegrees>
              <LongitudeDegrees>1.30674867890775203704833984375</LongitudeDegrees>
            </Position>
            <AltitudeMeters>2270.199951171875</AltitudeMeters>
            <DistanceMeters>10448.118699959</DistanceMeters>
          </Trackpoint>
          <Trackpoint>
            <Time>2018-04-30T13:38:24.000Z</Time>
            <Position>
              <LatitudeDegrees>42.7044661156833171844482421875</LatitudeDegrees>
              <LongitudeDegrees>1.3067217729985713958740234375</LongitudeDegrees>
            </Position>
            <AltitudeMeters>2268.39990234375</AltitudeMeters>
            <DistanceMeters>10452.891841783</DistanceMeters>
          </Trackpoint>
          <Trackpoint>
            <Time>2018-04-30T13:38:44.000Z</Time>
            <Position>
              <LatitudeDegrees>42.704412974417209625244140625</LatitudeDegrees>
              <LongitudeDegrees>1.30671280436217784881591796875</LongitudeDegrees>
            </Position>
            <AltitudeMeters>2268.39990234375</AltitudeMeters>
            <DistanceMeters>10458.852070028</DistanceMeters>
          </Trackpoint>
          <Trackpoint>
            <Time>2018-04-30T13:39:14.000Z</Time>
            <Position>
              <LatitudeDegrees>42.7043558098375797271728515625</LatitudeDegrees>
              <LongitudeDegrees>1.30670987069606781005859375</LongitudeDegrees>
            </Position>
            <AltitudeMeters>2268.199951171875</AltitudeMeters>
            <DistanceMeters>10465.219569006</DistanceMeters>
          </Trackpoint>
          <Trackpoint>
            <Time>2018-04-30T13:39:39.000Z</Time>
            <Position>
              <LatitudeDegrees>42.704170234501361846923828125</LatitudeDegrees>
              <LongitudeDegrees>1.3067221082746982574462890625</LongitudeDegrees>
            </Position>
            <AltitudeMeters>2269.39990234375</AltitudeMeters>
            <DistanceMeters>10485.898526185</DistanceMeters>
          </Trackpoint>
          <Trackpoint>
            <Time>2018-04-30T13:39:47.000Z</Time>
            <Position>
              <LatitudeDegrees>42.70411767996847629547119140625</LatitudeDegrees>
              <LongitudeDegrees>1.30670048296451568603515625</LongitudeDegrees>
            </Position>
            <AltitudeMeters>2268.199951171875</AltitudeMeters>
            <DistanceMeters>10492.009859605</DistanceMeters>
          </Trackpoint>
          <Trackpoint>
            <Time>2018-04-30T13:40:12.000Z</Time>
            <Position>
              <LatitudeDegrees>42.70403939299285411834716796875</LatitudeDegrees>
              <LongitudeDegrees>1.30664021708071231842041015625</LongitudeDegrees>
            </Position>
            <AltitudeMeters>2264.800048828125</AltitudeMeters>
            <DistanceMeters>10502.021094216</DistanceMeters>
          </Trackpoint>
          <Trackpoint>
            <Time>2018-04-30T13:40:14.000Z</Time>
            <Position>
              <LatitudeDegrees>42.70402698777616024017333984375</LatitudeDegrees>
              <LongitudeDegrees>1.3066302426159381866455078125</LongitudeDegrees>
            </Position>
            <AltitudeMeters>2264.199951171875</AltitudeMeters>
            <DistanceMeters>10503.622512872</DistanceMeters>
          </Trackpoint>
          <Trackpoint>
            <Time>2018-04-30T13:40:15.000Z</Time>
            <Position>
              <LatitudeDegrees>42.7040201984345912933349609375</LatitudeDegrees>
              <LongitudeDegrees>1.30662362091243267059326171875</LongitudeDegrees>
            </Position>
            <AltitudeMeters>2263.800048828125</AltitudeMeters>
            <DistanceMeters>10504.553580721</DistanceMeters>
          </Trackpoint>
          <Trackpoint>
            <Time>2018-04-30T13:40:16.000Z</Time>
            <Position>
              <LatitudeDegrees>42.70401298999786376953125</LatitudeDegrees>
              <LongitudeDegrees>1.3066168315708637237548828125</LongitudeDegrees>
            </Position>
            <AltitudeMeters>2263.60009765625</AltitudeMeters>
            <DistanceMeters>10505.531940625</DistanceMeters>
          </Trackpoint>
          <Trackpoint>
            <Time>2018-04-30T13:40:17.000Z</Time>
            <Position>
              <LatitudeDegrees>42.704005278646945953369140625</LatitudeDegrees>
              <LongitudeDegrees>1.306609623134136199951171875</LongitudeDegrees>
            </Position>
            <AltitudeMeters>2263.39990234375</AltitudeMeters>
            <DistanceMeters>10506.568559695</DistanceMeters>
          </Trackpoint>
          <Trackpoint>
            <Time>2018-04-30T13:40:18.000Z</Time>
            <Position>
              <LatitudeDegrees>42.70399915985763072967529296875</LatitudeDegrees>
              <LongitudeDegrees>1.30660031922161579132080078125</LongitudeDegrees>
            </Position>
            <AltitudeMeters>2262.800048828125</AltitudeMeters>
            <DistanceMeters>10507.587607678</DistanceMeters>
          </Trackpoint>
          <Trackpoint>
            <Time>2018-04-30T13:40:24.000Z</Time>
            <Position>
              <LatitudeDegrees>42.70398424006998538970947265625</LatitudeDegrees>
              <LongitudeDegrees>1.30654432810842990875244140625</LongitudeDegrees>
            </Position>
            <AltitudeMeters>2263.199951171875</AltitudeMeters>
            <DistanceMeters>10512.459059299</DistanceMeters>
          </Trackpoint>
          <Trackpoint>
            <Time>2018-05-01T06:54:24.000Z</Time>
            <Position>
              <LatitudeDegrees>42.704784460365772247314453125</LatitudeDegrees>
              <LongitudeDegrees>1.3031795807182788848876953125</LongitudeDegrees>
            </Position>
            <AltitudeMeters>2236.39990234375</AltitudeMeters>
            <DistanceMeters>10801.720908567</DistanceMeters>
          </Trackpoint>
          <Trackpoint>
            <Time>2018-05-01T06:54:25.000Z</Time>
            <Position>
              <LatitudeDegrees>42.7047842927277088165283203125</LatitudeDegrees>
              <LongitudeDegrees>1.30317279137670993804931640625</LongitudeDegrees>
            </Position>
            <AltitudeMeters>2255.800048828125</AltitudeMeters>
            <DistanceMeters>10802.275004767</DistanceMeters>
          </Trackpoint>
          <Trackpoint>
            <Time>2018-05-01T06:54:26.000Z</Time>
            <Position>
              <LatitudeDegrees>42.704783789813518524169921875</LatitudeDegrees>
              <LongitudeDegrees>1.3031673431396484375</LongitudeDegrees>
            </Position>
            <AltitudeMeters>2255.800048828125</AltitudeMeters>
            <DistanceMeters>10802.720719566</DistanceMeters>
          </Trackpoint>
          <Trackpoint>
            <Time>2018-05-01T06:54:29.000Z</Time>
            <Position>
              <LatitudeDegrees>42.70478479564189910888671875</LatitudeDegrees>
              <LongitudeDegrees>1.3031349889934062957763671875</LongitudeDegrees>
            </Position>
            <AltitudeMeters>2237.199951171875</AltitudeMeters>
            <DistanceMeters>10805.367857514</DistanceMeters>
          </Trackpoint>
          <Trackpoint>
            <Time>2018-05-01T06:54:30.000Z</Time>
            <Position>
              <LatitudeDegrees>42.7047863043844699859619140625</LatitudeDegrees>
              <LongitudeDegrees>1.3031229190528392791748046875</LongitudeDegrees>
            </Position>
            <AltitudeMeters>2237.199951171875</AltitudeMeters>
            <DistanceMeters>10806.364506103</DistanceMeters>
          </Trackpoint>
          <Trackpoint>
            <Time>2018-05-01T06:54:31.000Z</Time>
            <Position>
              <LatitudeDegrees>42.704789824783802032470703125</LatitudeDegrees>
              <LongitudeDegrees>1.3031123578548431396484375</LongitudeDegrees>
            </Position>
            <AltitudeMeters>2237</AltitudeMeters>
            <DistanceMeters>10807.310009973</DistanceMeters>
          </Trackpoint>
          <Trackpoint>
            <Time>2018-05-01T06:54:32.000Z</Time>
            <Position>
              <LatitudeDegrees>42.70479292608797550201416015625</LatitudeDegrees>
              <LongitudeDegrees>1.3031024672091007232666015625</LongitudeDegrees>
            </Position>
            <AltitudeMeters>2237</AltitudeMeters>
            <DistanceMeters>10808.191251469</DistanceMeters>
          </Trackpoint>
          <Trackpoint>
            <Time>2018-05-01T06:54:54.000Z</Time>
            <Position>
              <LatitudeDegrees>42.70484355278313159942626953125</LatitudeDegrees>
              <LongitudeDegrees>1.3028691150248050689697265625</LongitudeDegrees>
            </Position>
            <AltitudeMeters>2239.60009765625</AltitudeMeters>
            <DistanceMeters>10828.091578916</DistanceMeters>
          </Trackpoint>
          <Trackpoint>
            <Time>2018-05-01T06:55:14.000Z</Time>
            <Position>
              <LatitudeDegrees>42.7048798464238643646240234375</LatitudeDegrees>
              <LongitudeDegrees>1.302648000419139862060546875</LongitudeDegrees>
            </Position>
            <AltitudeMeters>2242.800048828125</AltitudeMeters>
            <DistanceMeters>10846.622031875</DistanceMeters>
          </Trackpoint>
          <Trackpoint>
            <Time>2018-05-01T06:55:38.000Z</Time>
            <Position>
              <LatitudeDegrees>42.7049505896866321563720703125</LatitudeDegrees>
              <LongitudeDegrees>1.30241657607257366180419921875</LongitudeDegrees>
            </Position>
            <AltitudeMeters>2245.800048828125</AltitudeMeters>
            <DistanceMeters>10867.122710348</DistanceMeters>
          </Trackpoint>
          <Trackpoint>
            <Time>2018-05-01T06:56:00.000Z</Time>
            <Position>
              <LatitudeDegrees>42.70502376370131969451904296875</LatitudeDegrees>
              <LongitudeDegrees>1.30217718891799449920654296875</LongitudeDegrees>
            </Position>
            <AltitudeMeters>2247.800048828125</AltitudeMeters>
            <DistanceMeters>10888.328789828</DistanceMeters>
          </Trackpoint>
          <Trackpoint>
            <Time>2018-05-01T06:56:24.000Z</Time>
            <Position>
              <LatitudeDegrees>42.70508226938545703887939453125</LatitudeDegrees>
              <LongitudeDegrees>1.30195506848394870758056640625</LongitudeDegrees>
            </Position>
            <AltitudeMeters>2250.60009765625</AltitudeMeters>
            <DistanceMeters>10907.628104922</DistanceMeters>
          </Trackpoint>
          <Trackpoint>
            <Time>2018-05-01T06:56:47.000Z</Time>
            <Position>
              <LatitudeDegrees>42.7051758952438831329345703125</LatitudeDegrees>
              <LongitudeDegrees>1.30176044069230556488037109375</LongitudeDegrees>
            </Position>
            <AltitudeMeters>2253.60009765625</AltitudeMeters>
            <DistanceMeters>10926.654342187</DistanceMeters>
          </Trackpoint>
          <Trackpoint>
            <Time>2018-05-01T06:57:10.000Z</Time>
            <Position>
              <LatitudeDegrees>42.70527605898678302764892578125</LatitudeDegrees>
              <LongitudeDegrees>1.3015796430408954620361328125</LongitudeDegrees>
            </Position>
            <AltitudeMeters>2256.60009765625</AltitudeMeters>
            <DistanceMeters>10945.173583623</DistanceMeters>
          </Trackpoint>
          <Trackpoint>
            <Time>2018-05-01T06:57:33.000Z</Time>
            <Position>
              <LatitudeDegrees>42.70539022050797939300537109375</LatitudeDegrees>
              <LongitudeDegrees>1.30137202329933643341064453125</LongitudeDegrees>
            </Position>
            <AltitudeMeters>2259.800048828125</AltitudeMeters>
            <DistanceMeters>10966.382643668</DistanceMeters>
          </Trackpoint>
          <Trackpoint>
            <Time>2018-05-01T06:57:56.000Z</Time>
            <Position>
              <LatitudeDegrees>42.70550019107758998870849609375</LatitudeDegrees>
              <LongitudeDegrees>1.301172114908695220947265625</LongitudeDegrees>
            </Position>
            <AltitudeMeters>2262.199951171875</AltitudeMeters>
            <DistanceMeters>10986.807198534</DistanceMeters>
          </Trackpoint>
          <Trackpoint>
            <Time>2018-05-01T06:58:24.000Z</Time>
            <Position>
              <LatitudeDegrees>42.70563798956573009490966796875</LatitudeDegrees>
              <LongitudeDegrees>1.30099684931337833404541015625</LongitudeDegrees>
            </Position>
            <AltitudeMeters>2265</AltitudeMeters>
            <DistanceMeters>11007.800576321</DistanceMeters>
          </Trackpoint>
          <Trackpoint>
            <Time>2018-05-01T06:58:40.000Z</Time>
            <Position>
              <LatitudeDegrees>42.70571795292198657989501953125</LatitudeDegrees>
              <LongitudeDegrees>1.300881765782833099365234375</LongitudeDegrees>
            </Position>
            <AltitudeMeters>2268.199951171875</AltitudeMeters>
            <DistanceMeters>11020.754219843</DistanceMeters>
          </Trackpoint>
          <Trackpoint>
            <Time>2018-05-01T06:59:00.000Z</Time>
            <Position>
              <LatitudeDegrees>42.70578819327056407928466796875</LatitudeDegrees>
              <LongitudeDegrees>1.30071915686130523681640625</LongitudeDegrees>
            </Position>
            <AltitudeMeters>2271.39990234375</AltitudeMeters>
            <DistanceMeters>11036.181361339</DistanceMeters>
          </Trackpoint>
          <Trackpoint>
            <Time>2018-05-01T06:59:21.000Z</Time>
            <Position>
              <LatitudeDegrees>42.70587620325386524200439453125</LatitudeDegrees>
              <LongitudeDegrees>1.30055285990238189697265625</LongitudeDegrees>
            </Position>
            <AltitudeMeters>2274.39990234375</AltitudeMeters>
            <DistanceMeters>11052.943007094</DistanceMeters>
          </Trackpoint>
          <Trackpoint>
            <Time>2018-05-01T06:59:43.000Z</Time>
            <Position>
              <LatitudeDegrees>42.7059669792652130126953125</LatitudeDegrees>
              <LongitudeDegrees>1.30036233924329280853271484375</LongitudeDegrees>
            </Position>
            <AltitudeMeters>2277.60009765625</AltitudeMeters>
            <DistanceMeters>11071.514348987</DistanceMeters>
          </Trackpoint>
          <Trackpoint>
            <Time>2018-05-01T07:00:25.000Z</Time>
            <Position>
              <LatitudeDegrees>42.7059926278889179229736328125</LatitudeDegrees>
              <LongitudeDegrees>1.30027282051742076873779296875</LongitudeDegrees>
            </Position>
            <AltitudeMeters>2278.800048828125</AltitudeMeters>
            <DistanceMeters>11079.37289165</DistanceMeters>
          </Trackpoint>
          <Trackpoint>
            <Time>2018-05-01T07:01:47.000Z</Time>
            <Position>
              <LatitudeDegrees>42.70595557987689971923828125</LatitudeDegrees>
              <LongitudeDegrees>1.30016536451876163482666015625</LongitudeDegrees>
            </Position>
            <AltitudeMeters>2279.800048828125</AltitudeMeters>
            <DistanceMeters>11089.080976315</DistanceMeters>
          </Trackpoint>
          <Trackpoint>
            <Time>2018-05-01T07:02:20.000Z</Time>
            <Position>
              <LatitudeDegrees>42.7059319429099559783935546875</LatitudeDegrees>
              <LongitudeDegrees>1.29998951219022274017333984375</LongitudeDegrees>
            </Position>
            <AltitudeMeters>2283</AltitudeMeters>
            <DistanceMeters>11103.702435196</DistanceMeters>
          </Trackpoint>
          <Trackpoint>
            <Time>2018-05-01T07:02:36.000Z</Time>
            <Position>
              <LatitudeDegrees>42.70590738393366336822509765625</LatitudeDegrees>
              <LongitudeDegrees>1.29987266846001148223876953125</LongitudeDegrees>
            </Position>
            <AltitudeMeters>2286.199951171875</AltitudeMeters>
            <DistanceMeters>11113.64215684</DistanceMeters>
          </Trackpoint>
          <Trackpoint>
            <Time>2018-05-01T07:02:51.000Z</Time>
            <Position>
              <LatitudeDegrees>42.70586363039910793304443359375</LatitudeDegrees>
              <LongitudeDegrees>1.2998160906136035919189453125</LongitudeDegrees>
            </Position>
            <AltitudeMeters>2289.199951171875</AltitudeMeters>
            <DistanceMeters>11120.360216238</DistanceMeters>
          </Trackpoint>
          <Trackpoint>
            <Time>2018-05-01T07:03:12.000Z</Time>
            <Position>
              <LatitudeDegrees>42.70579255186021327972412109375</LatitudeDegrees>
              <LongitudeDegrees>1.299891360104084014892578125</LongitudeDegrees>
            </Position>
            <AltitudeMeters>2290.60009765625</AltitudeMeters>
            <DistanceMeters>11130.384521234</DistanceMeters>
          </Trackpoint>
          <Trackpoint>
            <Time>2018-05-01T07:03:32.000Z</Time>
            <Position>
              <LatitudeDegrees>42.70568861626088619232177734375</LatitudeDegrees>
              <LongitudeDegrees>1.3000063598155975341796875</LongitudeDegrees>
            </Position>
            <AltitudeMeters>2293.800048828125</AltitudeMeters>
            <DistanceMeters>11145.293725162</DistanceMeters>
          </Trackpoint>
          <Trackpoint>
            <Time>2018-05-01T07:03:46.000Z</Time>
            <Position>
              <LatitudeDegrees>42.70562524907290935516357421875</LatitudeDegrees>
              <LongitudeDegrees>1.30007148720324039459228515625</LongitudeDegrees>
            </Position>
            <AltitudeMeters>2296.800048828125</AltitudeMeters>
            <DistanceMeters>11154.13172048</DistanceMeters>
          </Trackpoint>
          <Trackpoint>
            <Time>2018-05-01T07:04:04.000Z</Time>
            <Position>
              <LatitudeDegrees>42.70553313195705413818359375</LatitudeDegrees>
              <LongitudeDegrees>1.3001305796205997467041015625</LongitudeDegrees>
            </Position>
            <AltitudeMeters>2299.39990234375</AltitudeMeters>
            <DistanceMeters>11165.46661914</DistanceMeters>
          </Trackpoint>
          <Trackpoint>
            <Time>2018-05-01T07:04:18.000Z</Time>
            <Position>
              <LatitudeDegrees>42.705440260469913482666015625</LatitudeDegrees>
              <LongitudeDegrees>1.30017743445932865142822265625</LongitudeDegrees>
            </Position>
            <AltitudeMeters>2301.60009765625</AltitudeMeters>
            <DistanceMeters>11176.490537173</DistanceMeters>
          </Trackpoint>
          <Trackpoint>
            <Time>2018-05-01T07:04:39.000Z</Time>
            <Position>
              <LatitudeDegrees>42.705324590206146240234375</LatitudeDegrees>
              <LongitudeDegrees>1.30017600953578948974609375</LongitudeDegrees>
            </Position>
            <AltitudeMeters>2304.800048828125</AltitudeMeters>
            <DistanceMeters>11189.365867978</DistanceMeters>
          </Trackpoint>
          <Trackpoint>
            <Time>2018-05-01T07:04:58.000Z</Time>
            <Position>
              <LatitudeDegrees>42.705231718719005584716796875</LatitudeDegrees>
              <LongitudeDegrees>1.30015589296817779541015625</LongitudeDegrees>
            </Position>
            <AltitudeMeters>2307.800048828125</AltitudeMeters>
            <DistanceMeters>11199.833050861</DistanceMeters>
          </Trackpoint>
          <Trackpoint>
            <Time>2018-05-01T07:05:20.000Z</Time>
            <Position>
              <LatitudeDegrees>42.7051128633320331573486328125</LatitudeDegrees>
              <LongitudeDegrees>1.30009897984564304351806640625</LongitudeDegrees>
            </Position>
            <AltitudeMeters>2310.800048828125</AltitudeMeters>
            <DistanceMeters>11213.857139599</DistanceMeters>
          </Trackpoint>
          <Trackpoint>
            <Time>2018-05-01T07:05:44.000Z</Time>
            <Position>
              <LatitudeDegrees>42.7051443792879581451416015625</LatitudeDegrees>
              <LongitudeDegrees>1.29998649470508098602294921875</LongitudeDegrees>
            </Position>
            <AltitudeMeters>2314</AltitudeMeters>
            <DistanceMeters>11223.703301324</DistanceMeters>
          </Trackpoint>
          <Trackpoint>
            <Time>2018-05-01T07:06:00.000Z</Time>
            <Position>
              <LatitudeDegrees>42.70518402568995952606201171875</LatitudeDegrees>
              <LongitudeDegrees>1.29986160434782505035400390625</LongitudeDegrees>
            </Position>
            <AltitudeMeters>2317</AltitudeMeters>
            <DistanceMeters>11234.830763218</DistanceMeters>
          </Trackpoint>
          <Trackpoint>
            <Time>2018-05-01T07:06:18.000Z</Time>
            <Position>
              <LatitudeDegrees>42.7051889710128307342529296875</LatitudeDegrees>
              <LongitudeDegrees>1.2997362948954105377197265625</LongitudeDegrees>
            </Position>
            <AltitudeMeters>2320</AltitudeMeters>
            <DistanceMeters>11245.094528209</DistanceMeters>
          </Trackpoint>
          <Trackpoint>
            <Time>2018-05-01T07:06:36.000Z</Time>
            <Position>
              <LatitudeDegrees>42.70514932461082935333251953125</LatitudeDegrees>
              <LongitudeDegrees>1.29958785139024257659912109375</LongitudeDegrees>
            </Position>
            <AltitudeMeters>2323</AltitudeMeters>
            <DistanceMeters>11258.012570347</DistanceMeters>
          </Trackpoint>
          <Trackpoint>
            <Time>2018-05-01T07:06:38.000Z</Time>
            <Position>
              <LatitudeDegrees>42.705146558582782745361328125</LatitudeDegrees>
              <LongitudeDegrees>1.29956253804266452789306640625</LongitudeDegrees>
            </Position>
            <AltitudeMeters>2323.199951171875</AltitudeMeters>
            <DistanceMeters>11260.107473006</DistanceMeters>
          </Trackpoint>
          <Trackpoint>
            <Time>2018-05-01T07:06:59.000Z</Time>
            <Position>
              <LatitudeDegrees>42.70510934293270111083984375</LatitudeDegrees>
              <LongitudeDegrees>1.29937008954584598541259765625</LongitudeDegrees>
            </Position>
            <AltitudeMeters>2326.199951171875</AltitudeMeters>
            <DistanceMeters>11276.383693472</DistanceMeters>
          </Trackpoint>
          <Trackpoint>
            <Time>2018-05-01T07:07:20.000Z</Time>
            <Position>
              <LatitudeDegrees>42.7050907351076602935791015625</LatitudeDegrees>
              <LongitudeDegrees>1.29919297993183135986328125</LongitudeDegrees>
            </Position>
            <AltitudeMeters>2329.60009765625</AltitudeMeters>
            <DistanceMeters>11291.01688187</DistanceMeters>
          </Trackpoint>
          <Trackpoint>
            <Time>2018-05-01T07:07:35.000Z</Time>
            <Position>
              <LatitudeDegrees>42.70504136569797992706298828125</LatitudeDegrees>
              <LongitudeDegrees>1.2991802394390106201171875</LongitudeDegrees>
            </Position>
            <AltitudeMeters>2332.60009765625</AltitudeMeters>
            <DistanceMeters>11296.609750973</DistanceMeters>
          </Trackpoint>
          <Trackpoint>
            <Time>2018-05-01T07:07:52.000Z</Time>
            <Position>
              <LatitudeDegrees>42.7049505896866321563720703125</LatitudeDegrees>
              <LongitudeDegrees>1.2991884537041187286376953125</LongitudeDegrees>
            </Position>
            <AltitudeMeters>2335.60009765625</AltitudeMeters>
            <DistanceMeters>11306.735782675</DistanceMeters>
          </Trackpoint>
          <Trackpoint>
            <Time>2018-05-01T07:08:16.000Z</Time>
            <Position>
              <LatitudeDegrees>42.704936675727367401123046875</LatitudeDegrees>
              <LongitudeDegrees>1.29899877123534679412841796875</LongitudeDegrees>
            </Position>
            <AltitudeMeters>2338.60009765625</AltitudeMeters>
            <DistanceMeters>11322.327115455</DistanceMeters>
          </Trackpoint>
          <Trackpoint>
            <Time>2018-05-01T07:08:39.000Z</Time>
            <Position>
              <LatitudeDegrees>42.70490172319114208221435546875</LatitudeDegrees>
              <LongitudeDegrees>1.298810429871082305908203125</LongitudeDegrees>
            </Position>
            <AltitudeMeters>2341.60009765625</AltitudeMeters>
            <DistanceMeters>11338.215343393</DistanceMeters>
          </Trackpoint>
          <Trackpoint>
            <Time>2018-05-01T07:09:05.000Z</Time>
            <Position>
              <LatitudeDegrees>42.70486970432102680206298828125</LatitudeDegrees>
              <LongitudeDegrees>1.29856173880398273468017578125</LongitudeDegrees>
            </Position>
            <AltitudeMeters>2344.60009765625</AltitudeMeters>
            <DistanceMeters>11358.866115537</DistanceMeters>
          </Trackpoint>
          <Trackpoint>
            <Time>2018-05-01T07:09:27.000Z</Time>
            <Position>
              <LatitudeDegrees>42.70484489388763904571533203125</LatitudeDegrees>
              <LongitudeDegrees>1.29834481514990329742431640625</LongitudeDegrees>
            </Position>
            <AltitudeMeters>2347.60009765625</AltitudeMeters>
            <DistanceMeters>11376.822393255</DistanceMeters>
          </Trackpoint>
          <Trackpoint>
            <Time>2018-05-01T07:09:39.000Z</Time>
            <Position>
              <LatitudeDegrees>42.70483843982219696044921875</LatitudeDegrees>
              <LongitudeDegrees>1.2982030771672725677490234375</LongitudeDegrees>
            </Position>
            <AltitudeMeters>2349.39990234375</AltitudeMeters>
            <DistanceMeters>11388.437441343</DistanceMeters>
          </Trackpoint>
          <Trackpoint>
            <Time>2018-05-01T07:09:40.000Z</Time>
            <Position>
              <LatitudeDegrees>42.70483919419348239898681640625</LatitudeDegrees>
              <LongitudeDegrees>1.29819243215024471282958984375</LongitudeDegrees>
            </Position>
            <AltitudeMeters>2349.60009765625</AltitudeMeters>
            <DistanceMeters>11389.308375566</DistanceMeters>
          </Trackpoint>
          <Trackpoint>
            <Time>2018-05-01T07:11:03.000Z</Time>
            <Position>
              <LatitudeDegrees>42.7048329077661037445068359375</LatitudeDegrees>
              <LongitudeDegrees>1.2981900013983249664306640625</LongitudeDegrees>
            </Position>
            <AltitudeMeters>2350</AltitudeMeters>
            <DistanceMeters>11390.032077462</DistanceMeters>
          </Trackpoint>
          <Trackpoint>
            <Time>2018-05-01T07:11:41.000Z</Time>
            <Position>
              <LatitudeDegrees>42.70480466075241565704345703125</LatitudeDegrees>
              <LongitudeDegrees>1.29809855483472347259521484375</LongitudeDegrees>
            </Position>
            <AltitudeMeters>2351.199951171875</AltitudeMeters>
            <DistanceMeters>11398.145600573</DistanceMeters>
          </Trackpoint>
          <Trackpoint>
            <Time>2018-05-01T07:11:42.000Z</Time>
            <Position>
              <LatitudeDegrees>42.704800553619861602783203125</LatitudeDegrees>
              <LongitudeDegrees>1.29808682017028331756591796875</LongitudeDegrees>
            </Position>
            <AltitudeMeters>2351.39990234375</AltitudeMeters>
            <DistanceMeters>11399.208031538</DistanceMeters>
          </Trackpoint>
          <Trackpoint>
            <Time>2018-05-01T07:12:05.000Z</Time>
            <Position>
              <LatitudeDegrees>42.70475051365792751312255859375</LatitudeDegrees>
              <LongitudeDegrees>1.29783586598932743072509765625</LongitudeDegrees>
            </Position>
            <AltitudeMeters>2353.800048828125</AltitudeMeters>
            <DistanceMeters>11420.475978293</DistanceMeters>
          </Trackpoint>
          <Trackpoint>
            <Time>2018-05-01T07:12:27.000Z</Time>
            <Position>
              <LatitudeDegrees>42.70469971932470798492431640625</LatitudeDegrees>
              <LongitudeDegrees>1.29759010858833789825439453125</LongitudeDegrees>
            </Position>
            <AltitudeMeters>2355.800048828125</AltitudeMeters>
            <DistanceMeters>11441.356571698</DistanceMeters>
          </Trackpoint>
          <Trackpoint>
            <Time>2018-05-01T07:12:49.000Z</Time>
            <Position>
              <LatitudeDegrees>42.70467390306293964385986328125</LatitudeDegrees>
              <LongitudeDegrees>1.2973424233496189117431640625</LongitudeDegrees>
            </Position>
            <AltitudeMeters>2358.39990234375</AltitudeMeters>
            <DistanceMeters>11461.818010167</DistanceMeters>
          </Trackpoint>
          <Trackpoint>
            <Time>2018-05-01T07:12:55.000Z</Time>
            <Position>
              <LatitudeDegrees>42.70466811954975128173828125</LatitudeDegrees>
              <LongitudeDegrees>1.2972622923552989959716796875</LongitudeDegrees>
            </Position>
            <AltitudeMeters>2359.199951171875</AltitudeMeters>
            <DistanceMeters>11468.403711129</DistanceMeters>
          </Trackpoint>
          <Trackpoint>
            <Time>2018-05-01T07:13:16.000Z</Time>
            <Position>
              <LatitudeDegrees>42.70462654531002044677734375</LatitudeDegrees>
              <LongitudeDegrees>1.29701410420238971710205078125</LongitudeDegrees>
            </Position>
            <AltitudeMeters>2361</AltitudeMeters>
            <DistanceMeters>11489.223888593</DistanceMeters>
          </Trackpoint>
          <Trackpoint>
            <Time>2018-05-01T07:13:38.000Z</Time>
            <Position>
              <LatitudeDegrees>42.70457600243389606475830078125</LatitudeDegrees>
              <LongitudeDegrees>1.2967724539339542388916015625</LongitudeDegrees>
            </Position>
            <AltitudeMeters>2363.39990234375</AltitudeMeters>
            <DistanceMeters>11509.773841269</DistanceMeters>
          </Trackpoint>
          <Trackpoint>
            <Time>2018-05-01T07:13:56.000Z</Time>
            <Position>
              <LatitudeDegrees>42.70454817451536655426025390625</LatitudeDegrees>
              <LongitudeDegrees>1.2966267764568328857421875</LongitudeDegrees>
            </Position>
            <AltitudeMeters>2366.39990234375</AltitudeMeters>
            <DistanceMeters>11522.0848446</DistanceMeters>
          </Trackpoint>
          <Trackpoint>
            <Time>2018-05-01T07:14:17.000Z</Time>
            <Position>
              <LatitudeDegrees>42.70450458861887454986572265625</LatitudeDegrees>
              <LongitudeDegrees>1.2964800931513309478759765625</LongitudeDegrees>
            </Position>
            <AltitudeMeters>2369.39990234375</AltitudeMeters>
            <DistanceMeters>11535.025934111</DistanceMeters>
          </Trackpoint>
          <Trackpoint>
            <Time>2018-05-01T07:14:25.000Z</Time>
            <Position>
              <LatitudeDegrees>42.704484052956104278564453125</LatitudeDegrees>
              <LongitudeDegrees>1.29641018807888031005859375</LongitudeDegrees>
            </Position>
            <AltitudeMeters>2371</AltitudeMeters>
            <DistanceMeters>11541.182902595</DistanceMeters>
          </Trackpoint>
          <Trackpoint>
            <Time>2018-05-01T07:14:26.000Z</Time>
            <Position>
              <LatitudeDegrees>42.70448044873774051666259765625</LatitudeDegrees>
              <LongitudeDegrees>1.29639920778572559356689453125</LongitudeDegrees>
            </Position>
            <AltitudeMeters>2371</AltitudeMeters>
            <DistanceMeters>11542.1612625</DistanceMeters>
          </Trackpoint>
          <Trackpoint>
            <Time>2018-05-01T07:14:46.000Z</Time>
            <Position>
              <LatitudeDegrees>42.70443971268832683563232421875</LatitudeDegrees>
              <LongitudeDegrees>1.29626995883882045745849609375</LongitudeDegrees>
            </Position>
            <AltitudeMeters>2374.199951171875</AltitudeMeters>
            <DistanceMeters>11553.663813524</DistanceMeters>
          </Trackpoint>
          <Trackpoint>
            <Time>2018-05-01T07:15:11.000Z</Time>
            <Position>
              <LatitudeDegrees>42.70439185202121734619140625</LatitudeDegrees>
              <LongitudeDegrees>1.296069882810115814208984375</LongitudeDegrees>
            </Position>
            <AltitudeMeters>2377.199951171875</AltitudeMeters>
            <DistanceMeters>11570.873358759</DistanceMeters>
          </Trackpoint>
          <Trackpoint>
            <Time>2018-05-01T07:15:30.000Z</Time>
            <Position>
              <LatitudeDegrees>42.704351954162120819091796875</LatitudeDegrees>
              <LongitudeDegrees>1.2959288991987705230712890625</LongitudeDegrees>
            </Position>
            <AltitudeMeters>2380.39990234375</AltitudeMeters>
            <DistanceMeters>11583.22975518</DistanceMeters>
          </Trackpoint>
          <Trackpoint>
            <Time>2018-05-01T07:15:48.000Z</Time>
            <Position>
              <LatitudeDegrees>42.70432211458683013916015625</LatitudeDegrees>
              <LongitudeDegrees>1.29581079818308353424072265625</LongitudeDegrees>
            </Position>
            <AltitudeMeters>2383.39990234375</AltitudeMeters>
            <DistanceMeters>11593.444132461</DistanceMeters>
          </Trackpoint>
          <Trackpoint>
            <Time>2018-05-01T07:16:32.000Z</Time>
            <Position>
              <LatitudeDegrees>42.704276852309703826904296875</LatitudeDegrees>
              <LongitudeDegrees>1.2956995703279972076416015625</LongitudeDegrees>
            </Position>
            <AltitudeMeters>2386.60009765625</AltitudeMeters>
            <DistanceMeters>11603.843372601</DistanceMeters>
          </Trackpoint>
          <Trackpoint>
            <Time>2018-05-01T07:16:40.000Z</Time>
            <Position>
              <LatitudeDegrees>42.70425447262823581695556640625</LatitudeDegrees>
              <LongitudeDegrees>1.29563930444419384002685546875</LongitudeDegrees>
            </Position>
            <AltitudeMeters>2387.800048828125</AltitudeMeters>
            <DistanceMeters>11609.366378868</DistanceMeters>
          </Trackpoint>
          <Trackpoint>
            <Time>2018-05-01T07:16:55.000Z</Time>
            <Position>
              <LatitudeDegrees>42.70419009961187839508056640625</LatitudeDegrees>
              <LongitudeDegrees>1.2955795414745807647705078125</LongitudeDegrees>
            </Position>
            <AltitudeMeters>2391</AltitudeMeters>
            <DistanceMeters>11618.039356257</DistanceMeters>
          </Trackpoint>
          <Trackpoint>
            <Time>2018-05-01T07:18:24.000Z</Time>
            <Position>
              <LatitudeDegrees>42.7041402272880077362060546875</LatitudeDegrees>
              <LongitudeDegrees>1.29550360143184661865234375</LongitudeDegrees>
            </Position>
            <AltitudeMeters>2393.199951171875</AltitudeMeters>
            <DistanceMeters>11626.369248657</DistanceMeters>
          </Trackpoint>
          <Trackpoint>
            <Time>2018-05-01T07:19:51.000Z</Time>
            <Position>
              <LatitudeDegrees>42.70405481569468975067138671875</LatitudeDegrees>
              <LongitudeDegrees>1.295361109077930450439453125</LongitudeDegrees>
            </Position>
            <AltitudeMeters>2395.60009765625</AltitudeMeters>
            <DistanceMeters>11641.409308993</DistanceMeters>
          </Trackpoint>
          <Trackpoint>
            <Time>2018-05-01T07:23:05.000Z</Time>
            <Position>
              <LatitudeDegrees>42.7040212042629718780517578125</LatitudeDegrees>
              <LongitudeDegrees>1.29532565362751483917236328125</LongitudeDegrees>
            </Position>
            <AltitudeMeters>2396</AltitudeMeters>
            <DistanceMeters>11646.143509003</DistanceMeters>
          </Trackpoint>
          <Trackpoint>
            <Time>2018-05-01T07:24:22.000Z</Time>
            <Position>
              <LatitudeDegrees>42.70398474298417568206787109375</LatitudeDegrees>
              <LongitudeDegrees>1.2953126616775989532470703125</LongitudeDegrees>
            </Position>
            <AltitudeMeters>2398</AltitudeMeters>
            <DistanceMeters>11650.338698985</DistanceMeters>
          </Trackpoint>
          <Trackpoint>
            <Time>2018-05-01T07:24:45.000Z</Time>
            <Position>
              <LatitudeDegrees>42.70393411628901958465576171875</LatitudeDegrees>
              <LongitudeDegrees>1.2954226322472095489501953125</LongitudeDegrees>
            </Position>
            <AltitudeMeters>2401.199951171875</AltitudeMeters>
            <DistanceMeters>11660.952804398</DistanceMeters>
          </Trackpoint>
          <Trackpoint>
            <Time>2018-05-01T07:25:03.000Z</Time>
            <Position>
              <LatitudeDegrees>42.7038830704987049102783203125</LatitudeDegrees>
              <LongitudeDegrees>1.29555732943117618560791015625</LongitudeDegrees>
            </Position>
            <AltitudeMeters>2404.199951171875</AltitudeMeters>
            <DistanceMeters>11673.348237053</DistanceMeters>
          </Trackpoint>
          <Trackpoint>
            <Time>2018-05-01T07:25:27.000Z</Time>
            <Position>
              <LatitudeDegrees>42.70381450653076171875</LatitudeDegrees>
              <LongitudeDegrees>1.2956807948648929595947265625</LongitudeDegrees>
            </Position>
            <AltitudeMeters>2407.199951171875</AltitudeMeters>
            <DistanceMeters>11686.006066501</DistanceMeters>
          </Trackpoint>
          <Trackpoint>
            <Time>2018-05-01T07:25:48.000Z</Time>
            <Position>
              <LatitudeDegrees>42.7037523128092288970947265625</LatitudeDegrees>
              <LongitudeDegrees>1.29570183344185352325439453125</LongitudeDegrees>
            </Position>
            <AltitudeMeters>2410.39990234375</AltitudeMeters>
            <DistanceMeters>11693.140035301</DistanceMeters>
          </Trackpoint>
          <Trackpoint>
            <Time>2018-05-01T07:26:06.000Z</Time>
            <Position>
              <LatitudeDegrees>42.70376714877784252166748046875</LatitudeDegrees>
              <LongitudeDegrees>1.295688338577747344970703125</LongitudeDegrees>
            </Position>
            <AltitudeMeters>2409.800048828125</AltitudeMeters>
            <DistanceMeters>11695.126525524</DistanceMeters>
          </Trackpoint>
          <Trackpoint>
            <Time>2018-05-01T07:26:23.000Z</Time>
            <Position>
              <LatitudeDegrees>42.70370730198919773101806640625</LatitudeDegrees>
              <LongitudeDegrees>1.29579789005219936370849609375</LongitudeDegrees>
            </Position>
            <AltitudeMeters>2412.800048828125</AltitudeMeters>
            <DistanceMeters>11706.29206337</DistanceMeters>
          </Trackpoint>
          <Trackpoint>
            <Time>2018-05-01T07:26:35.000Z</Time>
            <Position>
              <LatitudeDegrees>42.703648544847965240478515625</LatitudeDegrees>
              <LongitudeDegrees>1.29588003270328044891357421875</LongitudeDegrees>
            </Position>
            <AltitudeMeters>2416</AltitudeMeters>
            <DistanceMeters>11715.66846056</DistanceMeters>
          </Trackpoint>
          <Trackpoint>
            <Time>2018-05-01T07:26:49.000Z</Time>
            <Position>
              <LatitudeDegrees>42.70363454706966876983642578125</LatitudeDegrees>
              <LongitudeDegrees>1.29590651951730251312255859375</LongitudeDegrees>
            </Position>
            <AltitudeMeters>2417</AltitudeMeters>
            <DistanceMeters>11718.335987549</DistanceMeters>
          </Trackpoint>
          <Trackpoint>
            <Time>2018-05-01T07:27:27.000Z</Time>
            <Position>
              <LatitudeDegrees>42.70355089567601680755615234375</LatitudeDegrees>
              <LongitudeDegrees>1.295824460685253143310546875</LongitudeDegrees>
            </Position>
            <AltitudeMeters>2420.199951171875</AltitudeMeters>
            <DistanceMeters>11729.813782861</DistanceMeters>
          </Trackpoint>
          <Trackpoint>
            <Time>2018-05-01T07:27:29.000Z</Time>
            <Position>
              <LatitudeDegrees>42.703539915382862091064453125</LatitudeDegrees>
              <LongitudeDegrees>1.2958095408976078033447265625</LongitudeDegrees>
            </Position>
            <AltitudeMeters>2420.60009765625</AltitudeMeters>
            <DistanceMeters>11731.540028854</DistanceMeters>
          </Trackpoint>
          <Trackpoint>
            <Time>2018-05-01T07:27:41.000Z</Time>
            <Position>
              <LatitudeDegrees>42.70347394980490207672119140625</LatitudeDegrees>
              <LongitudeDegrees>1.2957569025456905364990234375</LongitudeDegrees>
            </Position>
            <AltitudeMeters>2423.60009765625</AltitudeMeters>
            <DistanceMeters>11740.051155291</DistanceMeters>
          </Trackpoint>
          <Trackpoint>
            <Time>2018-05-01T07:28:23.000Z</Time>
            <Position>
              <LatitudeDegrees>42.70343455485999584197998046875</LatitudeDegrees>
              <LongitudeDegrees>1.29583225585520267486572265625</LongitudeDegrees>
            </Position>
            <AltitudeMeters>2426.800048828125</AltitudeMeters>
            <DistanceMeters>11747.61518625</DistanceMeters>
          </Trackpoint>
          <Trackpoint>
            <Time>2018-05-01T07:28:24.000Z</Time>
            <Position>
              <LatitudeDegrees>42.7034264244139194488525390625</LatitudeDegrees>
              <LongitudeDegrees>1.2958417274057865142822265625</LongitudeDegrees>
            </Position>
            <AltitudeMeters>2427</AltitudeMeters>
            <DistanceMeters>11748.805867569</DistanceMeters>
          </Trackpoint>
          <Trackpoint>
            <Time>2018-05-01T07:28:38.000Z</Time>
            <Position>
              <LatitudeDegrees>42.7033570222556591033935546875</LatitudeDegrees>
              <LongitudeDegrees>1.29592395387589931488037109375</LongitudeDegrees>
            </Position>
            <AltitudeMeters>2430</AltitudeMeters>
            <DistanceMeters>11759.04805474</DistanceMeters>
          </Trackpoint>
          <Trackpoint>
            <Time>2018-05-01T07:28:56.000Z</Time>
            <Position>
              <LatitudeDegrees>42.7033204771578311920166015625</LatitudeDegrees>
              <LongitudeDegrees>1.295824460685253143310546875</LongitudeDegrees>
            </Position>
            <AltitudeMeters>2433.199951171875</AltitudeMeters>
            <DistanceMeters>11768.145839123</DistanceMeters>
          </Trackpoint>
          <Trackpoint>
            <Time>2018-05-01T07:29:10.000Z</Time>
            <Position>
              <LatitudeDegrees>42.7032876200973987579345703125</LatitudeDegrees>
              <LongitudeDegrees>1.29571013152599334716796875</LongitudeDegrees>
            </Position>
            <AltitudeMeters>2436.199951171875</AltitudeMeters>
            <DistanceMeters>11778.186345755</DistanceMeters>
          </Trackpoint>
          <Trackpoint>
            <Time>2018-05-01T07:29:21.000Z</Time>
            <Position>
              <LatitudeDegrees>42.7032601274549961090087890625</LatitudeDegrees>
              <LongitudeDegrees>1.2956294976174831390380859375</LongitudeDegrees>
            </Position>
            <AltitudeMeters>2439.39990234375</AltitudeMeters>
            <DistanceMeters>11785.45697623</DistanceMeters>
          </Trackpoint>
          <Trackpoint>
            <Time>2018-05-01T07:29:24.000Z</Time>
            <Position>
              <LatitudeDegrees>42.7032561041414737701416015625</LatitudeDegrees>
              <LongitudeDegrees>1.295625306665897369384765625</LongitudeDegrees>
            </Position>
            <AltitudeMeters>2440.800048828125</AltitudeMeters>
            <DistanceMeters>11786.019161853</DistanceMeters>
          </Trackpoint>
          <Trackpoint>
            <Time>2018-05-01T07:29:36.000Z</Time>
            <Position>
              <LatitudeDegrees>42.70320170558989048004150390625</LatitudeDegrees>
              <LongitudeDegrees>1.29566185176372528076171875</LongitudeDegrees>
            </Position>
            <AltitudeMeters>2444</AltitudeMeters>
            <DistanceMeters>11792.771410069</DistanceMeters>
          </Trackpoint>
          <Trackpoint>
            <Time>2018-05-01T07:29:53.000Z</Time>
            <Position>
              <LatitudeDegrees>42.70311067812144756317138671875</LatitudeDegrees>
              <LongitudeDegrees>1.29564869217574596405029296875</LongitudeDegrees>
            </Position>
            <AltitudeMeters>2446.800048828125</AltitudeMeters>
            <DistanceMeters>11802.960117485</DistanceMeters>
          </Trackpoint>
          <Trackpoint>
            <Time>2018-05-01T07:30:45.000Z</Time>
            <Position>
              <LatitudeDegrees>42.7029709517955780029296875</LatitudeDegrees>
              <LongitudeDegrees>1.29550284706056118011474609375</LongitudeDegrees>
            </Position>
            <AltitudeMeters>2449.800048828125</AltitudeMeters>
            <DistanceMeters>11822.560284376</DistanceMeters>
          </Trackpoint>
          <Trackpoint>
            <Time>2018-05-01T07:31:04.000Z</Time>
            <Position>
              <LatitudeDegrees>42.7028235979378223419189453125</LatitudeDegrees>
              <LongitudeDegrees>1.29535784013569355010986328125</LongitudeDegrees>
            </Position>
            <AltitudeMeters>2451.800048828125</AltitudeMeters>
            <DistanceMeters>11842.800305323</DistanceMeters>
          </Trackpoint>
          <Trackpoint>
            <Time>2018-05-01T07:31:30.000Z</Time>
            <Position>
              <LatitudeDegrees>42.70263475365936756134033203125</LatitudeDegrees>
              <LongitudeDegrees>1.295321881771087646484375</LongitudeDegrees>
            </Position>
            <AltitudeMeters>2454.60009765625</AltitudeMeters>
            <DistanceMeters>11864.023836443</DistanceMeters>
          </Trackpoint>
          <Trackpoint>
            <Time>2018-05-01T07:31:48.000Z</Time>
            <Position>
              <LatitudeDegrees>42.70254137925803661346435546875</LatitudeDegrees>
              <LongitudeDegrees>1.2952241487801074981689453125</LongitudeDegrees>
            </Position>
            <AltitudeMeters>2457.60009765625</AltitudeMeters>
            <DistanceMeters>11877.135457065</DistanceMeters>
          </Trackpoint>
          <Trackpoint>
            <Time>2018-05-01T07:31:54.000Z</Time>
            <Position>
              <LatitudeDegrees>42.7025070972740650177001953125</LatitudeDegrees>
              <LongitudeDegrees>1.2951876036822795867919921875</LongitudeDegrees>
            </Position>
            <AltitudeMeters>2458.60009765625</AltitudeMeters>
            <DistanceMeters>11881.982751043</DistanceMeters>
          </Trackpoint>
          <Trackpoint>
            <Time>2018-05-01T07:32:11.000Z</Time>
            <Position>
              <LatitudeDegrees>42.70242034457623958587646484375</LatitudeDegrees>
              <LongitudeDegrees>1.295087523758411407470703125</LongitudeDegrees>
            </Position>
            <AltitudeMeters>2461.60009765625</AltitudeMeters>
            <DistanceMeters>11894.641650543</DistanceMeters>
          </Trackpoint>
          <Trackpoint>
            <Time>2018-05-01T07:32:32.000Z</Time>
            <Position>
              <LatitudeDegrees>42.7023277245461940765380859375</LatitudeDegrees>
              <LongitudeDegrees>1.2949928082525730133056640625</LongitudeDegrees>
            </Position>
            <AltitudeMeters>2464.60009765625</AltitudeMeters>
            <DistanceMeters>11907.536604116</DistanceMeters>
          </Trackpoint>
          <Trackpoint>
            <Time>2018-05-01T07:32:54.000Z</Time>
            <Position>
              <LatitudeDegrees>42.70222689025104045867919921875</LatitudeDegrees>
              <LongitudeDegrees>1.29487370140850543975830078125</LongitudeDegrees>
            </Position>
            <AltitudeMeters>2467.800048828125</AltitudeMeters>
            <DistanceMeters>11922.398186796</DistanceMeters>
          </Trackpoint>
          <Trackpoint>
            <Time>2018-05-01T07:33:13.000Z</Time>
            <Position>
              <LatitudeDegrees>42.70216503180563449859619140625</LatitudeDegrees>
              <LongitudeDegrees>1.29476842470467090606689453125</LongitudeDegrees>
            </Position>
            <AltitudeMeters>2471</AltitudeMeters>
            <DistanceMeters>11933.423333462</DistanceMeters>
          </Trackpoint>
          <Trackpoint>
            <Time>2018-05-01T07:33:29.000Z</Time>
            <Position>
              <LatitudeDegrees>42.702127061784267425537109375</LatitudeDegrees>
              <LongitudeDegrees>1.2946568615734577178955078125</LongitudeDegrees>
            </Position>
            <AltitudeMeters>2474.199951171875</AltitudeMeters>
            <DistanceMeters>11943.480015627</DistanceMeters>
          </Trackpoint>
          <Trackpoint>
            <Time>2018-05-01T07:34:00.000Z</Time>
            <Position>
              <LatitudeDegrees>42.70207442343235015869140625</LatitudeDegrees>
              <LongitudeDegrees>1.294546388089656829833984375</LongitudeDegrees>
            </Position>
            <AltitudeMeters>2477.199951171875</AltitudeMeters>
            <DistanceMeters>11954.249523594</DistanceMeters>
          </Trackpoint>
          <Trackpoint>
            <Time>2018-05-01T07:34:16.000Z</Time>
            <Position>
              <LatitudeDegrees>42.7020222879946231842041015625</LatitudeDegrees>
              <LongitudeDegrees>1.29441638477146625518798828125</LongitudeDegrees>
            </Position>
            <AltitudeMeters>2480.39990234375</AltitudeMeters>
            <DistanceMeters>11966.363845794</DistanceMeters>
          </Trackpoint>
          <Trackpoint>
            <Time>2018-05-01T07:34:31.000Z</Time>
            <Position>
              <LatitudeDegrees>42.70197593607008457183837890625</LatitudeDegrees>
              <LongitudeDegrees>1.294298954308032989501953125</LongitudeDegrees>
            </Position>
            <AltitudeMeters>2483.60009765625</AltitudeMeters>
            <DistanceMeters>11977.26668608</DistanceMeters>
          </Trackpoint>
          <Trackpoint>
            <Time>2018-05-01T07:34:45.000Z</Time>
            <Position>
              <LatitudeDegrees>42.70193922333419322967529296875</LatitudeDegrees>
              <LongitudeDegrees>1.29421236924827098846435546875</LongitudeDegrees>
            </Position>
            <AltitudeMeters>2486.800048828125</AltitudeMeters>
            <DistanceMeters>11985.443402169</DistanceMeters>
          </Trackpoint>
          <Trackpoint>
            <Time>2018-05-01T07:34:59.000Z</Time>
            <Position>
              <LatitudeDegrees>42.7018833160400390625</LatitudeDegrees>
              <LongitudeDegrees>1.29414162598550319671630859375</LongitudeDegrees>
            </Position>
            <AltitudeMeters>2490</AltitudeMeters>
            <DistanceMeters>11993.940724761</DistanceMeters>
          </Trackpoint>
          <Trackpoint>
            <Time>2018-05-01T07:35:14.000Z</Time>
            <Position>
              <LatitudeDegrees>42.70181466825306415557861328125</LatitudeDegrees>
              <LongitudeDegrees>1.2940711341798305511474609375</LongitudeDegrees>
            </Position>
            <AltitudeMeters>2493</AltitudeMeters>
            <DistanceMeters>12003.512986024</DistanceMeters>
          </Trackpoint>
          <Trackpoint>
            <Time>2018-05-01T07:35:19.000Z</Time>
            <Position>
              <LatitudeDegrees>42.70178181119263172149658203125</LatitudeDegrees>
              <LongitudeDegrees>1.2940550409257411956787109375</LongitudeDegrees>
            </Position>
            <AltitudeMeters>2493.800048828125</AltitudeMeters>
            <DistanceMeters>12007.400960814</DistanceMeters>
          </Trackpoint>
          <Trackpoint>
            <Time>2018-05-01T07:35:39.000Z</Time>
            <Position>
              <LatitudeDegrees>42.70167150534689426422119140625</LatitudeDegrees>
              <LongitudeDegrees>1.29401707090437412261962890625</LongitudeDegrees>
            </Position>
            <AltitudeMeters>2497</AltitudeMeters>
            <DistanceMeters>12020.064852698</DistanceMeters>
          </Trackpoint>
          <Trackpoint>
            <Time>2018-05-01T07:38:13.000Z</Time>
            <Position>
              <LatitudeDegrees>42.70167418755590915679931640625</LatitudeDegrees>
              <LongitudeDegrees>1.29403953440487384796142578125</LongitudeDegrees>
            </Position>
            <AltitudeMeters>2497.39990234375</AltitudeMeters>
            <DistanceMeters>12021.924562158</DistanceMeters>
          </Trackpoint>
          <Trackpoint>
            <Time>2018-05-01T07:39:19.000Z</Time>
            <Position>
              <LatitudeDegrees>42.701536975800991058349609375</LatitudeDegrees>
              <LongitudeDegrees>1.29399511031806468963623046875</LongitudeDegrees>
            </Position>
            <AltitudeMeters>2500.199951171875</AltitudeMeters>
            <DistanceMeters>12037.622676254</DistanceMeters>
          </Trackpoint>
          <Trackpoint>
            <Time>2018-05-01T07:39:20.000Z</Time>
            <Position>
              <LatitudeDegrees>42.701526582241058349609375</LatitudeDegrees>
              <LongitudeDegrees>1.29399494268000125885009765625</LongitudeDegrees>
            </Position>
            <AltitudeMeters>2500.39990234375</AltitudeMeters>
            <DistanceMeters>12038.774813935</DistanceMeters>
          </Trackpoint>
          <Trackpoint>
            <Time>2018-05-01T07:39:40.000Z</Time>
            <Position>
              <LatitudeDegrees>42.70138450898230075836181640625</LatitudeDegrees>
              <LongitudeDegrees>1.29398547112941741943359375</LongitudeDegrees>
            </Position>
            <AltitudeMeters>2503.39990234375</AltitudeMeters>
            <DistanceMeters>12054.606390034</DistanceMeters>
          </Trackpoint>
          <Trackpoint>
            <Time>2018-05-01T07:40:07.000Z</Time>
            <Position>
              <LatitudeDegrees>42.7012328803539276123046875</LatitudeDegrees>
              <LongitudeDegrees>1.2939065136015415191650390625</LongitudeDegrees>
            </Position>
            <AltitudeMeters>2506.60009765625</AltitudeMeters>
            <DistanceMeters>12072.676463753</DistanceMeters>
          </Trackpoint>
          <Trackpoint>
            <Time>2018-05-01T07:40:26.000Z</Time>
            <Position>
              <LatitudeDegrees>42.70112500526010990142822265625</LatitudeDegrees>
              <LongitudeDegrees>1.29387960769236087799072265625</LongitudeDegrees>
            </Position>
            <AltitudeMeters>2509.60009765625</AltitudeMeters>
            <DistanceMeters>12084.882866226</DistanceMeters>
          </Trackpoint>
          <Trackpoint>
            <Time>2018-05-01T07:40:42.000Z</Time>
            <Position>
              <LatitudeDegrees>42.7010489813983440399169921875</LatitudeDegrees>
              <LongitudeDegrees>1.2938642688095569610595703125</LongitudeDegrees>
            </Position>
            <AltitudeMeters>2512.800048828125</AltitudeMeters>
            <DistanceMeters>12093.436326307</DistanceMeters>
          </Trackpoint>
          <Trackpoint>
            <Time>2018-05-01T07:40:59.000Z</Time>
            <Position>
              <LatitudeDegrees>42.70096801221370697021484375</LatitudeDegrees>
              <LongitudeDegrees>1.29383862018585205078125</LongitudeDegrees>
            </Position>
            <AltitudeMeters>2516</AltitudeMeters>
            <DistanceMeters>12102.688630057</DistanceMeters>
          </Trackpoint>
          <Trackpoint>
            <Time>2018-05-01T07:41:22.000Z</Time>
            <Position>
              <LatitudeDegrees>42.70083532668650150299072265625</LatitudeDegrees>
              <LongitudeDegrees>1.29378371872007846832275390625</LongitudeDegrees>
            </Position>
            <AltitudeMeters>2519</AltitudeMeters>
            <DistanceMeters>12118.124256606</DistanceMeters>
          </Trackpoint>
          <Trackpoint>
            <Time>2018-05-01T07:41:41.000Z</Time>
            <Position>
              <LatitudeDegrees>42.70073273219168186187744140625</LatitudeDegrees>
              <LongitudeDegrees>1.2937368638813495635986328125</LongitudeDegrees>
            </Position>
            <AltitudeMeters>2522.199951171875</AltitudeMeters>
            <DistanceMeters>12130.169056652</DistanceMeters>
          </Trackpoint>
          <Trackpoint>
            <Time>2018-05-01T07:42:06.000Z</Time>
            <Position>
              <LatitudeDegrees>42.70060298033058643341064453125</LatitudeDegrees>
              <LongitudeDegrees>1.293662600219249725341796875</LongitudeDegrees>
            </Position>
            <AltitudeMeters>2525.199951171875</AltitudeMeters>
            <DistanceMeters>12145.835789172</DistanceMeters>
          </Trackpoint>
          <Trackpoint>
            <Time>2018-05-01T07:42:25.000Z</Time>
            <Position>
              <LatitudeDegrees>42.70050105638802051544189453125</LatitudeDegrees>
              <LongitudeDegrees>1.2936349399387836456298828125</LongitudeDegrees>
            </Position>
            <AltitudeMeters>2528.199951171875</AltitudeMeters>
            <DistanceMeters>12157.403315819</DistanceMeters>
          </Trackpoint>
          <Trackpoint>
            <Time>2018-05-01T07:42:47.000Z</Time>
            <Position>
              <LatitudeDegrees>42.70038463175296783447265625</LatitudeDegrees>
              <LongitudeDegrees>1.29363418556749820709228515625</LongitudeDegrees>
            </Position>
            <AltitudeMeters>2531.199951171875</AltitudeMeters>
            <DistanceMeters>12170.361838171</DistanceMeters>
          </Trackpoint>
          <Trackpoint>
            <Time>2018-05-01T07:43:10.000Z</Time>
            <Position>
              <LatitudeDegrees>42.70024574361741542816162109375</LatitudeDegrees>
              <LongitudeDegrees>1.2935960479080677032470703125</LongitudeDegrees>
            </Position>
            <AltitudeMeters>2534.199951171875</AltitudeMeters>
            <DistanceMeters>12186.131692491</DistanceMeters>
          </Trackpoint>
          <Trackpoint>
            <Time>2018-05-01T07:43:38.000Z</Time>
            <Position>
              <LatitudeDegrees>42.70006637088954448699951171875</LatitudeDegrees>
              <LongitudeDegrees>1.29357735626399517059326171875</LongitudeDegrees>
            </Position>
            <AltitudeMeters>2537.39990234375</AltitudeMeters>
            <DistanceMeters>12206.154612707</DistanceMeters>
          </Trackpoint>
          <Trackpoint>
            <Time>2018-05-01T07:44:01.000Z</Time>
            <Position>
              <LatitudeDegrees>42.6999402232468128204345703125</LatitudeDegrees>
              <LongitudeDegrees>1.293575428426265716552734375</LongitudeDegrees>
            </Position>
            <AltitudeMeters>2540.39990234375</AltitudeMeters>
            <DistanceMeters>12220.196075917</DistanceMeters>
          </Trackpoint>
          <Trackpoint>
            <Time>2018-05-01T07:44:20.000Z</Time>
            <Position>
              <LatitudeDegrees>42.69983871839940547943115234375</LatitudeDegrees>
              <LongitudeDegrees>1.2935744225978851318359375</LongitudeDegrees>
            </Position>
            <AltitudeMeters>2543.60009765625</AltitudeMeters>
            <DistanceMeters>12231.493869088</DistanceMeters>
          </Trackpoint>
          <Trackpoint>
            <Time>2018-05-01T07:44:40.000Z</Time>
            <Position>
              <LatitudeDegrees>42.699729502201080322265625</LatitudeDegrees>
              <LongitudeDegrees>1.29359881393611431121826171875</LongitudeDegrees>
            </Position>
            <AltitudeMeters>2546.60009765625</AltitudeMeters>
            <DistanceMeters>12243.8122052</DistanceMeters>
          </Trackpoint>
          <Trackpoint>
            <Time>2018-05-01T07:45:00.000Z</Time>
            <Position>
              <LatitudeDegrees>42.69962011836469173431396484375</LatitudeDegrees>
              <LongitudeDegrees>1.29363535903394222259521484375</LongitudeDegrees>
            </Position>
            <AltitudeMeters>2549.800048828125</AltitudeMeters>
            <DistanceMeters>12256.347810102</DistanceMeters>
          </Trackpoint>
          <Trackpoint>
            <Time>2018-05-01T07:45:20.000Z</Time>
            <Position>
              <LatitudeDegrees>42.69953361712396144866943359375</LatitudeDegrees>
              <LongitudeDegrees>1.2936657853424549102783203125</LongitudeDegrees>
            </Position>
            <AltitudeMeters>2552.800048828125</AltitudeMeters>
            <DistanceMeters>12266.291619084</DistanceMeters>
          </Trackpoint>
          <Trackpoint>
            <Time>2018-05-01T07:45:40.000Z</Time>
            <Position>
              <LatitudeDegrees>42.69942834042012691497802734375</LatitudeDegrees>
              <LongitudeDegrees>1.29371247254312038421630859375</LongitudeDegrees>
            </Position>
            <AltitudeMeters>2555.800048828125</AltitudeMeters>
            <DistanceMeters>12278.615818278</DistanceMeters>
          </Trackpoint>
          <Trackpoint>
            <Time>2018-05-01T07:45:52.000Z</Time>
            <Position>
              <LatitudeDegrees>42.699366398155689239501953125</LatitudeDegrees>
              <LongitudeDegrees>1.29371532239019870758056640625</LongitudeDegrees>
            </Position>
            <AltitudeMeters>2559</AltitudeMeters>
            <DistanceMeters>12285.514260339</DistanceMeters>
          </Trackpoint>
          <Trackpoint>
            <Time>2018-05-01T07:46:10.000Z</Time>
            <Position>
              <LatitudeDegrees>42.69926958717405796051025390625</LatitudeDegrees>
              <LongitudeDegrees>1.29373158328235149383544921875</LongitudeDegrees>
            </Position>
            <AltitudeMeters>2562</AltitudeMeters>
            <DistanceMeters>12296.371452328</DistanceMeters>
          </Trackpoint>
          <Trackpoint>
            <Time>2018-05-01T07:46:34.000Z</Time>
            <Position>
              <LatitudeDegrees>42.69916498102247714996337890625</LatitudeDegrees>
              <LongitudeDegrees>1.29370526410639286041259765625</LongitudeDegrees>
            </Position>
            <AltitudeMeters>2565</AltitudeMeters>
            <DistanceMeters>12308.211338591</DistanceMeters>
          </Trackpoint>
          <Trackpoint>
            <Time>2018-05-01T07:46:52.000Z</Time>
            <Position>
              <LatitudeDegrees>42.69908669404685497283935546875</LatitudeDegrees>
              <LongitudeDegrees>1.29370526410639286041259765625</LongitudeDegrees>
            </Position>
            <AltitudeMeters>2568.199951171875</AltitudeMeters>
            <DistanceMeters>12316.924827143</DistanceMeters>
          </Trackpoint>
          <Trackpoint>
            <Time>2018-05-01T07:47:12.000Z</Time>
            <Position>
              <LatitudeDegrees>42.69898745231330394744873046875</LatitudeDegrees>
              <LongitudeDegrees>1.2936822138726711273193359375</LongitudeDegrees>
            </Position>
            <AltitudeMeters>2571.199951171875</AltitudeMeters>
            <DistanceMeters>12328.130729294</DistanceMeters>
          </Trackpoint>
          <Trackpoint>
            <Time>2018-05-01T07:47:30.000Z</Time>
            <Position>
              <LatitudeDegrees>42.69889458082616329193115234375</LatitudeDegrees>
              <LongitudeDegrees>1.29366620443761348724365234375</LongitudeDegrees>
            </Position>
            <AltitudeMeters>2574.60009765625</AltitudeMeters>
            <DistanceMeters>12338.549922114</DistanceMeters>
          </Trackpoint>
          <Trackpoint>
            <Time>2018-05-01T07:47:44.000Z</Time>
            <Position>
              <LatitudeDegrees>42.698828279972076416015625</LatitudeDegrees>
              <LongitudeDegrees>1.29366352222859859466552734375</LongitudeDegrees>
            </Position>
            <AltitudeMeters>2577.800048828125</AltitudeMeters>
            <DistanceMeters>12345.932708947</DistanceMeters>
          </Trackpoint>
          <Trackpoint>
            <Time>2018-05-01T07:47:59.000Z</Time>
            <Position>
              <LatitudeDegrees>42.69875518977642059326171875</LatitudeDegrees>
              <LongitudeDegrees>1.29366251640021800994873046875</LongitudeDegrees>
            </Position>
            <AltitudeMeters>2580.800048828125</AltitudeMeters>
            <DistanceMeters>12354.06846093</DistanceMeters>
          </Trackpoint>
          <Trackpoint>
            <Time>2018-05-01T07:48:15.000Z</Time>
            <Position>
              <LatitudeDegrees>42.698669694364070892333984375</LatitudeDegrees>
              <LongitudeDegrees>1.2936889193952083587646484375</LongitudeDegrees>
            </Position>
            <AltitudeMeters>2583.800048828125</AltitudeMeters>
            <DistanceMeters>12363.826182284</DistanceMeters>
          </Trackpoint>
          <Trackpoint>
            <Time>2018-05-01T07:48:42.000Z</Time>
            <Position>
              <LatitudeDegrees>42.69848085008561611175537109375</LatitudeDegrees>
              <LongitudeDegrees>1.29365212284028530120849609375</LongitudeDegrees>
            </Position>
            <AltitudeMeters>2586.60009765625</AltitudeMeters>
            <DistanceMeters>12385.059284427</DistanceMeters>
          </Trackpoint>
          <Trackpoint>
            <Time>2018-05-01T07:48:47.000Z</Time>
            <Position>
              <LatitudeDegrees>42.69843726418912410736083984375</LatitudeDegrees>
              <LongitudeDegrees>1.29363854415714740753173828125</LongitudeDegrees>
            </Position>
            <AltitudeMeters>2586.60009765625</AltitudeMeters>
            <DistanceMeters>12390.037088136</DistanceMeters>
          </Trackpoint>
          <Trackpoint>
            <Time>2018-05-01T07:48:54.000Z</Time>
            <Position>
              <LatitudeDegrees>42.6983741484582424163818359375</LatitudeDegrees>
              <LongitudeDegrees>1.2936128117144107818603515625</LongitudeDegrees>
            </Position>
            <AltitudeMeters>2587</AltitudeMeters>
            <DistanceMeters>12397.370171063</DistanceMeters>
          </Trackpoint>
          <Trackpoint>
            <Time>2018-05-01T07:48:55.000Z</Time>
            <Position>
              <LatitudeDegrees>42.69836517982184886932373046875</LatitudeDegrees>
              <LongitudeDegrees>1.29360803402960300445556640625</LongitudeDegrees>
            </Position>
            <AltitudeMeters>2587.199951171875</AltitudeMeters>
            <DistanceMeters>12398.445275609</DistanceMeters>
          </Trackpoint>
          <Trackpoint>
            <Time>2018-05-01T07:49:16.000Z</Time>
            <Position>
              <LatitudeDegrees>42.69820910878479480743408203125</LatitudeDegrees>
              <LongitudeDegrees>1.2934699840843677520751953125</LongitudeDegrees>
            </Position>
            <AltitudeMeters>2588.199951171875</AltitudeMeters>
            <DistanceMeters>12419.164150434</DistanceMeters>
          </Trackpoint>
          <Trackpoint>
            <Time>2018-05-01T07:49:34.000Z</Time>
            <Position>
              <LatitudeDegrees>42.69810852594673633575439453125</LatitudeDegrees>
              <LongitudeDegrees>1.293267644941806793212890625</LongitudeDegrees>
            </Position>
            <AltitudeMeters>2585.60009765625</AltitudeMeters>
            <DistanceMeters>12439.145988689</DistanceMeters>
          </Trackpoint>
          <Trackpoint>
            <Time>2018-05-01T07:49:48.000Z</Time>
            <Position>
              <LatitudeDegrees>42.6980169117450714111328125</LatitudeDegrees>
              <LongitudeDegrees>1.2930428422987461090087890625</LongitudeDegrees>
            </Position>
            <AltitudeMeters>2585.39990234375</AltitudeMeters>
            <DistanceMeters>12460.172675845</DistanceMeters>
          </Trackpoint>
          <Trackpoint>
            <Time>2018-05-01T07:50:02.000Z</Time>
            <Position>
              <LatitudeDegrees>42.69792026840150356292724609375</LatitudeDegrees>
              <LongitudeDegrees>1.29283019341528415679931640625</LongitudeDegrees>
            </Position>
            <AltitudeMeters>2582.800048828125</AltitudeMeters>
            <DistanceMeters>12480.62484446</DistanceMeters>
          </Trackpoint>
          <Trackpoint>
            <Time>2018-05-01T07:50:17.000Z</Time>
            <Position>
              <LatitudeDegrees>42.69781867973506450653076171875</LatitudeDegrees>
              <LongitudeDegrees>1.2926482222974300384521484375</LongitudeDegrees>
            </Position>
            <AltitudeMeters>2582.199951171875</AltitudeMeters>
            <DistanceMeters>12499.31759193</DistanceMeters>
          </Trackpoint>
          <Trackpoint>
            <Time>2018-05-01T07:50:18.000Z</Time>
            <Position>
              <LatitudeDegrees>42.6978102140128612518310546875</LatitudeDegrees>
              <LongitudeDegrees>1.2926421873271465301513671875</LongitudeDegrees>
            </Position>
            <AltitudeMeters>2582</AltitudeMeters>
            <DistanceMeters>12500.380022895</DistanceMeters>
          </Trackpoint>
          <Trackpoint>
            <Time>2018-05-01T07:51:44.000Z</Time>
            <Position>
              <LatitudeDegrees>42.697773836553096771240234375</LatitudeDegrees>
              <LongitudeDegrees>1.292595081031322479248046875</LongitudeDegrees>
            </Position>
            <AltitudeMeters>2582</AltitudeMeters>
            <DistanceMeters>12505.969661926</DistanceMeters>
          </Trackpoint>
          <Trackpoint>
            <Time>2018-05-01T07:52:17.000Z</Time>
            <Position>
              <LatitudeDegrees>42.69767367281019687652587890625</LatitudeDegrees>
              <LongitudeDegrees>1.29240472801029682159423828125</LongitudeDegrees>
            </Position>
            <AltitudeMeters>2583.60009765625</AltitudeMeters>
            <DistanceMeters>12525.120315301</DistanceMeters>
          </Trackpoint>
          <Trackpoint>
            <Time>2018-05-01T07:52:42.000Z</Time>
            <Position>
              <LatitudeDegrees>42.69756160676479339599609375</LatitudeDegrees>
              <LongitudeDegrees>1.29219233058393001556396484375</LongitudeDegrees>
            </Position>
            <AltitudeMeters>2583.199951171875</AltitudeMeters>
            <DistanceMeters>12546.508293525</DistanceMeters>
          </Trackpoint>
          <Trackpoint>
            <Time>2018-05-01T07:52:53.000Z</Time>
            <Position>
              <LatitudeDegrees>42.697543837130069732666015625</LatitudeDegrees>
              <LongitudeDegrees>1.29213809967041015625</LongitudeDegrees>
            </Position>
            <AltitudeMeters>2583.39990234375</AltitudeMeters>
            <DistanceMeters>12551.364893125</DistanceMeters>
          </Trackpoint>
          <Trackpoint>
            <Time>2018-05-01T07:52:54.000Z</Time>
            <Position>
              <LatitudeDegrees>42.6975393109023571014404296875</LatitudeDegrees>
              <LongitudeDegrees>1.29212276078760623931884765625</LongitudeDegrees>
            </Position>
            <AltitudeMeters>2583.199951171875</AltitudeMeters>
            <DistanceMeters>12552.722146084</DistanceMeters>
          </Trackpoint>
          <Trackpoint>
            <Time>2018-05-01T07:52:55.000Z</Time>
            <Position>
              <LatitudeDegrees>42.69753671251237392425537109375</LatitudeDegrees>
              <LongitudeDegrees>1.2921094335615634918212890625</LongitudeDegrees>
            </Position>
            <AltitudeMeters>2583</AltitudeMeters>
            <DistanceMeters>12553.850525798</DistanceMeters>
          </Trackpoint>
          <Trackpoint>
            <Time>2018-05-01T07:52:56.000Z</Time>
            <Position>
              <LatitudeDegrees>42.69753403030335903167724609375</LatitudeDegrees>
              <LongitudeDegrees>1.292095519602298736572265625</LongitudeDegrees>
            </Position>
            <AltitudeMeters>2583.199951171875</AltitudeMeters>
            <DistanceMeters>12555.029776311</DistanceMeters>
          </Trackpoint>
          <Trackpoint>
            <Time>2018-05-01T07:52:57.000Z</Time>
            <Position>
              <LatitudeDegrees>42.69753168337047100067138671875</LatitudeDegrees>
              <LongitudeDegrees>1.29208202473819255828857421875</LongitudeDegrees>
            </Position>
            <AltitudeMeters>2583.39990234375</AltitudeMeters>
            <DistanceMeters>12556.162150301</DistanceMeters>
          </Trackpoint>
          <Trackpoint>
            <Time>2018-05-01T07:52:58.000Z</Time>
            <Position>
              <LatitudeDegrees>42.69752950407564640045166015625</LatitudeDegrees>
              <LongitudeDegrees>1.29206928424537181854248046875</LongitudeDegrees>
            </Position>
            <AltitudeMeters>2583.800048828125</AltitudeMeters>
            <DistanceMeters>12557.233046986</DistanceMeters>
          </Trackpoint>
          <Trackpoint>
            <Time>2018-05-01T07:53:02.000Z</Time>
            <Position>
              <LatitudeDegrees>42.69751424901187419891357421875</LatitudeDegrees>
              <LongitudeDegrees>1.29201765172183513641357421875</LongitudeDegrees>
            </Position>
            <AltitudeMeters>2584</AltitudeMeters>
            <DistanceMeters>12561.785411804</DistanceMeters>
          </Trackpoint>
          <Trackpoint>
            <Time>2018-05-01T07:53:03.000Z</Time>
            <Position>
              <LatitudeDegrees>42.69750930368900299072265625</LatitudeDegrees>
              <LongitudeDegrees>1.29200558178126811981201171875</LongitudeDegrees>
            </Position>
            <AltitudeMeters>2584</AltitudeMeters>
            <DistanceMeters>12562.917785795</DistanceMeters>
          </Trackpoint>
          <Trackpoint>
            <Time>2018-05-01T07:53:20.000Z</Time>
            <Position>
              <LatitudeDegrees>42.69743864424526691436767578125</LatitudeDegrees>
              <LongitudeDegrees>1.291785053908824920654296875</LongitudeDegrees>
            </Position>
            <AltitudeMeters>2584.800048828125</AltitudeMeters>
            <DistanceMeters>12582.596806562</DistanceMeters>
          </Trackpoint>
          <Trackpoint>
            <Time>2018-05-01T07:53:33.000Z</Time>
            <Position>
              <LatitudeDegrees>42.69740059040486812591552734375</LatitudeDegrees>
              <LongitudeDegrees>1.29169276915490627288818359375</LongitudeDegrees>
            </Position>
            <AltitudeMeters>2587.800048828125</AltitudeMeters>
            <DistanceMeters>12591.252587536</DistanceMeters>
          </Trackpoint>
          <Trackpoint>
            <Time>2018-05-01T07:54:03.000Z</Time>
            <Position>
              <LatitudeDegrees>42.69731123931705951690673828125</LatitudeDegrees>
              <LongitudeDegrees>1.2914677150547504425048828125</LongitudeDegrees>
            </Position>
            <AltitudeMeters>2590</AltitudeMeters>
            <DistanceMeters>12612.176814078</DistanceMeters>
          </Trackpoint>
          <Trackpoint>
            <Time>2018-05-01T07:54:10.000Z</Time>
            <Position>
              <LatitudeDegrees>42.69728776998817920684814453125</LatitudeDegrees>
              <LongitudeDegrees>1.29141247831284999847412109375</LongitudeDegrees>
            </Position>
            <AltitudeMeters>2591.199951171875</AltitudeMeters>
            <DistanceMeters>12617.396367759</DistanceMeters>
          </Trackpoint>
          <Trackpoint>
            <Time>2018-05-01T07:54:25.000Z</Time>
            <Position>
              <LatitudeDegrees>42.69726379774510860443115234375</LatitudeDegrees>
              <LongitudeDegrees>1.29126562736928462982177734375</LongitudeDegrees>
            </Position>
            <AltitudeMeters>2594.199951171875</AltitudeMeters>
            <DistanceMeters>12629.701501721</DistanceMeters>
          </Trackpoint>
          <Trackpoint>
            <Time>2018-05-01T07:54:50.000Z</Time>
            <Position>
              <LatitudeDegrees>42.697232030332088470458984375</LatitudeDegrees>
              <LongitudeDegrees>1.29101215861737728118896484375</LongitudeDegrees>
            </Position>
            <AltitudeMeters>2595.199951171875</AltitudeMeters>
            <DistanceMeters>12650.734844421</DistanceMeters>
          </Trackpoint>
          <Trackpoint>
            <Time>2018-05-01T07:54:57.000Z</Time>
            <Position>
              <LatitudeDegrees>42.6972157694399356842041015625</LatitudeDegrees>
              <LongitudeDegrees>1.290940828621387481689453125</LongitudeDegrees>
            </Position>
            <AltitudeMeters>2596</AltitudeMeters>
            <DistanceMeters>12656.843961046</DistanceMeters>
          </Trackpoint>
          <Trackpoint>
            <Time>2018-05-01T07:55:20.000Z</Time>
            <Position>
              <LatitudeDegrees>42.69719540141522884368896484375</LatitudeDegrees>
              <LongitudeDegrees>1.29073957912623882293701171875</LongitudeDegrees>
            </Position>
            <AltitudeMeters>2599.199951171875</AltitudeMeters>
            <DistanceMeters>12673.461957249</DistanceMeters>
          </Trackpoint>
          <Trackpoint>
            <Time>2018-05-01T07:55:21.000Z</Time>
            <Position>
              <LatitudeDegrees>42.69719540141522884368896484375</LatitudeDegrees>
              <LongitudeDegrees>1.2907264195382595062255859375</LongitudeDegrees>
            </Position>
            <AltitudeMeters>2599.39990234375</AltitudeMeters>
            <DistanceMeters>12674.537061795</DistanceMeters>
          </Trackpoint>
          <Trackpoint>
            <Time>2018-05-01T07:55:44.000Z</Time>
            <Position>
              <LatitudeDegrees>42.697173692286014556884765625</LatitudeDegrees>
              <LongitudeDegrees>1.2905302830040454864501953125</LongitudeDegrees>
            </Position>
            <AltitudeMeters>2602.39990234375</AltitudeMeters>
            <DistanceMeters>12690.761881933</DistanceMeters>
          </Trackpoint>
          <Trackpoint>
            <Time>2018-05-01T07:56:06.000Z</Time>
            <Position>
              <LatitudeDegrees>42.6971371471881866455078125</LatitudeDegrees>
              <LongitudeDegrees>1.29036842845380306243896484375</LongitudeDegrees>
            </Position>
            <AltitudeMeters>2605.39990234375</AltitudeMeters>
            <DistanceMeters>12704.612331167</DistanceMeters>
          </Trackpoint>
          <Trackpoint>
            <Time>2018-05-01T07:56:28.000Z</Time>
            <Position>
              <LatitudeDegrees>42.6971235685050487518310546875</LatitudeDegrees>
              <LongitudeDegrees>1.290188133716583251953125</LongitudeDegrees>
            </Position>
            <AltitudeMeters>2608.60009765625</AltitudeMeters>
            <DistanceMeters>12719.437716849</DistanceMeters>
          </Trackpoint>
          <Trackpoint>
            <Time>2018-05-01T07:56:45.000Z</Time>
            <Position>
              <LatitudeDegrees>42.69710252992808818817138671875</LatitudeDegrees>
              <LongitudeDegrees>1.29009425640106201171875</LongitudeDegrees>
            </Position>
            <AltitudeMeters>2611.60009765625</AltitudeMeters>
            <DistanceMeters>12727.465646569</DistanceMeters>
          </Trackpoint>
          <Trackpoint>
            <Time>2018-05-01T07:57:00.000Z</Time>
            <Position>
              <LatitudeDegrees>42.6970229856669902801513671875</LatitudeDegrees>
              <LongitudeDegrees>1.29006030969321727752685546875</LongitudeDegrees>
            </Position>
            <AltitudeMeters>2614.800048828125</AltitudeMeters>
            <DistanceMeters>12736.744264398</DistanceMeters>
          </Trackpoint>
          <Trackpoint>
            <Time>2018-05-01T07:57:24.000Z</Time>
            <Position>
              <LatitudeDegrees>42.6969639770686626434326171875</LatitudeDegrees>
              <LongitudeDegrees>1.28990692086517810821533203125</LongitudeDegrees>
            </Position>
            <AltitudeMeters>2617.800048828125</AltitudeMeters>
            <DistanceMeters>12750.906752102</DistanceMeters>
          </Trackpoint>
          <Trackpoint>
            <Time>2018-05-01T07:57:25.000Z</Time>
            <Position>
              <LatitudeDegrees>42.69696347415447235107421875</LatitudeDegrees>
              <LongitudeDegrees>1.28989183343946933746337890625</LongitudeDegrees>
            </Position>
            <AltitudeMeters>2618.199951171875</AltitudeMeters>
            <DistanceMeters>12752.145748872</DistanceMeters>
          </Trackpoint>
          <Trackpoint>
            <Time>2018-05-01T07:57:27.000Z</Time>
            <Position>
              <LatitudeDegrees>42.6969609595835208892822265625</LatitudeDegrees>
              <LongitudeDegrees>1.28987037576735019683837890625</LongitudeDegrees>
            </Position>
            <AltitudeMeters>2618.39990234375</AltitudeMeters>
            <DistanceMeters>12753.923535911</DistanceMeters>
          </Trackpoint>
          <Trackpoint>
            <Time>2018-05-01T07:57:49.000Z</Time>
            <Position>
              <LatitudeDegrees>42.69697914831340312957763671875</LatitudeDegrees>
              <LongitudeDegrees>1.28970726393163204193115234375</LongitudeDegrees>
            </Position>
            <AltitudeMeters>2621.60009765625</AltitudeMeters>
            <DistanceMeters>12767.419002253</DistanceMeters>
          </Trackpoint>
          <Trackpoint>
            <Time>2018-05-01T07:58:45.000Z</Time>
            <Position>
              <LatitudeDegrees>42.69698954187333583831787109375</LatitudeDegrees>
              <LongitudeDegrees>1.2896454893052577972412109375</LongitudeDegrees>
            </Position>
            <AltitudeMeters>2624.800048828125</AltitudeMeters>
            <DistanceMeters>12772.60296864</DistanceMeters>
          </Trackpoint>
          <Trackpoint>
            <Time>2018-05-01T07:59:47.000Z</Time>
            <Position>
              <LatitudeDegrees>42.6969713531434535980224609375</LatitudeDegrees>
              <LongitudeDegrees>1.28962227143347263336181640625</LongitudeDegrees>
            </Position>
            <AltitudeMeters>2624</AltitudeMeters>
            <DistanceMeters>12775.379960768</DistanceMeters>
          </Trackpoint>
          <Trackpoint>
            <Time>2018-05-01T08:00:00.000Z</Time>
            <Position>
              <LatitudeDegrees>42.69699390046298503875732421875</LatitudeDegrees>
              <LongitudeDegrees>1.2895911745727062225341796875</LongitudeDegrees>
            </Position>
            <AltitudeMeters>2624.800048828125</AltitudeMeters>
            <DistanceMeters>12778.953268493</DistanceMeters>
          </Trackpoint>
          <Trackpoint>
            <Time>2018-05-01T08:00:17.000Z</Time>
            <Position>
              <LatitudeDegrees>42.69705827347934246063232421875</LatitudeDegrees>
              <LongitudeDegrees>1.2894979678094387054443359375</LongitudeDegrees>
            </Position>
            <AltitudeMeters>2625.199951171875</AltitudeMeters>
            <DistanceMeters>12789.415705429</DistanceMeters>
          </Trackpoint>
          <Trackpoint>
            <Time>2018-05-01T08:00:19.000Z</Time>
            <Position>
              <LatitudeDegrees>42.69706950522959232330322265625</LatitudeDegrees>
              <LongitudeDegrees>1.28947877325117588043212890625</LongitudeDegrees>
            </Position>
            <AltitudeMeters>2624.60009765625</AltitudeMeters>
            <DistanceMeters>12791.42254725</DistanceMeters>
          </Trackpoint>
          <Trackpoint>
            <Time>2018-05-01T08:00:20.000Z</Time>
            <Position>
              <LatitudeDegrees>42.69707973115146160125732421875</LatitudeDegrees>
              <LongitudeDegrees>1.28947055898606777191162109375</LongitudeDegrees>
            </Position>
            <AltitudeMeters>2624.39990234375</AltitudeMeters>
            <DistanceMeters>12792.742700557</DistanceMeters>
          </Trackpoint>
          <Trackpoint>
            <Time>2018-05-01T08:00:21.000Z</Time>
            <Position>
              <LatitudeDegrees>42.69708610139787197113037109375</LatitudeDegrees>
              <LongitudeDegrees>1.28946192562580108642578125</LongitudeDegrees>
            </Position>
            <AltitudeMeters>2624.39990234375</AltitudeMeters>
            <DistanceMeters>12793.739349145</DistanceMeters>
          </Trackpoint>
          <Trackpoint>
            <Time>2018-05-01T08:00:22.000Z</Time>
            <Position>
              <LatitudeDegrees>42.6970970816910266876220703125</LatitudeDegrees>
              <LongitudeDegrees>1.289454214274883270263671875</LongitudeDegrees>
            </Position>
            <AltitudeMeters>2624.39990234375</AltitudeMeters>
            <DistanceMeters>12795.10984391</DistanceMeters>
          </Trackpoint>
          <Trackpoint>
            <Time>2018-05-01T08:00:23.000Z</Time>
            <Position>
              <LatitudeDegrees>42.69711175002157688140869140625</LatitudeDegrees>
              <LongitudeDegrees>1.28944843076169490814208984375</LongitudeDegrees>
            </Position>
            <AltitudeMeters>2624.39990234375</AltitudeMeters>
            <DistanceMeters>12796.804412973</DistanceMeters>
          </Trackpoint>
          <Trackpoint>
            <Time>2018-05-01T08:00:24.000Z</Time>
            <Position>
              <LatitudeDegrees>42.6971225626766681671142578125</LatitudeDegrees>
              <LongitudeDegrees>1.28944373689591884613037109375</LongitudeDegrees>
            </Position>
            <AltitudeMeters>2624.199951171875</AltitudeMeters>
            <DistanceMeters>12798.0650848</DistanceMeters>
          </Trackpoint>
          <Trackpoint>
            <Time>2018-05-01T08:00:25.000Z</Time>
            <Position>
              <LatitudeDegrees>42.6971316151320934295654296875</LatitudeDegrees>
              <LongitudeDegrees>1.28944105468690395355224609375</LongitudeDegrees>
            </Position>
            <AltitudeMeters>2624.199951171875</AltitudeMeters>
            <DistanceMeters>12799.097339139</DistanceMeters>
          </Trackpoint>
          <Trackpoint>
            <Time>2018-05-01T08:00:26.000Z</Time>
            <Position>
              <LatitudeDegrees>42.69714192487299442291259765625</LatitudeDegrees>
              <LongitudeDegrees>1.28943778574466705322265625</LongitudeDegrees>
            </Position>
            <AltitudeMeters>2624.39990234375</AltitudeMeters>
            <DistanceMeters>12800.276589652</DistanceMeters>
          </Trackpoint>
          <Trackpoint>
            <Time>2018-05-01T08:00:50.000Z</Time>
            <Position>
              <LatitudeDegrees>42.697294391691684722900390625</LatitudeDegrees>
              <LongitudeDegrees>1.2892964668571949005126953125</LongitudeDegrees>
            </Position>
            <AltitudeMeters>2625.199951171875</AltitudeMeters>
            <DistanceMeters>12820.809837548</DistanceMeters>
          </Trackpoint>
          <Trackpoint>
            <Time>2018-05-01T08:01:19.000Z</Time>
            <Position>
              <LatitudeDegrees>42.69744015298783779144287109375</LatitudeDegrees>
              <LongitudeDegrees>1.28914902918040752410888671875</LongitudeDegrees>
            </Position>
            <AltitudeMeters>2627</AltitudeMeters>
            <DistanceMeters>12841.025305377</DistanceMeters>
          </Trackpoint>
          <Trackpoint>
            <Time>2018-05-01T08:02:15.000Z</Time>
            <Position>
              <LatitudeDegrees>42.69756160676479339599609375</LatitudeDegrees>
              <LongitudeDegrees>1.28900921903550624847412109375</LongitudeDegrees>
            </Position>
            <AltitudeMeters>2627.39990234375</AltitudeMeters>
            <DistanceMeters>12858.731921489</DistanceMeters>
          </Trackpoint>
          <Trackpoint>
            <Time>2018-05-01T08:02:19.000Z</Time>
            <Position>
              <LatitudeDegrees>42.6975989900529384613037109375</LatitudeDegrees>
              <LongitudeDegrees>1.28897099755704402923583984375</LongitudeDegrees>
            </Position>
            <AltitudeMeters>2627</AltitudeMeters>
            <DistanceMeters>12863.936748992</DistanceMeters>
          </Trackpoint>
          <Trackpoint>
            <Time>2018-05-01T08:02:30.000Z</Time>
            <Position>
              <LatitudeDegrees>42.69771608524024486541748046875</LatitudeDegrees>
              <LongitudeDegrees>1.28887049853801727294921875</LongitudeDegrees>
            </Position>
            <AltitudeMeters>2625</AltitudeMeters>
            <DistanceMeters>12879.345734358</DistanceMeters>
          </Trackpoint>
          <Trackpoint>
            <Time>2018-05-01T08:02:31.000Z</Time>
            <Position>
              <LatitudeDegrees>42.6977210305631160736083984375</LatitudeDegrees>
              <LongitudeDegrees>1.2888653017580509185791015625</LongitudeDegrees>
            </Position>
            <AltitudeMeters>2625.199951171875</AltitudeMeters>
            <DistanceMeters>12880.03098174</DistanceMeters>
          </Trackpoint>
          <Trackpoint>
            <Time>2018-05-01T08:02:44.000Z</Time>
            <Position>
              <LatitudeDegrees>42.6978655345737934112548828125</LatitudeDegrees>
              <LongitudeDegrees>1.28875642083585262298583984375</LongitudeDegrees>
            </Position>
            <AltitudeMeters>2622</AltitudeMeters>
            <DistanceMeters>12898.415888359</DistanceMeters>
          </Trackpoint>
          <Trackpoint>
            <Time>2018-05-01T08:03:03.000Z</Time>
            <Position>
              <LatitudeDegrees>42.69800257869064807891845703125</LatitudeDegrees>
              <LongitudeDegrees>1.288575790822505950927734375</LongitudeDegrees>
            </Position>
            <AltitudeMeters>2620.60009765625</AltitudeMeters>
            <DistanceMeters>12919.652179884</DistanceMeters>
          </Trackpoint>
          <Trackpoint>
            <Time>2018-05-01T08:03:21.000Z</Time>
            <Position>
              <LatitudeDegrees>42.6981414668262004852294921875</LatitudeDegrees>
              <LongitudeDegrees>1.28841058351099491119384765625</LongitudeDegrees>
            </Position>
            <AltitudeMeters>2623.39990234375</AltitudeMeters>
            <DistanceMeters>12940.184768103</DistanceMeters>
          </Trackpoint>
          <Trackpoint>
            <Time>2018-05-01T08:03:39.000Z</Time>
            <Position>
              <LatitudeDegrees>42.6982551254332065582275390625</LatitudeDegrees>
              <LongitudeDegrees>1.28824546001851558685302734375</LongitudeDegrees>
            </Position>
            <AltitudeMeters>2624</AltitudeMeters>
            <DistanceMeters>12958.690839518</DistanceMeters>
          </Trackpoint>
          <Trackpoint>
            <Time>2018-05-01T08:03:40.000Z</Time>
            <Position>
              <LatitudeDegrees>42.69826124422252178192138671875</LatitudeDegrees>
              <LongitudeDegrees>1.28823858685791492462158203125</LongitudeDegrees>
            </Position>
            <AltitudeMeters>2623.800048828125</AltitudeMeters>
            <DistanceMeters>12959.572081014</DistanceMeters>
          </Trackpoint>
          <Trackpoint>
            <Time>2018-05-01T08:03:41.000Z</Time>
            <Position>
              <LatitudeDegrees>42.698267363011837005615234375</LatitudeDegrees>
              <LongitudeDegrees>1.288231797516345977783203125</LongitudeDegrees>
            </Position>
            <AltitudeMeters>2623.800048828125</AltitudeMeters>
            <DistanceMeters>12960.443015237</DistanceMeters>
          </Trackpoint>
          <Trackpoint>
            <Time>2018-05-01T08:03:42.000Z</Time>
            <Position>
              <LatitudeDegrees>42.69827373325824737548828125</LatitudeDegrees>
              <LongitudeDegrees>1.28822400234639644622802734375</LongitudeDegrees>
            </Position>
            <AltitudeMeters>2623.800048828125</AltitudeMeters>
            <DistanceMeters>12961.393282381</DistanceMeters>
          </Trackpoint>
          <Trackpoint>
            <Time>2018-05-01T08:03:43.000Z</Time>
            <Position>
              <LatitudeDegrees>42.69828052259981632232666015625</LatitudeDegrees>
              <LongitudeDegrees>1.28821880556643009185791015625</LongitudeDegrees>
            </Position>
            <AltitudeMeters>2623.60009765625</AltitudeMeters>
            <DistanceMeters>12962.264216604</DistanceMeters>
          </Trackpoint>
          <Trackpoint>
            <Time>2018-05-01T08:03:49.000Z</Time>
            <Position>
              <LatitudeDegrees>42.69830483011901378631591796875</LatitudeDegrees>
              <LongitudeDegrees>1.28818041644990444183349609375</LongitudeDegrees>
            </Position>
            <AltitudeMeters>2623</AltitudeMeters>
            <DistanceMeters>12966.408514542</DistanceMeters>
          </Trackpoint>
          <Trackpoint>
            <Time>2018-05-01T08:04:08.000Z</Time>
            <Position>
              <LatitudeDegrees>42.698369286954402923583984375</LatitudeDegrees>
              <LongitudeDegrees>1.2879456393420696258544921875</LongitudeDegrees>
            </Position>
            <AltitudeMeters>2622</AltitudeMeters>
            <DistanceMeters>12986.909193015</DistanceMeters>
          </Trackpoint>
          <Trackpoint>
            <Time>2018-05-01T08:04:20.000Z</Time>
            <Position>
              <LatitudeDegrees>42.6984381861984729766845703125</LatitudeDegrees>
              <LongitudeDegrees>1.28777925856411457061767578125</LongitudeDegrees>
            </Position>
            <AltitudeMeters>2623</AltitudeMeters>
            <DistanceMeters>13002.530613751</DistanceMeters>
          </Trackpoint>
          <Trackpoint>
            <Time>2018-05-01T08:04:21.000Z</Time>
            <Position>
              <LatitudeDegrees>42.69844212569296360015869140625</LatitudeDegrees>
              <LongitudeDegrees>1.28776299767196178436279296875</LongitudeDegrees>
            </Position>
            <AltitudeMeters>2622.800048828125</AltitudeMeters>
            <DistanceMeters>13003.927215524</DistanceMeters>
          </Trackpoint>
          <Trackpoint>
            <Time>2018-05-01T08:04:22.000Z</Time>
            <Position>
              <LatitudeDegrees>42.69844832830131053924560546875</LatitudeDegrees>
              <LongitudeDegrees>1.28773785196244716644287109375</LongitudeDegrees>
            </Position>
            <AltitudeMeters>2622.60009765625</AltitudeMeters>
            <DistanceMeters>13006.094158013</DistanceMeters>
          </Trackpoint>
          <Trackpoint>
            <Time>2018-05-01T08:04:23.000Z</Time>
            <Position>
              <LatitudeDegrees>42.698457129299640655517578125</LatitudeDegrees>
              <LongitudeDegrees>1.2877072580158710479736328125</LongitudeDegrees>
            </Position>
            <AltitudeMeters>2622.199951171875</AltitudeMeters>
            <DistanceMeters>13008.781919378</DistanceMeters>
          </Trackpoint>
          <Trackpoint>
            <Time>2018-05-01T08:04:24.000Z</Time>
            <Position>
              <LatitudeDegrees>42.698465846478939056396484375</LatitudeDegrees>
              <LongitudeDegrees>1.2876747362315654754638671875</LongitudeDegrees>
            </Position>
            <AltitudeMeters>2621.800048828125</AltitudeMeters>
            <DistanceMeters>13011.613651689</DistanceMeters>
          </Trackpoint>
          <Trackpoint>
            <Time>2018-05-01T08:04:38.000Z</Time>
            <Position>
              <LatitudeDegrees>42.69855829887092113494873046875</LatitudeDegrees>
              <LongitudeDegrees>1.287437193095684051513671875</LongitudeDegrees>
            </Position>
            <AltitudeMeters>2619.800048828125</AltitudeMeters>
            <DistanceMeters>13033.601198907</DistanceMeters>
          </Trackpoint>
          <Trackpoint>
            <Time>2018-05-01T08:04:55.000Z</Time>
            <Position>
              <LatitudeDegrees>42.69867162220180034637451171875</LatitudeDegrees>
              <LongitudeDegrees>1.287220604717731475830078125</LongitudeDegrees>
            </Position>
            <AltitudeMeters>2617.800048828125</AltitudeMeters>
            <DistanceMeters>13055.349241209</DistanceMeters>
          </Trackpoint>
          <Trackpoint>
            <Time>2018-05-01T08:05:08.000Z</Time>
            <Position>
              <LatitudeDegrees>42.69873415119946002960205078125</LatitudeDegrees>
              <LongitudeDegrees>1.28710091114044189453125</LongitudeDegrees>
            </Position>
            <AltitudeMeters>2616.800048828125</AltitudeMeters>
            <DistanceMeters>13067.361760577</DistanceMeters>
          </Trackpoint>
          <Trackpoint>
            <Time>2018-05-01T08:05:28.000Z</Time>
            <Position>
              <LatitudeDegrees>42.69885099492967128753662109375</LatitudeDegrees>
              <LongitudeDegrees>1.28691793419420719146728515625</LongitudeDegrees>
            </Position>
            <AltitudeMeters>2616.199951171875</AltitudeMeters>
            <DistanceMeters>13087.189808091</DistanceMeters>
          </Trackpoint>
          <Trackpoint>
            <Time>2018-05-01T08:05:37.000Z</Time>
            <Position>
              <LatitudeDegrees>42.69887681119143962860107421875</LatitudeDegrees>
              <LongitudeDegrees>1.2868298403918743133544921875</LongitudeDegrees>
            </Position>
            <AltitudeMeters>2618.60009765625</AltitudeMeters>
            <DistanceMeters>13094.947736906</DistanceMeters>
          </Trackpoint>
          <Trackpoint>
            <Time>2018-05-01T08:05:38.000Z</Time>
            <Position>
              <LatitudeDegrees>42.6988790743052959442138671875</LatitudeDegrees>
              <LongitudeDegrees>1.2868177704513072967529296875</LongitudeDegrees>
            </Position>
            <AltitudeMeters>2618.39990234375</AltitudeMeters>
            <DistanceMeters>13095.962344572</DistanceMeters>
          </Trackpoint>
          <Trackpoint>
            <Time>2018-05-01T08:05:39.000Z</Time>
            <Position>
              <LatitudeDegrees>42.698880918323993682861328125</LatitudeDegrees>
              <LongitudeDegrees>1.2868046946823596954345703125</LongitudeDegrees>
            </Position>
            <AltitudeMeters>2618</AltitudeMeters>
            <DistanceMeters>13097.054118399</DistanceMeters>
          </Trackpoint>
          <Trackpoint>
            <Time>2018-05-01T08:05:40.000Z</Time>
            <Position>
              <LatitudeDegrees>42.69888586364686489105224609375</LatitudeDegrees>
              <LongitudeDegrees>1.28678952343761920928955078125</LongitudeDegrees>
            </Position>
            <AltitudeMeters>2617.800048828125</AltitudeMeters>
            <DistanceMeters>13098.414693892</DistanceMeters>
          </Trackpoint>
          <Trackpoint>
            <Time>2018-05-01T08:05:41.000Z</Time>
            <Position>
              <LatitudeDegrees>42.69889374263584613800048828125</LatitudeDegrees>
              <LongitudeDegrees>1.28677242435514926910400390625</LongitudeDegrees>
            </Position>
            <AltitudeMeters>2616.800048828125</AltitudeMeters>
            <DistanceMeters>13100.066082122</DistanceMeters>
          </Trackpoint>
          <Trackpoint>
            <Time>2018-05-01T08:06:00.000Z</Time>
            <Position>
              <LatitudeDegrees>42.69900061190128326416015625</LatitudeDegrees>
              <LongitudeDegrees>1.28655231557786464691162109375</LongitudeDegrees>
            </Position>
            <AltitudeMeters>2615.199951171875</AltitudeMeters>
            <DistanceMeters>13121.644889362</DistanceMeters>
          </Trackpoint>
          <Trackpoint>
            <Time>2018-05-01T08:06:16.000Z</Time>
            <Position>
              <LatitudeDegrees>42.6990879513323307037353515625</LatitudeDegrees>
              <LongitudeDegrees>1.28639691509306430816650390625</LongitudeDegrees>
            </Position>
            <AltitudeMeters>2617.39990234375</AltitudeMeters>
            <DistanceMeters>13137.64723006</DistanceMeters>
          </Trackpoint>
          <Trackpoint>
            <Time>2018-05-01T08:06:38.000Z</Time>
            <Position>
              <LatitudeDegrees>42.69916783086955547332763671875</LatitudeDegrees>
              <LongitudeDegrees>1.286159120500087738037109375</LongitudeDegrees>
            </Position>
            <AltitudeMeters>2618.800048828125</AltitudeMeters>
            <DistanceMeters>13159.03373052</DistanceMeters>
          </Trackpoint>
          <Trackpoint>
            <Time>2018-05-01T08:07:07.000Z</Time>
            <Position>
              <LatitudeDegrees>42.6992160268127918243408203125</LatitudeDegrees>
              <LongitudeDegrees>1.28594328649342060089111328125</LongitudeDegrees>
            </Position>
            <AltitudeMeters>2618.800048828125</AltitudeMeters>
            <DistanceMeters>13177.485559759</DistanceMeters>
          </Trackpoint>
          <Trackpoint>
            <Time>2018-05-01T08:08:13.000Z</Time>
            <Position>
              <LatitudeDegrees>42.6992679946124553680419921875</LatitudeDegrees>
              <LongitudeDegrees>1.28572820685803890228271484375</LongitudeDegrees>
            </Position>
            <AltitudeMeters>2617.39990234375</AltitudeMeters>
            <DistanceMeters>13196.005288793</DistanceMeters>
          </Trackpoint>
          <Trackpoint>
            <Time>2018-05-01T08:08:30.000Z</Time>
            <Position>
              <LatitudeDegrees>42.699368409812450408935546875</LatitudeDegrees>
              <LongitudeDegrees>1.28551480360329151153564453125</LongitudeDegrees>
            </Position>
            <AltitudeMeters>2616.800048828125</AltitudeMeters>
            <DistanceMeters>13216.732878548</DistanceMeters>
          </Trackpoint>
          <Trackpoint>
            <Time>2018-05-01T08:08:50.000Z</Time>
            <Position>
              <LatitudeDegrees>42.699480392038822174072265625</LatitudeDegrees>
              <LongitudeDegrees>1.28531632013618946075439453125</LongitudeDegrees>
            </Position>
            <AltitudeMeters>2617</AltitudeMeters>
            <DistanceMeters>13237.201156361</DistanceMeters>
          </Trackpoint>
          <Trackpoint>
            <Time>2018-05-01T08:09:25.000Z</Time>
            <Position>
              <LatitudeDegrees>42.699560187757015228271484375</LatitudeDegrees>
              <LongitudeDegrees>1.28511699847877025604248046875</LongitudeDegrees>
            </Position>
            <AltitudeMeters>2619</AltitudeMeters>
            <DistanceMeters>13255.767635245</DistanceMeters>
          </Trackpoint>
          <Trackpoint>
            <Time>2018-05-01T08:09:39.000Z</Time>
            <Position>
              <LatitudeDegrees>42.69952573813498020172119140625</LatitudeDegrees>
              <LongitudeDegrees>1.28499747253954410552978515625</LongitudeDegrees>
            </Position>
            <AltitudeMeters>2622</AltitudeMeters>
            <DistanceMeters>13266.269699504</DistanceMeters>
          </Trackpoint>
          <Trackpoint>
            <Time>2018-05-01T08:09:47.000Z</Time>
            <Position>
              <LatitudeDegrees>42.69952632486820220947265625</LatitudeDegrees>
              <LongitudeDegrees>1.2849154137074947357177734375</LongitudeDegrees>
            </Position>
            <AltitudeMeters>2623.199951171875</AltitudeMeters>
            <DistanceMeters>13272.98238015</DistanceMeters>
          </Trackpoint>
          <Trackpoint>
            <Time>2018-05-01T08:11:50.000Z</Time>
            <Position>
              <LatitudeDegrees>42.69961525686085224151611328125</LatitudeDegrees>
              <LongitudeDegrees>1.28486202098429203033447265625</LongitudeDegrees>
            </Position>
            <AltitudeMeters>2623</AltitudeMeters>
            <DistanceMeters>13283.801245657</DistanceMeters>
          </Trackpoint>
          <Trackpoint>
            <Time>2018-05-01T08:11:57.000Z</Time>
            <Position>
              <LatitudeDegrees>42.69966202788054943084716796875</LatitudeDegrees>
              <LongitudeDegrees>1.28481742925941944122314453125</LongitudeDegrees>
            </Position>
            <AltitudeMeters>2624.39990234375</AltitudeMeters>
            <DistanceMeters>13290.1573893</DistanceMeters>
          </Trackpoint>
          <Trackpoint>
            <Time>2018-05-01T08:12:12.000Z</Time>
            <Position>
              <LatitudeDegrees>42.69971198402345180511474609375</LatitudeDegrees>
              <LongitudeDegrees>1.28470678813755512237548828125</LongitudeDegrees>
            </Position>
            <AltitudeMeters>2627.60009765625</AltitudeMeters>
            <DistanceMeters>13300.779998925</DistanceMeters>
          </Trackpoint>
          <Trackpoint>
            <Time>2018-05-01T08:12:25.000Z</Time>
            <Position>
              <LatitudeDegrees>42.69974467344582080841064453125</LatitudeDegrees>
              <LongitudeDegrees>1.28458692692220211029052734375</LongitudeDegrees>
            </Position>
            <AltitudeMeters>2629.60009765625</AltitudeMeters>
            <DistanceMeters>13311.238119496</DistanceMeters>
          </Trackpoint>
          <Trackpoint>
            <Time>2018-05-01T08:12:42.000Z</Time>
            <Position>
              <LatitudeDegrees>42.69976981915533542633056640625</LatitudeDegrees>
              <LongitudeDegrees>1.284439824521541595458984375</LongitudeDegrees>
            </Position>
            <AltitudeMeters>2631.800048828125</AltitudeMeters>
            <DistanceMeters>13323.592323318</DistanceMeters>
          </Trackpoint>
          <Trackpoint>
            <Time>2018-05-01T08:12:47.000Z</Time>
            <Position>
              <LatitudeDegrees>42.6997844874858856201171875</LatitudeDegrees>
              <LongitudeDegrees>1.28439514897763729095458984375</LongitudeDegrees>
            </Position>
            <AltitudeMeters>2632.800048828125</AltitudeMeters>
            <DistanceMeters>13327.595869956</DistanceMeters>
          </Trackpoint>
          <Trackpoint>
            <Time>2018-05-01T08:13:11.000Z</Time>
            <Position>
              <LatitudeDegrees>42.6998517103493213653564453125</LatitudeDegrees>
              <LongitudeDegrees>1.28420479595661163330078125</LongitudeDegrees>
            </Position>
            <AltitudeMeters>2636.199951171875</AltitudeMeters>
            <DistanceMeters>13344.870879835</DistanceMeters>
          </Trackpoint>
          <Trackpoint>
            <Time>2018-05-01T08:13:27.000Z</Time>
            <Position>
              <LatitudeDegrees>42.6999120600521564483642578125</LatitudeDegrees>
              <LongitudeDegrees>1.2841080687940120697021484375</LongitudeDegrees>
            </Position>
            <AltitudeMeters>2639.39990234375</AltitudeMeters>
            <DistanceMeters>13355.249258891</DistanceMeters>
          </Trackpoint>
          <Trackpoint>
            <Time>2018-05-01T08:13:45.000Z</Time>
            <Position>
              <LatitudeDegrees>42.69996796734631061553955078125</LatitudeDegrees>
              <LongitudeDegrees>1.28398208878934383392333984375</LongitudeDegrees>
            </Position>
            <AltitudeMeters>2642.39990234375</AltitudeMeters>
            <DistanceMeters>13367.287309679</DistanceMeters>
          </Trackpoint>
          <Trackpoint>
            <Time>2018-05-01T08:14:04.000Z</Time>
            <Position>
              <LatitudeDegrees>42.6999955438077449798583984375</LatitudeDegrees>
              <LongitudeDegrees>1.28385334275662899017333984375</LongitudeDegrees>
            </Position>
            <AltitudeMeters>2645.60009765625</AltitudeMeters>
            <DistanceMeters>13378.257031585</DistanceMeters>
          </Trackpoint>
          <Trackpoint>
            <Time>2018-05-01T08:14:22.000Z</Time>
            <Position>
              <LatitudeDegrees>42.70001490600407123565673828125</LatitudeDegrees>
              <LongitudeDegrees>1.28374203108251094818115234375</LongitudeDegrees>
            </Position>
            <AltitudeMeters>2648.60009765625</AltitudeMeters>
            <DistanceMeters>13387.614147658</DistanceMeters>
          </Trackpoint>
          <Trackpoint>
            <Time>2018-05-01T08:14:45.000Z</Time>
            <Position>
              <LatitudeDegrees>42.70003301091492176055908203125</LatitudeDegrees>
              <LongitudeDegrees>1.28360037691891193389892578125</LongitudeDegrees>
            </Position>
            <AltitudeMeters>2651.800048828125</AltitudeMeters>
            <DistanceMeters>13399.374831349</DistanceMeters>
          </Trackpoint>
          <Trackpoint>
            <Time>2018-05-01T08:15:05.000Z</Time>
            <Position>
              <LatitudeDegrees>42.70007341168820858001708984375</LatitudeDegrees>
              <LongitudeDegrees>1.28347934223711490631103515625</LongitudeDegrees>
            </Position>
            <AltitudeMeters>2654.800048828125</AltitudeMeters>
            <DistanceMeters>13410.248229662</DistanceMeters>
          </Trackpoint>
          <Trackpoint>
            <Time>2018-05-01T08:15:22.000Z</Time>
            <Position>
              <LatitudeDegrees>42.70005094818770885467529296875</LatitudeDegrees>
              <LongitudeDegrees>1.28336451016366481781005859375</LongitudeDegrees>
            </Position>
            <AltitudeMeters>2658</AltitudeMeters>
            <DistanceMeters>13419.968398891</DistanceMeters>
          </Trackpoint>
          <Trackpoint>
            <Time>2018-05-01T08:15:43.000Z</Time>
            <Position>
              <LatitudeDegrees>42.7000394649803638458251953125</LatitudeDegrees>
              <LongitudeDegrees>1.28320156596601009368896484375</LongitudeDegrees>
            </Position>
            <AltitudeMeters>2661</AltitudeMeters>
            <DistanceMeters>13433.358064224</DistanceMeters>
          </Trackpoint>
          <Trackpoint>
            <Time>2018-05-01T08:15:54.000Z</Time>
            <Position>
              <LatitudeDegrees>42.70010408945381641387939453125</LatitudeDegrees>
              <LongitudeDegrees>1.2831753306090831756591796875</LongitudeDegrees>
            </Position>
            <AltitudeMeters>2662.39990234375</AltitudeMeters>
            <DistanceMeters>13440.8645732</DistanceMeters>
          </Trackpoint>
          <Trackpoint>
            <Time>2018-05-01T08:16:02.000Z</Time>
            <Position>
              <LatitudeDegrees>42.7001564763486385345458984375</LatitudeDegrees>
              <LongitudeDegrees>1.28316602669656276702880859375</LongitudeDegrees>
            </Position>
            <AltitudeMeters>2663.60009765625</AltitudeMeters>
            <DistanceMeters>13446.744723088</DistanceMeters>
          </Trackpoint>
          <Trackpoint>
            <Time>2018-05-01T08:16:19.000Z</Time>
            <Position>
              <LatitudeDegrees>42.7002651058137416839599609375</LatitudeDegrees>
              <LongitudeDegrees>1.28315127454698085784912109375</LongitudeDegrees>
            </Position>
            <AltitudeMeters>2666.800048828125</AltitudeMeters>
            <DistanceMeters>13458.895515237</DistanceMeters>
          </Trackpoint>
          <Trackpoint>
            <Time>2018-05-01T08:16:29.000Z</Time>
            <Position>
              <LatitudeDegrees>42.70030793733894824981689453125</LatitudeDegrees>
              <LongitudeDegrees>1.28308723680675029754638671875</LongitudeDegrees>
            </Position>
            <AltitudeMeters>2670.39990234375</AltitudeMeters>
            <DistanceMeters>13465.978671647</DistanceMeters>
          </Trackpoint>
          <Trackpoint>
            <Time>2018-05-01T08:16:30.000Z</Time>
            <Position>
              <LatitudeDegrees>42.70031095482409000396728515625</LatitudeDegrees>
              <LongitudeDegrees>1.28308229148387908935546875</LongitudeDegrees>
            </Position>
            <AltitudeMeters>2670.39990234375</AltitudeMeters>
            <DistanceMeters>13466.507758001</DistanceMeters>
          </Trackpoint>
          <Trackpoint>
            <Time>2018-05-01T08:16:44.000Z</Time>
            <Position>
              <LatitudeDegrees>42.70037935115396976470947265625</LatitudeDegrees>
              <LongitudeDegrees>1.28302906639873981475830078125</LongitudeDegrees>
            </Position>
            <AltitudeMeters>2670.60009765625</AltitudeMeters>
            <DistanceMeters>13475.277029977</DistanceMeters>
          </Trackpoint>
          <Trackpoint>
            <Time>2018-05-01T08:16:54.000Z</Time>
            <Position>
              <LatitudeDegrees>42.70042343996465206146240234375</LatitudeDegrees>
              <LongitudeDegrees>1.282969973981380462646484375</LongitudeDegrees>
            </Position>
            <AltitudeMeters>2671.199951171875</AltitudeMeters>
            <DistanceMeters>13482.164992059</DistanceMeters>
          </Trackpoint>
          <Trackpoint>
            <Time>2018-05-01T08:16:59.000Z</Time>
            <Position>
              <LatitudeDegrees>42.70044498145580291748046875</LatitudeDegrees>
              <LongitudeDegrees>1.28293535672128200531005859375</LongitudeDegrees>
            </Position>
            <AltitudeMeters>2671.60009765625</AltitudeMeters>
            <DistanceMeters>13485.877120377</DistanceMeters>
          </Trackpoint>
          <Trackpoint>
            <Time>2018-05-01T08:17:01.000Z</Time>
            <Position>
              <LatitudeDegrees>42.7004578895866870880126953125</LatitudeDegrees>
              <LongitudeDegrees>1.28292672336101531982421875</LongitudeDegrees>
            </Position>
            <AltitudeMeters>2672</AltitudeMeters>
            <DistanceMeters>13487.478539033</DistanceMeters>
          </Trackpoint>
          <Trackpoint>
            <Time>2018-05-01T08:17:04.000Z</Time>
            <Position>
              <LatitudeDegrees>42.70048110745847225189208984375</LatitudeDegrees>
              <LongitudeDegrees>1.28291741944849491119384765625</LongitudeDegrees>
            </Position>
            <AltitudeMeters>2672.800048828125</AltitudeMeters>
            <DistanceMeters>13490.173011423</DistanceMeters>
          </Trackpoint>
          <Trackpoint>
            <Time>2018-05-01T08:17:11.000Z</Time>
            <Position>
              <LatitudeDegrees>42.70053273998200893402099609375</LatitudeDegrees>
              <LongitudeDegrees>1.2829101271927356719970703125</LongitudeDegrees>
            </Position>
            <AltitudeMeters>2674</AltitudeMeters>
            <DistanceMeters>13495.950916979</DistanceMeters>
          </Trackpoint>
          <Trackpoint>
            <Time>2018-05-01T08:17:36.000Z</Time>
            <Position>
              <LatitudeDegrees>42.7006536908447742462158203125</LatitudeDegrees>
              <LongitudeDegrees>1.28289126791059970855712890625</LongitudeDegrees>
            </Position>
            <AltitudeMeters>2677.199951171875</AltitudeMeters>
            <DistanceMeters>13509.501473219</DistanceMeters>
          </Trackpoint>
          <Trackpoint>
            <Time>2018-05-01T08:18:34.000Z</Time>
            <Position>
              <LatitudeDegrees>42.7008193172514438629150390625</LatitudeDegrees>
              <LongitudeDegrees>1.282818429172039031982421875</LongitudeDegrees>
            </Position>
            <AltitudeMeters>2679.60009765625</AltitudeMeters>
            <DistanceMeters>13528.875274019</DistanceMeters>
          </Trackpoint>
          <Trackpoint>
            <Time>2018-05-01T08:18:55.000Z</Time>
            <Position>
              <LatitudeDegrees>42.70097631029784679412841796875</LatitudeDegrees>
              <LongitudeDegrees>1.282725892961025238037109375</LongitudeDegrees>
            </Position>
            <AltitudeMeters>2682</AltitudeMeters>
            <DistanceMeters>13547.918115452</DistanceMeters>
          </Trackpoint>
          <Trackpoint>
            <Time>2018-05-01T08:18:56.000Z</Time>
            <Position>
              <LatitudeDegrees>42.70098351873457431793212890625</LatitudeDegrees>
              <LongitudeDegrees>1.282727904617786407470703125</LongitudeDegrees>
            </Position>
            <AltitudeMeters>2682.199951171875</AltitudeMeters>
            <DistanceMeters>13548.735566158</DistanceMeters>
          </Trackpoint>
          <Trackpoint>
            <Time>2018-05-01T08:19:10.000Z</Time>
            <Position>
              <LatitudeDegrees>42.70105929113924503326416015625</LatitudeDegrees>
              <LongitudeDegrees>1.28273301757872104644775390625</LongitudeDegrees>
            </Position>
            <AltitudeMeters>2685.60009765625</AltitudeMeters>
            <DistanceMeters>13557.179586741</DistanceMeters>
          </Trackpoint>
          <Trackpoint>
            <Time>2018-05-01T08:19:16.000Z</Time>
            <Position>
              <LatitudeDegrees>42.7010858617722988128662109375</LatitudeDegrees>
              <LongitudeDegrees>1.2826905213296413421630859375</LongitudeDegrees>
            </Position>
            <AltitudeMeters>2687</AltitudeMeters>
            <DistanceMeters>13561.742848325</DistanceMeters>
          </Trackpoint>
          <Trackpoint>
            <Time>2018-05-01T08:19:35.000Z</Time>
            <Position>
              <LatitudeDegrees>42.7011975087225437164306640625</LatitudeDegrees>
              <LongitudeDegrees>1.282729916274547576904296875</LongitudeDegrees>
            </Position>
            <AltitudeMeters>2689.39990234375</AltitudeMeters>
            <DistanceMeters>13574.580250519</DistanceMeters>
          </Trackpoint>
          <Trackpoint>
            <Time>2018-05-01T08:20:00.000Z</Time>
            <Position>
              <LatitudeDegrees>42.701328098773956298828125</LatitudeDegrees>
              <LongitudeDegrees>1.2826633639633655548095703125</LongitudeDegrees>
            </Position>
            <AltitudeMeters>2692.39990234375</AltitudeMeters>
            <DistanceMeters>13590.101345177</DistanceMeters>
          </Trackpoint>
          <Trackpoint>
            <Time>2018-05-01T08:20:01.000Z</Time>
            <Position>
              <LatitudeDegrees>42.701333463191986083984375</LatitudeDegrees>
              <LongitudeDegrees>1.28265447914600372314453125</LongitudeDegrees>
            </Position>
            <AltitudeMeters>2692.800048828125</AltitudeMeters>
            <DistanceMeters>13591.042061654</DistanceMeters>
          </Trackpoint>
          <Trackpoint>
            <Time>2018-05-01T08:20:15.000Z</Time>
            <Position>
              <LatitudeDegrees>42.70141032524406909942626953125</LatitudeDegrees>
              <LongitudeDegrees>1.2826605141162872314453125</LongitudeDegrees>
            </Position>
            <AltitudeMeters>2695.800048828125</AltitudeMeters>
            <DistanceMeters>13599.611342934</DistanceMeters>
          </Trackpoint>
          <Trackpoint>
            <Time>2018-05-01T08:20:39.000Z</Time>
            <Position>
              <LatitudeDegrees>42.70151375792920589447021484375</LatitudeDegrees>
              <LongitudeDegrees>1.282776854932308197021484375</LongitudeDegrees>
            </Position>
            <AltitudeMeters>2699</AltitudeMeters>
            <DistanceMeters>13614.547474914</DistanceMeters>
          </Trackpoint>
          <Trackpoint>
            <Time>2018-05-01T08:20:54.000Z</Time>
            <Position>
              <LatitudeDegrees>42.70155114121735095977783203125</LatitudeDegrees>
              <LongitudeDegrees>1.2827706523239612579345703125</LongitudeDegrees>
            </Position>
            <AltitudeMeters>2702.39990234375</AltitudeMeters>
            <DistanceMeters>13618.738357719</DistanceMeters>
          </Trackpoint>
          <Trackpoint>
            <Time>2018-05-01T08:21:39.000Z</Time>
            <Position>
              <LatitudeDegrees>42.701647281646728515625</LatitudeDegrees>
              <LongitudeDegrees>1.2826217897236347198486328125</LongitudeDegrees>
            </Position>
            <AltitudeMeters>2705.39990234375</AltitudeMeters>
            <DistanceMeters>13634.948143787</DistanceMeters>
          </Trackpoint>
          <Trackpoint>
            <Time>2018-05-01T08:21:53.000Z</Time>
            <Position>
              <LatitudeDegrees>42.70171022973954677581787109375</LatitudeDegrees>
              <LongitudeDegrees>1.2825252301990985870361328125</LongitudeDegrees>
            </Position>
            <AltitudeMeters>2708.60009765625</AltitudeMeters>
            <DistanceMeters>13645.505949602</DistanceMeters>
          </Trackpoint>
          <Trackpoint>
            <Time>2018-05-01T08:22:04.000Z</Time>
            <Position>
              <LatitudeDegrees>42.70178047008812427520751953125</LatitudeDegrees>
              <LongitudeDegrees>1.28246244974434375762939453125</LongitudeDegrees>
            </Position>
            <AltitudeMeters>2710.60009765625</AltitudeMeters>
            <DistanceMeters>13654.859204682</DistanceMeters>
          </Trackpoint>
          <Trackpoint>
            <Time>2018-05-01T08:22:05.000Z</Time>
            <Position>
              <LatitudeDegrees>42.7017886005342006683349609375</LatitudeDegrees>
              <LongitudeDegrees>1.282464377582073211669921875</LongitudeDegrees>
            </Position>
            <AltitudeMeters>2711</AltitudeMeters>
            <DistanceMeters>13655.78052286</DistanceMeters>
          </Trackpoint>
          <Trackpoint>
            <Time>2018-05-01T08:22:28.000Z</Time>
            <Position>
              <LatitudeDegrees>42.7018764428794384002685546875</LatitudeDegrees>
              <LongitudeDegrees>1.2825800478458404541015625</LongitudeDegrees>
            </Position>
            <AltitudeMeters>2714.199951171875</AltitudeMeters>
            <DistanceMeters>13669.385614074</DistanceMeters>
          </Trackpoint>
          <Trackpoint>
            <Time>2018-05-01T08:22:40.000Z</Time>
            <Position>
              <LatitudeDegrees>42.70192061550915241241455078125</LatitudeDegrees>
              <LongitudeDegrees>1.28258868120610713958740234375</LongitudeDegrees>
            </Position>
            <AltitudeMeters>2717.199951171875</AltitudeMeters>
            <DistanceMeters>13674.352521447</DistanceMeters>
          </Trackpoint>
          <Trackpoint>
            <Time>2018-05-01T08:22:57.000Z</Time>
            <Position>
              <LatitudeDegrees>42.7019552327692508697509765625</LatitudeDegrees>
              <LongitudeDegrees>1.2824484519660472869873046875</LongitudeDegrees>
            </Position>
            <AltitudeMeters>2720.39990234375</AltitudeMeters>
            <DistanceMeters>13686.451926362</DistanceMeters>
          </Trackpoint>
          <Trackpoint>
            <Time>2018-05-01T08:23:05.000Z</Time>
            <Position>
              <LatitudeDegrees>42.70197945646941661834716796875</LatitudeDegrees>
              <LongitudeDegrees>1.28238919191062450408935546875</LongitudeDegrees>
            </Position>
            <AltitudeMeters>2722.199951171875</AltitudeMeters>
            <DistanceMeters>13691.997775293</DistanceMeters>
          </Trackpoint>
          <Trackpoint>
            <Time>2018-05-01T08:23:25.000Z</Time>
            <Position>
              <LatitudeDegrees>42.702061347663402557373046875</LatitudeDegrees>
              <LongitudeDegrees>1.2823270820081233978271484375</LongitudeDegrees>
            </Position>
            <AltitudeMeters>2725.39990234375</AltitudeMeters>
            <DistanceMeters>13702.43255664</DistanceMeters>
          </Trackpoint>
          <Trackpoint>
            <Time>2018-05-01T08:23:50.000Z</Time>
            <Position>
              <LatitudeDegrees>42.70218037068843841552734375</LatitudeDegrees>
              <LongitudeDegrees>1.2823904491961002349853515625</LongitudeDegrees>
            </Position>
            <AltitudeMeters>2728.199951171875</AltitudeMeters>
            <DistanceMeters>13716.658027216</DistanceMeters>
          </Trackpoint>
          <Trackpoint>
            <Time>2018-05-01T08:24:06.000Z</Time>
            <Position>
              <LatitudeDegrees>42.702279947698116302490234375</LatitudeDegrees>
              <LongitudeDegrees>1.282424814999103546142578125</LongitudeDegrees>
            </Position>
            <AltitudeMeters>2731.39990234375</AltitudeMeters>
            <DistanceMeters>13728.092074914</DistanceMeters>
          </Trackpoint>
          <Trackpoint>
            <Time>2018-05-01T08:24:17.000Z</Time>
            <Position>
              <LatitudeDegrees>42.70236519165337085723876953125</LatitudeDegrees>
              <LongitudeDegrees>1.28242858685553073883056640625</LongitudeDegrees>
            </Position>
            <AltitudeMeters>2734.60009765625</AltitudeMeters>
            <DistanceMeters>13737.584763302</DistanceMeters>
          </Trackpoint>
          <Trackpoint>
            <Time>2018-05-01T08:24:25.000Z</Time>
            <Position>
              <LatitudeDegrees>42.7024226076900959014892578125</LatitudeDegrees>
              <LongitudeDegrees>1.28242649137973785400390625</LongitudeDegrees>
            </Position>
            <AltitudeMeters>2737.60009765625</AltitudeMeters>
            <DistanceMeters>13743.97703175</DistanceMeters>
          </Trackpoint>
          <Trackpoint>
            <Time>2018-05-01T08:24:29.000Z</Time>
            <Position>
              <LatitudeDegrees>42.70244565792381763458251953125</LatitudeDegrees>
              <LongitudeDegrees>1.28243009559810161590576171875</LongitudeDegrees>
            </Position>
            <AltitudeMeters>2740.39990234375</AltitudeMeters>
            <DistanceMeters>13746.562037856</DistanceMeters>
          </Trackpoint>
          <Trackpoint>
            <Time>2018-05-01T08:24:46.000Z</Time>
            <Position>
              <LatitudeDegrees>42.702530734241008758544921875</LatitudeDegrees>
              <LongitudeDegrees>1.28239170648157596588134765625</LongitudeDegrees>
            </Position>
            <AltitudeMeters>2743.800048828125</AltitudeMeters>
            <DistanceMeters>13756.538485248</DistanceMeters>
          </Trackpoint>
          <Trackpoint>
            <Time>2018-05-01T08:27:01.000Z</Time>
            <Position>
              <LatitudeDegrees>42.702538110315799713134765625</LatitudeDegrees>
              <LongitudeDegrees>1.28224502317607402801513671875</LongitudeDegrees>
            </Position>
            <AltitudeMeters>2743.60009765625</AltitudeMeters>
            <DistanceMeters>13768.564528003</DistanceMeters>
          </Trackpoint>
          <Trackpoint>
            <Time>2018-05-01T08:27:02.000Z</Time>
            <Position>
              <LatitudeDegrees>42.70254020579159259796142578125</LatitudeDegrees>
              <LongitudeDegrees>1.28222641535103321075439453125</LongitudeDegrees>
            </Position>
            <AltitudeMeters>2743.39990234375</AltitudeMeters>
            <DistanceMeters>13770.105602337</DistanceMeters>
          </Trackpoint>
          <Trackpoint>
            <Time>2018-05-01T08:27:16.000Z</Time>
            <Position>
              <LatitudeDegrees>42.7026194147765636444091796875</LatitudeDegrees>
              <LongitudeDegrees>1.2820677459239959716796875</LongitudeDegrees>
            </Position>
            <AltitudeMeters>2743.199951171875</AltitudeMeters>
            <DistanceMeters>13785.795085562</DistanceMeters>
          </Trackpoint>
          <Trackpoint>
            <Time>2018-05-01T08:27:21.000Z</Time>
            <Position>
              <LatitudeDegrees>42.7026509307324886322021484375</LatitudeDegrees>
              <LongitudeDegrees>1.28203564323484897613525390625</LongitudeDegrees>
            </Position>
            <AltitudeMeters>2744</AltitudeMeters>
            <DistanceMeters>13790.176631239</DistanceMeters>
          </Trackpoint>
          <Trackpoint>
            <Time>2018-05-01T08:28:24.000Z</Time>
            <Position>
              <LatitudeDegrees>42.70272578112781047821044921875</LatitudeDegrees>
              <LongitudeDegrees>1.282044611871242523193359375</LongitudeDegrees>
            </Position>
            <AltitudeMeters>2745.199951171875</AltitudeMeters>
            <DistanceMeters>13798.539522011</DistanceMeters>
          </Trackpoint>
          <Trackpoint>
            <Time>2018-05-01T08:28:32.000Z</Time>
            <Position>
              <LatitudeDegrees>42.70274757407605648040771484375</LatitudeDegrees>
              <LongitudeDegrees>1.28200865350663661956787109375</LongitudeDegrees>
            </Position>
            <AltitudeMeters>2745.60009765625</AltitudeMeters>
            <DistanceMeters>13802.352450423</DistanceMeters>
          </Trackpoint>
          <Trackpoint>
            <Time>2018-05-01T08:29:09.000Z</Time>
            <Position>
              <LatitudeDegrees>42.7028824388980865478515625</LatitudeDegrees>
              <LongitudeDegrees>1.28190622664988040924072265625</LongitudeDegrees>
            </Position>
            <AltitudeMeters>2747.800048828125</AltitudeMeters>
            <DistanceMeters>13819.543095603</DistanceMeters>
          </Trackpoint>
          <Trackpoint>
            <Time>2018-05-01T08:29:28.000Z</Time>
            <Position>
              <LatitudeDegrees>42.70292275585234165191650390625</LatitudeDegrees>
              <LongitudeDegrees>1.2818939052522182464599609375</LongitudeDegrees>
            </Position>
            <AltitudeMeters>2751.199951171875</AltitudeMeters>
            <DistanceMeters>13824.141838804</DistanceMeters>
          </Trackpoint>
          <Trackpoint>
            <Time>2018-05-01T08:29:34.000Z</Time>
            <Position>
              <LatitudeDegrees>42.7029318921267986297607421875</LatitudeDegrees>
              <LongitudeDegrees>1.28189767710864543914794921875</LongitudeDegrees>
            </Position>
            <AltitudeMeters>2754.39990234375</AltitudeMeters>
            <DistanceMeters>13825.208511027</DistanceMeters>
          </Trackpoint>
          <Trackpoint>
            <Time>2018-05-01T08:29:59.000Z</Time>
            <Position>
              <LatitudeDegrees>42.7029214985668659210205078125</LatitudeDegrees>
              <LongitudeDegrees>1.2819066457450389862060546875</LongitudeDegrees>
            </Position>
            <AltitudeMeters>2751.39990234375</AltitudeMeters>
            <DistanceMeters>13826.579005792</DistanceMeters>
          </Trackpoint>
          <Trackpoint>
            <Time>2018-05-01T08:32:59.000Z</Time>
            <Position>
              <LatitudeDegrees>42.7029027231037616729736328125</LatitudeDegrees>
              <LongitudeDegrees>1.281908489763736724853515625</LongitudeDegrees>
            </Position>
            <AltitudeMeters>2750.60009765625</AltitudeMeters>
            <DistanceMeters>13828.676062593</DistanceMeters>
          </Trackpoint>
          <Trackpoint>
            <Time>2018-05-01T08:33:55.000Z</Time>
            <Position>
              <LatitudeDegrees>42.7029064111411571502685546875</LatitudeDegrees>
              <LongitudeDegrees>1.28187261521816253662109375</LongitudeDegrees>
            </Position>
            <AltitudeMeters>2754</AltitudeMeters>
            <DistanceMeters>13831.638702346</DistanceMeters>
          </Trackpoint>
          <Trackpoint>
            <Time>2018-05-01T08:34:07.000Z</Time>
            <Position>
              <LatitudeDegrees>42.70289341919124126434326171875</LatitudeDegrees>
              <LongitudeDegrees>1.2818939052522182464599609375</LongitudeDegrees>
            </Position>
            <AltitudeMeters>2752.39990234375</AltitudeMeters>
            <DistanceMeters>13833.903450328</DistanceMeters>
          </Trackpoint>
          <Trackpoint>
            <Time>2018-05-01T08:34:38.000Z</Time>
            <Position>
              <LatitudeDegrees>42.70290565676987171173095703125</LatitudeDegrees>
              <LongitudeDegrees>1.281903795897960662841796875</LongitudeDegrees>
            </Position>
            <AltitudeMeters>2751.800048828125</AltitudeMeters>
            <DistanceMeters>13835.487862285</DistanceMeters>
          </Trackpoint>
          <Trackpoint>
            <Time>2018-05-01T08:34:47.000Z</Time>
            <Position>
              <LatitudeDegrees>42.70289811305701732635498046875</LatitudeDegrees>
              <LongitudeDegrees>1.28190253861248493194580078125</LongitudeDegrees>
            </Position>
            <AltitudeMeters>2752.800048828125</AltitudeMeters>
            <DistanceMeters>13836.337807057</DistanceMeters>
          </Trackpoint>
          <Trackpoint>
            <Time>2018-05-01T08:34:59.000Z</Time>
            <Position>
              <LatitudeDegrees>42.7028997056186199188232421875</LatitudeDegrees>
              <LongitudeDegrees>1.28190220333635807037353515625</LongitudeDegrees>
            </Position>
            <AltitudeMeters>2753</AltitudeMeters>
            <DistanceMeters>13836.527860486</DistanceMeters>
          </Trackpoint>
          <Trackpoint>
            <Time>2018-05-01T08:35:13.000Z</Time>
            <Position>
              <LatitudeDegrees>42.7029047347605228424072265625</LatitudeDegrees>
              <LongitudeDegrees>1.281903125345706939697265625</LongitudeDegrees>
            </Position>
            <AltitudeMeters>2751.60009765625</AltitudeMeters>
            <DistanceMeters>13837.098020772</DistanceMeters>
          </Trackpoint>
          <Trackpoint>
            <Time>2018-05-01T08:35:58.000Z</Time>
            <Position>
              <LatitudeDegrees>42.70289115607738494873046875</LatitudeDegrees>
              <LongitudeDegrees>1.28189214505255222320556640625</LongitudeDegrees>
            </Position>
            <AltitudeMeters>2752</AltitudeMeters>
            <DistanceMeters>13838.855372798</DistanceMeters>
          </Trackpoint>
          <Trackpoint>
            <Time>2018-05-01T08:36:38.000Z</Time>
            <Position>
              <LatitudeDegrees>42.7029012143611907958984375</LatitudeDegrees>
              <LongitudeDegrees>1.28190672956407070159912109375</LongitudeDegrees>
            </Position>
            <AltitudeMeters>2751.39990234375</AltitudeMeters>
            <DistanceMeters>13840.49027421</DistanceMeters>
          </Trackpoint>
          <Trackpoint>
            <Time>2018-05-01T08:37:35.000Z</Time>
            <Position>
              <LatitudeDegrees>42.7028966881334781646728515625</LatitudeDegrees>
              <LongitudeDegrees>1.28190102986991405487060546875</LongitudeDegrees>
            </Position>
            <AltitudeMeters>2750.60009765625</AltitudeMeters>
            <DistanceMeters>13841.175521593</DistanceMeters>
          </Trackpoint>
          <Trackpoint>
            <Time>2018-05-01T08:38:35.000Z</Time>
            <Position>
              <LatitudeDegrees>42.70289425738155841827392578125</LatitudeDegrees>
              <LongitudeDegrees>1.28191041760146617889404296875</LongitudeDegrees>
            </Position>
            <AltitudeMeters>2751.199951171875</AltitudeMeters>
            <DistanceMeters>13841.987430196</DistanceMeters>
          </Trackpoint>
          <Trackpoint>
            <Time>2018-05-01T08:40:59.000Z</Time>
            <Position>
              <LatitudeDegrees>42.7028846181929111480712890625</LatitudeDegrees>
              <LongitudeDegrees>1.281882338225841522216796875</LongitudeDegrees>
            </Position>
            <AltitudeMeters>2749.199951171875</AltitudeMeters>
            <DistanceMeters>13844.523059197</DistanceMeters>
          </Trackpoint>
          <Trackpoint>
            <Time>2018-05-01T08:41:25.000Z</Time>
            <Position>
              <LatitudeDegrees>42.70284824073314666748046875</LatitudeDegrees>
              <LongitudeDegrees>1.2819160334765911102294921875</LongitudeDegrees>
            </Position>
            <AltitudeMeters>2746</AltitudeMeters>
            <DistanceMeters>13849.420393475</DistanceMeters>
          </Trackpoint>
          <Trackpoint>
            <Time>2018-05-01T08:41:41.000Z</Time>
            <Position>
              <LatitudeDegrees>42.70282200537621974945068359375</LatitudeDegrees>
              <LongitudeDegrees>1.281938664615154266357421875</LongitudeDegrees>
            </Position>
            <AltitudeMeters>2746</AltitudeMeters>
            <DistanceMeters>13852.87941809</DistanceMeters>
          </Trackpoint>
          <Trackpoint>
            <Time>2018-05-01T08:41:42.000Z</Time>
            <Position>
              <LatitudeDegrees>42.70280934870243072509765625</LatitudeDegrees>
              <LongitudeDegrees>1.281947381794452667236328125</LongitudeDegrees>
            </Position>
            <AltitudeMeters>2745.800048828125</AltitudeMeters>
            <DistanceMeters>13854.458120437</DistanceMeters>
          </Trackpoint>
          <Trackpoint>
            <Time>2018-05-01T08:41:43.000Z</Time>
            <Position>
              <LatitudeDegrees>42.7027950994670391082763671875</LatitudeDegrees>
              <LongitudeDegrees>1.2819562666118144989013671875</LongitudeDegrees>
            </Position>
            <AltitudeMeters>2745.199951171875</AltitudeMeters>
            <DistanceMeters>13856.202579024</DistanceMeters>
          </Trackpoint>
          <Trackpoint>
            <Time>2018-05-01T08:41:44.000Z</Time>
            <Position>
              <LatitudeDegrees>42.70278395153582096099853515625</LatitudeDegrees>
              <LongitudeDegrees>1.28196288831532001495361328125</LongitudeDegrees>
            </Position>
            <AltitudeMeters>2744.800048828125</AltitudeMeters>
            <DistanceMeters>13857.553162395</DistanceMeters>
          </Trackpoint>
          <Trackpoint>
            <Time>2018-05-01T08:41:45.000Z</Time>
            <Position>
              <LatitudeDegrees>42.702776491641998291015625</LatitudeDegrees>
              <LongitudeDegrees>1.2819683365523815155029296875</LongitudeDegrees>
            </Position>
            <AltitudeMeters>2744.60009765625</AltitudeMeters>
            <DistanceMeters>13858.493878872</DistanceMeters>
          </Trackpoint>
          <Trackpoint>
            <Time>2018-05-01T08:41:46.000Z</Time>
            <Position>
              <LatitudeDegrees>42.702766768634319305419921875</LatitudeDegrees>
              <LongitudeDegrees>1.2819720245897769927978515625</LongitudeDegrees>
            </Position>
            <AltitudeMeters>2744.199951171875</AltitudeMeters>
            <DistanceMeters>13859.61825012</DistanceMeters>
          </Trackpoint>
          <Trackpoint>
            <Time>2018-05-01T08:41:47.000Z</Time>
            <Position>
              <LatitudeDegrees>42.70275897346436977386474609375</LatitudeDegrees>
              <LongitudeDegrees>1.28197462297976016998291015625</LongitudeDegrees>
            </Position>
            <AltitudeMeters>2744</AltitudeMeters>
            <DistanceMeters>13860.509679717</DistanceMeters>
          </Trackpoint>
          <Trackpoint>
            <Time>2018-05-01T08:41:48.000Z</Time>
            <Position>
              <LatitudeDegrees>42.70274992100894451141357421875</LatitudeDegrees>
              <LongitudeDegrees>1.28197931684553623199462890625</LongitudeDegrees>
            </Position>
            <AltitudeMeters>2743.800048828125</AltitudeMeters>
            <DistanceMeters>13861.584784263</DistanceMeters>
          </Trackpoint>
          <Trackpoint>
            <Time>2018-05-01T08:41:49.000Z</Time>
            <Position>
              <LatitudeDegrees>42.702741958200931549072265625</LatitudeDegrees>
              <LongitudeDegrees>1.2819861061871051788330078125</LongitudeDegrees>
            </Position>
            <AltitudeMeters>2743.60009765625</AltitudeMeters>
            <DistanceMeters>13862.630078121</DistanceMeters>
          </Trackpoint>
          <Trackpoint>
            <Time>2018-05-01T08:43:54.000Z</Time>
            <Position>
              <LatitudeDegrees>42.70267926156520843505859375</LatitudeDegrees>
              <LongitudeDegrees>1.28202281892299652099609375</LongitudeDegrees>
            </Position>
            <AltitudeMeters>2742</AltitudeMeters>
            <DistanceMeters>13870.22746245</DistanceMeters>
          </Trackpoint>
          <Trackpoint>
            <Time>2018-05-01T08:46:08.000Z</Time>
            <Position>
              <LatitudeDegrees>42.70266115665435791015625</LatitudeDegrees>
              <LongitudeDegrees>1.28200463019311428070068359375</LongitudeDegrees>
            </Position>
            <AltitudeMeters>2742.199951171875</AltitudeMeters>
            <DistanceMeters>13872.732637719</DistanceMeters>
          </Trackpoint>
          <Trackpoint>
            <Time>2018-05-01T08:49:09.000Z</Time>
            <Position>
              <LatitudeDegrees>42.70268387161195278167724609375</LatitudeDegrees>
              <LongitudeDegrees>1.281996332108974456787109375</LongitudeDegrees>
            </Position>
            <AltitudeMeters>2742.800048828125</AltitudeMeters>
            <DistanceMeters>13875.352343446</DistanceMeters>
          </Trackpoint>
          <Trackpoint>
            <Time>2018-05-01T08:49:48.000Z</Time>
            <Position>
              <LatitudeDegrees>42.702658809721469879150390625</LatitudeDegrees>
              <LongitudeDegrees>1.2819837592542171478271484375</LongitudeDegrees>
            </Position>
            <AltitudeMeters>2742.60009765625</AltitudeMeters>
            <DistanceMeters>13878.324113081</DistanceMeters>
          </Trackpoint>
          <Trackpoint>
            <Time>2018-05-01T08:50:06.000Z</Time>
            <Position>
              <LatitudeDegrees>42.70263223908841609954833984375</LatitudeDegrees>
              <LongitudeDegrees>1.281903125345706939697265625</LongitudeDegrees>
            </Position>
            <AltitudeMeters>2740.199951171875</AltitudeMeters>
            <DistanceMeters>13885.551767764</DistanceMeters>
          </Trackpoint>
          <Trackpoint>
            <Time>2018-05-01T08:50:07.000Z</Time>
            <Position>
              <LatitudeDegrees>42.70263609476387500762939453125</LatitudeDegrees>
              <LongitudeDegrees>1.2819148600101470947265625</LongitudeDegrees>
            </Position>
            <AltitudeMeters>2740.199951171875</AltitudeMeters>
            <DistanceMeters>13886.601372131</DistanceMeters>
          </Trackpoint>
          <Trackpoint>
            <Time>2018-05-01T08:50:08.000Z</Time>
            <Position>
              <LatitudeDegrees>42.702640034258365631103515625</LatitudeDegrees>
              <LongitudeDegrees>1.2819270975887775421142578125</LongitudeDegrees>
            </Position>
            <AltitudeMeters>2740.39990234375</AltitudeMeters>
            <DistanceMeters>13887.697273663</DistanceMeters>
          </Trackpoint>
          <Trackpoint>
            <Time>2018-05-01T08:50:09.000Z</Time>
            <Position>
              <LatitudeDegrees>42.70264615304768085479736328125</LatitudeDegrees>
              <LongitudeDegrees>1.28193824551999568939208984375</LongitudeDegrees>
            </Position>
            <AltitudeMeters>2740.60009765625</AltitudeMeters>
            <DistanceMeters>13888.837594235</DistanceMeters>
          </Trackpoint>
          <Trackpoint>
            <Time>2018-05-01T08:50:55.000Z</Time>
            <Position>
              <LatitudeDegrees>42.70268261432647705078125</LatitudeDegrees>
              <LongitudeDegrees>1.28200043924152851104736328125</LongitudeDegrees>
            </Position>
            <AltitudeMeters>2743.800048828125</AltitudeMeters>
            <DistanceMeters>13895.345363324</DistanceMeters>
          </Trackpoint>
          <Trackpoint>
            <Time>2018-05-01T08:52:36.000Z</Time>
            <Position>
              <LatitudeDegrees>42.70266626961529254913330078125</LatitudeDegrees>
              <LongitudeDegrees>1.28202055580914020538330078125</LongitudeDegrees>
            </Position>
            <AltitudeMeters>2743.39990234375</AltitudeMeters>
            <DistanceMeters>13897.797715443</DistanceMeters>
          </Trackpoint>
          <Trackpoint>
            <Time>2018-05-01T08:54:59.000Z</Time>
            <Position>
              <LatitudeDegrees>42.7026616595685482025146484375</LatitudeDegrees>
              <LongitudeDegrees>1.28200806677341461181640625</LongitudeDegrees>
            </Position>
            <AltitudeMeters>2742.199951171875</AltitudeMeters>
            <DistanceMeters>13898.945927601</DistanceMeters>
          </Trackpoint>
          <Trackpoint>
            <Time>2018-05-01T08:58:24.000Z</Time>
            <Position>
              <LatitudeDegrees>42.7026573009788990020751953125</LatitudeDegrees>
              <LongitudeDegrees>1.28201234154403209686279296875</LongitudeDegrees>
            </Position>
            <AltitudeMeters>2742.199951171875</AltitudeMeters>
            <DistanceMeters>13899.546929313</DistanceMeters>
          </Trackpoint>
          <Trackpoint>
            <Time>2018-05-01T08:58:25.000Z</Time>
            <Position>
              <LatitudeDegrees>42.7026678621768951416015625</LatitudeDegrees>
              <LongitudeDegrees>1.28201183862984180450439453125</LongitudeDegrees>
            </Position>
            <AltitudeMeters>2742.39990234375</AltitudeMeters>
            <DistanceMeters>13900.718497331</DistanceMeters>
          </Trackpoint>
          <Trackpoint>
            <Time>2018-05-01T09:00:37.000Z</Time>
            <Position>
              <LatitudeDegrees>42.70273902453482151031494140625</LatitudeDegrees>
              <LongitudeDegrees>1.281941346824169158935546875</LongitudeDegrees>
            </Position>
            <AltitudeMeters>2743.199951171875</AltitudeMeters>
            <DistanceMeters>13910.515931311</DistanceMeters>
          </Trackpoint>
          <Trackpoint>
            <Time>2018-05-01T09:00:43.000Z</Time>
            <Position>
              <LatitudeDegrees>42.702788896858692169189453125</LatitudeDegrees>
              <LongitudeDegrees>1.281930617988109588623046875</LongitudeDegrees>
            </Position>
            <AltitudeMeters>2743.199951171875</AltitudeMeters>
            <DistanceMeters>13916.136181074</DistanceMeters>
          </Trackpoint>
          <Trackpoint>
            <Time>2018-05-01T09:00:44.000Z</Time>
            <Position>
              <LatitudeDegrees>42.70279727876186370849609375</LatitudeDegrees>
              <LongitudeDegrees>1.28192667849361896514892578125</LongitudeDegrees>
            </Position>
            <AltitudeMeters>2743.39990234375</AltitudeMeters>
            <DistanceMeters>13917.123727658</DistanceMeters>
          </Trackpoint>
          <Trackpoint>
            <Time>2018-05-01T09:00:57.000Z</Time>
            <Position>
              <LatitudeDegrees>42.70284262485802173614501953125</LatitudeDegrees>
              <LongitudeDegrees>1.28190974704921245574951171875</LongitudeDegrees>
            </Position>
            <AltitudeMeters>2746.39990234375</AltitudeMeters>
            <DistanceMeters>13922.357966087</DistanceMeters>
          </Trackpoint>
          <Trackpoint>
            <Time>2018-05-01T09:01:53.000Z</Time>
            <Position>
              <LatitudeDegrees>42.702889144420623779296875</LatitudeDegrees>
              <LongitudeDegrees>1.28191553056240081787109375</LongitudeDegrees>
            </Position>
            <AltitudeMeters>2749.60009765625</AltitudeMeters>
            <DistanceMeters>13927.557586157</DistanceMeters>
          </Trackpoint>
          <Trackpoint>
            <Time>2018-05-01T09:02:20.000Z</Time>
            <Position>
              <LatitudeDegrees>42.70291102118790149688720703125</LatitudeDegrees>
              <LongitudeDegrees>1.28186347894370555877685546875</LongitudeDegrees>
            </Position>
            <AltitudeMeters>2750.60009765625</AltitudeMeters>
            <DistanceMeters>13932.462290394</DistanceMeters>
          </Trackpoint>
          <Trackpoint>
            <Time>2018-05-01T09:02:21.000Z</Time>
            <Position>
              <LatitudeDegrees>42.70291571505367755889892578125</LatitudeDegrees>
              <LongitudeDegrees>1.28185358829796314239501953125</LongitudeDegrees>
            </Position>
            <AltitudeMeters>2750.60009765625</AltitudeMeters>
            <DistanceMeters>13933.422013165</DistanceMeters>
          </Trackpoint>
          <Trackpoint>
            <Time>2018-05-01T09:02:50.000Z</Time>
            <Position>
              <LatitudeDegrees>42.70298461429774761199951171875</LatitudeDegrees>
              <LongitudeDegrees>1.28172618336975574493408203125</LongitudeDegrees>
            </Position>
            <AltitudeMeters>2747.60009765625</AltitudeMeters>
            <DistanceMeters>13946.360660204</DistanceMeters>
          </Trackpoint>
          <Trackpoint>
            <Time>2018-05-01T09:04:16.000Z</Time>
            <Position>
              <LatitudeDegrees>42.70307932980358600616455078125</LatitudeDegrees>
              <LongitudeDegrees>1.2815576232969760894775390625</LongitudeDegrees>
            </Position>
            <AltitudeMeters>2746.39990234375</AltitudeMeters>
            <DistanceMeters>13963.716503312</DistanceMeters>
          </Trackpoint>
          <Trackpoint>
            <Time>2018-05-01T09:05:29.000Z</Time>
            <Position>
              <LatitudeDegrees>42.703149318695068359375</LatitudeDegrees>
              <LongitudeDegrees>1.2814815156161785125732421875</LongitudeDegrees>
            </Position>
            <AltitudeMeters>2743.39990234375</AltitudeMeters>
            <DistanceMeters>13973.687971194</DistanceMeters>
          </Trackpoint>
          <Trackpoint>
            <Time>2018-05-01T09:06:43.000Z</Time>
            <Position>
              <LatitudeDegrees>42.70321193151175975799560546875</LatitudeDegrees>
              <LongitudeDegrees>1.28141035325825214385986328125</LongitudeDegrees>
            </Position>
            <AltitudeMeters>2741.199951171875</AltitudeMeters>
            <DistanceMeters>13982.767871961</DistanceMeters>
          </Trackpoint>
          <Trackpoint>
            <Time>2018-05-01T09:08:21.000Z</Time>
            <Position>
              <LatitudeDegrees>42.70328803919255733489990234375</LatitudeDegrees>
              <LongitudeDegrees>1.28132653422653675079345703125</LongitudeDegrees>
            </Position>
            <AltitudeMeters>2741.199951171875</AltitudeMeters>
            <DistanceMeters>13993.665741725</DistanceMeters>
          </Trackpoint>
          <Trackpoint>
            <Time>2018-05-01T09:08:33.000Z</Time>
            <Position>
              <LatitudeDegrees>42.70329776220023632049560546875</LatitudeDegrees>
              <LongitudeDegrees>1.28134011290967464447021484375</LongitudeDegrees>
            </Position>
            <AltitudeMeters>2741.199951171875</AltitudeMeters>
            <DistanceMeters>13995.218491032</DistanceMeters>
          </Trackpoint>
          <Trackpoint>
            <Time>2018-05-01T09:11:35.000Z</Time>
            <Position>
              <LatitudeDegrees>42.7033008635044097900390625</LatitudeDegrees>
              <LongitudeDegrees>1.2813282944262027740478515625</LongitudeDegrees>
            </Position>
            <AltitudeMeters>2740.800048828125</AltitudeMeters>
            <DistanceMeters>13996.246362106</DistanceMeters>
          </Trackpoint>
          <Trackpoint>
            <Time>2018-05-01T09:14:06.000Z</Time>
            <Position>
              <LatitudeDegrees>42.70329348742961883544921875</LatitudeDegrees>
              <LongitudeDegrees>1.28132670186460018157958984375</LongitudeDegrees>
            </Position>
            <AltitudeMeters>2739.60009765625</AltitudeMeters>
            <DistanceMeters>13997.08021814</DistanceMeters>
          </Trackpoint>
          <Trackpoint>
            <Time>2018-05-01T09:16:33.000Z</Time>
            <Position>
              <LatitudeDegrees>42.70330161787569522857666015625</LatitudeDegrees>
              <LongitudeDegrees>1.2813118658959865570068359375</LongitudeDegrees>
            </Position>
            <AltitudeMeters>2739.199951171875</AltitudeMeters>
            <DistanceMeters>13998.594694755</DistanceMeters>
          </Trackpoint>
          <Trackpoint>
            <Time>2018-05-01T09:17:04.000Z</Time>
            <Position>
              <LatitudeDegrees>42.703323662281036376953125</LatitudeDegrees>
              <LongitudeDegrees>1.28127423115074634552001953125</LongitudeDegrees>
            </Position>
            <AltitudeMeters>2738.199951171875</AltitudeMeters>
            <DistanceMeters>14002.531141272</DistanceMeters>
          </Trackpoint>
          <Trackpoint>
            <Time>2018-05-01T09:19:03.000Z</Time>
            <Position>
              <LatitudeDegrees>42.70334579050540924072265625</LatitudeDegrees>
              <LongitudeDegrees>1.28124673850834369659423828125</LongitudeDegrees>
            </Position>
            <AltitudeMeters>2734.800048828125</AltitudeMeters>
            <DistanceMeters>14005.866565409</DistanceMeters>
          </Trackpoint>
          <Trackpoint>
            <Time>2018-05-01T09:19:38.000Z</Time>
            <Position>
              <LatitudeDegrees>42.7033724449574947357177734375</LatitudeDegrees>
              <LongitudeDegrees>1.28114934079349040985107421875</LongitudeDegrees>
            </Position>
            <AltitudeMeters>2731.800048828125</AltitudeMeters>
            <DistanceMeters>14014.367606627</DistanceMeters>
          </Trackpoint>
          <Trackpoint>
            <Time>2018-05-01T09:20:44.000Z</Time>
            <Position>
              <LatitudeDegrees>42.70339675247669219970703125</LatitudeDegrees>
              <LongitudeDegrees>1.281097121536731719970703125</LongitudeDegrees>
            </Position>
            <AltitudeMeters>2728.60009765625</AltitudeMeters>
            <DistanceMeters>14019.422813481</DistanceMeters>
          </Trackpoint>
          <Trackpoint>
            <Time>2018-05-01T09:21:32.000Z</Time>
            <Position>
              <LatitudeDegrees>42.7034282684326171875</LatitudeDegrees>
              <LongitudeDegrees>1.2810268811881542205810546875</LongitudeDegrees>
            </Position>
            <AltitudeMeters>2725.39990234375</AltitudeMeters>
            <DistanceMeters>14026.154300954</DistanceMeters>
          </Trackpoint>
          <Trackpoint>
            <Time>2018-05-01T09:22:10.000Z</Time>
            <Position>
              <LatitudeDegrees>42.7034242451190948486328125</LatitudeDegrees>
              <LongitudeDegrees>1.28100517205893993377685546875</LongitudeDegrees>
            </Position>
            <AltitudeMeters>2722.199951171875</AltitudeMeters>
            <DistanceMeters>14027.987109846</DistanceMeters>
          </Trackpoint>
          <Trackpoint>
            <Time>2018-05-01T09:22:34.000Z</Time>
            <Position>
              <LatitudeDegrees>42.70345735363662242889404296875</LatitudeDegrees>
              <LongitudeDegrees>1.28095286898314952850341796875</LongitudeDegrees>
            </Position>
            <AltitudeMeters>2719</AltitudeMeters>
            <DistanceMeters>14033.633008344</DistanceMeters>
          </Trackpoint>
          <Trackpoint>
            <Time>2018-05-01T09:23:03.000Z</Time>
            <Position>
              <LatitudeDegrees>42.7034894563257694244384765625</LatitudeDegrees>
              <LongitudeDegrees>1.28084910102188587188720703125</LongitudeDegrees>
            </Position>
            <AltitudeMeters>2716</AltitudeMeters>
            <DistanceMeters>14042.841288195</DistanceMeters>
          </Trackpoint>
          <Trackpoint>
            <Time>2018-05-01T09:23:37.000Z</Time>
            <Position>
              <LatitudeDegrees>42.70351770333945751190185546875</LatitudeDegrees>
              <LongitudeDegrees>1.28084306605160236358642578125</LongitudeDegrees>
            </Position>
            <AltitudeMeters>2714</AltitudeMeters>
            <DistanceMeters>14046.024328529</DistanceMeters>
          </Trackpoint>
          <Trackpoint>
            <Time>2018-05-01T09:23:52.000Z</Time>
            <Position>
              <LatitudeDegrees>42.70353329367935657501220703125</LatitudeDegrees>
              <LongitudeDegrees>1.2808102928102016448974609375</LongitudeDegrees>
            </Position>
            <AltitudeMeters>2711</AltitudeMeters>
            <DistanceMeters>14049.218696445</DistanceMeters>
          </Trackpoint>
          <Trackpoint>
            <Time>2018-05-01T09:24:10.000Z</Time>
            <Position>
              <LatitudeDegrees>42.7035474590957164764404296875</LatitudeDegrees>
              <LongitudeDegrees>1.2807482667267322540283203125</LongitudeDegrees>
            </Position>
            <AltitudeMeters>2708</AltitudeMeters>
            <DistanceMeters>14054.53085127</DistanceMeters>
          </Trackpoint>
          <Trackpoint>
            <Time>2018-05-01T09:24:31.000Z</Time>
            <Position>
              <LatitudeDegrees>42.70359925925731658935546875</LatitudeDegrees>
              <LongitudeDegrees>1.280746422708034515380859375</LongitudeDegrees>
            </Position>
            <AltitudeMeters>2704.800048828125</AltitudeMeters>
            <DistanceMeters>14060.297806406</DistanceMeters>
          </Trackpoint>
          <Trackpoint>
            <Time>2018-05-01T09:25:05.000Z</Time>
            <Position>
              <LatitudeDegrees>42.70364443771541118621826171875</LatitudeDegrees>
              <LongitudeDegrees>1.280739046633243560791015625</LongitudeDegrees>
            </Position>
            <AltitudeMeters>2701.60009765625</AltitudeMeters>
            <DistanceMeters>14065.361936845</DistanceMeters>
          </Trackpoint>
          <Trackpoint>
            <Time>2018-05-01T09:25:30.000Z</Time>
            <Position>
              <LatitudeDegrees>42.70369774661958217620849609375</LatitudeDegrees>
              <LongitudeDegrees>1.28064977936446666717529296875</LongitudeDegrees>
            </Position>
            <AltitudeMeters>2698.199951171875</AltitudeMeters>
            <DistanceMeters>14074.770061488</DistanceMeters>
          </Trackpoint>
          <Trackpoint>
            <Time>2018-05-01T09:25:47.000Z</Time>
            <Position>
              <LatitudeDegrees>42.70373328588902950286865234375</LatitudeDegrees>
              <LongitudeDegrees>1.28066369332373142242431640625</LongitudeDegrees>
            </Position>
            <AltitudeMeters>2695.199951171875</AltitudeMeters>
            <DistanceMeters>14078.887032886</DistanceMeters>
          </Trackpoint>
          <Trackpoint>
            <Time>2018-05-01T09:26:16.000Z</Time>
            <Position>
              <LatitudeDegrees>42.70377896726131439208984375</LatitudeDegrees>
              <LongitudeDegrees>1.28065765835344791412353515625</LongitudeDegrees>
            </Position>
            <AltitudeMeters>2692</AltitudeMeters>
            <DistanceMeters>14083.995547437</DistanceMeters>
          </Trackpoint>
          <Trackpoint>
            <Time>2018-05-01T09:26:47.000Z</Time>
            <Position>
              <LatitudeDegrees>42.7038116566836833953857421875</LatitudeDegrees>
              <LongitudeDegrees>1.280668638646602630615234375</LongitudeDegrees>
            </Position>
            <AltitudeMeters>2688.60009765625</AltitudeMeters>
            <DistanceMeters>14087.741577175</DistanceMeters>
          </Trackpoint>
          <Trackpoint>
            <Time>2018-05-01T09:27:19.000Z</Time>
            <Position>
              <LatitudeDegrees>42.703860439360141754150390625</LatitudeDegrees>
              <LongitudeDegrees>1.28070459701120853424072265625</LongitudeDegrees>
            </Position>
            <AltitudeMeters>2685.60009765625</AltitudeMeters>
            <DistanceMeters>14093.916120295</DistanceMeters>
          </Trackpoint>
          <Trackpoint>
            <Time>2018-05-01T09:28:04.000Z</Time>
            <Position>
              <LatitudeDegrees>42.703880555927753448486328125</LatitudeDegrees>
              <LongitudeDegrees>1.28071884624660015106201171875</LongitudeDegrees>
            </Position>
            <AltitudeMeters>2683.199951171875</AltitudeMeters>
            <DistanceMeters>14096.441042862</DistanceMeters>
          </Trackpoint>
          <Trackpoint>
            <Time>2018-05-01T09:28:19.000Z</Time>
            <Position>
              <LatitudeDegrees>42.70387024618685245513916015625</LatitudeDegrees>
              <LongitudeDegrees>1.2807480990886688232421875</LongitudeDegrees>
            </Position>
            <AltitudeMeters>2682.60009765625</AltitudeMeters>
            <DistanceMeters>14099.094994562</DistanceMeters>
          </Trackpoint>
          <Trackpoint>
            <Time>2018-05-01T09:28:43.000Z</Time>
            <Position>
              <LatitudeDegrees>42.70387711934745311737060546875</LatitudeDegrees>
              <LongitudeDegrees>1.28077022731304168701171875</LongitudeDegrees>
            </Position>
            <AltitudeMeters>2681.800048828125</AltitudeMeters>
            <DistanceMeters>14101.060922516</DistanceMeters>
          </Trackpoint>
          <Trackpoint>
            <Time>2018-05-01T09:29:06.000Z</Time>
            <Position>
              <LatitudeDegrees>42.70387284457683563232421875</LatitudeDegrees>
              <LongitudeDegrees>1.2807603366672992706298828125</LongitudeDegrees>
            </Position>
            <AltitudeMeters>2681.39990234375</AltitudeMeters>
            <DistanceMeters>14102.001638993</DistanceMeters>
          </Trackpoint>
          <Trackpoint>
            <Time>2018-05-01T09:31:32.000Z</Time>
            <Position>
              <LatitudeDegrees>42.70387443713843822479248046875</LatitudeDegrees>
              <LongitudeDegrees>1.280867122113704681396484375</LongitudeDegrees>
            </Position>
            <AltitudeMeters>2679.60009765625</AltitudeMeters>
            <DistanceMeters>14110.736863429</DistanceMeters>
          </Trackpoint>
          <Trackpoint>
            <Time>2018-05-01T09:31:34.000Z</Time>
            <Position>
              <LatitudeDegrees>42.70386806689202785491943359375</LatitudeDegrees>
              <LongitudeDegrees>1.2808760069310665130615234375</LongitudeDegrees>
            </Position>
            <AltitudeMeters>2679.60009765625</AltitudeMeters>
            <DistanceMeters>14111.751471095</DistanceMeters>
          </Trackpoint>
          <Trackpoint>
            <Time>2018-05-01T09:32:12.000Z</Time>
            <Position>
              <LatitudeDegrees>42.70389472134411334991455078125</LatitudeDegrees>
              <LongitudeDegrees>1.28088598139584064483642578125</LongitudeDegrees>
            </Position>
            <AltitudeMeters>2678.800048828125</AltitudeMeters>
            <DistanceMeters>14114.824817798</DistanceMeters>
          </Trackpoint>
          <Trackpoint>
            <Time>2018-05-01T09:32:54.000Z</Time>
            <Position>
              <LatitudeDegrees>42.7038911171257495880126953125</LatitudeDegrees>
              <LongitudeDegrees>1.28092420287430286407470703125</LongitudeDegrees>
            </Position>
            <AltitudeMeters>2675.60009765625</AltitudeMeters>
            <DistanceMeters>14117.975064457</DistanceMeters>
          </Trackpoint>
          <Trackpoint>
            <Time>2018-05-01T09:33:51.000Z</Time>
            <Position>
              <LatitudeDegrees>42.70395842380821704864501953125</LatitudeDegrees>
              <LongitudeDegrees>1.28095529973506927490234375</LongitudeDegrees>
            </Position>
            <AltitudeMeters>2672.199951171875</AltitudeMeters>
            <DistanceMeters>14125.886858812</DistanceMeters>
          </Trackpoint>
          <Trackpoint>
            <Time>2018-05-01T09:33:58.000Z</Time>
            <Position>
              <LatitudeDegrees>42.703996561467647552490234375</LatitudeDegrees>
              <LongitudeDegrees>1.280962340533733367919921875</LongitudeDegrees>
            </Position>
            <AltitudeMeters>2669.199951171875</AltitudeMeters>
            <DistanceMeters>14130.170445549</DistanceMeters>
          </Trackpoint>
          <Trackpoint>
            <Time>2018-05-01T09:34:02.000Z</Time>
            <Position>
              <LatitudeDegrees>42.7040289156138896942138671875</LatitudeDegrees>
              <LongitudeDegrees>1.28097684122622013092041015625</LongitudeDegrees>
            </Position>
            <AltitudeMeters>2667.60009765625</AltitudeMeters>
            <DistanceMeters>14133.961999544</DistanceMeters>
          </Trackpoint>
          <Trackpoint>
            <Time>2018-05-01T09:34:09.000Z</Time>
            <Position>
              <LatitudeDegrees>42.7040624432265758514404296875</LatitudeDegrees>
              <LongitudeDegrees>1.28099477849900722503662109375</LongitudeDegrees>
            </Position>
            <AltitudeMeters>2664.60009765625</AltitudeMeters>
            <DistanceMeters>14137.971181016</DistanceMeters>
          </Trackpoint>
          <Trackpoint>
            <Time>2018-05-01T09:36:30.000Z</Time>
            <Position>
              <LatitudeDegrees>42.70408339798450469970703125</LatitudeDegrees>
              <LongitudeDegrees>1.2810292281210422515869140625</LongitudeDegrees>
            </Position>
            <AltitudeMeters>2662.199951171875</AltitudeMeters>
            <DistanceMeters>14141.628166552</DistanceMeters>
          </Trackpoint>
          <Trackpoint>
            <Time>2018-05-01T09:38:36.000Z</Time>
            <Position>
              <LatitudeDegrees>42.704090774059295654296875</LatitudeDegrees>
              <LongitudeDegrees>1.281007267534732818603515625</LongitudeDegrees>
            </Position>
            <AltitudeMeters>2663.39990234375</AltitudeMeters>
            <DistanceMeters>14143.60325972</DistanceMeters>
          </Trackpoint>
          <Trackpoint>
            <Time>2018-05-01T09:41:18.000Z</Time>
            <Position>
              <LatitudeDegrees>42.70407359115779399871826171875</LatitudeDegrees>
              <LongitudeDegrees>1.281023360788822174072265625</LongitudeDegrees>
            </Position>
            <AltitudeMeters>2662.39990234375</AltitudeMeters>
            <DistanceMeters>14145.923157468</DistanceMeters>
          </Trackpoint>
          <Trackpoint>
            <Time>2018-05-01T09:42:35.000Z</Time>
            <Position>
              <LatitudeDegrees>42.7040771953761577606201171875</LatitudeDegrees>
              <LongitudeDegrees>1.2810352630913257598876953125</LongitudeDegrees>
            </Position>
            <AltitudeMeters>2663.60009765625</AltitudeMeters>
            <DistanceMeters>14146.972761835</DistanceMeters>
          </Trackpoint>
          <Trackpoint>
            <Time>2018-05-01T09:45:05.000Z</Time>
            <Position>
              <LatitudeDegrees>42.70407828502357006072998046875</LatitudeDegrees>
              <LongitudeDegrees>1.281011290848255157470703125</LongitudeDegrees>
            </Position>
            <AltitudeMeters>2663</AltitudeMeters>
            <DistanceMeters>14148.938689788</DistanceMeters>
          </Trackpoint>
          <Trackpoint>
            <Time>2018-05-01T09:45:18.000Z</Time>
            <Position>
              <LatitudeDegrees>42.70409421063959598541259765625</LatitudeDegrees>
              <LongitudeDegrees>1.2809997238218784332275390625</LongitudeDegrees>
            </Position>
            <AltitudeMeters>2664.39990234375</AltitudeMeters>
            <DistanceMeters>14150.945531609</DistanceMeters>
          </Trackpoint>
          <Trackpoint>
            <Time>2018-05-01T09:45:49.000Z</Time>
            <Position>
              <LatitudeDegrees>42.70410929806530475616455078125</LatitudeDegrees>
              <LongitudeDegrees>1.28100098110735416412353515625</LongitudeDegrees>
            </Position>
            <AltitudeMeters>2662.60009765625</AltitudeMeters>
            <DistanceMeters>14152.629409278</DistanceMeters>
          </Trackpoint>
          <Trackpoint>
            <Time>2018-05-01T09:45:50.000Z</Time>
            <Position>
              <LatitudeDegrees>42.70412757061421871185302734375</LatitudeDegrees>
              <LongitudeDegrees>1.2809786014258861541748046875</LongitudeDegrees>
            </Position>
            <AltitudeMeters>2662.199951171875</AltitudeMeters>
            <DistanceMeters>14155.367102367</DistanceMeters>
          </Trackpoint>
          <Trackpoint>
            <Time>2018-05-01T09:45:51.000Z</Time>
            <Position>
              <LatitudeDegrees>42.7041415683925151824951171875</LatitudeDegrees>
              <LongitudeDegrees>1.280969716608524322509765625</LongitudeDegrees>
            </Position>
            <AltitudeMeters>2661.60009765625</AltitudeMeters>
            <DistanceMeters>14157.082854365</DistanceMeters>
          </Trackpoint>
          <Trackpoint>
            <Time>2018-05-01T09:45:58.000Z</Time>
            <Position>
              <LatitudeDegrees>42.70415606908500194549560546875</LatitudeDegrees>
              <LongitudeDegrees>1.2809832952916622161865234375</LongitudeDegrees>
            </Position>
            <AltitudeMeters>2658.39990234375</AltitudeMeters>
            <DistanceMeters>14159.04418365</DistanceMeters>
          </Trackpoint>
          <Trackpoint>
            <Time>2018-05-01T09:47:12.000Z</Time>
            <Position>
              <LatitudeDegrees>42.704143412411212921142578125</LatitudeDegrees>
              <LongitudeDegrees>1.28100668080151081085205078125</LongitudeDegrees>
            </Position>
            <AltitudeMeters>2658.60009765625</AltitudeMeters>
            <DistanceMeters>14161.41985151</DistanceMeters>
          </Trackpoint>
          <Trackpoint>
            <Time>2018-05-01T09:47:13.000Z</Time>
            <Position>
              <LatitudeDegrees>42.70417417399585247039794921875</LatitudeDegrees>
              <LongitudeDegrees>1.28099762834608554840087890625</LongitudeDegrees>
            </Position>
            <AltitudeMeters>2658.60009765625</AltitudeMeters>
            <DistanceMeters>14164.921685859</DistanceMeters>
          </Trackpoint>
          <Trackpoint>
            <Time>2018-05-01T09:47:14.000Z</Time>
            <Position>
              <LatitudeDegrees>42.70419429056346416473388671875</LatitudeDegrees>
              <LongitudeDegrees>1.28096795640885829925537109375</LongitudeDegrees>
            </Position>
            <AltitudeMeters>2658</AltitudeMeters>
            <DistanceMeters>14168.224462319</DistanceMeters>
          </Trackpoint>
          <Trackpoint>
            <Time>2018-05-01T09:47:15.000Z</Time>
            <Position>
              <LatitudeDegrees>42.704215161502361297607421875</LatitudeDegrees>
              <LongitudeDegrees>1.280922107398509979248046875</LongitudeDegrees>
            </Position>
            <AltitudeMeters>2656.800048828125</AltitudeMeters>
            <DistanceMeters>14172.634766692</DistanceMeters>
          </Trackpoint>
          <Trackpoint>
            <Time>2018-05-01T09:47:16.000Z</Time>
            <Position>
              <LatitudeDegrees>42.70424474962055683135986328125</LatitudeDegrees>
              <LongitudeDegrees>1.280880533158779144287109375</LongitudeDegrees>
            </Position>
            <AltitudeMeters>2655.199951171875</AltitudeMeters>
            <DistanceMeters>14177.368012899</DistanceMeters>
          </Trackpoint>
          <Trackpoint>
            <Time>2018-05-01T09:47:17.000Z</Time>
            <Position>
              <LatitudeDegrees>42.70427928306162357330322265625</LatitudeDegrees>
              <LongitudeDegrees>1.28083166666328907012939453125</LongitudeDegrees>
            </Position>
            <AltitudeMeters>2653.39990234375</AltitudeMeters>
            <DistanceMeters>14182.912233332</DistanceMeters>
          </Trackpoint>
          <Trackpoint>
            <Time>2018-05-01T09:47:18.000Z</Time>
            <Position>
              <LatitudeDegrees>42.70431431941688060760498046875</LatitudeDegrees>
              <LongitudeDegrees>1.28077735193073749542236328125</LongitudeDegrees>
            </Position>
            <AltitudeMeters>2650.800048828125</AltitudeMeters>
            <DistanceMeters>14188.823781001</DistanceMeters>
          </Trackpoint>
          <Trackpoint>
            <Time>2018-05-01T09:47:19.000Z</Time>
            <Position>
              <LatitudeDegrees>42.704354636371135711669921875</LatitudeDegrees>
              <LongitudeDegrees>1.28074047155678272247314453125</LongitudeDegrees>
            </Position>
            <AltitudeMeters>2647.60009765625</AltitudeMeters>
            <DistanceMeters>14194.231126702</DistanceMeters>
          </Trackpoint>
          <Trackpoint>
            <Time>2018-05-01T09:47:20.000Z</Time>
            <Position>
              <LatitudeDegrees>42.70439612679183483123779296875</LatitudeDegrees>
              <LongitudeDegrees>1.28070577047765254974365234375</LongitudeDegrees>
            </Position>
            <AltitudeMeters>2644.39990234375</AltitudeMeters>
            <DistanceMeters>14199.651815657</DistanceMeters>
          </Trackpoint>
          <Trackpoint>
            <Time>2018-05-01T09:47:21.000Z</Time>
            <Position>
              <LatitudeDegrees>42.70442403852939605712890625</LatitudeDegrees>
              <LongitudeDegrees>1.2806661240756511688232421875</LongitudeDegrees>
            </Position>
            <AltitudeMeters>2641.60009765625</AltitudeMeters>
            <DistanceMeters>14204.14327319</DistanceMeters>
          </Trackpoint>
          <Trackpoint>
            <Time>2018-05-01T09:47:22.000Z</Time>
            <Position>
              <LatitudeDegrees>42.704433761537075042724609375</LatitudeDegrees>
              <LongitudeDegrees>1.2806349433958530426025390625</LongitudeDegrees>
            </Position>
            <AltitudeMeters>2639</AltitudeMeters>
            <DistanceMeters>14206.913754191</DistanceMeters>
          </Trackpoint>
          <Trackpoint>
            <Time>2018-05-01T09:47:24.000Z</Time>
            <Position>
              <LatitudeDegrees>42.70443216897547245025634765625</LatitudeDegrees>
              <LongitudeDegrees>1.2806168384850025177001953125</LongitudeDegrees>
            </Position>
            <AltitudeMeters>2634.800048828125</AltitudeMeters>
            <DistanceMeters>14208.407216237</DistanceMeters>
          </Trackpoint>
          <Trackpoint>
            <Time>2018-05-01T09:47:27.000Z</Time>
            <Position>
              <LatitudeDegrees>42.70445195026695728302001953125</LatitudeDegrees>
              <LongitudeDegrees>1.28060149960219860076904296875</LongitudeDegrees>
            </Position>
            <AltitudeMeters>2632.800048828125</AltitudeMeters>
            <DistanceMeters>14210.939281456</DistanceMeters>
          </Trackpoint>
          <Trackpoint>
            <Time>2018-05-01T09:47:28.000Z</Time>
            <Position>
              <LatitudeDegrees>42.70446988753974437713623046875</LatitudeDegrees>
              <LongitudeDegrees>1.28060284070670604705810546875</LongitudeDegrees>
            </Position>
            <AltitudeMeters>2632</AltitudeMeters>
            <DistanceMeters>14212.937103718</DistanceMeters>
          </Trackpoint>
          <Trackpoint>
            <Time>2018-05-01T09:47:29.000Z</Time>
            <Position>
              <LatitudeDegrees>42.70449855364859104156494140625</LatitudeDegrees>
              <LongitudeDegrees>1.28061708994209766387939453125</LongitudeDegrees>
            </Position>
            <AltitudeMeters>2630.60009765625</AltitudeMeters>
            <DistanceMeters>14216.33422569</DistanceMeters>
          </Trackpoint>
          <Trackpoint>
            <Time>2018-05-01T09:47:30.000Z</Time>
            <Position>
              <LatitudeDegrees>42.70452571101486682891845703125</LatitudeDegrees>
              <LongitudeDegrees>1.2806413136422634124755859375</LongitudeDegrees>
            </Position>
            <AltitudeMeters>2629.199951171875</AltitudeMeters>
            <DistanceMeters>14219.947740674</DistanceMeters>
          </Trackpoint>
          <Trackpoint>
            <Time>2018-05-01T09:47:31.000Z</Time>
            <Position>
              <LatitudeDegrees>42.70455739460885524749755859375</LatitudeDegrees>
              <LongitudeDegrees>1.28065891563892364501953125</LongitudeDegrees>
            </Position>
            <AltitudeMeters>2628</AltitudeMeters>
            <DistanceMeters>14223.757115012</DistanceMeters>
          </Trackpoint>
          <Trackpoint>
            <Time>2018-05-01T09:47:32.000Z</Time>
            <Position>
              <LatitudeDegrees>42.704596035182476043701171875</LatitudeDegrees>
              <LongitudeDegrees>1.2806688062846660614013671875</LongitudeDegrees>
            </Position>
            <AltitudeMeters>2627.199951171875</AltitudeMeters>
            <DistanceMeters>14228.132473518</DistanceMeters>
          </Trackpoint>
          <Trackpoint>
            <Time>2018-05-01T09:47:33.000Z</Time>
            <Position>
              <LatitudeDegrees>42.70462931133806705474853515625</LatitudeDegrees>
              <LongitudeDegrees>1.28064961172640323638916015625</LongitudeDegrees>
            </Position>
            <AltitudeMeters>2626</AltitudeMeters>
            <DistanceMeters>14232.155146385</DistanceMeters>
          </Trackpoint>
          <Trackpoint>
            <Time>2018-05-01T09:47:34.000Z</Time>
            <Position>
              <LatitudeDegrees>42.7046542055904865264892578125</LatitudeDegrees>
              <LongitudeDegrees>1.28059227950870990753173828125</LongitudeDegrees>
            </Position>
            <AltitudeMeters>2624.60009765625</AltitudeMeters>
            <DistanceMeters>14237.601594871</DistanceMeters>
          </Trackpoint>
          <Trackpoint>
            <Time>2018-05-01T09:47:35.000Z</Time>
            <Position>
              <LatitudeDegrees>42.70468865521252155303955078125</LatitudeDegrees>
              <LongitudeDegrees>1.28054383210837841033935546875</LongitudeDegrees>
            </Position>
            <AltitudeMeters>2622.60009765625</AltitudeMeters>
            <DistanceMeters>14243.114782453</DistanceMeters>
          </Trackpoint>
          <Trackpoint>
            <Time>2018-05-01T09:47:36.000Z</Time>
            <Position>
              <LatitudeDegrees>42.70470826886594295501708984375</LatitudeDegrees>
              <LongitudeDegrees>1.28048096783459186553955078125</LongitudeDegrees>
            </Position>
            <AltitudeMeters>2620.199951171875</AltitudeMeters>
            <DistanceMeters>14248.700381267</DistanceMeters>
          </Trackpoint>
          <Trackpoint>
            <Time>2018-05-01T09:47:37.000Z</Time>
            <Position>
              <LatitudeDegrees>42.70472310483455657958984375</LatitudeDegrees>
              <LongitudeDegrees>1.2804025970399379730224609375</LongitudeDegrees>
            </Position>
            <AltitudeMeters>2617.39990234375</AltitudeMeters>
            <DistanceMeters>14255.319590503</DistanceMeters>
          </Trackpoint>
          <Trackpoint>
            <Time>2018-05-01T09:47:38.000Z</Time>
            <Position>
              <LatitudeDegrees>42.7047397010028362274169921875</LatitudeDegrees>
              <LongitudeDegrees>1.28035272471606731414794921875</LongitudeDegrees>
            </Position>
            <AltitudeMeters>2615.199951171875</AltitudeMeters>
            <DistanceMeters>14259.798968792</DistanceMeters>
          </Trackpoint>
          <Trackpoint>
            <Time>2018-05-01T09:47:39.000Z</Time>
            <Position>
              <LatitudeDegrees>42.704751603305339813232421875</LatitudeDegrees>
              <LongitudeDegrees>1.2803546525537967681884765625</LongitudeDegrees>
            </Position>
            <AltitudeMeters>2611.199951171875</AltitudeMeters>
            <DistanceMeters>14261.136113188</DistanceMeters>
          </Trackpoint>
          <Trackpoint>
            <Time>2018-05-01T09:47:42.000Z</Time>
            <Position>
              <LatitudeDegrees>42.704750597476959228515625</LatitudeDegrees>
              <LongitudeDegrees>1.28035155124962329864501953125</LongitudeDegrees>
            </Position>
            <AltitudeMeters>2609.800048828125</AltitudeMeters>
            <DistanceMeters>14261.436614044</DistanceMeters>
          </Trackpoint>
          <Trackpoint>
            <Time>2018-05-01T09:47:59.000Z</Time>
            <Position>
              <LatitudeDegrees>42.70471983589231967926025390625</LatitudeDegrees>
              <LongitudeDegrees>1.28030410967767238616943359375</LongitudeDegrees>
            </Position>
            <AltitudeMeters>2609.60009765625</AltitudeMeters>
            <DistanceMeters>14266.611863481</DistanceMeters>
          </Trackpoint>
          <Trackpoint>
            <Time>2018-05-01T09:48:58.000Z</Time>
            <Position>
              <LatitudeDegrees>42.70472754724323749542236328125</LatitudeDegrees>
              <LongitudeDegrees>1.280216015875339508056640625</LongitudeDegrees>
            </Position>
            <AltitudeMeters>2609.39990234375</AltitudeMeters>
            <DistanceMeters>14273.868196973</DistanceMeters>
          </Trackpoint>
          <Trackpoint>
            <Time>2018-05-01T09:49:01.000Z</Time>
            <Position>
              <LatitudeDegrees>42.7047226019203662872314453125</LatitudeDegrees>
              <LongitudeDegrees>1.2802465260028839111328125</LongitudeDegrees>
            </Position>
            <AltitudeMeters>2609.199951171875</AltitudeMeters>
            <DistanceMeters>14276.423337922</DistanceMeters>
          </Trackpoint>
          <Trackpoint>
            <Time>2018-05-01T09:49:47.000Z</Time>
            <Position>
              <LatitudeDegrees>42.7047209255397319793701171875</LatitudeDegrees>
              <LongitudeDegrees>1.28024862147867679595947265625</LongitudeDegrees>
            </Position>
            <AltitudeMeters>2609.60009765625</AltitudeMeters>
            <DistanceMeters>14276.674754976</DistanceMeters>
          </Trackpoint>
          <Trackpoint>
            <Time>2018-05-01T09:50:02.000Z</Time>
            <Position>
              <LatitudeDegrees>42.70474062301218509674072265625</LatitudeDegrees>
              <LongitudeDegrees>1.2803130783140659332275390625</LongitudeDegrees>
            </Position>
            <AltitudeMeters>2609.60009765625</AltitudeMeters>
            <DistanceMeters>14282.384271239</DistanceMeters>
          </Trackpoint>
          <Trackpoint>
            <Time>2018-05-01T09:50:04.000Z</Time>
            <Position>
              <LatitudeDegrees>42.70474179647862911224365234375</LatitudeDegrees>
              <LongitudeDegrees>1.280321292579174041748046875</LongitudeDegrees>
            </Position>
            <AltitudeMeters>2609.800048828125</AltitudeMeters>
            <DistanceMeters>14283.069518622</DistanceMeters>
          </Trackpoint>
          <Trackpoint>
            <Time>2018-05-01T09:50:13.000Z</Time>
            <Position>
              <LatitudeDegrees>42.7047668583691120147705078125</LatitudeDegrees>
              <LongitudeDegrees>1.28034702502191066741943359375</LongitudeDegrees>
            </Position>
            <AltitudeMeters>2609.199951171875</AltitudeMeters>
            <DistanceMeters>14286.563608396</DistanceMeters>
          </Trackpoint>
          <Trackpoint>
            <Time>2018-05-01T09:50:14.000Z</Time>
            <Position>
              <LatitudeDegrees>42.7047876454889774322509765625</LatitudeDegrees>
              <LongitudeDegrees>1.28032322041690349578857421875</LongitudeDegrees>
            </Position>
            <AltitudeMeters>2609.199951171875</AltitudeMeters>
            <DistanceMeters>14289.58808644</DistanceMeters>
          </Trackpoint>
          <Trackpoint>
            <Time>2018-05-01T09:50:15.000Z</Time>
            <Position>
              <LatitudeDegrees>42.70480533130466938018798828125</LatitudeDegrees>
              <LongitudeDegrees>1.28028248436748981475830078125</LongitudeDegrees>
            </Position>
            <AltitudeMeters>2607.800048828125</AltitudeMeters>
            <DistanceMeters>14293.458602791</DistanceMeters>
          </Trackpoint>
          <Trackpoint>
            <Time>2018-05-01T09:50:16.000Z</Time>
            <Position>
              <LatitudeDegrees>42.70483843982219696044921875</LatitudeDegrees>
              <LongitudeDegrees>1.2802316062152385711669921875</LongitudeDegrees>
            </Position>
            <AltitudeMeters>2606.60009765625</AltitudeMeters>
            <DistanceMeters>14299.017462529</DistanceMeters>
          </Trackpoint>
          <Trackpoint>
            <Time>2018-05-01T09:50:17.000Z</Time>
            <Position>
              <LatitudeDegrees>42.70487842150032520294189453125</LatitudeDegrees>
              <LongitudeDegrees>1.2801714241504669189453125</LongitudeDegrees>
            </Position>
            <AltitudeMeters>2605</AltitudeMeters>
            <DistanceMeters>14305.653022245</DistanceMeters>
          </Trackpoint>
          <Trackpoint>
            <Time>2018-05-01T09:50:18.000Z</Time>
            <Position>
              <LatitudeDegrees>42.7049016393721103668212890625</LatitudeDegrees>
              <LongitudeDegrees>1.280111409723758697509765625</LongitudeDegrees>
            </Position>
            <AltitudeMeters>2602.800048828125</AltitudeMeters>
            <DistanceMeters>14311.200499196</DistanceMeters>
          </Trackpoint>
          <Trackpoint>
            <Time>2018-05-01T09:50:19.000Z</Time>
            <Position>
              <LatitudeDegrees>42.70492427051067352294921875</LatitudeDegrees>
              <LongitudeDegrees>1.28005675971508026123046875</LongitudeDegrees>
            </Position>
            <AltitudeMeters>2598.60009765625</AltitudeMeters>
            <DistanceMeters>14316.331941772</DistanceMeters>
          </Trackpoint>
          <Trackpoint>
            <Time>2018-05-01T09:50:20.000Z</Time>
            <Position>
              <LatitudeDegrees>42.7049515955150127410888671875</LatitudeDegrees>
              <LongitudeDegrees>1.28004142083227634429931640625</LongitudeDegrees>
            </Position>
            <AltitudeMeters>2596</AltitudeMeters>
            <DistanceMeters>14319.62101939</DistanceMeters>
          </Trackpoint>
          <Trackpoint>
            <Time>2018-05-01T09:50:21.000Z</Time>
            <Position>
              <LatitudeDegrees>42.7049733884632587432861328125</LatitudeDegrees>
              <LongitudeDegrees>1.28005131147801876068115234375</LongitudeDegrees>
            </Position>
            <AltitudeMeters>2594</AltitudeMeters>
            <DistanceMeters>14322.176160339</DistanceMeters>
          </Trackpoint>
          <Trackpoint>
            <Time>2018-05-01T09:50:22.000Z</Time>
            <Position>
              <LatitudeDegrees>42.704982273280620574951171875</LatitudeDegrees>
              <LongitudeDegrees>1.28006078302860260009765625</LongitudeDegrees>
            </Position>
            <AltitudeMeters>2592.800048828125</AltitudeMeters>
            <DistanceMeters>14323.429648792</DistanceMeters>
          </Trackpoint>
          <Trackpoint>
            <Time>2018-05-01T09:50:36.000Z</Time>
            <Position>
              <LatitudeDegrees>42.7049938403069972991943359375</LatitudeDegrees>
              <LongitudeDegrees>1.2800435163080692291259765625</LongitudeDegrees>
            </Position>
            <AltitudeMeters>2589.60009765625</AltitudeMeters>
            <DistanceMeters>14325.339662112</DistanceMeters>
          </Trackpoint>
          <Trackpoint>
            <Time>2018-05-01T09:50:49.000Z</Time>
            <Position>
              <LatitudeDegrees>42.70504052750766277313232421875</LatitudeDegrees>
              <LongitudeDegrees>1.28002591431140899658203125</LongitudeDegrees>
            </Position>
            <AltitudeMeters>2589.199951171875</AltitudeMeters>
            <DistanceMeters>14330.732794432</DistanceMeters>
          </Trackpoint>
          <Trackpoint>
            <Time>2018-05-01T09:50:50.000Z</Time>
            <Position>
              <LatitudeDegrees>42.70505444146692752838134765625</LatitudeDegrees>
              <LongitudeDegrees>1.2799915485084056854248046875</LongitudeDegrees>
            </Position>
            <AltitudeMeters>2588.800048828125</AltitudeMeters>
            <DistanceMeters>14333.942672502</DistanceMeters>
          </Trackpoint>
          <Trackpoint>
            <Time>2018-05-01T09:50:52.000Z</Time>
            <Position>
              <LatitudeDegrees>42.7051007933914661407470703125</LatitudeDegrees>
              <LongitudeDegrees>1.27992055378854274749755859375</LongitudeDegrees>
            </Position>
            <AltitudeMeters>2585.39990234375</AltitudeMeters>
            <DistanceMeters>14341.710488849</DistanceMeters>
          </Trackpoint>
          <Trackpoint>
            <Time>2018-05-01T09:50:53.000Z</Time>
            <Position>
              <LatitudeDegrees>42.70511579699814319610595703125</LatitudeDegrees>
              <LongitudeDegrees>1.27987260930240154266357421875</LongitudeDegrees>
            </Position>
            <AltitudeMeters>2583.39990234375</AltitudeMeters>
            <DistanceMeters>14345.972942814</DistanceMeters>
          </Trackpoint>
          <Trackpoint>
            <Time>2018-05-01T09:50:54.000Z</Time>
            <Position>
              <LatitudeDegrees>42.7051447145640850067138671875</LatitudeDegrees>
              <LongitudeDegrees>1.27984008751809597015380859375</LongitudeDegrees>
            </Position>
            <AltitudeMeters>2581.199951171875</AltitudeMeters>
            <DistanceMeters>14350.148715511</DistanceMeters>
          </Trackpoint>
          <Trackpoint>
            <Time>2018-05-01T09:50:55.000Z</Time>
            <Position>
              <LatitudeDegrees>42.70518050529062747955322265625</LatitudeDegrees>
              <LongitudeDegrees>1.27982902340590953826904296875</LongitudeDegrees>
            </Position>
            <AltitudeMeters>2579</AltitudeMeters>
            <DistanceMeters>14354.233759117</DistanceMeters>
          </Trackpoint>
          <Trackpoint>
            <Time>2018-05-01T09:50:56.000Z</Time>
            <Position>
              <LatitudeDegrees>42.70519844256341457366943359375</LatitudeDegrees>
              <LongitudeDegrees>1.2798011116683483123779296875</LongitudeDegrees>
            </Position>
            <AltitudeMeters>2577.199951171875</AltitudeMeters>
            <DistanceMeters>14357.265692135</DistanceMeters>
          </Trackpoint>
          <Trackpoint>
            <Time>2018-05-01T09:50:57.000Z</Time>
            <Position>
              <LatitudeDegrees>42.70520397461950778961181640625</LatitudeDegrees>
              <LongitudeDegrees>1.2797649018466472625732421875</LongitudeDegrees>
            </Position>
            <AltitudeMeters>2575.39990234375</AltitudeMeters>
            <DistanceMeters>14360.288676978</DistanceMeters>
          </Trackpoint>
          <Trackpoint>
            <Time>2018-05-01T09:50:58.000Z</Time>
            <Position>
              <LatitudeDegrees>42.70525292493402957916259765625</LatitudeDegrees>
              <LongitudeDegrees>1.2798400036990642547607421875</LongitudeDegrees>
            </Position>
            <AltitudeMeters>2574</AltitudeMeters>
            <DistanceMeters>14368.499556999</DistanceMeters>
          </Trackpoint>
          <Trackpoint>
            <Time>2018-05-01T09:50:59.000Z</Time>
            <Position>
              <LatitudeDegrees>42.70528511144220829010009765625</LatitudeDegrees>
              <LongitudeDegrees>1.27985249273478984832763671875</LongitudeDegrees>
            </Position>
            <AltitudeMeters>2572.39990234375</AltitudeMeters>
            <DistanceMeters>14372.226252261</DistanceMeters>
          </Trackpoint>
          <Trackpoint>
            <Time>2018-05-01T09:51:00.000Z</Time>
            <Position>
              <LatitudeDegrees>42.70531428046524524688720703125</LatitudeDegrees>
              <LongitudeDegrees>1.2798648141324520111083984375</LongitudeDegrees>
            </Position>
            <AltitudeMeters>2571.39990234375</AltitudeMeters>
            <DistanceMeters>14375.626031349</DistanceMeters>
          </Trackpoint>
          <Trackpoint>
            <Time>2018-05-01T09:51:01.000Z</Time>
            <Position>
              <LatitudeDegrees>42.70532567985355854034423828125</LatitudeDegrees>
              <LongitudeDegrees>1.27984779886901378631591796875</LongitudeDegrees>
            </Position>
            <AltitudeMeters>2570.39990234375</AltitudeMeters>
            <DistanceMeters>14377.507464304</DistanceMeters>
          </Trackpoint>
          <Trackpoint>
            <Time>2018-05-01T09:51:02.000Z</Time>
            <Position>
              <LatitudeDegrees>42.70533925853669643402099609375</LatitudeDegrees>
              <LongitudeDegrees>1.2798353098332881927490234375</LongitudeDegrees>
            </Position>
            <AltitudeMeters>2569.39990234375</AltitudeMeters>
            <DistanceMeters>14379.330392754</DistanceMeters>
          </Trackpoint>
          <Trackpoint>
            <Time>2018-05-01T09:51:03.000Z</Time>
            <Position>
              <LatitudeDegrees>42.705362141132354736328125</LatitudeDegrees>
              <LongitudeDegrees>1.27984327264130115509033203125</LongitudeDegrees>
            </Position>
            <AltitudeMeters>2568.199951171875</AltitudeMeters>
            <DistanceMeters>14381.960419095</DistanceMeters>
          </Trackpoint>
          <Trackpoint>
            <Time>2018-05-01T09:51:04.000Z</Time>
            <Position>
              <LatitudeDegrees>42.70538301207125186920166015625</LatitudeDegrees>
              <LongitudeDegrees>1.27986255101859569549560546875</LongitudeDegrees>
            </Position>
            <AltitudeMeters>2567.199951171875</AltitudeMeters>
            <DistanceMeters>14384.76974051</DistanceMeters>
          </Trackpoint>
          <Trackpoint>
            <Time>2018-05-01T09:51:06.000Z</Time>
            <Position>
              <LatitudeDegrees>42.70542659796774387359619140625</LatitudeDegrees>
              <LongitudeDegrees>1.2798674963414669036865234375</LongitudeDegrees>
            </Position>
            <AltitudeMeters>2566.199951171875</AltitudeMeters>
            <DistanceMeters>14389.637483374</DistanceMeters>
          </Trackpoint>
          <Trackpoint>
            <Time>2018-05-01T09:51:07.000Z</Time>
            <Position>
              <LatitudeDegrees>42.70543648861348628997802734375</LatitudeDegrees>
              <LongitudeDegrees>1.27985534258186817169189453125</LongitudeDegrees>
            </Position>
            <AltitudeMeters>2565.60009765625</AltitudeMeters>
            <DistanceMeters>14391.121848104</DistanceMeters>
          </Trackpoint>
          <Trackpoint>
            <Time>2018-05-01T09:51:09.000Z</Time>
            <Position>
              <LatitudeDegrees>42.70543196238577365875244140625</LatitudeDegrees>
              <LongitudeDegrees>1.2798617966473102569580078125</LongitudeDegrees>
            </Position>
            <AltitudeMeters>2564.199951171875</AltitudeMeters>
            <DistanceMeters>14391.857921868</DistanceMeters>
          </Trackpoint>
          <Trackpoint>
            <Time>2018-05-01T09:51:10.000Z</Time>
            <Position>
              <LatitudeDegrees>42.705432884395122528076171875</LatitudeDegrees>
              <LongitudeDegrees>1.27986431121826171875</LongitudeDegrees>
            </Position>
            <AltitudeMeters>2563.800048828125</AltitudeMeters>
            <DistanceMeters>14392.09068883</DistanceMeters>
          </Trackpoint>
          <Trackpoint>
            <Time>2018-05-01T09:51:14.000Z</Time>
            <Position>
              <LatitudeDegrees>42.70542257465422153472900390625</LatitudeDegrees>
              <LongitudeDegrees>1.27987495623528957366943359375</LongitudeDegrees>
            </Position>
            <AltitudeMeters>2563.39990234375</AltitudeMeters>
            <DistanceMeters>14393.531840308</DistanceMeters>
          </Trackpoint>
          <Trackpoint>
            <Time>2018-05-01T09:52:29.000Z</Time>
            <Position>
              <LatitudeDegrees>42.70543196238577365875244140625</LatitudeDegrees>
              <LongitudeDegrees>1.27989406697452068328857421875</LongitudeDegrees>
            </Position>
            <AltitudeMeters>2563.60009765625</AltitudeMeters>
            <DistanceMeters>14395.413273264</DistanceMeters>
          </Trackpoint>
          <Trackpoint>
            <Time>2018-05-01T09:52:30.000Z</Time>
            <Position>
              <LatitudeDegrees>42.70544537343084812164306640625</LatitudeDegrees>
              <LongitudeDegrees>1.27985668368637561798095703125</LongitudeDegrees>
            </Position>
            <AltitudeMeters>2563.39990234375</AltitudeMeters>
            <DistanceMeters>14398.815707393</DistanceMeters>
          </Trackpoint>
          <Trackpoint>
            <Time>2018-05-01T09:52:31.000Z</Time>
            <Position>
              <LatitudeDegrees>42.70546012558043003082275390625</LatitudeDegrees>
              <LongitudeDegrees>1.27979063428938388824462890625</LongitudeDegrees>
            </Position>
            <AltitudeMeters>2562.39990234375</AltitudeMeters>
            <DistanceMeters>14404.46160589</DistanceMeters>
          </Trackpoint>
          <Trackpoint>
            <Time>2018-05-01T09:52:32.000Z</Time>
            <Position>
              <LatitudeDegrees>42.7054699324071407318115234375</LatitudeDegrees>
              <LongitudeDegrees>1.27971452660858631134033203125</LongitudeDegrees>
            </Position>
            <AltitudeMeters>2561</AltitudeMeters>
            <DistanceMeters>14410.781418238</DistanceMeters>
          </Trackpoint>
          <Trackpoint>
            <Time>2018-05-01T09:52:33.000Z</Time>
            <Position>
              <LatitudeDegrees>42.70549264736473560333251953125</LatitudeDegrees>
              <LongitudeDegrees>1.2796458788216114044189453125</LongitudeDegrees>
            </Position>
            <AltitudeMeters>2561</AltitudeMeters>
            <DistanceMeters>14416.938386722</DistanceMeters>
          </Trackpoint>
          <Trackpoint>
            <Time>2018-05-01T09:52:34.000Z</Time>
            <Position>
              <LatitudeDegrees>42.7055105008184909820556640625</LatitudeDegrees>
              <LongitudeDegrees>1.27957396209239959716796875</LongitudeDegrees>
            </Position>
            <AltitudeMeters>2558.800048828125</AltitudeMeters>
            <DistanceMeters>14423.146475499</DistanceMeters>
          </Trackpoint>
          <Trackpoint>
            <Time>2018-05-01T09:52:35.000Z</Time>
            <Position>
              <LatitudeDegrees>42.7055297791957855224609375</LatitudeDegrees>
              <LongitudeDegrees>1.2795142829418182373046875</LongitudeDegrees>
            </Position>
            <AltitudeMeters>2556.800048828125</AltitudeMeters>
            <DistanceMeters>14428.478143216</DistanceMeters>
          </Trackpoint>
          <Trackpoint>
            <Time>2018-05-01T09:52:36.000Z</Time>
            <Position>
              <LatitudeDegrees>42.705574370920658111572265625</LatitudeDegrees>
              <LongitudeDegrees>1.27947874367237091064453125</LongitudeDegrees>
            </Position>
            <AltitudeMeters>2554.800048828125</AltitudeMeters>
            <DistanceMeters>14434.230203724</DistanceMeters>
          </Trackpoint>
          <Trackpoint>
            <Time>2018-05-01T09:52:37.000Z</Time>
            <Position>
              <LatitudeDegrees>42.70561602897942066192626953125</LatitudeDegrees>
              <LongitudeDegrees>1.27945125102996826171875</LongitudeDegrees>
            </Position>
            <AltitudeMeters>2553.800048828125</AltitudeMeters>
            <DistanceMeters>14439.384472334</DistanceMeters>
          </Trackpoint>
          <Trackpoint>
            <Time>2018-05-01T09:52:38.000Z</Time>
            <Position>
              <LatitudeDegrees>42.70564804784953594207763671875</LatitudeDegrees>
              <LongitudeDegrees>1.2794192321598529815673828125</LongitudeDegrees>
            </Position>
            <AltitudeMeters>2552.60009765625</AltitudeMeters>
            <DistanceMeters>14443.807044614</DistanceMeters>
          </Trackpoint>
          <Trackpoint>
            <Time>2018-05-01T09:52:41.000Z</Time>
            <Position>
              <LatitudeDegrees>42.70570152439177036285400390625</LatitudeDegrees>
              <LongitudeDegrees>1.2793635763227939605712890625</LongitudeDegrees>
            </Position>
            <AltitudeMeters>2550.39990234375</AltitudeMeters>
            <DistanceMeters>14451.300309279</DistanceMeters>
          </Trackpoint>
          <Trackpoint>
            <Time>2018-05-01T09:52:42.000Z</Time>
            <Position>
              <LatitudeDegrees>42.7057049609720706939697265625</LatitudeDegrees>
              <LongitudeDegrees>1.27935259602963924407958984375</LongitudeDegrees>
            </Position>
            <AltitudeMeters>2550.199951171875</AltitudeMeters>
            <DistanceMeters>14452.278669183</DistanceMeters>
          </Trackpoint>
          <Trackpoint>
            <Time>2018-05-01T09:52:45.000Z</Time>
            <Position>
              <LatitudeDegrees>42.70570806227624416351318359375</LatitudeDegrees>
              <LongitudeDegrees>1.27932024188339710235595703125</LongitudeDegrees>
            </Position>
            <AltitudeMeters>2549.800048828125</AltitudeMeters>
            <DistanceMeters>14454.947888229</DistanceMeters>
          </Trackpoint>
          <Trackpoint>
            <Time>2018-05-01T09:52:46.000Z</Time>
            <Position>
              <LatitudeDegrees>42.7057116664946079254150390625</LatitudeDegrees>
              <LongitudeDegrees>1.27930364571511745452880859375</LongitudeDegrees>
            </Position>
            <AltitudeMeters>2549.60009765625</AltitudeMeters>
            <DistanceMeters>14456.363754385</DistanceMeters>
          </Trackpoint>
          <Trackpoint>
            <Time>2018-05-01T09:52:47.000Z</Time>
            <Position>
              <LatitudeDegrees>42.70571309141814708709716796875</LatitudeDegrees>
              <LongitudeDegrees>1.27928185276687145233154296875</LongitudeDegrees>
            </Position>
            <AltitudeMeters>2549.39990234375</AltitudeMeters>
            <DistanceMeters>14458.151671346</DistanceMeters>
          </Trackpoint>
          <Trackpoint>
            <Time>2018-05-01T09:52:48.000Z</Time>
            <Position>
              <LatitudeDegrees>42.70571124739944934844970703125</LatitudeDegrees>
              <LongitudeDegrees>1.2792539410293102264404296875</LongitudeDegrees>
            </Position>
            <AltitudeMeters>2549.39990234375</AltitudeMeters>
            <DistanceMeters>14460.442189719</DistanceMeters>
          </Trackpoint>
          <Trackpoint>
            <Time>2018-05-01T09:52:49.000Z</Time>
            <Position>
              <LatitudeDegrees>42.705706469714641571044921875</LatitudeDegrees>
              <LongitudeDegrees>1.2792120315134525299072265625</LongitudeDegrees>
            </Position>
            <AltitudeMeters>2548.800048828125</AltitudeMeters>
            <DistanceMeters>14463.911640958</DistanceMeters>
          </Trackpoint>
          <Trackpoint>
            <Time>2018-05-01T09:52:50.000Z</Time>
            <Position>
              <LatitudeDegrees>42.7056989260017871856689453125</LatitudeDegrees>
              <LongitudeDegrees>1.27915813587605953216552734375</LongitudeDegrees>
            </Position>
            <AltitudeMeters>2548</AltitudeMeters>
            <DistanceMeters>14468.399075689</DistanceMeters>
          </Trackpoint>
          <Trackpoint>
            <Time>2018-05-01T09:52:51.000Z</Time>
            <Position>
              <LatitudeDegrees>42.70570035092532634735107421875</LatitudeDegrees>
              <LongitudeDegrees>1.27909979782998561859130859375</LongitudeDegrees>
            </Position>
            <AltitudeMeters>2547.39990234375</AltitudeMeters>
            <DistanceMeters>14473.173163345</DistanceMeters>
          </Trackpoint>
          <Trackpoint>
            <Time>2018-05-01T09:52:52.000Z</Time>
            <Position>
              <LatitudeDegrees>42.7057116664946079254150390625</LatitudeDegrees>
              <LongitudeDegrees>1.2790745683014392852783203125</LongitudeDegrees>
            </Position>
            <AltitudeMeters>2546.60009765625</AltitudeMeters>
            <DistanceMeters>14475.592148573</DistanceMeters>
          </Trackpoint>
          <Trackpoint>
            <Time>2018-05-01T09:53:37.000Z</Time>
            <Position>
              <LatitudeDegrees>42.70569615997374057769775390625</LatitudeDegrees>
              <LongitudeDegrees>1.27909141592681407928466796875</LongitudeDegrees>
            </Position>
            <AltitudeMeters>2545.60009765625</AltitudeMeters>
            <DistanceMeters>14477.800369867</DistanceMeters>
          </Trackpoint>
          <Trackpoint>
            <Time>2018-05-01T09:53:40.000Z</Time>
            <Position>
              <LatitudeDegrees>42.70569263957440853118896484375</LatitudeDegrees>
              <LongitudeDegrees>1.27905897796154022216796875</LongitudeDegrees>
            </Position>
            <AltitudeMeters>2545.60009765625</AltitudeMeters>
            <DistanceMeters>14480.481403408</DistanceMeters>
          </Trackpoint>
          <Trackpoint>
            <Time>2018-05-01T09:53:41.000Z</Time>
            <Position>
              <LatitudeDegrees>42.70568459294736385345458984375</LatitudeDegrees>
              <LongitudeDegrees>1.2790195830166339874267578125</LongitudeDegrees>
            </Position>
            <AltitudeMeters>2545.800048828125</AltitudeMeters>
            <DistanceMeters>14483.826289761</DistanceMeters>
          </Trackpoint>
          <Trackpoint>
            <Time>2018-05-01T09:53:42.000Z</Time>
            <Position>
              <LatitudeDegrees>42.70566917024552822113037109375</LatitudeDegrees>
              <LongitudeDegrees>1.27898412756621837615966796875</LongitudeDegrees>
            </Position>
            <AltitudeMeters>2545.60009765625</AltitudeMeters>
            <DistanceMeters>14487.196725366</DistanceMeters>
          </Trackpoint>
          <Trackpoint>
            <Time>2018-05-01T09:53:43.000Z</Time>
            <Position>
              <LatitudeDegrees>42.705638743937015533447265625</LatitudeDegrees>
              <LongitudeDegrees>1.2789401225745677947998046875</LongitudeDegrees>
            </Position>
            <AltitudeMeters>2545.39990234375</AltitudeMeters>
            <DistanceMeters>14492.138114513</DistanceMeters>
          </Trackpoint>
          <Trackpoint>
            <Time>2018-05-01T09:53:44.000Z</Time>
            <Position>
              <LatitudeDegrees>42.70560949109494686126708984375</LatitudeDegrees>
              <LongitudeDegrees>1.27888840623199939727783203125</LongitudeDegrees>
            </Position>
            <AltitudeMeters>2544.800048828125</AltitudeMeters>
            <DistanceMeters>14497.474860816</DistanceMeters>
          </Trackpoint>
          <Trackpoint>
            <Time>2018-05-01T09:53:45.000Z</Time>
            <Position>
              <LatitudeDegrees>42.7055809088051319122314453125</LatitudeDegrees>
              <LongitudeDegrees>1.2788402102887630462646484375</LongitudeDegrees>
            </Position>
            <AltitudeMeters>2544</AltitudeMeters>
            <DistanceMeters>14502.540774085</DistanceMeters>
          </Trackpoint>
          <Trackpoint>
            <Time>2018-05-01T09:53:46.000Z</Time>
            <Position>
              <LatitudeDegrees>42.70555584691464900970458984375</LatitudeDegrees>
              <LongitudeDegrees>1.278796456754207611083984375</LongitudeDegrees>
            </Position>
            <AltitudeMeters>2543.199951171875</AltitudeMeters>
            <DistanceMeters>14507.077242339</DistanceMeters>
          </Trackpoint>
          <Trackpoint>
            <Time>2018-05-01T09:53:48.000Z</Time>
            <Position>
              <LatitudeDegrees>42.70551896654069423675537109375</LatitudeDegrees>
              <LongitudeDegrees>1.2787069380283355712890625</LongitudeDegrees>
            </Position>
            <AltitudeMeters>2542.60009765625</AltitudeMeters>
            <DistanceMeters>14515.471388305</DistanceMeters>
          </Trackpoint>
          <Trackpoint>
            <Time>2018-05-01T09:53:54.000Z</Time>
            <Position>
              <LatitudeDegrees>42.70546548999845981597900390625</LatitudeDegrees>
              <LongitudeDegrees>1.27841499634087085723876953125</LongitudeDegrees>
            </Position>
            <AltitudeMeters>2539.39990234375</AltitudeMeters>
            <DistanceMeters>14540.080005018</DistanceMeters>
          </Trackpoint>
          <Trackpoint>
            <Time>2018-05-01T09:53:56.000Z</Time>
            <Position>
              <LatitudeDegrees>42.70547269843518733978271484375</LatitudeDegrees>
              <LongitudeDegrees>1.2782963924109935760498046875</LongitudeDegrees>
            </Position>
            <AltitudeMeters>2538.199951171875</AltitudeMeters>
            <DistanceMeters>14549.813635484</DistanceMeters>
          </Trackpoint>
          <Trackpoint>
            <Time>2018-05-01T09:53:59.000Z</Time>
            <Position>
              <LatitudeDegrees>42.7054734528064727783203125</LatitudeDegrees>
              <LongitudeDegrees>1.278114505112171173095703125</LongitudeDegrees>
            </Position>
            <AltitudeMeters>2535.39990234375</AltitudeMeters>
            <DistanceMeters>14564.690704202</DistanceMeters>
          </Trackpoint>
          <Trackpoint>
            <Time>2018-05-01T09:54:00.000Z</Time>
            <Position>
              <LatitudeDegrees>42.70547169260680675506591796875</LatitudeDegrees>
              <LongitudeDegrees>1.27806521952152252197265625</LongitudeDegrees>
            </Position>
            <AltitudeMeters>2534.199951171875</AltitudeMeters>
            <DistanceMeters>14568.726823366</DistanceMeters>
          </Trackpoint>
          <Trackpoint>
            <Time>2018-05-01T09:54:01.000Z</Time>
            <Position>
              <LatitudeDegrees>42.7054779790341854095458984375</LatitudeDegrees>
              <LongitudeDegrees>1.2780211307108402252197265625</LongitudeDegrees>
            </Position>
            <AltitudeMeters>2533.800048828125</AltitudeMeters>
            <DistanceMeters>14572.399824075</DistanceMeters>
          </Trackpoint>
          <Trackpoint>
            <Time>2018-05-01T09:54:04.000Z</Time>
            <Position>
              <LatitudeDegrees>42.7055034600198268890380859375</LatitudeDegrees>
              <LongitudeDegrees>1.27787520177662372589111328125</LongitudeDegrees>
            </Position>
            <AltitudeMeters>2532.199951171875</AltitudeMeters>
            <DistanceMeters>14584.668210855</DistanceMeters>
          </Trackpoint>
          <Trackpoint>
            <Time>2018-05-01T09:54:06.000Z</Time>
            <Position>
              <LatitudeDegrees>42.7055205591022968292236328125</LatitudeDegrees>
              <LongitudeDegrees>1.2777703441679477691650390625</LongitudeDegrees>
            </Position>
            <AltitudeMeters>2531</AltitudeMeters>
            <DistanceMeters>14593.452915362</DistanceMeters>
          </Trackpoint>
          <Trackpoint>
            <Time>2018-05-01T09:54:07.000Z</Time>
            <Position>
              <LatitudeDegrees>42.70553338341414928436279296875</LatitudeDegrees>
              <LongitudeDegrees>1.2777173705399036407470703125</LongitudeDegrees>
            </Position>
            <AltitudeMeters>2530.39990234375</AltitudeMeters>
            <DistanceMeters>14598.015187406</DistanceMeters>
          </Trackpoint>
          <Trackpoint>
            <Time>2018-05-01T09:54:11.000Z</Time>
            <Position>
              <LatitudeDegrees>42.7055633068084716796875</LatitudeDegrees>
              <LongitudeDegrees>1.2775282748043537139892578125</LongitudeDegrees>
            </Position>
            <AltitudeMeters>2527.199951171875</AltitudeMeters>
            <DistanceMeters>14613.835637109</DistanceMeters>
          </Trackpoint>
          <Trackpoint>
            <Time>2018-05-01T09:54:17.000Z</Time>
            <Position>
              <LatitudeDegrees>42.70559121854603290557861328125</LatitudeDegrees>
              <LongitudeDegrees>1.27726667560636997222900390625</LongitudeDegrees>
            </Position>
            <AltitudeMeters>2523.800048828125</AltitudeMeters>
            <DistanceMeters>14635.456250819</DistanceMeters>
          </Trackpoint>
          <Trackpoint>
            <Time>2018-05-01T09:54:18.000Z</Time>
            <Position>
              <LatitudeDegrees>42.705606557428836822509765625</LatitudeDegrees>
              <LongitudeDegrees>1.2771976925432682037353515625</LongitudeDegrees>
            </Position>
            <AltitudeMeters>2522.60009765625</AltitudeMeters>
            <DistanceMeters>14641.350971691</DistanceMeters>
          </Trackpoint>
          <Trackpoint>
            <Time>2018-05-01T09:54:19.000Z</Time>
            <Position>
              <LatitudeDegrees>42.70561669953167438507080078125</LatitudeDegrees>
              <LongitudeDegrees>1.27713424153625965118408203125</LongitudeDegrees>
            </Position>
            <AltitudeMeters>2521.39990234375</AltitudeMeters>
            <DistanceMeters>14646.66057607</DistanceMeters>
          </Trackpoint>
          <Trackpoint>
            <Time>2018-05-01T09:54:24.000Z</Time>
            <Position>
              <LatitudeDegrees>42.7055906318128108978271484375</LatitudeDegrees>
              <LongitudeDegrees>1.2769301421940326690673828125</LongitudeDegrees>
            </Position>
            <AltitudeMeters>2518.39990234375</AltitudeMeters>
            <DistanceMeters>14663.604135032</DistanceMeters>
          </Trackpoint>
          <Trackpoint>
            <Time>2018-05-01T09:54:25.000Z</Time>
            <Position>
              <LatitudeDegrees>42.70559012889862060546875</LatitudeDegrees>
              <LongitudeDegrees>1.27689468674361705780029296875</LongitudeDegrees>
            </Position>
            <AltitudeMeters>2518</AltitudeMeters>
            <DistanceMeters>14666.505174715</DistanceMeters>
          </Trackpoint>
          <Trackpoint>
            <Time>2018-05-01T09:54:29.000Z</Time>
            <Position>
              <LatitudeDegrees>42.70559105090796947479248046875</LatitudeDegrees>
              <LongitudeDegrees>1.276698298752307891845703125</LongitudeDegrees>
            </Position>
            <AltitudeMeters>2515.39990234375</AltitudeMeters>
            <DistanceMeters>14682.568343902</DistanceMeters>
          </Trackpoint>
          <Trackpoint>
            <Time>2018-05-01T09:54:30.000Z</Time>
            <Position>
              <LatitudeDegrees>42.70559557713568210601806640625</LatitudeDegrees>
              <LongitudeDegrees>1.2766389548778533935546875</LongitudeDegrees>
            </Position>
            <AltitudeMeters>2514.800048828125</AltitudeMeters>
            <DistanceMeters>14687.449055086</DistanceMeters>
          </Trackpoint>
          <Trackpoint>
            <Time>2018-05-01T09:54:33.000Z</Time>
            <Position>
              <LatitudeDegrees>42.7056110836565494537353515625</LatitudeDegrees>
              <LongitudeDegrees>1.27645296044647693634033203125</LongitudeDegrees>
            </Position>
            <AltitudeMeters>2512</AltitudeMeters>
            <DistanceMeters>14702.759271424</DistanceMeters>
          </Trackpoint>
          <Trackpoint>
            <Time>2018-05-01T09:54:34.000Z</Time>
            <Position>
              <LatitudeDegrees>42.705614268779754638671875</LatitudeDegrees>
              <LongitudeDegrees>1.27639445476233959197998046875</LongitudeDegrees>
            </Position>
            <AltitudeMeters>2511.199951171875</AltitudeMeters>
            <DistanceMeters>14707.557885279</DistanceMeters>
          </Trackpoint>
          <Trackpoint>
            <Time>2018-05-01T09:54:39.000Z</Time>
            <Position>
              <LatitudeDegrees>42.7056251652538776397705078125</LatitudeDegrees>
              <LongitudeDegrees>1.276145093142986297607421875</LongitudeDegrees>
            </Position>
            <AltitudeMeters>2507.60009765625</AltitudeMeters>
            <DistanceMeters>14727.989291835</DistanceMeters>
          </Trackpoint>
          <Trackpoint>
            <Time>2018-05-01T09:54:40.000Z</Time>
            <Position>
              <LatitudeDegrees>42.70562591962516307830810546875</LatitudeDegrees>
              <LongitudeDegrees>1.27609035931527614593505859375</LongitudeDegrees>
            </Position>
            <AltitudeMeters>2506.800048828125</AltitudeMeters>
            <DistanceMeters>14732.466653749</DistanceMeters>
          </Trackpoint>
          <Trackpoint>
            <Time>2018-05-01T09:54:44.000Z</Time>
            <Position>
              <LatitudeDegrees>42.70562457852065563201904296875</LatitudeDegrees>
              <LongitudeDegrees>1.27593277953565120697021484375</LongitudeDegrees>
            </Position>
            <AltitudeMeters>2503.199951171875</AltitudeMeters>
            <DistanceMeters>14745.356003865</DistanceMeters>
          </Trackpoint>
          <Trackpoint>
            <Time>2018-05-01T09:54:45.000Z</Time>
            <Position>
              <LatitudeDegrees>42.70563078112900257110595703125</LatitudeDegrees>
              <LongitudeDegrees>1.27589908428490161895751953125</LongitudeDegrees>
            </Position>
            <AltitudeMeters>2502.60009765625</AltitudeMeters>
            <DistanceMeters>14748.197286734</DistanceMeters>
          </Trackpoint>
          <Trackpoint>
            <Time>2018-05-01T09:54:50.000Z</Time>
            <Position>
              <LatitudeDegrees>42.7056603692471981048583984375</LatitudeDegrees>
              <LongitudeDegrees>1.2756406702101230621337890625</LongitudeDegrees>
            </Position>
            <AltitudeMeters>2498</AltitudeMeters>
            <DistanceMeters>14769.587798028</DistanceMeters>
          </Trackpoint>
          <Trackpoint>
            <Time>2018-05-01T09:54:51.000Z</Time>
            <Position>
              <LatitudeDegrees>42.7056633867323398590087890625</LatitudeDegrees>
              <LongitudeDegrees>1.27558878622949123382568359375</LongitudeDegrees>
            </Position>
            <AltitudeMeters>2496.39990234375</AltitudeMeters>
            <DistanceMeters>14773.8438917</DistanceMeters>
          </Trackpoint>
          <Trackpoint>
            <Time>2018-05-01T09:54:52.000Z</Time>
            <Position>
              <LatitudeDegrees>42.705667577683925628662109375</LatitudeDegrees>
              <LongitudeDegrees>1.2755524925887584686279296875</LongitudeDegrees>
            </Position>
            <AltitudeMeters>2495.39990234375</AltitudeMeters>
            <DistanceMeters>14776.84890026</DistanceMeters>
          </Trackpoint>
          <Trackpoint>
            <Time>2018-05-01T09:54:56.000Z</Time>
            <Position>
              <LatitudeDegrees>42.70568870007991790771484375</LatitudeDegrees>
              <LongitudeDegrees>1.275502033531665802001953125</LongitudeDegrees>
            </Position>
            <AltitudeMeters>2492.60009765625</AltitudeMeters>
            <DistanceMeters>14781.598335064</DistanceMeters>
          </Trackpoint>
          <Trackpoint>
            <Time>2018-05-01T09:54:57.000Z</Time>
            <Position>
              <LatitudeDegrees>42.705702446401119232177734375</LatitudeDegrees>
              <LongitudeDegrees>1.27545400522649288177490234375</LongitudeDegrees>
            </Position>
            <AltitudeMeters>2491.800048828125</AltitudeMeters>
            <DistanceMeters>14785.813924043</DistanceMeters>
          </Trackpoint>
          <Trackpoint>
            <Time>2018-05-01T09:54:58.000Z</Time>
            <Position>
              <LatitudeDegrees>42.70570881664752960205078125</LatitudeDegrees>
              <LongitudeDegrees>1.27539734356105327606201171875</LongitudeDegrees>
            </Position>
            <AltitudeMeters>2490</AltitudeMeters>
            <DistanceMeters>14790.502122638</DistanceMeters>
          </Trackpoint>
          <Trackpoint>
            <Time>2018-05-01T09:54:59.000Z</Time>
            <Position>
              <LatitudeDegrees>42.7057133428752422332763671875</LatitudeDegrees>
              <LongitudeDegrees>1.27534654922783374786376953125</LongitudeDegrees>
            </Position>
            <AltitudeMeters>2489</AltitudeMeters>
            <DistanceMeters>14794.687615237</DistanceMeters>
          </Trackpoint>
          <Trackpoint>
            <Time>2018-05-01T09:55:00.000Z</Time>
            <Position>
              <LatitudeDegrees>42.7057183720171451568603515625</LatitudeDegrees>
              <LongitudeDegrees>1.2753060646355152130126953125</LongitudeDegrees>
            </Position>
            <AltitudeMeters>2487.39990234375</AltitudeMeters>
            <DistanceMeters>14798.045972794</DistanceMeters>
          </Trackpoint>
          <Trackpoint>
            <Time>2018-05-01T09:55:03.000Z</Time>
            <Position>
              <LatitudeDegrees>42.7057304419577121734619140625</LatitudeDegrees>
              <LongitudeDegrees>1.27522341907024383544921875</LongitudeDegrees>
            </Position>
            <AltitudeMeters>2484.199951171875</AltitudeMeters>
            <DistanceMeters>14804.937866735</DistanceMeters>
          </Trackpoint>
          <Trackpoint>
            <Time>2018-05-01T09:55:06.000Z</Time>
            <Position>
              <LatitudeDegrees>42.7057324536144733428955078125</LatitudeDegrees>
              <LongitudeDegrees>1.27521864138543605804443359375</LongitudeDegrees>
            </Position>
            <AltitudeMeters>2482.800048828125</AltitudeMeters>
            <DistanceMeters>14805.383581534</DistanceMeters>
          </Trackpoint>
          <Trackpoint>
            <Time>2018-05-01T09:55:19.000Z</Time>
            <Position>
              <LatitudeDegrees>42.70575047470629215240478515625</LatitudeDegrees>
              <LongitudeDegrees>1.27519165165722370147705078125</LongitudeDegrees>
            </Position>
            <AltitudeMeters>2482.800048828125</AltitudeMeters>
            <DistanceMeters>14808.364453088</DistanceMeters>
          </Trackpoint>
          <Trackpoint>
            <Time>2018-05-01T09:55:20.000Z</Time>
            <Position>
              <LatitudeDegrees>42.7057626284658908843994140625</LatitudeDegrees>
              <LongitudeDegrees>1.2751689366996288299560546875</LongitudeDegrees>
            </Position>
            <AltitudeMeters>2482.800048828125</AltitudeMeters>
            <DistanceMeters>14810.660877405</DistanceMeters>
          </Trackpoint>
          <Trackpoint>
            <Time>2018-05-01T09:55:21.000Z</Time>
            <Position>
              <LatitudeDegrees>42.70577193237841129302978515625</LatitudeDegrees>
              <LongitudeDegrees>1.27513599582016468048095703125</LongitudeDegrees>
            </Position>
            <AltitudeMeters>2482</AltitudeMeters>
            <DistanceMeters>14813.546311597</DistanceMeters>
          </Trackpoint>
          <Trackpoint>
            <Time>2018-05-01T09:55:22.000Z</Time>
            <Position>
              <LatitudeDegrees>42.70577587187290191650390625</LatitudeDegrees>
              <LongitudeDegrees>1.2750886380672454833984375</LongitudeDegrees>
            </Position>
            <AltitudeMeters>2480.800048828125</AltitudeMeters>
            <DistanceMeters>14817.443565577</DistanceMeters>
          </Trackpoint>
          <Trackpoint>
            <Time>2018-05-01T09:55:23.000Z</Time>
            <Position>
              <LatitudeDegrees>42.7057753689587116241455078125</LatitudeDegrees>
              <LongitudeDegrees>1.275039352476596832275390625</LongitudeDegrees>
            </Position>
            <AltitudeMeters>2479.39990234375</AltitudeMeters>
            <DistanceMeters>14821.475207624</DistanceMeters>
          </Trackpoint>
          <Trackpoint>
            <Time>2018-05-01T09:55:24.000Z</Time>
            <Position>
              <LatitudeDegrees>42.705782912671566009521484375</LatitudeDegrees>
              <LongitudeDegrees>1.2749858759343624114990234375</LongitudeDegrees>
            </Position>
            <AltitudeMeters>2478</AltitudeMeters>
            <DistanceMeters>14825.928301815</DistanceMeters>
          </Trackpoint>
          <Trackpoint>
            <Time>2018-05-01T09:55:25.000Z</Time>
            <Position>
              <LatitudeDegrees>42.70580462180078029632568359375</LatitudeDegrees>
              <LongitudeDegrees>1.27494840882718563079833984375</LongitudeDegrees>
            </Position>
            <AltitudeMeters>2476.800048828125</AltitudeMeters>
            <DistanceMeters>14829.830187114</DistanceMeters>
          </Trackpoint>
          <Trackpoint>
            <Time>2018-05-01T09:55:26.000Z</Time>
            <Position>
              <LatitudeDegrees>42.705839909613132476806640625</LatitudeDegrees>
              <LongitudeDegrees>1.27492971718311309814453125</LongitudeDegrees>
            </Position>
            <AltitudeMeters>2475.60009765625</AltitudeMeters>
            <DistanceMeters>14834.043633481</DistanceMeters>
          </Trackpoint>
          <Trackpoint>
            <Time>2018-05-01T09:55:27.000Z</Time>
            <Position>
              <LatitudeDegrees>42.7058581821620464324951171875</LatitudeDegrees>
              <LongitudeDegrees>1.27489509992301464080810546875</LongitudeDegrees>
            </Position>
            <AltitudeMeters>2474</AltitudeMeters>
            <DistanceMeters>14837.529961476</DistanceMeters>
          </Trackpoint>
          <Trackpoint>
            <Time>2018-05-01T09:55:28.000Z</Time>
            <Position>
              <LatitudeDegrees>42.70585575141012668609619140625</LatitudeDegrees>
              <LongitudeDegrees>1.27484112046658992767333984375</LongitudeDegrees>
            </Position>
            <AltitudeMeters>2472</AltitudeMeters>
            <DistanceMeters>14841.952533757</DistanceMeters>
          </Trackpoint>
          <Trackpoint>
            <Time>2018-05-01T09:55:29.000Z</Time>
            <Position>
              <LatitudeDegrees>42.705846615135669708251953125</LatitudeDegrees>
              <LongitudeDegrees>1.27478915266692638397216796875</LongitudeDegrees>
            </Position>
            <AltitudeMeters>2470.800048828125</AltitudeMeters>
            <DistanceMeters>14846.323762618</DistanceMeters>
          </Trackpoint>
          <Trackpoint>
            <Time>2018-05-01T09:55:30.000Z</Time>
            <Position>
              <LatitudeDegrees>42.705840580165386199951171875</LatitudeDegrees>
              <LongitudeDegrees>1.27474036999046802520751953125</LongitudeDegrees>
            </Position>
            <AltitudeMeters>2469.800048828125</AltitudeMeters>
            <DistanceMeters>14850.368821149</DistanceMeters>
          </Trackpoint>
          <Trackpoint>
            <Time>2018-05-01T09:55:31.000Z</Time>
            <Position>
              <LatitudeDegrees>42.70583697594702243804931640625</LatitudeDegrees>
              <LongitudeDegrees>1.27469234168529510498046875</LongitudeDegrees>
            </Position>
            <AltitudeMeters>2469</AltitudeMeters>
            <DistanceMeters>14854.319007485</DistanceMeters>
          </Trackpoint>
          <Trackpoint>
            <Time>2018-05-01T09:55:32.000Z</Time>
            <Position>
              <LatitudeDegrees>42.70583915524184703826904296875</LatitudeDegrees>
              <LongitudeDegrees>1.2746405415236949920654296875</LongitudeDegrees>
            </Position>
            <AltitudeMeters>2468.800048828125</AltitudeMeters>
            <DistanceMeters>14858.564479495</DistanceMeters>
          </Trackpoint>
          <Trackpoint>
            <Time>2018-05-01T09:55:33.000Z</Time>
            <Position>
              <LatitudeDegrees>42.70583798177540302276611328125</LatitudeDegrees>
              <LongitudeDegrees>1.27458639442920684814453125</LongitudeDegrees>
            </Position>
            <AltitudeMeters>2468.800048828125</AltitudeMeters>
            <DistanceMeters>14862.99521151</DistanceMeters>
          </Trackpoint>
          <Trackpoint>
            <Time>2018-05-01T09:55:34.000Z</Time>
            <Position>
              <LatitudeDegrees>42.70583798177540302276611328125</LatitudeDegrees>
              <LongitudeDegrees>1.27453216351568698883056640625</LongitudeDegrees>
            </Position>
            <AltitudeMeters>2468.39990234375</AltitudeMeters>
            <DistanceMeters>14867.430017762</DistanceMeters>
          </Trackpoint>
          <Trackpoint>
            <Time>2018-05-01T09:55:35.000Z</Time>
            <Position>
              <LatitudeDegrees>42.705842591822147369384765625</LatitudeDegrees>
              <LongitudeDegrees>1.27447374165058135986328125</LongitudeDegrees>
            </Position>
            <AltitudeMeters>2467.800048828125</AltitudeMeters>
            <DistanceMeters>14872.234273728</DistanceMeters>
          </Trackpoint>
          <Trackpoint>
            <Time>2018-05-01T09:55:36.000Z</Time>
            <Position>
              <LatitudeDegrees>42.70584770478308200836181640625</LatitudeDegrees>
              <LongitudeDegrees>1.274411715567111968994140625</LongitudeDegrees>
            </Position>
            <AltitudeMeters>2467</AltitudeMeters>
            <DistanceMeters>14877.339251752</DistanceMeters>
          </Trackpoint>
          <Trackpoint>
            <Time>2018-05-01T09:55:40.000Z</Time>
            <Position>
              <LatitudeDegrees>42.705861032009124755859375</LatitudeDegrees>
              <LongitudeDegrees>1.27412681467831134796142578125</LongitudeDegrees>
            </Position>
            <AltitudeMeters>2463.39990234375</AltitudeMeters>
            <DistanceMeters>14900.688380969</DistanceMeters>
          </Trackpoint>
          <Trackpoint>
            <Time>2018-05-01T09:55:45.000Z</Time>
            <Position>
              <LatitudeDegrees>42.7058623731136322021484375</LatitudeDegrees>
              <LongitudeDegrees>1.274040900170803070068359375</LongitudeDegrees>
            </Position>
            <AltitudeMeters>2460.199951171875</AltitudeMeters>
            <DistanceMeters>14907.716504343</DistanceMeters>
          </Trackpoint>
          <Trackpoint>
            <Time>2018-05-01T09:56:23.000Z</Time>
            <Position>
              <LatitudeDegrees>42.7058860100805759429931640625</LatitudeDegrees>
              <LongitudeDegrees>1.2740050256252288818359375</LongitudeDegrees>
            </Position>
            <AltitudeMeters>2460.39990234375</AltitudeMeters>
            <DistanceMeters>14911.658681604</DistanceMeters>
          </Trackpoint>
          <Trackpoint>
            <Time>2018-05-01T09:56:32.000Z</Time>
            <Position>
              <LatitudeDegrees>42.70589925348758697509765625</LatitudeDegrees>
              <LongitudeDegrees>1.2736853398382663726806640625</LongitudeDegrees>
            </Position>
            <AltitudeMeters>2458.199951171875</AltitudeMeters>
            <DistanceMeters>14937.847292411</DistanceMeters>
          </Trackpoint>
          <Trackpoint>
            <Time>2018-05-01T09:56:33.000Z</Time>
            <Position>
              <LatitudeDegrees>42.7059000916779041290283203125</LatitudeDegrees>
              <LongitudeDegrees>1.27361870370805263519287109375</LongitudeDegrees>
            </Position>
            <AltitudeMeters>2457.39990234375</AltitudeMeters>
            <DistanceMeters>14943.299540723</DistanceMeters>
          </Trackpoint>
          <Trackpoint>
            <Time>2018-05-01T09:56:34.000Z</Time>
            <Position>
              <LatitudeDegrees>42.70589883439242839813232421875</LatitudeDegrees>
              <LongitudeDegrees>1.2735492177307605743408203125</LongitudeDegrees>
            </Position>
            <AltitudeMeters>2456.39990234375</AltitudeMeters>
            <DistanceMeters>14948.985283741</DistanceMeters>
          </Trackpoint>
          <Trackpoint>
            <Time>2018-05-01T09:56:36.000Z</Time>
            <Position>
              <LatitudeDegrees>42.70589246414601802825927734375</LatitudeDegrees>
              <LongitudeDegrees>1.27340756356716156005859375</LongitudeDegrees>
            </Position>
            <AltitudeMeters>2454</AltitudeMeters>
            <DistanceMeters>14960.592943739</DistanceMeters>
          </Trackpoint>
          <Trackpoint>
            <Time>2018-05-01T09:56:37.000Z</Time>
            <Position>
              <LatitudeDegrees>42.70588307641446590423583984375</LatitudeDegrees>
              <LongitudeDegrees>1.27334729768335819244384765625</LongitudeDegrees>
            </Position>
            <AltitudeMeters>2452.800048828125</AltitudeMeters>
            <DistanceMeters>14965.632048318</DistanceMeters>
          </Trackpoint>
          <Trackpoint>
            <Time>2018-05-01T09:56:38.000Z</Time>
            <Position>
              <LatitudeDegrees>42.7058809809386730194091796875</LatitudeDegrees>
              <LongitudeDegrees>1.27330639399588108062744140625</LongitudeDegrees>
            </Position>
            <AltitudeMeters>2452.199951171875</AltitudeMeters>
            <DistanceMeters>14968.985023888</DistanceMeters>
          </Trackpoint>
          <Trackpoint>
            <Time>2018-05-01T09:56:39.000Z</Time>
            <Position>
              <LatitudeDegrees>42.70588374696671962738037109375</LatitudeDegrees>
              <LongitudeDegrees>1.27326917834579944610595703125</LongitudeDegrees>
            </Position>
            <AltitudeMeters>2451.199951171875</AltitudeMeters>
            <DistanceMeters>14972.04364436</DistanceMeters>
          </Trackpoint>
          <Trackpoint>
            <Time>2018-05-01T09:56:40.000Z</Time>
            <Position>
              <LatitudeDegrees>42.70588852465152740478515625</LatitudeDegrees>
              <LongitudeDegrees>1.2732296995818614959716796875</LongitudeDegrees>
            </Position>
            <AltitudeMeters>2450.199951171875</AltitudeMeters>
            <DistanceMeters>14975.316207677</DistanceMeters>
          </Trackpoint>
          <Trackpoint>
            <Time>2018-05-01T09:56:44.000Z</Time>
            <Position>
              <LatitudeDegrees>42.70588927902281284332275390625</LatitudeDegrees>
              <LongitudeDegrees>1.2732129357755184173583984375</LongitudeDegrees>
            </Position>
            <AltitudeMeters>2448.199951171875</AltitudeMeters>
            <DistanceMeters>14976.693275596</DistanceMeters>
          </Trackpoint>
          <Trackpoint>
            <Time>2018-05-01T09:57:09.000Z</Time>
            <Position>
              <LatitudeDegrees>42.70588609389960765838623046875</LatitudeDegrees>
              <LongitudeDegrees>1.2731981836259365081787109375</LongitudeDegrees>
            </Position>
            <AltitudeMeters>2448.199951171875</AltitudeMeters>
            <DistanceMeters>14977.953947423</DistanceMeters>
          </Trackpoint>
          <Trackpoint>
            <Time>2018-05-01T09:57:10.000Z</Time>
            <Position>
              <LatitudeDegrees>42.70589481107890605926513671875</LatitudeDegrees>
              <LongitudeDegrees>1.2731676734983921051025390625</LongitudeDegrees>
            </Position>
            <AltitudeMeters>2448.199951171875</AltitudeMeters>
            <DistanceMeters>14980.631610713</DistanceMeters>
          </Trackpoint>
          <Trackpoint>
            <Time>2018-05-01T09:57:11.000Z</Time>
            <Position>
              <LatitudeDegrees>42.7059041149914264678955078125</LatitudeDegrees>
              <LongitudeDegrees>1.273118890821933746337890625</LongitudeDegrees>
            </Position>
            <AltitudeMeters>2448</AltitudeMeters>
            <DistanceMeters>14984.754061909</DistanceMeters>
          </Trackpoint>
          <Trackpoint>
            <Time>2018-05-01T09:57:17.000Z</Time>
            <Position>
              <LatitudeDegrees>42.7059627883136272430419921875</LatitudeDegrees>
              <LongitudeDegrees>1.27285880036652088165283203125</LongitudeDegrees>
            </Position>
            <AltitudeMeters>2444.800048828125</AltitudeMeters>
            <DistanceMeters>15007.006551026</DistanceMeters>
          </Trackpoint>
          <Trackpoint>
            <Time>2018-05-01T09:57:30.000Z</Time>
            <Position>
              <LatitudeDegrees>42.706038057804107666015625</LatitudeDegrees>
              <LongitudeDegrees>1.27259544096887111663818359375</LongitudeDegrees>
            </Position>
            <AltitudeMeters>2443.199951171875</AltitudeMeters>
            <DistanceMeters>15030.118563962</DistanceMeters>
          </Trackpoint>
          <Trackpoint>
            <Time>2018-05-01T09:57:37.000Z</Time>
            <Position>
              <LatitudeDegrees>42.70610251463949680328369140625</LatitudeDegrees>
              <LongitudeDegrees>1.27231565304100513458251953125</LongitudeDegrees>
            </Position>
            <AltitudeMeters>2440.800048828125</AltitudeMeters>
            <DistanceMeters>15054.100339725</DistanceMeters>
          </Trackpoint>
          <Trackpoint>
            <Time>2018-05-01T09:57:44.000Z</Time>
            <Position>
              <LatitudeDegrees>42.70620343275368213653564453125</LatitudeDegrees>
              <LongitudeDegrees>1.272043995559215545654296875</LongitudeDegrees>
            </Position>
            <AltitudeMeters>2438.39990234375</AltitudeMeters>
            <DistanceMeters>15078.996794838</DistanceMeters>
          </Trackpoint>
          <Trackpoint>
            <Time>2018-05-01T09:57:51.000Z</Time>
            <Position>
              <LatitudeDegrees>42.70629647187888622283935546875</LatitudeDegrees>
              <LongitudeDegrees>1.271770410239696502685546875</LongitudeDegrees>
            </Position>
            <AltitudeMeters>2436</AltitudeMeters>
            <DistanceMeters>15103.65325173</DistanceMeters>
          </Trackpoint>
          <Trackpoint>
            <Time>2018-05-01T09:57:58.000Z</Time>
            <Position>
              <LatitudeDegrees>42.70633033476769924163818359375</LatitudeDegrees>
              <LongitudeDegrees>1.27162900753319263458251953125</LongitudeDegrees>
            </Position>
            <AltitudeMeters>2434.800048828125</AltitudeMeters>
            <DistanceMeters>15115.817413543</DistanceMeters>
          </Trackpoint>
          <Trackpoint>
            <Time>2018-05-01T09:57:59.000Z</Time>
            <Position>
              <LatitudeDegrees>42.7063302509486675262451171875</LatitudeDegrees>
              <LongitudeDegrees>1.271608136594295501708984375</LongitudeDegrees>
            </Position>
            <AltitudeMeters>2434.800048828125</AltitudeMeters>
            <DistanceMeters>15117.527894402</DistanceMeters>
          </Trackpoint>
          <Trackpoint>
            <Time>2018-05-01T09:58:00.000Z</Time>
            <Position>
              <LatitudeDegrees>42.7063357830047607421875</LatitudeDegrees>
              <LongitudeDegrees>1.27158676274120807647705078125</LongitudeDegrees>
            </Position>
            <AltitudeMeters>2434.60009765625</AltitudeMeters>
            <DistanceMeters>15119.382741869</DistanceMeters>
          </Trackpoint>
          <Trackpoint>
            <Time>2018-05-01T09:58:01.000Z</Time>
            <Position>
              <LatitudeDegrees>42.706339471042156219482421875</LatitudeDegrees>
              <LongitudeDegrees>1.27156865783035755157470703125</LongitudeDegrees>
            </Position>
            <AltitudeMeters>2434.39990234375</AltitudeMeters>
            <DistanceMeters>15120.920883614</DistanceMeters>
          </Trackpoint>
          <Trackpoint>
            <Time>2018-05-01T09:58:02.000Z</Time>
            <Position>
              <LatitudeDegrees>42.706343829631805419921875</LatitudeDegrees>
              <LongitudeDegrees>1.27155222930014133453369140625</LongitudeDegrees>
            </Position>
            <AltitudeMeters>2434.39990234375</AltitudeMeters>
            <DistanceMeters>15122.349448375</DistanceMeters>
          </Trackpoint>
          <Trackpoint>
            <Time>2018-05-01T09:58:03.000Z</Time>
            <Position>
              <LatitudeDegrees>42.7063466794788837432861328125</LatitudeDegrees>
              <LongitudeDegrees>1.27153563313186168670654296875</LongitudeDegrees>
            </Position>
            <AltitudeMeters>2434.39990234375</AltitudeMeters>
            <DistanceMeters>15123.742813523</DistanceMeters>
          </Trackpoint>
          <Trackpoint>
            <Time>2018-05-01T09:58:04.000Z</Time>
            <Position>
              <LatitudeDegrees>42.70634911023080348968505859375</LatitudeDegrees>
              <LongitudeDegrees>1.27151769585907459259033203125</LongitudeDegrees>
            </Position>
            <AltitudeMeters>2434.39990234375</AltitudeMeters>
            <DistanceMeters>15125.2332493</DistanceMeters>
          </Trackpoint>
          <Trackpoint>
            <Time>2018-05-01T09:58:19.000Z</Time>
            <Position>
              <LatitudeDegrees>42.70637333393096923828125</LatitudeDegrees>
              <LongitudeDegrees>1.27126255072653293609619140625</LongitudeDegrees>
            </Position>
            <AltitudeMeters>2432.39990234375</AltitudeMeters>
            <DistanceMeters>15146.274747537</DistanceMeters>
          </Trackpoint>
          <Trackpoint>
            <Time>2018-05-01T09:58:24.000Z</Time>
            <Position>
              <LatitudeDegrees>42.70637677051126956939697265625</LatitudeDegrees>
              <LongitudeDegrees>1.27121326513588428497314453125</LongitudeDegrees>
            </Position>
            <AltitudeMeters>2433.199951171875</AltitudeMeters>
            <DistanceMeters>15150.324268351</DistanceMeters>
          </Trackpoint>
          <Trackpoint>
            <Time>2018-05-01T09:58:34.000Z</Time>
            <Position>
              <LatitudeDegrees>42.706413902342319488525390625</LatitudeDegrees>
              <LongitudeDegrees>1.2709256820380687713623046875</LongitudeDegrees>
            </Position>
            <AltitudeMeters>2431.60009765625</AltitudeMeters>
            <DistanceMeters>15174.205674675</DistanceMeters>
          </Trackpoint>
          <Trackpoint>
            <Time>2018-05-01T09:58:40.000Z</Time>
            <Position>
              <LatitudeDegrees>42.70642555318772792816162109375</LatitudeDegrees>
              <LongitudeDegrees>1.27062167041003704071044921875</LongitudeDegrees>
            </Position>
            <AltitudeMeters>2429.60009765625</AltitudeMeters>
            <DistanceMeters>15199.104487261</DistanceMeters>
          </Trackpoint>
          <Trackpoint>
            <Time>2018-05-01T09:58:41.000Z</Time>
            <Position>
              <LatitudeDegrees>42.70643091760575771331787109375</LatitudeDegrees>
              <LongitudeDegrees>1.27056517638266086578369140625</LongitudeDegrees>
            </Position>
            <AltitudeMeters>2429.199951171875</AltitudeMeters>
            <DistanceMeters>15203.762735182</DistanceMeters>
          </Trackpoint>
          <Trackpoint>
            <Time>2018-05-01T09:58:42.000Z</Time>
            <Position>
              <LatitudeDegrees>42.70643569529056549072265625</LatitudeDegrees>
              <LongitudeDegrees>1.27050717361271381378173828125</LongitudeDegrees>
            </Position>
            <AltitudeMeters>2428.60009765625</AltitudeMeters>
            <DistanceMeters>15208.536822838</DistanceMeters>
          </Trackpoint>
          <Trackpoint>
            <Time>2018-05-01T09:58:43.000Z</Time>
            <Position>
              <LatitudeDegrees>42.70643644966185092926025390625</LatitudeDegrees>
              <LongitudeDegrees>1.27044632099568843841552734375</LongitudeDegrees>
            </Position>
            <AltitudeMeters>2427.800048828125</AltitudeMeters>
            <DistanceMeters>15213.514626547</DistanceMeters>
          </Trackpoint>
          <Trackpoint>
            <Time>2018-05-01T09:58:44.000Z</Time>
            <Position>
              <LatitudeDegrees>42.70643142051994800567626953125</LatitudeDegrees>
              <LongitudeDegrees>1.27038245089352130889892578125</LongitudeDegrees>
            </Position>
            <AltitudeMeters>2427</AltitudeMeters>
            <DistanceMeters>15218.768667248</DistanceMeters>
          </Trackpoint>
          <Trackpoint>
            <Time>2018-05-01T09:58:45.000Z</Time>
            <Position>
              <LatitudeDegrees>42.7064256370067596435546875</LatitudeDegrees>
              <LongitudeDegrees>1.2703198380768299102783203125</LongitudeDegrees>
            </Position>
            <AltitudeMeters>2426.199951171875</AltitudeMeters>
            <DistanceMeters>15223.929938943</DistanceMeters>
          </Trackpoint>
          <Trackpoint>
            <Time>2018-05-01T09:58:46.000Z</Time>
            <Position>
              <LatitudeDegrees>42.706430666148662567138671875</LatitudeDegrees>
              <LongitudeDegrees>1.270258314907550811767578125</LongitudeDegrees>
            </Position>
            <AltitudeMeters>2425.199951171875</AltitudeMeters>
            <DistanceMeters>15228.992285923</DistanceMeters>
          </Trackpoint>
          <Trackpoint>
            <Time>2018-05-01T09:58:47.000Z</Time>
            <Position>
              <LatitudeDegrees>42.7064388804137706756591796875</LatitudeDegrees>
              <LongitudeDegrees>1.2701897509396076202392578125</LongitudeDegrees>
            </Position>
            <AltitudeMeters>2423.199951171875</AltitudeMeters>
            <DistanceMeters>15234.673262354</DistanceMeters>
          </Trackpoint>
          <Trackpoint>
            <Time>2018-05-01T09:58:48.000Z</Time>
            <Position>
              <LatitudeDegrees>42.70646109245717525482177734375</LatitudeDegrees>
              <LongitudeDegrees>1.27011892385780811309814453125</LongitudeDegrees>
            </Position>
            <AltitudeMeters>2421.60009765625</AltitudeMeters>
            <DistanceMeters>15240.971605455</DistanceMeters>
          </Trackpoint>
          <Trackpoint>
            <Time>2018-05-01T09:58:49.000Z</Time>
            <Position>
              <LatitudeDegrees>42.70647433586418628692626953125</LatitudeDegrees>
              <LongitudeDegrees>1.27005740068852901458740234375</LongitudeDegrees>
            </Position>
            <AltitudeMeters>2420</AltitudeMeters>
            <DistanceMeters>15246.216184833</DistanceMeters>
          </Trackpoint>
          <Trackpoint>
            <Time>2018-05-01T09:58:50.000Z</Time>
            <Position>
              <LatitudeDegrees>42.70647366531193256378173828125</LatitudeDegrees>
              <LongitudeDegrees>1.27001280896365642547607421875</LongitudeDegrees>
            </Position>
            <AltitudeMeters>2418.800048828125</AltitudeMeters>
            <DistanceMeters>15249.864517696</DistanceMeters>
          </Trackpoint>
          <Trackpoint>
            <Time>2018-05-01T09:58:51.000Z</Time>
            <Position>
              <LatitudeDegrees>42.706463523209095001220703125</LatitudeDegrees>
              <LongitudeDegrees>1.26999906264245510101318359375</LongitudeDegrees>
            </Position>
            <AltitudeMeters>2417.60009765625</AltitudeMeters>
            <DistanceMeters>15251.460287591</DistanceMeters>
          </Trackpoint>
          <Trackpoint>
            <Time>2018-05-01T09:59:55.000Z</Time>
            <Position>
              <LatitudeDegrees>42.7064968831837177276611328125</LatitudeDegrees>
              <LongitudeDegrees>1.27002102322876453399658203125</LongitudeDegrees>
            </Position>
            <AltitudeMeters>2415.39990234375</AltitudeMeters>
            <DistanceMeters>15255.584928668</DistanceMeters>
          </Trackpoint>
          <Trackpoint>
            <Time>2018-05-01T09:59:56.000Z</Time>
            <Position>
              <LatitudeDegrees>42.70650945603847503662109375</LatitudeDegrees>
              <LongitudeDegrees>1.270027644932270050048828125</LongitudeDegrees>
            </Position>
            <AltitudeMeters>2415.199951171875</AltitudeMeters>
            <DistanceMeters>15257.084424929</DistanceMeters>
          </Trackpoint>
          <Trackpoint>
            <Time>2018-05-01T10:00:01.000Z</Time>
            <Position>
              <LatitudeDegrees>42.70654809661209583282470703125</LatitudeDegrees>
              <LongitudeDegrees>1.27001549117267131805419921875</LongitudeDegrees>
            </Position>
            <AltitudeMeters>2414.39990234375</AltitudeMeters>
            <DistanceMeters>15261.498822392</DistanceMeters>
          </Trackpoint>
          <Trackpoint>
            <Time>2018-05-01T10:00:02.000Z</Time>
            <Position>
              <LatitudeDegrees>42.70656519569456577301025390625</LatitudeDegrees>
              <LongitudeDegrees>1.27000040374696254730224609375</LongitudeDegrees>
            </Position>
            <AltitudeMeters>2414.199951171875</AltitudeMeters>
            <DistanceMeters>15263.765563113</DistanceMeters>
          </Trackpoint>
          <Trackpoint>
            <Time>2018-05-01T10:00:03.000Z</Time>
            <Position>
              <LatitudeDegrees>42.7065817080438137054443359375</LatitudeDegrees>
              <LongitudeDegrees>1.2699790298938751220703125</LongitudeDegrees>
            </Position>
            <AltitudeMeters>2414.199951171875</AltitudeMeters>
            <DistanceMeters>15266.304750893</DistanceMeters>
          </Trackpoint>
          <Trackpoint>
            <Time>2018-05-01T10:00:23.000Z</Time>
            <Position>
              <LatitudeDegrees>42.70673300139605998992919921875</LatitudeDegrees>
              <LongitudeDegrees>1.2698306702077388763427734375</LongitudeDegrees>
            </Position>
            <AltitudeMeters>2414.800048828125</AltitudeMeters>
            <DistanceMeters>15287.060203835</DistanceMeters>
          </Trackpoint>
          <Trackpoint>
            <Time>2018-05-01T10:00:24.000Z</Time>
            <Position>
              <LatitudeDegrees>42.70674171857535839080810546875</LatitudeDegrees>
              <LongitudeDegrees>1.26982656307518482208251953125</LongitudeDegrees>
            </Position>
            <AltitudeMeters>2414.800048828125</AltitudeMeters>
            <DistanceMeters>15288.083672871</DistanceMeters>
          </Trackpoint>
          <Trackpoint>
            <Time>2018-05-01T10:01:49.000Z</Time>
            <Position>
              <LatitudeDegrees>42.70679737441241741180419921875</LatitudeDegrees>
              <LongitudeDegrees>1.26975917257368564605712890625</LongitudeDegrees>
            </Position>
            <AltitudeMeters>2414.199951171875</AltitudeMeters>
            <DistanceMeters>15296.374991944</DistanceMeters>
          </Trackpoint>
          <Trackpoint>
            <Time>2018-05-01T10:01:50.000Z</Time>
            <Position>
              <LatitudeDegrees>42.7068507671356201171875</LatitudeDegrees>
              <LongitudeDegrees>1.26970418728888034820556640625</LongitudeDegrees>
            </Position>
            <AltitudeMeters>2413.199951171875</AltitudeMeters>
            <DistanceMeters>15303.827776672</DistanceMeters>
          </Trackpoint>
          <Trackpoint>
            <Time>2018-05-01T10:01:52.000Z</Time>
            <Position>
              <LatitudeDegrees>42.70696501247584819793701171875</LatitudeDegrees>
              <LongitudeDegrees>1.2696020118892192840576171875</LongitudeDegrees>
            </Position>
            <AltitudeMeters>2409.60009765625</AltitudeMeters>
            <DistanceMeters>15319.043924674</DistanceMeters>
          </Trackpoint>
          <Trackpoint>
            <Time>2018-05-01T10:01:54.000Z</Time>
            <Position>
              <LatitudeDegrees>42.7070919983088970184326171875</LatitudeDegrees>
              <LongitudeDegrees>1.2695386447012424468994140625</LongitudeDegrees>
            </Position>
            <AltitudeMeters>2406</AltitudeMeters>
            <DistanceMeters>15334.098087837</DistanceMeters>
          </Trackpoint>
          <Trackpoint>
            <Time>2018-05-01T10:01:55.000Z</Time>
            <Position>
              <LatitudeDegrees>42.70715628750622272491455078125</LatitudeDegrees>
              <LongitudeDegrees>1.26953889615833759307861328125</LongitudeDegrees>
            </Position>
            <AltitudeMeters>2404.800048828125</AltitudeMeters>
            <DistanceMeters>15341.25354264</DistanceMeters>
          </Trackpoint>
          <Trackpoint>
            <Time>2018-05-01T10:01:56.000Z</Time>
            <Position>
              <LatitudeDegrees>42.70722066052258014678955078125</LatitudeDegrees>
              <LongitudeDegrees>1.2695624493062496185302734375</LongitudeDegrees>
            </Position>
            <AltitudeMeters>2403.60009765625</AltitudeMeters>
            <DistanceMeters>15348.672932507</DistanceMeters>
          </Trackpoint>
          <Trackpoint>
            <Time>2018-05-01T10:01:57.000Z</Time>
            <Position>
              <LatitudeDegrees>42.70728218369185924530029296875</LatitudeDegrees>
              <LongitudeDegrees>1.26958700828254222869873046875</LongitudeDegrees>
            </Position>
            <AltitudeMeters>2402</AltitudeMeters>
            <DistanceMeters>15355.808799733</DistanceMeters>
          </Trackpoint>
          <Trackpoint>
            <Time>2018-05-01T10:01:58.000Z</Time>
            <Position>
              <LatitudeDegrees>42.70733113400638103485107421875</LatitudeDegrees>
              <LongitudeDegrees>1.2696184404194355010986328125</LongitudeDegrees>
            </Position>
            <AltitudeMeters>2401.199951171875</AltitudeMeters>
            <DistanceMeters>15361.832324212</DistanceMeters>
          </Trackpoint>
          <Trackpoint>
            <Time>2018-05-01T10:01:59.000Z</Time>
            <Position>
              <LatitudeDegrees>42.70736415870487689971923828125</LatitudeDegrees>
              <LongitudeDegrees>1.26965238712728023529052734375</LongitudeDegrees>
            </Position>
            <AltitudeMeters>2400</AltitudeMeters>
            <DistanceMeters>15366.438915104</DistanceMeters>
          </Trackpoint>
          <Trackpoint>
            <Time>2018-05-01T10:02:00.000Z</Time>
            <Position>
              <LatitudeDegrees>42.7074011228978633880615234375</LatitudeDegrees>
              <LongitudeDegrees>1.269681639969348907470703125</LongitudeDegrees>
            </Position>
            <AltitudeMeters>2398.60009765625</AltitudeMeters>
            <DistanceMeters>15371.197846887</DistanceMeters>
          </Trackpoint>
          <Trackpoint>
            <Time>2018-05-01T10:02:01.000Z</Time>
            <Position>
              <LatitudeDegrees>42.70743691362440586090087890625</LatitudeDegrees>
              <LongitudeDegrees>1.2697161734104156494140625</LongitudeDegrees>
            </Position>
            <AltitudeMeters>2396.39990234375</AltitudeMeters>
            <DistanceMeters>15376.080407876</DistanceMeters>
          </Trackpoint>
          <Trackpoint>
            <Time>2018-05-01T10:02:02.000Z</Time>
            <Position>
              <LatitudeDegrees>42.70747697912156581878662109375</LatitudeDegrees>
              <LongitudeDegrees>1.26974928192794322967529296875</LongitudeDegrees>
            </Position>
            <AltitudeMeters>2394.60009765625</AltitudeMeters>
            <DistanceMeters>15381.298231223</DistanceMeters>
          </Trackpoint>
          <Trackpoint>
            <Time>2018-05-01T10:02:03.000Z</Time>
            <Position>
              <LatitudeDegrees>42.7075117640197277069091796875</LatitudeDegrees>
              <LongitudeDegrees>1.2697937898337841033935546875</LongitudeDegrees>
            </Position>
            <AltitudeMeters>2392.39990234375</AltitudeMeters>
            <DistanceMeters>15386.61378474</DistanceMeters>
          </Trackpoint>
          <Trackpoint>
            <Time>2018-05-01T10:02:04.000Z</Time>
            <Position>
              <LatitudeDegrees>42.70754487253725528717041015625</LatitudeDegrees>
              <LongitudeDegrees>1.26983980648219585418701171875</LongitudeDegrees>
            </Position>
            <AltitudeMeters>2390.199951171875</AltitudeMeters>
            <DistanceMeters>15391.882414068</DistanceMeters>
          </Trackpoint>
          <Trackpoint>
            <Time>2018-05-01T10:02:05.000Z</Time>
            <Position>
              <LatitudeDegrees>42.70757068879902362823486328125</LatitudeDegrees>
              <LongitudeDegrees>1.26989009790122509002685546875</LongitudeDegrees>
            </Position>
            <AltitudeMeters>2388.60009765625</AltitudeMeters>
            <DistanceMeters>15396.899968564</DistanceMeters>
          </Trackpoint>
          <Trackpoint>
            <Time>2018-05-01T10:02:06.000Z</Time>
            <Position>
              <LatitudeDegrees>42.7075996063649654388427734375</LatitudeDegrees>
              <LongitudeDegrees>1.26993276178836822509765625</LongitudeDegrees>
            </Position>
            <AltitudeMeters>2387</AltitudeMeters>
            <DistanceMeters>15401.646550569</DistanceMeters>
          </Trackpoint>
          <Trackpoint>
            <Time>2018-05-01T10:02:07.000Z</Time>
            <Position>
              <LatitudeDegrees>42.70763330161571502685546875</LatitudeDegrees>
              <LongitudeDegrees>1.26996788196265697479248046875</LongitudeDegrees>
            </Position>
            <AltitudeMeters>2384.60009765625</AltitudeMeters>
            <DistanceMeters>15406.370248156</DistanceMeters>
          </Trackpoint>
          <Trackpoint>
            <Time>2018-05-01T10:02:08.000Z</Time>
            <Position>
              <LatitudeDegrees>42.70764403045177459716796875</LatitudeDegrees>
              <LongitudeDegrees>1.2699570693075656890869140625</LongitudeDegrees>
            </Position>
            <AltitudeMeters>2382.199951171875</AltitudeMeters>
            <DistanceMeters>15407.854612886</DistanceMeters>
          </Trackpoint>
          <Trackpoint>
            <Time>2018-05-01T10:02:09.000Z</Time>
            <Position>
              <LatitudeDegrees>42.7076458744704723358154296875</LatitudeDegrees>
              <LongitudeDegrees>1.26993921585381031036376953125</LongitudeDegrees>
            </Position>
            <AltitudeMeters>2380.60009765625</AltitudeMeters>
            <DistanceMeters>15409.329824201</DistanceMeters>
          </Trackpoint>
          <Trackpoint>
            <Time>2018-05-01T10:02:12.000Z</Time>
            <Position>
              <LatitudeDegrees>42.707651741802692413330078125</LatitudeDegrees>
              <LongitudeDegrees>1.26992077566683292388916015625</LongitudeDegrees>
            </Position>
            <AltitudeMeters>2378.800048828125</AltitudeMeters>
            <DistanceMeters>15410.975735174</DistanceMeters>
          </Trackpoint>
          <Trackpoint>
            <Time>2018-05-01T10:02:25.000Z</Time>
            <Position>
              <LatitudeDegrees>42.707684598863124847412109375</LatitudeDegrees>
              <LongitudeDegrees>1.26993100158870220184326171875</LongitudeDegrees>
            </Position>
            <AltitudeMeters>2378.199951171875</AltitudeMeters>
            <DistanceMeters>15414.728989663</DistanceMeters>
          </Trackpoint>
          <Trackpoint>
            <Time>2018-05-01T10:03:49.000Z</Time>
            <Position>
              <LatitudeDegrees>42.7076894603669643402099609375</LatitudeDegrees>
              <LongitudeDegrees>1.26993368379771709442138671875</LongitudeDegrees>
            </Position>
            <AltitudeMeters>2377</AltitudeMeters>
            <DistanceMeters>15415.314773671</DistanceMeters>
          </Trackpoint>
          <Trackpoint>
            <Time>2018-05-01T10:04:55.000Z</Time>
            <Position>
              <LatitudeDegrees>42.70768417976796627044677734375</LatitudeDegrees>
              <LongitudeDegrees>1.27001834101974964141845703125</LongitudeDegrees>
            </Position>
            <AltitudeMeters>2377.800048828125</AltitudeMeters>
            <DistanceMeters>15422.262779764</DistanceMeters>
          </Trackpoint>
          <Trackpoint>
            <Time>2018-05-01T10:05:49.000Z</Time>
            <Position>
              <LatitudeDegrees>42.70774872042238712310791015625</LatitudeDegrees>
              <LongitudeDegrees>1.26990485005080699920654296875</LongitudeDegrees>
            </Position>
            <AltitudeMeters>2378.39990234375</AltitudeMeters>
            <DistanceMeters>15434.000021614</DistanceMeters>
          </Trackpoint>
          <Trackpoint>
            <Time>2018-05-01T10:06:10.000Z</Time>
            <Position>
              <LatitudeDegrees>42.707740254700183868408203125</LatitudeDegrees>
              <LongitudeDegrees>1.269909627735614776611328125</LongitudeDegrees>
            </Position>
            <AltitudeMeters>2378</AltitudeMeters>
            <DistanceMeters>15435.02349065</DistanceMeters>
          </Trackpoint>
          <Trackpoint>
            <Time>2018-05-01T10:06:52.000Z</Time>
            <Position>
              <LatitudeDegrees>42.70774595439434051513671875</LatitudeDegrees>
              <LongitudeDegrees>1.26989915035665035247802734375</LongitudeDegrees>
            </Position>
            <AltitudeMeters>2378.39990234375</AltitudeMeters>
            <DistanceMeters>15436.090162873</DistanceMeters>
          </Trackpoint>
          <Trackpoint>
            <Time>2018-05-01T10:08:07.000Z</Time>
            <Position>
              <LatitudeDegrees>42.70773279480636119842529296875</LatitudeDegrees>
              <LongitudeDegrees>1.2698896788060665130615234375</LongitudeDegrees>
            </Position>
            <AltitudeMeters>2377.800048828125</AltitudeMeters>
            <DistanceMeters>15437.747010252</DistanceMeters>
          </Trackpoint>
          <Trackpoint>
            <Time>2018-05-01T10:08:51.000Z</Time>
            <Position>
              <LatitudeDegrees>42.707700692117214202880859375</LatitudeDegrees>
              <LongitudeDegrees>1.26990384422242641448974609375</LongitudeDegrees>
            </Position>
            <AltitudeMeters>2378.60009765625</AltitudeMeters>
            <DistanceMeters>15441.502669902</DistanceMeters>
          </Trackpoint>
          <Trackpoint>
            <Time>2018-05-01T10:09:21.000Z</Time>
            <Position>
              <LatitudeDegrees>42.7077125944197177886962890625</LatitudeDegrees>
              <LongitudeDegrees>1.2698883377015590667724609375</LongitudeDegrees>
            </Position>
            <AltitudeMeters>2379</AltitudeMeters>
            <DistanceMeters>15443.335478795</DistanceMeters>
          </Trackpoint>
          <Trackpoint>
            <Time>2018-05-01T10:09:51.000Z</Time>
            <Position>
              <LatitudeDegrees>42.7077265083789825439453125</LatitudeDegrees>
              <LongitudeDegrees>1.26991960220038890838623046875</LongitudeDegrees>
            </Position>
            <AltitudeMeters>2379.199951171875</AltitudeMeters>
            <DistanceMeters>15446.323914105</DistanceMeters>
          </Trackpoint>
          <Trackpoint>
            <Time>2018-05-01T10:10:35.000Z</Time>
            <Position>
              <LatitudeDegrees>42.70780068822205066680908203125</LatitudeDegrees>
              <LongitudeDegrees>1.2698812969028949737548828125</LongitudeDegrees>
            </Position>
            <AltitudeMeters>2378.800048828125</AltitudeMeters>
            <DistanceMeters>15455.154754392</DistanceMeters>
          </Trackpoint>
          <Trackpoint>
            <Time>2018-05-01T10:10:39.000Z</Time>
            <Position>
              <LatitudeDegrees>42.70779549144208431243896484375</LatitudeDegrees>
              <LongitudeDegrees>1.26988221891224384307861328125</LongitudeDegrees>
            </Position>
            <AltitudeMeters>2378.800048828125</AltitudeMeters>
            <DistanceMeters>15455.740538401</DistanceMeters>
          </Trackpoint>
          <Trackpoint>
            <Time>2018-05-01T10:10:54.000Z</Time>
            <Position>
              <LatitudeDegrees>42.70774905569851398468017578125</LatitudeDegrees>
              <LongitudeDegrees>1.269895546138286590576171875</LongitudeDegrees>
            </Position>
            <AltitudeMeters>2378.39990234375</AltitudeMeters>
            <DistanceMeters>15461.022861394</DistanceMeters>
          </Trackpoint>
          <Trackpoint>
            <Time>2018-05-01T10:11:12.000Z</Time>
            <Position>
              <LatitudeDegrees>42.7077548392117023468017578125</LatitudeDegrees>
              <LongitudeDegrees>1.26989462412893772125244140625</LongitudeDegrees>
            </Position>
            <AltitudeMeters>2378</AltitudeMeters>
            <DistanceMeters>15461.674331726</DistanceMeters>
          </Trackpoint>
          <Trackpoint>
            <Time>2018-05-01T10:11:24.000Z</Time>
            <Position>
              <LatitudeDegrees>42.70774369128048419952392578125</LatitudeDegrees>
              <LongitudeDegrees>1.26989998854696750640869140625</LongitudeDegrees>
            </Position>
            <AltitudeMeters>2378</AltitudeMeters>
            <DistanceMeters>15462.991060505</DistanceMeters>
          </Trackpoint>
          <Trackpoint>
            <Time>2018-05-01T10:12:42.000Z</Time>
            <Position>
              <LatitudeDegrees>42.707738243043422698974609375</LatitudeDegrees>
              <LongitudeDegrees>1.2698972225189208984375</LongitudeDegrees>
            </Position>
            <AltitudeMeters>2378.39990234375</AltitudeMeters>
            <DistanceMeters>15463.635563039</DistanceMeters>
          </Trackpoint>
          <Trackpoint>
            <Time>2018-05-01T10:13:03.000Z</Time>
            <Position>
              <LatitudeDegrees>42.70773698575794696807861328125</LatitudeDegrees>
              <LongitudeDegrees>1.26993142068386077880859375</LongitudeDegrees>
            </Position>
            <AltitudeMeters>2378.39990234375</AltitudeMeters>
            <DistanceMeters>15466.435224867</DistanceMeters>
          </Trackpoint>
          <Trackpoint>
            <Time>2018-05-01T10:13:14.000Z</Time>
            <Position>
              <LatitudeDegrees>42.70772273652255535125732421875</LatitudeDegrees>
              <LongitudeDegrees>1.26994927413761615753173828125</LongitudeDegrees>
            </Position>
            <AltitudeMeters>2378.60009765625</AltitudeMeters>
            <DistanceMeters>15468.593816873</DistanceMeters>
          </Trackpoint>
          <Trackpoint>
            <Time>2018-05-01T10:13:28.000Z</Time>
            <Position>
              <LatitudeDegrees>42.7077022008597850799560546875</LatitudeDegrees>
              <LongitudeDegrees>1.2700221128761768341064453125</LongitudeDegrees>
            </Position>
            <AltitudeMeters>2378.60009765625</AltitudeMeters>
            <DistanceMeters>15474.974774065</DistanceMeters>
          </Trackpoint>
          <Trackpoint>
            <Time>2018-05-01T10:13:37.000Z</Time>
            <Position>
              <LatitudeDegrees>42.70773514173924922943115234375</LatitudeDegrees>
              <LongitudeDegrees>1.27003124915063381195068359375</LongitudeDegrees>
            </Position>
            <AltitudeMeters>2379.199951171875</AltitudeMeters>
            <DistanceMeters>15478.718392453</DistanceMeters>
          </Trackpoint>
          <Trackpoint>
            <Time>2018-05-01T10:13:39.000Z</Time>
            <Position>
              <LatitudeDegrees>42.70775056444108486175537109375</LatitudeDegrees>
              <LongitudeDegrees>1.27004516310989856719970703125</LongitudeDegrees>
            </Position>
            <AltitudeMeters>2379.199951171875</AltitudeMeters>
            <DistanceMeters>15480.782901131</DistanceMeters>
          </Trackpoint>
          <Trackpoint>
            <Time>2018-05-01T10:14:02.000Z</Time>
            <Position>
              <LatitudeDegrees>42.70774134434759616851806640625</LatitudeDegrees>
              <LongitudeDegrees>1.27027600072324275970458984375</LongitudeDegrees>
            </Position>
            <AltitudeMeters>2380.39990234375</AltitudeMeters>
            <DistanceMeters>15499.690590742</DistanceMeters>
          </Trackpoint>
          <Trackpoint>
            <Time>2018-05-01T10:14:12.000Z</Time>
            <Position>
              <LatitudeDegrees>42.707804627716541290283203125</LatitudeDegrees>
              <LongitudeDegrees>1.2703288905322551727294921875</LongitudeDegrees>
            </Position>
            <AltitudeMeters>2381</AltitudeMeters>
            <DistanceMeters>15507.956276338</DistanceMeters>
          </Trackpoint>
          <Trackpoint>
            <Time>2018-05-01T10:14:35.000Z</Time>
            <Position>
              <LatitudeDegrees>42.707856260240077972412109375</LatitudeDegrees>
              <LongitudeDegrees>1.27048906870186328887939453125</LongitudeDegrees>
            </Position>
            <AltitudeMeters>2384.199951171875</AltitudeMeters>
            <DistanceMeters>15522.262137114</DistanceMeters>
          </Trackpoint>
          <Trackpoint>
            <Time>2018-05-01T10:14:57.000Z</Time>
            <Position>
              <LatitudeDegrees>42.70791518501937389373779296875</LatitudeDegrees>
              <LongitudeDegrees>1.27049644477665424346923828125</LongitudeDegrees>
            </Position>
            <AltitudeMeters>2387.199951171875</AltitudeMeters>
            <DistanceMeters>15528.848523622</DistanceMeters>
          </Trackpoint>
          <Trackpoint>
            <Time>2018-05-01T10:15:18.000Z</Time>
            <Position>
              <LatitudeDegrees>42.7080073021352291107177734375</LatitudeDegrees>
              <LongitudeDegrees>1.2704251147806644439697265625</LongitudeDegrees>
            </Position>
            <AltitudeMeters>2390.39990234375</AltitudeMeters>
            <DistanceMeters>15540.644856866</DistanceMeters>
          </Trackpoint>
          <Trackpoint>
            <Time>2018-05-01T10:15:37.000Z</Time>
            <Position>
              <LatitudeDegrees>42.70806639455258846282958984375</LatitudeDegrees>
              <LongitudeDegrees>1.27035613171756267547607421875</LongitudeDegrees>
            </Position>
            <AltitudeMeters>2393.39990234375</AltitudeMeters>
            <DistanceMeters>15549.310021933</DistanceMeters>
          </Trackpoint>
          <Trackpoint>
            <Time>2018-05-01T10:15:51.000Z</Time>
            <Position>
              <LatitudeDegrees>42.7080827392637729644775390625</LatitudeDegrees>
              <LongitudeDegrees>1.27043374814093112945556640625</LongitudeDegrees>
            </Position>
            <AltitudeMeters>2394.39990234375</AltitudeMeters>
            <DistanceMeters>15555.913523969</DistanceMeters>
          </Trackpoint>
          <Trackpoint>
            <Time>2018-05-01T10:16:04.000Z</Time>
            <Position>
              <LatitudeDegrees>42.7081109024584293365478515625</LatitudeDegrees>
              <LongitudeDegrees>1.27053835429251194000244140625</LongitudeDegrees>
            </Position>
            <AltitudeMeters>2397.199951171875</AltitudeMeters>
            <DistanceMeters>15565.025193565</DistanceMeters>
          </Trackpoint>
          <Trackpoint>
            <Time>2018-05-01T10:16:17.000Z</Time>
            <Position>
              <LatitudeDegrees>42.708146609365940093994140625</LatitudeDegrees>
              <LongitudeDegrees>1.2706470675766468048095703125</LongitudeDegrees>
            </Position>
            <AltitudeMeters>2400</AltitudeMeters>
            <DistanceMeters>15574.764388756</DistanceMeters>
          </Trackpoint>
          <Trackpoint>
            <Time>2018-05-01T10:16:30.000Z</Time>
            <Position>
              <LatitudeDegrees>42.708170078694820404052734375</LatitudeDegrees>
              <LongitudeDegrees>1.27075410448014736175537109375</LongitudeDegrees>
            </Position>
            <AltitudeMeters>2401.800048828125</AltitudeMeters>
            <DistanceMeters>15583.900306694</DistanceMeters>
          </Trackpoint>
          <Trackpoint>
            <Time>2018-05-01T10:16:56.000Z</Time>
            <Position>
              <LatitudeDegrees>42.70808793604373931884765625</LatitudeDegrees>
              <LongitudeDegrees>1.27089827321469783782958984375</LongitudeDegrees>
            </Position>
            <AltitudeMeters>2404</AltitudeMeters>
            <DistanceMeters>15598.820711333</DistanceMeters>
          </Trackpoint>
          <Trackpoint>
            <Time>2018-05-01T10:17:51.000Z</Time>
            <Position>
              <LatitudeDegrees>42.708083577454090118408203125</LatitudeDegrees>
              <LongitudeDegrees>1.2709937430918216705322265625</LongitudeDegrees>
            </Position>
            <AltitudeMeters>2403.60009765625</AltitudeMeters>
            <DistanceMeters>15606.644128625</DistanceMeters>
          </Trackpoint>
          <Trackpoint>
            <Time>2018-05-01T10:17:53.000Z</Time>
            <Position>
              <LatitudeDegrees>42.7081046998500823974609375</LatitudeDegrees>
              <LongitudeDegrees>1.271014697849750518798828125</LongitudeDegrees>
            </Position>
            <AltitudeMeters>2403.60009765625</AltitudeMeters>
            <DistanceMeters>15609.554491439</DistanceMeters>
          </Trackpoint>
          <Trackpoint>
            <Time>2018-05-01T10:17:54.000Z</Time>
            <Position>
              <LatitudeDegrees>42.70812104456126689910888671875</LatitudeDegrees>
              <LongitudeDegrees>1.27102634869515895843505859375</LongitudeDegrees>
            </Position>
            <AltitudeMeters>2403.800048828125</AltitudeMeters>
            <DistanceMeters>15611.605836271</DistanceMeters>
          </Trackpoint>
          <Trackpoint>
            <Time>2018-05-01T10:17:55.000Z</Time>
            <Position>
              <LatitudeDegrees>42.70813026465475559234619140625</LatitudeDegrees>
              <LongitudeDegrees>1.27103975974023342132568359375</LongitudeDegrees>
            </Position>
            <AltitudeMeters>2404.199951171875</AltitudeMeters>
            <DistanceMeters>15613.108340551</DistanceMeters>
          </Trackpoint>
          <Trackpoint>
            <Time>2018-05-01T10:17:56.000Z</Time>
            <Position>
              <LatitudeDegrees>42.70813864655792713165283203125</LatitudeDegrees>
              <LongitudeDegrees>1.27104797400534152984619140625</LongitudeDegrees>
            </Position>
            <AltitudeMeters>2404.39990234375</AltitudeMeters>
            <DistanceMeters>15614.25655271</DistanceMeters>
          </Trackpoint>
          <Trackpoint>
            <Time>2018-05-01T10:17:57.000Z</Time>
            <Position>
              <LatitudeDegrees>42.7081434242427349090576171875</LatitudeDegrees>
              <LongitudeDegrees>1.27106088213622570037841796875</LongitudeDegrees>
            </Position>
            <AltitudeMeters>2404.60009765625</AltitudeMeters>
            <DistanceMeters>15615.435803223</DistanceMeters>
          </Trackpoint>
          <Trackpoint>
            <Time>2018-05-01T10:17:58.000Z</Time>
            <Position>
              <LatitudeDegrees>42.7081457711756229400634765625</LatitudeDegrees>
              <LongitudeDegrees>1.27107001841068267822265625</LongitudeDegrees>
            </Position>
            <AltitudeMeters>2404.800048828125</AltitudeMeters>
            <DistanceMeters>15616.230853756</DistanceMeters>
          </Trackpoint>
          <Trackpoint>
            <Time>2018-05-01T10:18:18.000Z</Time>
            <Position>
              <LatitudeDegrees>42.70822715945541858673095703125</LatitudeDegrees>
              <LongitudeDegrees>1.271290965378284454345703125</LongitudeDegrees>
            </Position>
            <AltitudeMeters>2407</AltitudeMeters>
            <DistanceMeters>15636.444758105</DistanceMeters>
          </Trackpoint>
          <Trackpoint>
            <Time>2018-05-01T10:19:30.000Z</Time>
            <Position>
              <LatitudeDegrees>42.7082892693579196929931640625</LatitudeDegrees>
              <LongitudeDegrees>1.2714537419378757476806640625</LongitudeDegrees>
            </Position>
            <AltitudeMeters>2410</AltitudeMeters>
            <DistanceMeters>15651.445741572</DistanceMeters>
          </Trackpoint>
          <Trackpoint>
            <Time>2018-05-01T10:19:38.000Z</Time>
            <Position>
              <LatitudeDegrees>42.70833260379731655120849609375</LatitudeDegrees>
              <LongitudeDegrees>1.2715010158717632293701171875</LongitudeDegrees>
            </Position>
            <AltitudeMeters>2411.60009765625</AltitudeMeters>
            <DistanceMeters>15657.627592712</DistanceMeters>
          </Trackpoint>
          <Trackpoint>
            <Time>2018-05-01T10:20:00.000Z</Time>
            <Position>
              <LatitudeDegrees>42.7085219509899616241455078125</LatitudeDegrees>
              <LongitudeDegrees>1.27148282714188098907470703125</LongitudeDegrees>
            </Position>
            <AltitudeMeters>2414.199951171875</AltitudeMeters>
            <DistanceMeters>15678.754747717</DistanceMeters>
          </Trackpoint>
          <Trackpoint>
            <Time>2018-05-01T10:20:09.000Z</Time>
            <Position>
              <LatitudeDegrees>42.70861255936324596405029296875</LatitudeDegrees>
              <LongitudeDegrees>1.27144728787243366241455078125</LongitudeDegrees>
            </Position>
            <AltitudeMeters>2414.39990234375</AltitudeMeters>
            <DistanceMeters>15689.250791382</DistanceMeters>
          </Trackpoint>
          <Trackpoint>
            <Time>2018-05-01T10:20:28.000Z</Time>
            <Position>
              <LatitudeDegrees>42.708788327872753143310546875</LatitudeDegrees>
              <LongitudeDegrees>1.27134821377694606781005859375</LongitudeDegrees>
            </Position>
            <AltitudeMeters>2414.39990234375</AltitudeMeters>
            <DistanceMeters>15710.425976052</DistanceMeters>
          </Trackpoint>
          <Trackpoint>
            <Time>2018-05-01T10:20:58.000Z</Time>
            <Position>
              <LatitudeDegrees>42.7089350111782550811767578125</LatitudeDegrees>
              <LongitudeDegrees>1.2712053023278713226318359375</LongitudeDegrees>
            </Position>
            <AltitudeMeters>2417.199951171875</AltitudeMeters>
            <DistanceMeters>15730.504740778</DistanceMeters>
          </Trackpoint>
          <Trackpoint>
            <Time>2018-05-01T10:21:17.000Z</Time>
            <Position>
              <LatitudeDegrees>42.70899460650980472564697265625</LatitudeDegrees>
              <LongitudeDegrees>1.2711013667285442352294921875</LongitudeDegrees>
            </Position>
            <AltitudeMeters>2420.199951171875</AltitudeMeters>
            <DistanceMeters>15741.286818692</DistanceMeters>
          </Trackpoint>
          <Trackpoint>
            <Time>2018-05-01T10:21:35.000Z</Time>
            <Position>
              <LatitudeDegrees>42.70907339639961719512939453125</LatitudeDegrees>
              <LongitudeDegrees>1.27098410390317440032958984375</LongitudeDegrees>
            </Position>
            <AltitudeMeters>2423.39990234375</AltitudeMeters>
            <DistanceMeters>15754.281873889</DistanceMeters>
          </Trackpoint>
          <Trackpoint>
            <Time>2018-05-01T10:22:03.000Z</Time>
            <Position>
              <LatitudeDegrees>42.70911647938191890716552734375</LatitudeDegrees>
              <LongitudeDegrees>1.270810849964618682861328125</LongitudeDegrees>
            </Position>
            <AltitudeMeters>2426.60009765625</AltitudeMeters>
            <DistanceMeters>15769.240660414</DistanceMeters>
          </Trackpoint>
          <Trackpoint>
            <Time>2018-05-01T10:22:20.000Z</Time>
            <Position>
              <LatitudeDegrees>42.7091710455715656280517578125</LatitudeDegrees>
              <LongitudeDegrees>1.27071370370686054229736328125</LongitudeDegrees>
            </Position>
            <AltitudeMeters>2429.60009765625</AltitudeMeters>
            <DistanceMeters>15779.241516712</DistanceMeters>
          </Trackpoint>
          <Trackpoint>
            <Time>2018-05-01T10:22:45.000Z</Time>
            <Position>
              <LatitudeDegrees>42.70926249213516712188720703125</LatitudeDegrees>
              <LongitudeDegrees>1.270567439496517181396484375</LongitudeDegrees>
            </Position>
            <AltitudeMeters>2432.800048828125</AltitudeMeters>
            <DistanceMeters>15794.947969474</DistanceMeters>
          </Trackpoint>
          <Trackpoint>
            <Time>2018-05-01T10:23:04.000Z</Time>
            <Position>
              <LatitudeDegrees>42.70933725871145725250244140625</LatitudeDegrees>
              <LongitudeDegrees>1.2704710476100444793701171875</LongitudeDegrees>
            </Position>
            <AltitudeMeters>2435.800048828125</AltitudeMeters>
            <DistanceMeters>15806.411200799</DistanceMeters>
          </Trackpoint>
          <Trackpoint>
            <Time>2018-05-01T10:23:29.000Z</Time>
            <Position>
              <LatitudeDegrees>42.70932954736053943634033203125</LatitudeDegrees>
              <LongitudeDegrees>1.27047247253358364105224609375</LongitudeDegrees>
            </Position>
            <AltitudeMeters>2436.39990234375</AltitudeMeters>
            <DistanceMeters>15807.282135022</DistanceMeters>
          </Trackpoint>
          <Trackpoint>
            <Time>2018-05-01T10:23:56.000Z</Time>
            <Position>
              <LatitudeDegrees>42.70935050211846828460693359375</LatitudeDegrees>
              <LongitudeDegrees>1.27056450583040714263916015625</LongitudeDegrees>
            </Position>
            <AltitudeMeters>2439.60009765625</AltitudeMeters>
            <DistanceMeters>15815.16190695</DistanceMeters>
          </Trackpoint>
          <Trackpoint>
            <Time>2018-05-01T10:24:12.000Z</Time>
            <Position>
              <LatitudeDegrees>42.70942560397088527679443359375</LatitudeDegrees>
              <LongitudeDegrees>1.27062770538032054901123046875</LongitudeDegrees>
            </Position>
            <AltitudeMeters>2442.800048828125</AltitudeMeters>
            <DistanceMeters>15824.990168633</DistanceMeters>
          </Trackpoint>
          <Trackpoint>
            <Time>2018-05-01T10:24:26.000Z</Time>
            <Position>
              <LatitudeDegrees>42.70944513380527496337890625</LatitudeDegrees>
              <LongitudeDegrees>1.27070817165076732635498046875</LongitudeDegrees>
            </Position>
            <AltitudeMeters>2446</AltitudeMeters>
            <DistanceMeters>15831.921258496</DistanceMeters>
          </Trackpoint>
          <Trackpoint>
            <Time>2018-05-01T10:24:44.000Z</Time>
            <Position>
              <LatitudeDegrees>42.70953775383532047271728515625</LatitudeDegrees>
              <LongitudeDegrees>1.2706262804567813873291015625</LongitudeDegrees>
            </Position>
            <AltitudeMeters>2449.199951171875</AltitudeMeters>
            <DistanceMeters>15844.21464531</DistanceMeters>
          </Trackpoint>
          <Trackpoint>
            <Time>2018-05-01T10:25:07.000Z</Time>
            <Position>
              <LatitudeDegrees>42.7096236683428287506103515625</LatitudeDegrees>
              <LongitudeDegrees>1.2705820240080356597900390625</LongitudeDegrees>
            </Position>
            <AltitudeMeters>2452.199951171875</AltitudeMeters>
            <DistanceMeters>15854.439625753</DistanceMeters>
          </Trackpoint>
          <Trackpoint>
            <Time>2018-05-01T10:25:24.000Z</Time>
            <Position>
              <LatitudeDegrees>42.70965593867003917694091796875</LatitudeDegrees>
              <LongitudeDegrees>1.27067481167614459991455078125</LongitudeDegrees>
            </Position>
            <AltitudeMeters>2455.199951171875</AltitudeMeters>
            <DistanceMeters>15862.835385202</DistanceMeters>
          </Trackpoint>
          <Trackpoint>
            <Time>2018-05-01T10:25:36.000Z</Time>
            <Position>
              <LatitudeDegrees>42.7096813358366489410400390625</LatitudeDegrees>
              <LongitudeDegrees>1.27068067900836467742919921875</LongitudeDegrees>
            </Position>
            <AltitudeMeters>2458.199951171875</AltitudeMeters>
            <DistanceMeters>15865.701980668</DistanceMeters>
          </Trackpoint>
          <Trackpoint>
            <Time>2018-05-01T10:25:38.000Z</Time>
            <Position>
              <LatitudeDegrees>42.70969348959624767303466796875</LatitudeDegrees>
              <LongitudeDegrees>1.27067715860903263092041015625</LongitudeDegrees>
            </Position>
            <AltitudeMeters>2458.800048828125</AltitudeMeters>
            <DistanceMeters>15867.085590514</DistanceMeters>
          </Trackpoint>
          <Trackpoint>
            <Time>2018-05-01T10:25:50.000Z</Time>
            <Position>
              <LatitudeDegrees>42.70975786261260509490966796875</LatitudeDegrees>
              <LongitudeDegrees>1.27064622938632965087890625</LongitudeDegrees>
            </Position>
            <AltitudeMeters>2460.800048828125</AltitudeMeters>
            <DistanceMeters>15874.683569107</DistanceMeters>
          </Trackpoint>
          <Trackpoint>
            <Time>2018-05-01T10:26:10.000Z</Time>
            <Position>
              <LatitudeDegrees>42.70984151400625705718994140625</LatitudeDegrees>
              <LongitudeDegrees>1.27057783305644989013671875</LongitudeDegrees>
            </Position>
            <AltitudeMeters>2463.800048828125</AltitudeMeters>
            <DistanceMeters>15885.545750234</DistanceMeters>
          </Trackpoint>
          <Trackpoint>
            <Time>2018-05-01T10:26:41.000Z</Time>
            <Position>
              <LatitudeDegrees>42.70992868579924106597900390625</LatitudeDegrees>
              <LongitudeDegrees>1.27065737731754779815673828125</LongitudeDegrees>
            </Position>
            <AltitudeMeters>2465.800048828125</AltitudeMeters>
            <DistanceMeters>15897.227467368</DistanceMeters>
          </Trackpoint>
          <Trackpoint>
            <Time>2018-05-01T10:26:54.000Z</Time>
            <Position>
              <LatitudeDegrees>42.70995718427002429962158203125</LatitudeDegrees>
              <LongitudeDegrees>1.2707188166677951812744140625</LongitudeDegrees>
            </Position>
            <AltitudeMeters>2468</AltitudeMeters>
            <DistanceMeters>15903.169487134</DistanceMeters>
          </Trackpoint>
          <Trackpoint>
            <Time>2018-05-01T10:27:03.000Z</Time>
            <Position>
              <LatitudeDegrees>42.7099810726940631866455078125</LatitudeDegrees>
              <LongitudeDegrees>1.27074421383440494537353515625</LongitudeDegrees>
            </Position>
            <AltitudeMeters>2470.60009765625</AltitudeMeters>
            <DistanceMeters>15906.543939148</DistanceMeters>
          </Trackpoint>
          <Trackpoint>
            <Time>2018-05-01T10:27:05.000Z</Time>
            <Position>
              <LatitudeDegrees>42.709985263645648956298828125</LatitudeDegrees>
              <LongitudeDegrees>1.27074589021503925323486328125</LongitudeDegrees>
            </Position>
            <AltitudeMeters>2471.39990234375</AltitudeMeters>
            <DistanceMeters>15907.028482219</DistanceMeters>
          </Trackpoint>
          <Trackpoint>
            <Time>2018-05-01T10:27:13.000Z</Time>
            <Position>
              <LatitudeDegrees>42.71001921035349369049072265625</LatitudeDegrees>
              <LongitudeDegrees>1.27074438147246837615966796875</LongitudeDegrees>
            </Position>
            <AltitudeMeters>2474.39990234375</AltitudeMeters>
            <DistanceMeters>15910.808109309</DistanceMeters>
          </Trackpoint>
          <Trackpoint>
            <Time>2018-05-01T10:27:28.000Z</Time>
            <Position>
              <LatitudeDegrees>42.71008073352277278900146484375</LatitudeDegrees>
              <LongitudeDegrees>1.27074270509183406829833984375</LongitudeDegrees>
            </Position>
            <AltitudeMeters>2475.39990234375</AltitudeMeters>
            <DistanceMeters>15917.656628641</DistanceMeters>
          </Trackpoint>
          <Trackpoint>
            <Time>2018-05-01T10:27:46.000Z</Time>
            <Position>
              <LatitudeDegrees>42.7101597748696804046630859375</LatitudeDegrees>
              <LongitudeDegrees>1.27078159712255001068115234375</LongitudeDegrees>
            </Position>
            <AltitudeMeters>2475.39990234375</AltitudeMeters>
            <DistanceMeters>15927.01133178</DistanceMeters>
          </Trackpoint>
          <Trackpoint>
            <Time>2018-05-01T10:27:57.000Z</Time>
            <Position>
              <LatitudeDegrees>42.71018215455114841461181640625</LatitudeDegrees>
              <LongitudeDegrees>1.2708413600921630859375</LongitudeDegrees>
            </Position>
            <AltitudeMeters>2477.39990234375</AltitudeMeters>
            <DistanceMeters>15932.498250302</DistanceMeters>
          </Trackpoint>
          <Trackpoint>
            <Time>2018-05-01T10:28:05.000Z</Time>
            <Position>
              <LatitudeDegrees>42.71019556559622287750244140625</LatitudeDegrees>
              <LongitudeDegrees>1.27086943946778774261474609375</LongitudeDegrees>
            </Position>
            <AltitudeMeters>2480.39990234375</AltitudeMeters>
            <DistanceMeters>15935.237592107</DistanceMeters>
          </Trackpoint>
          <Trackpoint>
            <Time>2018-05-01T10:28:06.000Z</Time>
            <Position>
              <LatitudeDegrees>42.71019841544330120086669921875</LatitudeDegrees>
              <LongitudeDegrees>1.27087195403873920440673828125</LongitudeDegrees>
            </Position>
            <AltitudeMeters>2481</AltitudeMeters>
            <DistanceMeters>15935.617698964</DistanceMeters>
          </Trackpoint>
          <Trackpoint>
            <Time>2018-05-01T10:28:17.000Z</Time>
            <Position>
              <LatitudeDegrees>42.710234038531780242919921875</LatitudeDegrees>
              <LongitudeDegrees>1.270897351205348968505859375</LongitudeDegrees>
            </Position>
            <AltitudeMeters>2482.199951171875</AltitudeMeters>
            <DistanceMeters>15940.09405235</DistanceMeters>
          </Trackpoint>
          <Trackpoint>
            <Time>2018-05-01T10:28:41.000Z</Time>
            <Position>
              <LatitudeDegrees>42.710368148982524871826171875</LatitudeDegrees>
              <LongitudeDegrees>1.2709652446210384368896484375</LongitudeDegrees>
            </Position>
            <AltitudeMeters>2485.199951171875</AltitudeMeters>
            <DistanceMeters>15956.020314222</DistanceMeters>
          </Trackpoint>
          <Trackpoint>
            <Time>2018-05-01T10:29:09.000Z</Time>
            <Position>
              <LatitudeDegrees>42.71052279509603977203369140625</LatitudeDegrees>
              <LongitudeDegrees>1.27100723795592784881591796875</LongitudeDegrees>
            </Position>
            <AltitudeMeters>2488.199951171875</AltitudeMeters>
            <DistanceMeters>15973.571982459</DistanceMeters>
          </Trackpoint>
          <Trackpoint>
            <Time>2018-05-01T10:29:32.000Z</Time>
            <Position>
              <LatitudeDegrees>42.71064399741590023040771484375</LatitudeDegrees>
              <LongitudeDegrees>1.27109818160533905029296875</LongitudeDegrees>
            </Position>
            <AltitudeMeters>2491.39990234375</AltitudeMeters>
            <DistanceMeters>15988.976571998</DistanceMeters>
          </Trackpoint>
          <Trackpoint>
            <Time>2018-05-01T10:29:54.000Z</Time>
            <Position>
              <LatitudeDegrees>42.71078665740787982940673828125</LatitudeDegrees>
              <LongitudeDegrees>1.27110580913722515106201171875</LongitudeDegrees>
            </Position>
            <AltitudeMeters>2494.39990234375</AltitudeMeters>
            <DistanceMeters>16004.867357305</DistanceMeters>
          </Trackpoint>
          <Trackpoint>
            <Time>2018-05-01T10:30:14.000Z</Time>
            <Position>
              <LatitudeDegrees>42.710919342935085296630859375</LatitudeDegrees>
              <LongitudeDegrees>1.2710648216307163238525390625</LongitudeDegrees>
            </Position>
            <AltitudeMeters>2497.60009765625</AltitudeMeters>
            <DistanceMeters>16020.010930905</DistanceMeters>
          </Trackpoint>
          <Trackpoint>
            <Time>2018-05-01T10:30:35.000Z</Time>
            <Position>
              <LatitudeDegrees>42.711043395102024078369140625</LatitudeDegrees>
              <LongitudeDegrees>1.27108535729348659515380859375</LongitudeDegrees>
            </Position>
            <AltitudeMeters>2500.60009765625</AltitudeMeters>
            <DistanceMeters>16033.920582873</DistanceMeters>
          </Trackpoint>
          <Trackpoint>
            <Time>2018-05-01T10:30:56.000Z</Time>
            <Position>
              <LatitudeDegrees>42.71119016222655773162841796875</LatitudeDegrees>
              <LongitudeDegrees>1.27105317078530788421630859375</LongitudeDegrees>
            </Position>
            <AltitudeMeters>2503.800048828125</AltitudeMeters>
            <DistanceMeters>16050.466695941</DistanceMeters>
          </Trackpoint>
          <Trackpoint>
            <Time>2018-05-01T10:31:23.000Z</Time>
            <Position>
              <LatitudeDegrees>42.71136215887963771820068359375</LatitudeDegrees>
              <LongitudeDegrees>1.27101427875459194183349609375</LongitudeDegrees>
            </Position>
            <AltitudeMeters>2505.800048828125</AltitudeMeters>
            <DistanceMeters>16069.872630806</DistanceMeters>
          </Trackpoint>
          <Trackpoint>
            <Time>2018-05-01T10:31:34.000Z</Time>
            <Position>
              <LatitudeDegrees>42.7114234305918216705322265625</LatitudeDegrees>
              <LongitudeDegrees>1.271008662879467010498046875</LongitudeDegrees>
            </Position>
            <AltitudeMeters>2504.800048828125</AltitudeMeters>
            <DistanceMeters>16076.707291401</DistanceMeters>
          </Trackpoint>
          <Trackpoint>
            <Time>2018-05-01T10:32:19.000Z</Time>
            <Position>
              <LatitudeDegrees>42.7114170603454113006591796875</LatitudeDegrees>
              <LongitudeDegrees>1.27102249301970005035400390625</LongitudeDegrees>
            </Position>
            <AltitudeMeters>2505.60009765625</AltitudeMeters>
            <DistanceMeters>16078.037665402</DistanceMeters>
          </Trackpoint>
          <Trackpoint>
            <Time>2018-05-01T10:32:20.000Z</Time>
            <Position>
              <LatitudeDegrees>42.7114251069724559783935546875</LatitudeDegrees>
              <LongitudeDegrees>1.27101503312587738037109375</LongitudeDegrees>
            </Position>
            <AltitudeMeters>2506.199951171875</AltitudeMeters>
            <DistanceMeters>16079.121136647</DistanceMeters>
          </Trackpoint>
          <Trackpoint>
            <Time>2018-05-01T10:32:21.000Z</Time>
            <Position>
              <LatitudeDegrees>42.71142753772437572479248046875</LatitudeDegrees>
              <LongitudeDegrees>1.2710125185549259185791015625</LongitudeDegrees>
            </Position>
            <AltitudeMeters>2506.39990234375</AltitudeMeters>
            <DistanceMeters>16079.463760338</DistanceMeters>
          </Trackpoint>
          <Trackpoint>
            <Time>2018-05-01T10:32:33.000Z</Time>
            <Position>
              <LatitudeDegrees>42.7114976942539215087890625</LatitudeDegrees>
              <LongitudeDegrees>1.27103204838931560516357421875</LongitudeDegrees>
            </Position>
            <AltitudeMeters>2507</AltitudeMeters>
            <DistanceMeters>16087.433550656</DistanceMeters>
          </Trackpoint>
          <Trackpoint>
            <Time>2018-05-01T10:32:52.000Z</Time>
            <Position>
              <LatitudeDegrees>42.71164680831134319305419921875</LatitudeDegrees>
              <LongitudeDegrees>1.27098795957863330841064453125</LongitudeDegrees>
            </Position>
            <AltitudeMeters>2507.39990234375</AltitudeMeters>
            <DistanceMeters>16104.41756555</DistanceMeters>
          </Trackpoint>
          <Trackpoint>
            <Time>2018-05-01T10:33:15.000Z</Time>
            <Position>
              <LatitudeDegrees>42.71181528456509113311767578125</LatitudeDegrees>
              <LongitudeDegrees>1.27094655297696590423583984375</LongitudeDegrees>
            </Position>
            <AltitudeMeters>2510.60009765625</AltitudeMeters>
            <DistanceMeters>16123.472732141</DistanceMeters>
          </Trackpoint>
          <Trackpoint>
            <Time>2018-05-01T10:33:38.000Z</Time>
            <Position>
              <LatitudeDegrees>42.7119295299053192138671875</LatitudeDegrees>
              <LongitudeDegrees>1.2709947489202022552490234375</LongitudeDegrees>
            </Position>
            <AltitudeMeters>2513.60009765625</AltitudeMeters>
            <DistanceMeters>16136.785632289</DistanceMeters>
          </Trackpoint>
          <Trackpoint>
            <Time>2018-05-01T10:33:53.000Z</Time>
            <Position>
              <LatitudeDegrees>42.71199591457843780517578125</LatitudeDegrees>
              <LongitudeDegrees>1.27102039754390716552734375</LongitudeDegrees>
            </Position>
            <AltitudeMeters>2516.60009765625</AltitudeMeters>
            <DistanceMeters>16144.466354222</DistanceMeters>
          </Trackpoint>
          <Trackpoint>
            <Time>2018-05-01T10:34:08.000Z</Time>
            <Position>
              <LatitudeDegrees>42.71209389902651309967041015625</LatitudeDegrees>
              <LongitudeDegrees>1.27098628319799900054931640625</LongitudeDegrees>
            </Position>
            <AltitudeMeters>2519.800048828125</AltitudeMeters>
            <DistanceMeters>16155.723711497</DistanceMeters>
          </Trackpoint>
          <Trackpoint>
            <Time>2018-05-01T10:34:22.000Z</Time>
            <Position>
              <LatitudeDegrees>42.71219347603619098663330078125</LatitudeDegrees>
              <LongitudeDegrees>1.27090866677463054656982421875</LongitudeDegrees>
            </Position>
            <AltitudeMeters>2521</AltitudeMeters>
            <DistanceMeters>16168.496235172</DistanceMeters>
          </Trackpoint>
          <Trackpoint>
            <Time>2018-05-01T10:34:23.000Z</Time>
            <Position>
              <LatitudeDegrees>42.71220185793936252593994140625</LatitudeDegrees>
              <LongitudeDegrees>1.27090263180434703826904296875</LongitudeDegrees>
            </Position>
            <AltitudeMeters>2521</AltitudeMeters>
            <DistanceMeters>16169.55440788</DistanceMeters>
          </Trackpoint>
          <Trackpoint>
            <Time>2018-05-01T10:34:30.000Z</Time>
            <Position>
              <LatitudeDegrees>42.71225935779511928558349609375</LatitudeDegrees>
              <LongitudeDegrees>1.27084965817630290985107421875</LongitudeDegrees>
            </Position>
            <AltitudeMeters>2520.60009765625</AltitudeMeters>
            <DistanceMeters>16177.282598199</DistanceMeters>
          </Trackpoint>
          <Trackpoint>
            <Time>2018-05-01T10:34:31.000Z</Time>
            <Position>
              <LatitudeDegrees>42.71226656623184680938720703125</LatitudeDegrees>
              <LongitudeDegrees>1.2708411924540996551513671875</LongitudeDegrees>
            </Position>
            <AltitudeMeters>2520.60009765625</AltitudeMeters>
            <DistanceMeters>16178.340770906</DistanceMeters>
          </Trackpoint>
          <Trackpoint>
            <Time>2018-05-01T10:34:32.000Z</Time>
            <Position>
              <LatitudeDegrees>42.7122770436108112335205078125</LatitudeDegrees>
              <LongitudeDegrees>1.27083021216094493865966796875</LongitudeDegrees>
            </Position>
            <AltitudeMeters>2520.39990234375</AltitudeMeters>
            <DistanceMeters>16179.809848259</DistanceMeters>
          </Trackpoint>
          <Trackpoint>
            <Time>2018-05-01T10:35:05.000Z</Time>
            <Position>
              <LatitudeDegrees>42.71240956149995326995849609375</LatitudeDegrees>
              <LongitudeDegrees>1.270677745342254638671875</LongitudeDegrees>
            </Position>
            <AltitudeMeters>2520.39990234375</AltitudeMeters>
            <DistanceMeters>16199.123428915</DistanceMeters>
          </Trackpoint>
          <Trackpoint>
            <Time>2018-05-01T10:35:52.000Z</Time>
            <Position>
              <LatitudeDegrees>42.7124034427106380462646484375</LatitudeDegrees>
              <LongitudeDegrees>1.27069660462439060211181640625</LongitudeDegrees>
            </Position>
            <AltitudeMeters>2519.800048828125</AltitudeMeters>
            <DistanceMeters>16200.807306584</DistanceMeters>
          </Trackpoint>
          <Trackpoint>
            <Time>2018-05-01T10:36:17.000Z</Time>
            <Position>
              <LatitudeDegrees>42.7123964019119739532470703125</LatitudeDegrees>
              <LongitudeDegrees>1.2706866301596164703369140625</LongitudeDegrees>
            </Position>
            <AltitudeMeters>2520.39990234375</AltitudeMeters>
            <DistanceMeters>16201.931677831</DistanceMeters>
          </Trackpoint>
          <Trackpoint>
            <Time>2018-05-01T10:36:30.000Z</Time>
            <Position>
              <LatitudeDegrees>42.71244107745587825775146484375</LatitudeDegrees>
              <LongitudeDegrees>1.27059987746179103851318359375</LongitudeDegrees>
            </Position>
            <AltitudeMeters>2520.800048828125</AltitudeMeters>
            <DistanceMeters>16210.595279588</DistanceMeters>
          </Trackpoint>
          <Trackpoint>
            <Time>2018-05-01T10:37:00.000Z</Time>
            <Position>
              <LatitudeDegrees>42.71244250237941741943359375</LatitudeDegrees>
              <LongitudeDegrees>1.2705686129629611968994140625</LongitudeDegrees>
            </Position>
            <AltitudeMeters>2521.199951171875</AltitudeMeters>
            <DistanceMeters>16213.155716172</DistanceMeters>
          </Trackpoint>
          <Trackpoint>
            <Time>2018-05-01T10:37:10.000Z</Time>
            <Position>
              <LatitudeDegrees>42.71244241856038570404052734375</LatitudeDegrees>
              <LongitudeDegrees>1.27053265459835529327392578125</LongitudeDegrees>
            </Position>
            <AltitudeMeters>2521.199951171875</AltitudeMeters>
            <DistanceMeters>16216.098477343</DistanceMeters>
          </Trackpoint>
          <Trackpoint>
            <Time>2018-05-01T10:37:43.000Z</Time>
            <Position>
              <LatitudeDegrees>42.7124376408755779266357421875</LatitudeDegrees>
              <LongitudeDegrees>1.27051807008683681488037109375</LongitudeDegrees>
            </Position>
            <AltitudeMeters>2520.800048828125</AltitudeMeters>
            <DistanceMeters>16217.408330207</DistanceMeters>
          </Trackpoint>
          <Trackpoint>
            <Time>2018-05-01T10:38:09.000Z</Time>
            <Position>
              <LatitudeDegrees>42.7124339528381824493408203125</LatitudeDegrees>
              <LongitudeDegrees>1.27039812505245208740234375</LongitudeDegrees>
            </Position>
            <AltitudeMeters>2519.39990234375</AltitudeMeters>
            <DistanceMeters>16227.226480034</DistanceMeters>
          </Trackpoint>
          <Trackpoint>
            <Time>2018-05-01T10:38:19.000Z</Time>
            <Position>
              <LatitudeDegrees>42.712433449923992156982421875</LatitudeDegrees>
              <LongitudeDegrees>1.270247586071491241455078125</LongitudeDegrees>
            </Position>
            <AltitudeMeters>2519</AltitudeMeters>
            <DistanceMeters>16239.537483366</DistanceMeters>
          </Trackpoint>
          <Trackpoint>
            <Time>2018-05-01T10:38:24.000Z</Time>
            <Position>
              <LatitudeDegrees>42.71244174800813198089599609375</LatitudeDegrees>
              <LongitudeDegrees>1.270171813666820526123046875</LongitudeDegrees>
            </Position>
            <AltitudeMeters>2519.60009765625</AltitudeMeters>
            <DistanceMeters>16245.80276407</DistanceMeters>
          </Trackpoint>
          <Trackpoint>
            <Time>2018-05-01T10:38:28.000Z</Time>
            <Position>
              <LatitudeDegrees>42.7124500460922718048095703125</LatitudeDegrees>
              <LongitudeDegrees>1.2701377831399440765380859375</LongitudeDegrees>
            </Position>
            <AltitudeMeters>2520</AltitudeMeters>
            <DistanceMeters>16248.736305079</DistanceMeters>
          </Trackpoint>
          <Trackpoint>
            <Time>2018-05-01T10:38:32.000Z</Time>
            <Position>
              <LatitudeDegrees>42.71245717070996761322021484375</LatitudeDegrees>
              <LongitudeDegrees>1.27009025774896144866943359375</LongitudeDegrees>
            </Position>
            <AltitudeMeters>2519.800048828125</AltitudeMeters>
            <DistanceMeters>16252.702461048</DistanceMeters>
          </Trackpoint>
          <Trackpoint>
            <Time>2018-05-01T10:38:36.000Z</Time>
            <Position>
              <LatitudeDegrees>42.71246957592666149139404296875</LatitudeDegrees>
              <LongitudeDegrees>1.2700589932501316070556640625</LongitudeDegrees>
            </Position>
            <AltitudeMeters>2520</AltitudeMeters>
            <DistanceMeters>16255.608166035</DistanceMeters>
          </Trackpoint>
          <Trackpoint>
            <Time>2018-05-01T10:38:40.000Z</Time>
            <Position>
              <LatitudeDegrees>42.71246706135571002960205078125</LatitudeDegrees>
              <LongitudeDegrees>1.27000710926949977874755859375</LongitudeDegrees>
            </Position>
            <AltitudeMeters>2519.800048828125</AltitudeMeters>
            <DistanceMeters>16259.860014226</DistanceMeters>
          </Trackpoint>
          <Trackpoint>
            <Time>2018-05-01T10:38:45.000Z</Time>
            <Position>
              <LatitudeDegrees>42.7124726772308349609375</LatitudeDegrees>
              <LongitudeDegrees>1.2699456699192523956298828125</LongitudeDegrees>
            </Position>
            <AltitudeMeters>2519.800048828125</AltitudeMeters>
            <DistanceMeters>16264.924144665</DistanceMeters>
          </Trackpoint>
          <Trackpoint>
            <Time>2018-05-01T10:38:50.000Z</Time>
            <Position>
              <LatitudeDegrees>42.71248835138976573944091796875</LatitudeDegrees>
              <LongitudeDegrees>1.269883476197719573974609375</LongitudeDegrees>
            </Position>
            <AltitudeMeters>2519.60009765625</AltitudeMeters>
            <DistanceMeters>16270.301346984</DistanceMeters>
          </Trackpoint>
          <Trackpoint>
            <Time>2018-05-01T10:38:59.000Z</Time>
            <Position>
              <LatitudeDegrees>42.7125321887433528900146484375</LatitudeDegrees>
              <LongitudeDegrees>1.26977073960006237030029296875</LongitudeDegrees>
            </Position>
            <AltitudeMeters>2519.199951171875</AltitudeMeters>
            <DistanceMeters>16280.731800521</DistanceMeters>
          </Trackpoint>
          <Trackpoint>
            <Time>2018-05-01T10:39:06.000Z</Time>
            <Position>
              <LatitudeDegrees>42.7125620283186435699462890625</LatitudeDegrees>
              <LongitudeDegrees>1.26966881565749645233154296875</LongitudeDegrees>
            </Position>
            <AltitudeMeters>2518.800048828125</AltitudeMeters>
            <DistanceMeters>16289.704657456</DistanceMeters>
          </Trackpoint>
          <Trackpoint>
            <Time>2018-05-01T10:39:16.000Z</Time>
            <Position>
              <LatitudeDegrees>42.71261927671730518341064453125</LatitudeDegrees>
              <LongitudeDegrees>1.26955146901309490203857421875</LongitudeDegrees>
            </Position>
            <AltitudeMeters>2518.800048828125</AltitudeMeters>
            <DistanceMeters>16301.224466631</DistanceMeters>
          </Trackpoint>
          <Trackpoint>
            <Time>2018-05-01T10:39:34.000Z</Time>
            <Position>
              <LatitudeDegrees>42.712725810706615447998046875</LatitudeDegrees>
              <LongitudeDegrees>1.2693529017269611358642578125</LongitudeDegrees>
            </Position>
            <AltitudeMeters>2518</AltitudeMeters>
            <DistanceMeters>16321.331769101</DistanceMeters>
          </Trackpoint>
          <Trackpoint>
            <Time>2018-05-01T10:39:53.000Z</Time>
            <Position>
              <LatitudeDegrees>42.71278255619108676910400390625</LatitudeDegrees>
              <LongitudeDegrees>1.2691765464842319488525390625</LongitudeDegrees>
            </Position>
            <AltitudeMeters>2518.39990234375</AltitudeMeters>
            <DistanceMeters>16337.076408142</DistanceMeters>
          </Trackpoint>
          <Trackpoint>
            <Time>2018-05-01T10:40:13.000Z</Time>
            <Position>
              <LatitudeDegrees>42.7128758467733860015869140625</LatitudeDegrees>
              <LongitudeDegrees>1.26894830726087093353271484375</LongitudeDegrees>
            </Position>
            <AltitudeMeters>2519.39990234375</AltitudeMeters>
            <DistanceMeters>16358.435445855</DistanceMeters>
          </Trackpoint>
          <Trackpoint>
            <Time>2018-05-01T10:40:32.000Z</Time>
            <Position>
              <LatitudeDegrees>42.71299839019775390625</LatitudeDegrees>
              <LongitudeDegrees>1.26874697394669055938720703125</LongitudeDegrees>
            </Position>
            <AltitudeMeters>2518.800048828125</AltitudeMeters>
            <DistanceMeters>16379.816034243</DistanceMeters>
          </Trackpoint>
          <Trackpoint>
            <Time>2018-05-01T10:40:49.000Z</Time>
            <Position>
              <LatitudeDegrees>42.71314683370292186737060546875</LatitudeDegrees>
              <LongitudeDegrees>1.268603391945362091064453125</LongitudeDegrees>
            </Position>
            <AltitudeMeters>2518.199951171875</AltitudeMeters>
            <DistanceMeters>16400.085479673</DistanceMeters>
          </Trackpoint>
          <Trackpoint>
            <Time>2018-05-01T10:41:11.000Z</Time>
            <Position>
              <LatitudeDegrees>42.71326401270925998687744140625</LatitudeDegrees>
              <LongitudeDegrees>1.2684298865497112274169921875</LongitudeDegrees>
            </Position>
            <AltitudeMeters>2518.800048828125</AltitudeMeters>
            <DistanceMeters>16419.357871956</DistanceMeters>
          </Trackpoint>
          <Trackpoint>
            <Time>2018-05-01T10:41:33.000Z</Time>
            <Position>
              <LatitudeDegrees>42.71327122114598751068115234375</LatitudeDegrees>
              <LongitudeDegrees>1.26846693456172943115234375</LongitudeDegrees>
            </Position>
            <AltitudeMeters>2518.800048828125</AltitudeMeters>
            <DistanceMeters>16422.492313401</DistanceMeters>
          </Trackpoint>
          <Trackpoint>
            <Time>2018-05-01T10:41:34.000Z</Time>
            <Position>
              <LatitudeDegrees>42.71326736547052860260009765625</LatitudeDegrees>
              <LongitudeDegrees>1.2684771604835987091064453125</LongitudeDegrees>
            </Position>
            <AltitudeMeters>2518.800048828125</AltitudeMeters>
            <DistanceMeters>16423.428217998</DistanceMeters>
          </Trackpoint>
          <Trackpoint>
            <Time>2018-05-01T10:41:53.000Z</Time>
            <Position>
              <LatitudeDegrees>42.7132718078792095184326171875</LatitudeDegrees>
              <LongitudeDegrees>1.2684339098632335662841796875</LongitudeDegrees>
            </Position>
            <AltitudeMeters>2518.800048828125</AltitudeMeters>
            <DistanceMeters>16426.998997736</DistanceMeters>
          </Trackpoint>
          <Trackpoint>
            <Time>2018-05-01T10:42:13.000Z</Time>
            <Position>
              <LatitudeDegrees>42.71333475597202777862548828125</LatitudeDegrees>
              <LongitudeDegrees>1.26816074363887310028076171875</LongitudeDegrees>
            </Position>
            <AltitudeMeters>2519.199951171875</AltitudeMeters>
            <DistanceMeters>16450.411273794</DistanceMeters>
          </Trackpoint>
          <Trackpoint>
            <Time>2018-05-01T10:42:32.000Z</Time>
            <Position>
              <LatitudeDegrees>42.71342276595532894134521484375</LatitudeDegrees>
              <LongitudeDegrees>1.2679581530392169952392578125</LongitudeDegrees>
            </Position>
            <AltitudeMeters>2519.39990234375</AltitudeMeters>
            <DistanceMeters>16469.658582336</DistanceMeters>
          </Trackpoint>
          <Trackpoint>
            <Time>2018-05-01T10:42:54.000Z</Time>
            <Position>
              <LatitudeDegrees>42.7134659327566623687744140625</LatitudeDegrees>
              <LongitudeDegrees>1.26786410808563232421875</LongitudeDegrees>
            </Position>
            <AltitudeMeters>2520.60009765625</AltitudeMeters>
            <DistanceMeters>16478.727536865</DistanceMeters>
          </Trackpoint>
          <Trackpoint>
            <Time>2018-05-01T10:43:46.000Z</Time>
            <Position>
              <LatitudeDegrees>42.7134458161890506744384765625</LatitudeDegrees>
              <LongitudeDegrees>1.26789160072803497314453125</LongitudeDegrees>
            </Position>
            <AltitudeMeters>2520</AltitudeMeters>
            <DistanceMeters>16481.902054988</DistanceMeters>
          </Trackpoint>
          <Trackpoint>
            <Time>2018-05-01T10:44:23.000Z</Time>
            <Position>
              <LatitudeDegrees>42.7134635858237743377685546875</LatitudeDegrees>
              <LongitudeDegrees>1.2678739987313747406005859375</LongitudeDegrees>
            </Position>
            <AltitudeMeters>2520.39990234375</AltitudeMeters>
            <DistanceMeters>16484.347031595</DistanceMeters>
          </Trackpoint>
          <Trackpoint>
            <Time>2018-05-01T10:45:00.000Z</Time>
            <Position>
              <LatitudeDegrees>42.71347112953662872314453125</LatitudeDegrees>
              <LongitudeDegrees>1.2678555585443973541259765625</LongitudeDegrees>
            </Position>
            <AltitudeMeters>2520.60009765625</AltitudeMeters>
            <DistanceMeters>16486.073277587</DistanceMeters>
          </Trackpoint>
          <Trackpoint>
            <Time>2018-05-01T10:45:06.000Z</Time>
            <Position>
              <LatitudeDegrees>42.71345436573028564453125</LatitudeDegrees>
              <LongitudeDegrees>1.26786050386726856231689453125</LongitudeDegrees>
            </Position>
            <AltitudeMeters>2520.60009765625</AltitudeMeters>
            <DistanceMeters>16487.980925565</DistanceMeters>
          </Trackpoint>
          <Trackpoint>
            <Time>2018-05-01T10:45:40.000Z</Time>
            <Position>
              <LatitudeDegrees>42.71346366964280605316162109375</LatitudeDegrees>
              <LongitudeDegrees>1.2678793631494045257568359375</LongitudeDegrees>
            </Position>
            <AltitudeMeters>2519.800048828125</AltitudeMeters>
            <DistanceMeters>16489.838205619</DistanceMeters>
          </Trackpoint>
          <Trackpoint>
            <Time>2018-05-01T10:46:07.000Z</Time>
            <Position>
              <LatitudeDegrees>42.7134645916521549224853515625</LatitudeDegrees>
              <LongitudeDegrees>1.26788623631000518798828125</LongitudeDegrees>
            </Position>
            <AltitudeMeters>2520</AltitudeMeters>
            <DistanceMeters>16490.408365906</DistanceMeters>
          </Trackpoint>
          <Trackpoint>
            <Time>2018-05-01T10:47:48.000Z</Time>
            <Position>
              <LatitudeDegrees>42.71347708068788051605224609375</LatitudeDegrees>
              <LongitudeDegrees>1.26788564957678318023681640625</LongitudeDegrees>
            </Position>
            <AltitudeMeters>2521.199951171875</AltitudeMeters>
            <DistanceMeters>16491.798486893</DistanceMeters>
          </Trackpoint>
          <Trackpoint>
            <Time>2018-05-01T10:48:54.000Z</Time>
            <Position>
              <LatitudeDegrees>42.71347641013562679290771484375</LatitudeDegrees>
              <LongitudeDegrees>1.26786100678145885467529296875</LongitudeDegrees>
            </Position>
            <AltitudeMeters>2521.800048828125</AltitudeMeters>
            <DistanceMeters>16493.816546475</DistanceMeters>
          </Trackpoint>
          <Trackpoint>
            <Time>2018-05-01T10:49:32.000Z</Time>
            <Position>
              <LatitudeDegrees>42.71355084143579006195068359375</LatitudeDegrees>
              <LongitudeDegrees>1.26768381334841251373291015625</LongitudeDegrees>
            </Position>
            <AltitudeMeters>2524.39990234375</AltitudeMeters>
            <DistanceMeters>16510.508280315</DistanceMeters>
          </Trackpoint>
          <Trackpoint>
            <Time>2018-05-01T10:49:52.000Z</Time>
            <Position>
              <LatitudeDegrees>42.7135956846177577972412109375</LatitudeDegrees>
              <LongitudeDegrees>1.2675732560455799102783203125</LongitudeDegrees>
            </Position>
            <AltitudeMeters>2527.60009765625</AltitudeMeters>
            <DistanceMeters>16520.83563394</DistanceMeters>
          </Trackpoint>
          <Trackpoint>
            <Time>2018-05-01T10:50:10.000Z</Time>
            <Position>
              <LatitudeDegrees>42.7136528491973876953125</LatitudeDegrees>
              <LongitudeDegrees>1.26748197712004184722900390625</LongitudeDegrees>
            </Position>
            <AltitudeMeters>2530.60009765625</AltitudeMeters>
            <DistanceMeters>16530.644121817</DistanceMeters>
          </Trackpoint>
          <Trackpoint>
            <Time>2018-05-01T10:50:24.000Z</Time>
            <Position>
              <LatitudeDegrees>42.7137137018144130706787109375</LatitudeDegrees>
              <LongitudeDegrees>1.26741995103657245635986328125</LongitudeDegrees>
            </Position>
            <AltitudeMeters>2534</AltitudeMeters>
            <DistanceMeters>16539.105235576</DistanceMeters>
          </Trackpoint>
          <Trackpoint>
            <Time>2018-05-01T10:50:40.000Z</Time>
            <Position>
              <LatitudeDegrees>42.71380933932960033416748046875</LatitudeDegrees>
              <LongitudeDegrees>1.26739162020385265350341796875</LongitudeDegrees>
            </Position>
            <AltitudeMeters>2537</AltitudeMeters>
            <DistanceMeters>16549.998961505</DistanceMeters>
          </Trackpoint>
          <Trackpoint>
            <Time>2018-05-01T10:50:47.000Z</Time>
            <Position>
              <LatitudeDegrees>42.7138392627239227294921875</LatitudeDegrees>
              <LongitudeDegrees>1.26737837679684162139892578125</LongitudeDegrees>
            </Position>
            <AltitudeMeters>2539.800048828125</AltitudeMeters>
            <DistanceMeters>16553.500795855</DistanceMeters>
          </Trackpoint>
          <Trackpoint>
            <Time>2018-05-01T10:51:08.000Z</Time>
            <Position>
              <LatitudeDegrees>42.71385334432125091552734375</LatitudeDegrees>
              <LongitudeDegrees>1.26728399656713008880615234375</LongitudeDegrees>
            </Position>
            <AltitudeMeters>2539.800048828125</AltitudeMeters>
            <DistanceMeters>16561.37598252</DistanceMeters>
          </Trackpoint>
          <Trackpoint>
            <Time>2018-05-01T10:51:19.000Z</Time>
            <Position>
              <LatitudeDegrees>42.71384370513260364532470703125</LatitudeDegrees>
              <LongitudeDegrees>1.2671977467834949493408203125</LongitudeDegrees>
            </Position>
            <AltitudeMeters>2541.60009765625</AltitudeMeters>
            <DistanceMeters>16568.510584185</DistanceMeters>
          </Trackpoint>
          <Trackpoint>
            <Time>2018-05-01T10:51:30.000Z</Time>
            <Position>
              <LatitudeDegrees>42.71385200321674346923828125</LatitudeDegrees>
              <LongitudeDegrees>1.26714955084025859832763671875</LongitudeDegrees>
            </Position>
            <AltitudeMeters>2543.39990234375</AltitudeMeters>
            <DistanceMeters>16572.560104999</DistanceMeters>
          </Trackpoint>
          <Trackpoint>
            <Time>2018-05-01T10:51:50.000Z</Time>
            <Position>
              <LatitudeDegrees>42.71394663490355014801025390625</LatitudeDegrees>
              <LongitudeDegrees>1.26714996993541717529296875</LongitudeDegrees>
            </Position>
            <AltitudeMeters>2546.60009765625</AltitudeMeters>
            <DistanceMeters>16583.09307795</DistanceMeters>
          </Trackpoint>
          <Trackpoint>
            <Time>2018-05-01T10:52:04.000Z</Time>
            <Position>
              <LatitudeDegrees>42.71402827464044094085693359375</LatitudeDegrees>
              <LongitudeDegrees>1.26715139485895633697509765625</LongitudeDegrees>
            </Position>
            <AltitudeMeters>2549.199951171875</AltitudeMeters>
            <DistanceMeters>16592.180931336</DistanceMeters>
          </Trackpoint>
          <Trackpoint>
            <Time>2018-05-01T10:52:05.000Z</Time>
            <Position>
              <LatitudeDegrees>42.714036069810390472412109375</LatitudeDegrees>
              <LongitudeDegrees>1.2671541608870029449462890625</LongitudeDegrees>
            </Position>
            <AltitudeMeters>2549.39990234375</AltitudeMeters>
            <DistanceMeters>16593.082433904</DistanceMeters>
          </Trackpoint>
          <Trackpoint>
            <Time>2018-05-01T10:52:26.000Z</Time>
            <Position>
              <LatitudeDegrees>42.71405258215963840484619140625</LatitudeDegrees>
              <LongitudeDegrees>1.26705885864794254302978515625</LongitudeDegrees>
            </Position>
            <AltitudeMeters>2552.60009765625</AltitudeMeters>
            <DistanceMeters>16601.090654861</DistanceMeters>
          </Trackpoint>
          <Trackpoint>
            <Time>2018-05-01T10:52:49.000Z</Time>
            <Position>
              <LatitudeDegrees>42.7140147797763347625732421875</LatitudeDegrees>
              <LongitudeDegrees>1.26690982840955257415771484375</LongitudeDegrees>
            </Position>
            <AltitudeMeters>2555.800048828125</AltitudeMeters>
            <DistanceMeters>16613.984207798</DistanceMeters>
          </Trackpoint>
          <Trackpoint>
            <Time>2018-05-01T10:53:03.000Z</Time>
            <Position>
              <LatitudeDegrees>42.7139805816113948822021484375</LatitudeDegrees>
              <LongitudeDegrees>1.26683606766164302825927734375</LongitudeDegrees>
            </Position>
            <AltitudeMeters>2558.800048828125</AltitudeMeters>
            <DistanceMeters>16621.1169107</DistanceMeters>
          </Trackpoint>
          <Trackpoint>
            <Time>2018-05-01T10:53:22.000Z</Time>
            <Position>
              <LatitudeDegrees>42.714092396199703216552734375</LatitudeDegrees>
              <LongitudeDegrees>1.26679147593677043914794921875</LongitudeDegrees>
            </Position>
            <AltitudeMeters>2561.39990234375</AltitudeMeters>
            <DistanceMeters>16634.085881509</DistanceMeters>
          </Trackpoint>
          <Trackpoint>
            <Time>2018-05-01T10:53:40.000Z</Time>
            <Position>
              <LatitudeDegrees>42.71419742144644260406494140625</LatitudeDegrees>
              <LongitudeDegrees>1.26677404157817363739013671875</LongitudeDegrees>
            </Position>
            <AltitudeMeters>2564.39990234375</AltitudeMeters>
            <DistanceMeters>16645.861911568</DistanceMeters>
          </Trackpoint>
          <Trackpoint>
            <Time>2018-05-01T10:54:00.000Z</Time>
            <Position>
              <LatitudeDegrees>42.7142930589616298675537109375</LatitudeDegrees>
              <LongitudeDegrees>1.26677353866398334503173828125</LongitudeDegrees>
            </Position>
            <AltitudeMeters>2567.60009765625</AltitudeMeters>
            <DistanceMeters>16656.505751996</DistanceMeters>
          </Trackpoint>
          <Trackpoint>
            <Time>2018-05-01T10:54:23.000Z</Time>
            <Position>
              <LatitudeDegrees>42.71428115665912628173828125</LatitudeDegrees>
              <LongitudeDegrees>1.26665535382926464080810546875</LongitudeDegrees>
            </Position>
            <AltitudeMeters>2570.800048828125</AltitudeMeters>
            <DistanceMeters>16666.261159504</DistanceMeters>
          </Trackpoint>
          <Trackpoint>
            <Time>2018-05-01T10:54:42.000Z</Time>
            <Position>
              <LatitudeDegrees>42.71426313556730747222900390625</LatitudeDegrees>
              <LongitudeDegrees>1.266531385481357574462890625</LongitudeDegrees>
            </Position>
            <AltitudeMeters>2573.800048828125</AltitudeMeters>
            <DistanceMeters>16676.595505836</DistanceMeters>
          </Trackpoint>
          <Trackpoint>
            <Time>2018-05-01T10:55:03.000Z</Time>
            <Position>
              <LatitudeDegrees>42.714241258800029754638671875</LatitudeDegrees>
              <LongitudeDegrees>1.266368441283702850341796875</LongitudeDegrees>
            </Position>
            <AltitudeMeters>2577</AltitudeMeters>
            <DistanceMeters>16690.14172979</DistanceMeters>
          </Trackpoint>
          <Trackpoint>
            <Time>2018-05-01T10:55:26.000Z</Time>
            <Position>
              <LatitudeDegrees>42.71417143754661083221435546875</LatitudeDegrees>
              <LongitudeDegrees>1.26623994670808315277099609375</LongitudeDegrees>
            </Position>
            <AltitudeMeters>2580</AltitudeMeters>
            <DistanceMeters>16703.211617168</DistanceMeters>
          </Trackpoint>
          <Trackpoint>
            <Time>2018-05-01T10:55:47.000Z</Time>
            <Position>
              <LatitudeDegrees>42.71409566514194011688232421875</LatitudeDegrees>
              <LongitudeDegrees>1.2661064229905605316162109375</LongitudeDegrees>
            </Position>
            <AltitudeMeters>2583</AltitudeMeters>
            <DistanceMeters>16717.009155775</DistanceMeters>
          </Trackpoint>
          <Trackpoint>
            <Time>2018-05-01T10:56:35.000Z</Time>
            <Position>
              <LatitudeDegrees>42.71407906897366046905517578125</LatitudeDegrees>
              <LongitudeDegrees>1.26599687151610851287841796875</LongitudeDegrees>
            </Position>
            <AltitudeMeters>2584.39990234375</AltitudeMeters>
            <DistanceMeters>16726.15643342</DistanceMeters>
          </Trackpoint>
          <Trackpoint>
            <Time>2018-05-01T10:57:01.000Z</Time>
            <Position>
              <LatitudeDegrees>42.71401469595730304718017578125</LatitudeDegrees>
              <LongitudeDegrees>1.26579134725034236907958984375</LongitudeDegrees>
            </Position>
            <AltitudeMeters>2585.800048828125</AltitudeMeters>
            <DistanceMeters>16744.427280855</DistanceMeters>
          </Trackpoint>
          <Trackpoint>
            <Time>2018-05-01T10:57:20.000Z</Time>
            <Position>
              <LatitudeDegrees>42.714009582996368408203125</LatitudeDegrees>
              <LongitudeDegrees>1.265523545444011688232421875</LongitudeDegrees>
            </Position>
            <AltitudeMeters>2586.800048828125</AltitudeMeters>
            <DistanceMeters>16766.33500924</DistanceMeters>
          </Trackpoint>
          <Trackpoint>
            <Time>2018-05-01T10:57:41.000Z</Time>
            <Position>
              <LatitudeDegrees>42.71406096406280994415283203125</LatitudeDegrees>
              <LongitudeDegrees>1.26526311971247196197509765625</LongitudeDegrees>
            </Position>
            <AltitudeMeters>2588.199951171875</AltitudeMeters>
            <DistanceMeters>16788.386940599</DistanceMeters>
          </Trackpoint>
          <Trackpoint>
            <Time>2018-05-01T10:58:04.000Z</Time>
            <Position>
              <LatitudeDegrees>42.71409130655229091644287109375</LatitudeDegrees>
              <LongitudeDegrees>1.2650115787982940673828125</LongitudeDegrees>
            </Position>
            <AltitudeMeters>2590.800048828125</AltitudeMeters>
            <DistanceMeters>16809.233124873</DistanceMeters>
          </Trackpoint>
          <Trackpoint>
            <Time>2018-05-01T10:58:27.000Z</Time>
            <Position>
              <LatitudeDegrees>42.7140597067773342132568359375</LatitudeDegrees>
              <LongitudeDegrees>1.2647810764610767364501953125</LongitudeDegrees>
            </Position>
            <AltitudeMeters>2592.800048828125</AltitudeMeters>
            <DistanceMeters>16828.408752967</DistanceMeters>
          </Trackpoint>
          <Trackpoint>
            <Time>2018-05-01T10:58:30.000Z</Time>
            <Position>
              <LatitudeDegrees>42.71404939703643321990966796875</LatitudeDegrees>
              <LongitudeDegrees>1.26475584693253040313720703125</LongitudeDegrees>
            </Position>
            <AltitudeMeters>2593.199951171875</AltitudeMeters>
            <DistanceMeters>16830.769167585</DistanceMeters>
          </Trackpoint>
          <Trackpoint>
            <Time>2018-05-01T10:58:46.000Z</Time>
            <Position>
              <LatitudeDegrees>42.71404034458100795745849609375</LatitudeDegrees>
              <LongitudeDegrees>1.26462609507143497467041015625</LongitudeDegrees>
            </Position>
            <AltitudeMeters>2595.199951171875</AltitudeMeters>
            <DistanceMeters>16841.427420803</DistanceMeters>
          </Trackpoint>
          <Trackpoint>
            <Time>2018-05-01T10:59:00.000Z</Time>
            <Position>
              <LatitudeDegrees>42.7140563540160655975341796875</LatitudeDegrees>
              <LongitudeDegrees>1.264529787003993988037109375</LongitudeDegrees>
            </Position>
            <AltitudeMeters>2597.199951171875</AltitudeMeters>
            <DistanceMeters>16849.501896137</DistanceMeters>
          </Trackpoint>
          <Trackpoint>
            <Time>2018-05-01T10:59:01.000Z</Time>
            <Position>
              <LatitudeDegrees>42.71405912004411220550537109375</LatitudeDegrees>
              <LongitudeDegrees>1.2645225785672664642333984375</LongitudeDegrees>
            </Position>
            <AltitudeMeters>2597.199951171875</AltitudeMeters>
            <DistanceMeters>16850.160260527</DistanceMeters>
          </Trackpoint>
          <Trackpoint>
            <Time>2018-05-01T10:59:19.000Z</Time>
            <Position>
              <LatitudeDegrees>42.71408476866781711578369140625</LatitudeDegrees>
              <LongitudeDegrees>1.26439475454390048980712890625</LongitudeDegrees>
            </Position>
            <AltitudeMeters>2600.39990234375</AltitudeMeters>
            <DistanceMeters>16860.996639723</DistanceMeters>
          </Trackpoint>
          <Trackpoint>
            <Time>2018-05-01T10:59:38.000Z</Time>
            <Position>
              <LatitudeDegrees>42.71414796821773052215576171875</LatitudeDegrees>
              <LongitudeDegrees>1.2642847001552581787109375</LongitudeDegrees>
            </Position>
            <AltitudeMeters>2603.60009765625</AltitudeMeters>
            <DistanceMeters>16872.419625524</DistanceMeters>
          </Trackpoint>
          <Trackpoint>
            <Time>2018-05-01T10:59:47.000Z</Time>
            <Position>
              <LatitudeDegrees>42.71420203149318695068359375</LatitudeDegrees>
              <LongitudeDegrees>1.26426751725375652313232421875</LongitudeDegrees>
            </Position>
            <AltitudeMeters>2604.39990234375</AltitudeMeters>
            <DistanceMeters>16878.598554493</DistanceMeters>
          </Trackpoint>
          <Trackpoint>
            <Time>2018-05-01T11:00:05.000Z</Time>
            <Position>
              <LatitudeDegrees>42.7142746187746524810791015625</LatitudeDegrees>
              <LongitudeDegrees>1.2642724625766277313232421875</LongitudeDegrees>
            </Position>
            <AltitudeMeters>2606.800048828125</AltitudeMeters>
            <DistanceMeters>16886.687555291</DistanceMeters>
          </Trackpoint>
          <Trackpoint>
            <Time>2018-05-01T11:00:19.000Z</Time>
            <Position>
              <LatitudeDegrees>42.71429850719869136810302734375</LatitudeDegrees>
              <LongitudeDegrees>1.264291740953922271728515625</LongitudeDegrees>
            </Position>
            <AltitudeMeters>2609.800048828125</AltitudeMeters>
            <DistanceMeters>16889.778480861</DistanceMeters>
          </Trackpoint>
          <Trackpoint>
            <Time>2018-05-01T11:00:33.000Z</Time>
            <Position>
              <LatitudeDegrees>42.7143068052828311920166015625</LatitudeDegrees>
              <LongitudeDegrees>1.264183782041072845458984375</LongitudeDegrees>
            </Position>
            <AltitudeMeters>2612.199951171875</AltitudeMeters>
            <DistanceMeters>16898.655725767</DistanceMeters>
          </Trackpoint>
          <Trackpoint>
            <Time>2018-05-01T11:00:54.000Z</Time>
            <Position>
              <LatitudeDegrees>42.71429121494293212890625</LatitudeDegrees>
              <LongitudeDegrees>1.26411781646311283111572265625</LongitudeDegrees>
            </Position>
            <AltitudeMeters>2612.800048828125</AltitudeMeters>
            <DistanceMeters>16904.323175097</DistanceMeters>
          </Trackpoint>
          <Trackpoint>
            <Time>2018-05-01T11:01:16.000Z</Time>
            <Position>
              <LatitudeDegrees>42.7142689190804958343505859375</LatitudeDegrees>
              <LongitudeDegrees>1.264132149517536163330078125</LongitudeDegrees>
            </Position>
            <AltitudeMeters>2612.800048828125</AltitudeMeters>
            <DistanceMeters>16907.067457108</DistanceMeters>
          </Trackpoint>
          <Trackpoint>
            <Time>2018-05-01T11:01:34.000Z</Time>
            <Position>
              <LatitudeDegrees>42.71424268372356891632080078125</LatitudeDegrees>
              <LongitudeDegrees>1.2641279585659503936767578125</LongitudeDegrees>
            </Position>
            <AltitudeMeters>2613.39990234375</AltitudeMeters>
            <DistanceMeters>16910.005611815</DistanceMeters>
          </Trackpoint>
          <Trackpoint>
            <Time>2018-05-01T11:01:56.000Z</Time>
            <Position>
              <LatitudeDegrees>42.714327089488506317138671875</LatitudeDegrees>
              <LongitudeDegrees>1.26397331245243549346923828125</LongitudeDegrees>
            </Position>
            <AltitudeMeters>2616.199951171875</AltitudeMeters>
            <DistanceMeters>16925.759997907</DistanceMeters>
          </Trackpoint>
          <Trackpoint>
            <Time>2018-05-01T11:02:20.000Z</Time>
            <Position>
              <LatitudeDegrees>42.71427805535495281219482421875</LatitudeDegrees>
              <LongitudeDegrees>1.26377642154693603515625</LongitudeDegrees>
            </Position>
            <AltitudeMeters>2619.39990234375</AltitudeMeters>
            <DistanceMeters>16942.761283649</DistanceMeters>
          </Trackpoint>
          <Trackpoint>
            <Time>2018-05-01T11:02:30.000Z</Time>
            <Position>
              <LatitudeDegrees>42.714257352054119110107421875</LatitudeDegrees>
              <LongitudeDegrees>1.26369654200971126556396484375</LongitudeDegrees>
            </Position>
            <AltitudeMeters>2620.60009765625</AltitudeMeters>
            <DistanceMeters>16949.6884639</DistanceMeters>
          </Trackpoint>
          <Trackpoint>
            <Time>2018-05-01T11:02:51.000Z</Time>
            <Position>
              <LatitudeDegrees>42.71419574506580829620361328125</LatitudeDegrees>
              <LongitudeDegrees>1.2635486014187335968017578125</LongitudeDegrees>
            </Position>
            <AltitudeMeters>2623.800048828125</AltitudeMeters>
            <DistanceMeters>16963.594869515</DistanceMeters>
          </Trackpoint>
          <Trackpoint>
            <Time>2018-05-01T11:03:05.000Z</Time>
            <Position>
              <LatitudeDegrees>42.71416456438601016998291015625</LatitudeDegrees>
              <LongitudeDegrees>1.26347609795629978179931640625</LongitudeDegrees>
            </Position>
            <AltitudeMeters>2626.199951171875</AltitudeMeters>
            <DistanceMeters>16970.465767538</DistanceMeters>
          </Trackpoint>
          <Trackpoint>
            <Time>2018-05-01T11:03:20.000Z</Time>
            <Position>
              <LatitudeDegrees>42.71412148140370845794677734375</LatitudeDegrees>
              <LongitudeDegrees>1.26340334303677082061767578125</LongitudeDegrees>
            </Position>
            <AltitudeMeters>2629.199951171875</AltitudeMeters>
            <DistanceMeters>16978.107002666</DistanceMeters>
          </Trackpoint>
          <Trackpoint>
            <Time>2018-05-01T11:03:25.000Z</Time>
            <Position>
              <LatitudeDegrees>42.71415785886347293853759765625</LatitudeDegrees>
              <LongitudeDegrees>1.2633839808404445648193359375</LongitudeDegrees>
            </Position>
            <AltitudeMeters>2630.39990234375</AltitudeMeters>
            <DistanceMeters>16982.453371257</DistanceMeters>
          </Trackpoint>
          <Trackpoint>
            <Time>2018-05-01T11:03:26.000Z</Time>
            <Position>
              <LatitudeDegrees>42.71416850388050079345703125</LatitudeDegrees>
              <LongitudeDegrees>1.2633799575269222259521484375</LongitudeDegrees>
            </Position>
            <AltitudeMeters>2630.39990234375</AltitudeMeters>
            <DistanceMeters>16983.685058247</DistanceMeters>
          </Trackpoint>
          <Trackpoint>
            <Time>2018-05-01T11:03:44.000Z</Time>
            <Position>
              <LatitudeDegrees>42.7142830006778240203857421875</LatitudeDegrees>
              <LongitudeDegrees>1.26333452761173248291015625</LongitudeDegrees>
            </Position>
            <AltitudeMeters>2633.199951171875</AltitudeMeters>
            <DistanceMeters>16996.958899122</DistanceMeters>
          </Trackpoint>
          <Trackpoint>
            <Time>2018-05-01T11:04:08.000Z</Time>
            <Position>
              <LatitudeDegrees>42.71422675810754299163818359375</LatitudeDegrees>
              <LongitudeDegrees>1.26325137913227081298828125</LongitudeDegrees>
            </Position>
            <AltitudeMeters>2636.60009765625</AltitudeMeters>
            <DistanceMeters>17006.200949386</DistanceMeters>
          </Trackpoint>
          <Trackpoint>
            <Time>2018-05-01T11:04:09.000Z</Time>
            <Position>
              <LatitudeDegrees>42.71422089077532291412353515625</LatitudeDegrees>
              <LongitudeDegrees>1.263246349990367889404296875</LongitudeDegrees>
            </Position>
            <AltitudeMeters>2636.800048828125</AltitudeMeters>
            <DistanceMeters>17006.978776566</DistanceMeters>
          </Trackpoint>
          <Trackpoint>
            <Time>2018-05-01T11:04:38.000Z</Time>
            <Position>
              <LatitudeDegrees>42.7141324616968631744384765625</LatitudeDegrees>
              <LongitudeDegrees>1.2630830705165863037109375</LongitudeDegrees>
            </Position>
            <AltitudeMeters>2639.60009765625</AltitudeMeters>
            <DistanceMeters>17023.567131502</DistanceMeters>
          </Trackpoint>
          <Trackpoint>
            <Time>2018-05-01T11:04:55.000Z</Time>
            <Position>
              <LatitudeDegrees>42.71406565792858600616455078125</LatitudeDegrees>
              <LongitudeDegrees>1.26299313269555568695068359375</LongitudeDegrees>
            </Position>
            <AltitudeMeters>2643</AltitudeMeters>
            <DistanceMeters>17034.02568379</DistanceMeters>
          </Trackpoint>
          <Trackpoint>
            <Time>2018-05-01T11:05:11.000Z</Time>
            <Position>
              <LatitudeDegrees>42.7141423523426055908203125</LatitudeDegrees>
              <LongitudeDegrees>1.26292674802243709564208984375</LongitudeDegrees>
            </Position>
            <AltitudeMeters>2646</AltitudeMeters>
            <DistanceMeters>17044.141901282</DistanceMeters>
          </Trackpoint>
          <Trackpoint>
            <Time>2018-05-01T11:05:29.000Z</Time>
            <Position>
              <LatitudeDegrees>42.714194990694522857666015625</LatitudeDegrees>
              <LongitudeDegrees>1.2628658115863800048828125</LongitudeDegrees>
            </Position>
            <AltitudeMeters>2649.199951171875</AltitudeMeters>
            <DistanceMeters>17051.833784072</DistanceMeters>
          </Trackpoint>
          <Trackpoint>
            <Time>2018-05-01T11:05:50.000Z</Time>
            <Position>
              <LatitudeDegrees>42.7142209745943546295166015625</LatitudeDegrees>
              <LongitudeDegrees>1.26277905888855457305908203125</LongitudeDegrees>
            </Position>
            <AltitudeMeters>2652.39990234375</AltitudeMeters>
            <DistanceMeters>17059.495082714</DistanceMeters>
          </Trackpoint>
          <Trackpoint>
            <Time>2018-05-01T11:05:52.000Z</Time>
            <Position>
              <LatitudeDegrees>42.71420664153993129730224609375</LatitudeDegrees>
              <LongitudeDegrees>1.262768246233463287353515625</LongitudeDegrees>
            </Position>
            <AltitudeMeters>2653.199951171875</AltitudeMeters>
            <DistanceMeters>17061.318011164</DistanceMeters>
          </Trackpoint>
          <Trackpoint>
            <Time>2018-05-01T11:06:16.000Z</Time>
            <Position>
              <LatitudeDegrees>42.7141609601676464080810546875</LatitudeDegrees>
              <LongitudeDegrees>1.26264679245650768280029296875</LongitudeDegrees>
            </Position>
            <AltitudeMeters>2656</AltitudeMeters>
            <DistanceMeters>17072.476267928</DistanceMeters>
          </Trackpoint>
          <Trackpoint>
            <Time>2018-05-01T11:06:36.000Z</Time>
            <Position>
              <LatitudeDegrees>42.7140865288674831390380859375</LatitudeDegrees>
              <LongitudeDegrees>1.26253254711627960205078125</LongitudeDegrees>
            </Position>
            <AltitudeMeters>2659</AltitudeMeters>
            <DistanceMeters>17084.963515824</DistanceMeters>
          </Trackpoint>
          <Trackpoint>
            <Time>2018-05-01T11:06:55.000Z</Time>
            <Position>
              <LatitudeDegrees>42.71402173675596714019775390625</LatitudeDegrees>
              <LongitudeDegrees>1.26242450438439846038818359375</LongitudeDegrees>
            </Position>
            <AltitudeMeters>2661.800048828125</AltitudeMeters>
            <DistanceMeters>17096.368305217</DistanceMeters>
          </Trackpoint>
          <Trackpoint>
            <Time>2018-05-01T11:06:59.000Z</Time>
            <Position>
              <LatitudeDegrees>42.7140281908214092254638671875</LatitudeDegrees>
              <LongitudeDegrees>1.26238963566720485687255859375</LongitudeDegrees>
            </Position>
            <AltitudeMeters>2662.800048828125</AltitudeMeters>
            <DistanceMeters>17099.309531702</DistanceMeters>
          </Trackpoint>
          <Trackpoint>
            <Time>2018-05-01T11:07:18.000Z</Time>
            <Position>
              <LatitudeDegrees>42.71408895961940288543701171875</LatitudeDegrees>
              <LongitudeDegrees>1.262309253215789794921875</LongitudeDegrees>
            </Position>
            <AltitudeMeters>2665.800048828125</AltitudeMeters>
            <DistanceMeters>17108.741621244</DistanceMeters>
          </Trackpoint>
          <Trackpoint>
            <Time>2018-05-01T11:07:38.000Z</Time>
            <Position>
              <LatitudeDegrees>42.71417881362140178680419921875</LatitudeDegrees>
              <LongitudeDegrees>1.26224278472363948822021484375</LongitudeDegrees>
            </Position>
            <AltitudeMeters>2669</AltitudeMeters>
            <DistanceMeters>17120.12461588</DistanceMeters>
          </Trackpoint>
          <Trackpoint>
            <Time>2018-05-01T11:08:09.000Z</Time>
            <Position>
              <LatitudeDegrees>42.7142286859452724456787109375</LatitudeDegrees>
              <LongitudeDegrees>1.2622306309640407562255859375</LongitudeDegrees>
            </Position>
            <AltitudeMeters>2670</AltitudeMeters>
            <DistanceMeters>17125.76411313</DistanceMeters>
          </Trackpoint>
          <Trackpoint>
            <Time>2018-05-01T11:08:31.000Z</Time>
            <Position>
              <LatitudeDegrees>42.71420815028250217437744140625</LatitudeDegrees>
              <LongitudeDegrees>1.26223842613399028778076171875</LongitudeDegrees>
            </Position>
            <AltitudeMeters>2670</AltitudeMeters>
            <DistanceMeters>17128.137879695</DistanceMeters>
          </Trackpoint>
          <Trackpoint>
            <Time>2018-05-01T11:08:51.000Z</Time>
            <Position>
              <LatitudeDegrees>42.71417495794594287872314453125</LatitudeDegrees>
              <LongitudeDegrees>1.26224982552230358123779296875</LongitudeDegrees>
            </Position>
            <AltitudeMeters>2670.39990234375</AltitudeMeters>
            <DistanceMeters>17131.948439092</DistanceMeters>
          </Trackpoint>
          <Trackpoint>
            <Time>2018-05-01T11:09:06.000Z</Time>
            <Position>
              <LatitudeDegrees>42.71419641561806201934814453125</LatitudeDegrees>
              <LongitudeDegrees>1.26223205588757991790771484375</LongitudeDegrees>
            </Position>
            <AltitudeMeters>2670</AltitudeMeters>
            <DistanceMeters>17134.744873644</DistanceMeters>
          </Trackpoint>
          <Trackpoint>
            <Time>2018-05-01T11:09:24.000Z</Time>
            <Position>
              <LatitudeDegrees>42.7141904644668102264404296875</LatitudeDegrees>
              <LongitudeDegrees>1.26224379055202007293701171875</LongitudeDegrees>
            </Position>
            <AltitudeMeters>2670.60009765625</AltitudeMeters>
            <DistanceMeters>17135.904822517</DistanceMeters>
          </Trackpoint>
          <Trackpoint>
            <Time>2018-05-01T11:09:53.000Z</Time>
            <Position>
              <LatitudeDegrees>42.7141482196748256683349609375</LatitudeDegrees>
              <LongitudeDegrees>1.26224345527589321136474609375</LongitudeDegrees>
            </Position>
            <AltitudeMeters>2671</AltitudeMeters>
            <DistanceMeters>17140.606484685</DistanceMeters>
          </Trackpoint>
          <Trackpoint>
            <Time>2018-05-01T11:10:19.000Z</Time>
            <Position>
              <LatitudeDegrees>42.7141049690544605255126953125</LatitudeDegrees>
              <LongitudeDegrees>1.2622864544391632080078125</LongitudeDegrees>
            </Position>
            <AltitudeMeters>2670.39990234375</AltitudeMeters>
            <DistanceMeters>17146.567470409</DistanceMeters>
          </Trackpoint>
          <Trackpoint>
            <Time>2018-05-01T11:11:03.000Z</Time>
            <Position>
              <LatitudeDegrees>42.7140915580093860626220703125</LatitudeDegrees>
              <LongitudeDegrees>1.2622209079563617706298828125</LongitudeDegrees>
            </Position>
            <AltitudeMeters>2673</AltitudeMeters>
            <DistanceMeters>17152.131201356</DistanceMeters>
          </Trackpoint>
          <Trackpoint>
            <Time>2018-05-01T11:11:04.000Z</Time>
            <Position>
              <LatitudeDegrees>42.71410010755062103271484375</LatitudeDegrees>
              <LongitudeDegrees>1.262221746146678924560546875</LongitudeDegrees>
            </Position>
            <AltitudeMeters>2672.60009765625</AltitudeMeters>
            <DistanceMeters>17153.0814685</DistanceMeters>
          </Trackpoint>
          <Trackpoint>
            <Time>2018-05-01T11:11:44.000Z</Time>
            <Position>
              <LatitudeDegrees>42.71405660547316074371337890625</LatitudeDegrees>
              <LongitudeDegrees>1.26218679361045360565185546875</LongitudeDegrees>
            </Position>
            <AltitudeMeters>2672.800048828125</AltitudeMeters>
            <DistanceMeters>17158.704127802</DistanceMeters>
          </Trackpoint>
          <Trackpoint>
            <Time>2018-05-01T11:12:03.000Z</Time>
            <Position>
              <LatitudeDegrees>42.71416850388050079345703125</LatitudeDegrees>
              <LongitudeDegrees>1.262141279876232147216796875</LongitudeDegrees>
            </Position>
            <AltitudeMeters>2675.60009765625</AltitudeMeters>
            <DistanceMeters>17171.703004308</DistanceMeters>
          </Trackpoint>
          <Trackpoint>
            <Time>2018-05-01T11:12:13.000Z</Time>
            <Position>
              <LatitudeDegrees>42.7142437733709812164306640625</LatitudeDegrees>
              <LongitudeDegrees>1.26210163347423076629638671875</LongitudeDegrees>
            </Position>
            <AltitudeMeters>2677.60009765625</AltitudeMeters>
            <DistanceMeters>17180.685919375</DistanceMeters>
          </Trackpoint>
          <Trackpoint>
            <Time>2018-05-01T11:12:14.000Z</Time>
            <Position>
              <LatitudeDegrees>42.714254669845104217529296875</LatitudeDegrees>
              <LongitudeDegrees>1.26210163347423076629638671875</LongitudeDegrees>
            </Position>
            <AltitudeMeters>2677.800048828125</AltitudeMeters>
            <DistanceMeters>17181.89541199</DistanceMeters>
          </Trackpoint>
          <Trackpoint>
            <Time>2018-05-01T11:12:15.000Z</Time>
            <Position>
              <LatitudeDegrees>42.71426112391054630279541015625</LatitudeDegrees>
              <LongitudeDegrees>1.26209802925586700439453125</LongitudeDegrees>
            </Position>
            <AltitudeMeters>2678</AltitudeMeters>
            <DistanceMeters>17182.679022351</DistanceMeters>
          </Trackpoint>
          <Trackpoint>
            <Time>2018-05-01T11:12:31.000Z</Time>
            <Position>
              <LatitudeDegrees>42.7143527381122112274169921875</LatitudeDegrees>
              <LongitudeDegrees>1.26210205256938934326171875</LongitudeDegrees>
            </Position>
            <AltitudeMeters>2680.60009765625</AltitudeMeters>
            <DistanceMeters>17192.881015347</DistanceMeters>
          </Trackpoint>
          <Trackpoint>
            <Time>2018-05-01T11:12:48.000Z</Time>
            <Position>
              <LatitudeDegrees>42.71439707837998867034912109375</LatitudeDegrees>
              <LongitudeDegrees>1.2621079199016094207763671875</LongitudeDegrees>
            </Position>
            <AltitudeMeters>2682.39990234375</AltitudeMeters>
            <DistanceMeters>17197.838824145</DistanceMeters>
          </Trackpoint>
          <Trackpoint>
            <Time>2018-05-01T11:13:11.000Z</Time>
            <Position>
              <LatitudeDegrees>42.7143748663365840911865234375</LatitudeDegrees>
              <LongitudeDegrees>1.2621407769620418548583984375</LongitudeDegrees>
            </Position>
            <AltitudeMeters>2682.800048828125</AltitudeMeters>
            <DistanceMeters>17201.490867807</DistanceMeters>
          </Trackpoint>
          <Trackpoint>
            <Time>2018-05-01T11:13:13.000Z</Time>
            <Position>
              <LatitudeDegrees>42.714376710355281829833984375</LatitudeDegrees>
              <LongitudeDegrees>1.262128539383411407470703125</LongitudeDegrees>
            </Position>
            <AltitudeMeters>2682.800048828125</AltitudeMeters>
            <DistanceMeters>17202.514336843</DistanceMeters>
          </Trackpoint>
          <Trackpoint>
            <Time>2018-05-01T11:13:17.000Z</Time>
            <Position>
              <LatitudeDegrees>42.7144057117402553558349609375</LatitudeDegrees>
              <LongitudeDegrees>1.26212493516504764556884765625</LongitudeDegrees>
            </Position>
            <AltitudeMeters>2683.199951171875</AltitudeMeters>
            <DistanceMeters>17205.75640547</DistanceMeters>
          </Trackpoint>
          <Trackpoint>
            <Time>2018-05-01T11:13:31.000Z</Time>
            <Position>
              <LatitudeDegrees>42.71450269035995006561279296875</LatitudeDegrees>
              <LongitudeDegrees>1.262121833860874176025390625</LongitudeDegrees>
            </Position>
            <AltitudeMeters>2686.199951171875</AltitudeMeters>
            <DistanceMeters>17216.552711631</DistanceMeters>
          </Trackpoint>
          <Trackpoint>
            <Time>2018-05-01T11:14:14.000Z</Time>
            <Position>
              <LatitudeDegrees>42.71456019021570682525634765625</LatitudeDegrees>
              <LongitudeDegrees>1.26216516830027103424072265625</LongitudeDegrees>
            </Position>
            <AltitudeMeters>2689.199951171875</AltitudeMeters>
            <DistanceMeters>17223.867917234</DistanceMeters>
          </Trackpoint>
          <Trackpoint>
            <Time>2018-05-01T11:14:30.000Z</Time>
            <Position>
              <LatitudeDegrees>42.71463998593389987945556640625</LatitudeDegrees>
              <LongitudeDegrees>1.26218662597239017486572265625</LongitudeDegrees>
            </Position>
            <AltitudeMeters>2692.39990234375</AltitudeMeters>
            <DistanceMeters>17232.920926336</DistanceMeters>
          </Trackpoint>
          <Trackpoint>
            <Time>2018-05-01T11:14:44.000Z</Time>
            <Position>
              <LatitudeDegrees>42.7146357111632823944091796875</LatitudeDegrees>
              <LongitudeDegrees>1.26220523379743099212646484375</LongitudeDegrees>
            </Position>
            <AltitudeMeters>2694</AltitudeMeters>
            <DistanceMeters>17234.511027404</DistanceMeters>
          </Trackpoint>
          <Trackpoint>
            <Time>2018-05-01T11:15:03.000Z</Time>
            <Position>
              <LatitudeDegrees>42.714571841061115264892578125</LatitudeDegrees>
              <LongitudeDegrees>1.26207925379276275634765625</LongitudeDegrees>
            </Position>
            <AltitudeMeters>2697.199951171875</AltitudeMeters>
            <DistanceMeters>17247.027889083</DistanceMeters>
          </Trackpoint>
          <Trackpoint>
            <Time>2018-05-01T11:15:16.000Z</Time>
            <Position>
              <LatitudeDegrees>42.71459673531353473663330078125</LatitudeDegrees>
              <LongitudeDegrees>1.26207196153700351715087890625</LongitudeDegrees>
            </Position>
            <AltitudeMeters>2697.60009765625</AltitudeMeters>
            <DistanceMeters>17249.861215389</DistanceMeters>
          </Trackpoint>
          <Trackpoint>
            <Time>2018-05-01T11:15:33.000Z</Time>
            <Position>
              <LatitudeDegrees>42.71468742750585079193115234375</LatitudeDegrees>
              <LongitudeDegrees>1.26210012473165988922119140625</LongitudeDegrees>
            </Position>
            <AltitudeMeters>2700.60009765625</AltitudeMeters>
            <DistanceMeters>17260.214331219</DistanceMeters>
          </Trackpoint>
          <Trackpoint>
            <Time>2018-05-01T11:15:53.000Z</Time>
            <Position>
              <LatitudeDegrees>42.7146960608661174774169921875</LatitudeDegrees>
              <LongitudeDegrees>1.2621243484318256378173828125</LongitudeDegrees>
            </Position>
            <AltitudeMeters>2702</AltitudeMeters>
            <DistanceMeters>17262.416410021</DistanceMeters>
          </Trackpoint>
          <Trackpoint>
            <Time>2018-05-01T11:15:59.000Z</Time>
            <Position>
              <LatitudeDegrees>42.71468751132488250732421875</LatitudeDegrees>
              <LongitudeDegrees>1.26206391490995883941650390625</LongitudeDegrees>
            </Position>
            <AltitudeMeters>2702.60009765625</AltitudeMeters>
            <DistanceMeters>17267.449238692</DistanceMeters>
          </Trackpoint>
          <Trackpoint>
            <Time>2018-05-01T11:16:48.000Z</Time>
            <Position>
              <LatitudeDegrees>42.71469647996127605438232421875</LatitudeDegrees>
              <LongitudeDegrees>1.262020580470561981201171875</LongitudeDegrees>
            </Position>
            <AltitudeMeters>2704</AltitudeMeters>
            <DistanceMeters>17271.132060276</DistanceMeters>
          </Trackpoint>
          <Trackpoint>
            <Time>2018-05-01T11:17:30.000Z</Time>
            <Position>
              <LatitudeDegrees>42.7146655507385730743408203125</LatitudeDegrees>
              <LongitudeDegrees>1.26190868206322193145751953125</LongitudeDegrees>
            </Position>
            <AltitudeMeters>2706.39990234375</AltitudeMeters>
            <DistanceMeters>17280.908272686</DistanceMeters>
          </Trackpoint>
          <Trackpoint>
            <Time>2018-05-01T11:18:09.000Z</Time>
            <Position>
              <LatitudeDegrees>42.71469891071319580078125</LatitudeDegrees>
              <LongitudeDegrees>1.26197590492665767669677734375</LongitudeDegrees>
            </Position>
            <AltitudeMeters>2707.39990234375</AltitudeMeters>
            <DistanceMeters>17287.54111012</DistanceMeters>
          </Trackpoint>
          <Trackpoint>
            <Time>2018-05-01T11:18:22.000Z</Time>
            <Position>
              <LatitudeDegrees>42.7147104777395725250244140625</LatitudeDegrees>
              <LongitudeDegrees>1.26196266151964664459228515625</LongitudeDegrees>
            </Position>
            <AltitudeMeters>2707.60009765625</AltitudeMeters>
            <DistanceMeters>17289.224987789</DistanceMeters>
          </Trackpoint>
          <Trackpoint>
            <Time>2018-05-01T11:18:37.000Z</Time>
            <Position>
              <LatitudeDegrees>42.7147155068814754486083984375</LatitudeDegrees>
              <LongitudeDegrees>1.2619557045400142669677734375</LongitudeDegrees>
            </Position>
            <AltitudeMeters>2707.60009765625</AltitudeMeters>
            <DistanceMeters>17290.020038323</DistanceMeters>
          </Trackpoint>
          <Trackpoint>
            <Time>2018-05-01T11:19:02.000Z</Time>
            <Position>
              <LatitudeDegrees>42.71470067091286182403564453125</LatitudeDegrees>
              <LongitudeDegrees>1.261960230767726898193359375</LongitudeDegrees>
            </Position>
            <AltitudeMeters>2707.60009765625</AltitudeMeters>
            <DistanceMeters>17291.714607386</DistanceMeters>
          </Trackpoint>
          <Trackpoint>
            <Time>2018-05-01T11:19:32.000Z</Time>
            <Position>
              <LatitudeDegrees>42.7146953903138637542724609375</LatitudeDegrees>
              <LongitudeDegrees>1.26194606535136699676513671875</LongitudeDegrees>
            </Position>
            <AltitudeMeters>2708</AltitudeMeters>
            <DistanceMeters>17293.017548049</DistanceMeters>
          </Trackpoint>
          <Trackpoint>
            <Time>2018-05-01T11:19:52.000Z</Time>
            <Position>
              <LatitudeDegrees>42.71470201201736927032470703125</LatitudeDegrees>
              <LongitudeDegrees>1.26196031458675861358642578125</LongitudeDegrees>
            </Position>
            <AltitudeMeters>2707.800048828125</AltitudeMeters>
            <DistanceMeters>17294.401157895</DistanceMeters>
          </Trackpoint>
          <Trackpoint>
            <Time>2018-05-01T11:20:11.000Z</Time>
            <Position>
              <LatitudeDegrees>42.7147091366350650787353515625</LatitudeDegrees>
              <LongitudeDegrees>1.26196232624351978302001953125</LongitudeDegrees>
            </Position>
            <AltitudeMeters>2708.60009765625</AltitudeMeters>
            <DistanceMeters>17295.213066498</DistanceMeters>
          </Trackpoint>
          <Trackpoint>
            <Time>2018-05-01T11:20:40.000Z</Time>
            <Position>
              <LatitudeDegrees>42.7147399820387363433837890625</LatitudeDegrees>
              <LongitudeDegrees>1.26200607977807521820068359375</LongitudeDegrees>
            </Position>
            <AltitudeMeters>2707.39990234375</AltitudeMeters>
            <DistanceMeters>17300.171785905</DistanceMeters>
          </Trackpoint>
          <Trackpoint>
            <Time>2018-05-01T11:21:46.000Z</Time>
            <Position>
              <LatitudeDegrees>42.71472011692821979522705078125</LatitudeDegrees>
              <LongitudeDegrees>1.26198311336338520050048828125</LongitudeDegrees>
            </Position>
            <AltitudeMeters>2708.199951171875</AltitudeMeters>
            <DistanceMeters>17303.072825589</DistanceMeters>
          </Trackpoint>
          <Trackpoint>
            <Time>2018-05-01T11:22:23.000Z</Time>
            <Position>
              <LatitudeDegrees>42.71471542306244373321533203125</LatitudeDegrees>
              <LongitudeDegrees>1.26197070814669132232666015625</LongitudeDegrees>
            </Position>
            <AltitudeMeters>2707.800048828125</AltitudeMeters>
            <DistanceMeters>17304.213146161</DistanceMeters>
          </Trackpoint>
          <Trackpoint>
            <Time>2018-05-01T11:23:50.000Z</Time>
            <Position>
              <LatitudeDegrees>42.7147379703819751739501953125</LatitudeDegrees>
              <LongitudeDegrees>1.26194304786622524261474609375</LongitudeDegrees>
            </Position>
            <AltitudeMeters>2708.39990234375</AltitudeMeters>
            <DistanceMeters>17307.59160981</DistanceMeters>
          </Trackpoint>
          <Trackpoint>
            <Time>2018-05-01T11:23:52.000Z</Time>
            <Position>
              <LatitudeDegrees>42.71472849883139133453369140625</LatitudeDegrees>
              <LongitudeDegrees>1.26193617470562458038330078125</LongitudeDegrees>
            </Position>
            <AltitudeMeters>2708.60009765625</AltitudeMeters>
            <DistanceMeters>17308.786077088</DistanceMeters>
          </Trackpoint>
          <Trackpoint>
            <Time>2018-05-01T11:24:48.000Z</Time>
            <Position>
              <LatitudeDegrees>42.71474341861903667449951171875</LatitudeDegrees>
              <LongitudeDegrees>1.2619607336819171905517578125</LongitudeDegrees>
            </Position>
            <AltitudeMeters>2708.39990234375</AltitudeMeters>
            <DistanceMeters>17311.390225204</DistanceMeters>
          </Trackpoint>
          <Trackpoint>
            <Time>2018-05-01T11:24:58.000Z</Time>
            <Position>
              <LatitudeDegrees>42.7147376351058483123779296875</LatitudeDegrees>
              <LongitudeDegrees>1.2619580514729022979736328125</LongitudeDegrees>
            </Position>
            <AltitudeMeters>2708</AltitudeMeters>
            <DistanceMeters>17312.062165545</DistanceMeters>
          </Trackpoint>
          <Trackpoint>
            <Time>2018-05-01T11:24:59.000Z</Time>
            <Position>
              <LatitudeDegrees>42.71474517881870269775390625</LatitudeDegrees>
              <LongitudeDegrees>1.26196299679577350616455078125</LongitudeDegrees>
            </Position>
            <AltitudeMeters>2708</AltitudeMeters>
            <DistanceMeters>17312.993233394</DistanceMeters>
          </Trackpoint>
          <Trackpoint>
            <Time>2018-05-01T11:25:16.000Z</Time>
            <Position>
              <LatitudeDegrees>42.7148087136447429656982421875</LatitudeDegrees>
              <LongitudeDegrees>1.26202217303216457366943359375</LongitudeDegrees>
            </Position>
            <AltitudeMeters>2711</AltitudeMeters>
            <DistanceMeters>17321.561460835</DistanceMeters>
          </Trackpoint>
          <Trackpoint>
            <Time>2018-05-01T11:25:31.000Z</Time>
            <Position>
              <LatitudeDegrees>42.714811898767948150634765625</LatitudeDegrees>
              <LongitudeDegrees>1.2620220892131328582763671875</LongitudeDegrees>
            </Position>
            <AltitudeMeters>2711.800048828125</AltitudeMeters>
            <DistanceMeters>17321.917018243</DistanceMeters>
          </Trackpoint>
          <Trackpoint>
            <Time>2018-05-01T11:25:32.000Z</Time>
            <Position>
              <LatitudeDegrees>42.7147993259131908416748046875</LatitudeDegrees>
              <LongitudeDegrees>1.262012533843517303466796875</LongitudeDegrees>
            </Position>
            <AltitudeMeters>2711.800048828125</AltitudeMeters>
            <DistanceMeters>17323.518436898</DistanceMeters>
          </Trackpoint>
          <Trackpoint>
            <Time>2018-05-01T11:25:48.000Z</Time>
            <Position>
              <LatitudeDegrees>42.71473989821970462799072265625</LatitudeDegrees>
              <LongitudeDegrees>1.261884458363056182861328125</LongitudeDegrees>
            </Position>
            <AltitudeMeters>2713.800048828125</AltitudeMeters>
            <DistanceMeters>17335.905488966</DistanceMeters>
          </Trackpoint>
          <Trackpoint>
            <Time>2018-05-01T11:26:00.000Z</Time>
            <Position>
              <LatitudeDegrees>42.71474107168614864349365234375</LatitudeDegrees>
              <LongitudeDegrees>1.261797286570072174072265625</LongitudeDegrees>
            </Position>
            <AltitudeMeters>2716.199951171875</AltitudeMeters>
            <DistanceMeters>17343.035659398</DistanceMeters>
          </Trackpoint>
          <Trackpoint>
            <Time>2018-05-01T11:26:12.000Z</Time>
            <Position>
              <LatitudeDegrees>42.714701592922210693359375</LatitudeDegrees>
              <LongitudeDegrees>1.2617176584899425506591796875</LongitudeDegrees>
            </Position>
            <AltitudeMeters>2718</AltitudeMeters>
            <DistanceMeters>17350.891328842</DistanceMeters>
          </Trackpoint>
          <Trackpoint>
            <Time>2018-05-01T11:26:13.000Z</Time>
            <Position>
              <LatitudeDegrees>42.71471039392054080963134765625</LatitudeDegrees>
              <LongitudeDegrees>1.26172251999378204345703125</LongitudeDegrees>
            </Position>
            <AltitudeMeters>2718</AltitudeMeters>
            <DistanceMeters>17351.940933208</DistanceMeters>
          </Trackpoint>
          <Trackpoint>
            <Time>2018-05-01T11:26:28.000Z</Time>
            <Position>
              <LatitudeDegrees>42.71475196816027164459228515625</LatitudeDegrees>
              <LongitudeDegrees>1.2617377750575542449951171875</LongitudeDegrees>
            </Position>
            <AltitudeMeters>2718.39990234375</AltitudeMeters>
            <DistanceMeters>17356.733898311</DistanceMeters>
          </Trackpoint>
          <Trackpoint>
            <Time>2018-05-01T11:26:45.000Z</Time>
            <Position>
              <LatitudeDegrees>42.71483637392520904541015625</LatitudeDegrees>
              <LongitudeDegrees>1.26177842728793621063232421875</LongitudeDegrees>
            </Position>
            <AltitudeMeters>2721.39990234375</AltitudeMeters>
            <DistanceMeters>17366.69947811</DistanceMeters>
          </Trackpoint>
          <Trackpoint>
            <Time>2018-05-01T11:27:21.000Z</Time>
            <Position>
              <LatitudeDegrees>42.714792452752590179443359375</LatitudeDegrees>
              <LongitudeDegrees>1.26165202818810939788818359375</LongitudeDegrees>
            </Position>
            <AltitudeMeters>2724</AltitudeMeters>
            <DistanceMeters>17378.133525808</DistanceMeters>
          </Trackpoint>
          <Trackpoint>
            <Time>2018-05-01T11:27:41.000Z</Time>
            <Position>
              <LatitudeDegrees>42.71475515328347682952880859375</LatitudeDegrees>
              <LongitudeDegrees>1.26155463047325611114501953125</LongitudeDegrees>
            </Position>
            <AltitudeMeters>2727</AltitudeMeters>
            <DistanceMeters>17387.116440875</DistanceMeters>
          </Trackpoint>
          <Trackpoint>
            <Time>2018-05-01T11:28:45.000Z</Time>
            <Position>
              <LatitudeDegrees>42.71479345858097076416015625</LatitudeDegrees>
              <LongitudeDegrees>1.2615848891437053680419921875</LongitudeDegrees>
            </Position>
            <AltitudeMeters>2727.199951171875</AltitudeMeters>
            <DistanceMeters>17392.045937371</DistanceMeters>
          </Trackpoint>
          <Trackpoint>
            <Time>2018-05-01T11:29:10.000Z</Time>
            <Position>
              <LatitudeDegrees>42.71482489071786403656005859375</LatitudeDegrees>
              <LongitudeDegrees>1.26158463768661022186279296875</LongitudeDegrees>
            </Position>
            <AltitudeMeters>2728</AltitudeMeters>
            <DistanceMeters>17395.543901577</DistanceMeters>
          </Trackpoint>
          <Trackpoint>
            <Time>2018-05-01T11:29:15.000Z</Time>
            <Position>
              <LatitudeDegrees>42.71486059762537479400634765625</LatitudeDegrees>
              <LongitudeDegrees>1.2615936063230037689208984375</LongitudeDegrees>
            </Position>
            <AltitudeMeters>2727.800048828125</AltitudeMeters>
            <DistanceMeters>17399.584492896</DistanceMeters>
          </Trackpoint>
          <Trackpoint>
            <Time>2018-05-01T11:29:37.000Z</Time>
            <Position>
              <LatitudeDegrees>42.7148405648767948150634765625</LatitudeDegrees>
              <LongitudeDegrees>1.26156368292868137359619140625</LongitudeDegrees>
            </Position>
            <AltitudeMeters>2730.800048828125</AltitudeMeters>
            <DistanceMeters>17402.894097514</DistanceMeters>
          </Trackpoint>
          <Trackpoint>
            <Time>2018-05-01T11:30:02.000Z</Time>
            <Position>
              <LatitudeDegrees>42.71483109332621097564697265625</LatitudeDegrees>
              <LongitudeDegrees>1.26147978007793426513671875</LongitudeDegrees>
            </Position>
            <AltitudeMeters>2734</AltitudeMeters>
            <DistanceMeters>17409.836903003</DistanceMeters>
          </Trackpoint>
          <Trackpoint>
            <Time>2018-05-01T11:30:29.000Z</Time>
            <Position>
              <LatitudeDegrees>42.71480812691152095794677734375</LatitudeDegrees>
              <LongitudeDegrees>1.26139269210398197174072265625</LongitudeDegrees>
            </Position>
            <AltitudeMeters>2737.199951171875</AltitudeMeters>
            <DistanceMeters>17417.403321221</DistanceMeters>
          </Trackpoint>
          <Trackpoint>
            <Time>2018-05-01T11:31:14.000Z</Time>
            <Position>
              <LatitudeDegrees>42.71482941694557666778564453125</LatitudeDegrees>
              <LongitudeDegrees>1.261368133127689361572265625</LongitudeDegrees>
            </Position>
            <AltitudeMeters>2740.199951171875</AltitudeMeters>
            <DistanceMeters>17420.508819835</DistanceMeters>
          </Trackpoint>
          <Trackpoint>
            <Time>2018-05-01T11:31:36.000Z</Time>
            <Position>
              <LatitudeDegrees>42.71487317048013210296630859375</LatitudeDegrees>
              <LongitudeDegrees>1.26134701073169708251953125</LongitudeDegrees>
            </Position>
            <AltitudeMeters>2742.199951171875</AltitudeMeters>
            <DistanceMeters>17425.675337615</DistanceMeters>
          </Trackpoint>
          <Trackpoint>
            <Time>2018-05-01T11:32:12.000Z</Time>
            <Position>
              <LatitudeDegrees>42.7148745954036712646484375</LatitudeDegrees>
              <LongitudeDegrees>1.26128934323787689208984375</LongitudeDegrees>
            </Position>
            <AltitudeMeters>2745.199951171875</AltitudeMeters>
            <DistanceMeters>17430.392339667</DistanceMeters>
          </Trackpoint>
          <Trackpoint>
            <Time>2018-05-01T11:32:44.000Z</Time>
            <Position>
              <LatitudeDegrees>42.714897729456424713134765625</LatitudeDegrees>
              <LongitudeDegrees>1.261224634945392608642578125</LongitudeDegrees>
            </Position>
            <AltitudeMeters>2748.39990234375</AltitudeMeters>
            <DistanceMeters>17436.277094816</DistanceMeters>
          </Trackpoint>
          <Trackpoint>
            <Time>2018-05-01T11:33:07.000Z</Time>
            <Position>
              <LatitudeDegrees>42.714921198785305023193359375</LatitudeDegrees>
              <LongitudeDegrees>1.26121466048061847686767578125</LongitudeDegrees>
            </Position>
            <AltitudeMeters>2751.60009765625</AltitudeMeters>
            <DistanceMeters>17439.014787905</DistanceMeters>
          </Trackpoint>
          <Trackpoint>
            <Time>2018-05-01T11:33:32.000Z</Time>
            <Position>
              <LatitudeDegrees>42.714880965650081634521484375</LatitudeDegrees>
              <LongitudeDegrees>1.26111759804189205169677734375</LongitudeDegrees>
            </Position>
            <AltitudeMeters>2754.800048828125</AltitudeMeters>
            <DistanceMeters>17448.128439376</DistanceMeters>
          </Trackpoint>
          <Trackpoint>
            <Time>2018-05-01T11:33:50.000Z</Time>
            <Position>
              <LatitudeDegrees>42.71497174166142940521240234375</LatitudeDegrees>
              <LongitudeDegrees>1.26112296245992183685302734375</LongitudeDegrees>
            </Position>
            <AltitudeMeters>2757.800048828125</AltitudeMeters>
            <DistanceMeters>17458.241532167</DistanceMeters>
          </Trackpoint>
          <Trackpoint>
            <Time>2018-05-01T11:34:15.000Z</Time>
            <Position>
              <LatitudeDegrees>42.7149240486323833465576171875</LatitudeDegrees>
              <LongitudeDegrees>1.26101483590900897979736328125</LongitudeDegrees>
            </Position>
            <AltitudeMeters>2760.800048828125</AltitudeMeters>
            <DistanceMeters>17468.554448358</DistanceMeters>
          </Trackpoint>
          <Trackpoint>
            <Time>2018-05-01T11:34:47.000Z</Time>
            <Position>
              <LatitudeDegrees>42.7149552293121814727783203125</LatitudeDegrees>
              <LongitudeDegrees>1.26098298467695713043212890625</LongitudeDegrees>
            </Position>
            <AltitudeMeters>2763.800048828125</AltitudeMeters>
            <DistanceMeters>17472.893539205</DistanceMeters>
          </Trackpoint>
          <Trackpoint>
            <Time>2018-05-01T11:35:12.000Z</Time>
            <Position>
              <LatitudeDegrees>42.7149592526257038116455078125</LatitudeDegrees>
              <LongitudeDegrees>1.26091877929866313934326171875</LongitudeDegrees>
            </Position>
            <AltitudeMeters>2767</AltitudeMeters>
            <DistanceMeters>17478.163882187</DistanceMeters>
          </Trackpoint>
          <Trackpoint>
            <Time>2018-05-01T11:35:28.000Z</Time>
            <Position>
              <LatitudeDegrees>42.71494475193321704864501953125</LatitudeDegrees>
              <LongitudeDegrees>1.26089480705559253692626953125</LongitudeDegrees>
            </Position>
            <AltitudeMeters>2768.800048828125</AltitudeMeters>
            <DistanceMeters>17480.703069967</DistanceMeters>
          </Trackpoint>
          <Trackpoint>
            <Time>2018-05-01T11:35:40.000Z</Time>
            <Position>
              <LatitudeDegrees>42.71490602754056453704833984375</LatitudeDegrees>
              <LongitudeDegrees>1.26084015704691410064697265625</LongitudeDegrees>
            </Position>
            <AltitudeMeters>2770.199951171875</AltitudeMeters>
            <DistanceMeters>17486.912613139</DistanceMeters>
          </Trackpoint>
          <Trackpoint>
            <Time>2018-05-01T11:35:59.000Z</Time>
            <Position>
              <LatitudeDegrees>42.71499596536159515380859375</LatitudeDegrees>
              <LongitudeDegrees>1.26081601716578006744384765625</LongitudeDegrees>
            </Position>
            <AltitudeMeters>2773.39990234375</AltitudeMeters>
            <DistanceMeters>17497.115933742</DistanceMeters>
          </Trackpoint>
          <Trackpoint>
            <Time>2018-05-01T11:37:10.000Z</Time>
            <Position>
              <LatitudeDegrees>42.7149840630590915679931640625</LatitudeDegrees>
              <LongitudeDegrees>1.26078802160918712615966796875</LongitudeDegrees>
            </Position>
            <AltitudeMeters>2774.60009765625</AltitudeMeters>
            <DistanceMeters>17499.75965823</DistanceMeters>
          </Trackpoint>
          <Trackpoint>
            <Time>2018-05-01T11:38:15.000Z</Time>
            <Position>
              <LatitudeDegrees>42.7149857394397258758544921875</LatitudeDegrees>
              <LongitudeDegrees>1.26079573296010494232177734375</LongitudeDegrees>
            </Position>
            <AltitudeMeters>2774.39990234375</AltitudeMeters>
            <DistanceMeters>17500.411128562</DistanceMeters>
          </Trackpoint>
          <Trackpoint>
            <Time>2018-05-01T11:38:59.000Z</Time>
            <Position>
              <LatitudeDegrees>42.71498599089682102203369140625</LatitudeDegrees>
              <LongitudeDegrees>1.260786093771457672119140625</LongitudeDegrees>
            </Position>
            <AltitudeMeters>2774.60009765625</AltitudeMeters>
            <DistanceMeters>17501.206179095</DistanceMeters>
          </Trackpoint>
          <Trackpoint>
            <Time>2018-05-01T11:40:41.000Z</Time>
            <Position>
              <LatitudeDegrees>42.71499906666576862335205078125</LatitudeDegrees>
              <LongitudeDegrees>1.26078098081052303314208984375</LongitudeDegrees>
            </Position>
            <AltitudeMeters>2774.39990234375</AltitudeMeters>
            <DistanceMeters>17502.717671517</DistanceMeters>
          </Trackpoint>
          <Trackpoint>
            <Time>2018-05-01T11:41:41.000Z</Time>
            <Position>
              <LatitudeDegrees>42.71502471528947353363037109375</LatitudeDegrees>
              <LongitudeDegrees>1.26083093695342540740966796875</LongitudeDegrees>
            </Position>
            <AltitudeMeters>2774.199951171875</AltitudeMeters>
            <DistanceMeters>17507.700914459</DistanceMeters>
          </Trackpoint>
          <Trackpoint>
            <Time>2018-05-01T11:42:02.000Z</Time>
            <Position>
              <LatitudeDegrees>42.7149988152086734771728515625</LatitudeDegrees>
              <LongitudeDegrees>1.26078383065760135650634765625</LongitudeDegrees>
            </Position>
            <AltitudeMeters>2774.800048828125</AltitudeMeters>
            <DistanceMeters>17512.510805918</DistanceMeters>
          </Trackpoint>
          <Trackpoint>
            <Time>2018-05-01T11:42:59.000Z</Time>
            <Position>
              <LatitudeDegrees>42.71499889902770519256591796875</LatitudeDegrees>
              <LongitudeDegrees>1.260785423219203948974609375</LongitudeDegrees>
            </Position>
            <AltitudeMeters>2774.60009765625</AltitudeMeters>
            <DistanceMeters>17512.645193986</DistanceMeters>
          </Trackpoint>
          <Trackpoint>
            <Time>2018-05-01T11:43:50.000Z</Time>
            <Position>
              <LatitudeDegrees>42.71500526927411556243896484375</LatitudeDegrees>
              <LongitudeDegrees>1.2607557512819766998291015625</LongitudeDegrees>
            </Position>
            <AltitudeMeters>2774.60009765625</AltitudeMeters>
            <DistanceMeters>17515.173690402</DistanceMeters>
          </Trackpoint>
          <Trackpoint>
            <Time>2018-05-01T11:44:13.000Z</Time>
            <Position>
              <LatitudeDegrees>42.71499252878129482269287109375</LatitudeDegrees>
              <LongitudeDegrees>1.260780058801174163818359375</LongitudeDegrees>
            </Position>
            <AltitudeMeters>2774.60009765625</AltitudeMeters>
            <DistanceMeters>17517.616819651</DistanceMeters>
          </Trackpoint>
          <Trackpoint>
            <Time>2018-05-01T11:45:30.000Z</Time>
            <Position>
              <LatitudeDegrees>42.7149092964828014373779296875</LatitudeDegrees>
              <LongitudeDegrees>1.260710991919040679931640625</LongitudeDegrees>
            </Position>
            <AltitudeMeters>2776.39990234375</AltitudeMeters>
            <DistanceMeters>17528.46693977</DistanceMeters>
          </Trackpoint>
          <Trackpoint>
            <Time>2018-05-01T11:45:39.000Z</Time>
            <Position>
              <LatitudeDegrees>42.71485523320734500885009765625</LatitudeDegrees>
              <LongitudeDegrees>1.26069657504558563232421875</LongitudeDegrees>
            </Position>
            <AltitudeMeters>2778.800048828125</AltitudeMeters>
            <DistanceMeters>17534.598924629</DistanceMeters>
          </Trackpoint>
          <Trackpoint>
            <Time>2018-05-01T11:45:48.000Z</Time>
            <Position>
              <LatitudeDegrees>42.71481919102370738983154296875</LatitudeDegrees>
              <LongitudeDegrees>1.2606907077133655548095703125</LongitudeDegrees>
            </Position>
            <AltitudeMeters>2782</AltitudeMeters>
            <DistanceMeters>17538.638398374</DistanceMeters>
          </Trackpoint>
          <Trackpoint>
            <Time>2018-05-01T11:45:57.000Z</Time>
            <Position>
              <LatitudeDegrees>42.7147956378757953643798828125</LatitudeDegrees>
              <LongitudeDegrees>1.26070537604391574859619140625</LongitudeDegrees>
            </Position>
            <AltitudeMeters>2783.800048828125</AltitudeMeters>
            <DistanceMeters>17541.52070133</DistanceMeters>
          </Trackpoint>
          <Trackpoint>
            <Time>2018-05-01T11:46:05.000Z</Time>
            <Position>
              <LatitudeDegrees>42.714750878512859344482421875</LatitudeDegrees>
              <LongitudeDegrees>1.26072071492671966552734375</LongitudeDegrees>
            </Position>
            <AltitudeMeters>2786.60009765625</AltitudeMeters>
            <DistanceMeters>17546.657420455</DistanceMeters>
          </Trackpoint>
          <Trackpoint>
            <Time>2018-05-01T11:46:13.000Z</Time>
            <Position>
              <LatitudeDegrees>42.7147088013589382171630859375</LatitudeDegrees>
              <LongitudeDegrees>1.26072264276444911956787109375</LongitudeDegrees>
            </Position>
            <AltitudeMeters>2787.60009765625</AltitudeMeters>
            <DistanceMeters>17551.344655886</DistanceMeters>
          </Trackpoint>
          <Trackpoint>
            <Time>2018-05-01T11:46:21.000Z</Time>
            <Position>
              <LatitudeDegrees>42.71468809805810451507568359375</LatitudeDegrees>
              <LongitudeDegrees>1.26072901301085948944091796875</LongitudeDegrees>
            </Position>
            <AltitudeMeters>2787.60009765625</AltitudeMeters>
            <DistanceMeters>17553.70889304</DistanceMeters>
          </Trackpoint>
          <Trackpoint>
            <Time>2018-05-01T11:46:40.000Z</Time>
            <Position>
              <LatitudeDegrees>42.71468214690685272216796875</LatitudeDegrees>
              <LongitudeDegrees>1.260737478733062744140625</LongitudeDegrees>
            </Position>
            <AltitudeMeters>2786.800048828125</AltitudeMeters>
            <DistanceMeters>17554.668615811</DistanceMeters>
          </Trackpoint>
          <Trackpoint>
            <Time>2018-05-01T11:47:09.000Z</Time>
            <Position>
              <LatitudeDegrees>42.71465926431119441986083984375</LatitudeDegrees>
              <LongitudeDegrees>1.2607487104833126068115234375</LongitudeDegrees>
            </Position>
            <AltitudeMeters>2786.199951171875</AltitudeMeters>
            <DistanceMeters>17557.376460355</DistanceMeters>
          </Trackpoint>
          <Trackpoint>
            <Time>2018-05-01T11:47:27.000Z</Time>
            <Position>
              <LatitudeDegrees>42.7146786265075206756591796875</LatitudeDegrees>
              <LongitudeDegrees>1.26072985120117664337158203125</LongitudeDegrees>
            </Position>
            <AltitudeMeters>2787.60009765625</AltitudeMeters>
            <DistanceMeters>17560.027007369</DistanceMeters>
          </Trackpoint>
          <Trackpoint>
            <Time>2018-05-01T11:47:41.000Z</Time>
            <Position>
              <LatitudeDegrees>42.7146772854030132293701171875</LatitudeDegrees>
              <LongitudeDegrees>1.260720379650592803955078125</LongitudeDegrees>
            </Position>
            <AltitudeMeters>2787.39990234375</AltitudeMeters>
            <DistanceMeters>17560.816358542</DistanceMeters>
          </Trackpoint>
          <Trackpoint>
            <Time>2018-05-01T11:47:53.000Z</Time>
            <Position>
              <LatitudeDegrees>42.7146836556494235992431640625</LatitudeDegrees>
              <LongitudeDegrees>1.260717026889324188232421875</LongitudeDegrees>
            </Position>
            <AltitudeMeters>2787.60009765625</AltitudeMeters>
            <DistanceMeters>17561.576572257</DistanceMeters>
          </Trackpoint>
          <Trackpoint>
            <Time>2018-05-01T11:48:09.000Z</Time>
            <Position>
              <LatitudeDegrees>42.7146828174591064453125</LatitudeDegrees>
              <LongitudeDegrees>1.26071275211870670318603515625</LongitudeDegrees>
            </Position>
            <AltitudeMeters>2788</AltitudeMeters>
            <DistanceMeters>17561.932129664</DistanceMeters>
          </Trackpoint>
          <Trackpoint>
            <Time>2018-05-01T11:48:25.000Z</Time>
            <Position>
              <LatitudeDegrees>42.7146933786571025848388671875</LatitudeDegrees>
              <LongitudeDegrees>1.26072834245860576629638671875</LongitudeDegrees>
            </Position>
            <AltitudeMeters>2787.60009765625</AltitudeMeters>
            <DistanceMeters>17563.668806241</DistanceMeters>
          </Trackpoint>
          <Trackpoint>
            <Time>2018-05-01T11:49:13.000Z</Time>
            <Position>
              <LatitudeDegrees>42.71485037170350551605224609375</LatitudeDegrees>
              <LongitudeDegrees>1.2607091479003429412841796875</LongitudeDegrees>
            </Position>
            <AltitudeMeters>2784.199951171875</AltitudeMeters>
            <DistanceMeters>17581.213012854</DistanceMeters>
          </Trackpoint>
          <Trackpoint>
            <Time>2018-05-01T11:49:19.000Z</Time>
            <Position>
              <LatitudeDegrees>42.71489546634256839752197265625</LatitudeDegrees>
              <LongitudeDegrees>1.26070487312972545623779296875</LongitudeDegrees>
            </Position>
            <AltitudeMeters>2781.39990234375</AltitudeMeters>
            <DistanceMeters>17586.244944327</DistanceMeters>
          </Trackpoint>
          <Trackpoint>
            <Time>2018-05-01T11:49:24.000Z</Time>
            <Position>
              <LatitudeDegrees>42.71495011635124683380126953125</LatitudeDegrees>
              <LongitudeDegrees>1.26071979291737079620361328125</LongitudeDegrees>
            </Position>
            <AltitudeMeters>2778.199951171875</AltitudeMeters>
            <DistanceMeters>17592.44866787</DistanceMeters>
          </Trackpoint>
          <Trackpoint>
            <Time>2018-05-01T11:49:29.000Z</Time>
            <Position>
              <LatitudeDegrees>42.7149823866784572601318359375</LatitudeDegrees>
              <LongitudeDegrees>1.2607591040432453155517578125</LongitudeDegrees>
            </Position>
            <AltitudeMeters>2775.800048828125</AltitudeMeters>
            <DistanceMeters>17597.267937173</DistanceMeters>
          </Trackpoint>
          <Trackpoint>
            <Time>2018-05-01T11:50:33.000Z</Time>
            <Position>
              <LatitudeDegrees>42.71498934365808963775634765625</LatitudeDegrees>
              <LongitudeDegrees>1.26077494584023952484130859375</LongitudeDegrees>
            </Position>
            <AltitudeMeters>2774.60009765625</AltitudeMeters>
            <DistanceMeters>17598.776439498</DistanceMeters>
          </Trackpoint>
          <Trackpoint>
            <Time>2018-05-01T11:53:16.000Z</Time>
            <Position>
              <LatitudeDegrees>42.71498900838196277618408203125</LatitudeDegrees>
              <LongitudeDegrees>1.26076488755643367767333984375</LongitudeDegrees>
            </Position>
            <AltitudeMeters>2774.60009765625</AltitudeMeters>
            <DistanceMeters>17599.593890204</DistanceMeters>
          </Trackpoint>
          <Trackpoint>
            <Time>2018-05-01T11:54:47.000Z</Time>
            <Position>
              <LatitudeDegrees>42.7149813808500766754150390625</LatitudeDegrees>
              <LongitudeDegrees>1.26077880151569843292236328125</LongitudeDegrees>
            </Position>
            <AltitudeMeters>2774.60009765625</AltitudeMeters>
            <DistanceMeters>17601.012941664</DistanceMeters>
          </Trackpoint>
          <Trackpoint>
            <Time>2018-05-01T11:55:22.000Z</Time>
            <Position>
              <LatitudeDegrees>42.7149870805442333221435546875</LatitudeDegrees>
              <LongitudeDegrees>1.260775364935398101806640625</LongitudeDegrees>
            </Position>
            <AltitudeMeters>2774.800048828125</AltitudeMeters>
            <DistanceMeters>17601.704746587</DistanceMeters>
          </Trackpoint>
          <Trackpoint>
            <Time>2018-05-01T11:56:12.000Z</Time>
            <Position>
              <LatitudeDegrees>42.71498255431652069091796875</LatitudeDegrees>
              <LongitudeDegrees>1.260763294994831085205078125</LongitudeDegrees>
            </Position>
            <AltitudeMeters>2774.800048828125</AltitudeMeters>
            <DistanceMeters>17602.812938988</DistanceMeters>
          </Trackpoint>
          <Trackpoint>
            <Time>2018-05-01T11:57:15.000Z</Time>
            <Position>
              <LatitudeDegrees>42.71495631895959377288818359375</LatitudeDegrees>
              <LongitudeDegrees>1.26069297082722187042236328125</LongitudeDegrees>
            </Position>
            <AltitudeMeters>2775.60009765625</AltitudeMeters>
            <DistanceMeters>17609.262166236</DistanceMeters>
          </Trackpoint>
          <Trackpoint>
            <Time>2018-05-01T11:57:16.000Z</Time>
            <Position>
              <LatitudeDegrees>42.71494978107511997222900390625</LatitudeDegrees>
              <LongitudeDegrees>1.26067436300218105316162109375</LongitudeDegrees>
            </Position>
            <AltitudeMeters>2775.199951171875</AltitudeMeters>
            <DistanceMeters>17610.948723107</DistanceMeters>
          </Trackpoint>
          <Trackpoint>
            <Time>2018-05-01T11:57:17.000Z</Time>
            <Position>
              <LatitudeDegrees>42.71494458429515361785888671875</LatitudeDegrees>
              <LongitudeDegrees>1.2606585212051868438720703125</LongitudeDegrees>
            </Position>
            <AltitudeMeters>2775</AltitudeMeters>
            <DistanceMeters>17612.367774568</DistanceMeters>
          </Trackpoint>
          <Trackpoint>
            <Time>2018-05-01T11:57:24.000Z</Time>
            <Position>
              <LatitudeDegrees>42.71494927816092967987060546875</LatitudeDegrees>
              <LongitudeDegrees>1.26061937771737575531005859375</LongitudeDegrees>
            </Position>
            <AltitudeMeters>2773.800048828125</AltitudeMeters>
            <DistanceMeters>17615.611235537</DistanceMeters>
          </Trackpoint>
          <Trackpoint>
            <Time>2018-05-01T11:57:25.000Z</Time>
            <Position>
              <LatitudeDegrees>42.7149542234838008880615234375</LatitudeDegrees>
              <LongitudeDegrees>1.2605934776365756988525390625</LongitudeDegrees>
            </Position>
            <AltitudeMeters>2774</AltitudeMeters>
            <DistanceMeters>17617.79891479</DistanceMeters>
          </Trackpoint>
          <Trackpoint>
            <Time>2018-05-01T11:57:26.000Z</Time>
            <Position>
              <LatitudeDegrees>42.7149558998644351959228515625</LatitudeDegrees>
              <LongitudeDegrees>1.26056204549968242645263671875</LongitudeDegrees>
            </Position>
            <AltitudeMeters>2774</AltitudeMeters>
            <DistanceMeters>17620.373419812</DistanceMeters>
          </Trackpoint>
          <Trackpoint>
            <Time>2018-05-01T11:57:27.000Z</Time>
            <Position>
              <LatitudeDegrees>42.71496268920600414276123046875</LatitudeDegrees>
              <LongitudeDegrees>1.260518543422222137451171875</LongitudeDegrees>
            </Position>
            <AltitudeMeters>2774</AltitudeMeters>
            <DistanceMeters>17624.009355994</DistanceMeters>
          </Trackpoint>
          <Trackpoint>
            <Time>2018-05-01T11:57:28.000Z</Time>
            <Position>
              <LatitudeDegrees>42.71497911773622035980224609375</LatitudeDegrees>
              <LongitudeDegrees>1.26048141159117221832275390625</LongitudeDegrees>
            </Position>
            <AltitudeMeters>2773.800048828125</AltitudeMeters>
            <DistanceMeters>17627.554756734</DistanceMeters>
          </Trackpoint>
          <Trackpoint>
            <Time>2018-05-01T11:57:29.000Z</Time>
            <Position>
              <LatitudeDegrees>42.714998982846736907958984375</LatitudeDegrees>
              <LongitudeDegrees>1.2604533322155475616455078125</LongitudeDegrees>
            </Position>
            <AltitudeMeters>2773</AltitudeMeters>
            <DistanceMeters>17630.743465889</DistanceMeters>
          </Trackpoint>
          <Trackpoint>
            <Time>2018-05-01T11:57:30.000Z</Time>
            <Position>
              <LatitudeDegrees>42.71502404473721981048583984375</LatitudeDegrees>
              <LongitudeDegrees>1.26042164862155914306640625</LongitudeDegrees>
            </Position>
            <AltitudeMeters>2772.60009765625</AltitudeMeters>
            <DistanceMeters>17634.551654798</DistanceMeters>
          </Trackpoint>
          <Trackpoint>
            <Time>2018-05-01T11:57:38.000Z</Time>
            <Position>
              <LatitudeDegrees>42.715103924274444580078125</LatitudeDegrees>
              <LongitudeDegrees>1.2603765539824962615966796875</LongitudeDegrees>
            </Position>
            <AltitudeMeters>2769.60009765625</AltitudeMeters>
            <DistanceMeters>17644.176599174</DistanceMeters>
          </Trackpoint>
          <Trackpoint>
            <Time>2018-05-01T11:57:47.000Z</Time>
            <Position>
              <LatitudeDegrees>42.715107612311840057373046875</LatitudeDegrees>
              <LongitudeDegrees>1.2603614665567874908447265625</LongitudeDegrees>
            </Position>
            <AltitudeMeters>2770</AltitudeMeters>
            <DistanceMeters>17645.476069949</DistanceMeters>
          </Trackpoint>
          <Trackpoint>
            <Time>2018-05-01T11:57:48.000Z</Time>
            <Position>
              <LatitudeDegrees>42.7151191793382167816162109375</LatitudeDegrees>
              <LongitudeDegrees>1.26034596003592014312744140625</LongitudeDegrees>
            </Position>
            <AltitudeMeters>2770</AltitudeMeters>
            <DistanceMeters>17647.284076496</DistanceMeters>
          </Trackpoint>
          <Trackpoint>
            <Time>2018-05-01T11:57:49.000Z</Time>
            <Position>
              <LatitudeDegrees>42.715129069983959197998046875</LatitudeDegrees>
              <LongitudeDegrees>1.26032886095345020294189453125</LongitudeDegrees>
            </Position>
            <AltitudeMeters>2769.60009765625</AltitudeMeters>
            <DistanceMeters>17649.061863535</DistanceMeters>
          </Trackpoint>
          <Trackpoint>
            <Time>2018-05-01T11:57:52.000Z</Time>
            <Position>
              <LatitudeDegrees>42.71517726592719554901123046875</LatitudeDegrees>
              <LongitudeDegrees>1.2602354027330875396728515625</LongitudeDegrees>
            </Position>
            <AltitudeMeters>2769.39990234375</AltitudeMeters>
            <DistanceMeters>17658.399658678</DistanceMeters>
          </Trackpoint>
          <Trackpoint>
            <Time>2018-05-01T11:57:53.000Z</Time>
            <Position>
              <LatitudeDegrees>42.7151533775031566619873046875</LatitudeDegrees>
              <LongitudeDegrees>1.2602109275758266448974609375</LongitudeDegrees>
            </Position>
            <AltitudeMeters>2768.800048828125</AltitudeMeters>
            <DistanceMeters>17661.726950929</DistanceMeters>
          </Trackpoint>
          <Trackpoint>
            <Time>2018-05-01T11:57:54.000Z</Time>
            <Position>
              <LatitudeDegrees>42.71513317711651325225830078125</LatitudeDegrees>
              <LongitudeDegrees>1.26021252013742923736572265625</LongitudeDegrees>
            </Position>
            <AltitudeMeters>2767</AltitudeMeters>
            <DistanceMeters>17663.977700334</DistanceMeters>
          </Trackpoint>
          <Trackpoint>
            <Time>2018-05-01T11:57:56.000Z</Time>
            <Position>
              <LatitudeDegrees>42.71510660648345947265625</LatitudeDegrees>
              <LongitudeDegrees>1.26021536998450756072998046875</LongitudeDegrees>
            </Position>
            <AltitudeMeters>2763.800048828125</AltitudeMeters>
            <DistanceMeters>17666.944908539</DistanceMeters>
          </Trackpoint>
          <Trackpoint>
            <Time>2018-05-01T11:57:57.000Z</Time>
            <Position>
              <LatitudeDegrees>42.7150809578597545623779296875</LatitudeDegrees>
              <LongitudeDegrees>1.26020447351038455963134765625</LongitudeDegrees>
            </Position>
            <AltitudeMeters>2763.199951171875</AltitudeMeters>
            <DistanceMeters>17669.934854304</DistanceMeters>
          </Trackpoint>
          <Trackpoint>
            <Time>2018-05-01T11:57:58.000Z</Time>
            <Position>
              <LatitudeDegrees>42.71504851989448070526123046875</LatitudeDegrees>
              <LongitudeDegrees>1.26019273884594440460205078125</LongitudeDegrees>
            </Position>
            <AltitudeMeters>2762.39990234375</AltitudeMeters>
            <DistanceMeters>17673.67122931</DistanceMeters>
          </Trackpoint>
          <Trackpoint>
            <Time>2018-05-01T11:57:59.000Z</Time>
            <Position>
              <LatitudeDegrees>42.715030498802661895751953125</LatitudeDegrees>
              <LongitudeDegrees>1.26015921123325824737548828125</LongitudeDegrees>
            </Position>
            <AltitudeMeters>2761.39990234375</AltitudeMeters>
            <DistanceMeters>17677.068351282</DistanceMeters>
          </Trackpoint>
          <Trackpoint>
            <Time>2018-05-01T11:58:00.000Z</Time>
            <Position>
              <LatitudeDegrees>42.71503083407878875732421875</LatitudeDegrees>
              <LongitudeDegrees>1.26011378131806850433349609375</LongitudeDegrees>
            </Position>
            <AltitudeMeters>2760.39990234375</AltitudeMeters>
            <DistanceMeters>17680.78412669</DistanceMeters>
          </Trackpoint>
          <Trackpoint>
            <Time>2018-05-01T11:58:01.000Z</Time>
            <Position>
              <LatitudeDegrees>42.71501616574823856353759765625</LatitudeDegrees>
              <LongitudeDegrees>1.2600627355277538299560546875</LongitudeDegrees>
            </Position>
            <AltitudeMeters>2759</AltitudeMeters>
            <DistanceMeters>17685.266527843</DistanceMeters>
          </Trackpoint>
          <Trackpoint>
            <Time>2018-05-01T11:58:02.000Z</Time>
            <Position>
              <LatitudeDegrees>42.71500828675925731658935546875</LatitudeDegrees>
              <LongitudeDegrees>1.2600137852132320404052734375</LongitudeDegrees>
            </Position>
            <AltitudeMeters>2756.800048828125</AltitudeMeters>
            <DistanceMeters>17689.363711279</DistanceMeters>
          </Trackpoint>
          <Trackpoint>
            <Time>2018-05-01T11:58:03.000Z</Time>
            <Position>
              <LatitudeDegrees>42.71501448936760425567626953125</LatitudeDegrees>
              <LongitudeDegrees>1.2599628232419490814208984375</LongitudeDegrees>
            </Position>
            <AltitudeMeters>2754.199951171875</AltitudeMeters>
            <DistanceMeters>17693.587859838</DistanceMeters>
          </Trackpoint>
          <Trackpoint>
            <Time>2018-05-01T11:58:04.000Z</Time>
            <Position>
              <LatitudeDegrees>42.71502077579498291015625</LatitudeDegrees>
              <LongitudeDegrees>1.2599135376513004302978515625</LongitudeDegrees>
            </Position>
            <AltitudeMeters>2752.199951171875</AltitudeMeters>
            <DistanceMeters>17697.678426015</DistanceMeters>
          </Trackpoint>
          <Trackpoint>
            <Time>2018-05-01T11:58:05.000Z</Time>
            <Position>
              <LatitudeDegrees>42.7150058560073375701904296875</LatitudeDegrees>
              <LongitudeDegrees>1.25986634753644466400146484375</LongitudeDegrees>
            </Position>
            <AltitudeMeters>2750</AltitudeMeters>
            <DistanceMeters>17701.878993759</DistanceMeters>
          </Trackpoint>
          <Trackpoint>
            <Time>2018-05-01T11:58:06.000Z</Time>
            <Position>
              <LatitudeDegrees>42.71500308997929096221923828125</LatitudeDegrees>
              <LongitudeDegrees>1.259811110794544219970703125</LongitudeDegrees>
            </Position>
            <AltitudeMeters>2748</AltitudeMeters>
            <DistanceMeters>17706.406495668</DistanceMeters>
          </Trackpoint>
          <Trackpoint>
            <Time>2018-05-01T11:58:07.000Z</Time>
            <Position>
              <LatitudeDegrees>42.7150182612240314483642578125</LatitudeDegrees>
              <LongitudeDegrees>1.25974841415882110595703125</LongitudeDegrees>
            </Position>
            <AltitudeMeters>2745.60009765625</AltitudeMeters>
            <DistanceMeters>17711.804648748</DistanceMeters>
          </Trackpoint>
          <Trackpoint>
            <Time>2018-05-01T11:58:08.000Z</Time>
            <Position>
              <LatitudeDegrees>42.71503494121134281158447265625</LatitudeDegrees>
              <LongitudeDegrees>1.25969736836850643157958984375</LongitudeDegrees>
            </Position>
            <AltitudeMeters>2743.60009765625</AltitudeMeters>
            <DistanceMeters>17716.373843069</DistanceMeters>
          </Trackpoint>
          <Trackpoint>
            <Time>2018-05-01T11:58:10.000Z</Time>
            <Position>
              <LatitudeDegrees>42.71501717157661914825439453125</LatitudeDegrees>
              <LongitudeDegrees>1.2596218474209308624267578125</LongitudeDegrees>
            </Position>
            <AltitudeMeters>2740.39990234375</AltitudeMeters>
            <DistanceMeters>17722.859372814</DistanceMeters>
          </Trackpoint>
          <Trackpoint>
            <Time>2018-05-01T11:58:11.000Z</Time>
            <Position>
              <LatitudeDegrees>42.71500208415091037750244140625</LatitudeDegrees>
              <LongitudeDegrees>1.25958723016083240509033203125</LongitudeDegrees>
            </Position>
            <AltitudeMeters>2739</AltitudeMeters>
            <DistanceMeters>17726.151194761</DistanceMeters>
          </Trackpoint>
          <Trackpoint>
            <Time>2018-05-01T11:58:12.000Z</Time>
            <Position>
              <LatitudeDegrees>42.71500669419765472412109375</LatitudeDegrees>
              <LongitudeDegrees>1.25955261290073394775390625</LongitudeDegrees>
            </Position>
            <AltitudeMeters>2736</AltitudeMeters>
            <DistanceMeters>17729.027225016</DistanceMeters>
          </Trackpoint>
          <Trackpoint>
            <Time>2018-05-01T11:58:13.000Z</Time>
            <Position>
              <LatitudeDegrees>42.71500937640666961669921875</LatitudeDegrees>
              <LongitudeDegrees>1.25952444970607757568359375</LongitudeDegrees>
            </Position>
            <AltitudeMeters>2734</AltitudeMeters>
            <DistanceMeters>17731.347122763</DistanceMeters>
          </Trackpoint>
          <Trackpoint>
            <Time>2018-05-01T11:58:17.000Z</Time>
            <Position>
              <LatitudeDegrees>42.7150246314704418182373046875</LatitudeDegrees>
              <LongitudeDegrees>1.25949905253946781158447265625</LongitudeDegrees>
            </Position>
            <AltitudeMeters>2730.60009765625</AltitudeMeters>
            <DistanceMeters>17734.031522324</DistanceMeters>
          </Trackpoint>
          <Trackpoint>
            <Time>2018-05-01T11:58:19.000Z</Time>
            <Position>
              <LatitudeDegrees>42.715045921504497528076171875</LatitudeDegrees>
              <LongitudeDegrees>1.25946518965065479278564453125</LongitudeDegrees>
            </Position>
            <AltitudeMeters>2729.800048828125</AltitudeMeters>
            <DistanceMeters>17737.674901576</DistanceMeters>
          </Trackpoint>
          <Trackpoint>
            <Time>2018-05-01T11:58:20.000Z</Time>
            <Position>
              <LatitudeDegrees>42.71502588875591754913330078125</LatitudeDegrees>
              <LongitudeDegrees>1.25941305421292781829833984375</LongitudeDegrees>
            </Position>
            <AltitudeMeters>2729</AltitudeMeters>
            <DistanceMeters>17742.486670066</DistanceMeters>
          </Trackpoint>
          <Trackpoint>
            <Time>2018-05-01T11:58:21.000Z</Time>
            <Position>
              <LatitudeDegrees>42.715003006160259246826171875</LatitudeDegrees>
              <LongitudeDegrees>1.25938153825700283050537109375</LongitudeDegrees>
            </Position>
            <AltitudeMeters>2727.800048828125</AltitudeMeters>
            <DistanceMeters>17746.111412985</DistanceMeters>
          </Trackpoint>
          <Trackpoint>
            <Time>2018-05-01T11:58:22.000Z</Time>
            <Position>
              <LatitudeDegrees>42.71499319933354854583740234375</LatitudeDegrees>
              <LongitudeDegrees>1.25933627597987651824951171875</LongitudeDegrees>
            </Position>
            <AltitudeMeters>2725.39990234375</AltitudeMeters>
            <DistanceMeters>17749.97141637</DistanceMeters>
          </Trackpoint>
          <Trackpoint>
            <Time>2018-05-01T11:58:23.000Z</Time>
            <Position>
              <LatitudeDegrees>42.7149890922009944915771484375</LatitudeDegrees>
              <LongitudeDegrees>1.25927693210542201995849609375</LongitudeDegrees>
            </Position>
            <AltitudeMeters>2723.39990234375</AltitudeMeters>
            <DistanceMeters>17754.846573926</DistanceMeters>
          </Trackpoint>
          <Trackpoint>
            <Time>2018-05-01T11:58:24.000Z</Time>
            <Position>
              <LatitudeDegrees>42.7149803750216960906982421875</LatitudeDegrees>
              <LongitudeDegrees>1.25920283608138561248779296875</LongitudeDegrees>
            </Position>
            <AltitudeMeters>2720.60009765625</AltitudeMeters>
            <DistanceMeters>17760.982975052</DistanceMeters>
          </Trackpoint>
          <Trackpoint>
            <Time>2018-05-01T11:58:25.000Z</Time>
            <Position>
              <LatitudeDegrees>42.71498029120266437530517578125</LatitudeDegrees>
              <LongitudeDegrees>1.25913561321794986724853515625</LongitudeDegrees>
            </Position>
            <AltitudeMeters>2717.39990234375</AltitudeMeters>
            <DistanceMeters>17766.479759183</DistanceMeters>
          </Trackpoint>
          <Trackpoint>
            <Time>2018-05-01T11:58:26.000Z</Time>
            <Position>
              <LatitudeDegrees>42.7149780280888080596923828125</LatitudeDegrees>
              <LongitudeDegrees>1.25906310975551605224609375</LongitudeDegrees>
            </Position>
            <AltitudeMeters>2713.800048828125</AltitudeMeters>
            <DistanceMeters>17772.414175593</DistanceMeters>
          </Trackpoint>
          <Trackpoint>
            <Time>2018-05-01T11:58:27.000Z</Time>
            <Position>
              <LatitudeDegrees>42.71494927816092967987060546875</LatitudeDegrees>
              <LongitudeDegrees>1.25901214778423309326171875</LongitudeDegrees>
            </Position>
            <AltitudeMeters>2710.39990234375</AltitudeMeters>
            <DistanceMeters>17777.668216294</DistanceMeters>
          </Trackpoint>
          <Trackpoint>
            <Time>2018-05-01T11:58:28.000Z</Time>
            <Position>
              <LatitudeDegrees>42.714936621487140655517578125</LatitudeDegrees>
              <LongitudeDegrees>1.2589466013014316558837890625</LongitudeDegrees>
            </Position>
            <AltitudeMeters>2707.60009765625</AltitudeMeters>
            <DistanceMeters>17783.210807751</DistanceMeters>
          </Trackpoint>
          <Trackpoint>
            <Time>2018-05-01T11:58:29.000Z</Time>
            <Position>
              <LatitudeDegrees>42.7149441651999950408935546875</LatitudeDegrees>
              <LongitudeDegrees>1.25889035873115062713623046875</LongitudeDegrees>
            </Position>
            <AltitudeMeters>2704.199951171875</AltitudeMeters>
            <DistanceMeters>17787.887435291</DistanceMeters>
          </Trackpoint>
          <Trackpoint>
            <Time>2018-05-01T11:58:30.000Z</Time>
            <Position>
              <LatitudeDegrees>42.7149615995585918426513671875</LatitudeDegrees>
              <LongitudeDegrees>1.25883235596120357513427734375</LongitudeDegrees>
            </Position>
            <AltitudeMeters>2702</AltitudeMeters>
            <DistanceMeters>17793.011834017</DistanceMeters>
          </Trackpoint>
          <Trackpoint>
            <Time>2018-05-01T11:58:31.000Z</Time>
            <Position>
              <LatitudeDegrees>42.71497744135558605194091796875</LatitudeDegrees>
              <LongitudeDegrees>1.2588091380894184112548828125</LongitudeDegrees>
            </Position>
            <AltitudeMeters>2700.60009765625</AltitudeMeters>
            <DistanceMeters>17795.60381721</DistanceMeters>
          </Trackpoint>
          <Trackpoint>
            <Time>2018-05-01T11:58:34.000Z</Time>
            <Position>
              <LatitudeDegrees>42.71496905945241451263427734375</LatitudeDegrees>
              <LongitudeDegrees>1.25879715196788311004638671875</LongitudeDegrees>
            </Position>
            <AltitudeMeters>2699</AltitudeMeters>
            <DistanceMeters>17796.954400581</DistanceMeters>
          </Trackpoint>
          <Trackpoint>
            <Time>2018-05-01T11:58:41.000Z</Time>
            <Position>
              <LatitudeDegrees>42.7149448357522487640380859375</LatitudeDegrees>
              <LongitudeDegrees>1.2587459385395050048828125</LongitudeDegrees>
            </Position>
            <AltitudeMeters>2698.39990234375</AltitudeMeters>
            <DistanceMeters>17801.934924649</DistanceMeters>
          </Trackpoint>
          <Trackpoint>
            <Time>2018-05-01T11:58:42.000Z</Time>
            <Position>
              <LatitudeDegrees>42.71490938030183315277099609375</LatitudeDegrees>
              <LongitudeDegrees>1.25870905816555023193359375</LongitudeDegrees>
            </Position>
            <AltitudeMeters>2697</AltitudeMeters>
            <DistanceMeters>17806.901832021</DistanceMeters>
          </Trackpoint>
          <Trackpoint>
            <Time>2018-05-01T11:58:43.000Z</Time>
            <Position>
              <LatitudeDegrees>42.714885659515857696533203125</LatitudeDegrees>
              <LongitudeDegrees>1.258659772574901580810546875</LongitudeDegrees>
            </Position>
            <AltitudeMeters>2695</AltitudeMeters>
            <DistanceMeters>17811.721101324</DistanceMeters>
          </Trackpoint>
          <Trackpoint>
            <Time>2018-05-01T11:58:44.000Z</Time>
            <Position>
              <LatitudeDegrees>42.714897058904170989990234375</LatitudeDegrees>
              <LongitudeDegrees>1.2586183659732341766357421875</LongitudeDegrees>
            </Position>
            <AltitudeMeters>2693.39990234375</AltitudeMeters>
            <DistanceMeters>17815.338362825</DistanceMeters>
          </Trackpoint>
          <Trackpoint>
            <Time>2018-05-01T11:58:45.000Z</Time>
            <Position>
              <LatitudeDegrees>42.7149103023111820220947265625</LatitudeDegrees>
              <LongitudeDegrees>1.25857251696288585662841796875</LongitudeDegrees>
            </Position>
            <AltitudeMeters>2690.60009765625</AltitudeMeters>
            <DistanceMeters>17819.367764449</DistanceMeters>
          </Trackpoint>
          <Trackpoint>
            <Time>2018-05-01T11:58:46.000Z</Time>
            <Position>
              <LatitudeDegrees>42.71491373889148235321044921875</LatitudeDegrees>
              <LongitudeDegrees>1.258527003228664398193359375</LongitudeDegrees>
            </Position>
            <AltitudeMeters>2688.800048828125</AltitudeMeters>
            <DistanceMeters>17823.108969935</DistanceMeters>
          </Trackpoint>
          <Trackpoint>
            <Time>2018-05-01T11:58:47.000Z</Time>
            <Position>
              <LatitudeDegrees>42.71493159234523773193359375</LatitudeDegrees>
              <LongitudeDegrees>1.25847981311380863189697265625</LongitudeDegrees>
            </Position>
            <AltitudeMeters>2686.199951171875</AltitudeMeters>
            <DistanceMeters>17827.449101207</DistanceMeters>
          </Trackpoint>
          <Trackpoint>
            <Time>2018-05-01T11:58:48.000Z</Time>
            <Position>
              <LatitudeDegrees>42.71495732478797435760498046875</LatitudeDegrees>
              <LongitudeDegrees>1.25841200351715087890625</LongitudeDegrees>
            </Position>
            <AltitudeMeters>2684</AltitudeMeters>
            <DistanceMeters>17833.68983191</DistanceMeters>
          </Trackpoint>
          <Trackpoint>
            <Time>2018-05-01T11:58:49.000Z</Time>
            <Position>
              <LatitudeDegrees>42.71497291512787342071533203125</LatitudeDegrees>
              <LongitudeDegrees>1.25834134407341480255126953125</LongitudeDegrees>
            </Position>
            <AltitudeMeters>2681.39990234375</AltitudeMeters>
            <DistanceMeters>17839.722344494</DistanceMeters>
          </Trackpoint>
          <Trackpoint>
            <Time>2018-05-01T11:58:50.000Z</Time>
            <Position>
              <LatitudeDegrees>42.7149505354464054107666015625</LatitudeDegrees>
              <LongitudeDegrees>1.25827915035188198089599609375</LongitudeDegrees>
            </Position>
            <AltitudeMeters>2679.199951171875</AltitudeMeters>
            <DistanceMeters>17845.384214448</DistanceMeters>
          </Trackpoint>
          <Trackpoint>
            <Time>2018-05-01T11:58:51.000Z</Time>
            <Position>
              <LatitudeDegrees>42.7149314247071743011474609375</LatitudeDegrees>
              <LongitudeDegrees>1.2582150287926197052001953125</LongitudeDegrees>
            </Position>
            <AltitudeMeters>2676.800048828125</AltitudeMeters>
            <DistanceMeters>17851.042893717</DistanceMeters>
          </Trackpoint>
          <Trackpoint>
            <Time>2018-05-01T11:58:52.000Z</Time>
            <Position>
              <LatitudeDegrees>42.7149351127445697784423828125</LatitudeDegrees>
              <LongitudeDegrees>1.25815912149846553802490234375</LongitudeDegrees>
            </Position>
            <AltitudeMeters>2674.60009765625</AltitudeMeters>
            <DistanceMeters>17855.633775813</DistanceMeters>
          </Trackpoint>
          <Trackpoint>
            <Time>2018-05-01T11:58:53.000Z</Time>
            <Position>
              <LatitudeDegrees>42.71493217907845973968505859375</LatitudeDegrees>
              <LongitudeDegrees>1.2581184692680835723876953125</LongitudeDegrees>
            </Position>
            <AltitudeMeters>2672</AltitudeMeters>
            <DistanceMeters>17858.974610212</DistanceMeters>
          </Trackpoint>
          <Trackpoint>
            <Time>2018-05-01T11:58:55.000Z</Time>
            <Position>
              <LatitudeDegrees>42.7149121463298797607421875</LatitudeDegrees>
              <LongitudeDegrees>1.2581033818423748016357421875</LongitudeDegrees>
            </Position>
            <AltitudeMeters>2669.199951171875</AltitudeMeters>
            <DistanceMeters>17861.520900629</DistanceMeters>
          </Trackpoint>
          <Trackpoint>
            <Time>2018-05-01T11:59:21.000Z</Time>
            <Position>
              <LatitudeDegrees>42.7148499526083469390869140625</LatitudeDegrees>
              <LongitudeDegrees>1.258084774017333984375</LongitudeDegrees>
            </Position>
            <AltitudeMeters>2667</AltitudeMeters>
            <DistanceMeters>17868.608517666</DistanceMeters>
          </Trackpoint>
          <Trackpoint>
            <Time>2018-05-01T11:59:22.000Z</Time>
            <Position>
              <LatitudeDegrees>42.71484886296093463897705078125</LatitudeDegrees>
              <LongitudeDegrees>1.2580239214003086090087890625</LongitudeDegrees>
            </Position>
            <AltitudeMeters>2666.39990234375</AltitudeMeters>
            <DistanceMeters>17873.586321374</DistanceMeters>
          </Trackpoint>
          <Trackpoint>
            <Time>2018-05-01T11:59:23.000Z</Time>
            <Position>
              <LatitudeDegrees>42.714827321469783782958984375</LatitudeDegrees>
              <LongitudeDegrees>1.257958710193634033203125</LongitudeDegrees>
            </Position>
            <AltitudeMeters>2664.800048828125</AltitudeMeters>
            <DistanceMeters>17879.432588503</DistanceMeters>
          </Trackpoint>
          <Trackpoint>
            <Time>2018-05-01T11:59:24.000Z</Time>
            <Position>
              <LatitudeDegrees>42.71480577997863292694091796875</LatitudeDegrees>
              <LongitudeDegrees>1.25788821838796138763427734375</LongitudeDegrees>
            </Position>
            <AltitudeMeters>2662.60009765625</AltitudeMeters>
            <DistanceMeters>17885.675489266</DistanceMeters>
          </Trackpoint>
          <Trackpoint>
            <Time>2018-05-01T11:59:25.000Z</Time>
            <Position>
              <LatitudeDegrees>42.714806534349918365478515625</LatitudeDegrees>
              <LongitudeDegrees>1.257821582257747650146484375</LongitudeDegrees>
            </Position>
            <AltitudeMeters>2660.199951171875</AltitudeMeters>
            <DistanceMeters>17891.126081114</DistanceMeters>
          </Trackpoint>
          <Trackpoint>
            <Time>2018-05-01T11:59:26.000Z</Time>
            <Position>
              <LatitudeDegrees>42.7147926203906536102294921875</LatitudeDegrees>
              <LongitudeDegrees>1.25775410793721675872802734375</LongitudeDegrees>
            </Position>
            <AltitudeMeters>2657.60009765625</AltitudeMeters>
            <DistanceMeters>17896.85690898</DistanceMeters>
          </Trackpoint>
          <Trackpoint>
            <Time>2018-05-01T11:59:27.000Z</Time>
            <Position>
              <LatitudeDegrees>42.7147661335766315460205078125</LatitudeDegrees>
              <LongitudeDegrees>1.2576919980347156524658203125</LongitudeDegrees>
            </Position>
            <AltitudeMeters>2654.60009765625</AltitudeMeters>
            <DistanceMeters>17902.729375407</DistanceMeters>
          </Trackpoint>
          <Trackpoint>
            <Time>2018-05-01T11:59:28.000Z</Time>
            <Position>
              <LatitudeDegrees>42.71475783549249172210693359375</LatitudeDegrees>
              <LongitudeDegrees>1.2576329894363880157470703125</LongitudeDegrees>
            </Position>
            <AltitudeMeters>2652</AltitudeMeters>
            <DistanceMeters>17907.642357631</DistanceMeters>
          </Trackpoint>
          <Trackpoint>
            <Time>2018-05-01T11:59:29.000Z</Time>
            <Position>
              <LatitudeDegrees>42.71475699730217456817626953125</LatitudeDegrees>
              <LongitudeDegrees>1.257587559521198272705078125</LongitudeDegrees>
            </Position>
            <AltitudeMeters>2649.60009765625</AltitudeMeters>
            <DistanceMeters>17911.359347941</DistanceMeters>
          </Trackpoint>
          <Trackpoint>
            <Time>2018-05-01T11:59:30.000Z</Time>
            <Position>
              <LatitudeDegrees>42.71473470143973827362060546875</LatitudeDegrees>
              <LongitudeDegrees>1.25756316818296909332275390625</LongitudeDegrees>
            </Position>
            <AltitudeMeters>2647.39990234375</AltitudeMeters>
            <DistanceMeters>17914.543806426</DistanceMeters>
          </Trackpoint>
          <Trackpoint>
            <Time>2018-05-01T11:59:31.000Z</Time>
            <Position>
              <LatitudeDegrees>42.7147134952247142791748046875</LatitudeDegrees>
              <LongitudeDegrees>1.257556043565273284912109375</LongitudeDegrees>
            </Position>
            <AltitudeMeters>2645.39990234375</AltitudeMeters>
            <DistanceMeters>17916.973964856</DistanceMeters>
          </Trackpoint>
          <Trackpoint>
            <Time>2018-05-01T11:59:32.000Z</Time>
            <Position>
              <LatitudeDegrees>42.71469312720000743865966796875</LatitudeDegrees>
              <LongitudeDegrees>1.257552020251750946044921875</LongitudeDegrees>
            </Position>
            <AltitudeMeters>2644</AltitudeMeters>
            <DistanceMeters>17919.264483229</DistanceMeters>
          </Trackpoint>
          <Trackpoint>
            <Time>2018-05-01T11:59:37.000Z</Time>
            <Position>
              <LatitudeDegrees>42.7145817317068576812744140625</LatitudeDegrees>
              <LongitudeDegrees>1.2575743161141872406005859375</LongitudeDegrees>
            </Position>
            <AltitudeMeters>2640.800048828125</AltitudeMeters>
            <DistanceMeters>17931.796485842</DistanceMeters>
          </Trackpoint>
          <Trackpoint>
            <Time>2018-05-01T11:59:42.000Z</Time>
            <Position>
              <LatitudeDegrees>42.714524567127227783203125</LatitudeDegrees>
              <LongitudeDegrees>1.2576229311525821685791015625</LongitudeDegrees>
            </Position>
            <AltitudeMeters>2637.800048828125</AltitudeMeters>
            <DistanceMeters>17939.298783256</DistanceMeters>
          </Trackpoint>
          <Trackpoint>
            <Time>2018-05-01T12:00:27.000Z</Time>
            <Position>
              <LatitudeDegrees>42.7144945599138736724853515625</LatitudeDegrees>
              <LongitudeDegrees>1.25765536911785602569580078125</LongitudeDegrees>
            </Position>
            <AltitudeMeters>2637.800048828125</AltitudeMeters>
            <DistanceMeters>17943.564413811</DistanceMeters>
          </Trackpoint>
          <Trackpoint>
            <Time>2018-05-01T12:00:28.000Z</Time>
            <Position>
              <LatitudeDegrees>42.71449841558933258056640625</LatitudeDegrees>
              <LongitudeDegrees>1.25762276351451873779296875</LongitudeDegrees>
            </Position>
            <AltitudeMeters>2637.199951171875</AltitudeMeters>
            <DistanceMeters>17946.265580553</DistanceMeters>
          </Trackpoint>
          <Trackpoint>
            <Time>2018-05-01T12:00:29.000Z</Time>
            <Position>
              <LatitudeDegrees>42.7145190350711345672607421875</LatitudeDegrees>
              <LongitudeDegrees>1.257572472095489501953125</LongitudeDegrees>
            </Position>
            <AltitudeMeters>2636.199951171875</AltitudeMeters>
            <DistanceMeters>17950.974918908</DistanceMeters>
          </Trackpoint>
          <Trackpoint>
            <Time>2018-05-01T12:00:32.000Z</Time>
            <Position>
              <LatitudeDegrees>42.71452163346111774444580078125</LatitudeDegrees>
              <LongitudeDegrees>1.2574157305061817169189453125</LongitudeDegrees>
            </Position>
            <AltitudeMeters>2633.39990234375</AltitudeMeters>
            <DistanceMeters>17963.796132251</DistanceMeters>
          </Trackpoint>
          <Trackpoint>
            <Time>2018-05-01T12:00:33.000Z</Time>
            <Position>
              <LatitudeDegrees>42.7145005948841571807861328125</LatitudeDegrees>
              <LongitudeDegrees>1.25736585818231105804443359375</LongitudeDegrees>
            </Position>
            <AltitudeMeters>2631.199951171875</AltitudeMeters>
            <DistanceMeters>17968.49971464</DistanceMeters>
          </Trackpoint>
          <Trackpoint>
            <Time>2018-05-01T12:00:35.000Z</Time>
            <Position>
              <LatitudeDegrees>42.71445927210152149200439453125</LatitudeDegrees>
              <LongitudeDegrees>1.2572628445923328399658203125</LongitudeDegrees>
            </Position>
            <AltitudeMeters>2627.800048828125</AltitudeMeters>
            <DistanceMeters>17978.097883209</DistanceMeters>
          </Trackpoint>
          <Trackpoint>
            <Time>2018-05-01T12:00:36.000Z</Time>
            <Position>
              <LatitudeDegrees>42.71443043835461139678955078125</LatitudeDegrees>
              <LongitudeDegrees>1.257208026945590972900390625</LongitudeDegrees>
            </Position>
            <AltitudeMeters>2625.199951171875</AltitudeMeters>
            <DistanceMeters>17983.611070791</DistanceMeters>
          </Trackpoint>
          <Trackpoint>
            <Time>2018-05-01T12:00:37.000Z</Time>
            <Position>
              <LatitudeDegrees>42.71441954188048839569091796875</LatitudeDegrees>
              <LongitudeDegrees>1.2571428157389163970947265625</LongitudeDegrees>
            </Position>
            <AltitudeMeters>2623</AltitudeMeters>
            <DistanceMeters>17989.079856139</DistanceMeters>
          </Trackpoint>
          <Trackpoint>
            <Time>2018-05-01T12:00:38.000Z</Time>
            <Position>
              <LatitudeDegrees>42.7143906243145465850830078125</LatitudeDegrees>
              <LongitudeDegrees>1.2570985592901706695556640625</LongitudeDegrees>
            </Position>
            <AltitudeMeters>2620.800048828125</AltitudeMeters>
            <DistanceMeters>17993.923422862</DistanceMeters>
          </Trackpoint>
          <Trackpoint>
            <Time>2018-05-01T12:00:39.000Z</Time>
            <Position>
              <LatitudeDegrees>42.71435667760670185089111328125</LatitudeDegrees>
              <LongitudeDegrees>1.2570454180240631103515625</LongitudeDegrees>
            </Position>
            <AltitudeMeters>2618.199951171875</AltitudeMeters>
            <DistanceMeters>17999.681759488</DistanceMeters>
          </Trackpoint>
          <Trackpoint>
            <Time>2018-05-01T12:00:40.000Z</Time>
            <Position>
              <LatitudeDegrees>42.7143436856567859649658203125</LatitudeDegrees>
              <LongitudeDegrees>1.25699236057698726654052734375</LongitudeDegrees>
            </Position>
            <AltitudeMeters>2615.60009765625</AltitudeMeters>
            <DistanceMeters>18004.254904691</DistanceMeters>
          </Trackpoint>
          <Trackpoint>
            <Time>2018-05-01T12:00:41.000Z</Time>
            <Position>
              <LatitudeDegrees>42.7143423445522785186767578125</LatitudeDegrees>
              <LongitudeDegrees>1.256953887641429901123046875</LongitudeDegrees>
            </Position>
            <AltitudeMeters>2613.60009765625</AltitudeMeters>
            <DistanceMeters>18007.40371779</DistanceMeters>
          </Trackpoint>
          <Trackpoint>
            <Time>2018-05-01T12:00:42.000Z</Time>
            <Position>
              <LatitudeDegrees>42.7143436856567859649658203125</LatitudeDegrees>
              <LongitudeDegrees>1.25693134032189846038818359375</LongitudeDegrees>
            </Position>
            <AltitudeMeters>2612.39990234375</AltitudeMeters>
            <DistanceMeters>18009.251248276</DistanceMeters>
          </Trackpoint>
          <Trackpoint>
            <Time>2018-05-01T12:00:46.000Z</Time>
            <Position>
              <LatitudeDegrees>42.71434896625578403472900390625</LatitudeDegrees>
              <LongitudeDegrees>1.25688239000737667083740234375</LongitudeDegrees>
            </Position>
            <AltitudeMeters>2610.39990234375</AltitudeMeters>
            <DistanceMeters>18013.296306806</DistanceMeters>
          </Trackpoint>
          <Trackpoint>
            <Time>2018-05-01T12:00:55.000Z</Time>
            <Position>
              <LatitudeDegrees>42.71434695459902286529541015625</LatitudeDegrees>
              <LongitudeDegrees>1.25692404806613922119140625</LongitudeDegrees>
            </Position>
            <AltitudeMeters>2610.199951171875</AltitudeMeters>
            <DistanceMeters>18016.710663069</DistanceMeters>
          </Trackpoint>
          <Trackpoint>
            <Time>2018-05-01T12:01:06.000Z</Time>
            <Position>
              <LatitudeDegrees>42.71431426517665386199951171875</LatitudeDegrees>
              <LongitudeDegrees>1.25685037113726139068603515625</LongitudeDegrees>
            </Position>
            <AltitudeMeters>2608.199951171875</AltitudeMeters>
            <DistanceMeters>18023.749057728</DistanceMeters>
          </Trackpoint>
          <Trackpoint>
            <Time>2018-05-01T12:01:10.000Z</Time>
            <Position>
              <LatitudeDegrees>42.71427872590720653533935546875</LatitudeDegrees>
              <LongitudeDegrees>1.25676973722875118255615234375</LongitudeDegrees>
            </Position>
            <AltitudeMeters>2605.60009765625</AltitudeMeters>
            <DistanceMeters>18031.43859221</DistanceMeters>
          </Trackpoint>
          <Trackpoint>
            <Time>2018-05-01T12:01:11.000Z</Time>
            <Position>
              <LatitudeDegrees>42.71426095627248287200927734375</LatitudeDegrees>
              <LongitudeDegrees>1.25677946023643016815185546875</LongitudeDegrees>
            </Position>
            <AltitudeMeters>2604.39990234375</AltitudeMeters>
            <DistanceMeters>18033.571936657</DistanceMeters>
          </Trackpoint>
          <Trackpoint>
            <Time>2018-05-01T12:01:12.000Z</Time>
            <Position>
              <LatitudeDegrees>42.71425525657832622528076171875</LatitudeDegrees>
              <LongitudeDegrees>1.2567961402237415313720703125</LongitudeDegrees>
            </Position>
            <AltitudeMeters>2603.60009765625</AltitudeMeters>
            <DistanceMeters>18035.080438982</DistanceMeters>
          </Trackpoint>
          <Trackpoint>
            <Time>2018-05-01T12:01:34.000Z</Time>
            <Position>
              <LatitudeDegrees>42.714249305427074432373046875</LatitudeDegrees>
              <LongitudeDegrees>1.25685355626046657562255859375</LongitudeDegrees>
            </Position>
            <AltitudeMeters>2601.199951171875</AltitudeMeters>
            <DistanceMeters>18039.824166472</DistanceMeters>
          </Trackpoint>
          <Trackpoint>
            <Time>2018-05-01T12:01:35.000Z</Time>
            <Position>
              <LatitudeDegrees>42.7142335474491119384765625</LatitudeDegrees>
              <LongitudeDegrees>1.25686378218233585357666015625</LongitudeDegrees>
            </Position>
            <AltitudeMeters>2601</AltitudeMeters>
            <DistanceMeters>18041.766992237</DistanceMeters>
          </Trackpoint>
          <Trackpoint>
            <Time>2018-05-01T12:01:36.000Z</Time>
            <Position>
              <LatitudeDegrees>42.71421988494694232940673828125</LatitudeDegrees>
              <LongitudeDegrees>1.2568484432995319366455078125</LongitudeDegrees>
            </Position>
            <AltitudeMeters>2600.199951171875</AltitudeMeters>
            <DistanceMeters>18043.737508126</DistanceMeters>
          </Trackpoint>
          <Trackpoint>
            <Time>2018-05-01T12:01:37.000Z</Time>
            <Position>
              <LatitudeDegrees>42.714213766157627105712890625</LatitudeDegrees>
              <LongitudeDegrees>1.2568152509629726409912109375</LongitudeDegrees>
            </Position>
            <AltitudeMeters>2598.800048828125</AltitudeMeters>
            <DistanceMeters>18046.535556781</DistanceMeters>
          </Trackpoint>
          <Trackpoint>
            <Time>2018-05-01T12:01:38.000Z</Time>
            <Position>
              <LatitudeDegrees>42.71420764736831188201904296875</LatitudeDegrees>
              <LongitudeDegrees>1.25678532756865024566650390625</LongitudeDegrees>
            </Position>
            <AltitudeMeters>2597.60009765625</AltitudeMeters>
            <DistanceMeters>18049.074744561</DistanceMeters>
          </Trackpoint>
          <Trackpoint>
            <Time>2018-05-01T12:01:39.000Z</Time>
            <Position>
              <LatitudeDegrees>42.71419960074126720428466796875</LatitudeDegrees>
              <LongitudeDegrees>1.25676445662975311279296875</LongitudeDegrees>
            </Position>
            <AltitudeMeters>2596.60009765625</AltitudeMeters>
            <DistanceMeters>18051.003576201</DistanceMeters>
          </Trackpoint>
          <Trackpoint>
            <Time>2018-05-01T12:01:40.000Z</Time>
            <Position>
              <LatitudeDegrees>42.714180238544940948486328125</LatitudeDegrees>
              <LongitudeDegrees>1.2567512132227420806884765625</LongitudeDegrees>
            </Position>
            <AltitudeMeters>2595.199951171875</AltitudeMeters>
            <DistanceMeters>18053.415083868</DistanceMeters>
          </Trackpoint>
          <Trackpoint>
            <Time>2018-05-01T12:01:41.000Z</Time>
            <Position>
              <LatitudeDegrees>42.7141584455966949462890625</LatitudeDegrees>
              <LongitudeDegrees>1.25674903392791748046875</LongitudeDegrees>
            </Position>
            <AltitudeMeters>2594.199951171875</AltitudeMeters>
            <DistanceMeters>18055.847099508</DistanceMeters>
          </Trackpoint>
          <Trackpoint>
            <Time>2018-05-01T12:01:42.000Z</Time>
            <Position>
              <LatitudeDegrees>42.71414629183709621429443359375</LatitudeDegrees>
              <LongitudeDegrees>1.256752051413059234619140625</LongitudeDegrees>
            </Position>
            <AltitudeMeters>2593</AltitudeMeters>
            <DistanceMeters>18057.220884781</DistanceMeters>
          </Trackpoint>
          <Trackpoint>
            <Time>2018-05-01T12:01:45.000Z</Time>
            <Position>
              <LatitudeDegrees>42.714131288230419158935546875</LatitudeDegrees>
              <LongitudeDegrees>1.25677250325679779052734375</LongitudeDegrees>
            </Position>
            <AltitudeMeters>2591</AltitudeMeters>
            <DistanceMeters>18059.585121935</DistanceMeters>
          </Trackpoint>
          <Trackpoint>
            <Time>2018-05-01T12:01:46.000Z</Time>
            <Position>
              <LatitudeDegrees>42.71412349306046962738037109375</LatitudeDegrees>
              <LongitudeDegrees>1.2567934580147266387939453125</LongitudeDegrees>
            </Position>
            <AltitudeMeters>2590.199951171875</AltitudeMeters>
            <DistanceMeters>18061.506918299</DistanceMeters>
          </Trackpoint>
          <Trackpoint>
            <Time>2018-05-01T12:01:49.000Z</Time>
            <Position>
              <LatitudeDegrees>42.71411963738501071929931640625</LatitudeDegrees>
              <LongitudeDegrees>1.2568061985075473785400390625</LongitudeDegrees>
            </Position>
            <AltitudeMeters>2588.800048828125</AltitudeMeters>
            <DistanceMeters>18062.631289546</DistanceMeters>
          </Trackpoint>
          <Trackpoint>
            <Time>2018-05-01T12:02:10.000Z</Time>
            <Position>
              <LatitudeDegrees>42.71410739980638027191162109375</LatitudeDegrees>
              <LongitudeDegrees>1.25676671974360942840576171875</LongitudeDegrees>
            </Position>
            <AltitudeMeters>2587.39990234375</AltitudeMeters>
            <DistanceMeters>18066.134412994</DistanceMeters>
          </Trackpoint>
          <Trackpoint>
            <Time>2018-05-01T12:02:11.000Z</Time>
            <Position>
              <LatitudeDegrees>42.7140982635319232940673828125</LatitudeDegrees>
              <LongitudeDegrees>1.2567468546330928802490234375</LongitudeDegrees>
            </Position>
            <AltitudeMeters>2586.60009765625</AltitudeMeters>
            <DistanceMeters>18068.049148233</DistanceMeters>
          </Trackpoint>
          <Trackpoint>
            <Time>2018-05-01T12:02:12.000Z</Time>
            <Position>
              <LatitudeDegrees>42.71409206092357635498046875</LatitudeDegrees>
              <LongitudeDegrees>1.2567123211920261383056640625</LongitudeDegrees>
            </Position>
            <AltitudeMeters>2585.800048828125</AltitudeMeters>
            <DistanceMeters>18070.956406658</DistanceMeters>
          </Trackpoint>
          <Trackpoint>
            <Time>2018-05-01T12:02:13.000Z</Time>
            <Position>
              <LatitudeDegrees>42.7140734530985355377197265625</LatitudeDegrees>
              <LongitudeDegrees>1.2566781230270862579345703125</LongitudeDegrees>
            </Position>
            <AltitudeMeters>2584.800048828125</AltitudeMeters>
            <DistanceMeters>18074.43755052</DistanceMeters>
          </Trackpoint>
          <Trackpoint>
            <Time>2018-05-01T12:02:14.000Z</Time>
            <Position>
              <LatitudeDegrees>42.7140431106090545654296875</LatitudeDegrees>
              <LongitudeDegrees>1.2566814757883548736572265625</LongitudeDegrees>
            </Position>
            <AltitudeMeters>2583.60009765625</AltitudeMeters>
            <DistanceMeters>18077.825356176</DistanceMeters>
          </Trackpoint>
          <Trackpoint>
            <Time>2018-05-01T12:02:15.000Z</Time>
            <Position>
              <LatitudeDegrees>42.7140109241008758544921875</LatitudeDegrees>
              <LongitudeDegrees>1.25669681467115879058837890625</LongitudeDegrees>
            </Position>
            <AltitudeMeters>2582</AltitudeMeters>
            <DistanceMeters>18081.621670442</DistanceMeters>
          </Trackpoint>
          <Trackpoint>
            <Time>2018-05-01T12:02:16.000Z</Time>
            <Position>
              <LatitudeDegrees>42.713989131152629852294921875</LatitudeDegrees>
              <LongitudeDegrees>1.2566734291613101959228515625</LongitudeDegrees>
            </Position>
            <AltitudeMeters>2579.60009765625</AltitudeMeters>
            <DistanceMeters>18084.70967315</DistanceMeters>
          </Trackpoint>
          <Trackpoint>
            <Time>2018-05-01T12:02:17.000Z</Time>
            <Position>
              <LatitudeDegrees>42.7139752171933650970458984375</LatitudeDegrees>
              <LongitudeDegrees>1.2566363811492919921875</LongitudeDegrees>
            </Position>
            <AltitudeMeters>2577.60009765625</AltitudeMeters>
            <DistanceMeters>18088.112107279</DistanceMeters>
          </Trackpoint>
          <Trackpoint>
            <Time>2018-05-01T12:02:18.000Z</Time>
            <Position>
              <LatitudeDegrees>42.71395870484411716461181640625</LatitudeDegrees>
              <LongitudeDegrees>1.256617605686187744140625</LongitudeDegrees>
            </Position>
            <AltitudeMeters>2576.199951171875</AltitudeMeters>
            <DistanceMeters>18090.504818809</DistanceMeters>
          </Trackpoint>
          <Trackpoint>
            <Time>2018-05-01T12:02:19.000Z</Time>
            <Position>
              <LatitudeDegrees>42.713929116725921630859375</LatitudeDegrees>
              <LongitudeDegrees>1.256618611514568328857421875</LongitudeDegrees>
            </Position>
            <AltitudeMeters>2574.60009765625</AltitudeMeters>
            <DistanceMeters>18093.799382799</DistanceMeters>
          </Trackpoint>
          <Trackpoint>
            <Time>2018-05-01T12:02:20.000Z</Time>
            <Position>
              <LatitudeDegrees>42.7139081619679927825927734375</LatitudeDegrees>
              <LongitudeDegrees>1.2566432543098926544189453125</LongitudeDegrees>
            </Position>
            <AltitudeMeters>2572.800048828125</AltitudeMeters>
            <DistanceMeters>18096.881531468</DistanceMeters>
          </Trackpoint>
          <Trackpoint>
            <Time>2018-05-01T12:02:21.000Z</Time>
            <Position>
              <LatitudeDegrees>42.71389625966548919677734375</LatitudeDegrees>
              <LongitudeDegrees>1.25667518936097621917724609375</LongitudeDegrees>
            </Position>
            <AltitudeMeters>2571.39990234375</AltitudeMeters>
            <DistanceMeters>18099.808909569</DistanceMeters>
          </Trackpoint>
          <Trackpoint>
            <Time>2018-05-01T12:02:22.000Z</Time>
            <Position>
              <LatitudeDegrees>42.7138887159526348114013671875</LatitudeDegrees>
              <LongitudeDegrees>1.256703436374664306640625</LongitudeDegrees>
            </Position>
            <AltitudeMeters>2570.60009765625</AltitudeMeters>
            <DistanceMeters>18102.264941137</DistanceMeters>
          </Trackpoint>
          <Trackpoint>
            <Time>2018-05-01T12:02:23.000Z</Time>
            <Position>
              <LatitudeDegrees>42.71388393826782703399658203125</LatitudeDegrees>
              <LongitudeDegrees>1.256722547113895416259765625</LongitudeDegrees>
            </Position>
            <AltitudeMeters>2569.60009765625</AltitudeMeters>
            <DistanceMeters>18103.916329367</DistanceMeters>
          </Trackpoint>
          <Trackpoint>
            <Time>2018-05-01T12:02:24.000Z</Time>
            <Position>
              <LatitudeDegrees>42.71388393826782703399658203125</LatitudeDegrees>
              <LongitudeDegrees>1.2567300908267498016357421875</LongitudeDegrees>
            </Position>
            <AltitudeMeters>2568.800048828125</AltitudeMeters>
            <DistanceMeters>18104.532172862</DistanceMeters>
          </Trackpoint>
          <Trackpoint>
            <Time>2018-05-01T12:02:32.000Z</Time>
            <Position>
              <LatitudeDegrees>42.7138635702431201934814453125</LatitudeDegrees>
              <LongitudeDegrees>1.256733275949954986572265625</LongitudeDegrees>
            </Position>
            <AltitudeMeters>2568.39990234375</AltitudeMeters>
            <DistanceMeters>18106.814792872</DistanceMeters>
          </Trackpoint>
          <Trackpoint>
            <Time>2018-05-01T12:02:33.000Z</Time>
            <Position>
              <LatitudeDegrees>42.7138437889516353607177734375</LatitudeDegrees>
              <LongitudeDegrees>1.25673956237733364105224609375</LongitudeDegrees>
            </Position>
            <AltitudeMeters>2568.39990234375</AltitudeMeters>
            <DistanceMeters>18109.075550105</DistanceMeters>
          </Trackpoint>
          <Trackpoint>
            <Time>2018-05-01T12:02:34.000Z</Time>
            <Position>
              <LatitudeDegrees>42.713814787566661834716796875</LatitudeDegrees>
              <LongitudeDegrees>1.25674576498568058013916015625</LongitudeDegrees>
            </Position>
            <AltitudeMeters>2568</AltitudeMeters>
            <DistanceMeters>18112.345352929</DistanceMeters>
          </Trackpoint>
          <Trackpoint>
            <Time>2018-05-01T12:02:35.000Z</Time>
            <Position>
              <LatitudeDegrees>42.71377547644078731536865234375</LatitudeDegrees>
              <LongitudeDegrees>1.256691701710224151611328125</LongitudeDegrees>
            </Position>
            <AltitudeMeters>2566.39990234375</AltitudeMeters>
            <DistanceMeters>18118.566519029</DistanceMeters>
          </Trackpoint>
          <Trackpoint>
            <Time>2018-05-01T12:02:36.000Z</Time>
            <Position>
              <LatitudeDegrees>42.7137381769716739654541015625</LatitudeDegrees>
              <LongitudeDegrees>1.25665172003209590911865234375</LongitudeDegrees>
            </Position>
            <AltitudeMeters>2564.39990234375</AltitudeMeters>
            <DistanceMeters>18123.852259896</DistanceMeters>
          </Trackpoint>
          <Trackpoint>
            <Time>2018-05-01T12:02:37.000Z</Time>
            <Position>
              <LatitudeDegrees>42.71370087750256061553955078125</LatitudeDegrees>
              <LongitudeDegrees>1.25662498176097869873046875</LongitudeDegrees>
            </Position>
            <AltitudeMeters>2562</AltitudeMeters>
            <DistanceMeters>18128.545271344</DistanceMeters>
          </Trackpoint>
          <Trackpoint>
            <Time>2018-05-01T12:02:38.000Z</Time>
            <Position>
              <LatitudeDegrees>42.71367053501307964324951171875</LatitudeDegrees>
              <LongitudeDegrees>1.2566117383539676666259765625</LongitudeDegrees>
            </Position>
            <AltitudeMeters>2560</AltitudeMeters>
            <DistanceMeters>18132.093218153</DistanceMeters>
          </Trackpoint>
          <Trackpoint>
            <Time>2018-05-01T12:02:43.000Z</Time>
            <Position>
              <LatitudeDegrees>42.71370314061641693115234375</LatitudeDegrees>
              <LongitudeDegrees>1.256687007844448089599609375</LongitudeDegrees>
            </Position>
            <AltitudeMeters>2556.800048828125</AltitudeMeters>
            <DistanceMeters>18139.238569944</DistanceMeters>
          </Trackpoint>
          <Trackpoint>
            <Time>2018-05-01T12:02:47.000Z</Time>
            <Position>
              <LatitudeDegrees>42.71371655166149139404296875</LatitudeDegrees>
              <LongitudeDegrees>1.2566908635199069976806640625</LongitudeDegrees>
            </Position>
            <AltitudeMeters>2556.39990234375</AltitudeMeters>
            <DistanceMeters>18140.764924989</DistanceMeters>
          </Trackpoint>
          <Trackpoint>
            <Time>2018-05-01T12:03:16.000Z</Time>
            <Position>
              <LatitudeDegrees>42.7137083373963832855224609375</LatitudeDegrees>
              <LongitudeDegrees>1.25674425624310970306396484375</LongitudeDegrees>
            </Position>
            <AltitudeMeters>2556.60009765625</AltitudeMeters>
            <DistanceMeters>18145.226123088</DistanceMeters>
          </Trackpoint>
          <Trackpoint>
            <Time>2018-05-01T12:03:17.000Z</Time>
            <Position>
              <LatitudeDegrees>42.713684700429439544677734375</LatitudeDegrees>
              <LongitudeDegrees>1.25675917603075504302978515625</LongitudeDegrees>
            </Position>
            <AltitudeMeters>2556.39990234375</AltitudeMeters>
            <DistanceMeters>18148.127162772</DistanceMeters>
          </Trackpoint>
          <Trackpoint>
            <Time>2018-05-01T12:03:18.000Z</Time>
            <Position>
              <LatitudeDegrees>42.7136546932160854339599609375</LatitudeDegrees>
              <LongitudeDegrees>1.25678725540637969970703125</LongitudeDegrees>
            </Position>
            <AltitudeMeters>2556.199951171875</AltitudeMeters>
            <DistanceMeters>18152.181140957</DistanceMeters>
          </Trackpoint>
          <Trackpoint>
            <Time>2018-05-01T12:03:21.000Z</Time>
            <Position>
              <LatitudeDegrees>42.71355536766350269317626953125</LatitudeDegrees>
              <LongitudeDegrees>1.25686311163008213043212890625</LongitudeDegrees>
            </Position>
            <AltitudeMeters>2554.39990234375</AltitudeMeters>
            <DistanceMeters>18164.857861369</DistanceMeters>
          </Trackpoint>
          <Trackpoint>
            <Time>2018-05-01T12:03:22.000Z</Time>
            <Position>
              <LatitudeDegrees>42.71351848728954792022705078125</LatitudeDegrees>
              <LongitudeDegrees>1.2568668834865093231201171875</LongitudeDegrees>
            </Position>
            <AltitudeMeters>2553</AltitudeMeters>
            <DistanceMeters>18168.974832766</DistanceMeters>
          </Trackpoint>
          <Trackpoint>
            <Time>2018-05-01T12:03:23.000Z</Time>
            <Position>
              <LatitudeDegrees>42.71349350921809673309326171875</LatitudeDegrees>
              <LongitudeDegrees>1.25683846883475780487060546875</LongitudeDegrees>
            </Position>
            <AltitudeMeters>2551.60009765625</AltitudeMeters>
            <DistanceMeters>18172.598329855</DistanceMeters>
          </Trackpoint>
          <Trackpoint>
            <Time>2018-05-01T12:03:24.000Z</Time>
            <Position>
              <LatitudeDegrees>42.7134575508534908294677734375</LatitudeDegrees>
              <LongitudeDegrees>1.25680795870721340179443359375</LongitudeDegrees>
            </Position>
            <AltitudeMeters>2550</AltitudeMeters>
            <DistanceMeters>18177.315331907</DistanceMeters>
          </Trackpoint>
          <Trackpoint>
            <Time>2018-05-01T12:03:25.000Z</Time>
            <Position>
              <LatitudeDegrees>42.713410444557666778564453125</LatitudeDegrees>
              <LongitudeDegrees>1.25678549520671367645263671875</LongitudeDegrees>
            </Position>
            <AltitudeMeters>2547.39990234375</AltitudeMeters>
            <DistanceMeters>18182.8709418</DistanceMeters>
          </Trackpoint>
          <Trackpoint>
            <Time>2018-05-01T12:03:26.000Z</Time>
            <Position>
              <LatitudeDegrees>42.71337213926017284393310546875</LatitudeDegrees>
              <LongitudeDegrees>1.25675247050821781158447265625</LongitudeDegrees>
            </Position>
            <AltitudeMeters>2545.199951171875</AltitudeMeters>
            <DistanceMeters>18187.918998428</DistanceMeters>
          </Trackpoint>
          <Trackpoint>
            <Time>2018-05-01T12:03:27.000Z</Time>
            <Position>
              <LatitudeDegrees>42.7133309841156005859375</LatitudeDegrees>
              <LongitudeDegrees>1.25671458430588245391845703125</LongitudeDegrees>
            </Position>
            <AltitudeMeters>2542.800048828125</AltitudeMeters>
            <DistanceMeters>18193.44935727</DistanceMeters>
          </Trackpoint>
          <Trackpoint>
            <Time>2018-05-01T12:03:28.000Z</Time>
            <Position>
              <LatitudeDegrees>42.71328647620975971221923828125</LatitudeDegrees>
              <LongitudeDegrees>1.25667870976030826568603515625</LongitudeDegrees>
            </Position>
            <AltitudeMeters>2539.800048828125</AltitudeMeters>
            <DistanceMeters>18199.206125508</DistanceMeters>
          </Trackpoint>
          <Trackpoint>
            <Time>2018-05-01T12:03:29.000Z</Time>
            <Position>
              <LatitudeDegrees>42.71325051784515380859375</LatitudeDegrees>
              <LongitudeDegrees>1.25662221573293209075927734375</LongitudeDegrees>
            </Position>
            <AltitudeMeters>2537</AltitudeMeters>
            <DistanceMeters>18205.318936345</DistanceMeters>
          </Trackpoint>
          <Trackpoint>
            <Time>2018-05-01T12:03:30.000Z</Time>
            <Position>
              <LatitudeDegrees>42.713205926120281219482421875</LatitudeDegrees>
              <LongitudeDegrees>1.2565872631967067718505859375</LongitudeDegrees>
            </Position>
            <AltitudeMeters>2533.800048828125</AltitudeMeters>
            <DistanceMeters>18211.04661194</DistanceMeters>
          </Trackpoint>
          <Trackpoint>
            <Time>2018-05-01T12:03:31.000Z</Time>
            <Position>
              <LatitudeDegrees>42.71315689198672771453857421875</LatitudeDegrees>
              <LongitudeDegrees>1.2565477006137371063232421875</LongitudeDegrees>
            </Position>
            <AltitudeMeters>2530.39990234375</AltitudeMeters>
            <DistanceMeters>18217.391379925</DistanceMeters>
          </Trackpoint>
          <Trackpoint>
            <Time>2018-05-01T12:03:32.000Z</Time>
            <Position>
              <LatitudeDegrees>42.71311447955667972564697265625</LatitudeDegrees>
              <LongitudeDegrees>1.2564836628735065460205078125</LongitudeDegrees>
            </Position>
            <AltitudeMeters>2528</AltitudeMeters>
            <DistanceMeters>18224.441952301</DistanceMeters>
          </Trackpoint>
          <Trackpoint>
            <Time>2018-05-01T12:03:33.000Z</Time>
            <Position>
              <LatitudeDegrees>42.713064439594745635986328125</LatitudeDegrees>
              <LongitudeDegrees>1.25644217245280742645263671875</LongitudeDegrees>
            </Position>
            <AltitudeMeters>2525.199951171875</AltitudeMeters>
            <DistanceMeters>18230.963582469</DistanceMeters>
          </Trackpoint>
          <Trackpoint>
            <Time>2018-05-01T12:03:34.000Z</Time>
            <Position>
              <LatitudeDegrees>42.71301372908055782318115234375</LatitudeDegrees>
              <LongitudeDegrees>1.25640445388853549957275390625</LongitudeDegrees>
            </Position>
            <AltitudeMeters>2522</AltitudeMeters>
            <DistanceMeters>18237.395985617</DistanceMeters>
          </Trackpoint>
          <Trackpoint>
            <Time>2018-05-01T12:03:35.000Z</Time>
            <Position>
              <LatitudeDegrees>42.71297316066920757293701171875</LatitudeDegrees>
              <LongitudeDegrees>1.256358437240123748779296875</LongitudeDegrees>
            </Position>
            <AltitudeMeters>2519.39990234375</AltitudeMeters>
            <DistanceMeters>18243.273831522</DistanceMeters>
          </Trackpoint>
          <Trackpoint>
            <Time>2018-05-01T12:03:36.000Z</Time>
            <Position>
              <LatitudeDegrees>42.71292940713465213775634765625</LatitudeDegrees>
              <LongitudeDegrees>1.25633203424513339996337890625</LongitudeDegrees>
            </Position>
            <AltitudeMeters>2516.60009765625</AltitudeMeters>
            <DistanceMeters>18248.600415811</DistanceMeters>
          </Trackpoint>
          <Trackpoint>
            <Time>2018-05-01T12:03:37.000Z</Time>
            <Position>
              <LatitudeDegrees>42.71288816817104816436767578125</LatitudeDegrees>
              <LongitudeDegrees>1.25630102120339870452880859375</LongitudeDegrees>
            </Position>
            <AltitudeMeters>2514.199951171875</AltitudeMeters>
            <DistanceMeters>18253.844134221</DistanceMeters>
          </Trackpoint>
          <Trackpoint>
            <Time>2018-05-01T12:03:38.000Z</Time>
            <Position>
              <LatitudeDegrees>42.712851874530315399169921875</LatitudeDegrees>
              <LongitudeDegrees>1.2562442757189273834228515625</LongitudeDegrees>
            </Position>
            <AltitudeMeters>2512</AltitudeMeters>
            <DistanceMeters>18259.997435005</DistanceMeters>
          </Trackpoint>
          <Trackpoint>
            <Time>2018-05-01T12:03:39.000Z</Time>
            <Position>
              <LatitudeDegrees>42.7128134854137897491455078125</LatitudeDegrees>
              <LongitudeDegrees>1.25619188882410526275634765625</LongitudeDegrees>
            </Position>
            <AltitudeMeters>2510.60009765625</AltitudeMeters>
            <DistanceMeters>18266.047883741</DistanceMeters>
          </Trackpoint>
          <Trackpoint>
            <Time>2018-05-01T12:03:40.000Z</Time>
            <Position>
              <LatitudeDegrees>42.71277115680277347564697265625</LatitudeDegrees>
              <LongitudeDegrees>1.25614461489021778106689453125</LongitudeDegrees>
            </Position>
            <AltitudeMeters>2507.39990234375</AltitudeMeters>
            <DistanceMeters>18272.141460222</DistanceMeters>
          </Trackpoint>
          <Trackpoint>
            <Time>2018-05-01T12:03:41.000Z</Time>
            <Position>
              <LatitudeDegrees>42.712733186781406402587890625</LatitudeDegrees>
              <LongitudeDegrees>1.25609164126217365264892578125</LongitudeDegrees>
            </Position>
            <AltitudeMeters>2505.199951171875</AltitudeMeters>
            <DistanceMeters>18278.193401238</DistanceMeters>
          </Trackpoint>
          <Trackpoint>
            <Time>2018-05-01T12:03:42.000Z</Time>
            <Position>
              <LatitudeDegrees>42.7126832306385040283203125</LatitudeDegrees>
              <LongitudeDegrees>1.25607118941843509674072265625</LongitudeDegrees>
            </Position>
            <AltitudeMeters>2502.800048828125</AltitudeMeters>
            <DistanceMeters>18283.999370181</DistanceMeters>
          </Trackpoint>
          <Trackpoint>
            <Time>2018-05-01T12:03:43.000Z</Time>
            <Position>
              <LatitudeDegrees>42.712631933391094207763671875</LatitudeDegrees>
              <LongitudeDegrees>1.2560427747666835784912109375</LongitudeDegrees>
            </Position>
            <AltitudeMeters>2500.800048828125</AltitudeMeters>
            <DistanceMeters>18290.163667519</DistanceMeters>
          </Trackpoint>
          <Trackpoint>
            <Time>2018-05-01T12:03:45.000Z</Time>
            <Position>
              <LatitudeDegrees>42.7125174365937709808349609375</LatitudeDegrees>
              <LongitudeDegrees>1.25595174729824066162109375</LongitudeDegrees>
            </Position>
            <AltitudeMeters>2496.60009765625</AltitudeMeters>
            <DistanceMeters>18304.921900605</DistanceMeters>
          </Trackpoint>
          <Trackpoint>
            <Time>2018-05-01T12:03:46.000Z</Time>
            <Position>
              <LatitudeDegrees>42.71247024647891521453857421875</LatitudeDegrees>
              <LongitudeDegrees>1.25589550472795963287353515625</LongitudeDegrees>
            </Position>
            <AltitudeMeters>2494.199951171875</AltitudeMeters>
            <DistanceMeters>18311.9036162</DistanceMeters>
          </Trackpoint>
          <Trackpoint>
            <Time>2018-05-01T12:03:47.000Z</Time>
            <Position>
              <LatitudeDegrees>42.7124195359647274017333984375</LatitudeDegrees>
              <LongitudeDegrees>1.2558359093964099884033203125</LongitudeDegrees>
            </Position>
            <AltitudeMeters>2492</AltitudeMeters>
            <DistanceMeters>18319.360640455</DistanceMeters>
          </Trackpoint>
          <Trackpoint>
            <Time>2018-05-01T12:03:48.000Z</Time>
            <Position>
              <LatitudeDegrees>42.7123679034411907196044921875</LatitudeDegrees>
              <LongitudeDegrees>1.255780756473541259765625</LongitudeDegrees>
            </Position>
            <AltitudeMeters>2488.800048828125</AltitudeMeters>
            <DistanceMeters>18326.666582</DistanceMeters>
          </Trackpoint>
          <Trackpoint>
            <Time>2018-05-01T12:03:50.000Z</Time>
            <Position>
              <LatitudeDegrees>42.71227193064987659454345703125</LatitudeDegrees>
              <LongitudeDegrees>1.2557069957256317138671875</LongitudeDegrees>
            </Position>
            <AltitudeMeters>2484.199951171875</AltitudeMeters>
            <DistanceMeters>18338.934232713</DistanceMeters>
          </Trackpoint>
          <Trackpoint>
            <Time>2018-05-01T12:03:51.000Z</Time>
            <Position>
              <LatitudeDegrees>42.71222256124019622802734375</LatitudeDegrees>
              <LongitudeDegrees>1.25566869042813777923583984375</LongitudeDegrees>
            </Position>
            <AltitudeMeters>2482</AltitudeMeters>
            <DistanceMeters>18345.259044066</DistanceMeters>
          </Trackpoint>
          <Trackpoint>
            <Time>2018-05-01T12:03:52.000Z</Time>
            <Position>
              <LatitudeDegrees>42.7121855132281780242919921875</LatitudeDegrees>
              <LongitudeDegrees>1.25561454333364963531494140625</LongitudeDegrees>
            </Position>
            <AltitudeMeters>2480.60009765625</AltitudeMeters>
            <DistanceMeters>18351.309492801</DistanceMeters>
          </Trackpoint>
          <Trackpoint>
            <Time>2018-05-01T12:03:53.000Z</Time>
            <Position>
              <LatitudeDegrees>42.7121395803987979888916015625</LatitudeDegrees>
              <LongitudeDegrees>1.25557757914066314697265625</LongitudeDegrees>
            </Position>
            <AltitudeMeters>2478.60009765625</AltitudeMeters>
            <DistanceMeters>18357.248472393</DistanceMeters>
          </Trackpoint>
          <Trackpoint>
            <Time>2018-05-01T12:03:54.000Z</Time>
            <Position>
              <LatitudeDegrees>42.71209859289228916168212890625</LatitudeDegrees>
              <LongitudeDegrees>1.25552259385585784912109375</LongitudeDegrees>
            </Position>
            <AltitudeMeters>2476.800048828125</AltitudeMeters>
            <DistanceMeters>18363.653442126</DistanceMeters>
          </Trackpoint>
          <Trackpoint>
            <Time>2018-05-01T12:03:55.000Z</Time>
            <Position>
              <LatitudeDegrees>42.71207495592534542083740234375</LatitudeDegrees>
              <LongitudeDegrees>1.25544321723282337188720703125</LongitudeDegrees>
            </Position>
            <AltitudeMeters>2475</AltitudeMeters>
            <DistanceMeters>18370.658400042</DistanceMeters>
          </Trackpoint>
          <Trackpoint>
            <Time>2018-05-01T12:03:56.000Z</Time>
            <Position>
              <LatitudeDegrees>42.7120502293109893798828125</LatitudeDegrees>
              <LongitudeDegrees>1.2553609907627105712890625</LongitudeDegrees>
            </Position>
            <AltitudeMeters>2473.800048828125</AltitudeMeters>
            <DistanceMeters>18377.924682239</DistanceMeters>
          </Trackpoint>
          <Trackpoint>
            <Time>2018-05-01T12:03:57.000Z</Time>
            <Position>
              <LatitudeDegrees>42.71200907416641712188720703125</LatitudeDegrees>
              <LongitudeDegrees>1.25531363300979137420654296875</LongitudeDegrees>
            </Position>
            <AltitudeMeters>2472.199951171875</AltitudeMeters>
            <DistanceMeters>18383.923419992</DistanceMeters>
          </Trackpoint>
          <Trackpoint>
            <Time>2018-05-01T12:03:58.000Z</Time>
            <Position>
              <LatitudeDegrees>42.7119649015367031097412109375</LatitudeDegrees>
              <LongitudeDegrees>1.2552709691226482391357421875</LongitudeDegrees>
            </Position>
            <AltitudeMeters>2470.60009765625</AltitudeMeters>
            <DistanceMeters>18389.95218916</DistanceMeters>
          </Trackpoint>
          <Trackpoint>
            <Time>2018-05-01T12:03:59.000Z</Time>
            <Position>
              <LatitudeDegrees>42.71192005835473537445068359375</LatitudeDegrees>
              <LongitudeDegrees>1.25521606765687465667724609375</LongitudeDegrees>
            </Position>
            <AltitudeMeters>2469.199951171875</AltitudeMeters>
            <DistanceMeters>18396.664869806</DistanceMeters>
          </Trackpoint>
          <Trackpoint>
            <Time>2018-05-01T12:04:00.000Z</Time>
            <Position>
              <LatitudeDegrees>42.711861133575439453125</LatitudeDegrees>
              <LongitudeDegrees>1.25518237240612506866455078125</LongitudeDegrees>
            </Position>
            <AltitudeMeters>2467.60009765625</AltitudeMeters>
            <DistanceMeters>18403.778557204</DistanceMeters>
          </Trackpoint>
          <Trackpoint>
            <Time>2018-05-01T12:04:01.000Z</Time>
            <Position>
              <LatitudeDegrees>42.71180539391934871673583984375</LatitudeDegrees>
              <LongitudeDegrees>1.2551247887313365936279296875</LongitudeDegrees>
            </Position>
            <AltitudeMeters>2465.199951171875</AltitudeMeters>
            <DistanceMeters>18411.567270419</DistanceMeters>
          </Trackpoint>
          <Trackpoint>
            <Time>2018-05-01T12:04:02.000Z</Time>
            <Position>
              <LatitudeDegrees>42.71174781024456024169921875</LatitudeDegrees>
              <LongitudeDegrees>1.2550637684762477874755859375</LongitudeDegrees>
            </Position>
            <AltitudeMeters>2463.39990234375</AltitudeMeters>
            <DistanceMeters>18419.69080405</DistanceMeters>
          </Trackpoint>
          <Trackpoint>
            <Time>2018-05-01T12:04:03.000Z</Time>
            <Position>
              <LatitudeDegrees>42.71168519742786884307861328125</LatitudeDegrees>
              <LongitudeDegrees>1.2550503574311733245849609375</LongitudeDegrees>
            </Position>
            <AltitudeMeters>2461</AltitudeMeters>
            <DistanceMeters>18426.745857655</DistanceMeters>
          </Trackpoint>
          <Trackpoint>
            <Time>2018-05-01T12:04:04.000Z</Time>
            <Position>
              <LatitudeDegrees>42.71162576973438262939453125</LatitudeDegrees>
              <LongitudeDegrees>1.25506619922816753387451171875</LongitudeDegrees>
            </Position>
            <AltitudeMeters>2459.199951171875</AltitudeMeters>
            <DistanceMeters>18433.486059031</DistanceMeters>
          </Trackpoint>
          <Trackpoint>
            <Time>2018-05-01T12:04:05.000Z</Time>
            <Position>
              <LatitudeDegrees>42.711573131382465362548828125</LatitudeDegrees>
              <LongitudeDegrees>1.25508413650095462799072265625</LongitudeDegrees>
            </Position>
            <AltitudeMeters>2458</AltitudeMeters>
            <DistanceMeters>18439.525303914</DistanceMeters>
          </Trackpoint>
          <Trackpoint>
            <Time>2018-05-01T12:04:06.000Z</Time>
            <Position>
              <LatitudeDegrees>42.7115220017731189727783203125</LatitudeDegrees>
              <LongitudeDegrees>1.25509570352733135223388671875</LongitudeDegrees>
            </Position>
            <AltitudeMeters>2457.60009765625</AltitudeMeters>
            <DistanceMeters>18445.294607318</DistanceMeters>
          </Trackpoint>
          <Trackpoint>
            <Time>2018-05-01T12:04:07.000Z</Time>
            <Position>
              <LatitudeDegrees>42.71146944724023342132568359375</LatitudeDegrees>
              <LongitudeDegrees>1.2551008164882659912109375</LongitudeDegrees>
            </Position>
            <AltitudeMeters>2457.199951171875</AltitudeMeters>
            <DistanceMeters>18451.159380219</DistanceMeters>
          </Trackpoint>
          <Trackpoint>
            <Time>2018-05-01T12:04:11.000Z</Time>
            <Position>
              <LatitudeDegrees>42.71120826713740825653076171875</LatitudeDegrees>
              <LongitudeDegrees>1.2551180832087993621826171875</LongitudeDegrees>
            </Position>
            <AltitudeMeters>2454.60009765625</AltitudeMeters>
            <DistanceMeters>18480.26362889</DistanceMeters>
          </Trackpoint>
          <Trackpoint>
            <Time>2018-05-01T12:04:12.000Z</Time>
            <Position>
              <LatitudeDegrees>42.71114540286362171173095703125</LatitudeDegrees>
              <LongitudeDegrees>1.25510492362082004547119140625</LongitudeDegrees>
            </Position>
            <AltitudeMeters>2453.800048828125</AltitudeMeters>
            <DistanceMeters>18487.342959668</DistanceMeters>
          </Trackpoint>
          <Trackpoint>
            <Time>2018-05-01T12:04:13.000Z</Time>
            <Position>
              <LatitudeDegrees>42.7110915072262287139892578125</LatitudeDegrees>
              <LongitudeDegrees>1.2550775147974491119384765625</LongitudeDegrees>
            </Position>
            <AltitudeMeters>2452.39990234375</AltitudeMeters>
            <DistanceMeters>18493.747224436</DistanceMeters>
          </Trackpoint>
          <Trackpoint>
            <Time>2018-05-01T12:04:16.000Z</Time>
            <Position>
              <LatitudeDegrees>42.7109506912529468536376953125</LatitudeDegrees>
              <LongitudeDegrees>1.25501942820847034454345703125</LongitudeDegrees>
            </Position>
            <AltitudeMeters>2450.800048828125</AltitudeMeters>
            <DistanceMeters>18510.124383241</DistanceMeters>
          </Trackpoint>
          <Trackpoint>
            <Time>2018-05-01T12:04:24.000Z</Time>
            <Position>
              <LatitudeDegrees>42.7107686363160610198974609375</LatitudeDegrees>
              <LongitudeDegrees>1.25495664775371551513671875</LongitudeDegrees>
            </Position>
            <AltitudeMeters>2449.800048828125</AltitudeMeters>
            <DistanceMeters>18531.027668604</DistanceMeters>
          </Trackpoint>
          <Trackpoint>
            <Time>2018-05-01T12:05:23.000Z</Time>
            <Position>
              <LatitudeDegrees>42.7108242921531200408935546875</LatitudeDegrees>
              <LongitudeDegrees>1.25493108294904232025146484375</LongitudeDegrees>
            </Position>
            <AltitudeMeters>2448.800048828125</AltitudeMeters>
            <DistanceMeters>18537.565893278</DistanceMeters>
          </Trackpoint>
          <Trackpoint>
            <Time>2018-05-01T12:05:49.000Z</Time>
            <Position>
              <LatitudeDegrees>42.71079956553876399993896484375</LatitudeDegrees>
              <LongitudeDegrees>1.25494751147925853729248046875</LongitudeDegrees>
            </Position>
            <AltitudeMeters>2448.800048828125</AltitudeMeters>
            <DistanceMeters>18540.628939054</DistanceMeters>
          </Trackpoint>
          <Trackpoint>
            <Time>2018-05-01T12:05:52.000Z</Time>
            <Position>
              <LatitudeDegrees>42.710673920810222625732421875</LatitudeDegrees>
              <LongitudeDegrees>1.25486117787659168243408203125</LongitudeDegrees>
            </Position>
            <AltitudeMeters>2447.199951171875</AltitudeMeters>
            <DistanceMeters>18556.294806971</DistanceMeters>
          </Trackpoint>
          <Trackpoint>
            <Time>2018-05-01T12:05:55.000Z</Time>
            <Position>
              <LatitudeDegrees>42.71052095107734203338623046875</LatitudeDegrees>
              <LongitudeDegrees>1.25473402440547943115234375</LongitudeDegrees>
            </Position>
            <AltitudeMeters>2444.199951171875</AltitudeMeters>
            <DistanceMeters>18576.245212466</DistanceMeters>
          </Trackpoint>
          <Trackpoint>
            <Time>2018-05-01T12:05:56.000Z</Time>
            <Position>
              <LatitudeDegrees>42.71048775874078273773193359375</LatitudeDegrees>
              <LongitudeDegrees>1.2546555697917938232421875</LongitudeDegrees>
            </Position>
            <AltitudeMeters>2442.800048828125</AltitudeMeters>
            <DistanceMeters>18583.649373059</DistanceMeters>
          </Trackpoint>
          <Trackpoint>
            <Time>2018-05-01T12:05:57.000Z</Time>
            <Position>
              <LatitudeDegrees>42.7104595117270946502685546875</LatitudeDegrees>
              <LongitudeDegrees>1.254576109349727630615234375</LongitudeDegrees>
            </Position>
            <AltitudeMeters>2440.60009765625</AltitudeMeters>
            <DistanceMeters>18590.868902215</DistanceMeters>
          </Trackpoint>
          <Trackpoint>
            <Time>2018-05-01T12:05:58.000Z</Time>
            <Position>
              <LatitudeDegrees>42.7104360423982143402099609375</LatitudeDegrees>
              <LongitudeDegrees>1.25449857674539089202880859375</LongitudeDegrees>
            </Position>
            <AltitudeMeters>2438</AltitudeMeters>
            <DistanceMeters>18597.727303501</DistanceMeters>
          </Trackpoint>
          <Trackpoint>
            <Time>2018-05-01T12:05:59.000Z</Time>
            <Position>
              <LatitudeDegrees>42.71040393970906734466552734375</LatitudeDegrees>
              <LongitudeDegrees>1.25441006384789943695068359375</LongitudeDegrees>
            </Position>
            <AltitudeMeters>2435.39990234375</AltitudeMeters>
            <DistanceMeters>18605.799541829</DistanceMeters>
          </Trackpoint>
          <Trackpoint>
            <Time>2018-05-01T12:06:00.000Z</Time>
            <Position>
              <LatitudeDegrees>42.71034308709204196929931640625</LatitudeDegrees>
              <LongitudeDegrees>1.2543395720422267913818359375</LongitudeDegrees>
            </Position>
            <AltitudeMeters>2432.39990234375</AltitudeMeters>
            <DistanceMeters>18614.694570204</DistanceMeters>
          </Trackpoint>
          <Trackpoint>
            <Time>2018-05-01T12:06:01.000Z</Time>
            <Position>
              <LatitudeDegrees>42.7102878503501415252685546875</LatitudeDegrees>
              <LongitudeDegrees>1.25426338054239749908447265625</LongitudeDegrees>
            </Position>
            <AltitudeMeters>2429.60009765625</AltitudeMeters>
            <DistanceMeters>18623.448382443</DistanceMeters>
          </Trackpoint>
          <Trackpoint>
            <Time>2018-05-01T12:06:02.000Z</Time>
            <Position>
              <LatitudeDegrees>42.71024652756750583648681640625</LatitudeDegrees>
              <LongitudeDegrees>1.25418425537645816802978515625</LongitudeDegrees>
            </Position>
            <AltitudeMeters>2427</AltitudeMeters>
            <DistanceMeters>18631.38752179</DistanceMeters>
          </Trackpoint>
          <Trackpoint>
            <Time>2018-05-01T12:06:03.000Z</Time>
            <Position>
              <LatitudeDegrees>42.710189111530780792236328125</LatitudeDegrees>
              <LongitudeDegrees>1.25413010828197002410888671875</LongitudeDegrees>
            </Position>
            <AltitudeMeters>2424.60009765625</AltitudeMeters>
            <DistanceMeters>18639.162310001</DistanceMeters>
          </Trackpoint>
          <Trackpoint>
            <Time>2018-05-01T12:06:04.000Z</Time>
            <Position>
              <LatitudeDegrees>42.7101332880556583404541015625</LatitudeDegrees>
              <LongitudeDegrees>1.25407554209232330322265625</LongitudeDegrees>
            </Position>
            <AltitudeMeters>2421.60009765625</AltitudeMeters>
            <DistanceMeters>18646.812993337</DistanceMeters>
          </Trackpoint>
          <Trackpoint>
            <Time>2018-05-01T12:06:06.000Z</Time>
            <Position>
              <LatitudeDegrees>42.7100501395761966705322265625</LatitudeDegrees>
              <LongitudeDegrees>1.25397353433072566986083984375</LongitudeDegrees>
            </Position>
            <AltitudeMeters>2417.39990234375</AltitudeMeters>
            <DistanceMeters>18659.272369089</DistanceMeters>
          </Trackpoint>
          <Trackpoint>
            <Time>2018-05-01T12:06:07.000Z</Time>
            <Position>
              <LatitudeDegrees>42.71002926863729953765869140625</LatitudeDegrees>
              <LongitudeDegrees>1.25400152988731861114501953125</LongitudeDegrees>
            </Position>
            <AltitudeMeters>2416.199951171875</AltitudeMeters>
            <DistanceMeters>18662.533876418</DistanceMeters>
          </Trackpoint>
          <Trackpoint>
            <Time>2018-05-01T12:06:08.000Z</Time>
            <Position>
              <LatitudeDegrees>42.71002373658120632171630859375</LatitudeDegrees>
              <LongitudeDegrees>1.25402499921619892120361328125</LongitudeDegrees>
            </Position>
            <AltitudeMeters>2415.60009765625</AltitudeMeters>
            <DistanceMeters>18664.551935999</DistanceMeters>
          </Trackpoint>
          <Trackpoint>
            <Time>2018-05-01T12:06:09.000Z</Time>
            <Position>
              <LatitudeDegrees>42.71002306602895259857177734375</LatitudeDegrees>
              <LongitudeDegrees>1.254037320613861083984375</LongitudeDegrees>
            </Position>
            <AltitudeMeters>2415.39990234375</AltitudeMeters>
            <DistanceMeters>18665.562083829</DistanceMeters>
          </Trackpoint>
          <Trackpoint>
            <Time>2018-05-01T12:06:34.000Z</Time>
            <Position>
              <LatitudeDegrees>42.71002851426601409912109375</LatitudeDegrees>
              <LongitudeDegrees>1.2540861032903194427490234375</LongitudeDegrees>
            </Position>
            <AltitudeMeters>2414.800048828125</AltitudeMeters>
            <DistanceMeters>18669.598202993</DistanceMeters>
          </Trackpoint>
          <Trackpoint>
            <Time>2018-05-01T12:06:35.000Z</Time>
            <Position>
              <LatitudeDegrees>42.71000881679356098175048828125</LatitudeDegrees>
              <LongitudeDegrees>1.25408518128097057342529296875</LongitudeDegrees>
            </Position>
            <AltitudeMeters>2414.60009765625</AltitudeMeters>
            <DistanceMeters>18671.794122122</DistanceMeters>
          </Trackpoint>
          <Trackpoint>
            <Time>2018-05-01T12:06:38.000Z</Time>
            <Position>
              <LatitudeDegrees>42.7098603732883930206298828125</LatitudeDegrees>
              <LongitudeDegrees>1.2540653161704540252685546875</LongitudeDegrees>
            </Position>
            <AltitudeMeters>2412.199951171875</AltitudeMeters>
            <DistanceMeters>18688.395808579</DistanceMeters>
          </Trackpoint>
          <Trackpoint>
            <Time>2018-05-01T12:06:39.000Z</Time>
            <Position>
              <LatitudeDegrees>42.709798850119113922119140625</LatitudeDegrees>
              <LongitudeDegrees>1.25402860343456268310546875</LongitudeDegrees>
            </Position>
            <AltitudeMeters>2410.60009765625</AltitudeMeters>
            <DistanceMeters>18695.872786797</DistanceMeters>
          </Trackpoint>
          <Trackpoint>
            <Time>2018-05-01T12:06:40.000Z</Time>
            <Position>
              <LatitudeDegrees>42.7097326330840587615966796875</LatitudeDegrees>
              <LongitudeDegrees>1.25399096868932247161865234375</LongitudeDegrees>
            </Position>
            <AltitudeMeters>2408.800048828125</AltitudeMeters>
            <DistanceMeters>18703.859554604</DistanceMeters>
          </Trackpoint>
          <Trackpoint>
            <Time>2018-05-01T12:06:41.000Z</Time>
            <Position>
              <LatitudeDegrees>42.7096716128289699554443359375</LatitudeDegrees>
              <LongitudeDegrees>1.25396682880818843841552734375</LongitudeDegrees>
            </Position>
            <AltitudeMeters>2406.800048828125</AltitudeMeters>
            <DistanceMeters>18710.93122791</DistanceMeters>
          </Trackpoint>
          <Trackpoint>
            <Time>2018-05-01T12:06:42.000Z</Time>
            <Position>
              <LatitudeDegrees>42.7096213214099407196044921875</LatitudeDegrees>
              <LongitudeDegrees>1.25395710580050945281982421875</LongitudeDegrees>
            </Position>
            <AltitudeMeters>2404</AltitudeMeters>
            <DistanceMeters>18716.585117775</DistanceMeters>
          </Trackpoint>
          <Trackpoint>
            <Time>2018-05-01T12:06:43.000Z</Time>
            <Position>
              <LatitudeDegrees>42.70956524647772312164306640625</LatitudeDegrees>
              <LongitudeDegrees>1.253951154649257659912109375</LongitudeDegrees>
            </Position>
            <AltitudeMeters>2401.800048828125</AltitudeMeters>
            <DistanceMeters>18722.845351937</DistanceMeters>
          </Trackpoint>
          <Trackpoint>
            <Time>2018-05-01T12:06:44.000Z</Time>
            <Position>
              <LatitudeDegrees>42.70951311103999614715576171875</LatitudeDegrees>
              <LongitudeDegrees>1.25395811162889003753662109375</LongitudeDegrees>
            </Position>
            <AltitudeMeters>2399.60009765625</AltitudeMeters>
            <DistanceMeters>18728.67537833</DistanceMeters>
          </Trackpoint>
          <Trackpoint>
            <Time>2018-05-01T12:06:45.000Z</Time>
            <Position>
              <LatitudeDegrees>42.70947421900928020477294921875</LatitudeDegrees>
              <LongitudeDegrees>1.25394587405025959014892578125</LongitudeDegrees>
            </Position>
            <AltitudeMeters>2397.60009765625</AltitudeMeters>
            <DistanceMeters>18733.118321848</DistanceMeters>
          </Trackpoint>
          <Trackpoint>
            <Time>2018-05-01T12:06:46.000Z</Time>
            <Position>
              <LatitudeDegrees>42.709421329200267791748046875</LatitudeDegrees>
              <LongitudeDegrees>1.2539261765778064727783203125</LongitudeDegrees>
            </Position>
            <AltitudeMeters>2395.39990234375</AltitudeMeters>
            <DistanceMeters>18739.220783258</DistanceMeters>
          </Trackpoint>
          <Trackpoint>
            <Time>2018-05-01T12:06:47.000Z</Time>
            <Position>
              <LatitudeDegrees>42.70936910994350910186767578125</LatitudeDegrees>
              <LongitudeDegrees>1.25391662120819091796875</LongitudeDegrees>
            </Position>
            <AltitudeMeters>2392.800048828125</AltitudeMeters>
            <DistanceMeters>18745.08478625</DistanceMeters>
          </Trackpoint>
          <Trackpoint>
            <Time>2018-05-01T12:06:48.000Z</Time>
            <Position>
              <LatitudeDegrees>42.7093212492763996124267578125</LatitudeDegrees>
              <LongitudeDegrees>1.25389055348932743072509765625</LongitudeDegrees>
            </Position>
            <AltitudeMeters>2390.60009765625</AltitudeMeters>
            <DistanceMeters>18750.822700393</DistanceMeters>
          </Trackpoint>
          <Trackpoint>
            <Time>2018-05-01T12:06:49.000Z</Time>
            <Position>
              <LatitudeDegrees>42.70927506498992443084716796875</LatitudeDegrees>
              <LongitudeDegrees>1.2538535892963409423828125</LongitudeDegrees>
            </Position>
            <AltitudeMeters>2387.800048828125</AltitudeMeters>
            <DistanceMeters>18756.785957979</DistanceMeters>
          </Trackpoint>
          <Trackpoint>
            <Time>2018-05-01T12:06:50.000Z</Time>
            <Position>
              <LatitudeDegrees>42.7092199958860874176025390625</LatitudeDegrees>
              <LongitudeDegrees>1.2538497336208820343017578125</LongitudeDegrees>
            </Position>
            <AltitudeMeters>2385</AltitudeMeters>
            <DistanceMeters>18762.923830487</DistanceMeters>
          </Trackpoint>
          <Trackpoint>
            <Time>2018-05-01T12:06:51.000Z</Time>
            <Position>
              <LatitudeDegrees>42.70916090346872806549072265625</LatitudeDegrees>
              <LongitudeDegrees>1.25385568477213382720947265625</LongitudeDegrees>
            </Position>
            <AltitudeMeters>2382.199951171875</AltitudeMeters>
            <DistanceMeters>18769.518437993</DistanceMeters>
          </Trackpoint>
          <Trackpoint>
            <Time>2018-05-01T12:06:52.000Z</Time>
            <Position>
              <LatitudeDegrees>42.70911346189677715301513671875</LatitudeDegrees>
              <LongitudeDegrees>1.25383322127163410186767578125</LongitudeDegrees>
            </Position>
            <AltitudeMeters>2379.800048828125</AltitudeMeters>
            <DistanceMeters>18775.109692293</DistanceMeters>
          </Trackpoint>
          <Trackpoint>
            <Time>2018-05-01T12:06:53.000Z</Time>
            <Position>
              <LatitudeDegrees>42.70907473750412464141845703125</LatitudeDegrees>
              <LongitudeDegrees>1.25380187295377254486083984375</LongitudeDegrees>
            </Position>
            <AltitudeMeters>2377.39990234375</AltitudeMeters>
            <DistanceMeters>18780.124546518</DistanceMeters>
          </Trackpoint>
          <Trackpoint>
            <Time>2018-05-01T12:06:54.000Z</Time>
            <Position>
              <LatitudeDegrees>42.70902335643768310546875</LatitudeDegrees>
              <LongitudeDegrees>1.25378477387130260467529296875</LongitudeDegrees>
            </Position>
            <AltitudeMeters>2374.800048828125</AltitudeMeters>
            <DistanceMeters>18786.011602947</DistanceMeters>
          </Trackpoint>
          <Trackpoint>
            <Time>2018-05-01T12:06:55.000Z</Time>
            <Position>
              <LatitudeDegrees>42.708981446921825408935546875</LatitudeDegrees>
              <LongitudeDegrees>1.2537543475627899169921875</LongitudeDegrees>
            </Position>
            <AltitudeMeters>2372.199951171875</AltitudeMeters>
            <DistanceMeters>18791.299051922</DistanceMeters>
          </Trackpoint>
          <Trackpoint>
            <Time>2018-05-01T12:06:56.000Z</Time>
            <Position>
              <LatitudeDegrees>42.7089366875588893890380859375</LatitudeDegrees>
              <LongitudeDegrees>1.25372777692973613739013671875</LongitudeDegrees>
            </Position>
            <AltitudeMeters>2369.39990234375</AltitudeMeters>
            <DistanceMeters>18796.734712887</DistanceMeters>
          </Trackpoint>
          <Trackpoint>
            <Time>2018-05-01T12:06:57.000Z</Time>
            <Position>
              <LatitudeDegrees>42.70888379774987697601318359375</LatitudeDegrees>
              <LongitudeDegrees>1.25372744165360927581787109375</LongitudeDegrees>
            </Position>
            <AltitudeMeters>2367.800048828125</AltitudeMeters>
            <DistanceMeters>18802.621769316</DistanceMeters>
          </Trackpoint>
          <Trackpoint>
            <Time>2018-05-01T12:06:58.000Z</Time>
            <Position>
              <LatitudeDegrees>42.70885370671749114990234375</LatitudeDegrees>
              <LongitudeDegrees>1.25369257293641567230224609375</LongitudeDegrees>
            </Position>
            <AltitudeMeters>2365</AltitudeMeters>
            <DistanceMeters>18807.021824303</DistanceMeters>
          </Trackpoint>
          <Trackpoint>
            <Time>2018-05-01T12:06:59.000Z</Time>
            <Position>
              <LatitudeDegrees>42.7088418044149875640869140625</LatitudeDegrees>
              <LongitudeDegrees>1.25365502201020717620849609375</LongitudeDegrees>
            </Position>
            <AltitudeMeters>2362.800048828125</AltitudeMeters>
            <DistanceMeters>18810.365360551</DistanceMeters>
          </Trackpoint>
          <Trackpoint>
            <Time>2018-05-01T12:07:00.000Z</Time>
            <Position>
              <LatitudeDegrees>42.7088458277285099029541015625</LatitudeDegrees>
              <LongitudeDegrees>1.25361495651304721832275390625</LongitudeDegrees>
            </Position>
            <AltitudeMeters>2361.39990234375</AltitudeMeters>
            <DistanceMeters>18813.673600664</DistanceMeters>
          </Trackpoint>
          <Trackpoint>
            <Time>2018-05-01T12:07:01.000Z</Time>
            <Position>
              <LatitudeDegrees>42.70884892903268337249755859375</LatitudeDegrees>
              <LongitudeDegrees>1.25359467230737209320068359375</LongitudeDegrees>
            </Position>
            <AltitudeMeters>2361</AltitudeMeters>
            <DistanceMeters>18815.370832053</DistanceMeters>
          </Trackpoint>
          <Trackpoint>
            <Time>2018-05-01T12:07:11.000Z</Time>
            <Position>
              <LatitudeDegrees>42.70885848440229892730712890625</LatitudeDegrees>
              <LongitudeDegrees>1.25366759486496448516845703125</LongitudeDegrees>
            </Position>
            <AltitudeMeters>2360.800048828125</AltitudeMeters>
            <DistanceMeters>18821.428738512</DistanceMeters>
          </Trackpoint>
          <Trackpoint>
            <Time>2018-05-01T12:07:12.000Z</Time>
            <Position>
              <LatitudeDegrees>42.70880852825939655303955078125</LatitudeDegrees>
              <LongitudeDegrees>1.25371185131371021270751953125</LongitudeDegrees>
            </Position>
            <AltitudeMeters>2360.39990234375</AltitudeMeters>
            <DistanceMeters>18828.062937227</DistanceMeters>
          </Trackpoint>
          <Trackpoint>
            <Time>2018-05-01T12:07:14.000Z</Time>
            <Position>
              <LatitudeDegrees>42.70873971283435821533203125</LatitudeDegrees>
              <LongitudeDegrees>1.25372962094843387603759765625</LongitudeDegrees>
            </Position>
            <AltitudeMeters>2357.199951171875</AltitudeMeters>
            <DistanceMeters>18835.858603617</DistanceMeters>
          </Trackpoint>
          <Trackpoint>
            <Time>2018-05-01T12:07:15.000Z</Time>
            <Position>
              <LatitudeDegrees>42.7086894214153289794921875</LatitudeDegrees>
              <LongitudeDegrees>1.253743283450603485107421875</LongitudeDegrees>
            </Position>
            <AltitudeMeters>2355</AltitudeMeters>
            <DistanceMeters>18841.566538078</DistanceMeters>
          </Trackpoint>
          <Trackpoint>
            <Time>2018-05-01T12:07:16.000Z</Time>
            <Position>
              <LatitudeDegrees>42.70863468758761882781982421875</LatitudeDegrees>
              <LongitudeDegrees>1.2537494860589504241943359375</LongitudeDegrees>
            </Position>
            <AltitudeMeters>2352.800048828125</AltitudeMeters>
            <DistanceMeters>18847.679348915</DistanceMeters>
          </Trackpoint>
          <Trackpoint>
            <Time>2018-05-01T12:07:17.000Z</Time>
            <Position>
              <LatitudeDegrees>42.70859277807176113128662109375</LatitudeDegrees>
              <LongitudeDegrees>1.25368184410035610198974609375</LongitudeDegrees>
            </Position>
            <AltitudeMeters>2350</AltitudeMeters>
            <DistanceMeters>18854.915120002</DistanceMeters>
          </Trackpoint>
          <Trackpoint>
            <Time>2018-05-01T12:07:18.000Z</Time>
            <Position>
              <LatitudeDegrees>42.7085450850427150726318359375</LatitudeDegrees>
              <LongitudeDegrees>1.25359031371772289276123046875</LongitudeDegrees>
            </Position>
            <AltitudeMeters>2348.199951171875</AltitudeMeters>
            <DistanceMeters>18864.091965479</DistanceMeters>
          </Trackpoint>
          <Trackpoint>
            <Time>2018-05-01T12:07:19.000Z</Time>
            <Position>
              <LatitudeDegrees>42.70849403925240039825439453125</LatitudeDegrees>
              <LongitudeDegrees>1.2535050697624683380126953125</LongitudeDegrees>
            </Position>
            <AltitudeMeters>2344.60009765625</AltitudeMeters>
            <DistanceMeters>18873.0859315</DistanceMeters>
          </Trackpoint>
          <Trackpoint>
            <Time>2018-05-01T12:07:20.000Z</Time>
            <Position>
              <LatitudeDegrees>42.70843804813921451568603515625</LatitudeDegrees>
              <LongitudeDegrees>1.253444887697696685791015625</LongitudeDegrees>
            </Position>
            <AltitudeMeters>2343</AltitudeMeters>
            <DistanceMeters>18881.027345347</DistanceMeters>
          </Trackpoint>
          <Trackpoint>
            <Time>2018-05-01T12:07:21.000Z</Time>
            <Position>
              <LatitudeDegrees>42.70837602205574512481689453125</LatitudeDegrees>
              <LongitudeDegrees>1.25341194681823253631591796875</LongitudeDegrees>
            </Position>
            <AltitudeMeters>2341.60009765625</AltitudeMeters>
            <DistanceMeters>18888.438210676</DistanceMeters>
          </Trackpoint>
          <Trackpoint>
            <Time>2018-05-01T12:07:23.000Z</Time>
            <Position>
              <LatitudeDegrees>42.70824677310883998870849609375</LatitudeDegrees>
              <LongitudeDegrees>1.25334539450705051422119140625</LongitudeDegrees>
            </Position>
            <AltitudeMeters>2338.60009765625</AltitudeMeters>
            <DistanceMeters>18903.81904104</DistanceMeters>
          </Trackpoint>
          <Trackpoint>
            <Time>2018-05-01T12:07:27.000Z</Time>
            <Position>
              <LatitudeDegrees>42.7081395685672760009765625</LatitudeDegrees>
              <LongitudeDegrees>1.25325386412441730499267578125</LongitudeDegrees>
            </Position>
            <AltitudeMeters>2335.60009765625</AltitudeMeters>
            <DistanceMeters>18917.905128847</DistanceMeters>
          </Trackpoint>
          <Trackpoint>
            <Time>2018-05-01T12:07:30.000Z</Time>
            <Position>
              <LatitudeDegrees>42.70814401097595691680908203125</LatitudeDegrees>
              <LongitudeDegrees>1.25321363098919391632080078125</LongitudeDegrees>
            </Position>
            <AltitudeMeters>2335</AltitudeMeters>
            <DistanceMeters>18921.233777791</DistanceMeters>
          </Trackpoint>
          <Trackpoint>
            <Time>2018-05-01T12:07:38.000Z</Time>
            <Position>
              <LatitudeDegrees>42.708172090351581573486328125</LatitudeDegrees>
              <LongitudeDegrees>1.25319820828735828399658203125</LongitudeDegrees>
            </Position>
            <AltitudeMeters>2335.199951171875</AltitudeMeters>
            <DistanceMeters>18924.604213396</DistanceMeters>
          </Trackpoint>
          <Trackpoint>
            <Time>2018-05-01T12:07:39.000Z</Time>
            <Position>
              <LatitudeDegrees>42.708178125321865081787109375</LatitudeDegrees>
              <LongitudeDegrees>1.2531845457851886749267578125</LongitudeDegrees>
            </Position>
            <AltitudeMeters>2335</AltitudeMeters>
            <DistanceMeters>18925.910614731</DistanceMeters>
          </Trackpoint>
          <Trackpoint>
            <Time>2018-05-01T12:08:36.000Z</Time>
            <Position>
              <LatitudeDegrees>42.70821542479097843170166015625</LatitudeDegrees>
              <LongitudeDegrees>1.2531459890305995941162109375</LongitudeDegrees>
            </Position>
            <AltitudeMeters>2334.39990234375</AltitudeMeters>
            <DistanceMeters>18931.124109729</DistanceMeters>
          </Trackpoint>
          <Trackpoint>
            <Time>2018-05-01T12:09:22.000Z</Time>
            <Position>
              <LatitudeDegrees>42.70821223966777324676513671875</LatitudeDegrees>
              <LongitudeDegrees>1.2531563825905323028564453125</LongitudeDegrees>
            </Position>
            <AltitudeMeters>2334.199951171875</AltitudeMeters>
            <DistanceMeters>18932.045427908</DistanceMeters>
          </Trackpoint>
          <Trackpoint>
            <Time>2018-05-01T12:10:05.000Z</Time>
            <Position>
              <LatitudeDegrees>42.7082188613712787628173828125</LatitudeDegrees>
              <LongitudeDegrees>1.25316032208502292633056640625</LongitudeDegrees>
            </Position>
            <AltitudeMeters>2334.60009765625</AltitudeMeters>
            <DistanceMeters>18932.851756317</DistanceMeters>
          </Trackpoint>
          <Trackpoint>
            <Time>2018-05-01T12:10:23.000Z</Time>
            <Position>
              <LatitudeDegrees>42.70812523551285266876220703125</LatitudeDegrees>
              <LongitudeDegrees>1.25309477560222148895263671875</LongitudeDegrees>
            </Position>
            <AltitudeMeters>2332.199951171875</AltitudeMeters>
            <DistanceMeters>18944.57051916</DistanceMeters>
          </Trackpoint>
          <Trackpoint>
            <Time>2018-05-01T12:10:24.000Z</Time>
            <Position>
              <LatitudeDegrees>42.70807796157896518707275390625</LatitudeDegrees>
              <LongitudeDegrees>1.253086812794208526611328125</LongitudeDegrees>
            </Position>
            <AltitudeMeters>2330</AltitudeMeters>
            <DistanceMeters>18949.871613188</DistanceMeters>
          </Trackpoint>
          <Trackpoint>
            <Time>2018-05-01T12:10:25.000Z</Time>
            <Position>
              <LatitudeDegrees>42.708021886646747589111328125</LatitudeDegrees>
              <LongitudeDegrees>1.2530688755214214324951171875</LongitudeDegrees>
            </Position>
            <AltitudeMeters>2328.60009765625</AltitudeMeters>
            <DistanceMeters>18956.282924128</DistanceMeters>
          </Trackpoint>
          <Trackpoint>
            <Time>2018-05-01T12:10:26.000Z</Time>
            <Position>
              <LatitudeDegrees>42.70795994438230991363525390625</LatitudeDegrees>
              <LongitudeDegrees>1.25306543894112110137939453125</LongitudeDegrees>
            </Position>
            <AltitudeMeters>2325.199951171875</AltitudeMeters>
            <DistanceMeters>18963.182675066</DistanceMeters>
          </Trackpoint>
          <Trackpoint>
            <Time>2018-05-01T12:10:27.000Z</Time>
            <Position>
              <LatitudeDegrees>42.707900516688823699951171875</LatitudeDegrees>
              <LongitudeDegrees>1.2530303187668323516845703125</LongitudeDegrees>
            </Position>
            <AltitudeMeters>2322.800048828125</AltitudeMeters>
            <DistanceMeters>18970.393443414</DistanceMeters>
          </Trackpoint>
          <Trackpoint>
            <Time>2018-05-01T12:10:28.000Z</Time>
            <Position>
              <LatitudeDegrees>42.707852907478809356689453125</LatitudeDegrees>
              <LongitudeDegrees>1.25296778976917266845703125</LongitudeDegrees>
            </Position>
            <AltitudeMeters>2321</AltitudeMeters>
            <DistanceMeters>18977.757860507</DistanceMeters>
          </Trackpoint>
          <Trackpoint>
            <Time>2018-05-01T12:10:29.000Z</Time>
            <Position>
              <LatitudeDegrees>42.70779951475560665130615234375</LatitudeDegrees>
              <LongitudeDegrees>1.25289847142994403839111328125</LongitudeDegrees>
            </Position>
            <AltitudeMeters>2319.199951171875</AltitudeMeters>
            <DistanceMeters>18985.970939774</DistanceMeters>
          </Trackpoint>
          <Trackpoint>
            <Time>2018-05-01T12:10:30.000Z</Time>
            <Position>
              <LatitudeDegrees>42.7077397517859935760498046875</LatitudeDegrees>
              <LongitudeDegrees>1.25283694826066493988037109375</LongitudeDegrees>
            </Position>
            <AltitudeMeters>2317.60009765625</AltitudeMeters>
            <DistanceMeters>18994.311665697</DistanceMeters>
          </Trackpoint>
          <Trackpoint>
            <Time>2018-05-01T12:10:31.000Z</Time>
            <Position>
              <LatitudeDegrees>42.7076576091349124908447265625</LatitudeDegrees>
              <LongitudeDegrees>1.2528154067695140838623046875</LongitudeDegrees>
            </Position>
            <AltitudeMeters>2313.800048828125</AltitudeMeters>
            <DistanceMeters>19003.622344182</DistanceMeters>
          </Trackpoint>
          <Trackpoint>
            <Time>2018-05-01T12:10:32.000Z</Time>
            <Position>
              <LatitudeDegrees>42.70757940597832202911376953125</LatitudeDegrees>
              <LongitudeDegrees>1.2527879141271114349365234375</LongitudeDegrees>
            </Position>
            <AltitudeMeters>2310</AltitudeMeters>
            <DistanceMeters>19012.612293246</DistanceMeters>
          </Trackpoint>
          <Trackpoint>
            <Time>2018-05-01T12:10:33.000Z</Time>
            <Position>
              <LatitudeDegrees>42.707524336874485015869140625</LatitudeDegrees>
              <LongitudeDegrees>1.252724044024944305419921875</LongitudeDegrees>
            </Position>
            <AltitudeMeters>2307</AltitudeMeters>
            <DistanceMeters>19020.665491929</DistanceMeters>
          </Trackpoint>
          <Trackpoint>
            <Time>2018-05-01T12:10:34.000Z</Time>
            <Position>
              <LatitudeDegrees>42.707479409873485565185546875</LatitudeDegrees>
              <LongitudeDegrees>1.25265137292444705963134765625</LongitudeDegrees>
            </Position>
            <AltitudeMeters>2304.60009765625</AltitudeMeters>
            <DistanceMeters>19028.432727005</DistanceMeters>
          </Trackpoint>
          <Trackpoint>
            <Time>2018-05-01T12:10:35.000Z</Time>
            <Position>
              <LatitudeDegrees>42.70742132328450679779052734375</LatitudeDegrees>
              <LongitudeDegrees>1.252603344619274139404296875</LongitudeDegrees>
            </Position>
            <AltitudeMeters>2302.60009765625</AltitudeMeters>
            <DistanceMeters>19035.997951688</DistanceMeters>
          </Trackpoint>
          <Trackpoint>
            <Time>2018-05-01T12:10:36.000Z</Time>
            <Position>
              <LatitudeDegrees>42.70736499689519405364990234375</LatitudeDegrees>
              <LongitudeDegrees>1.2525324337184429168701171875</LongitudeDegrees>
            </Position>
            <AltitudeMeters>2300</AltitudeMeters>
            <DistanceMeters>19044.538205047</DistanceMeters>
          </Trackpoint>
          <Trackpoint>
            <Time>2018-05-01T12:10:37.000Z</Time>
            <Position>
              <LatitudeDegrees>42.707314789295196533203125</LatitudeDegrees>
              <LongitudeDegrees>1.25245138071477413177490234375</LongitudeDegrees>
            </Position>
            <AltitudeMeters>2297.800048828125</AltitudeMeters>
            <DistanceMeters>19053.20857911</DistanceMeters>
          </Trackpoint>
          <Trackpoint>
            <Time>2018-05-01T12:10:38.000Z</Time>
            <Position>
              <LatitudeDegrees>42.707261480391025543212890625</LatitudeDegrees>
              <LongitudeDegrees>1.2523708306252956390380859375</LongitudeDegrees>
            </Position>
            <AltitudeMeters>2296</AltitudeMeters>
            <DistanceMeters>19062.074627578</DistanceMeters>
          </Trackpoint>
          <Trackpoint>
            <Time>2018-05-01T12:10:39.000Z</Time>
            <Position>
              <LatitudeDegrees>42.70718805491924285888671875</LatitudeDegrees>
              <LongitudeDegrees>1.252332441508769989013671875</LongitudeDegrees>
            </Position>
            <AltitudeMeters>2294.39990234375</AltitudeMeters>
            <DistanceMeters>19070.829471315</DistanceMeters>
          </Trackpoint>
          <Trackpoint>
            <Time>2018-05-01T12:10:40.000Z</Time>
            <Position>
              <LatitudeDegrees>42.7071111090481281280517578125</LatitudeDegrees>
              <LongitudeDegrees>1.252302266657352447509765625</LongitudeDegrees>
            </Position>
            <AltitudeMeters>2293</AltitudeMeters>
            <DistanceMeters>19079.741741082</DistanceMeters>
          </Trackpoint>
          <Trackpoint>
            <Time>2018-05-01T12:10:41.000Z</Time>
            <Position>
              <LatitudeDegrees>42.707040868699550628662109375</LatitudeDegrees>
              <LongitudeDegrees>1.252274103462696075439453125</LongitudeDegrees>
            </Position>
            <AltitudeMeters>2292.199951171875</AltitudeMeters>
            <DistanceMeters>19087.891909321</DistanceMeters>
          </Trackpoint>
          <Trackpoint>
            <Time>2018-05-01T12:10:42.000Z</Time>
            <Position>
              <LatitudeDegrees>42.70698211155831813812255859375</LatitudeDegrees>
              <LongitudeDegrees>1.25225105322897434234619140625</LongitudeDegrees>
            </Position>
            <AltitudeMeters>2291.60009765625</AltitudeMeters>
            <DistanceMeters>19094.698104452</DistanceMeters>
          </Trackpoint>
          <Trackpoint>
            <Time>2018-05-01T12:10:48.000Z</Time>
            <Position>
              <LatitudeDegrees>42.7068609930574893951416015625</LatitudeDegrees>
              <LongitudeDegrees>1.25223822891712188720703125</LongitudeDegrees>
            </Position>
            <AltitudeMeters>2292</AltitudeMeters>
            <DistanceMeters>19108.219307345</DistanceMeters>
          </Trackpoint>
          <Trackpoint>
            <Time>2018-05-01T12:10:50.000Z</Time>
            <Position>
              <LatitudeDegrees>42.70685034804046154022216796875</LatitudeDegrees>
              <LongitudeDegrees>1.25224225223064422607421875</LongitudeDegrees>
            </Position>
            <AltitudeMeters>2292.199951171875</AltitudeMeters>
            <DistanceMeters>19109.447323129</DistanceMeters>
          </Trackpoint>
          <Trackpoint>
            <Time>2018-05-01T12:10:51.000Z</Time>
            <Position>
              <LatitudeDegrees>42.7068298123776912689208984375</LatitudeDegrees>
              <LongitudeDegrees>1.25224183313548564910888671875</LongitudeDegrees>
            </Position>
            <AltitudeMeters>2292</AltitudeMeters>
            <DistanceMeters>19111.733895731</DistanceMeters>
          </Trackpoint>
          <Trackpoint>
            <Time>2018-05-01T12:10:52.000Z</Time>
            <Position>
              <LatitudeDegrees>42.706817574799060821533203125</LatitudeDegrees>
              <LongitudeDegrees>1.25223948620259761810302734375</LongitudeDegrees>
            </Position>
            <AltitudeMeters>2291.800048828125</AltitudeMeters>
            <DistanceMeters>19113.11096365</DistanceMeters>
          </Trackpoint>
          <Trackpoint>
            <Time>2018-05-01T12:10:53.000Z</Time>
            <Position>
              <LatitudeDegrees>42.70681254565715789794921875</LatitudeDegrees>
              <LongitudeDegrees>1.2522367201745510101318359375</LongitudeDegrees>
            </Position>
            <AltitudeMeters>2291.60009765625</AltitudeMeters>
            <DistanceMeters>19113.711965361</DistanceMeters>
          </Trackpoint>
          <Trackpoint>
            <Time>2018-05-01T12:12:11.000Z</Time>
            <Position>
              <LatitudeDegrees>42.70677189342677593231201171875</LatitudeDegrees>
              <LongitudeDegrees>1.25226060859858989715576171875</LongitudeDegrees>
            </Position>
            <AltitudeMeters>2290.800048828125</AltitudeMeters>
            <DistanceMeters>19118.641461858</DistanceMeters>
          </Trackpoint>
          <Trackpoint>
            <Time>2018-05-01T12:12:12.000Z</Time>
            <Position>
              <LatitudeDegrees>42.70673518069088459014892578125</LatitudeDegrees>
              <LongitudeDegrees>1.252233870327472686767578125</LongitudeDegrees>
            </Position>
            <AltitudeMeters>2290</AltitudeMeters>
            <DistanceMeters>19123.275415007</DistanceMeters>
          </Trackpoint>
          <Trackpoint>
            <Time>2018-05-01T12:12:13.000Z</Time>
            <Position>
              <LatitudeDegrees>42.7066708914935588836669921875</LatitudeDegrees>
              <LongitudeDegrees>1.25219975598156452178955078125</LongitudeDegrees>
            </Position>
            <AltitudeMeters>2288.199951171875</AltitudeMeters>
            <DistanceMeters>19130.955549077</DistanceMeters>
          </Trackpoint>
          <Trackpoint>
            <Time>2018-05-01T12:12:14.000Z</Time>
            <Position>
              <LatitudeDegrees>42.70660425536334514617919921875</LatitudeDegrees>
              <LongitudeDegrees>1.2521461956202983856201171875</LongitudeDegrees>
            </Position>
            <AltitudeMeters>2285</AltitudeMeters>
            <DistanceMeters>19139.568975112</DistanceMeters>
          </Trackpoint>
          <Trackpoint>
            <Time>2018-05-01T12:12:15.000Z</Time>
            <Position>
              <LatitudeDegrees>42.70654038526117801666259765625</LatitudeDegrees>
              <LongitudeDegrees>1.25208802521228790283203125</LongitudeDegrees>
            </Position>
            <AltitudeMeters>2282.39990234375</AltitudeMeters>
            <DistanceMeters>19148.123490849</DistanceMeters>
          </Trackpoint>
          <Trackpoint>
            <Time>2018-05-01T12:12:16.000Z</Time>
            <Position>
              <LatitudeDegrees>42.70648506470024585723876953125</LatitudeDegrees>
              <LongitudeDegrees>1.25202474184334278106689453125</LongitudeDegrees>
            </Position>
            <AltitudeMeters>2279.800048828125</AltitudeMeters>
            <DistanceMeters>19156.168275363</DistanceMeters>
          </Trackpoint>
          <Trackpoint>
            <Time>2018-05-01T12:12:17.000Z</Time>
            <Position>
              <LatitudeDegrees>42.706434689462184906005859375</LatitudeDegrees>
              <LongitudeDegrees>1.25195316039025783538818359375</LongitudeDegrees>
            </Position>
            <AltitudeMeters>2277.60009765625</AltitudeMeters>
            <DistanceMeters>19164.275117927</DistanceMeters>
          </Trackpoint>
          <Trackpoint>
            <Time>2018-05-01T12:12:18.000Z</Time>
            <Position>
              <LatitudeDegrees>42.70639956928789615631103515625</LatitudeDegrees>
              <LongitudeDegrees>1.25188350677490234375</LongitudeDegrees>
            </Position>
            <AltitudeMeters>2275.800048828125</AltitudeMeters>
            <DistanceMeters>19171.184024069</DistanceMeters>
          </Trackpoint>
          <Trackpoint>
            <Time>2018-05-01T12:12:19.000Z</Time>
            <Position>
              <LatitudeDegrees>42.7063708193600177764892578125</LatitudeDegrees>
              <LongitudeDegrees>1.25181318260729312896728515625</LongitudeDegrees>
            </Position>
            <AltitudeMeters>2274.60009765625</AltitudeMeters>
            <DistanceMeters>19177.764924207</DistanceMeters>
          </Trackpoint>
          <Trackpoint>
            <Time>2018-05-01T12:12:20.000Z</Time>
            <Position>
              <LatitudeDegrees>42.7063500322401523590087890625</LatitudeDegrees>
              <LongitudeDegrees>1.251734979450702667236328125</LongitudeDegrees>
            </Position>
            <AltitudeMeters>2273.800048828125</AltitudeMeters>
            <DistanceMeters>19184.567137943</DistanceMeters>
          </Trackpoint>
          <Trackpoint>
            <Time>2018-05-01T12:12:22.000Z</Time>
            <Position>
              <LatitudeDegrees>42.7063151635229587554931640625</LatitudeDegrees>
              <LongitudeDegrees>1.2515886314213275909423828125</LongitudeDegrees>
            </Position>
            <AltitudeMeters>2272.199951171875</AltitudeMeters>
            <DistanceMeters>19197.150196409</DistanceMeters>
          </Trackpoint>
          <Trackpoint>
            <Time>2018-05-01T12:12:23.000Z</Time>
            <Position>
              <LatitudeDegrees>42.70627032034099102020263671875</LatitudeDegrees>
              <LongitudeDegrees>1.2515255995094776153564453125</LongitudeDegrees>
            </Position>
            <AltitudeMeters>2271.39990234375</AltitudeMeters>
            <DistanceMeters>19204.324556013</DistanceMeters>
          </Trackpoint>
          <Trackpoint>
            <Time>2018-05-01T12:12:24.000Z</Time>
            <Position>
              <LatitudeDegrees>42.70622589625418186187744140625</LatitudeDegrees>
              <LongitudeDegrees>1.25145510770380496978759765625</LongitudeDegrees>
            </Position>
            <AltitudeMeters>2270.39990234375</AltitudeMeters>
            <DistanceMeters>19211.919562815</DistanceMeters>
          </Trackpoint>
          <Trackpoint>
            <Time>2018-05-01T12:12:26.000Z</Time>
            <Position>
              <LatitudeDegrees>42.70614677108824253082275390625</LatitudeDegrees>
              <LongitudeDegrees>1.25133030116558074951171875</LongitudeDegrees>
            </Position>
            <AltitudeMeters>2268.800048828125</AltitudeMeters>
            <DistanceMeters>19225.401305235</DistanceMeters>
          </Trackpoint>
          <Trackpoint>
            <Time>2018-05-01T12:12:27.000Z</Time>
            <Position>
              <LatitudeDegrees>42.70609698258340358734130859375</LatitudeDegrees>
              <LongitudeDegrees>1.25128202140331268310546875</LongitudeDegrees>
            </Position>
            <AltitudeMeters>2268</AltitudeMeters>
            <DistanceMeters>19232.206173492</DistanceMeters>
          </Trackpoint>
          <Trackpoint>
            <Time>2018-05-01T12:12:29.000Z</Time>
            <Position>
              <LatitudeDegrees>42.70600176416337490081787109375</LatitudeDegrees>
              <LongitudeDegrees>1.2511759065091609954833984375</LongitudeDegrees>
            </Position>
            <AltitudeMeters>2267.199951171875</AltitudeMeters>
            <DistanceMeters>19245.904530639</DistanceMeters>
          </Trackpoint>
          <Trackpoint>
            <Time>2018-05-01T12:12:30.000Z</Time>
            <Position>
              <LatitudeDegrees>42.7059701643884181976318359375</LatitudeDegrees>
              <LongitudeDegrees>1.2511199153959751129150390625</LongitudeDegrees>
            </Position>
            <AltitudeMeters>2266.39990234375</AltitudeMeters>
            <DistanceMeters>19251.680091424</DistanceMeters>
          </Trackpoint>
          <Trackpoint>
            <Time>2018-05-01T12:12:31.000Z</Time>
            <Position>
              <LatitudeDegrees>42.70594543777406215667724609375</LatitudeDegrees>
              <LongitudeDegrees>1.25106610357761383056640625</LongitudeDegrees>
            </Position>
            <AltitudeMeters>2266</AltitudeMeters>
            <DistanceMeters>19256.871020831</DistanceMeters>
          </Trackpoint>
          <Trackpoint>
            <Time>2018-05-01T12:12:32.000Z</Time>
            <Position>
              <LatitudeDegrees>42.70592716522514820098876953125</LatitudeDegrees>
              <LongitudeDegrees>1.25101170502603054046630859375</LongitudeDegrees>
            </Position>
            <AltitudeMeters>2265.60009765625</AltitudeMeters>
            <DistanceMeters>19261.762820354</DistanceMeters>
          </Trackpoint>
          <Trackpoint>
            <Time>2018-05-01T12:12:33.000Z</Time>
            <Position>
              <LatitudeDegrees>42.70592280663549900054931640625</LatitudeDegrees>
              <LongitudeDegrees>1.25095252878963947296142578125</LongitudeDegrees>
            </Position>
            <AltitudeMeters>2265.199951171875</AltitudeMeters>
            <DistanceMeters>19266.626851633</DistanceMeters>
          </Trackpoint>
          <Trackpoint>
            <Time>2018-05-01T12:12:35.000Z</Time>
            <Position>
              <LatitudeDegrees>42.705925405025482177734375</LatitudeDegrees>
              <LongitudeDegrees>1.2508999742567539215087890625</LongitudeDegrees>
            </Position>
            <AltitudeMeters>2264.60009765625</AltitudeMeters>
            <DistanceMeters>19270.935660885</DistanceMeters>
          </Trackpoint>
          <Trackpoint>
            <Time>2018-05-01T12:12:54.000Z</Time>
            <Position>
              <LatitudeDegrees>42.70593118853867053985595703125</LatitudeDegrees>
              <LongitudeDegrees>1.2509331665933132171630859375</LongitudeDegrees>
            </Position>
            <AltitudeMeters>2264.60009765625</AltitudeMeters>
            <DistanceMeters>19273.724010902</DistanceMeters>
          </Trackpoint>
          <Trackpoint>
            <Time>2018-05-01T12:12:55.000Z</Time>
            <Position>
              <LatitudeDegrees>42.705913670361042022705078125</LatitudeDegrees>
              <LongitudeDegrees>1.25095856375992298126220703125</LongitudeDegrees>
            </Position>
            <AltitudeMeters>2264.60009765625</AltitudeMeters>
            <DistanceMeters>19276.571643014</DistanceMeters>
          </Trackpoint>
          <Trackpoint>
            <Time>2018-05-01T12:12:56.000Z</Time>
            <Position>
              <LatitudeDegrees>42.7058933861553668975830078125</LatitudeDegrees>
              <LongitudeDegrees>1.25098161399364471435546875</LongitudeDegrees>
            </Position>
            <AltitudeMeters>2264.199951171875</AltitudeMeters>
            <DistanceMeters>19279.512869499</DistanceMeters>
          </Trackpoint>
          <Trackpoint>
            <Time>2018-05-01T12:12:57.000Z</Time>
            <Position>
              <LatitudeDegrees>42.70586706697940826416015625</LatitudeDegrees>
              <LongitudeDegrees>1.25099980272352695465087890625</LongitudeDegrees>
            </Position>
            <AltitudeMeters>2263.60009765625</AltitudeMeters>
            <DistanceMeters>19282.799200497</DistanceMeters>
          </Trackpoint>
          <Trackpoint>
            <Time>2018-05-01T12:12:58.000Z</Time>
            <Position>
              <LatitudeDegrees>42.70584284327924251556396484375</LatitudeDegrees>
              <LongitudeDegrees>1.25096954405307769775390625</LongitudeDegrees>
            </Position>
            <AltitudeMeters>2262.39990234375</AltitudeMeters>
            <DistanceMeters>19286.459888061</DistanceMeters>
          </Trackpoint>
          <Trackpoint>
            <Time>2018-05-01T12:12:59.000Z</Time>
            <Position>
              <LatitudeDegrees>42.7058226428925991058349609375</LatitudeDegrees>
              <LongitudeDegrees>1.25090626068413257598876953125</LongitudeDegrees>
            </Position>
            <AltitudeMeters>2260.60009765625</AltitudeMeters>
            <DistanceMeters>19292.103386942</DistanceMeters>
          </Trackpoint>
          <Trackpoint>
            <Time>2018-05-01T12:13:00.000Z</Time>
            <Position>
              <LatitudeDegrees>42.7058135904371738433837890625</LatitudeDegrees>
              <LongitudeDegrees>1.25080316327512264251708984375</LongitudeDegrees>
            </Position>
            <AltitudeMeters>2258.199951171875</AltitudeMeters>
            <DistanceMeters>19300.595394389</DistanceMeters>
          </Trackpoint>
          <Trackpoint>
            <Time>2018-05-01T12:13:01.000Z</Time>
            <Position>
              <LatitudeDegrees>42.7058350481092929840087890625</LatitudeDegrees>
              <LongitudeDegrees>1.25071297399699687957763671875</LongitudeDegrees>
            </Position>
            <AltitudeMeters>2256</AltitudeMeters>
            <DistanceMeters>19308.349248203</DistanceMeters>
          </Trackpoint>
          <Trackpoint>
            <Time>2018-05-01T12:13:02.000Z</Time>
            <Position>
              <LatitudeDegrees>42.70586178638041019439697265625</LatitudeDegrees>
              <LongitudeDegrees>1.2506237067282199859619140625</LongitudeDegrees>
            </Position>
            <AltitudeMeters>2253.60009765625</AltitudeMeters>
            <DistanceMeters>19316.233602725</DistanceMeters>
          </Trackpoint>
          <Trackpoint>
            <Time>2018-05-01T12:13:03.000Z</Time>
            <Position>
              <LatitudeDegrees>42.70587938837707042694091796875</LatitudeDegrees>
              <LongitudeDegrees>1.250534355640411376953125</LongitudeDegrees>
            </Position>
            <AltitudeMeters>2252.199951171875</AltitudeMeters>
            <DistanceMeters>19323.800020944</DistanceMeters>
          </Trackpoint>
          <Trackpoint>
            <Time>2018-05-01T12:13:04.000Z</Time>
            <Position>
              <LatitudeDegrees>42.7058501355350017547607421875</LatitudeDegrees>
              <LongitudeDegrees>1.2504436634480953216552734375</LongitudeDegrees>
            </Position>
            <AltitudeMeters>2250.199951171875</AltitudeMeters>
            <DistanceMeters>19331.900734833</DistanceMeters>
          </Trackpoint>
          <Trackpoint>
            <Time>2018-05-01T12:13:05.000Z</Time>
            <Position>
              <LatitudeDegrees>42.70581585355103015899658203125</LatitudeDegrees>
              <LongitudeDegrees>1.2503326870501041412353515625</LongitudeDegrees>
            </Position>
            <AltitudeMeters>2248.39990234375</AltitudeMeters>
            <DistanceMeters>19341.746896557</DistanceMeters>
          </Trackpoint>
          <Trackpoint>
            <Time>2018-05-01T12:13:06.000Z</Time>
            <Position>
              <LatitudeDegrees>42.70581082440912723541259765625</LatitudeDegrees>
              <LongitudeDegrees>1.2502163462340831756591796875</LongitudeDegrees>
            </Position>
            <AltitudeMeters>2246.199951171875</AltitudeMeters>
            <DistanceMeters>19351.278507077</DistanceMeters>
          </Trackpoint>
          <Trackpoint>
            <Time>2018-05-01T12:13:07.000Z</Time>
            <Position>
              <LatitudeDegrees>42.70581149496138095855712890625</LatitudeDegrees>
              <LongitudeDegrees>1.25009254552423954010009765625</LongitudeDegrees>
            </Position>
            <AltitudeMeters>2243.39990234375</AltitudeMeters>
            <DistanceMeters>19361.404092885</DistanceMeters>
          </Trackpoint>
          <Trackpoint>
            <Time>2018-05-01T12:13:08.000Z</Time>
            <Position>
              <LatitudeDegrees>42.7057844214141368865966796875</LatitudeDegrees>
              <LongitudeDegrees>1.24997637234628200531005859375</LongitudeDegrees>
            </Position>
            <AltitudeMeters>2240.39990234375</AltitudeMeters>
            <DistanceMeters>19371.371937743</DistanceMeters>
          </Trackpoint>
          <Trackpoint>
            <Time>2018-05-01T12:13:09.000Z</Time>
            <Position>
              <LatitudeDegrees>42.70576690323650836944580078125</LatitudeDegrees>
              <LongitudeDegrees>1.2498713470995426177978515625</LongitudeDegrees>
            </Position>
            <AltitudeMeters>2238.800048828125</AltitudeMeters>
            <DistanceMeters>19380.180252951</DistanceMeters>
          </Trackpoint>
          <Trackpoint>
            <Time>2018-05-01T12:13:10.000Z</Time>
            <Position>
              <LatitudeDegrees>42.7057723514735698699951171875</LatitudeDegrees>
              <LongitudeDegrees>1.249772608280181884765625</LongitudeDegrees>
            </Position>
            <AltitudeMeters>2237.39990234375</AltitudeMeters>
            <DistanceMeters>19388.278737081</DistanceMeters>
          </Trackpoint>
          <Trackpoint>
            <Time>2018-05-01T12:13:11.000Z</Time>
            <Position>
              <LatitudeDegrees>42.7057778835296630859375</LatitudeDegrees>
              <LongitudeDegrees>1.24968199990689754486083984375</LongitudeDegrees>
            </Position>
            <AltitudeMeters>2237</AltitudeMeters>
            <DistanceMeters>19395.715146709</DistanceMeters>
          </Trackpoint>
          <Trackpoint>
            <Time>2018-05-01T12:13:12.000Z</Time>
            <Position>
              <LatitudeDegrees>42.7057736925780773162841796875</LatitudeDegrees>
              <LongitudeDegrees>1.24960321001708507537841796875</LongitudeDegrees>
            </Position>
            <AltitudeMeters>2236.800048828125</AltitudeMeters>
            <DistanceMeters>19402.176264522</DistanceMeters>
          </Trackpoint>
          <Trackpoint>
            <Time>2018-05-01T12:13:13.000Z</Time>
            <Position>
              <LatitudeDegrees>42.70576271228492259979248046875</LatitudeDegrees>
              <LongitudeDegrees>1.2495236657559871673583984375</LongitudeDegrees>
            </Position>
            <AltitudeMeters>2236.60009765625</AltitudeMeters>
            <DistanceMeters>19408.795473758</DistanceMeters>
          </Trackpoint>
          <Trackpoint>
            <Time>2018-05-01T12:13:16.000Z</Time>
            <Position>
              <LatitudeDegrees>42.7057589404284954071044921875</LatitudeDegrees>
              <LongitudeDegrees>1.2492266111075878143310546875</LongitudeDegrees>
            </Position>
            <AltitudeMeters>2234</AltitudeMeters>
            <DistanceMeters>19433.095200066</DistanceMeters>
          </Trackpoint>
          <Trackpoint>
            <Time>2018-05-01T12:13:17.000Z</Time>
            <Position>
              <LatitudeDegrees>42.70578316412866115570068359375</LatitudeDegrees>
              <LongitudeDegrees>1.24911957420408725738525390625</LongitudeDegrees>
            </Position>
            <AltitudeMeters>2232.800048828125</AltitudeMeters>
            <DistanceMeters>19442.255302157</DistanceMeters>
          </Trackpoint>
          <Trackpoint>
            <Time>2018-05-01T12:13:19.000Z</Time>
            <Position>
              <LatitudeDegrees>42.7058275043964385986328125</LatitudeDegrees>
              <LongitudeDegrees>1.248901225626468658447265625</LongitudeDegrees>
            </Position>
            <AltitudeMeters>2228.199951171875</AltitudeMeters>
            <DistanceMeters>19460.783562091</DistanceMeters>
          </Trackpoint>
          <Trackpoint>
            <Time>2018-05-01T12:13:20.000Z</Time>
            <Position>
              <LatitudeDegrees>42.70584334619343280792236328125</LatitudeDegrees>
              <LongitudeDegrees>1.2487964518368244171142578125</LongitudeDegrees>
            </Position>
            <AltitudeMeters>2226.39990234375</AltitudeMeters>
            <DistanceMeters>19469.532731081</DistanceMeters>
          </Trackpoint>
          <Trackpoint>
            <Time>2018-05-01T12:13:21.000Z</Time>
            <Position>
              <LatitudeDegrees>42.70584284327924251556396484375</LatitudeDegrees>
              <LongitudeDegrees>1.2486962042748928070068359375</LongitudeDegrees>
            </Position>
            <AltitudeMeters>2225</AltitudeMeters>
            <DistanceMeters>19477.732606031</DistanceMeters>
          </Trackpoint>
          <Trackpoint>
            <Time>2018-05-01T12:13:22.000Z</Time>
            <Position>
              <LatitudeDegrees>42.70583345554769039154052734375</LatitudeDegrees>
              <LongitudeDegrees>1.24859469942748546600341796875</LongitudeDegrees>
            </Position>
            <AltitudeMeters>2223.800048828125</AltitudeMeters>
            <DistanceMeters>19486.100354399</DistanceMeters>
          </Trackpoint>
          <Trackpoint>
            <Time>2018-05-01T12:13:23.000Z</Time>
            <Position>
              <LatitudeDegrees>42.705830521881580352783203125</LatitudeDegrees>
              <LongitudeDegrees>1.2484903447329998016357421875</LongitudeDegrees>
            </Position>
            <AltitudeMeters>2223</AltitudeMeters>
            <DistanceMeters>19494.642193643</DistanceMeters>
          </Trackpoint>
          <Trackpoint>
            <Time>2018-05-01T12:13:24.000Z</Time>
            <Position>
              <LatitudeDegrees>42.70583865232765674591064453125</LatitudeDegrees>
              <LongitudeDegrees>1.24839420430362224578857421875</LongitudeDegrees>
            </Position>
            <AltitudeMeters>2221.60009765625</AltitudeMeters>
            <DistanceMeters>19502.557411288</DistanceMeters>
          </Trackpoint>
          <Trackpoint>
            <Time>2018-05-01T12:13:25.000Z</Time>
            <Position>
              <LatitudeDegrees>42.70586664788424968719482421875</LatitudeDegrees>
              <LongitudeDegrees>1.2482905201613903045654296875</LongitudeDegrees>
            </Position>
            <AltitudeMeters>2219.800048828125</AltitudeMeters>
            <DistanceMeters>19511.591948408</DistanceMeters>
          </Trackpoint>
          <Trackpoint>
            <Time>2018-05-01T12:13:26.000Z</Time>
            <Position>
              <LatitudeDegrees>42.70591056905686855316162109375</LatitudeDegrees>
              <LongitudeDegrees>1.24818675220012664794921875</LongitudeDegrees>
            </Position>
            <AltitudeMeters>2217.39990234375</AltitudeMeters>
            <DistanceMeters>19521.386155985</DistanceMeters>
          </Trackpoint>
          <Trackpoint>
            <Time>2018-05-01T12:13:27.000Z</Time>
            <Position>
              <LatitudeDegrees>42.7059616148471832275390625</LatitudeDegrees>
              <LongitudeDegrees>1.24808826483786106109619140625</LongitudeDegrees>
            </Position>
            <AltitudeMeters>2215.199951171875</AltitudeMeters>
            <DistanceMeters>19531.244233013</DistanceMeters>
          </Trackpoint>
          <Trackpoint>
            <Time>2018-05-01T12:13:28.000Z</Time>
            <Position>
              <LatitudeDegrees>42.706000171601772308349609375</LatitudeDegrees>
              <LongitudeDegrees>1.24798156321048736572265625</LongitudeDegrees>
            </Position>
            <AltitudeMeters>2213</AltitudeMeters>
            <DistanceMeters>19540.969510422</DistanceMeters>
          </Trackpoint>
          <Trackpoint>
            <Time>2018-05-01T12:13:30.000Z</Time>
            <Position>
              <LatitudeDegrees>42.7060516364872455596923828125</LatitudeDegrees>
              <LongitudeDegrees>1.24775583855807781219482421875</LongitudeDegrees>
            </Position>
            <AltitudeMeters>2209</AltitudeMeters>
            <DistanceMeters>19560.299448422</DistanceMeters>
          </Trackpoint>
          <Trackpoint>
            <Time>2018-05-01T12:13:31.000Z</Time>
            <Position>
              <LatitudeDegrees>42.7060667239129543304443359375</LatitudeDegrees>
              <LongitudeDegrees>1.2476397491991519927978515625</LongitudeDegrees>
            </Position>
            <AltitudeMeters>2207</AltitudeMeters>
            <DistanceMeters>19569.941265522</DistanceMeters>
          </Trackpoint>
          <Trackpoint>
            <Time>2018-05-01T12:13:32.000Z</Time>
            <Position>
              <LatitudeDegrees>42.70607803948223590850830078125</LatitudeDegrees>
              <LongitudeDegrees>1.24753497540950775146484375</LongitudeDegrees>
            </Position>
            <AltitudeMeters>2204.800048828125</AltitudeMeters>
            <DistanceMeters>19578.602782428</DistanceMeters>
          </Trackpoint>
          <Trackpoint>
            <Time>2018-05-01T12:13:33.000Z</Time>
            <Position>
              <LatitudeDegrees>42.70608021877706050872802734375</LatitudeDegrees>
              <LongitudeDegrees>1.24743380583822727203369140625</LongitudeDegrees>
            </Position>
            <AltitudeMeters>2203.199951171875</AltitudeMeters>
            <DistanceMeters>19586.881021983</DistanceMeters>
          </Trackpoint>
          <Trackpoint>
            <Time>2018-05-01T12:13:34.000Z</Time>
            <Position>
              <LatitudeDegrees>42.70607954822480678558349609375</LatitudeDegrees>
              <LongitudeDegrees>1.24733305536210536956787109375</LongitudeDegrees>
            </Position>
            <AltitudeMeters>2202.199951171875</AltitudeMeters>
            <DistanceMeters>19595.121542285</DistanceMeters>
          </Trackpoint>
          <Trackpoint>
            <Time>2018-05-01T12:13:36.000Z</Time>
            <Position>
              <LatitudeDegrees>42.70606948994100093841552734375</LatitudeDegrees>
              <LongitudeDegrees>1.24711613170802593231201171875</LongitudeDegrees>
            </Position>
            <AltitudeMeters>2198.39990234375</AltitudeMeters>
            <DistanceMeters>19612.898904727</DistanceMeters>
          </Trackpoint>
          <Trackpoint>
            <Time>2018-05-01T12:13:38.000Z</Time>
            <Position>
              <LatitudeDegrees>42.7060742676258087158203125</LatitudeDegrees>
              <LongitudeDegrees>1.24687171541154384613037109375</LongitudeDegrees>
            </Position>
            <AltitudeMeters>2191.800048828125</AltitudeMeters>
            <DistanceMeters>19632.896553724</DistanceMeters>
          </Trackpoint>
          <Trackpoint>
            <Time>2018-05-01T12:13:39.000Z</Time>
            <Position>
              <LatitudeDegrees>42.7061465196311473846435546875</LatitudeDegrees>
              <LongitudeDegrees>1.2467591464519500732421875</LongitudeDegrees>
            </Position>
            <AltitudeMeters>2188.800048828125</AltitudeMeters>
            <DistanceMeters>19645.12069807</DistanceMeters>
          </Trackpoint>
          <Trackpoint>
            <Time>2018-05-01T12:13:40.000Z</Time>
            <Position>
              <LatitudeDegrees>42.70619354210793972015380859375</LatitudeDegrees>
              <LongitudeDegrees>1.2466573901474475860595703125</LongitudeDegrees>
            </Position>
            <AltitudeMeters>2186.39990234375</AltitudeMeters>
            <DistanceMeters>19654.952174981</DistanceMeters>
          </Trackpoint>
          <Trackpoint>
            <Time>2018-05-01T12:13:41.000Z</Time>
            <Position>
              <LatitudeDegrees>42.70621466450393199920654296875</LatitudeDegrees>
              <LongitudeDegrees>1.2465521134436130523681640625</LongitudeDegrees>
            </Position>
            <AltitudeMeters>2184.199951171875</AltitudeMeters>
            <DistanceMeters>19663.878618536</DistanceMeters>
          </Trackpoint>
          <Trackpoint>
            <Time>2018-05-01T12:13:42.000Z</Time>
            <Position>
              <LatitudeDegrees>42.70622790791094303131103515625</LatitudeDegrees>
              <LongitudeDegrees>1.2464377842843532562255859375</LongitudeDegrees>
            </Position>
            <AltitudeMeters>2181.800048828125</AltitudeMeters>
            <DistanceMeters>19673.345110951</DistanceMeters>
          </Trackpoint>
          <Trackpoint>
            <Time>2018-05-01T12:13:43.000Z</Time>
            <Position>
              <LatitudeDegrees>42.7062306739389896392822265625</LatitudeDegrees>
              <LongitudeDegrees>1.24630342237651348114013671875</LongitudeDegrees>
            </Position>
            <AltitudeMeters>2177.60009765625</AltitudeMeters>
            <DistanceMeters>19684.338679212</DistanceMeters>
          </Trackpoint>
          <Trackpoint>
            <Time>2018-05-01T12:13:44.000Z</Time>
            <Position>
              <LatitudeDegrees>42.7062326855957508087158203125</LatitudeDegrees>
              <LongitudeDegrees>1.24616227112710475921630859375</LongitudeDegrees>
            </Position>
            <AltitudeMeters>2174.199951171875</AltitudeMeters>
            <DistanceMeters>19695.885891377</DistanceMeters>
          </Trackpoint>
          <Trackpoint>
            <Time>2018-05-01T12:13:45.000Z</Time>
            <Position>
              <LatitudeDegrees>42.70623729564249515533447265625</LatitudeDegrees>
              <LongitudeDegrees>1.24601927585899829864501953125</LongitudeDegrees>
            </Position>
            <AltitudeMeters>2170.60009765625</AltitudeMeters>
            <DistanceMeters>19707.593090028</DistanceMeters>
          </Trackpoint>
          <Trackpoint>
            <Time>2018-05-01T12:13:46.000Z</Time>
            <Position>
              <LatitudeDegrees>42.7062459290027618408203125</LatitudeDegrees>
              <LongitudeDegrees>1.2458849139511585235595703125</LongitudeDegrees>
            </Position>
            <AltitudeMeters>2167.800048828125</AltitudeMeters>
            <DistanceMeters>19718.624377812</DistanceMeters>
          </Trackpoint>
          <Trackpoint>
            <Time>2018-05-01T12:13:47.000Z</Time>
            <Position>
              <LatitudeDegrees>42.706241905689239501953125</LatitudeDegrees>
              <LongitudeDegrees>1.24575239606201648712158203125</LongitudeDegrees>
            </Position>
            <AltitudeMeters>2163.800048828125</AltitudeMeters>
            <DistanceMeters>19729.472000876</DistanceMeters>
          </Trackpoint>
          <Trackpoint>
            <Time>2018-05-01T12:13:49.000Z</Time>
            <Position>
              <LatitudeDegrees>42.70624550990760326385498046875</LatitudeDegrees>
              <LongitudeDegrees>1.2454845942556858062744140625</LongitudeDegrees>
            </Position>
            <AltitudeMeters>2159.800048828125</AltitudeMeters>
            <DistanceMeters>19751.378904872</DistanceMeters>
          </Trackpoint>
          <Trackpoint>
            <Time>2018-05-01T12:13:50.000Z</Time>
            <Position>
              <LatitudeDegrees>42.7062514610588550567626953125</LatitudeDegrees>
              <LongitudeDegrees>1.24535392038524150848388671875</LongitudeDegrees>
            </Position>
            <AltitudeMeters>2156.199951171875</AltitudeMeters>
            <DistanceMeters>19762.087028456</DistanceMeters>
          </Trackpoint>
          <Trackpoint>
            <Time>2018-05-01T12:13:51.000Z</Time>
            <Position>
              <LatitudeDegrees>42.70622053183615207672119140625</LatitudeDegrees>
              <LongitudeDegrees>1.245218217372894287109375</LongitudeDegrees>
            </Position>
            <AltitudeMeters>2153.800048828125</AltitudeMeters>
            <DistanceMeters>19773.707517393</DistanceMeters>
          </Trackpoint>
          <Trackpoint>
            <Time>2018-05-01T12:13:52.000Z</Time>
            <Position>
              <LatitudeDegrees>42.7061756886541843414306640625</LatitudeDegrees>
              <LongitudeDegrees>1.2451256811618804931640625</LongitudeDegrees>
            </Position>
            <AltitudeMeters>2151</AltitudeMeters>
            <DistanceMeters>19782.773484291</DistanceMeters>
          </Trackpoint>
          <Trackpoint>
            <Time>2018-05-01T12:13:53.000Z</Time>
            <Position>
              <LatitudeDegrees>42.70613662898540496826171875</LatitudeDegrees>
              <LongitudeDegrees>1.2450799159705638885498046875</LongitudeDegrees>
            </Position>
            <AltitudeMeters>2149.60009765625</AltitudeMeters>
            <DistanceMeters>19788.509037314</DistanceMeters>
          </Trackpoint>
          <Trackpoint>
            <Time>2018-05-01T12:13:54.000Z</Time>
            <Position>
              <LatitudeDegrees>42.70610854960978031158447265625</LatitudeDegrees>
              <LongitudeDegrees>1.24506122432649135589599609375</LongitudeDegrees>
            </Position>
            <AltitudeMeters>2148.800048828125</AltitudeMeters>
            <DistanceMeters>19791.987586212</DistanceMeters>
          </Trackpoint>
          <Trackpoint>
            <Time>2018-05-01T12:13:55.000Z</Time>
            <Position>
              <LatitudeDegrees>42.706099413335323333740234375</LatitudeDegrees>
              <LongitudeDegrees>1.2450577877461910247802734375</LongitudeDegrees>
            </Position>
            <AltitudeMeters>2149</AltitudeMeters>
            <DistanceMeters>19793.04575892</DistanceMeters>
          </Trackpoint>
          <Trackpoint>
            <Time>2018-05-01T12:14:31.000Z</Time>
            <Position>
              <LatitudeDegrees>42.70610871724784374237060546875</LatitudeDegrees>
              <LongitudeDegrees>1.24511101283133029937744140625</LongitudeDegrees>
            </Position>
            <AltitudeMeters>2149.199951171875</AltitudeMeters>
            <DistanceMeters>19797.521103549</DistanceMeters>
          </Trackpoint>
          <Trackpoint>
            <Time>2018-05-01T12:14:32.000Z</Time>
            <Position>
              <LatitudeDegrees>42.706111483275890350341796875</LatitudeDegrees>
              <LongitudeDegrees>1.2450628168880939483642578125</LongitudeDegrees>
            </Position>
            <AltitudeMeters>2148.199951171875</AltitudeMeters>
            <DistanceMeters>19801.475859218</DistanceMeters>
          </Trackpoint>
          <Trackpoint>
            <Time>2018-05-01T12:14:33.000Z</Time>
            <Position>
              <LatitudeDegrees>42.7061029337346553802490234375</LatitudeDegrees>
              <LongitudeDegrees>1.24498612247407436370849609375</LongitudeDegrees>
            </Position>
            <AltitudeMeters>2147.199951171875</AltitudeMeters>
            <DistanceMeters>19807.819915548</DistanceMeters>
          </Trackpoint>
          <Trackpoint>
            <Time>2018-05-01T12:14:35.000Z</Time>
            <Position>
              <LatitudeDegrees>42.70604434423148632049560546875</LatitudeDegrees>
              <LongitudeDegrees>1.2447769939899444580078125</LongitudeDegrees>
            </Position>
            <AltitudeMeters>2143.39990234375</AltitudeMeters>
            <DistanceMeters>19826.125326679</DistanceMeters>
          </Trackpoint>
          <Trackpoint>
            <Time>2018-05-01T12:14:36.000Z</Time>
            <Position>
              <LatitudeDegrees>42.7060234732925891876220703125</LatitudeDegrees>
              <LongitudeDegrees>1.2446578033268451690673828125</LongitudeDegrees>
            </Position>
            <AltitudeMeters>2139.800048828125</AltitudeMeters>
            <DistanceMeters>19836.146928857</DistanceMeters>
          </Trackpoint>
          <Trackpoint>
            <Time>2018-05-01T12:14:37.000Z</Time>
            <Position>
              <LatitudeDegrees>42.7060125768184661865234375</LatitudeDegrees>
              <LongitudeDegrees>1.24452888965606689453125</LongitudeDegrees>
            </Position>
            <AltitudeMeters>2135.800048828125</AltitudeMeters>
            <DistanceMeters>19846.760183473</DistanceMeters>
          </Trackpoint>
          <Trackpoint>
            <Time>2018-05-01T12:14:38.000Z</Time>
            <Position>
              <LatitudeDegrees>42.7059701643884181976318359375</LatitudeDegrees>
              <LongitudeDegrees>1.2444207631051540374755859375</LongitudeDegrees>
            </Position>
            <AltitudeMeters>2133</AltitudeMeters>
            <DistanceMeters>19856.785389248</DistanceMeters>
          </Trackpoint>
          <Trackpoint>
            <Time>2018-05-01T12:14:39.000Z</Time>
            <Position>
              <LatitudeDegrees>42.70594510249793529510498046875</LatitudeDegrees>
              <LongitudeDegrees>1.24431557022035121917724609375</LongitudeDegrees>
            </Position>
            <AltitudeMeters>2131</AltitudeMeters>
            <DistanceMeters>19865.830415095</DistanceMeters>
          </Trackpoint>
          <Trackpoint>
            <Time>2018-05-01T12:14:40.000Z</Time>
            <Position>
              <LatitudeDegrees>42.70596052519977092742919921875</LatitudeDegrees>
              <LongitudeDegrees>1.24421280808746814727783203125</LongitudeDegrees>
            </Position>
            <AltitudeMeters>2129.800048828125</AltitudeMeters>
            <DistanceMeters>19874.409175088</DistanceMeters>
          </Trackpoint>
          <Trackpoint>
            <Time>2018-05-01T12:14:41.000Z</Time>
            <Position>
              <LatitudeDegrees>42.70598466508090496063232421875</LatitudeDegrees>
              <LongitudeDegrees>1.2441659532487392425537109375</LongitudeDegrees>
            </Position>
            <AltitudeMeters>2129</AltitudeMeters>
            <DistanceMeters>19879.088698074</DistanceMeters>
          </Trackpoint>
          <Trackpoint>
            <Time>2018-05-01T12:14:42.000Z</Time>
            <Position>
              <LatitudeDegrees>42.7059932984411716461181640625</LatitudeDegrees>
              <LongitudeDegrees>1.2441532127559185028076171875</LongitudeDegrees>
            </Position>
            <AltitudeMeters>2129</AltitudeMeters>
            <DistanceMeters>19880.50456423</DistanceMeters>
          </Trackpoint>
          <Trackpoint>
            <Time>2018-05-01T12:14:46.000Z</Time>
            <Position>
              <LatitudeDegrees>42.70597326569259166717529296875</LatitudeDegrees>
              <LongitudeDegrees>1.24414022080600261688232421875</LongitudeDegrees>
            </Position>
            <AltitudeMeters>2128.800048828125</AltitudeMeters>
            <DistanceMeters>19882.975258804</DistanceMeters>
          </Trackpoint>
          <Trackpoint>
            <Time>2018-05-01T12:14:47.000Z</Time>
            <Position>
              <LatitudeDegrees>42.70596069283783435821533203125</LatitudeDegrees>
              <LongitudeDegrees>1.2441237084567546844482421875</LongitudeDegrees>
            </Position>
            <AltitudeMeters>2128.60009765625</AltitudeMeters>
            <DistanceMeters>19884.922726931</DistanceMeters>
          </Trackpoint>
          <Trackpoint>
            <Time>2018-05-01T12:14:48.000Z</Time>
            <Position>
              <LatitudeDegrees>42.70594946108758449554443359375</LatitudeDegrees>
              <LongitudeDegrees>1.24409965239465236663818359375</LongitudeDegrees>
            </Position>
            <AltitudeMeters>2128.60009765625</AltitudeMeters>
            <DistanceMeters>19887.25620847</DistanceMeters>
          </Trackpoint>
          <Trackpoint>
            <Time>2018-05-01T12:14:49.000Z</Time>
            <Position>
              <LatitudeDegrees>42.70594560541212558746337890625</LatitudeDegrees>
              <LongitudeDegrees>1.24406411312520503997802734375</LongitudeDegrees>
            </Position>
            <AltitudeMeters>2128.199951171875</AltitudeMeters>
            <DistanceMeters>19890.194363177</DistanceMeters>
          </Trackpoint>
          <Trackpoint>
            <Time>2018-05-01T12:14:50.000Z</Time>
            <Position>
              <LatitudeDegrees>42.7059477008879184722900390625</LatitudeDegrees>
              <LongitudeDegrees>1.24402203597128391265869140625</LongitudeDegrees>
            </Position>
            <AltitudeMeters>2127.800048828125</AltitudeMeters>
            <DistanceMeters>19893.644238646</DistanceMeters>
          </Trackpoint>
          <Trackpoint>
            <Time>2018-05-01T12:14:51.000Z</Time>
            <Position>
              <LatitudeDegrees>42.70595449022948741912841796875</LatitudeDegrees>
              <LongitudeDegrees>1.24397174455225467681884765625</LongitudeDegrees>
            </Position>
            <AltitudeMeters>2127.39990234375</AltitudeMeters>
            <DistanceMeters>19897.826493788</DistanceMeters>
          </Trackpoint>
          <Trackpoint>
            <Time>2018-05-01T12:14:52.000Z</Time>
            <Position>
              <LatitudeDegrees>42.7059591002762317657470703125</LatitudeDegrees>
              <LongitudeDegrees>1.243929751217365264892578125</LongitudeDegrees>
            </Position>
            <AltitudeMeters>2127.199951171875</AltitudeMeters>
            <DistanceMeters>19901.298546791</DistanceMeters>
          </Trackpoint>
          <Trackpoint>
            <Time>2018-05-01T12:14:53.000Z</Time>
            <Position>
              <LatitudeDegrees>42.70596505142748355865478515625</LatitudeDegrees>
              <LongitudeDegrees>1.24388541094958782196044921875</LongitudeDegrees>
            </Position>
            <AltitudeMeters>2127</AltitudeMeters>
            <DistanceMeters>19904.983819504</DistanceMeters>
          </Trackpoint>
          <Trackpoint>
            <Time>2018-05-01T12:14:54.000Z</Time>
            <Position>
              <LatitudeDegrees>42.705977372825145721435546875</LatitudeDegrees>
              <LongitudeDegrees>1.24383713118731975555419921875</LongitudeDegrees>
            </Position>
            <AltitudeMeters>2126.800048828125</AltitudeMeters>
            <DistanceMeters>19909.16283468</DistanceMeters>
          </Trackpoint>
          <Trackpoint>
            <Time>2018-05-01T12:14:55.000Z</Time>
            <Position>
              <LatitudeDegrees>42.7059859223663806915283203125</LatitudeDegrees>
              <LongitudeDegrees>1.24378834851086139678955078125</LongitudeDegrees>
            </Position>
            <AltitudeMeters>2126.800048828125</AltitudeMeters>
            <DistanceMeters>19913.264423691</DistanceMeters>
          </Trackpoint>
          <Trackpoint>
            <Time>2018-05-01T12:15:05.000Z</Time>
            <Position>
              <LatitudeDegrees>42.7060573361814022064208984375</LatitudeDegrees>
              <LongitudeDegrees>1.243501268327236175537109375</LongitudeDegrees>
            </Position>
            <AltitudeMeters>2126.800048828125</AltitudeMeters>
            <DistanceMeters>19938.053285544</DistanceMeters>
          </Trackpoint>
          <Trackpoint>
            <Time>2018-05-01T12:15:06.000Z</Time>
            <Position>
              <LatitudeDegrees>42.7060576714575290679931640625</LatitudeDegrees>
              <LongitudeDegrees>1.24348240904510021209716796875</LongitudeDegrees>
            </Position>
            <AltitudeMeters>2126.60009765625</AltitudeMeters>
            <DistanceMeters>19939.597286898</DistanceMeters>
          </Trackpoint>
          <Trackpoint>
            <Time>2018-05-01T12:15:23.000Z</Time>
            <Position>
              <LatitudeDegrees>42.7061431668698787689208984375</LatitudeDegrees>
              <LongitudeDegrees>1.2432882003486156463623046875</LongitudeDegrees>
            </Position>
            <AltitudeMeters>2127.199951171875</AltitudeMeters>
            <DistanceMeters>19958.113602471</DistanceMeters>
          </Trackpoint>
          <Trackpoint>
            <Time>2018-05-01T12:15:24.000Z</Time>
            <Position>
              <LatitudeDegrees>42.70615481771528720855712890625</LatitudeDegrees>
              <LongitudeDegrees>1.24328878708183765411376953125</LongitudeDegrees>
            </Position>
            <AltitudeMeters>2127.39990234375</AltitudeMeters>
            <DistanceMeters>19959.416543134</DistanceMeters>
          </Trackpoint>
          <Trackpoint>
            <Time>2018-05-01T12:15:33.000Z</Time>
            <Position>
              <LatitudeDegrees>42.7063356153666973114013671875</LatitudeDegrees>
              <LongitudeDegrees>1.2433059699833393096923828125</LongitudeDegrees>
            </Position>
            <AltitudeMeters>2126.39990234375</AltitudeMeters>
            <DistanceMeters>19979.588859184</DistanceMeters>
          </Trackpoint>
          <Trackpoint>
            <Time>2018-05-01T12:15:35.000Z</Time>
            <Position>
              <LatitudeDegrees>42.706444747745990753173828125</LatitudeDegrees>
              <LongitudeDegrees>1.2432825006544589996337890625</LongitudeDegrees>
            </Position>
            <AltitudeMeters>2125.199951171875</AltitudeMeters>
            <DistanceMeters>19991.886652493</DistanceMeters>
          </Trackpoint>
          <Trackpoint>
            <Time>2018-05-01T12:15:36.000Z</Time>
            <Position>
              <LatitudeDegrees>42.7064898423850536346435546875</LatitudeDegrees>
              <LongitudeDegrees>1.24325827695429325103759765625</LongitudeDegrees>
            </Position>
            <AltitudeMeters>2124.60009765625</AltitudeMeters>
            <DistanceMeters>19997.283132506</DistanceMeters>
          </Trackpoint>
          <Trackpoint>
            <Time>2018-05-01T12:15:37.000Z</Time>
            <Position>
              <LatitudeDegrees>42.70652378909289836883544921875</LatitudeDegrees>
              <LongitudeDegrees>1.24322994612157344818115234375</LongitudeDegrees>
            </Position>
            <AltitudeMeters>2124.199951171875</AltitudeMeters>
            <DistanceMeters>20001.715902108</DistanceMeters>
          </Trackpoint>
          <Trackpoint>
            <Time>2018-05-01T12:15:38.000Z</Time>
            <Position>
              <LatitudeDegrees>42.70654943771660327911376953125</LatitudeDegrees>
              <LongitudeDegrees>1.24319809488952159881591796875</LongitudeDegrees>
            </Position>
            <AltitudeMeters>2123.800048828125</AltitudeMeters>
            <DistanceMeters>20005.580581453</DistanceMeters>
          </Trackpoint>
          <Trackpoint>
            <Time>2018-05-01T12:15:39.000Z</Time>
            <Position>
              <LatitudeDegrees>42.70657106302678585052490234375</LatitudeDegrees>
              <LongitudeDegrees>1.2431577779352664947509765625</LongitudeDegrees>
            </Position>
            <AltitudeMeters>2123.60009765625</AltitudeMeters>
            <DistanceMeters>20009.66341394</DistanceMeters>
          </Trackpoint>
          <Trackpoint>
            <Time>2018-05-01T12:15:40.000Z</Time>
            <Position>
              <LatitudeDegrees>42.7065967954695224761962890625</LatitudeDegrees>
              <LongitudeDegrees>1.2431252561509609222412109375</LongitudeDegrees>
            </Position>
            <AltitudeMeters>2123.39990234375</AltitudeMeters>
            <DistanceMeters>20013.572235929</DistanceMeters>
          </Trackpoint>
          <Trackpoint>
            <Time>2018-05-01T12:15:43.000Z</Time>
            <Position>
              <LatitudeDegrees>42.70670752041041851043701171875</LatitudeDegrees>
              <LongitudeDegrees>1.243023164570331573486328125</LongitudeDegrees>
            </Position>
            <AltitudeMeters>2121.800048828125</AltitudeMeters>
            <DistanceMeters>20028.458103249</DistanceMeters>
          </Trackpoint>
          <Trackpoint>
            <Time>2018-05-01T12:15:46.000Z</Time>
            <Position>
              <LatitudeDegrees>42.70683559589087963104248046875</LatitudeDegrees>
              <LongitudeDegrees>1.24291327781975269317626953125</LongitudeDegrees>
            </Position>
            <AltitudeMeters>2118.39990234375</AltitudeMeters>
            <DistanceMeters>20045.309745424</DistanceMeters>
          </Trackpoint>
          <Trackpoint>
            <Time>2018-05-01T12:15:47.000Z</Time>
            <Position>
              <LatitudeDegrees>42.7068335004150867462158203125</LatitudeDegrees>
              <LongitudeDegrees>1.24285376630723476409912109375</LongitudeDegrees>
            </Position>
            <AltitudeMeters>2116.800048828125</AltitudeMeters>
            <DistanceMeters>20050.183050365</DistanceMeters>
          </Trackpoint>
          <Trackpoint>
            <Time>2018-05-01T12:15:48.000Z</Time>
            <Position>
              <LatitudeDegrees>42.70682101137936115264892578125</LatitudeDegrees>
              <LongitudeDegrees>1.24279542826116085052490234375</LongitudeDegrees>
            </Position>
            <AltitudeMeters>2113.800048828125</AltitudeMeters>
            <DistanceMeters>20055.151775453</DistanceMeters>
          </Trackpoint>
          <Trackpoint>
            <Time>2018-05-01T12:15:49.000Z</Time>
            <Position>
              <LatitudeDegrees>42.7067537046968936920166015625</LatitudeDegrees>
              <LongitudeDegrees>1.242748908698558807373046875</LongitudeDegrees>
            </Position>
            <AltitudeMeters>2112.60009765625</AltitudeMeters>
            <DistanceMeters>20063.553448355</DistanceMeters>
          </Trackpoint>
          <Trackpoint>
            <Time>2018-05-01T12:15:50.000Z</Time>
            <Position>
              <LatitudeDegrees>42.7067117951810359954833984375</LatitudeDegrees>
              <LongitudeDegrees>1.2427118606865406036376953125</LongitudeDegrees>
            </Position>
            <AltitudeMeters>2110.60009765625</AltitudeMeters>
            <DistanceMeters>20069.11636773</DistanceMeters>
          </Trackpoint>
          <Trackpoint>
            <Time>2018-05-01T12:15:51.000Z</Time>
            <Position>
              <LatitudeDegrees>42.7067054249346256256103515625</LatitudeDegrees>
              <LongitudeDegrees>1.2426498346030712127685546875</LongitudeDegrees>
            </Position>
            <AltitudeMeters>2107.800048828125</AltitudeMeters>
            <DistanceMeters>20074.23900398</DistanceMeters>
          </Trackpoint>
          <Trackpoint>
            <Time>2018-05-01T12:15:52.000Z</Time>
            <Position>
              <LatitudeDegrees>42.706684134900569915771484375</LatitudeDegrees>
              <LongitudeDegrees>1.24257984571158885955810546875</LongitudeDegrees>
            </Position>
            <AltitudeMeters>2105.199951171875</AltitudeMeters>
            <DistanceMeters>20080.433987829</DistanceMeters>
          </Trackpoint>
          <Trackpoint>
            <Time>2018-05-01T12:15:53.000Z</Time>
            <Position>
              <LatitudeDegrees>42.706684134900569915771484375</LatitudeDegrees>
              <LongitudeDegrees>1.242496110498905181884765625</LongitudeDegrees>
            </Position>
            <AltitudeMeters>2102.39990234375</AltitudeMeters>
            <DistanceMeters>20087.282507162</DistanceMeters>
          </Trackpoint>
          <Trackpoint>
            <Time>2018-05-01T12:15:54.000Z</Time>
            <Position>
              <LatitudeDegrees>42.7066876552999019622802734375</LatitudeDegrees>
              <LongitudeDegrees>1.24241824261844158172607421875</LongitudeDegrees>
            </Position>
            <AltitudeMeters>2099.60009765625</AltitudeMeters>
            <DistanceMeters>20093.663464354</DistanceMeters>
          </Trackpoint>
          <Trackpoint>
            <Time>2018-05-01T12:15:55.000Z</Time>
            <Position>
              <LatitudeDegrees>42.70664750598371028900146484375</LatitudeDegrees>
              <LongitudeDegrees>1.24237683601677417755126953125</LongitudeDegrees>
            </Position>
            <AltitudeMeters>2096.199951171875</AltitudeMeters>
            <DistanceMeters>20099.270845755</DistanceMeters>
          </Trackpoint>
          <Trackpoint>
            <Time>2018-05-01T12:15:56.000Z</Time>
            <Position>
              <LatitudeDegrees>42.70660467445850372314453125</LatitudeDegrees>
              <LongitudeDegrees>1.24232185073196887969970703125</LongitudeDegrees>
            </Position>
            <AltitudeMeters>2093.199951171875</AltitudeMeters>
            <DistanceMeters>20105.82493407</DistanceMeters>
          </Trackpoint>
          <Trackpoint>
            <Time>2018-05-01T12:15:57.000Z</Time>
            <Position>
              <LatitudeDegrees>42.70656620152294635772705078125</LatitudeDegrees>
              <LongitudeDegrees>1.24226787127554416656494140625</LongitudeDegrees>
            </Position>
            <AltitudeMeters>2090.800048828125</AltitudeMeters>
            <DistanceMeters>20111.974564965</DistanceMeters>
          </Trackpoint>
          <Trackpoint>
            <Time>2018-05-01T12:15:58.000Z</Time>
            <Position>
              <LatitudeDegrees>42.70653351210057735443115234375</LatitudeDegrees>
              <LongitudeDegrees>1.24221858568489551544189453125</LongitudeDegrees>
            </Position>
            <AltitudeMeters>2088.800048828125</AltitudeMeters>
            <DistanceMeters>20117.403576801</DistanceMeters>
          </Trackpoint>
          <Trackpoint>
            <Time>2018-05-01T12:15:59.000Z</Time>
            <Position>
              <LatitudeDegrees>42.706537283957004547119140625</LatitudeDegrees>
              <LongitudeDegrees>1.24217030592262744903564453125</LongitudeDegrees>
            </Position>
            <AltitudeMeters>2087.39990234375</AltitudeMeters>
            <DistanceMeters>20121.374283724</DistanceMeters>
          </Trackpoint>
          <Trackpoint>
            <Time>2018-05-01T12:16:00.000Z</Time>
            <Position>
              <LatitudeDegrees>42.70655346103012561798095703125</LatitudeDegrees>
              <LongitudeDegrees>1.24213828705251216888427734375</LongitudeDegrees>
            </Position>
            <AltitudeMeters>2085.800048828125</AltitudeMeters>
            <DistanceMeters>20124.551645124</DistanceMeters>
          </Trackpoint>
          <Trackpoint>
            <Time>2018-05-01T12:16:01.000Z</Time>
            <Position>
              <LatitudeDegrees>42.706568799912929534912109375</LatitudeDegrees>
              <LongitudeDegrees>1.24211414717137813568115234375</LongitudeDegrees>
            </Position>
            <AltitudeMeters>2084.39990234375</AltitudeMeters>
            <DistanceMeters>20127.160989417</DistanceMeters>
          </Trackpoint>
          <Trackpoint>
            <Time>2018-05-01T12:16:02.000Z</Time>
            <Position>
              <LatitudeDegrees>42.70658078603446483612060546875</LatitudeDegrees>
              <LongitudeDegrees>1.24211749993264675140380859375</LongitudeDegrees>
            </Position>
            <AltitudeMeters>2083.800048828125</AltitudeMeters>
            <DistanceMeters>20128.518242376</DistanceMeters>
          </Trackpoint>
          <Trackpoint>
            <Time>2018-05-01T12:16:11.000Z</Time>
            <Position>
              <LatitudeDegrees>42.70657324232161045074462890625</LatitudeDegrees>
              <LongitudeDegrees>1.24209143221378326416015625</LongitudeDegrees>
            </Position>
            <AltitudeMeters>2082.60009765625</AltitudeMeters>
            <DistanceMeters>20130.810731087</DistanceMeters>
          </Trackpoint>
          <Trackpoint>
            <Time>2018-05-01T12:16:12.000Z</Time>
            <Position>
              <LatitudeDegrees>42.70659252069890499114990234375</LatitudeDegrees>
              <LongitudeDegrees>1.24205346219241619110107421875</LongitudeDegrees>
            </Position>
            <AltitudeMeters>2082.199951171875</AltitudeMeters>
            <DistanceMeters>20134.585576862</DistanceMeters>
          </Trackpoint>
          <Trackpoint>
            <Time>2018-05-01T12:16:15.000Z</Time>
            <Position>
              <LatitudeDegrees>42.7066604979336261749267578125</LatitudeDegrees>
              <LongitudeDegrees>1.24196578748524188995361328125</LongitudeDegrees>
            </Position>
            <AltitudeMeters>2078.800048828125</AltitudeMeters>
            <DistanceMeters>20145.009102167</DistanceMeters>
          </Trackpoint>
          <Trackpoint>
            <Time>2018-05-01T12:16:39.000Z</Time>
            <Position>
              <LatitudeDegrees>42.7066551335155963897705078125</LatitudeDegrees>
              <LongitudeDegrees>1.2419128976762294769287109375</LongitudeDegrees>
            </Position>
            <AltitudeMeters>2076.800048828125</AltitudeMeters>
            <DistanceMeters>20149.375163478</DistanceMeters>
          </Trackpoint>
          <Trackpoint>
            <Time>2018-05-01T12:16:40.000Z</Time>
            <Position>
              <LatitudeDegrees>42.70667902193963527679443359375</LatitudeDegrees>
              <LongitudeDegrees>1.2418726645410060882568359375</LongitudeDegrees>
            </Position>
            <AltitudeMeters>2076.800048828125</AltitudeMeters>
            <DistanceMeters>20153.605720358</DistanceMeters>
          </Trackpoint>
          <Trackpoint>
            <Time>2018-05-01T12:16:41.000Z</Time>
            <Position>
              <LatitudeDegrees>42.7067179977893829345703125</LatitudeDegrees>
              <LongitudeDegrees>1.24183000065386295318603515625</LongitudeDegrees>
            </Position>
            <AltitudeMeters>2075.39990234375</AltitudeMeters>
            <DistanceMeters>20159.172696409</DistanceMeters>
          </Trackpoint>
          <Trackpoint>
            <Time>2018-05-01T12:16:42.000Z</Time>
            <Position>
              <LatitudeDegrees>42.7067493461072444915771484375</LatitudeDegrees>
              <LongitudeDegrees>1.2417809665203094482421875</LongitudeDegrees>
            </Position>
            <AltitudeMeters>2072.800048828125</AltitudeMeters>
            <DistanceMeters>20164.48909926</DistanceMeters>
          </Trackpoint>
          <Trackpoint>
            <Time>2018-05-01T12:16:43.000Z</Time>
            <Position>
              <LatitudeDegrees>42.7067664451897144317626953125</LatitudeDegrees>
              <LongitudeDegrees>1.24173603951930999755859375</LongitudeDegrees>
            </Position>
            <AltitudeMeters>2071</AltitudeMeters>
            <DistanceMeters>20168.626855286</DistanceMeters>
          </Trackpoint>
          <Trackpoint>
            <Time>2018-05-01T12:16:44.000Z</Time>
            <Position>
              <LatitudeDegrees>42.7067634277045726776123046875</LatitudeDegrees>
              <LongitudeDegrees>1.24169907532632350921630859375</LongitudeDegrees>
            </Position>
            <AltitudeMeters>2067.199951171875</AltitudeMeters>
            <DistanceMeters>20171.669194576</DistanceMeters>
          </Trackpoint>
          <Trackpoint>
            <Time>2018-05-01T12:16:45.000Z</Time>
            <Position>
              <LatitudeDegrees>42.70670919679105281829833984375</LatitudeDegrees>
              <LongitudeDegrees>1.24166236259043216705322265625</LongitudeDegrees>
            </Position>
            <AltitudeMeters>2065.199951171875</AltitudeMeters>
            <DistanceMeters>20178.410065786</DistanceMeters>
          </Trackpoint>
          <Trackpoint>
            <Time>2018-05-01T12:16:46.000Z</Time>
            <Position>
              <LatitudeDegrees>42.706647254526615142822265625</LatitudeDegrees>
              <LongitudeDegrees>1.24162497930228710174560546875</LongitudeDegrees>
            </Position>
            <AltitudeMeters>2063</AltitudeMeters>
            <DistanceMeters>20185.951380091</DistanceMeters>
          </Trackpoint>
          <Trackpoint>
            <Time>2018-05-01T12:16:47.000Z</Time>
            <Position>
              <LatitudeDegrees>42.706591598689556121826171875</LatitudeDegrees>
              <LongitudeDegrees>1.2416027672588825225830078125</LongitudeDegrees>
            </Position>
            <AltitudeMeters>2060.199951171875</AltitudeMeters>
            <DistanceMeters>20192.407604441</DistanceMeters>
          </Trackpoint>
          <Trackpoint>
            <Time>2018-05-01T12:16:48.000Z</Time>
            <Position>
              <LatitudeDegrees>42.7065458334982395172119140625</LatitudeDegrees>
              <LongitudeDegrees>1.24155792407691478729248046875</LongitudeDegrees>
            </Position>
            <AltitudeMeters>2057.199951171875</AltitudeMeters>
            <DistanceMeters>20198.685124143</DistanceMeters>
          </Trackpoint>
          <Trackpoint>
            <Time>2018-05-01T12:16:49.000Z</Time>
            <Position>
              <LatitudeDegrees>42.70649361424148082733154296875</LatitudeDegrees>
              <LongitudeDegrees>1.24150671064853668212890625</LongitudeDegrees>
            </Position>
            <AltitudeMeters>2054.39990234375</AltitudeMeters>
            <DistanceMeters>20205.849407394</DistanceMeters>
          </Trackpoint>
          <Trackpoint>
            <Time>2018-05-01T12:16:50.000Z</Time>
            <Position>
              <LatitudeDegrees>42.70643192343413829803466796875</LatitudeDegrees>
              <LongitudeDegrees>1.24149070121347904205322265625</LongitudeDegrees>
            </Position>
            <AltitudeMeters>2050.800048828125</AltitudeMeters>
            <DistanceMeters>20212.839524964</DistanceMeters>
          </Trackpoint>
          <Trackpoint>
            <Time>2018-05-01T12:16:51.000Z</Time>
            <Position>
              <LatitudeDegrees>42.70637190900743007659912109375</LatitudeDegrees>
              <LongitudeDegrees>1.241496317088603973388671875</LongitudeDegrees>
            </Position>
            <AltitudeMeters>2047.4000244140625</AltitudeMeters>
            <DistanceMeters>20219.534694825</DistanceMeters>
          </Trackpoint>
          <Trackpoint>
            <Time>2018-05-01T12:16:52.000Z</Time>
            <Position>
              <LatitudeDegrees>42.7063305862247943878173828125</LatitudeDegrees>
              <LongitudeDegrees>1.24147720634937286376953125</LongitudeDegrees>
            </Position>
            <AltitudeMeters>2044.800048828125</AltitudeMeters>
            <DistanceMeters>20224.39315341</DistanceMeters>
          </Trackpoint>
          <Trackpoint>
            <Time>2018-05-01T12:16:53.000Z</Time>
            <Position>
              <LatitudeDegrees>42.70628549158573150634765625</LatitudeDegrees>
              <LongitudeDegrees>1.24142917804419994354248046875</LongitudeDegrees>
            </Position>
            <AltitudeMeters>2042.4000244140625</AltitudeMeters>
            <DistanceMeters>20230.766322469</DistanceMeters>
          </Trackpoint>
          <Trackpoint>
            <Time>2018-05-01T12:16:54.000Z</Time>
            <Position>
              <LatitudeDegrees>42.7062363736331462860107421875</LatitudeDegrees>
              <LongitudeDegrees>1.2413798086345195770263671875</LongitudeDegrees>
            </Position>
            <AltitudeMeters>2039</AltitudeMeters>
            <DistanceMeters>20237.563224048</DistanceMeters>
          </Trackpoint>
          <Trackpoint>
            <Time>2018-05-01T12:16:55.000Z</Time>
            <Position>
              <LatitudeDegrees>42.70619940944015979766845703125</LatitudeDegrees>
              <LongitudeDegrees>1.24132088385522365570068359375</LongitudeDegrees>
            </Position>
            <AltitudeMeters>2035.4000244140625</AltitudeMeters>
            <DistanceMeters>20243.899446888</DistanceMeters>
          </Trackpoint>
          <Trackpoint>
            <Time>2018-05-01T12:16:56.000Z</Time>
            <Position>
              <LatitudeDegrees>42.70616034977138042449951171875</LatitudeDegrees>
              <LongitudeDegrees>1.24125734902918338775634765625</LongitudeDegrees>
            </Position>
            <AltitudeMeters>2032.199951171875</AltitudeMeters>
            <DistanceMeters>20250.673725336</DistanceMeters>
          </Trackpoint>
          <Trackpoint>
            <Time>2018-05-01T12:16:57.000Z</Time>
            <Position>
              <LatitudeDegrees>42.706123888492584228515625</LatitudeDegrees>
              <LongitudeDegrees>1.2411980889737606048583984375</LongitudeDegrees>
            </Position>
            <AltitudeMeters>2028.4000244140625</AltitudeMeters>
            <DistanceMeters>20256.995680598</DistanceMeters>
          </Trackpoint>
          <Trackpoint>
            <Time>2018-05-01T12:16:58.000Z</Time>
            <Position>
              <LatitudeDegrees>42.70609463565051555633544921875</LatitudeDegrees>
              <LongitudeDegrees>1.24113765545189380645751953125</LongitudeDegrees>
            </Position>
            <AltitudeMeters>2024.5999755859375</AltitudeMeters>
            <DistanceMeters>20262.914098168</DistanceMeters>
          </Trackpoint>
          <Trackpoint>
            <Time>2018-05-01T12:16:59.000Z</Time>
            <Position>
              <LatitudeDegrees>42.70605423487722873687744140625</LatitudeDegrees>
              <LongitudeDegrees>1.241070516407489776611328125</LongitudeDegrees>
            </Position>
            <AltitudeMeters>2021.199951171875</AltitudeMeters>
            <DistanceMeters>20270.01126425</DistanceMeters>
          </Trackpoint>
          <Trackpoint>
            <Time>2018-05-01T12:17:00.000Z</Time>
            <Position>
              <LatitudeDegrees>42.7060181088745594024658203125</LatitudeDegrees>
              <LongitudeDegrees>1.2410069815814495086669921875</LongitudeDegrees>
            </Position>
            <AltitudeMeters>2016.800048828125</AltitudeMeters>
            <DistanceMeters>20276.581177903</DistanceMeters>
          </Trackpoint>
          <Trackpoint>
            <Time>2018-05-01T12:17:01.000Z</Time>
            <Position>
              <LatitudeDegrees>42.7059845812618732452392578125</LatitudeDegrees>
              <LongitudeDegrees>1.24093464575707912445068359375</LongitudeDegrees>
            </Position>
            <AltitudeMeters>2013.4000244140625</AltitudeMeters>
            <DistanceMeters>20283.575815432</DistanceMeters>
          </Trackpoint>
          <Trackpoint>
            <Time>2018-05-01T12:17:02.000Z</Time>
            <Position>
              <LatitudeDegrees>42.705940492451190948486328125</LatitudeDegrees>
              <LongitudeDegrees>1.24088536016643047332763671875</LongitudeDegrees>
            </Position>
            <AltitudeMeters>2010.199951171875</AltitudeMeters>
            <DistanceMeters>20289.926273794</DistanceMeters>
          </Trackpoint>
          <Trackpoint>
            <Time>2018-05-01T12:17:03.000Z</Time>
            <Position>
              <LatitudeDegrees>42.70588584244251251220703125</LatitudeDegrees>
              <LongitudeDegrees>1.240894496440887451171875</LongitudeDegrees>
            </Position>
            <AltitudeMeters>2006.4000244140625</AltitudeMeters>
            <DistanceMeters>20296.053839204</DistanceMeters>
          </Trackpoint>
          <Trackpoint>
            <Time>2018-05-01T12:17:04.000Z</Time>
            <Position>
              <LatitudeDegrees>42.7058709226548671722412109375</LatitudeDegrees>
              <LongitudeDegrees>1.24089919030666351318359375</LongitudeDegrees>
            </Position>
            <AltitudeMeters>2003.800048828125</AltitudeMeters>
            <DistanceMeters>20297.756382753</DistanceMeters>
          </Trackpoint>
          <Trackpoint>
            <Time>2018-05-01T12:17:05.000Z</Time>
            <Position>
              <LatitudeDegrees>42.705868743360042572021484375</LatitudeDegrees>
              <LongitudeDegrees>1.24090279452502727508544921875</LongitudeDegrees>
            </Position>
            <AltitudeMeters>2002.800048828125</AltitudeMeters>
            <DistanceMeters>20298.136489611</DistanceMeters>
          </Trackpoint>
          <Trackpoint>
            <Time>2018-05-01T12:17:08.000Z</Time>
            <Position>
              <LatitudeDegrees>42.70587855018675327301025390625</LatitudeDegrees>
              <LongitudeDegrees>1.24090011231601238250732421875</LongitudeDegrees>
            </Position>
            <AltitudeMeters>2001</AltitudeMeters>
            <DistanceMeters>20299.244682011</DistanceMeters>
          </Trackpoint>
          <Trackpoint>
            <Time>2018-05-01T12:17:09.000Z</Time>
            <Position>
              <LatitudeDegrees>42.70588709972798824310302734375</LatitudeDegrees>
              <LongitudeDegrees>1.24090061523020267486572265625</LongitudeDegrees>
            </Position>
            <AltitudeMeters>2001</AltitudeMeters>
            <DistanceMeters>20300.194949155</DistanceMeters>
          </Trackpoint>
          <Trackpoint>
            <Time>2018-05-01T12:17:36.000Z</Time>
            <Position>
              <LatitudeDegrees>42.70585927180945873260498046875</LatitudeDegrees>
              <LongitudeDegrees>1.2409439496695995330810546875</LongitudeDegrees>
            </Position>
            <AltitudeMeters>2001</AltitudeMeters>
            <DistanceMeters>20304.901410407</DistanceMeters>
          </Trackpoint>
          <Trackpoint>
            <Time>2018-05-01T12:17:37.000Z</Time>
            <Position>
              <LatitudeDegrees>42.70586262457072734832763671875</LatitudeDegrees>
              <LongitudeDegrees>1.2408919818699359893798828125</LongitudeDegrees>
            </Position>
            <AltitudeMeters>2000.4000244140625</AltitudeMeters>
            <DistanceMeters>20309.1680993</DistanceMeters>
          </Trackpoint>
          <Trackpoint>
            <Time>2018-05-01T12:17:39.000Z</Time>
            <Position>
              <LatitudeDegrees>42.70588877610862255096435546875</LatitudeDegrees>
              <LongitudeDegrees>1.2407712824642658233642578125</LongitudeDegrees>
            </Position>
            <AltitudeMeters>1996.4000244140625</AltitudeMeters>
            <DistanceMeters>20319.459979434</DistanceMeters>
          </Trackpoint>
          <Trackpoint>
            <Time>2018-05-01T12:17:40.000Z</Time>
            <Position>
              <LatitudeDegrees>42.705908976495265960693359375</LatitudeDegrees>
              <LongitudeDegrees>1.24070112593472003936767578125</LongitudeDegrees>
            </Position>
            <AltitudeMeters>1992.4000244140625</AltitudeMeters>
            <DistanceMeters>20325.622811699</DistanceMeters>
          </Trackpoint>
          <Trackpoint>
            <Time>2018-05-01T12:17:41.000Z</Time>
            <Position>
              <LatitudeDegrees>42.70592163316905498504638671875</LatitudeDegrees>
              <LongitudeDegrees>1.2406276166439056396484375</LongitudeDegrees>
            </Position>
            <AltitudeMeters>1990.199951171875</AltitudeMeters>
            <DistanceMeters>20331.797354819</DistanceMeters>
          </Trackpoint>
          <Trackpoint>
            <Time>2018-05-01T12:17:42.000Z</Time>
            <Position>
              <LatitudeDegrees>42.70592666231095790863037109375</LatitudeDegrees>
              <LongitudeDegrees>1.24054689891636371612548828125</LongitudeDegrees>
            </Position>
            <AltitudeMeters>1988.5999755859375</AltitudeMeters>
            <DistanceMeters>20338.422700214</DistanceMeters>
          </Trackpoint>
          <Trackpoint>
            <Time>2018-05-01T12:17:43.000Z</Time>
            <Position>
              <LatitudeDegrees>42.70594895817339420318603515625</LatitudeDegrees>
              <LongitudeDegrees>1.24047749675810337066650390625</LongitudeDegrees>
            </Position>
            <AltitudeMeters>1985.4000244140625</AltitudeMeters>
            <DistanceMeters>20344.617684062</DistanceMeters>
          </Trackpoint>
          <Trackpoint>
            <Time>2018-05-01T12:17:44.000Z</Time>
            <Position>
              <LatitudeDegrees>42.70596639253199100494384765625</LatitudeDegrees>
              <LongitudeDegrees>1.24041764996945858001708984375</LongitudeDegrees>
            </Position>
            <AltitudeMeters>1983.199951171875</AltitudeMeters>
            <DistanceMeters>20349.882884408</DistanceMeters>
          </Trackpoint>
          <Trackpoint>
            <Time>2018-05-01T12:17:45.000Z</Time>
            <Position>
              <LatitudeDegrees>42.705981396138668060302734375</LatitudeDegrees>
              <LongitudeDegrees>1.2403736449778079986572265625</LongitudeDegrees>
            </Position>
            <AltitudeMeters>1981.800048828125</AltitudeMeters>
            <DistanceMeters>20353.849040377</DistanceMeters>
          </Trackpoint>
          <Trackpoint>
            <Time>2018-05-01T12:17:46.000Z</Time>
            <Position>
              <LatitudeDegrees>42.7060026861727237701416015625</LatitudeDegrees>
              <LongitudeDegrees>1.24033366329967975616455078125</LongitudeDegrees>
            </Position>
            <AltitudeMeters>1980.4000244140625</AltitudeMeters>
            <DistanceMeters>20357.887396237</DistanceMeters>
          </Trackpoint>
          <Trackpoint>
            <Time>2018-05-01T12:17:47.000Z</Time>
            <Position>
              <LatitudeDegrees>42.7060098946094512939453125</LatitudeDegrees>
              <LongitudeDegrees>1.24029301106929779052734375</LongitudeDegrees>
            </Position>
            <AltitudeMeters>1978.5999755859375</AltitudeMeters>
            <DistanceMeters>20361.308357955</DistanceMeters>
          </Trackpoint>
          <Trackpoint>
            <Time>2018-05-01T12:17:48.000Z</Time>
            <Position>
              <LatitudeDegrees>42.70599036477506160736083984375</LatitudeDegrees>
              <LongitudeDegrees>1.24025973491370677947998046875</LongitudeDegrees>
            </Position>
            <AltitudeMeters>1977.199951171875</AltitudeMeters>
            <DistanceMeters>20364.792094848</DistanceMeters>
          </Trackpoint>
          <Trackpoint>
            <Time>2018-05-01T12:17:49.000Z</Time>
            <Position>
              <LatitudeDegrees>42.705973684787750244140625</LatitudeDegrees>
              <LongitudeDegrees>1.240218915045261383056640625</LongitudeDegrees>
            </Position>
            <AltitudeMeters>1976</AltitudeMeters>
            <DistanceMeters>20368.612121488</DistanceMeters>
          </Trackpoint>
          <Trackpoint>
            <Time>2018-05-01T12:17:50.000Z</Time>
            <Position>
              <LatitudeDegrees>42.7059829048812389373779296875</LatitudeDegrees>
              <LongitudeDegrees>1.240169294178485870361328125</LongitudeDegrees>
            </Position>
            <AltitudeMeters>1972.5999755859375</AltitudeMeters>
            <DistanceMeters>20372.797614088</DistanceMeters>
          </Trackpoint>
          <Trackpoint>
            <Time>2018-05-01T12:17:51.000Z</Time>
            <Position>
              <LatitudeDegrees>42.7060046978294849395751953125</LatitudeDegrees>
              <LongitudeDegrees>1.24011657200753688812255859375</LongitudeDegrees>
            </Position>
            <AltitudeMeters>1969.5999755859375</AltitudeMeters>
            <DistanceMeters>20377.74539513</DistanceMeters>
          </Trackpoint>
          <Trackpoint>
            <Time>2018-05-01T12:17:52.000Z</Time>
            <Position>
              <LatitudeDegrees>42.70601836033165454864501953125</LatitudeDegrees>
              <LongitudeDegrees>1.24007801525294780731201171875</LongitudeDegrees>
            </Position>
            <AltitudeMeters>1967.4000244140625</AltitudeMeters>
            <DistanceMeters>20381.247229479</DistanceMeters>
          </Trackpoint>
          <Trackpoint>
            <Time>2018-05-01T12:17:53.000Z</Time>
            <Position>
              <LatitudeDegrees>42.70602020435035228729248046875</LatitudeDegrees>
              <LongitudeDegrees>1.24003862030804157257080078125</LongitudeDegrees>
            </Position>
            <AltitudeMeters>1965.199951171875</AltitudeMeters>
            <DistanceMeters>20384.475341655</DistanceMeters>
          </Trackpoint>
          <Trackpoint>
            <Time>2018-05-01T12:17:54.000Z</Time>
            <Position>
              <LatitudeDegrees>42.70603747107088565826416015625</LatitudeDegrees>
              <LongitudeDegrees>1.23998061753809452056884765625</LongitudeDegrees>
            </Position>
            <AltitudeMeters>1962.5999755859375</AltitudeMeters>
            <DistanceMeters>20389.592686834</DistanceMeters>
          </Trackpoint>
          <Trackpoint>
            <Time>2018-05-01T12:17:55.000Z</Time>
            <Position>
              <LatitudeDegrees>42.70606898702681064605712890625</LatitudeDegrees>
              <LongitudeDegrees>1.23992529697716236114501953125</LongitudeDegrees>
            </Position>
            <AltitudeMeters>1959.5999755859375</AltitudeMeters>
            <DistanceMeters>20395.317997087</DistanceMeters>
          </Trackpoint>
          <Trackpoint>
            <Time>2018-05-01T12:17:56.000Z</Time>
            <Position>
              <LatitudeDegrees>42.70609044469892978668212890625</LatitudeDegrees>
              <LongitudeDegrees>1.23988422565162181854248046875</LongitudeDegrees>
            </Position>
            <AltitudeMeters>1956.800048828125</AltitudeMeters>
            <DistanceMeters>20399.440448284</DistanceMeters>
          </Trackpoint>
          <Trackpoint>
            <Time>2018-05-01T12:17:57.000Z</Time>
            <Position>
              <LatitudeDegrees>42.7060968987643718719482421875</LatitudeDegrees>
              <LongitudeDegrees>1.239838041365146636962890625</LongitudeDegrees>
            </Position>
            <AltitudeMeters>1954.800048828125</AltitudeMeters>
            <DistanceMeters>20403.285215525</DistanceMeters>
          </Trackpoint>
          <Trackpoint>
            <Time>2018-05-01T12:17:58.000Z</Time>
            <Position>
              <LatitudeDegrees>42.70611458458006381988525390625</LatitudeDegrees>
              <LongitudeDegrees>1.23977509327232837677001953125</LongitudeDegrees>
            </Position>
            <AltitudeMeters>1951.800048828125</AltitudeMeters>
            <DistanceMeters>20408.796764958</DistanceMeters>
          </Trackpoint>
          <Trackpoint>
            <Time>2018-05-01T12:17:59.000Z</Time>
            <Position>
              <LatitudeDegrees>42.7061287499964237213134765625</LatitudeDegrees>
              <LongitudeDegrees>1.239706613123416900634765625</LongitudeDegrees>
            </Position>
            <AltitudeMeters>1948.800048828125</AltitudeMeters>
            <DistanceMeters>20414.615939012</DistanceMeters>
          </Trackpoint>
          <Trackpoint>
            <Time>2018-05-01T12:18:00.000Z</Time>
            <Position>
              <LatitudeDegrees>42.7061176858842372894287109375</LatitudeDegrees>
              <LongitudeDegrees>1.23968574218451976776123046875</LongitudeDegrees>
            </Position>
            <AltitudeMeters>1946.800048828125</AltitudeMeters>
            <DistanceMeters>20416.719445004</DistanceMeters>
          </Trackpoint>
          <Trackpoint>
            <Time>2018-05-01T12:18:01.000Z</Time>
            <Position>
              <LatitudeDegrees>42.70609413273632526397705078125</LatitudeDegrees>
              <LongitudeDegrees>1.23967199586331844329833984375</LongitudeDegrees>
            </Position>
            <AltitudeMeters>1943.800048828125</AltitudeMeters>
            <DistanceMeters>20419.571829773</DistanceMeters>
          </Trackpoint>
          <Trackpoint>
            <Time>2018-05-01T12:18:03.000Z</Time>
            <Position>
              <LatitudeDegrees>42.70607653073966503143310546875</LatitudeDegrees>
              <LongitudeDegrees>1.2396802939474582672119140625</LongitudeDegrees>
            </Position>
            <AltitudeMeters>1939.800048828125</AltitudeMeters>
            <DistanceMeters>20421.645067914</DistanceMeters>
          </Trackpoint>
          <Trackpoint>
            <Time>2018-05-01T12:18:04.000Z</Time>
            <Position>
              <LatitudeDegrees>42.70606982521712779998779296875</LatitudeDegrees>
              <LongitudeDegrees>1.2396863289177417755126953125</LongitudeDegrees>
            </Position>
            <AltitudeMeters>1939</AltitudeMeters>
            <DistanceMeters>20422.541548144</DistanceMeters>
          </Trackpoint>
          <Trackpoint>
            <Time>2018-05-01T12:18:05.000Z</Time>
            <Position>
              <LatitudeDegrees>42.706062532961368560791015625</LatitudeDegrees>
              <LongitudeDegrees>1.23969144187867641448974609375</LongitudeDegrees>
            </Position>
            <AltitudeMeters>1938.5999755859375</AltitudeMeters>
            <DistanceMeters>20423.453012369</DistanceMeters>
          </Trackpoint>
          <Trackpoint>
            <Time>2018-05-01T12:18:11.000Z</Time>
            <Position>
              <LatitudeDegrees>42.70604048855602741241455078125</LatitudeDegrees>
              <LongitudeDegrees>1.23968004249036312103271484375</LongitudeDegrees>
            </Position>
            <AltitudeMeters>1938</AltitudeMeters>
            <DistanceMeters>20426.077883476</DistanceMeters>
          </Trackpoint>
          <Trackpoint>
            <Time>2018-05-01T12:18:12.000Z</Time>
            <Position>
              <LatitudeDegrees>42.7060603536665439605712890625</LatitudeDegrees>
              <LongitudeDegrees>1.23962581157684326171875</LongitudeDegrees>
            </Position>
            <AltitudeMeters>1937.4000244140625</AltitudeMeters>
            <DistanceMeters>20431.034781498</DistanceMeters>
          </Trackpoint>
          <Trackpoint>
            <Time>2018-05-01T12:18:14.000Z</Time>
            <Position>
              <LatitudeDegrees>42.70607401616871356964111328125</LatitudeDegrees>
              <LongitudeDegrees>1.23951525427401065826416015625</LongitudeDegrees>
            </Position>
            <AltitudeMeters>1933.199951171875</AltitudeMeters>
            <DistanceMeters>20440.204736342</DistanceMeters>
          </Trackpoint>
          <Trackpoint>
            <Time>2018-05-01T12:18:15.000Z</Time>
            <Position>
              <LatitudeDegrees>42.7060583420097827911376953125</LatitudeDegrees>
              <LongitudeDegrees>1.239467896521091461181640625</LongitudeDegrees>
            </Position>
            <AltitudeMeters>1930.5999755859375</AltitudeMeters>
            <DistanceMeters>20444.453397639</DistanceMeters>
          </Trackpoint>
          <Trackpoint>
            <Time>2018-05-01T12:18:16.000Z</Time>
            <Position>
              <LatitudeDegrees>42.706060521304607391357421875</LatitudeDegrees>
              <LongitudeDegrees>1.2393939681351184844970703125</LongitudeDegrees>
            </Position>
            <AltitudeMeters>1928.4000244140625</AltitudeMeters>
            <DistanceMeters>20450.50459256</DistanceMeters>
          </Trackpoint>
          <Trackpoint>
            <Time>2018-05-01T12:18:17.000Z</Time>
            <Position>
              <LatitudeDegrees>42.706073261797428131103515625</LatitudeDegrees>
              <LongitudeDegrees>1.23933202587068080902099609375</LongitudeDegrees>
            </Position>
            <AltitudeMeters>1923.5999755859375</AltitudeMeters>
            <DistanceMeters>20455.765503537</DistanceMeters>
          </Trackpoint>
          <Trackpoint>
            <Time>2018-05-01T12:18:18.000Z</Time>
            <Position>
              <LatitudeDegrees>42.7060684002935886383056640625</LatitudeDegrees>
              <LongitudeDegrees>1.23927637003362178802490234375</LongitudeDegrees>
            </Position>
            <AltitudeMeters>1920.5999755859375</AltitudeMeters>
            <DistanceMeters>20460.348511044</DistanceMeters>
          </Trackpoint>
          <Trackpoint>
            <Time>2018-05-01T12:18:19.000Z</Time>
            <Position>
              <LatitudeDegrees>42.7060653828084468841552734375</LatitudeDegrees>
              <LongitudeDegrees>1.2392035312950611114501953125</LongitudeDegrees>
            </Position>
            <AltitudeMeters>1917.800048828125</AltitudeMeters>
            <DistanceMeters>20466.314796433</DistanceMeters>
          </Trackpoint>
          <Trackpoint>
            <Time>2018-05-01T12:18:20.000Z</Time>
            <Position>
              <LatitudeDegrees>42.70607787184417247772216796875</LatitudeDegrees>
              <LongitudeDegrees>1.23912985436618328094482421875</LongitudeDegrees>
            </Position>
            <AltitudeMeters>1914.5999755859375</AltitudeMeters>
            <DistanceMeters>20472.498108139</DistanceMeters>
          </Trackpoint>
          <Trackpoint>
            <Time>2018-05-01T12:18:21.000Z</Time>
            <Position>
              <LatitudeDegrees>42.706069909036159515380859375</LatitudeDegrees>
              <LongitudeDegrees>1.23906028456985950469970703125</LongitudeDegrees>
            </Position>
            <AltitudeMeters>1911.4000244140625</AltitudeMeters>
            <DistanceMeters>20478.2572288</DistanceMeters>
          </Trackpoint>
          <Trackpoint>
            <Time>2018-05-01T12:18:22.000Z</Time>
            <Position>
              <LatitudeDegrees>42.70606026984751224517822265625</LatitudeDegrees>
              <LongitudeDegrees>1.23897931538522243499755859375</LongitudeDegrees>
            </Position>
            <AltitudeMeters>1908.5999755859375</AltitudeMeters>
            <DistanceMeters>20484.965872552</DistanceMeters>
          </Trackpoint>
          <Trackpoint>
            <Time>2018-05-01T12:18:23.000Z</Time>
            <Position>
              <LatitudeDegrees>42.706089355051517486572265625</LatitudeDegrees>
              <LongitudeDegrees>1.23888862319290637969970703125</LongitudeDegrees>
            </Position>
            <AltitudeMeters>1904.800048828125</AltitudeMeters>
            <DistanceMeters>20493.059337479</DistanceMeters>
          </Trackpoint>
          <Trackpoint>
            <Time>2018-05-01T12:18:24.000Z</Time>
            <Position>
              <LatitudeDegrees>42.7061186917126178741455078125</LatitudeDegrees>
              <LongitudeDegrees>1.2388058938086032867431640625</LongitudeDegrees>
            </Position>
            <AltitudeMeters>1900</AltitudeMeters>
            <DistanceMeters>20500.571858878</DistanceMeters>
          </Trackpoint>
          <Trackpoint>
            <Time>2018-05-01T12:18:25.000Z</Time>
            <Position>
              <LatitudeDegrees>42.706113159656524658203125</LatitudeDegrees>
              <LongitudeDegrees>1.2387110106647014617919921875</LongitudeDegrees>
            </Position>
            <AltitudeMeters>1896.4000244140625</AltitudeMeters>
            <DistanceMeters>20508.356513207</DistanceMeters>
          </Trackpoint>
          <Trackpoint>
            <Time>2018-05-01T12:18:26.000Z</Time>
            <Position>
              <LatitudeDegrees>42.70609580911695957183837890625</LatitudeDegrees>
              <LongitudeDegrees>1.2386338971555233001708984375</LongitudeDegrees>
            </Position>
            <AltitudeMeters>1892.800048828125</AltitudeMeters>
            <DistanceMeters>20514.952489883</DistanceMeters>
          </Trackpoint>
          <Trackpoint>
            <Time>2018-05-01T12:18:27.000Z</Time>
            <Position>
              <LatitudeDegrees>42.706070579588413238525390625</LatitudeDegrees>
              <LongitudeDegrees>1.23854546807706356048583984375</LongitudeDegrees>
            </Position>
            <AltitudeMeters>1889.199951171875</AltitudeMeters>
            <DistanceMeters>20522.711000666</DistanceMeters>
          </Trackpoint>
          <Trackpoint>
            <Time>2018-05-01T12:18:28.000Z</Time>
            <Position>
              <LatitudeDegrees>42.706047780811786651611328125</LatitudeDegrees>
              <LongitudeDegrees>1.23844840563833713531494140625</LongitudeDegrees>
            </Position>
            <AltitudeMeters>1885.800048828125</AltitudeMeters>
            <DistanceMeters>20531.045228165</DistanceMeters>
          </Trackpoint>
          <Trackpoint>
            <Time>2018-05-01T12:18:29.000Z</Time>
            <Position>
              <LatitudeDegrees>42.7060459367930889129638671875</LatitudeDegrees>
              <LongitudeDegrees>1.23834346421062946319580078125</LongitudeDegrees>
            </Position>
            <AltitudeMeters>1881.800048828125</AltitudeMeters>
            <DistanceMeters>20539.630301487</DistanceMeters>
          </Trackpoint>
          <Trackpoint>
            <Time>2018-05-01T12:18:30.000Z</Time>
            <Position>
              <LatitudeDegrees>42.70604132674634456634521484375</LatitudeDegrees>
              <LongitudeDegrees>1.2382392771542072296142578125</LongitudeDegrees>
            </Position>
            <AltitudeMeters>1878.4000244140625</AltitudeMeters>
            <DistanceMeters>20548.16791105</DistanceMeters>
          </Trackpoint>
          <Trackpoint>
            <Time>2018-05-01T12:18:31.000Z</Time>
            <Position>
              <LatitudeDegrees>42.706024311482906341552734375</LatitudeDegrees>
              <LongitudeDegrees>1.2381360121071338653564453125</LongitudeDegrees>
            </Position>
            <AltitudeMeters>1874.5999755859375</AltitudeMeters>
            <DistanceMeters>20556.823170386</DistanceMeters>
          </Trackpoint>
          <Trackpoint>
            <Time>2018-05-01T12:18:32.000Z</Time>
            <Position>
              <LatitudeDegrees>42.70599723793566226959228515625</LatitudeDegrees>
              <LongitudeDegrees>1.23804104514420032501220703125</LongitudeDegrees>
            </Position>
            <AltitudeMeters>1871</AltitudeMeters>
            <DistanceMeters>20565.154146773</DistanceMeters>
          </Trackpoint>
          <Trackpoint>
            <Time>2018-05-01T12:18:33.000Z</Time>
            <Position>
              <LatitudeDegrees>42.705977372825145721435546875</LatitudeDegrees>
              <LongitudeDegrees>1.23794876039028167724609375</LongitudeDegrees>
            </Position>
            <AltitudeMeters>1868.800048828125</AltitudeMeters>
            <DistanceMeters>20573.019006825</DistanceMeters>
          </Trackpoint>
          <Trackpoint>
            <Time>2018-05-01T12:18:34.000Z</Time>
            <Position>
              <LatitudeDegrees>42.7059349603950977325439453125</LatitudeDegrees>
              <LongitudeDegrees>1.23786292970180511474609375</LongitudeDegrees>
            </Position>
            <AltitudeMeters>1865.4000244140625</AltitudeMeters>
            <DistanceMeters>20581.478519566</DistanceMeters>
          </Trackpoint>
          <Trackpoint>
            <Time>2018-05-01T12:18:35.000Z</Time>
            <Position>
              <LatitudeDegrees>42.7058598585426807403564453125</LatitudeDegrees>
              <LongitudeDegrees>1.2378315813839435577392578125</LongitudeDegrees>
            </Position>
            <AltitudeMeters>1861.4000244140625</AltitudeMeters>
            <DistanceMeters>20590.222010126</DistanceMeters>
          </Trackpoint>
          <Trackpoint>
            <Time>2018-05-01T12:18:36.000Z</Time>
            <Position>
              <LatitudeDegrees>42.70578685216605663299560546875</LatitudeDegrees>
              <LongitudeDegrees>1.2378300726413726806640625</LongitudeDegrees>
            </Position>
            <AltitudeMeters>1859</AltitudeMeters>
            <DistanceMeters>20598.348877857</DistanceMeters>
          </Trackpoint>
          <Trackpoint>
            <Time>2018-05-01T12:18:37.000Z</Time>
            <Position>
              <LatitudeDegrees>42.7057378180325031280517578125</LatitudeDegrees>
              <LongitudeDegrees>1.23784591443836688995361328125</LongitudeDegrees>
            </Position>
            <AltitudeMeters>1857</AltitudeMeters>
            <DistanceMeters>20603.958674324</DistanceMeters>
          </Trackpoint>
          <Trackpoint>
            <Time>2018-05-01T12:18:38.000Z</Time>
            <Position>
              <LatitudeDegrees>42.70570403896272182464599609375</LatitudeDegrees>
              <LongitudeDegrees>1.2378657795488834381103515625</LongitudeDegrees>
            </Position>
            <AltitudeMeters>1855.800048828125</AltitudeMeters>
            <DistanceMeters>20608.054755626</DistanceMeters>
          </Trackpoint>
          <Trackpoint>
            <Time>2018-05-01T12:18:39.000Z</Time>
            <Position>
              <LatitudeDegrees>42.70567554049193859100341796875</LatitudeDegrees>
              <LongitudeDegrees>1.23788463883101940155029296875</LongitudeDegrees>
            </Position>
            <AltitudeMeters>1855.5999755859375</AltitudeMeters>
            <DistanceMeters>20611.582282428</DistanceMeters>
          </Trackpoint>
          <Trackpoint>
            <Time>2018-05-01T12:18:53.000Z</Time>
            <Position>
              <LatitudeDegrees>42.70566598512232303619384765625</LatitudeDegrees>
              <LongitudeDegrees>1.2379107065498828887939453125</LongitudeDegrees>
            </Position>
            <AltitudeMeters>1855.199951171875</AltitudeMeters>
            <DistanceMeters>20613.9655403</DistanceMeters>
          </Trackpoint>
          <Trackpoint>
            <Time>2018-05-01T12:18:54.000Z</Time>
            <Position>
              <LatitudeDegrees>42.70567537285387516021728515625</LatitudeDegrees>
              <LongitudeDegrees>1.2378915958106517791748046875</LongitudeDegrees>
            </Position>
            <AltitudeMeters>1854.5999755859375</AltitudeMeters>
            <DistanceMeters>20615.846973256</DistanceMeters>
          </Trackpoint>
          <Trackpoint>
            <Time>2018-05-01T12:18:55.000Z</Time>
            <Position>
              <LatitudeDegrees>42.70566950552165508270263671875</LatitudeDegrees>
              <LongitudeDegrees>1.2378620915114879608154296875</LongitudeDegrees>
            </Position>
            <AltitudeMeters>1853.800048828125</AltitudeMeters>
            <DistanceMeters>20618.348541359</DistanceMeters>
          </Trackpoint>
          <Trackpoint>
            <Time>2018-05-01T12:18:56.000Z</Time>
            <Position>
              <LatitudeDegrees>42.7056429348886013031005859375</LatitudeDegrees>
              <LongitudeDegrees>1.237844489514827728271484375</LongitudeDegrees>
            </Position>
            <AltitudeMeters>1852.5999755859375</AltitudeMeters>
            <DistanceMeters>20621.637618977</DistanceMeters>
          </Trackpoint>
          <Trackpoint>
            <Time>2018-05-01T12:18:57.000Z</Time>
            <Position>
              <LatitudeDegrees>42.7056174539029598236083984375</LatitudeDegrees>
              <LongitudeDegrees>1.2378426454961299896240234375</LongitudeDegrees>
            </Position>
            <AltitudeMeters>1851.800048828125</AltitudeMeters>
            <DistanceMeters>20624.478901846</DistanceMeters>
          </Trackpoint>
          <Trackpoint>
            <Time>2018-05-01T12:19:00.000Z</Time>
            <Position>
              <LatitudeDegrees>42.70561099983751773834228515625</LatitudeDegrees>
              <LongitudeDegrees>1.237828396260738372802734375</LongitudeDegrees>
            </Position>
            <AltitudeMeters>1850.5999755859375</AltitudeMeters>
            <DistanceMeters>20625.852687119</DistanceMeters>
          </Trackpoint>
          <Trackpoint>
            <Time>2018-05-01T12:20:07.000Z</Time>
            <Position>
              <LatitudeDegrees>42.70565156824886798858642578125</LatitudeDegrees>
              <LongitudeDegrees>1.2378423102200031280517578125</LongitudeDegrees>
            </Position>
            <AltitudeMeters>1850.4000244140625</AltitudeMeters>
            <DistanceMeters>20630.509965683</DistanceMeters>
          </Trackpoint>
          <Trackpoint>
            <Time>2018-05-01T12:21:23.000Z</Time>
            <Position>
              <LatitudeDegrees>42.7057052962481975555419921875</LatitudeDegrees>
              <LongitudeDegrees>1.237828731536865234375</LongitudeDegrees>
            </Position>
            <AltitudeMeters>1849.199951171875</AltitudeMeters>
            <DistanceMeters>20636.592417754</DistanceMeters>
          </Trackpoint>
          <Trackpoint>
            <Time>2018-05-01T12:21:51.000Z</Time>
            <Position>
              <LatitudeDegrees>42.705708481371402740478515625</LatitudeDegrees>
              <LongitudeDegrees>1.2378164939582347869873046875</LongitudeDegrees>
            </Position>
            <AltitudeMeters>1849.199951171875</AltitudeMeters>
            <DistanceMeters>20637.654848719</DistanceMeters>
          </Trackpoint>
          <Trackpoint>
            <Time>2018-05-01T12:22:06.000Z</Time>
            <Position>
              <LatitudeDegrees>42.7057079784572124481201171875</LatitudeDegrees>
              <LongitudeDegrees>1.23781976290047168731689453125</LongitudeDegrees>
            </Position>
            <AltitudeMeters>1849</AltitudeMeters>
            <DistanceMeters>20637.923624855</DistanceMeters>
          </Trackpoint>
          <Trackpoint>
            <Time>2018-05-01T12:22:12.000Z</Time>
            <Position>
              <LatitudeDegrees>42.70570705644786357879638671875</LatitudeDegrees>
              <LongitudeDegrees>1.23781221918761730194091796875</LongitudeDegrees>
            </Position>
            <AltitudeMeters>1848.800048828125</AltitudeMeters>
            <DistanceMeters>20638.553960768</DistanceMeters>
          </Trackpoint>
          <Trackpoint>
            <Time>2018-05-01T12:22:49.000Z</Time>
            <Position>
              <LatitudeDegrees>42.705703787505626678466796875</LatitudeDegrees>
              <LongitudeDegrees>1.23786066658794879913330078125</LongitudeDegrees>
            </Position>
            <AltitudeMeters>1849.4000244140625</AltitudeMeters>
            <DistanceMeters>20642.533753989</DistanceMeters>
          </Trackpoint>
          <Trackpoint>
            <Time>2018-05-01T12:23:00.000Z</Time>
            <Position>
              <LatitudeDegrees>42.70565710030496120452880859375</LatitudeDegrees>
              <LongitudeDegrees>1.23780450783669948577880859375</LongitudeDegrees>
            </Position>
            <AltitudeMeters>1847.800048828125</AltitudeMeters>
            <DistanceMeters>20649.46875126</DistanceMeters>
          </Trackpoint>
          <Trackpoint>
            <Time>2018-05-01T12:23:01.000Z</Time>
            <Position>
              <LatitudeDegrees>42.705644778907299041748046875</LatitudeDegrees>
              <LongitudeDegrees>1.237799562513828277587890625</LongitudeDegrees>
            </Position>
            <AltitudeMeters>1847.5999755859375</AltitudeMeters>
            <DistanceMeters>20650.897316021</DistanceMeters>
          </Trackpoint>
          <Trackpoint>
            <Time>2018-05-01T12:23:02.000Z</Time>
            <Position>
              <LatitudeDegrees>42.70563648082315921783447265625</LatitudeDegrees>
              <LongitudeDegrees>1.23779185116291046142578125</LongitudeDegrees>
            </Position>
            <AltitudeMeters>1847.4000244140625</AltitudeMeters>
            <DistanceMeters>20652.01766446</DistanceMeters>
          </Trackpoint>
          <Trackpoint>
            <Time>2018-05-01T12:23:03.000Z</Time>
            <Position>
              <LatitudeDegrees>42.70562524907290935516357421875</LatitudeDegrees>
              <LongitudeDegrees>1.2377890013158321380615234375</LongitudeDegrees>
            </Position>
            <AltitudeMeters>1847.199951171875</AltitudeMeters>
            <DistanceMeters>20653.292581618</DistanceMeters>
          </Trackpoint>
          <Trackpoint>
            <Time>2018-05-01T12:23:04.000Z</Time>
            <Position>
              <LatitudeDegrees>42.70561150275170803070068359375</LatitudeDegrees>
              <LongitudeDegrees>1.2377849780023097991943359375</LongitudeDegrees>
            </Position>
            <AltitudeMeters>1847</AltitudeMeters>
            <DistanceMeters>20654.859802341</DistanceMeters>
          </Trackpoint>
          <Trackpoint>
            <Time>2018-05-01T12:23:08.000Z</Time>
            <Position>
              <LatitudeDegrees>42.7055909670889377593994140625</LatitudeDegrees>
              <LongitudeDegrees>1.2377615086734294891357421875</LongitudeDegrees>
            </Position>
            <AltitudeMeters>1846</AltitudeMeters>
            <DistanceMeters>20657.845214448</DistanceMeters>
          </Trackpoint>
          <Trackpoint>
            <Time>2018-05-01T12:23:11.000Z</Time>
            <Position>
              <LatitudeDegrees>42.7055698446929454803466796875</LatitudeDegrees>
              <LongitudeDegrees>1.23774893581867218017578125</LongitudeDegrees>
            </Position>
            <AltitudeMeters>1845.4000244140625</AltitudeMeters>
            <DistanceMeters>20660.409175378</DistanceMeters>
          </Trackpoint>
          <Trackpoint>
            <Time>2018-05-01T12:23:12.000Z</Time>
            <Position>
              <LatitudeDegrees>42.70556255243718624114990234375</LatitudeDegrees>
              <LongitudeDegrees>1.237736530601978302001953125</LongitudeDegrees>
            </Position>
            <AltitudeMeters>1845.4000244140625</AltitudeMeters>
            <DistanceMeters>20661.705166975</DistanceMeters>
          </Trackpoint>
          <Trackpoint>
            <Time>2018-05-01T12:23:13.000Z</Time>
            <Position>
              <LatitudeDegrees>42.70555349998176097869873046875</LatitudeDegrees>
              <LongitudeDegrees>1.23772856779396533966064453125</LongitudeDegrees>
            </Position>
            <AltitudeMeters>1845.199951171875</AltitudeMeters>
            <DistanceMeters>20662.90340825</DistanceMeters>
          </Trackpoint>
          <Trackpoint>
            <Time>2018-05-01T12:23:27.000Z</Time>
            <Position>
              <LatitudeDegrees>42.70543330349028110504150390625</LatitudeDegrees>
              <LongitudeDegrees>1.23765430413186550140380859375</LongitudeDegrees>
            </Position>
            <AltitudeMeters>1842</AltitudeMeters>
            <DistanceMeters>20677.596025698</DistanceMeters>
          </Trackpoint>
          <Trackpoint>
            <Time>2018-05-01T12:23:28.000Z</Time>
            <Position>
              <LatitudeDegrees>42.7054239995777606964111328125</LatitudeDegrees>
              <LongitudeDegrees>1.23764877207577228546142578125</LongitudeDegrees>
            </Position>
            <AltitudeMeters>1841.800048828125</AltitudeMeters>
            <DistanceMeters>20678.728399689</DistanceMeters>
          </Trackpoint>
          <Trackpoint>
            <Time>2018-05-01T12:23:34.000Z</Time>
            <Position>
              <LatitudeDegrees>42.70537563599646091461181640625</LatitudeDegrees>
              <LongitudeDegrees>1.23762345872819423675537109375</LongitudeDegrees>
            </Position>
            <AltitudeMeters>1840.4000244140625</AltitudeMeters>
            <DistanceMeters>20684.496137688</DistanceMeters>
          </Trackpoint>
          <Trackpoint>
            <Time>2018-05-01T12:23:51.000Z</Time>
            <Position>
              <LatitudeDegrees>42.70520280115306377410888671875</LatitudeDegrees>
              <LongitudeDegrees>1.23758708126842975616455078125</LongitudeDegrees>
            </Position>
            <AltitudeMeters>1837.199951171875</AltitudeMeters>
            <DistanceMeters>20703.961543093</DistanceMeters>
          </Trackpoint>
          <Trackpoint>
            <Time>2018-05-01T12:24:03.000Z</Time>
            <Position>
              <LatitudeDegrees>42.70503751002252101898193359375</LatitudeDegrees>
              <LongitudeDegrees>1.23756679706275463104248046875</LongitudeDegrees>
            </Position>
            <AltitudeMeters>1834</AltitudeMeters>
            <DistanceMeters>20722.433426281</DistanceMeters>
          </Trackpoint>
          <Trackpoint>
            <Time>2018-05-01T12:24:04.000Z</Time>
            <Position>
              <LatitudeDegrees>42.70502619445323944091796875</LatitudeDegrees>
              <LongitudeDegrees>1.2375623546540737152099609375</LongitudeDegrees>
            </Position>
            <AltitudeMeters>1833.5999755859375</AltitudeMeters>
            <DistanceMeters>20723.746721602</DistanceMeters>
          </Trackpoint>
          <Trackpoint>
            <Time>2018-05-01T12:24:18.000Z</Time>
            <Position>
              <LatitudeDegrees>42.7048493362963199615478515625</LatitudeDegrees>
              <LongitudeDegrees>1.23749278485774993896484375</LongitudeDegrees>
            </Position>
            <AltitudeMeters>1830.5999755859375</AltitudeMeters>
            <DistanceMeters>20744.237266601</DistanceMeters>
          </Trackpoint>
          <Trackpoint>
            <Time>2018-05-01T12:24:19.000Z</Time>
            <Position>
              <LatitudeDegrees>42.70483869127929210662841796875</LatitudeDegrees>
              <LongitudeDegrees>1.23749990947544574737548828125</LongitudeDegrees>
            </Position>
            <AltitudeMeters>1830.5999755859375</AltitudeMeters>
            <DistanceMeters>20745.560835575</DistanceMeters>
          </Trackpoint>
          <Trackpoint>
            <Time>2018-05-01T12:24:20.000Z</Time>
            <Position>
              <LatitudeDegrees>42.70482695661485195159912109375</LatitudeDegrees>
              <LongitudeDegrees>1.23750342987477779388427734375</LongitudeDegrees>
            </Position>
            <AltitudeMeters>1830.5999755859375</AltitudeMeters>
            <DistanceMeters>20746.897979971</DistanceMeters>
          </Trackpoint>
          <Trackpoint>
            <Time>2018-05-01T12:24:21.000Z</Time>
            <Position>
              <LatitudeDegrees>42.70481756888329982757568359375</LatitudeDegrees>
              <LongitudeDegrees>1.2375030107796192169189453125</LongitudeDegrees>
            </Position>
            <AltitudeMeters>1830.5999755859375</AltitudeMeters>
            <DistanceMeters>20747.938945472</DistanceMeters>
          </Trackpoint>
          <Trackpoint>
            <Time>2018-05-01T12:24:22.000Z</Time>
            <Position>
              <LatitudeDegrees>42.70480415783822536468505859375</LatitudeDegrees>
              <LongitudeDegrees>1.237500496208667755126953125</LongitudeDegrees>
            </Position>
            <AltitudeMeters>1830.4000244140625</AltitudeMeters>
            <DistanceMeters>20749.447447796</DistanceMeters>
          </Trackpoint>
          <Trackpoint>
            <Time>2018-05-01T12:24:23.000Z</Time>
            <Position>
              <LatitudeDegrees>42.70479124970734119415283203125</LatitudeDegrees>
              <LongitudeDegrees>1.23749270103871822357177734375</LongitudeDegrees>
            </Position>
            <AltitudeMeters>1830.199951171875</AltitudeMeters>
            <DistanceMeters>20751.020419807</DistanceMeters>
          </Trackpoint>
          <Trackpoint>
            <Time>2018-05-01T12:24:24.000Z</Time>
            <Position>
              <LatitudeDegrees>42.7047809399664402008056640625</LatitudeDegrees>
              <LongitudeDegrees>1.23748918063938617706298828125</LongitudeDegrees>
            </Position>
            <AltitudeMeters>1830</AltitudeMeters>
            <DistanceMeters>20752.19967032</DistanceMeters>
          </Trackpoint>
          <Trackpoint>
            <Time>2018-05-01T12:24:25.000Z</Time>
            <Position>
              <LatitudeDegrees>42.70477180369198322296142578125</LatitudeDegrees>
              <LongitudeDegrees>1.23748281039297580718994140625</LongitudeDegrees>
            </Position>
            <AltitudeMeters>1829.800048828125</AltitudeMeters>
            <DistanceMeters>20753.343943488</DistanceMeters>
          </Trackpoint>
          <Trackpoint>
            <Time>2018-05-01T12:24:26.000Z</Time>
            <Position>
              <LatitudeDegrees>42.70476090721786022186279296875</LatitudeDegrees>
              <LongitudeDegrees>1.2374755181372165679931640625</LongitudeDegrees>
            </Position>
            <AltitudeMeters>1829.4000244140625</AltitudeMeters>
            <DistanceMeters>20754.694526859</DistanceMeters>
          </Trackpoint>
          <Trackpoint>
            <Time>2018-05-01T12:24:27.000Z</Time>
            <Position>
              <LatitudeDegrees>42.70474883727729320526123046875</LatitudeDegrees>
              <LongitudeDegrees>1.2374711595475673675537109375</LongitudeDegrees>
            </Position>
            <AltitudeMeters>1828.800048828125</AltitudeMeters>
            <DistanceMeters>20756.084647846</DistanceMeters>
          </Trackpoint>
          <Trackpoint>
            <Time>2018-05-01T12:24:28.000Z</Time>
            <Position>
              <LatitudeDegrees>42.704737521708011627197265625</LatitudeDegrees>
              <LongitudeDegrees>1.2374652922153472900390625</LongitudeDegrees>
            </Position>
            <AltitudeMeters>1828.5999755859375</AltitudeMeters>
            <DistanceMeters>20757.431884041</DistanceMeters>
          </Trackpoint>
          <Trackpoint>
            <Time>2018-05-01T12:24:36.000Z</Time>
            <Position>
              <LatitudeDegrees>42.70463970489799976348876953125</LatitudeDegrees>
              <LongitudeDegrees>1.23743117786943912506103515625</LongitudeDegrees>
            </Position>
            <AltitudeMeters>1825.5999755859375</AltitudeMeters>
            <DistanceMeters>20768.670776749</DistanceMeters>
          </Trackpoint>
          <Trackpoint>
            <Time>2018-05-01T12:24:44.000Z</Time>
            <Position>
              <LatitudeDegrees>42.70453342236578464508056640625</LatitudeDegrees>
              <LongitudeDegrees>1.23738859780132770538330078125</LongitudeDegrees>
            </Position>
            <AltitudeMeters>1822.5999755859375</AltitudeMeters>
            <DistanceMeters>20781.002300877</DistanceMeters>
          </Trackpoint>
          <Trackpoint>
            <Time>2018-05-01T12:24:45.000Z</Time>
            <Position>
              <LatitudeDegrees>42.70451925694942474365234375</LatitudeDegrees>
              <LongitudeDegrees>1.2373846583068370819091796875</LongitudeDegrees>
            </Position>
            <AltitudeMeters>1822.199951171875</AltitudeMeters>
            <DistanceMeters>20782.609348438</DistanceMeters>
          </Trackpoint>
          <Trackpoint>
            <Time>2018-05-01T12:24:46.000Z</Time>
            <Position>
              <LatitudeDegrees>42.70450450479984283447265625</LatitudeDegrees>
              <LongitudeDegrees>1.23738490976393222808837890625</LongitudeDegrees>
            </Position>
            <AltitudeMeters>1821.5999755859375</AltitudeMeters>
            <DistanceMeters>20784.252513937</DistanceMeters>
          </Trackpoint>
          <Trackpoint>
            <Time>2018-05-01T12:24:47.000Z</Time>
            <Position>
              <LatitudeDegrees>42.70449084229767322540283203125</LatitudeDegrees>
              <LongitudeDegrees>1.23738222755491733551025390625</LongitudeDegrees>
            </Position>
            <AltitudeMeters>1821.199951171875</AltitudeMeters>
            <DistanceMeters>20785.790655682</DistanceMeters>
          </Trackpoint>
          <Trackpoint>
            <Time>2018-05-01T12:24:48.000Z</Time>
            <Position>
              <LatitudeDegrees>42.70447642542421817779541015625</LatitudeDegrees>
              <LongitudeDegrees>1.23737518675625324249267578125</LongitudeDegrees>
            </Position>
            <AltitudeMeters>1821</AltitudeMeters>
            <DistanceMeters>20787.495849107</DistanceMeters>
          </Trackpoint>
          <Trackpoint>
            <Time>2018-05-01T12:24:49.000Z</Time>
            <Position>
              <LatitudeDegrees>42.70446083508431911468505859375</LatitudeDegrees>
              <LongitudeDegrees>1.23736965470016002655029296875</LongitudeDegrees>
            </Position>
            <AltitudeMeters>1820.5999755859375</AltitudeMeters>
            <DistanceMeters>20789.291326004</DistanceMeters>
          </Trackpoint>
          <Trackpoint>
            <Time>2018-05-01T12:24:50.000Z</Time>
            <Position>
              <LatitudeDegrees>42.7044475078582763671875</LatitudeDegrees>
              <LongitudeDegrees>1.23735842294991016387939453125</LongitudeDegrees>
            </Position>
            <AltitudeMeters>1820.4000244140625</AltitudeMeters>
            <DistanceMeters>20791.038370892</DistanceMeters>
          </Trackpoint>
          <Trackpoint>
            <Time>2018-05-01T12:24:51.000Z</Time>
            <Position>
              <LatitudeDegrees>42.704436443746089935302734375</LatitudeDegrees>
              <LongitudeDegrees>1.23734953813254833221435546875</LongitudeDegrees>
            </Position>
            <AltitudeMeters>1820.199951171875</AltitudeMeters>
            <DistanceMeters>20792.466935653</DistanceMeters>
          </Trackpoint>
          <Trackpoint>
            <Time>2018-05-01T12:25:06.000Z</Time>
            <Position>
              <LatitudeDegrees>42.7042897604405879974365234375</LatitudeDegrees>
              <LongitudeDegrees>1.237268485128879547119140625</LongitudeDegrees>
            </Position>
            <AltitudeMeters>1817.199951171875</AltitudeMeters>
            <DistanceMeters>20810.087666297</DistanceMeters>
          </Trackpoint>
          <Trackpoint>
            <Time>2018-05-01T12:25:13.000Z</Time>
            <Position>
              <LatitudeDegrees>42.7042149938642978668212890625</LatitudeDegrees>
              <LongitudeDegrees>1.237247027456760406494140625</LongitudeDegrees>
            </Position>
            <AltitudeMeters>1815</AltitudeMeters>
            <DistanceMeters>20818.592424513</DistanceMeters>
          </Trackpoint>
          <Trackpoint>
            <Time>2018-05-01T12:25:14.000Z</Time>
            <Position>
              <LatitudeDegrees>42.704206444323062896728515625</LatitudeDegrees>
              <LongitudeDegrees>1.2372518889605998992919921875</LongitudeDegrees>
            </Position>
            <AltitudeMeters>1814.800048828125</AltitudeMeters>
            <DistanceMeters>20819.624678852</DistanceMeters>
          </Trackpoint>
          <Trackpoint>
            <Time>2018-05-01T12:25:17.000Z</Time>
            <Position>
              <LatitudeDegrees>42.7041727490723133087158203125</LatitudeDegrees>
              <LongitudeDegrees>1.237278543412685394287109375</LongitudeDegrees>
            </Position>
            <AltitudeMeters>1814.800048828125</AltitudeMeters>
            <DistanceMeters>20823.962729026</DistanceMeters>
          </Trackpoint>
          <Trackpoint>
            <Time>2018-05-01T12:25:18.000Z</Time>
            <Position>
              <LatitudeDegrees>42.704162858426570892333984375</LatitudeDegrees>
              <LongitudeDegrees>1.23728734441101551055908203125</LongitudeDegrees>
            </Position>
            <AltitudeMeters>1814.5999755859375</AltitudeMeters>
            <DistanceMeters>20825.279457805</DistanceMeters>
          </Trackpoint>
          <Trackpoint>
            <Time>2018-05-01T12:25:19.000Z</Time>
            <Position>
              <LatitudeDegrees>42.704153470695018768310546875</LatitudeDegrees>
              <LongitudeDegrees>1.2372963130474090576171875</LongitudeDegrees>
            </Position>
            <AltitudeMeters>1814.199951171875</AltitudeMeters>
            <DistanceMeters>20826.554374963</DistanceMeters>
          </Trackpoint>
          <Trackpoint>
            <Time>2018-05-01T12:25:20.000Z</Time>
            <Position>
              <LatitudeDegrees>42.704144753515720367431640625</LatitudeDegrees>
              <LongitudeDegrees>1.2373016774654388427734375</LongitudeDegrees>
            </Position>
            <AltitudeMeters>1814</AltitudeMeters>
            <DistanceMeters>20827.621047186</DistanceMeters>
          </Trackpoint>
          <Trackpoint>
            <Time>2018-05-01T12:25:21.000Z</Time>
            <Position>
              <LatitudeDegrees>42.70413435995578765869140625</LatitudeDegrees>
              <LongitudeDegrees>1.2373124063014984130859375</LongitudeDegrees>
            </Position>
            <AltitudeMeters>1813.800048828125</AltitudeMeters>
            <DistanceMeters>20829.074676399</DistanceMeters>
          </Trackpoint>
          <Trackpoint>
            <Time>2018-05-01T12:25:37.000Z</Time>
            <Position>
              <LatitudeDegrees>42.70395624451339244842529296875</LatitudeDegrees>
              <LongitudeDegrees>1.23741642571985721588134765625</LongitudeDegrees>
            </Position>
            <AltitudeMeters>1811.800048828125</AltitudeMeters>
            <DistanceMeters>20850.647833559</DistanceMeters>
          </Trackpoint>
          <Trackpoint>
            <Time>2018-05-01T12:25:52.000Z</Time>
            <Position>
              <LatitudeDegrees>42.70379061810672283172607421875</LatitudeDegrees>
              <LongitudeDegrees>1.2373705767095088958740234375</LongitudeDegrees>
            </Position>
            <AltitudeMeters>1810</AltitudeMeters>
            <DistanceMeters>20869.459763174</DistanceMeters>
          </Trackpoint>
          <Trackpoint>
            <Time>2018-05-01T12:26:10.000Z</Time>
            <Position>
              <LatitudeDegrees>42.7036081440746784210205078125</LatitudeDegrees>
              <LongitudeDegrees>1.23730595223605632781982421875</LongitudeDegrees>
            </Position>
            <AltitudeMeters>1807.4000244140625</AltitudeMeters>
            <DistanceMeters>20890.44582732</DistanceMeters>
          </Trackpoint>
          <Trackpoint>
            <Time>2018-05-01T12:26:16.000Z</Time>
            <Position>
              <LatitudeDegrees>42.7035637199878692626953125</LatitudeDegrees>
              <LongitudeDegrees>1.2372961454093456268310546875</LongitudeDegrees>
            </Position>
            <AltitudeMeters>1805.5999755859375</AltitudeMeters>
            <DistanceMeters>20895.454375249</DistanceMeters>
          </Trackpoint>
          <Trackpoint>
            <Time>2018-05-01T12:26:17.000Z</Time>
            <Position>
              <LatitudeDegrees>42.70355206914246082305908203125</LatitudeDegrees>
              <LongitudeDegrees>1.2372911162674427032470703125</LongitudeDegrees>
            </Position>
            <AltitudeMeters>1805.4000244140625</AltitudeMeters>
            <DistanceMeters>20896.811628208</DistanceMeters>
          </Trackpoint>
          <Trackpoint>
            <Time>2018-05-01T12:26:35.000Z</Time>
            <Position>
              <LatitudeDegrees>42.70339063368737697601318359375</LatitudeDegrees>
              <LongitudeDegrees>1.2371841631829738616943359375</LongitudeDegrees>
            </Position>
            <AltitudeMeters>1802.199951171875</AltitudeMeters>
            <DistanceMeters>20916.796177764</DistanceMeters>
          </Trackpoint>
          <Trackpoint>
            <Time>2018-05-01T12:26:44.000Z</Time>
            <Position>
              <LatitudeDegrees>42.7033080719411373138427734375</LatitudeDegrees>
              <LongitudeDegrees>1.23707301914691925048828125</LongitudeDegrees>
            </Position>
            <AltitudeMeters>1799.5999755859375</AltitudeMeters>
            <DistanceMeters>20929.722256228</DistanceMeters>
          </Trackpoint>
          <Trackpoint>
            <Time>2018-05-01T12:26:45.000Z</Time>
            <Position>
              <LatitudeDegrees>42.70329776220023632049560546875</LatitudeDegrees>
              <LongitudeDegrees>1.23706438578665256500244140625</LongitudeDegrees>
            </Position>
            <AltitudeMeters>1799.5999755859375</AltitudeMeters>
            <DistanceMeters>20931.069492423</DistanceMeters>
          </Trackpoint>
          <Trackpoint>
            <Time>2018-05-01T12:26:46.000Z</Time>
            <Position>
              <LatitudeDegrees>42.70329055376350879669189453125</LatitudeDegrees>
              <LongitudeDegrees>1.23705533333122730255126953125</LongitudeDegrees>
            </Position>
            <AltitudeMeters>1799.5999755859375</AltitudeMeters>
            <DistanceMeters>20932.16126625</DistanceMeters>
          </Trackpoint>
          <Trackpoint>
            <Time>2018-05-01T12:27:03.000Z</Time>
            <Position>
              <LatitudeDegrees>42.703205645084381103515625</LatitudeDegrees>
              <LongitudeDegrees>1.23700286261737346649169921875</LongitudeDegrees>
            </Position>
            <AltitudeMeters>1798.4000244140625</AltitudeMeters>
            <DistanceMeters>20942.540515355</DistanceMeters>
          </Trackpoint>
          <Trackpoint>
            <Time>2018-05-01T12:27:04.000Z</Time>
            <Position>
              <LatitudeDegrees>42.703196592628955841064453125</LatitudeDegrees>
              <LongitudeDegrees>1.23699900694191455841064453125</LongitudeDegrees>
            </Position>
            <AltitudeMeters>1798.199951171875</AltitudeMeters>
            <DistanceMeters>20943.590119721</DistanceMeters>
          </Trackpoint>
          <Trackpoint>
            <Time>2018-05-01T12:27:05.000Z</Time>
            <Position>
              <LatitudeDegrees>42.70318712107837200164794921875</LatitudeDegrees>
              <LongitudeDegrees>1.23699146322906017303466796875</LongitudeDegrees>
            </Position>
            <AltitudeMeters>1798</AltitudeMeters>
            <DistanceMeters>20944.807055437</DistanceMeters>
          </Trackpoint>
          <Trackpoint>
            <Time>2018-05-01T12:27:06.000Z</Time>
            <Position>
              <LatitudeDegrees>42.703173458576202392578125</LatitudeDegrees>
              <LongitudeDegrees>1.2369897030293941497802734375</LongitudeDegrees>
            </Position>
            <AltitudeMeters>1798</AltitudeMeters>
            <DistanceMeters>20946.333410482</DistanceMeters>
          </Trackpoint>
          <Trackpoint>
            <Time>2018-05-01T12:27:07.000Z</Time>
            <Position>
              <LatitudeDegrees>42.7031632326543331146240234375</LatitudeDegrees>
              <LongitudeDegrees>1.23698584735393524169921875</LongitudeDegrees>
            </Position>
            <AltitudeMeters>1798</AltitudeMeters>
            <DistanceMeters>20947.516483535</DistanceMeters>
          </Trackpoint>
          <Trackpoint>
            <Time>2018-05-01T12:27:30.000Z</Time>
            <Position>
              <LatitudeDegrees>42.702980004251003265380859375</LatitudeDegrees>
              <LongitudeDegrees>1.2369313649833202362060546875</LongitudeDegrees>
            </Position>
            <AltitudeMeters>1795.4000244140625</AltitudeMeters>
            <DistanceMeters>20968.391454169</DistanceMeters>
          </Trackpoint>
          <Trackpoint>
            <Time>2018-05-01T12:27:49.000Z</Time>
            <Position>
              <LatitudeDegrees>42.70279551856219768524169921875</LatitudeDegrees>
              <LongitudeDegrees>1.23692675493657588958740234375</LongitudeDegrees>
            </Position>
            <AltitudeMeters>1792.4000244140625</AltitudeMeters>
            <DistanceMeters>20988.928659688</DistanceMeters>
          </Trackpoint>
          <Trackpoint>
            <Time>2018-05-01T12:28:06.000Z</Time>
            <Position>
              <LatitudeDegrees>42.70260550081729888916015625</LatitudeDegrees>
              <LongitudeDegrees>1.236915104091167449951171875</LongitudeDegrees>
            </Position>
            <AltitudeMeters>1790.199951171875</AltitudeMeters>
            <DistanceMeters>21010.099152931</DistanceMeters>
          </Trackpoint>
          <Trackpoint>
            <Time>2018-05-01T12:28:18.000Z</Time>
            <Position>
              <LatitudeDegrees>42.70245269872248172760009765625</LatitudeDegrees>
              <LongitudeDegrees>1.236932538449764251708984375</LongitudeDegrees>
            </Position>
            <AltitudeMeters>1788.800048828125</AltitudeMeters>
            <DistanceMeters>21027.16564395</DistanceMeters>
          </Trackpoint>
          <Trackpoint>
            <Time>2018-05-01T12:28:19.000Z</Time>
            <Position>
              <LatitudeDegrees>42.7024427242577075958251953125</LatitudeDegrees>
              <LongitudeDegrees>1.23693932779133319854736328125</LongitudeDegrees>
            </Position>
            <AltitudeMeters>1788.5999755859375</AltitudeMeters>
            <DistanceMeters>21028.40464072</DistanceMeters>
          </Trackpoint>
          <Trackpoint>
            <Time>2018-05-01T12:28:20.000Z</Time>
            <Position>
              <LatitudeDegrees>42.70243140868842601776123046875</LatitudeDegrees>
              <LongitudeDegrees>1.2369420938193798065185546875</LongitudeDegrees>
            </Position>
            <AltitudeMeters>1788.4000244140625</AltitudeMeters>
            <DistanceMeters>21029.679557878</DistanceMeters>
          </Trackpoint>
          <Trackpoint>
            <Time>2018-05-01T12:28:21.000Z</Time>
            <Position>
              <LatitudeDegrees>42.70241866819560527801513671875</LatitudeDegrees>
              <LongitudeDegrees>1.23693798668682575225830078125</LongitudeDegrees>
            </Position>
            <AltitudeMeters>1788.4000244140625</AltitudeMeters>
            <DistanceMeters>21031.13318709</DistanceMeters>
          </Trackpoint>
          <Trackpoint>
            <Time>2018-05-01T12:28:22.000Z</Time>
            <Position>
              <LatitudeDegrees>42.70240676589310169219970703125</LatitudeDegrees>
              <LongitudeDegrees>1.2369350530207157135009765625</LongitudeDegrees>
            </Position>
            <AltitudeMeters>1788.199951171875</AltitudeMeters>
            <DistanceMeters>21032.477067773</DistanceMeters>
          </Trackpoint>
          <Trackpoint>
            <Time>2018-05-01T12:28:23.000Z</Time>
            <Position>
              <LatitudeDegrees>42.7023944444954395294189453125</LatitudeDegrees>
              <LongitudeDegrees>1.2369327060878276824951171875</LongitudeDegrees>
            </Position>
            <AltitudeMeters>1788</AltitudeMeters>
            <DistanceMeters>21033.860677619</DistanceMeters>
          </Trackpoint>
          <Trackpoint>
            <Time>2018-05-01T12:28:26.000Z</Time>
            <Position>
              <LatitudeDegrees>42.70235664211213588714599609375</LatitudeDegrees>
              <LongitudeDegrees>1.236924491822719573974609375</LongitudeDegrees>
            </Position>
            <AltitudeMeters>1787.5999755859375</AltitudeMeters>
            <DistanceMeters>21038.121012541</DistanceMeters>
          </Trackpoint>
          <Trackpoint>
            <Time>2018-05-01T12:28:27.000Z</Time>
            <Position>
              <LatitudeDegrees>42.70234490744769573211669921875</LatitudeDegrees>
              <LongitudeDegrees>1.2369243241846561431884765625</LongitudeDegrees>
            </Position>
            <AltitudeMeters>1787.4000244140625</AltitudeMeters>
            <DistanceMeters>21039.430865405</DistanceMeters>
          </Trackpoint>
          <Trackpoint>
            <Time>2018-05-01T12:28:28.000Z</Time>
            <Position>
              <LatitudeDegrees>42.702333927154541015625</LatitudeDegrees>
              <LongitudeDegrees>1.23691887594759464263916015625</LongitudeDegrees>
            </Position>
            <AltitudeMeters>1787.4000244140625</AltitudeMeters>
            <DistanceMeters>21040.733806068</DistanceMeters>
          </Trackpoint>
          <Trackpoint>
            <Time>2018-05-01T12:28:29.000Z</Time>
            <Position>
              <LatitudeDegrees>42.70232395268976688385009765625</LatitudeDegrees>
              <LongitudeDegrees>1.23691468499600887298583984375</LongitudeDegrees>
            </Position>
            <AltitudeMeters>1787.4000244140625</AltitudeMeters>
            <DistanceMeters>21041.897640879</DistanceMeters>
          </Trackpoint>
          <Trackpoint>
            <Time>2018-05-01T12:28:30.000Z</Time>
            <Position>
              <LatitudeDegrees>42.702315151691436767578125</LatitudeDegrees>
              <LongitudeDegrees>1.2369159422814846038818359375</LongitudeDegrees>
            </Position>
            <AltitudeMeters>1787.199951171875</AltitudeMeters>
            <DistanceMeters>21042.885187463</DistanceMeters>
          </Trackpoint>
          <Trackpoint>
            <Time>2018-05-01T12:28:31.000Z</Time>
            <Position>
              <LatitudeDegrees>42.702307440340518951416015625</LatitudeDegrees>
              <LongitudeDegrees>1.2369181215763092041015625</LongitudeDegrees>
            </Position>
            <AltitudeMeters>1787</AltitudeMeters>
            <DistanceMeters>21043.766428959</DistanceMeters>
          </Trackpoint>
          <Trackpoint>
            <Time>2018-05-01T12:28:33.000Z</Time>
            <Position>
              <LatitudeDegrees>42.702294029295444488525390625</LatitudeDegrees>
              <LongitudeDegrees>1.2369209714233875274658203125</LongitudeDegrees>
            </Position>
            <AltitudeMeters>1786.5999755859375</AltitudeMeters>
            <DistanceMeters>21045.274931284</DistanceMeters>
          </Trackpoint>
          <Trackpoint>
            <Time>2018-05-01T12:28:34.000Z</Time>
            <Position>
              <LatitudeDegrees>42.70228506065905094146728515625</LatitudeDegrees>
              <LongitudeDegrees>1.236923150718212127685546875</LongitudeDegrees>
            </Position>
            <AltitudeMeters>1786.5999755859375</AltitudeMeters>
            <DistanceMeters>21046.289538949</DistanceMeters>
          </Trackpoint>
          <Trackpoint>
            <Time>2018-05-01T12:28:51.000Z</Time>
            <Position>
              <LatitudeDegrees>42.70208372734487056732177734375</LatitudeDegrees>
              <LongitudeDegrees>1.23686757870018482208251953125</LongitudeDegrees>
            </Position>
            <AltitudeMeters>1784.800048828125</AltitudeMeters>
            <DistanceMeters>21069.154870041</DistanceMeters>
          </Trackpoint>
          <Trackpoint>
            <Time>2018-05-01T12:28:55.000Z</Time>
            <Position>
              <LatitudeDegrees>42.7020363695919513702392578125</LatitudeDegrees>
              <LongitudeDegrees>1.23682801611721515655517578125</LongitudeDegrees>
            </Position>
            <AltitudeMeters>1784</AltitudeMeters>
            <DistanceMeters>21075.33964197</DistanceMeters>
          </Trackpoint>
          <Trackpoint>
            <Time>2018-05-01T12:28:56.000Z</Time>
            <Position>
              <LatitudeDegrees>42.702020443975925445556640625</LatitudeDegrees>
              <LongitudeDegrees>1.2368257530033588409423828125</LongitudeDegrees>
            </Position>
            <AltitudeMeters>1784</AltitudeMeters>
            <DistanceMeters>21077.12503184</DistanceMeters>
          </Trackpoint>
          <Trackpoint>
            <Time>2018-05-01T12:28:57.000Z</Time>
            <Position>
              <LatitudeDegrees>42.70200577564537525177001953125</LatitudeDegrees>
              <LongitudeDegrees>1.236820556223392486572265625</LongitudeDegrees>
            </Position>
            <AltitudeMeters>1783.800048828125</AltitudeMeters>
            <DistanceMeters>21078.814263664</DistanceMeters>
          </Trackpoint>
          <Trackpoint>
            <Time>2018-05-01T12:28:58.000Z</Time>
            <Position>
              <LatitudeDegrees>42.701992951333522796630859375</LatitudeDegrees>
              <LongitudeDegrees>1.236815862357616424560546875</LongitudeDegrees>
            </Position>
            <AltitudeMeters>1783.800048828125</AltitudeMeters>
            <DistanceMeters>21080.292532415</DistanceMeters>
          </Trackpoint>
          <Trackpoint>
            <Time>2018-05-01T12:28:59.000Z</Time>
            <Position>
              <LatitudeDegrees>42.7019817195832729339599609375</LatitudeDegrees>
              <LongitudeDegrees>1.23681158758699893951416015625</LongitudeDegrees>
            </Position>
            <AltitudeMeters>1783.4000244140625</AltitudeMeters>
            <DistanceMeters>21081.59200319</DistanceMeters>
          </Trackpoint>
          <Trackpoint>
            <Time>2018-05-01T12:29:00.000Z</Time>
            <Position>
              <LatitudeDegrees>42.701967470347881317138671875</LatitudeDegrees>
              <LongitudeDegrees>1.23680655844509601593017578125</LongitudeDegrees>
            </Position>
            <AltitudeMeters>1783.199951171875</AltitudeMeters>
            <DistanceMeters>21083.232418619</DistanceMeters>
          </Trackpoint>
          <Trackpoint>
            <Time>2018-05-01T12:29:01.000Z</Time>
            <Position>
              <LatitudeDegrees>42.7019535563886165618896484375</LatitudeDegrees>
              <LongitudeDegrees>1.236799098551273345947265625</LongitudeDegrees>
            </Position>
            <AltitudeMeters>1783</AltitudeMeters>
            <DistanceMeters>21084.894707219</DistanceMeters>
          </Trackpoint>
          <Trackpoint>
            <Time>2018-05-01T12:29:02.000Z</Time>
            <Position>
              <LatitudeDegrees>42.70194165408611297607421875</LatitudeDegrees>
              <LongitudeDegrees>1.23678811825811862945556640625</LongitudeDegrees>
            </Position>
            <AltitudeMeters>1782.800048828125</AltitudeMeters>
            <DistanceMeters>21086.490477114</DistanceMeters>
          </Trackpoint>
          <Trackpoint>
            <Time>2018-05-01T12:29:11.000Z</Time>
            <Position>
              <LatitudeDegrees>42.70183444954454898834228515625</LatitudeDegrees>
              <LongitudeDegrees>1.23673698864877223968505859375</LongitudeDegrees>
            </Position>
            <AltitudeMeters>1780.800048828125</AltitudeMeters>
            <DistanceMeters>21099.134387639</DistanceMeters>
          </Trackpoint>
          <Trackpoint>
            <Time>2018-05-01T12:29:12.000Z</Time>
            <Position>
              <LatitudeDegrees>42.701820619404315948486328125</LatitudeDegrees>
              <LongitudeDegrees>1.2367330491542816162109375</LongitudeDegrees>
            </Position>
            <AltitudeMeters>1780.800048828125</AltitudeMeters>
            <DistanceMeters>21100.70735965</DistanceMeters>
          </Trackpoint>
          <Trackpoint>
            <Time>2018-05-01T12:29:13.000Z</Time>
            <Position>
              <LatitudeDegrees>42.70180762745440006256103515625</LatitudeDegrees>
              <LongitudeDegrees>1.2367285229265689849853515625</LongitudeDegrees>
            </Position>
            <AltitudeMeters>1780.4000244140625</AltitudeMeters>
            <DistanceMeters>21102.200821695</DistanceMeters>
          </Trackpoint>
          <Trackpoint>
            <Time>2018-05-01T12:29:14.000Z</Time>
            <Position>
              <LatitudeDegrees>42.70179455168545246124267578125</LatitudeDegrees>
              <LongitudeDegrees>1.2367271818220615386962890625</LongitudeDegrees>
            </Position>
            <AltitudeMeters>1780.4000244140625</AltitudeMeters>
            <DistanceMeters>21103.660649781</DistanceMeters>
          </Trackpoint>
          <Trackpoint>
            <Time>2018-05-01T12:29:15.000Z</Time>
            <Position>
              <LatitudeDegrees>42.70178264938294887542724609375</LatitudeDegrees>
              <LongitudeDegrees>1.23672558926045894622802734375</LongitudeDegrees>
            </Position>
            <AltitudeMeters>1780.199951171875</AltitudeMeters>
            <DistanceMeters>21104.991023782</DistanceMeters>
          </Trackpoint>
          <Trackpoint>
            <Time>2018-05-01T12:29:16.000Z</Time>
            <Position>
              <LatitudeDegrees>42.70177141763269901275634765625</LatitudeDegrees>
              <LongitudeDegrees>1.2367224879562854766845703125</LongitudeDegrees>
            </Position>
            <AltitudeMeters>1780</AltitudeMeters>
            <DistanceMeters>21106.265940941</DistanceMeters>
          </Trackpoint>
          <Trackpoint>
            <Time>2018-05-01T12:29:17.000Z</Time>
            <Position>
              <LatitudeDegrees>42.70175750367343425750732421875</LatitudeDegrees>
              <LongitudeDegrees>1.23671486042439937591552734375</LongitudeDegrees>
            </Position>
            <AltitudeMeters>1779.800048828125</AltitudeMeters>
            <DistanceMeters>21107.933653009</DistanceMeters>
          </Trackpoint>
          <Trackpoint>
            <Time>2018-05-01T12:29:31.000Z</Time>
            <Position>
              <LatitudeDegrees>42.70157041959464550018310546875</LatitudeDegrees>
              <LongitudeDegrees>1.2366383336484432220458984375</LongitudeDegrees>
            </Position>
            <AltitudeMeters>1777</AltitudeMeters>
            <DistanceMeters>21129.676712181</DistanceMeters>
          </Trackpoint>
          <Trackpoint>
            <Time>2018-05-01T12:29:46.000Z</Time>
            <Position>
              <LatitudeDegrees>42.701384089887142181396484375</LatitudeDegrees>
              <LongitudeDegrees>1.23659516684710979461669921875</LongitudeDegrees>
            </Position>
            <AltitudeMeters>1774.5999755859375</AltitudeMeters>
            <DistanceMeters>21150.713918424</DistanceMeters>
          </Trackpoint>
          <Trackpoint>
            <Time>2018-05-01T12:29:55.000Z</Time>
            <Position>
              <LatitudeDegrees>42.70128342323005199432373046875</LatitudeDegrees>
              <LongitudeDegrees>1.236552335321903228759765625</LongitudeDegrees>
            </Position>
            <AltitudeMeters>1773.5999755859375</AltitudeMeters>
            <DistanceMeters>21162.453468104</DistanceMeters>
          </Trackpoint>
          <Trackpoint>
            <Time>2018-05-01T12:29:56.000Z</Time>
            <Position>
              <LatitudeDegrees>42.701274454593658447265625</LatitudeDegrees>
              <LongitudeDegrees>1.236544959247112274169921875</LongitudeDegrees>
            </Position>
            <AltitudeMeters>1773.4000244140625</AltitudeMeters>
            <DistanceMeters>21163.625036122</DistanceMeters>
          </Trackpoint>
          <Trackpoint>
            <Time>2018-05-01T12:29:57.000Z</Time>
            <Position>
              <LatitudeDegrees>42.70126246847212314605712890625</LatitudeDegrees>
              <LongitudeDegrees>1.2365397624671459197998046875</LongitudeDegrees>
            </Position>
            <AltitudeMeters>1773.199951171875</AltitudeMeters>
            <DistanceMeters>21165.028088745</DistanceMeters>
          </Trackpoint>
          <Trackpoint>
            <Time>2018-05-01T12:30:03.000Z</Time>
            <Position>
              <LatitudeDegrees>42.70119625143706798553466796875</LatitudeDegrees>
              <LongitudeDegrees>1.2365162931382656097412109375</LongitudeDegrees>
            </Position>
            <AltitudeMeters>1771.800048828125</AltitudeMeters>
            <DistanceMeters>21172.644466564</DistanceMeters>
          </Trackpoint>
          <Trackpoint>
            <Time>2018-05-01T12:30:04.000Z</Time>
            <Position>
              <LatitudeDegrees>42.7011847682297229766845703125</LatitudeDegrees>
              <LongitudeDegrees>1.23651570640504360198974609375</LongitudeDegrees>
            </Position>
            <AltitudeMeters>1771.800048828125</AltitudeMeters>
            <DistanceMeters>21173.919383722</DistanceMeters>
          </Trackpoint>
          <Trackpoint>
            <Time>2018-05-01T12:30:05.000Z</Time>
            <Position>
              <LatitudeDegrees>42.70117328502237796783447265625</LatitudeDegrees>
              <LongitudeDegrees>1.23651319183409214019775390625</LongitudeDegrees>
            </Position>
            <AltitudeMeters>1771.5999755859375</AltitudeMeters>
            <DistanceMeters>21175.211886775</DistanceMeters>
          </Trackpoint>
          <Trackpoint>
            <Time>2018-05-01T12:30:06.000Z</Time>
            <Position>
              <LatitudeDegrees>42.70116071216762065887451171875</LatitudeDegrees>
              <LongitudeDegrees>1.236512102186679840087890625</LongitudeDegrees>
            </Position>
            <AltitudeMeters>1771.5999755859375</AltitudeMeters>
            <DistanceMeters>21176.614939399</DistanceMeters>
          </Trackpoint>
          <Trackpoint>
            <Time>2018-05-01T12:30:07.000Z</Time>
            <Position>
              <LatitudeDegrees>42.70114730112254619598388671875</LatitudeDegrees>
              <LongitudeDegrees>1.2365126051008701324462890625</LongitudeDegrees>
            </Position>
            <AltitudeMeters>1771.5999755859375</AltitudeMeters>
            <DistanceMeters>21178.105375176</DistanceMeters>
          </Trackpoint>
          <Trackpoint>
            <Time>2018-05-01T12:30:08.000Z</Time>
            <Position>
              <LatitudeDegrees>42.70113573409616947174072265625</LatitudeDegrees>
              <LongitudeDegrees>1.236513443291187286376953125</LongitudeDegrees>
            </Position>
            <AltitudeMeters>1771.5999755859375</AltitudeMeters>
            <DistanceMeters>21179.397878229</DistanceMeters>
          </Trackpoint>
          <Trackpoint>
            <Time>2018-05-01T12:30:24.000Z</Time>
            <Position>
              <LatitudeDegrees>42.70093574188649654388427734375</LatitudeDegrees>
              <LongitudeDegrees>1.23645619489252567291259765625</LongitudeDegrees>
            </Position>
            <AltitudeMeters>1769.5999755859375</AltitudeMeters>
            <DistanceMeters>21202.144423463</DistanceMeters>
          </Trackpoint>
          <Trackpoint>
            <Time>2018-05-01T12:30:40.000Z</Time>
            <Position>
              <LatitudeDegrees>42.70073038525879383087158203125</LatitudeDegrees>
              <LongitudeDegrees>1.23639039695262908935546875</LongitudeDegrees>
            </Position>
            <AltitudeMeters>1768.4000244140625</AltitudeMeters>
            <DistanceMeters>21225.626214873</DistanceMeters>
          </Trackpoint>
          <Trackpoint>
            <Time>2018-05-01T12:30:41.000Z</Time>
            <Position>
              <LatitudeDegrees>42.70071563310921192169189453125</LatitudeDegrees>
              <LongitudeDegrees>1.23638310469686985015869140625</LongitudeDegrees>
            </Position>
            <AltitudeMeters>1768.4000244140625</AltitudeMeters>
            <DistanceMeters>21227.37325976</DistanceMeters>
          </Trackpoint>
          <Trackpoint>
            <Time>2018-05-01T12:30:42.000Z</Time>
            <Position>
              <LatitudeDegrees>42.700700126588344573974609375</LatitudeDegrees>
              <LongitudeDegrees>1.2363774888217449188232421875</LongitudeDegrees>
            </Position>
            <AltitudeMeters>1768.4000244140625</AltitudeMeters>
            <DistanceMeters>21229.161176722</DistanceMeters>
          </Trackpoint>
          <Trackpoint>
            <Time>2018-05-01T12:30:43.000Z</Time>
            <Position>
              <LatitudeDegrees>42.70068495534360408782958984375</LatitudeDegrees>
              <LongitudeDegrees>1.23637120239436626434326171875</LongitudeDegrees>
            </Position>
            <AltitudeMeters>1768.4000244140625</AltitudeMeters>
            <DistanceMeters>21230.926219603</DistanceMeters>
          </Trackpoint>
          <Trackpoint>
            <Time>2018-05-01T12:30:44.000Z</Time>
            <Position>
              <LatitudeDegrees>42.70067053847014904022216796875</LatitudeDegrees>
              <LongitudeDegrees>1.2363664247095584869384765625</LongitudeDegrees>
            </Position>
            <AltitudeMeters>1768.4000244140625</AltitudeMeters>
            <DistanceMeters>21232.577607833</DistanceMeters>
          </Trackpoint>
          <Trackpoint>
            <Time>2018-05-01T12:30:45.000Z</Time>
            <Position>
              <LatitudeDegrees>42.70065662451088428497314453125</LatitudeDegrees>
              <LongitudeDegrees>1.2363607250154018402099609375</LongitudeDegrees>
            </Position>
            <AltitudeMeters>1768.199951171875</AltitudeMeters>
            <DistanceMeters>21234.195854467</DistanceMeters>
          </Trackpoint>
          <Trackpoint>
            <Time>2018-05-01T12:30:47.000Z</Time>
            <Position>
              <LatitudeDegrees>42.70064069889485836029052734375</LatitudeDegrees>
              <LongitudeDegrees>1.2363520078361034393310546875</LongitudeDegrees>
            </Position>
            <AltitudeMeters>1768.199951171875</AltitudeMeters>
            <DistanceMeters>21236.108230204</DistanceMeters>
          </Trackpoint>
          <Trackpoint>
            <Time>2018-05-01T12:30:48.000Z</Time>
            <Position>
              <LatitudeDegrees>42.70063064061105251312255859375</LatitudeDegrees>
              <LongitudeDegrees>1.23634655959904193878173828125</LongitudeDegrees>
            </Position>
            <AltitudeMeters>1768</AltitudeMeters>
            <DistanceMeters>21237.313984038</DistanceMeters>
          </Trackpoint>
          <Trackpoint>
            <Time>2018-05-01T12:30:49.000Z</Time>
            <Position>
              <LatitudeDegrees>42.700617648661136627197265625</LatitudeDegrees>
              <LongitudeDegrees>1.2363396026194095611572265625</LongitudeDegrees>
            </Position>
            <AltitudeMeters>1768</AltitudeMeters>
            <DistanceMeters>21238.869638398</DistanceMeters>
          </Trackpoint>
          <Trackpoint>
            <Time>2018-05-01T12:30:50.000Z</Time>
            <Position>
              <LatitudeDegrees>42.70060457289218902587890625</LatitudeDegrees>
              <LongitudeDegrees>1.23633566312491893768310546875</LongitudeDegrees>
            </Position>
            <AltitudeMeters>1767.800048828125</AltitudeMeters>
            <DistanceMeters>21240.360074175</DistanceMeters>
          </Trackpoint>
          <Trackpoint>
            <Time>2018-05-01T12:30:51.000Z</Time>
            <Position>
              <LatitudeDegrees>42.70058671943843364715576171875</LatitudeDegrees>
              <LongitudeDegrees>1.23633415438234806060791015625</LongitudeDegrees>
            </Position>
            <AltitudeMeters>1767.800048828125</AltitudeMeters>
            <DistanceMeters>21242.353371351</DistanceMeters>
          </Trackpoint>
          <Trackpoint>
            <Time>2018-05-01T12:30:52.000Z</Time>
            <Position>
              <LatitudeDegrees>42.70057431422173976898193359375</LatitudeDegrees>
              <LongitudeDegrees>1.2363268621265888214111328125</LongitudeDegrees>
            </Position>
            <AltitudeMeters>1767.5999755859375</AltitudeMeters>
            <DistanceMeters>21243.855875631</DistanceMeters>
          </Trackpoint>
          <Trackpoint>
            <Time>2018-05-01T12:30:53.000Z</Time>
            <Position>
              <LatitudeDegrees>42.7005631662905216217041015625</LatitudeDegrees>
              <LongitudeDegrees>1.236320994794368743896484375</LongitudeDegrees>
            </Position>
            <AltitudeMeters>1767.5999755859375</AltitudeMeters>
            <DistanceMeters>21245.182851481</DistanceMeters>
          </Trackpoint>
          <Trackpoint>
            <Time>2018-05-01T12:30:56.000Z</Time>
            <Position>
              <LatitudeDegrees>42.70052536390721797943115234375</LatitudeDegrees>
              <LongitudeDegrees>1.23631051741540431976318359375</LongitudeDegrees>
            </Position>
            <AltitudeMeters>1767</AltitudeMeters>
            <DistanceMeters>21249.476965604</DistanceMeters>
          </Trackpoint>
          <Trackpoint>
            <Time>2018-05-01T12:31:02.000Z</Time>
            <Position>
              <LatitudeDegrees>42.7004595659673213958740234375</LatitudeDegrees>
              <LongitudeDegrees>1.23627950437366962432861328125</LongitudeDegrees>
            </Position>
            <AltitudeMeters>1766</AltitudeMeters>
            <DistanceMeters>21257.227324854</DistanceMeters>
          </Trackpoint>
          <Trackpoint>
            <Time>2018-05-01T12:31:03.000Z</Time>
            <Position>
              <LatitudeDegrees>42.7004491724073886871337890625</LatitudeDegrees>
              <LongitudeDegrees>1.236277408897876739501953125</LongitudeDegrees>
            </Position>
            <AltitudeMeters>1765.800048828125</AltitudeMeters>
            <DistanceMeters>21258.398892871</DistanceMeters>
          </Trackpoint>
          <Trackpoint>
            <Time>2018-05-01T12:31:04.000Z</Time>
            <Position>
              <LatitudeDegrees>42.70043718628585338592529296875</LatitudeDegrees>
              <LongitudeDegrees>1.23627481050789356231689453125</LongitudeDegrees>
            </Position>
            <AltitudeMeters>1765.5999755859375</AltitudeMeters>
            <DistanceMeters>21259.752815143</DistanceMeters>
          </Trackpoint>
          <Trackpoint>
            <Time>2018-05-01T12:31:05.000Z</Time>
            <Position>
              <LatitudeDegrees>42.7004241943359375</LatitudeDegrees>
              <LongitudeDegrees>1.236277408897876739501953125</LongitudeDegrees>
            </Position>
            <AltitudeMeters>1765.4000244140625</AltitudeMeters>
            <DistanceMeters>21261.215732816</DistanceMeters>
          </Trackpoint>
          <Trackpoint>
            <Time>2018-05-01T12:31:06.000Z</Time>
            <Position>
              <LatitudeDegrees>42.70041053183376789093017578125</LatitudeDegrees>
              <LongitudeDegrees>1.23627833090722560882568359375</LongitudeDegrees>
            </Position>
            <AltitudeMeters>1765.199951171875</AltitudeMeters>
            <DistanceMeters>21262.739126936</DistanceMeters>
          </Trackpoint>
          <Trackpoint>
            <Time>2018-05-01T12:31:07.000Z</Time>
            <Position>
              <LatitudeDegrees>42.70039795897901058197021484375</LatitudeDegrees>
              <LongitudeDegrees>1.23627967201173305511474609375</LongitudeDegrees>
            </Position>
            <AltitudeMeters>1765</AltitudeMeters>
            <DistanceMeters>21264.14217956</DistanceMeters>
          </Trackpoint>
          <Trackpoint>
            <Time>2018-05-01T12:31:08.000Z</Time>
            <Position>
              <LatitudeDegrees>42.7003834582865238189697265625</LatitudeDegrees>
              <LongitudeDegrees>1.23628319241106510162353515625</LongitudeDegrees>
            </Position>
            <AltitudeMeters>1765</AltitudeMeters>
            <DistanceMeters>21265.782594989</DistanceMeters>
          </Trackpoint>
          <Trackpoint>
            <Time>2018-05-01T12:31:09.000Z</Time>
            <Position>
              <LatitudeDegrees>42.70036862231791019439697265625</LatitudeDegrees>
              <LongitudeDegrees>1.23628252185881137847900390625</LongitudeDegrees>
            </Position>
            <AltitudeMeters>1764.800048828125</AltitudeMeters>
            <DistanceMeters>21267.439442369</DistanceMeters>
          </Trackpoint>
          <Trackpoint>
            <Time>2018-05-01T12:31:10.000Z</Time>
            <Position>
              <LatitudeDegrees>42.7003557980060577392578125</LatitudeDegrees>
              <LongitudeDegrees>1.2362846173346042633056640625</LongitudeDegrees>
            </Position>
            <AltitudeMeters>1764.5999755859375</AltitudeMeters>
            <DistanceMeters>21268.87431429</DistanceMeters>
          </Trackpoint>
          <Trackpoint>
            <Time>2018-05-01T12:31:11.000Z</Time>
            <Position>
              <LatitudeDegrees>42.70034314133226871490478515625</LatitudeDegrees>
              <LongitudeDegrees>1.23629090376198291778564453125</LongitudeDegrees>
            </Position>
            <AltitudeMeters>1764.4000244140625</AltitudeMeters>
            <DistanceMeters>21270.370796484</DistanceMeters>
          </Trackpoint>
          <Trackpoint>
            <Time>2018-05-01T12:31:16.000Z</Time>
            <Position>
              <LatitudeDegrees>42.700298465788364410400390625</LatitudeDegrees>
              <LongitudeDegrees>1.236346475780010223388671875</LongitudeDegrees>
            </Position>
            <AltitudeMeters>1764.199951171875</AltitudeMeters>
            <DistanceMeters>21277.107647693</DistanceMeters>
          </Trackpoint>
          <Trackpoint>
            <Time>2018-05-01T12:31:17.000Z</Time>
            <Position>
              <LatitudeDegrees>42.7002899162471294403076171875</LatitudeDegrees>
              <LongitudeDegrees>1.23635930009186267852783203125</LongitudeDegrees>
            </Position>
            <AltitudeMeters>1764</AltitudeMeters>
            <DistanceMeters>21278.523513848</DistanceMeters>
          </Trackpoint>
          <Trackpoint>
            <Time>2018-05-01T12:31:18.000Z</Time>
            <Position>
              <LatitudeDegrees>42.70028044469654560089111328125</LatitudeDegrees>
              <LongitudeDegrees>1.23637321405112743377685546875</LongitudeDegrees>
            </Position>
            <AltitudeMeters>1763.800048828125</AltitudeMeters>
            <DistanceMeters>21280.079168208</DistanceMeters>
          </Trackpoint>
          <Trackpoint>
            <Time>2018-05-01T12:31:23.000Z</Time>
            <Position>
              <LatitudeDegrees>42.70023082382977008819580078125</LatitudeDegrees>
              <LongitudeDegrees>1.23642794787883758544921875</LongitudeDegrees>
            </Position>
            <AltitudeMeters>1763.199951171875</AltitudeMeters>
            <DistanceMeters>21287.189046402</DistanceMeters>
          </Trackpoint>
          <Trackpoint>
            <Time>2018-05-01T12:31:40.000Z</Time>
            <Position>
              <LatitudeDegrees>42.70002881996333599090576171875</LatitudeDegrees>
              <LongitudeDegrees>1.2363670952618122100830078125</LongitudeDegrees>
            </Position>
            <AltitudeMeters>1762.4000244140625</AltitudeMeters>
            <DistanceMeters>21310.216903643</DistanceMeters>
          </Trackpoint>
          <Trackpoint>
            <Time>2018-05-01T12:31:54.000Z</Time>
            <Position>
              <LatitudeDegrees>42.6998835615813732147216796875</LatitudeDegrees>
              <LongitudeDegrees>1.23633549548685550689697265625</LongitudeDegrees>
            </Position>
            <AltitudeMeters>1760.5999755859375</AltitudeMeters>
            <DistanceMeters>21326.589926558</DistanceMeters>
          </Trackpoint>
          <Trackpoint>
            <Time>2018-05-01T12:32:15.000Z</Time>
            <Position>
              <LatitudeDegrees>42.69969421438872814178466796875</LatitudeDegrees>
              <LongitudeDegrees>1.23636818490922451019287109375</LongitudeDegrees>
            </Position>
            <AltitudeMeters>1757.800048828125</AltitudeMeters>
            <DistanceMeters>21347.833445578</DistanceMeters>
          </Trackpoint>
          <Trackpoint>
            <Time>2018-05-01T12:32:33.000Z</Time>
            <Position>
              <LatitudeDegrees>42.69946203567087650299072265625</LatitudeDegrees>
              <LongitudeDegrees>1.23640590347349643707275390625</LongitudeDegrees>
            </Position>
            <AltitudeMeters>1755.4000244140625</AltitudeMeters>
            <DistanceMeters>21373.858971008</DistanceMeters>
          </Trackpoint>
          <Trackpoint>
            <Time>2018-05-01T12:32:50.000Z</Time>
            <Position>
              <LatitudeDegrees>42.699245698750019073486328125</LatitudeDegrees>
              <LongitudeDegrees>1.23639567755162715911865234375</LongitudeDegrees>
            </Position>
            <AltitudeMeters>1753</AltitudeMeters>
            <DistanceMeters>21397.952319346</DistanceMeters>
          </Trackpoint>
          <Trackpoint>
            <Time>2018-05-01T12:33:05.000Z</Time>
            <Position>
              <LatitudeDegrees>42.699019052088260650634765625</LatitudeDegrees>
              <LongitudeDegrees>1.2364381738007068634033203125</LongitudeDegrees>
            </Position>
            <AltitudeMeters>1750.4000244140625</AltitudeMeters>
            <DistanceMeters>21423.416996635</DistanceMeters>
          </Trackpoint>
          <Trackpoint>
            <Time>2018-05-01T12:33:21.000Z</Time>
            <Position>
              <LatitudeDegrees>42.69882383756339550018310546875</LatitudeDegrees>
              <LongitudeDegrees>1.23644244857132434844970703125</LongitudeDegrees>
            </Position>
            <AltitudeMeters>1748.4000244140625</AltitudeMeters>
            <DistanceMeters>21445.147800754</DistanceMeters>
          </Trackpoint>
          <Trackpoint>
            <Time>2018-05-01T12:33:22.000Z</Time>
            <Position>
              <LatitudeDegrees>42.6988157071173191070556640625</LatitudeDegrees>
              <LongitudeDegrees>1.236449070274829864501953125</LongitudeDegrees>
            </Position>
            <AltitudeMeters>1748.199951171875</AltitudeMeters>
            <DistanceMeters>21446.201697999</DistanceMeters>
          </Trackpoint>
          <Trackpoint>
            <Time>2018-05-01T12:33:23.000Z</Time>
            <Position>
              <LatitudeDegrees>42.6988069899380207061767578125</LatitudeDegrees>
              <LongitudeDegrees>1.236450411379337310791015625</LongitudeDegrees>
            </Position>
            <AltitudeMeters>1748.199951171875</AltitudeMeters>
            <DistanceMeters>21447.180057903</DistanceMeters>
          </Trackpoint>
          <Trackpoint>
            <Time>2018-05-01T12:33:24.000Z</Time>
            <Position>
              <LatitudeDegrees>42.69880087114870548248291015625</LatitudeDegrees>
              <LongitudeDegrees>1.23645217157900333404541015625</LongitudeDegrees>
            </Position>
            <AltitudeMeters>1748.199951171875</AltitudeMeters>
            <DistanceMeters>21447.87835879</DistanceMeters>
          </Trackpoint>
          <Trackpoint>
            <Time>2018-05-01T12:33:25.000Z</Time>
            <Position>
              <LatitudeDegrees>42.69878997467458248138427734375</LatitudeDegrees>
              <LongitudeDegrees>1.23645535670220851898193359375</LongitudeDegrees>
            </Position>
            <AltitudeMeters>1748</AltitudeMeters>
            <DistanceMeters>21449.120994324</DistanceMeters>
          </Trackpoint>
          <Trackpoint>
            <Time>2018-05-01T12:33:26.000Z</Time>
            <Position>
              <LatitudeDegrees>42.69878008402884006500244140625</LatitudeDegrees>
              <LongitudeDegrees>1.23646591790020465850830078125</LongitudeDegrees>
            </Position>
            <AltitudeMeters>1747.800048828125</AltitudeMeters>
            <DistanceMeters>21450.524046948</DistanceMeters>
          </Trackpoint>
          <Trackpoint>
            <Time>2018-05-01T12:33:27.000Z</Time>
            <Position>
              <LatitudeDegrees>42.6987717859447002410888671875</LatitudeDegrees>
              <LongitudeDegrees>1.23647647909820079803466796875</LongitudeDegrees>
            </Position>
            <AltitudeMeters>1747.5999755859375</AltitudeMeters>
            <DistanceMeters>21451.788295156</DistanceMeters>
          </Trackpoint>
          <Trackpoint>
            <Time>2018-05-01T12:33:28.000Z</Time>
            <Position>
              <LatitudeDegrees>42.69876281730830669403076171875</LatitudeDegrees>
              <LongitudeDegrees>1.2364837713539600372314453125</LongitudeDegrees>
            </Position>
            <AltitudeMeters>1747.4000244140625</AltitudeMeters>
            <DistanceMeters>21452.952129966</DistanceMeters>
          </Trackpoint>
          <Trackpoint>
            <Time>2018-05-01T12:33:29.000Z</Time>
            <Position>
              <LatitudeDegrees>42.69874848425388336181640625</LatitudeDegrees>
              <LongitudeDegrees>1.23648821376264095306396484375</LongitudeDegrees>
            </Position>
            <AltitudeMeters>1747.199951171875</AltitudeMeters>
            <DistanceMeters>21454.587031379</DistanceMeters>
          </Trackpoint>
          <Trackpoint>
            <Time>2018-05-01T12:33:33.000Z</Time>
            <Position>
              <LatitudeDegrees>42.6986926607787609100341796875</LatitudeDegrees>
              <LongitudeDegrees>1.23651369474828243255615234375</LongitudeDegrees>
            </Position>
            <AltitudeMeters>1746.4000244140625</AltitudeMeters>
            <DistanceMeters>21461.140430769</DistanceMeters>
          </Trackpoint>
          <Trackpoint>
            <Time>2018-05-01T12:33:36.000Z</Time>
            <Position>
              <LatitudeDegrees>42.698658965528011322021484375</LatitudeDegrees>
              <LongitudeDegrees>1.2365357391536235809326171875</LongitudeDegrees>
            </Position>
            <AltitudeMeters>1745.800048828125</AltitudeMeters>
            <DistanceMeters>21465.302123528</DistanceMeters>
          </Trackpoint>
          <Trackpoint>
            <Time>2018-05-01T12:33:37.000Z</Time>
            <Position>
              <LatitudeDegrees>42.69864697940647602081298828125</LatitudeDegrees>
              <LongitudeDegrees>1.23653716407716274261474609375</LongitudeDegrees>
            </Position>
            <AltitudeMeters>1745.5999755859375</AltitudeMeters>
            <DistanceMeters>21466.642640298</DistanceMeters>
          </Trackpoint>
          <Trackpoint>
            <Time>2018-05-01T12:33:38.000Z</Time>
            <Position>
              <LatitudeDegrees>42.69863239489495754241943359375</LatitudeDegrees>
              <LongitudeDegrees>1.23654194176197052001953125</LongitudeDegrees>
            </Position>
            <AltitudeMeters>1745.5999755859375</AltitudeMeters>
            <DistanceMeters>21468.310352367</DistanceMeters>
          </Trackpoint>
          <Trackpoint>
            <Time>2018-05-01T12:33:40.000Z</Time>
            <Position>
              <LatitudeDegrees>42.6986078359186649322509765625</LatitudeDegrees>
              <LongitudeDegrees>1.23654504306614398956298828125</LongitudeDegrees>
            </Position>
            <AltitudeMeters>1745.4000244140625</AltitudeMeters>
            <DistanceMeters>21471.054634378</DistanceMeters>
          </Trackpoint>
          <Trackpoint>
            <Time>2018-05-01T12:33:41.000Z</Time>
            <Position>
              <LatitudeDegrees>42.69859383814036846160888671875</LatitudeDegrees>
              <LongitudeDegrees>1.2365374155342578887939453125</LongitudeDegrees>
            </Position>
            <AltitudeMeters>1745.199951171875</AltitudeMeters>
            <DistanceMeters>21472.733140812</DistanceMeters>
          </Trackpoint>
          <Trackpoint>
            <Time>2018-05-01T12:33:43.000Z</Time>
            <Position>
              <LatitudeDegrees>42.698567770421504974365234375</LatitudeDegrees>
              <LongitudeDegrees>1.23653582297265529632568359375</LongitudeDegrees>
            </Position>
            <AltitudeMeters>1745</AltitudeMeters>
            <DistanceMeters>21475.6388458</DistanceMeters>
          </Trackpoint>
          <Trackpoint>
            <Time>2018-05-01T12:33:44.000Z</Time>
            <Position>
              <LatitudeDegrees>42.6985535211861133575439453125</LatitudeDegrees>
              <LongitudeDegrees>1.23653565533459186553955078125</LongitudeDegrees>
            </Position>
            <AltitudeMeters>1744.800048828125</AltitudeMeters>
            <DistanceMeters>21477.223257758</DistanceMeters>
          </Trackpoint>
          <Trackpoint>
            <Time>2018-05-01T12:33:54.000Z</Time>
            <Position>
              <LatitudeDegrees>42.69842796027660369873046875</LatitudeDegrees>
              <LongitudeDegrees>1.2365464679896831512451171875</LongitudeDegrees>
            </Position>
            <AltitudeMeters>1743.4000244140625</AltitudeMeters>
            <DistanceMeters>21491.226081755</DistanceMeters>
          </Trackpoint>
          <Trackpoint>
            <Time>2018-05-01T12:34:11.000Z</Time>
            <Position>
              <LatitudeDegrees>42.698241211473941802978515625</LatitudeDegrees>
              <LongitudeDegrees>1.2367161177098751068115234375</LongitudeDegrees>
            </Position>
            <AltitudeMeters>1741.199951171875</AltitudeMeters>
            <DistanceMeters>21516.218288293</DistanceMeters>
          </Trackpoint>
          <Trackpoint>
            <Time>2018-05-01T12:34:12.000Z</Time>
            <Position>
              <LatitudeDegrees>42.69822654314339160919189453125</LatitudeDegrees>
              <LongitudeDegrees>1.2367174588143825531005859375</LongitudeDegrees>
            </Position>
            <AltitudeMeters>1741.199951171875</AltitudeMeters>
            <DistanceMeters>21517.853189705</DistanceMeters>
          </Trackpoint>
          <Trackpoint>
            <Time>2018-05-01T12:34:13.000Z</Time>
            <Position>
              <LatitudeDegrees>42.6982175745069980621337890625</LatitudeDegrees>
              <LongitudeDegrees>1.236721314489841461181640625</LongitudeDegrees>
            </Position>
            <AltitudeMeters>1741</AltitudeMeters>
            <DistanceMeters>21518.898483563</DistanceMeters>
          </Trackpoint>
          <Trackpoint>
            <Time>2018-05-01T12:34:28.000Z</Time>
            <Position>
              <LatitudeDegrees>42.698029987514019012451171875</LatitudeDegrees>
              <LongitudeDegrees>1.2367452867329120635986328125</LongitudeDegrees>
            </Position>
            <AltitudeMeters>1738</AltitudeMeters>
            <DistanceMeters>21539.869266879</DistanceMeters>
          </Trackpoint>
          <Trackpoint>
            <Time>2018-05-01T12:34:44.000Z</Time>
            <Position>
              <LatitudeDegrees>42.697863690555095672607421875</LatitudeDegrees>
              <LongitudeDegrees>1.2367697618901729583740234375</LongitudeDegrees>
            </Position>
            <AltitudeMeters>1734.800048828125</AltitudeMeters>
            <DistanceMeters>21558.486258958</DistanceMeters>
          </Trackpoint>
          <Trackpoint>
            <Time>2018-05-01T12:35:01.000Z</Time>
            <Position>
              <LatitudeDegrees>42.6976586692035198211669921875</LatitudeDegrees>
              <LongitudeDegrees>1.2367496453225612640380859375</LongitudeDegrees>
            </Position>
            <AltitudeMeters>1731.5999755859375</AltitudeMeters>
            <DistanceMeters>21581.364618843</DistanceMeters>
          </Trackpoint>
          <Trackpoint>
            <Time>2018-05-01T12:35:16.000Z</Time>
            <Position>
              <LatitudeDegrees>42.697478793561458587646484375</LatitudeDegrees>
              <LongitudeDegrees>1.23668552376329898834228515625</LongitudeDegrees>
            </Position>
            <AltitudeMeters>1728.5999755859375</AltitudeMeters>
            <DistanceMeters>21602.060817673</DistanceMeters>
          </Trackpoint>
          <Trackpoint>
            <Time>2018-05-01T12:35:29.000Z</Time>
            <Position>
              <LatitudeDegrees>42.69729816354811191558837890625</LatitudeDegrees>
              <LongitudeDegrees>1.23667160980403423309326171875</LongitudeDegrees>
            </Position>
            <AltitudeMeters>1725.5999755859375</AltitudeMeters>
            <DistanceMeters>21622.19751434</DistanceMeters>
          </Trackpoint>
          <Trackpoint>
            <Time>2018-05-01T12:35:46.000Z</Time>
            <Position>
              <LatitudeDegrees>42.69707788713276386260986328125</LatitudeDegrees>
              <LongitudeDegrees>1.23669289983808994293212890625</LongitudeDegrees>
            </Position>
            <AltitudeMeters>1723</AltitudeMeters>
            <DistanceMeters>21646.77657401</DistanceMeters>
          </Trackpoint>
          <Trackpoint>
            <Time>2018-05-01T12:36:02.000Z</Time>
            <Position>
              <LatitudeDegrees>42.6968828402459621429443359375</LatitudeDegrees>
              <LongitudeDegrees>1.2366846017539501190185546875</LongitudeDegrees>
            </Position>
            <AltitudeMeters>1719.800048828125</AltitudeMeters>
            <DistanceMeters>21668.496363456</DistanceMeters>
          </Trackpoint>
          <Trackpoint>
            <Time>2018-05-01T12:36:19.000Z</Time>
            <Position>
              <LatitudeDegrees>42.696741521358489990234375</LatitudeDegrees>
              <LongitudeDegrees>1.23673011548817157745361328125</LongitudeDegrees>
            </Position>
            <AltitudeMeters>1716.800048828125</AltitudeMeters>
            <DistanceMeters>21684.659846115</DistanceMeters>
          </Trackpoint>
          <Trackpoint>
            <Time>2018-05-01T12:36:29.000Z</Time>
            <Position>
              <LatitudeDegrees>42.69672232680022716522216796875</LatitudeDegrees>
              <LongitudeDegrees>1.2367301993072032928466796875</LongitudeDegrees>
            </Position>
            <AltitudeMeters>1716.5999755859375</AltitudeMeters>
            <DistanceMeters>21686.795305926</DistanceMeters>
          </Trackpoint>
          <Trackpoint>
            <Time>2018-05-01T12:36:41.000Z</Time>
            <Position>
              <LatitudeDegrees>42.69671377725899219512939453125</LatitudeDegrees>
              <LongitudeDegrees>1.23674335889518260955810546875</LongitudeDegrees>
            </Position>
            <AltitudeMeters>1717</AltitudeMeters>
            <DistanceMeters>21688.236457404</DistanceMeters>
          </Trackpoint>
        </Track>
      </Lap>
    </Activity>
  </Activities>
</TrainingCenterDatabase>
